<?xml version="1.0" encoding="UTF-8" standalone="no" ?>
<gpx xmlns="http://www.topografix.com/GPX/1/1" xmlns:xsi="http://www.w3.org/2001/XMLSchema-instance" xsi:schemaLocation="http://www.topografix.com/GPX/1/1 http://www.topografix.com/GPX/1/1/gpx.xsd" version="1.1" creator="VisuGPX - https://www.visugpx.com">
  <metadata>
    <name>PIRINEUS 140K</name>
    <desc><![CDATA[
TRAVESSA PER ELS PIRINEUS- CERDANYA- ARIEGE]]></desc>
  </metadata>
  <trk>
    <name><![CDATA[PIRINEUS 150K]]></name>
    <extensions>
      <line xmlns="http://www.topografix.com/GPX/gpx_style/0/2">
        <width>4</width>
      </line>
    </extensions>
    <trkseg>
      <trkpt lat="42.446" lon="1.78695">
        <ele>1534</ele>
        <time>2020-02-13T23:00:03.000Z</time>
      </trkpt>
      <trkpt lat="42.44601" lon="1.78696">
        <ele>1533.9</ele>
        <time>2020-02-13T23:00:03.628Z</time>
      </trkpt>
      <trkpt lat="42.44617" lon="1.78703">
        <ele>1535.8</ele>
        <time>2020-02-13T23:00:11.721Z</time>
      </trkpt>
      <trkpt lat="42.4462" lon="1.787">
        <ele>1537.3</ele>
        <time>2020-02-13T23:00:13.632Z</time>
      </trkpt>
      <trkpt lat="42.44622" lon="1.78697">
        <ele>1533.4</ele>
        <time>2020-02-13T23:00:15.883Z</time>
      </trkpt>
      <trkpt lat="42.44623" lon="1.78695">
        <ele>1540.8</ele>
        <time>2020-02-13T23:00:19.212Z</time>
      </trkpt>
      <trkpt lat="42.44624" lon="1.78693">
        <ele>1540.8</ele>
        <time>2020-02-13T23:00:19.990Z</time>
      </trkpt>
      <trkpt lat="42.44626" lon="1.78687">
        <ele>1538.4</ele>
        <time>2020-02-13T23:00:22.749Z</time>
      </trkpt>
      <trkpt lat="42.44631" lon="1.78666">
        <ele>1542.2</ele>
        <time>2020-02-13T23:00:30.871Z</time>
      </trkpt>
      <trkpt lat="42.44637" lon="1.78662">
        <ele>1537.9</ele>
        <time>2020-02-13T23:00:34.465Z</time>
      </trkpt>
      <trkpt lat="42.44638" lon="1.78661">
        <ele>1546.4</ele>
        <time>2020-02-13T23:00:38.295Z</time>
      </trkpt>
      <trkpt lat="42.4464" lon="1.78661">
        <ele>1542.2</ele>
        <time>2020-02-13T23:00:40.309Z</time>
      </trkpt>
      <trkpt lat="42.44646" lon="1.78647">
        <ele>1543.5</ele>
        <time>2020-02-13T23:00:46.039Z</time>
      </trkpt>
      <trkpt lat="42.44652" lon="1.78659">
        <ele>1546.4</ele>
        <time>2020-02-13T23:00:51.575Z</time>
      </trkpt>
      <trkpt lat="42.44657" lon="1.78682">
        <ele>1550.3</ele>
        <time>2020-02-13T23:01:00.162Z</time>
      </trkpt>
      <trkpt lat="42.44669" lon="1.78703">
        <ele>1553.2</ele>
        <time>2020-02-13T23:01:09.886Z</time>
      </trkpt>
      <trkpt lat="42.4467" lon="1.78709">
        <ele>1554.6</ele>
        <time>2020-02-13T23:01:12.265Z</time>
      </trkpt>
      <trkpt lat="42.44672" lon="1.78716">
        <ele>1555.7</ele>
        <time>2020-02-13T23:01:15.049Z</time>
      </trkpt>
      <trkpt lat="42.44676" lon="1.78727">
        <ele>1557</ele>
        <time>2020-02-13T23:01:19.503Z</time>
      </trkpt>
      <trkpt lat="42.44686" lon="1.78732">
        <ele>1559.5</ele>
        <time>2020-02-13T23:01:24.772Z</time>
      </trkpt>
      <trkpt lat="42.44701" lon="1.78742">
        <ele>1562.9</ele>
        <time>2020-02-13T23:01:32.663Z</time>
      </trkpt>
      <trkpt lat="42.44704" lon="1.78743">
        <ele>1564.2</ele>
        <time>2020-02-13T23:01:34.323Z</time>
      </trkpt>
      <trkpt lat="42.44715" lon="1.78746">
        <ele>1567.1</ele>
        <time>2020-02-13T23:01:40.113Z</time>
      </trkpt>
      <trkpt lat="42.44727" lon="1.78749">
        <ele>1570.6</ele>
        <time>2020-02-13T23:01:46.134Z</time>
      </trkpt>
      <trkpt lat="42.44738" lon="1.78751">
        <ele>1573.8</ele>
        <time>2020-02-13T23:01:51.939Z</time>
      </trkpt>
      <trkpt lat="42.44739" lon="1.78751">
        <ele>1573.8</ele>
        <time>2020-02-13T23:01:52.330Z</time>
      </trkpt>
      <trkpt lat="42.44745" lon="1.78742">
        <ele>1575.8</ele>
        <time>2020-02-13T23:01:56.844Z</time>
      </trkpt>
      <trkpt lat="42.44751" lon="1.78703">
        <ele>1579.1</ele>
        <time>2020-02-13T23:02:11.367Z</time>
      </trkpt>
      <trkpt lat="42.44756" lon="1.78684">
        <ele>1582.1</ele>
        <time>2020-02-13T23:02:18.668Z</time>
      </trkpt>
      <trkpt lat="42.44769" lon="1.78671">
        <ele>1585.4</ele>
        <time>2020-02-13T23:02:26.531Z</time>
      </trkpt>
      <trkpt lat="42.44778" lon="1.78682">
        <ele>1588.8</ele>
        <time>2020-02-13T23:02:32.826Z</time>
      </trkpt>
      <trkpt lat="42.44785" lon="1.7869">
        <ele>1591.7</ele>
        <time>2020-02-13T23:02:37.432Z</time>
      </trkpt>
      <trkpt lat="42.44795" lon="1.78691">
        <ele>1595.1</ele>
        <time>2020-02-13T23:02:42.276Z</time>
      </trkpt>
      <trkpt lat="42.44804" lon="1.78692">
        <ele>1598.4</ele>
        <time>2020-02-13T23:02:47.136Z</time>
      </trkpt>
      <trkpt lat="42.44806" lon="1.78693">
        <ele>1599.3</ele>
        <time>2020-02-13T23:02:48.383Z</time>
      </trkpt>
      <trkpt lat="42.44816" lon="1.78692">
        <ele>1602.7</ele>
        <time>2020-02-13T23:02:53.477Z</time>
      </trkpt>
      <trkpt lat="42.44825" lon="1.78696">
        <ele>1606</ele>
        <time>2020-02-13T23:02:57.898Z</time>
      </trkpt>
      <trkpt lat="42.44836" lon="1.78704">
        <ele>1609.5</ele>
        <time>2020-02-13T23:03:04.168Z</time>
      </trkpt>
      <trkpt lat="42.44845" lon="1.78709">
        <ele>1612.4</ele>
        <time>2020-02-13T23:03:09.330Z</time>
      </trkpt>
      <trkpt lat="42.44855" lon="1.78714">
        <ele>1615.2</ele>
        <time>2020-02-13T23:03:14.529Z</time>
      </trkpt>
      <trkpt lat="42.44864" lon="1.78714">
        <ele>1618</ele>
        <time>2020-02-13T23:03:19.325Z</time>
      </trkpt>
      <trkpt lat="42.44878" lon="1.78717">
        <ele>1620.9</ele>
        <time>2020-02-13T23:03:26.335Z</time>
      </trkpt>
      <trkpt lat="42.44892" lon="1.78724">
        <ele>1624.4</ele>
        <time>2020-02-13T23:03:33.743Z</time>
      </trkpt>
      <trkpt lat="42.44906" lon="1.78729">
        <ele>1627.2</ele>
        <time>2020-02-13T23:03:40.868Z</time>
      </trkpt>
      <trkpt lat="42.44916" lon="1.78729">
        <ele>1630.5</ele>
        <time>2020-02-13T23:03:45.863Z</time>
      </trkpt>
      <trkpt lat="42.44929" lon="1.7873">
        <ele>1633.4</ele>
        <time>2020-02-13T23:03:52.240Z</time>
      </trkpt>
      <trkpt lat="42.44936" lon="1.78732">
        <ele>1635.3</ele>
        <time>2020-02-13T23:03:55.826Z</time>
      </trkpt>
      <trkpt lat="42.44946" lon="1.7873">
        <ele>1639.2</ele>
        <time>2020-02-13T23:04:01.195Z</time>
      </trkpt>
      <trkpt lat="42.44948" lon="1.78731">
        <ele>1639.8</ele>
        <time>2020-02-13T23:04:02.247Z</time>
      </trkpt>
      <trkpt lat="42.4496" lon="1.7873">
        <ele>1642.7</ele>
        <time>2020-02-13T23:04:08.092Z</time>
      </trkpt>
      <trkpt lat="42.44973" lon="1.7873">
        <ele>1646</ele>
        <time>2020-02-13T23:04:14.551Z</time>
      </trkpt>
      <trkpt lat="42.44986" lon="1.78734">
        <ele>1647.4</ele>
        <time>2020-02-13T23:04:20.989Z</time>
      </trkpt>
      <trkpt lat="42.44993" lon="1.78736">
        <ele>1650.8</ele>
        <time>2020-02-13T23:04:24.981Z</time>
      </trkpt>
      <trkpt lat="42.44998" lon="1.78738">
        <ele>1651.8</ele>
        <time>2020-02-13T23:04:27.584Z</time>
      </trkpt>
      <trkpt lat="42.45007" lon="1.78741">
        <ele>1655.1</ele>
        <time>2020-02-13T23:04:32.000Z</time>
      </trkpt>
      <trkpt lat="42.45007" lon="1.78741">
        <ele>1655.1</ele>
        <time>2020-02-13T23:04:32.351Z</time>
      </trkpt>
      <trkpt lat="42.4501" lon="1.78742">
        <ele>1655.6</ele>
        <time>2020-02-13T23:04:33.834Z</time>
      </trkpt>
      <trkpt lat="42.45018" lon="1.78748">
        <ele>1660.3</ele>
        <time>2020-02-13T23:04:38.626Z</time>
      </trkpt>
      <trkpt lat="42.45019" lon="1.78749">
        <ele>1657.9</ele>
        <time>2020-02-13T23:04:39.770Z</time>
      </trkpt>
      <trkpt lat="42.45022" lon="1.78748">
        <ele>1659.5</ele>
        <time>2020-02-13T23:04:41.428Z</time>
      </trkpt>
      <trkpt lat="42.45034" lon="1.7875">
        <ele>1663.3</ele>
        <time>2020-02-13T23:04:47.552Z</time>
      </trkpt>
      <trkpt lat="42.45043" lon="1.78751">
        <ele>1666.1</ele>
        <time>2020-02-13T23:04:52.263Z</time>
      </trkpt>
      <trkpt lat="42.45058" lon="1.78757">
        <ele>1669.1</ele>
        <time>2020-02-13T23:04:59.928Z</time>
      </trkpt>
      <trkpt lat="42.4507" lon="1.78762">
        <ele>1672.5</ele>
        <time>2020-02-13T23:05:06.342Z</time>
      </trkpt>
      <trkpt lat="42.45072" lon="1.78763">
        <ele>1673.3</ele>
        <time>2020-02-13T23:05:07.610Z</time>
      </trkpt>
      <trkpt lat="42.45082" lon="1.78769">
        <ele>1676.3</ele>
        <time>2020-02-13T23:05:12.956Z</time>
      </trkpt>
      <trkpt lat="42.45093" lon="1.78776">
        <ele>1680.1</ele>
        <time>2020-02-13T23:05:19.151Z</time>
      </trkpt>
      <trkpt lat="42.45111" lon="1.78787">
        <ele>1683</ele>
        <time>2020-02-13T23:05:28.913Z</time>
      </trkpt>
      <trkpt lat="42.45125" lon="1.78794">
        <ele>1686.3</ele>
        <time>2020-02-13T23:05:36.218Z</time>
      </trkpt>
      <trkpt lat="42.45134" lon="1.78798">
        <ele>1689.2</ele>
        <time>2020-02-13T23:05:40.983Z</time>
      </trkpt>
      <trkpt lat="42.45144" lon="1.78801">
        <ele>1692.1</ele>
        <time>2020-02-13T23:05:46.009Z</time>
      </trkpt>
      <trkpt lat="42.45151" lon="1.78801">
        <ele>1695.4</ele>
        <time>2020-02-13T23:05:49.669Z</time>
      </trkpt>
      <trkpt lat="42.45151" lon="1.78801">
        <ele>1695.4</ele>
        <time>2020-02-13T23:05:50.096Z</time>
      </trkpt>
      <trkpt lat="42.4516" lon="1.78807">
        <ele>1698.9</ele>
        <time>2020-02-13T23:05:54.794Z</time>
      </trkpt>
      <trkpt lat="42.45168" lon="1.78814">
        <ele>1702.2</ele>
        <time>2020-02-13T23:05:59.859Z</time>
      </trkpt>
      <trkpt lat="42.45169" lon="1.78814">
        <ele>1702.7</ele>
        <time>2020-02-13T23:06:00.281Z</time>
      </trkpt>
      <trkpt lat="42.45178" lon="1.78821">
        <ele>1706</ele>
        <time>2020-02-13T23:06:05.733Z</time>
      </trkpt>
      <trkpt lat="42.45183" lon="1.78823">
        <ele>1707.4</ele>
        <time>2020-02-13T23:06:08.264Z</time>
      </trkpt>
      <trkpt lat="42.45186" lon="1.78824">
        <ele>1708.5</ele>
        <time>2020-02-13T23:06:09.633Z</time>
      </trkpt>
      <trkpt lat="42.45195" lon="1.78829">
        <ele>1711.8</ele>
        <time>2020-02-13T23:06:14.781Z</time>
      </trkpt>
      <trkpt lat="42.45203" lon="1.78835">
        <ele>1714.7</ele>
        <time>2020-02-13T23:06:19.234Z</time>
      </trkpt>
      <trkpt lat="42.45204" lon="1.78835">
        <ele>1715.1</ele>
        <time>2020-02-13T23:06:19.691Z</time>
      </trkpt>
      <trkpt lat="42.45216" lon="1.78853">
        <ele>1718.1</ele>
        <time>2020-02-13T23:06:28.688Z</time>
      </trkpt>
      <trkpt lat="42.45221" lon="1.78879">
        <ele>1721.4</ele>
        <time>2020-02-13T23:06:38.303Z</time>
      </trkpt>
      <trkpt lat="42.45222" lon="1.78888">
        <ele>1722.9</ele>
        <time>2020-02-13T23:06:41.698Z</time>
      </trkpt>
      <trkpt lat="42.45228" lon="1.78905">
        <ele>1726.3</ele>
        <time>2020-02-13T23:06:48.695Z</time>
      </trkpt>
      <trkpt lat="42.45237" lon="1.78918">
        <ele>1728.6</ele>
        <time>2020-02-13T23:06:55.255Z</time>
      </trkpt>
      <trkpt lat="42.45245" lon="1.7893">
        <ele>1732</ele>
        <time>2020-02-13T23:07:01.156Z</time>
      </trkpt>
      <trkpt lat="42.45254" lon="1.78944">
        <ele>1734.9</ele>
        <time>2020-02-13T23:07:07.892Z</time>
      </trkpt>
      <trkpt lat="42.45254" lon="1.78945">
        <ele>1735.4</ele>
        <time>2020-02-13T23:07:08.359Z</time>
      </trkpt>
      <trkpt lat="42.45262" lon="1.78962">
        <ele>1738.2</ele>
        <time>2020-02-13T23:07:15.482Z</time>
      </trkpt>
      <trkpt lat="42.45271" lon="1.78973">
        <ele>1741.6</ele>
        <time>2020-02-13T23:07:21.743Z</time>
      </trkpt>
      <trkpt lat="42.45282" lon="1.78985">
        <ele>1744.9</ele>
        <time>2020-02-13T23:07:28.590Z</time>
      </trkpt>
      <trkpt lat="42.45289" lon="1.78993">
        <ele>1748.3</ele>
        <time>2020-02-13T23:07:33.487Z</time>
      </trkpt>
      <trkpt lat="42.45298" lon="1.79">
        <ele>1752.1</ele>
        <time>2020-02-13T23:07:38.951Z</time>
      </trkpt>
      <trkpt lat="42.45306" lon="1.78996">
        <ele>1755</ele>
        <time>2020-02-13T23:07:42.889Z</time>
      </trkpt>
      <trkpt lat="42.45313" lon="1.78996">
        <ele>1758.4</ele>
        <time>2020-02-13T23:07:46.987Z</time>
      </trkpt>
      <trkpt lat="42.4532" lon="1.78997">
        <ele>1761.9</ele>
        <time>2020-02-13T23:07:50.378Z</time>
      </trkpt>
      <trkpt lat="42.45328" lon="1.78999">
        <ele>1765.6</ele>
        <time>2020-02-13T23:07:54.884Z</time>
      </trkpt>
      <trkpt lat="42.45337" lon="1.79004">
        <ele>1769.1</ele>
        <time>2020-02-13T23:07:59.941Z</time>
      </trkpt>
      <trkpt lat="42.45345" lon="1.79007">
        <ele>1771.9</ele>
        <time>2020-02-13T23:08:03.964Z</time>
      </trkpt>
      <trkpt lat="42.4535" lon="1.79011">
        <ele>1775.2</ele>
        <time>2020-02-13T23:08:07.426Z</time>
      </trkpt>
      <trkpt lat="42.45359" lon="1.79015">
        <ele>1778.1</ele>
        <time>2020-02-13T23:08:12.009Z</time>
      </trkpt>
      <trkpt lat="42.45364" lon="1.79018">
        <ele>1781.6</ele>
        <time>2020-02-13T23:08:15.256Z</time>
      </trkpt>
      <trkpt lat="42.4537" lon="1.79014">
        <ele>1784.9</ele>
        <time>2020-02-13T23:08:18.857Z</time>
      </trkpt>
      <trkpt lat="42.45373" lon="1.79003">
        <ele>1788.8</ele>
        <time>2020-02-13T23:08:23.473Z</time>
      </trkpt>
      <trkpt lat="42.45374" lon="1.7899">
        <ele>1791.6</ele>
        <time>2020-02-13T23:08:28.268Z</time>
      </trkpt>
      <trkpt lat="42.45376" lon="1.78979">
        <ele>1794.9</ele>
        <time>2020-02-13T23:08:32.617Z</time>
      </trkpt>
      <trkpt lat="42.45376" lon="1.78968">
        <ele>1796.9</ele>
        <time>2020-02-13T23:08:36.643Z</time>
      </trkpt>
      <trkpt lat="42.45377" lon="1.78952">
        <ele>1800.2</ele>
        <time>2020-02-13T23:08:42.549Z</time>
      </trkpt>
      <trkpt lat="42.45377" lon="1.78938">
        <ele>1803.1</ele>
        <time>2020-02-13T23:08:47.503Z</time>
      </trkpt>
      <trkpt lat="42.45377" lon="1.78919">
        <ele>1806.6</ele>
        <time>2020-02-13T23:08:54.683Z</time>
      </trkpt>
      <trkpt lat="42.45377" lon="1.78904">
        <ele>1808.4</ele>
        <time>2020-02-13T23:09:00.286Z</time>
      </trkpt>
      <trkpt lat="42.45379" lon="1.78891">
        <ele>1810.8</ele>
        <time>2020-02-13T23:09:05.058Z</time>
      </trkpt>
      <trkpt lat="42.45382" lon="1.78873">
        <ele>1815.1</ele>
        <time>2020-02-13T23:09:12.077Z</time>
      </trkpt>
      <trkpt lat="42.45385" lon="1.78856">
        <ele>1818</ele>
        <time>2020-02-13T23:09:18.211Z</time>
      </trkpt>
      <trkpt lat="42.45386" lon="1.78851">
        <ele>1819.1</ele>
        <time>2020-02-13T23:09:20.275Z</time>
      </trkpt>
      <trkpt lat="42.45387" lon="1.78841">
        <ele>1821.8</ele>
        <time>2020-02-13T23:09:24.177Z</time>
      </trkpt>
      <trkpt lat="42.45385" lon="1.78823">
        <ele>1825.3</ele>
        <time>2020-02-13T23:09:30.722Z</time>
      </trkpt>
      <trkpt lat="42.45383" lon="1.78805">
        <ele>1828.7</ele>
        <time>2020-02-13T23:09:37.441Z</time>
      </trkpt>
      <trkpt lat="42.45383" lon="1.7879">
        <ele>1831.6</ele>
        <time>2020-02-13T23:09:43.199Z</time>
      </trkpt>
      <trkpt lat="42.45383" lon="1.78775">
        <ele>1834.9</ele>
        <time>2020-02-13T23:09:48.720Z</time>
      </trkpt>
      <trkpt lat="42.45386" lon="1.78755">
        <ele>1838.3</ele>
        <time>2020-02-13T23:09:56.148Z</time>
      </trkpt>
      <trkpt lat="42.45386" lon="1.78753">
        <ele>1839.1</ele>
        <time>2020-02-13T23:09:56.942Z</time>
      </trkpt>
      <trkpt lat="42.45389" lon="1.78743">
        <ele>1842</ele>
        <time>2020-02-13T23:10:00.996Z</time>
      </trkpt>
      <trkpt lat="42.45397" lon="1.78741">
        <ele>1845.5</ele>
        <time>2020-02-13T23:10:05.192Z</time>
      </trkpt>
      <trkpt lat="42.45409" lon="1.78745">
        <ele>1848.9</ele>
        <time>2020-02-13T23:10:11.566Z</time>
      </trkpt>
      <trkpt lat="42.45415" lon="1.78745">
        <ele>1852.1</ele>
        <time>2020-02-13T23:10:14.694Z</time>
      </trkpt>
      <trkpt lat="42.45417" lon="1.78745">
        <ele>1853.7</ele>
        <time>2020-02-13T23:10:15.770Z</time>
      </trkpt>
      <trkpt lat="42.45423" lon="1.78749">
        <ele>1856.9</ele>
        <time>2020-02-13T23:10:19.462Z</time>
      </trkpt>
      <trkpt lat="42.45432" lon="1.78759">
        <ele>1859.8</ele>
        <time>2020-02-13T23:10:25.234Z</time>
      </trkpt>
      <trkpt lat="42.45437" lon="1.78769">
        <ele>1863.2</ele>
        <time>2020-02-13T23:10:29.828Z</time>
      </trkpt>
      <trkpt lat="42.45444" lon="1.78775">
        <ele>1866.6</ele>
        <time>2020-02-13T23:10:34.016Z</time>
      </trkpt>
      <trkpt lat="42.45445" lon="1.78774">
        <ele>1867.5</ele>
        <time>2020-02-13T23:10:34.794Z</time>
      </trkpt>
      <trkpt lat="42.45453" lon="1.78782">
        <ele>1870.9</ele>
        <time>2020-02-13T23:10:39.828Z</time>
      </trkpt>
      <trkpt lat="42.4546" lon="1.78792">
        <ele>1874.2</ele>
        <time>2020-02-13T23:10:44.974Z</time>
      </trkpt>
      <trkpt lat="42.45465" lon="1.78801">
        <ele>1877.2</ele>
        <time>2020-02-13T23:10:49.172Z</time>
      </trkpt>
      <trkpt lat="42.45471" lon="1.78806">
        <ele>1881</ele>
        <time>2020-02-13T23:10:53.058Z</time>
      </trkpt>
      <trkpt lat="42.45476" lon="1.78811">
        <ele>1883.9</ele>
        <time>2020-02-13T23:10:56.251Z</time>
      </trkpt>
      <trkpt lat="42.45484" lon="1.78828">
        <ele>1887.3</ele>
        <time>2020-02-13T23:11:03.696Z</time>
      </trkpt>
      <trkpt lat="42.45488" lon="1.78836">
        <ele>1890.2</ele>
        <time>2020-02-13T23:11:07.523Z</time>
      </trkpt>
      <trkpt lat="42.45495" lon="1.78847">
        <ele>1893.6</ele>
        <time>2020-02-13T23:11:13.054Z</time>
      </trkpt>
      <trkpt lat="42.455" lon="1.78855">
        <ele>1896.8</ele>
        <time>2020-02-13T23:11:16.781Z</time>
      </trkpt>
      <trkpt lat="42.45507" lon="1.78862">
        <ele>1899.8</ele>
        <time>2020-02-13T23:11:21.370Z</time>
      </trkpt>
      <trkpt lat="42.4551" lon="1.78868">
        <ele>1902.6</ele>
        <time>2020-02-13T23:11:24.284Z</time>
      </trkpt>
      <trkpt lat="42.45512" lon="1.7888">
        <ele>1906</ele>
        <time>2020-02-13T23:11:29.055Z</time>
      </trkpt>
      <trkpt lat="42.45517" lon="1.78892">
        <ele>1908.8</ele>
        <time>2020-02-13T23:11:33.967Z</time>
      </trkpt>
      <trkpt lat="42.45521" lon="1.78906">
        <ele>1912.3</ele>
        <time>2020-02-13T23:11:39.657Z</time>
      </trkpt>
      <trkpt lat="42.45527" lon="1.78915">
        <ele>1914.6</ele>
        <time>2020-02-13T23:11:44.288Z</time>
      </trkpt>
      <trkpt lat="42.45528" lon="1.78917">
        <ele>1915.2</ele>
        <time>2020-02-13T23:11:45.102Z</time>
      </trkpt>
      <trkpt lat="42.45537" lon="1.78931">
        <ele>1918.5</ele>
        <time>2020-02-13T23:11:51.936Z</time>
      </trkpt>
      <trkpt lat="42.45545" lon="1.78931">
        <ele>1921.4</ele>
        <time>2020-02-13T23:11:56.267Z</time>
      </trkpt>
      <trkpt lat="42.45554" lon="1.78935">
        <ele>1924.3</ele>
        <time>2020-02-13T23:12:01.035Z</time>
      </trkpt>
      <trkpt lat="42.45569" lon="1.78933">
        <ele>1928.2</ele>
        <time>2020-02-13T23:12:08.514Z</time>
      </trkpt>
      <trkpt lat="42.45584" lon="1.78935">
        <ele>1930.6</ele>
        <time>2020-02-13T23:12:16.016Z</time>
      </trkpt>
      <trkpt lat="42.45593" lon="1.78937">
        <ele>1932.4</ele>
        <time>2020-02-13T23:12:20.413Z</time>
      </trkpt>
      <trkpt lat="42.45612" lon="1.78926">
        <ele>1933.8</ele>
        <time>2020-02-13T23:12:30.485Z</time>
      </trkpt>
      <trkpt lat="42.45626" lon="1.7893">
        <ele>1937.2</ele>
        <time>2020-02-13T23:12:37.736Z</time>
      </trkpt>
      <trkpt lat="42.45638" lon="1.78934">
        <ele>1940.7</ele>
        <time>2020-02-13T23:12:43.694Z</time>
      </trkpt>
      <trkpt lat="42.45648" lon="1.78935">
        <ele>1943.5</ele>
        <time>2020-02-13T23:12:48.871Z</time>
      </trkpt>
      <trkpt lat="42.45656" lon="1.78931">
        <ele>1946.4</ele>
        <time>2020-02-13T23:12:53.168Z</time>
      </trkpt>
      <trkpt lat="42.45666" lon="1.78927">
        <ele>1948.8</ele>
        <time>2020-02-13T23:12:58.519Z</time>
      </trkpt>
      <trkpt lat="42.45676" lon="1.78926">
        <ele>1952.2</ele>
        <time>2020-02-13T23:13:03.422Z</time>
      </trkpt>
      <trkpt lat="42.45683" lon="1.78919">
        <ele>1955.9</ele>
        <time>2020-02-13T23:13:07.888Z</time>
      </trkpt>
      <trkpt lat="42.45696" lon="1.78926">
        <ele>1958.9</ele>
        <time>2020-02-13T23:13:14.901Z</time>
      </trkpt>
      <trkpt lat="42.45704" lon="1.78927">
        <ele>1962.3</ele>
        <time>2020-02-13T23:13:18.829Z</time>
      </trkpt>
      <trkpt lat="42.45712" lon="1.78929">
        <ele>1964.6</ele>
        <time>2020-02-13T23:13:23.075Z</time>
      </trkpt>
      <trkpt lat="42.45722" lon="1.78933">
        <ele>1967.5</ele>
        <time>2020-02-13T23:13:28.254Z</time>
      </trkpt>
      <trkpt lat="42.45732" lon="1.78944">
        <ele>1970.4</ele>
        <time>2020-02-13T23:13:34.641Z</time>
      </trkpt>
      <trkpt lat="42.45733" lon="1.78942">
        <ele>1971.4</ele>
        <time>2020-02-13T23:13:35.416Z</time>
      </trkpt>
      <trkpt lat="42.4574" lon="1.78945">
        <ele>1974.7</ele>
        <time>2020-02-13T23:13:39.275Z</time>
      </trkpt>
      <trkpt lat="42.45759" lon="1.78956">
        <ele>1978.1</ele>
        <time>2020-02-13T23:13:49.418Z</time>
      </trkpt>
      <trkpt lat="42.45769" lon="1.78961">
        <ele>1981.5</ele>
        <time>2020-02-13T23:13:55.139Z</time>
      </trkpt>
      <trkpt lat="42.45776" lon="1.78972">
        <ele>1984.9</ele>
        <time>2020-02-13T23:14:00.496Z</time>
      </trkpt>
      <trkpt lat="42.4578" lon="1.78972">
        <ele>1987.3</ele>
        <time>2020-02-13T23:14:02.380Z</time>
      </trkpt>
      <trkpt lat="42.45782" lon="1.78972">
        <ele>1988.7</ele>
        <time>2020-02-13T23:14:03.807Z</time>
      </trkpt>
      <trkpt lat="42.45788" lon="1.78962">
        <ele>1991.5</ele>
        <time>2020-02-13T23:14:08.471Z</time>
      </trkpt>
      <trkpt lat="42.45793" lon="1.78954">
        <ele>1994.9</ele>
        <time>2020-02-13T23:14:12.849Z</time>
      </trkpt>
      <trkpt lat="42.45804" lon="1.78949">
        <ele>1997.8</ele>
        <time>2020-02-13T23:14:18.248Z</time>
      </trkpt>
      <trkpt lat="42.45809" lon="1.78937">
        <ele>2001.1</ele>
        <time>2020-02-13T23:14:23.572Z</time>
      </trkpt>
      <trkpt lat="42.45816" lon="1.78927">
        <ele>2004.1</ele>
        <time>2020-02-13T23:14:28.727Z</time>
      </trkpt>
      <trkpt lat="42.45826" lon="1.78922">
        <ele>2007.4</ele>
        <time>2020-02-13T23:14:34.037Z</time>
      </trkpt>
      <trkpt lat="42.45828" lon="1.78918">
        <ele>2010.4</ele>
        <time>2020-02-13T23:14:36.135Z</time>
      </trkpt>
      <trkpt lat="42.45831" lon="1.78915">
        <ele>2012.8</ele>
        <time>2020-02-13T23:14:38.282Z</time>
      </trkpt>
      <trkpt lat="42.45837" lon="1.78905">
        <ele>2016</ele>
        <time>2020-02-13T23:14:43.211Z</time>
      </trkpt>
      <trkpt lat="42.4584" lon="1.78897">
        <ele>2017.5</ele>
        <time>2020-02-13T23:14:46.537Z</time>
      </trkpt>
      <trkpt lat="42.4585" lon="1.78885">
        <ele>2020.9</ele>
        <time>2020-02-13T23:14:52.838Z</time>
      </trkpt>
      <trkpt lat="42.45859" lon="1.78882">
        <ele>2024.2</ele>
        <time>2020-02-13T23:14:57.933Z</time>
      </trkpt>
      <trkpt lat="42.45873" lon="1.7887">
        <ele>2027.1</ele>
        <time>2020-02-13T23:15:05.787Z</time>
      </trkpt>
      <trkpt lat="42.45885" lon="1.78843">
        <ele>2030.4</ele>
        <time>2020-02-13T23:15:17.126Z</time>
      </trkpt>
      <trkpt lat="42.45902" lon="1.78834">
        <ele>2033.3</ele>
        <time>2020-02-13T23:15:26.152Z</time>
      </trkpt>
      <trkpt lat="42.45914" lon="1.78829">
        <ele>2035.3</ele>
        <time>2020-02-13T23:15:32.715Z</time>
      </trkpt>
      <trkpt lat="42.45929" lon="1.78812">
        <ele>2037.7</ele>
        <time>2020-02-13T23:15:42.272Z</time>
      </trkpt>
      <trkpt lat="42.45944" lon="1.78803">
        <ele>2039.7</ele>
        <time>2020-02-13T23:15:50.007Z</time>
      </trkpt>
      <trkpt lat="42.45955" lon="1.78797">
        <ele>2042</ele>
        <time>2020-02-13T23:15:56.098Z</time>
      </trkpt>
      <trkpt lat="42.45959" lon="1.78791">
        <ele>2043.5</ele>
        <time>2020-02-13T23:15:59.154Z</time>
      </trkpt>
      <trkpt lat="42.4597" lon="1.78766">
        <ele>2043</ele>
        <time>2020-02-13T23:16:09.300Z</time>
      </trkpt>
      <trkpt lat="42.45984" lon="1.78752">
        <ele>2045.8</ele>
        <time>2020-02-13T23:16:18.140Z</time>
      </trkpt>
      <trkpt lat="42.45992" lon="1.78742">
        <ele>2047.9</ele>
        <time>2020-02-13T23:16:23.628Z</time>
      </trkpt>
      <trkpt lat="42.46009" lon="1.78731">
        <ele>2048.7</ele>
        <time>2020-02-13T23:16:32.501Z</time>
      </trkpt>
      <trkpt lat="42.46014" lon="1.78724">
        <ele>2049.2</ele>
        <time>2020-02-13T23:16:36.293Z</time>
      </trkpt>
      <trkpt lat="42.46038" lon="1.78719">
        <ele>2050.2</ele>
        <time>2020-02-13T23:16:48.056Z</time>
      </trkpt>
      <trkpt lat="42.46061" lon="1.7872">
        <ele>2052.2</ele>
        <time>2020-02-13T23:16:59.264Z</time>
      </trkpt>
      <trkpt lat="42.46073" lon="1.7873">
        <ele>2054.6</ele>
        <time>2020-02-13T23:17:06.100Z</time>
      </trkpt>
      <trkpt lat="42.46074" lon="1.78728">
        <ele>2056.4</ele>
        <time>2020-02-13T23:17:07.304Z</time>
      </trkpt>
      <trkpt lat="42.4609" lon="1.78731">
        <ele>2059.9</ele>
        <time>2020-02-13T23:17:15.129Z</time>
      </trkpt>
      <trkpt lat="42.46099" lon="1.78733">
        <ele>2063.2</ele>
        <time>2020-02-13T23:17:20.103Z</time>
      </trkpt>
      <trkpt lat="42.46109" lon="1.78725">
        <ele>2064.2</ele>
        <time>2020-02-13T23:17:25.754Z</time>
      </trkpt>
      <trkpt lat="42.46121" lon="1.78721">
        <ele>2066.5</ele>
        <time>2020-02-13T23:17:31.908Z</time>
      </trkpt>
      <trkpt lat="42.46126" lon="1.7871">
        <ele>2069.4</ele>
        <time>2020-02-13T23:17:36.784Z</time>
      </trkpt>
      <trkpt lat="42.46129" lon="1.78701">
        <ele>2070.9</ele>
        <time>2020-02-13T23:17:40.373Z</time>
      </trkpt>
      <trkpt lat="42.46141" lon="1.78686">
        <ele>2073.2</ele>
        <time>2020-02-13T23:17:48.400Z</time>
      </trkpt>
      <trkpt lat="42.46152" lon="1.78678">
        <ele>2075.6</ele>
        <time>2020-02-13T23:17:54.718Z</time>
      </trkpt>
      <trkpt lat="42.4617" lon="1.78675">
        <ele>2078.6</ele>
        <time>2020-02-13T23:18:03.378Z</time>
      </trkpt>
      <trkpt lat="42.46185" lon="1.78675">
        <ele>2082</ele>
        <time>2020-02-13T23:18:11.077Z</time>
      </trkpt>
      <trkpt lat="42.46196" lon="1.7867">
        <ele>2084.8</ele>
        <time>2020-02-13T23:18:16.980Z</time>
      </trkpt>
      <trkpt lat="42.46226" lon="1.78662">
        <ele>2086.7</ele>
        <time>2020-02-13T23:18:31.626Z</time>
      </trkpt>
      <trkpt lat="42.46244" lon="1.78657">
        <ele>2088.7</ele>
        <time>2020-02-13T23:18:40.825Z</time>
      </trkpt>
      <trkpt lat="42.46246" lon="1.78656">
        <ele>2088.6</ele>
        <time>2020-02-13T23:18:41.876Z</time>
      </trkpt>
      <trkpt lat="42.46261" lon="1.78652">
        <ele>2092.6</ele>
        <time>2020-02-13T23:18:49.570Z</time>
      </trkpt>
      <trkpt lat="42.46277" lon="1.78652">
        <ele>2095.3</ele>
        <time>2020-02-13T23:18:57.277Z</time>
      </trkpt>
      <trkpt lat="42.463" lon="1.78647">
        <ele>2098.2</ele>
        <time>2020-02-13T23:19:08.905Z</time>
      </trkpt>
      <trkpt lat="42.46313" lon="1.78649">
        <ele>2101.6</ele>
        <time>2020-02-13T23:19:15.080Z</time>
      </trkpt>
      <trkpt lat="42.46323" lon="1.78652">
        <ele>2104.9</ele>
        <time>2020-02-13T23:19:20.527Z</time>
      </trkpt>
      <trkpt lat="42.46329" lon="1.78655">
        <ele>2107.9</ele>
        <time>2020-02-13T23:19:24.046Z</time>
      </trkpt>
      <trkpt lat="42.46342" lon="1.78657">
        <ele>2111.3</ele>
        <time>2020-02-13T23:19:30.415Z</time>
      </trkpt>
      <trkpt lat="42.46352" lon="1.78653">
        <ele>2115.1</ele>
        <time>2020-02-13T23:19:35.801Z</time>
      </trkpt>
      <trkpt lat="42.46367" lon="1.78657">
        <ele>2117.9</ele>
        <time>2020-02-13T23:19:43.213Z</time>
      </trkpt>
      <trkpt lat="42.46373" lon="1.78661">
        <ele>2119.9</ele>
        <time>2020-02-13T23:19:46.918Z</time>
      </trkpt>
      <trkpt lat="42.46387" lon="1.78656">
        <ele>2120.4</ele>
        <time>2020-02-13T23:19:53.666Z</time>
      </trkpt>
      <trkpt lat="42.46392" lon="1.78649">
        <ele>2120.3</ele>
        <time>2020-02-13T23:19:57.321Z</time>
      </trkpt>
      <trkpt lat="42.46407" lon="1.78619">
        <ele>2121.3</ele>
        <time>2020-02-13T23:20:10.321Z</time>
      </trkpt>
      <trkpt lat="42.46414" lon="1.78585">
        <ele>2122.3</ele>
        <time>2020-02-13T23:20:22.960Z</time>
      </trkpt>
      <trkpt lat="42.46415" lon="1.78584">
        <ele>2122.7</ele>
        <time>2020-02-13T23:20:23.650Z</time>
      </trkpt>
      <trkpt lat="42.46423" lon="1.78581">
        <ele>2123.7</ele>
        <time>2020-02-13T23:20:27.672Z</time>
      </trkpt>
      <trkpt lat="42.46422" lon="1.78574">
        <ele>2123.8</ele>
        <time>2020-02-13T23:20:29.912Z</time>
      </trkpt>
      <trkpt lat="42.46421" lon="1.78566">
        <ele>2121.9</ele>
        <time>2020-02-13T23:20:33.170Z</time>
      </trkpt>
      <trkpt lat="42.46416" lon="1.78542">
        <ele>2123.2</ele>
        <time>2020-02-13T23:20:42.112Z</time>
      </trkpt>
      <trkpt lat="42.46416" lon="1.78541">
        <ele>2121.4</ele>
        <time>2020-02-13T23:20:42.987Z</time>
      </trkpt>
      <trkpt lat="42.46416" lon="1.78542">
        <ele>2124.2</ele>
        <time>2020-02-13T23:20:44.290Z</time>
      </trkpt>
      <trkpt lat="42.46416" lon="1.78541">
        <ele>2120.9</ele>
        <time>2020-02-13T23:20:45.799Z</time>
      </trkpt>
      <trkpt lat="42.46416" lon="1.78541">
        <ele>2124.2</ele>
        <time>2020-02-13T23:20:47.276Z</time>
      </trkpt>
      <trkpt lat="42.46416" lon="1.78541">
        <ele>2122.8</ele>
        <time>2020-02-13T23:20:47.911Z</time>
      </trkpt>
      <trkpt lat="42.46416" lon="1.78541">
        <ele>2122.7</ele>
        <time>2020-02-13T23:20:47.961Z</time>
      </trkpt>
      <trkpt lat="42.46413" lon="1.78542">
        <ele>2121.8</ele>
        <time>2020-02-13T23:20:49.626Z</time>
      </trkpt>
      <trkpt lat="42.46408" lon="1.78531">
        <ele>2121.8</ele>
        <time>2020-02-13T23:20:54.283Z</time>
      </trkpt>
      <trkpt lat="42.46405" lon="1.78506">
        <ele>2121.8</ele>
        <time>2020-02-13T23:21:03.144Z</time>
      </trkpt>
      <trkpt lat="42.46407" lon="1.78505">
        <ele>2121.8</ele>
        <time>2020-02-13T23:21:04.150Z</time>
      </trkpt>
      <trkpt lat="42.46403" lon="1.78513">
        <ele>2121.9</ele>
        <time>2020-02-13T23:21:07.292Z</time>
      </trkpt>
      <trkpt lat="42.46402" lon="1.78508">
        <ele>2121.9</ele>
        <time>2020-02-13T23:21:09.232Z</time>
      </trkpt>
      <trkpt lat="42.46405" lon="1.78493">
        <ele>2121.8</ele>
        <time>2020-02-13T23:21:14.671Z</time>
      </trkpt>
      <trkpt lat="42.46414" lon="1.78489">
        <ele>2121.3</ele>
        <time>2020-02-13T23:21:18.970Z</time>
      </trkpt>
      <trkpt lat="42.46417" lon="1.78486">
        <ele>2122.4</ele>
        <time>2020-02-13T23:21:20.860Z</time>
      </trkpt>
      <trkpt lat="42.46421" lon="1.78475">
        <ele>2125.6</ele>
        <time>2020-02-13T23:21:25.561Z</time>
      </trkpt>
      <trkpt lat="42.46422" lon="1.78473">
        <ele>2122.7</ele>
        <time>2020-02-13T23:21:26.999Z</time>
      </trkpt>
      <trkpt lat="42.46423" lon="1.78454">
        <ele>2126.1</ele>
        <time>2020-02-13T23:21:34.248Z</time>
      </trkpt>
      <trkpt lat="42.46422" lon="1.78419">
        <ele>2125.1</ele>
        <time>2020-02-13T23:21:46.638Z</time>
      </trkpt>
      <trkpt lat="42.46424" lon="1.78411">
        <ele>2126.2</ele>
        <time>2020-02-13T23:21:49.692Z</time>
      </trkpt>
      <trkpt lat="42.46438" lon="1.78403">
        <ele>2125.2</ele>
        <time>2020-02-13T23:21:57.145Z</time>
      </trkpt>
      <trkpt lat="42.46441" lon="1.78398">
        <ele>2124.8</ele>
        <time>2020-02-13T23:21:59.217Z</time>
      </trkpt>
      <trkpt lat="42.46443" lon="1.78396">
        <ele>2125.1</ele>
        <time>2020-02-13T23:22:00.564Z</time>
      </trkpt>
      <trkpt lat="42.46441" lon="1.78363">
        <ele>2126.2</ele>
        <time>2020-02-13T23:22:12.421Z</time>
      </trkpt>
      <trkpt lat="42.46433" lon="1.78356">
        <ele>2125.7</ele>
        <time>2020-02-13T23:22:17.056Z</time>
      </trkpt>
      <trkpt lat="42.46432" lon="1.78348">
        <ele>2125.6</ele>
        <time>2020-02-13T23:22:19.798Z</time>
      </trkpt>
      <trkpt lat="42.46432" lon="1.78345">
        <ele>2125.1</ele>
        <time>2020-02-13T23:22:21.047Z</time>
      </trkpt>
      <trkpt lat="42.46427" lon="1.78336">
        <ele>2126.7</ele>
        <time>2020-02-13T23:22:25.074Z</time>
      </trkpt>
      <trkpt lat="42.46426" lon="1.78326">
        <ele>2132.8</ele>
        <time>2020-02-13T23:22:29.581Z</time>
      </trkpt>
      <trkpt lat="42.46426" lon="1.78324">
        <ele>2126.6</ele>
        <time>2020-02-13T23:22:32.406Z</time>
      </trkpt>
      <trkpt lat="42.46428" lon="1.78295">
        <ele>2129.6</ele>
        <time>2020-02-13T23:22:43.085Z</time>
      </trkpt>
      <trkpt lat="42.46426" lon="1.78265">
        <ele>2132.4</ele>
        <time>2020-02-13T23:22:53.686Z</time>
      </trkpt>
      <trkpt lat="42.46427" lon="1.78261">
        <ele>2132.9</ele>
        <time>2020-02-13T23:22:55.554Z</time>
      </trkpt>
      <trkpt lat="42.46422" lon="1.78235">
        <ele>2135.3</ele>
        <time>2020-02-13T23:23:05.296Z</time>
      </trkpt>
      <trkpt lat="42.46424" lon="1.78221">
        <ele>2137.2</ele>
        <time>2020-02-13T23:23:10.174Z</time>
      </trkpt>
      <trkpt lat="42.46426" lon="1.7821">
        <ele>2140.6</ele>
        <time>2020-02-13T23:23:14.716Z</time>
      </trkpt>
      <trkpt lat="42.46429" lon="1.78199">
        <ele>2143.5</ele>
        <time>2020-02-13T23:23:19.240Z</time>
      </trkpt>
      <trkpt lat="42.46438" lon="1.78177">
        <ele>2145.8</ele>
        <time>2020-02-13T23:23:28.133Z</time>
      </trkpt>
      <trkpt lat="42.4644" lon="1.78152">
        <ele>2149.2</ele>
        <time>2020-02-13T23:23:37.280Z</time>
      </trkpt>
      <trkpt lat="42.46443" lon="1.78124">
        <ele>2152.1</ele>
        <time>2020-02-13T23:23:47.654Z</time>
      </trkpt>
      <trkpt lat="42.46443" lon="1.78099">
        <ele>2155.4</ele>
        <time>2020-02-13T23:23:56.624Z</time>
      </trkpt>
      <trkpt lat="42.46444" lon="1.78079">
        <ele>2158.4</ele>
        <time>2020-02-13T23:24:03.916Z</time>
      </trkpt>
      <trkpt lat="42.46452" lon="1.78064">
        <ele>2162.1</ele>
        <time>2020-02-13T23:24:10.890Z</time>
      </trkpt>
      <trkpt lat="42.46455" lon="1.78054">
        <ele>2165.1</ele>
        <time>2020-02-13T23:24:14.936Z</time>
      </trkpt>
      <trkpt lat="42.46458" lon="1.78035">
        <ele>2168.5</ele>
        <time>2020-02-13T23:24:21.954Z</time>
      </trkpt>
      <trkpt lat="42.46464" lon="1.78016">
        <ele>2171.8</ele>
        <time>2020-02-13T23:24:29.639Z</time>
      </trkpt>
      <trkpt lat="42.46467" lon="1.78001">
        <ele>2174.7</ele>
        <time>2020-02-13T23:24:35.395Z</time>
      </trkpt>
      <trkpt lat="42.4647" lon="1.77987">
        <ele>2177</ele>
        <time>2020-02-13T23:24:40.643Z</time>
      </trkpt>
      <trkpt lat="42.46477" lon="1.77973">
        <ele>2180.5</ele>
        <time>2020-02-13T23:24:46.951Z</time>
      </trkpt>
      <trkpt lat="42.46481" lon="1.77961">
        <ele>2182.8</ele>
        <time>2020-02-13T23:24:51.809Z</time>
      </trkpt>
      <trkpt lat="42.46484" lon="1.77945">
        <ele>2186.2</ele>
        <time>2020-02-13T23:24:57.761Z</time>
      </trkpt>
      <trkpt lat="42.4649" lon="1.77928">
        <ele>2189.1</ele>
        <time>2020-02-13T23:25:04.749Z</time>
      </trkpt>
      <trkpt lat="42.46502" lon="1.77908">
        <ele>2192.5</ele>
        <time>2020-02-13T23:25:14.133Z</time>
      </trkpt>
      <trkpt lat="42.46508" lon="1.77896">
        <ele>2194.5</ele>
        <time>2020-02-13T23:25:19.423Z</time>
      </trkpt>
      <trkpt lat="42.46509" lon="1.77889">
        <ele>2195.4</ele>
        <time>2020-02-13T23:25:21.907Z</time>
      </trkpt>
      <trkpt lat="42.46511" lon="1.77884">
        <ele>2196.9</ele>
        <time>2020-02-13T23:25:24.124Z</time>
      </trkpt>
      <trkpt lat="42.46516" lon="1.77875">
        <ele>2198.3</ele>
        <time>2020-02-13T23:25:28.033Z</time>
      </trkpt>
      <trkpt lat="42.46523" lon="1.77858">
        <ele>2201.7</ele>
        <time>2020-02-13T23:25:35.486Z</time>
      </trkpt>
      <trkpt lat="42.46531" lon="1.77842">
        <ele>2205</ele>
        <time>2020-02-13T23:25:42.192Z</time>
      </trkpt>
      <trkpt lat="42.46532" lon="1.77837">
        <ele>2205.9</ele>
        <time>2020-02-13T23:25:44.460Z</time>
      </trkpt>
      <trkpt lat="42.46534" lon="1.7782">
        <ele>2207.9</ele>
        <time>2020-02-13T23:25:50.682Z</time>
      </trkpt>
      <trkpt lat="42.46536" lon="1.77814">
        <ele>2208.3</ele>
        <time>2020-02-13T23:25:52.952Z</time>
      </trkpt>
      <trkpt lat="42.46537" lon="1.77811">
        <ele>2209.7</ele>
        <time>2020-02-13T23:25:54.254Z</time>
      </trkpt>
      <trkpt lat="42.46542" lon="1.77802">
        <ele>2211.3</ele>
        <time>2020-02-13T23:25:58.474Z</time>
      </trkpt>
      <trkpt lat="42.46546" lon="1.77797">
        <ele>2211.7</ele>
        <time>2020-02-13T23:26:01.079Z</time>
      </trkpt>
      <trkpt lat="42.46547" lon="1.77791">
        <ele>2213.2</ele>
        <time>2020-02-13T23:26:03.167Z</time>
      </trkpt>
      <trkpt lat="42.46557" lon="1.77776">
        <ele>2216.6</ele>
        <time>2020-02-13T23:26:10.558Z</time>
      </trkpt>
      <trkpt lat="42.46571" lon="1.77768">
        <ele>2219.8</ele>
        <time>2020-02-13T23:26:18.259Z</time>
      </trkpt>
      <trkpt lat="42.46572" lon="1.77768">
        <ele>2220.8</ele>
        <time>2020-02-13T23:26:19.039Z</time>
      </trkpt>
      <trkpt lat="42.46579" lon="1.77763">
        <ele>2222.7</ele>
        <time>2020-02-13T23:26:22.866Z</time>
      </trkpt>
      <trkpt lat="42.46584" lon="1.7774">
        <ele>2224.6</ele>
        <time>2020-02-13T23:26:31.649Z</time>
      </trkpt>
      <trkpt lat="42.46583" lon="1.77738">
        <ele>2223.7</ele>
        <time>2020-02-13T23:26:32.538Z</time>
      </trkpt>
      <trkpt lat="42.46592" lon="1.77723">
        <ele>2226.6</ele>
        <time>2020-02-13T23:26:39.228Z</time>
      </trkpt>
      <trkpt lat="42.46597" lon="1.77712">
        <ele>2229.9</ele>
        <time>2020-02-13T23:26:44.416Z</time>
      </trkpt>
      <trkpt lat="42.46598" lon="1.77695">
        <ele>2232.8</ele>
        <time>2020-02-13T23:26:50.619Z</time>
      </trkpt>
      <trkpt lat="42.46597" lon="1.77686">
        <ele>2234.8</ele>
        <time>2020-02-13T23:26:53.898Z</time>
      </trkpt>
      <trkpt lat="42.466" lon="1.77669">
        <ele>2235.2</ele>
        <time>2020-02-13T23:27:00.251Z</time>
      </trkpt>
      <trkpt lat="42.46605" lon="1.77666">
        <ele>2237.2</ele>
        <time>2020-02-13T23:27:03.218Z</time>
      </trkpt>
      <trkpt lat="42.46612" lon="1.77653">
        <ele>2240.1</ele>
        <time>2020-02-13T23:27:08.840Z</time>
      </trkpt>
      <trkpt lat="42.46618" lon="1.77641">
        <ele>2242.4</ele>
        <time>2020-02-13T23:27:14.133Z</time>
      </trkpt>
      <trkpt lat="42.46621" lon="1.77629">
        <ele>2245.9</ele>
        <time>2020-02-13T23:27:18.979Z</time>
      </trkpt>
      <trkpt lat="42.46629" lon="1.77619">
        <ele>2248.7</ele>
        <time>2020-02-13T23:27:24.581Z</time>
      </trkpt>
      <trkpt lat="42.46633" lon="1.77609">
        <ele>2252</ele>
        <time>2020-02-13T23:27:28.871Z</time>
      </trkpt>
      <trkpt lat="42.46633" lon="1.77608">
        <ele>2252</ele>
        <time>2020-02-13T23:27:29.236Z</time>
      </trkpt>
      <trkpt lat="42.46634" lon="1.77586">
        <ele>2254</ele>
        <time>2020-02-13T23:27:37.108Z</time>
      </trkpt>
      <trkpt lat="42.46633" lon="1.77575">
        <ele>2256</ele>
        <time>2020-02-13T23:27:41.380Z</time>
      </trkpt>
      <trkpt lat="42.46633" lon="1.77571">
        <ele>2255.4</ele>
        <time>2020-02-13T23:27:42.555Z</time>
      </trkpt>
      <trkpt lat="42.46636" lon="1.77563">
        <ele>2257.8</ele>
        <time>2020-02-13T23:27:45.836Z</time>
      </trkpt>
      <trkpt lat="42.46637" lon="1.77543">
        <ele>2259.7</ele>
        <time>2020-02-13T23:27:53.345Z</time>
      </trkpt>
      <trkpt lat="42.46636" lon="1.77521">
        <ele>2261.7</ele>
        <time>2020-02-13T23:28:01.317Z</time>
      </trkpt>
      <trkpt lat="42.46636" lon="1.77503">
        <ele>2263.1</ele>
        <time>2020-02-13T23:28:07.791Z</time>
      </trkpt>
      <trkpt lat="42.46635" lon="1.77492">
        <ele>2265.6</ele>
        <time>2020-02-13T23:28:11.791Z</time>
      </trkpt>
      <trkpt lat="42.46635" lon="1.77489">
        <ele>2266</ele>
        <time>2020-02-13T23:28:12.785Z</time>
      </trkpt>
      <trkpt lat="42.46636" lon="1.77484">
        <ele>2266.6</ele>
        <time>2020-02-13T23:28:14.712Z</time>
      </trkpt>
      <trkpt lat="42.4664" lon="1.77477">
        <ele>2269.8</ele>
        <time>2020-02-13T23:28:18.513Z</time>
      </trkpt>
      <trkpt lat="42.46641" lon="1.77474">
        <ele>2270.8</ele>
        <time>2020-02-13T23:28:19.543Z</time>
      </trkpt>
      <trkpt lat="42.46641" lon="1.77469">
        <ele>2272.3</ele>
        <time>2020-02-13T23:28:21.643Z</time>
      </trkpt>
      <trkpt lat="42.46641" lon="1.77451">
        <ele>2276.1</ele>
        <time>2020-02-13T23:28:28.227Z</time>
      </trkpt>
      <trkpt lat="42.46641" lon="1.77449">
        <ele>2277.1</ele>
        <time>2020-02-13T23:28:29.142Z</time>
      </trkpt>
      <trkpt lat="42.46642" lon="1.77443">
        <ele>2278.1</ele>
        <time>2020-02-13T23:28:31.347Z</time>
      </trkpt>
      <trkpt lat="42.46645" lon="1.77426">
        <ele>2281.8</ele>
        <time>2020-02-13T23:28:37.683Z</time>
      </trkpt>
      <trkpt lat="42.4665" lon="1.77417">
        <ele>2284.7</ele>
        <time>2020-02-13T23:28:41.904Z</time>
      </trkpt>
      <trkpt lat="42.46655" lon="1.77413">
        <ele>2287.6</ele>
        <time>2020-02-13T23:28:45.094Z</time>
      </trkpt>
      <trkpt lat="42.46659" lon="1.77406">
        <ele>2290.5</ele>
        <time>2020-02-13T23:28:48.473Z</time>
      </trkpt>
      <trkpt lat="42.46665" lon="1.774">
        <ele>2293.8</ele>
        <time>2020-02-13T23:28:52.460Z</time>
      </trkpt>
      <trkpt lat="42.46666" lon="1.77394">
        <ele>2296.7</ele>
        <time>2020-02-13T23:28:55.102Z</time>
      </trkpt>
      <trkpt lat="42.46671" lon="1.7739">
        <ele>2300.1</ele>
        <time>2020-02-13T23:28:58.298Z</time>
      </trkpt>
      <trkpt lat="42.46676" lon="1.77381">
        <ele>2303.6</ele>
        <time>2020-02-13T23:29:02.632Z</time>
      </trkpt>
      <trkpt lat="42.4668" lon="1.77373">
        <ele>2306.8</ele>
        <time>2020-02-13T23:29:06.283Z</time>
      </trkpt>
      <trkpt lat="42.46683" lon="1.77365">
        <ele>2310.2</ele>
        <time>2020-02-13T23:29:09.962Z</time>
      </trkpt>
      <trkpt lat="42.46689" lon="1.7736">
        <ele>2313.6</ele>
        <time>2020-02-13T23:29:13.568Z</time>
      </trkpt>
      <trkpt lat="42.46702" lon="1.77361">
        <ele>2316.4</ele>
        <time>2020-02-13T23:29:20.053Z</time>
      </trkpt>
      <trkpt lat="42.46702" lon="1.77358">
        <ele>2317.9</ele>
        <time>2020-02-13T23:29:21.347Z</time>
      </trkpt>
      <trkpt lat="42.46705" lon="1.77355">
        <ele>2318.9</ele>
        <time>2020-02-13T23:29:23.141Z</time>
      </trkpt>
      <trkpt lat="42.46711" lon="1.77353">
        <ele>2321.3</ele>
        <time>2020-02-13T23:29:26.231Z</time>
      </trkpt>
      <trkpt lat="42.46717" lon="1.77346">
        <ele>2323.7</ele>
        <time>2020-02-13T23:29:30.351Z</time>
      </trkpt>
      <trkpt lat="42.46722" lon="1.77342">
        <ele>2326.5</ele>
        <time>2020-02-13T23:29:33.389Z</time>
      </trkpt>
      <trkpt lat="42.46724" lon="1.77339">
        <ele>2328</ele>
        <time>2020-02-13T23:29:35.200Z</time>
      </trkpt>
      <trkpt lat="42.46728" lon="1.77332">
        <ele>2330.5</ele>
        <time>2020-02-13T23:29:38.320Z</time>
      </trkpt>
      <trkpt lat="42.46735" lon="1.77323">
        <ele>2333.7</ele>
        <time>2020-02-13T23:29:43.280Z</time>
      </trkpt>
      <trkpt lat="42.4674" lon="1.77314">
        <ele>2337.1</ele>
        <time>2020-02-13T23:29:47.602Z</time>
      </trkpt>
      <trkpt lat="42.46745" lon="1.77305">
        <ele>2340.6</ele>
        <time>2020-02-13T23:29:51.870Z</time>
      </trkpt>
      <trkpt lat="42.46753" lon="1.77299">
        <ele>2343.8</ele>
        <time>2020-02-13T23:29:56.508Z</time>
      </trkpt>
      <trkpt lat="42.46757" lon="1.77293">
        <ele>2346.8</ele>
        <time>2020-02-13T23:29:59.674Z</time>
      </trkpt>
      <trkpt lat="42.46766" lon="1.77294">
        <ele>2350.6</ele>
        <time>2020-02-13T23:30:04.299Z</time>
      </trkpt>
      <trkpt lat="42.46766" lon="1.77294">
        <ele>2350.6</ele>
        <time>2020-02-13T23:30:04.491Z</time>
      </trkpt>
      <trkpt lat="42.4677" lon="1.77288">
        <ele>2354</ele>
        <time>2020-02-13T23:30:07.819Z</time>
      </trkpt>
      <trkpt lat="42.46774" lon="1.77277">
        <ele>2357.3</ele>
        <time>2020-02-13T23:30:12.469Z</time>
      </trkpt>
      <trkpt lat="42.46776" lon="1.77264">
        <ele>2360.2</ele>
        <time>2020-02-13T23:30:17.215Z</time>
      </trkpt>
      <trkpt lat="42.46779" lon="1.77256">
        <ele>2362.7</ele>
        <time>2020-02-13T23:30:20.524Z</time>
      </trkpt>
      <trkpt lat="42.46783" lon="1.77242">
        <ele>2366.4</ele>
        <time>2020-02-13T23:30:26.481Z</time>
      </trkpt>
      <trkpt lat="42.4679" lon="1.77232">
        <ele>2369.3</ele>
        <time>2020-02-13T23:30:31.644Z</time>
      </trkpt>
      <trkpt lat="42.46799" lon="1.77224">
        <ele>2372.7</ele>
        <time>2020-02-13T23:30:36.923Z</time>
      </trkpt>
      <trkpt lat="42.46804" lon="1.77213">
        <ele>2376</ele>
        <time>2020-02-13T23:30:41.773Z</time>
      </trkpt>
      <trkpt lat="42.46807" lon="1.77205">
        <ele>2378.1</ele>
        <time>2020-02-13T23:30:45.238Z</time>
      </trkpt>
      <trkpt lat="42.46814" lon="1.77193">
        <ele>2381.4</ele>
        <time>2020-02-13T23:30:51.100Z</time>
      </trkpt>
      <trkpt lat="42.46821" lon="1.77182">
        <ele>2384.7</ele>
        <time>2020-02-13T23:30:56.157Z</time>
      </trkpt>
      <trkpt lat="42.46831" lon="1.77178">
        <ele>2387.6</ele>
        <time>2020-02-13T23:31:01.437Z</time>
      </trkpt>
      <trkpt lat="42.46839" lon="1.77169">
        <ele>2390.9</ele>
        <time>2020-02-13T23:31:06.615Z</time>
      </trkpt>
      <trkpt lat="42.46847" lon="1.77161">
        <ele>2393.8</ele>
        <time>2020-02-13T23:31:11.471Z</time>
      </trkpt>
      <trkpt lat="42.46853" lon="1.77153">
        <ele>2396.7</ele>
        <time>2020-02-13T23:31:15.762Z</time>
      </trkpt>
      <trkpt lat="42.46855" lon="1.77149">
        <ele>2398.3</ele>
        <time>2020-02-13T23:31:17.795Z</time>
      </trkpt>
      <trkpt lat="42.46864" lon="1.7714">
        <ele>2401.5</ele>
        <time>2020-02-13T23:31:23.482Z</time>
      </trkpt>
      <trkpt lat="42.4687" lon="1.77134">
        <ele>2404.9</ele>
        <time>2020-02-13T23:31:27.420Z</time>
      </trkpt>
      <trkpt lat="42.46881" lon="1.77125">
        <ele>2408.2</ele>
        <time>2020-02-13T23:31:33.842Z</time>
      </trkpt>
      <trkpt lat="42.46887" lon="1.7712">
        <ele>2411.7</ele>
        <time>2020-02-13T23:31:37.507Z</time>
      </trkpt>
      <trkpt lat="42.46892" lon="1.77111">
        <ele>2414.5</ele>
        <time>2020-02-13T23:31:42.190Z</time>
      </trkpt>
      <trkpt lat="42.46904" lon="1.77101">
        <ele>2417.9</ele>
        <time>2020-02-13T23:31:48.856Z</time>
      </trkpt>
      <trkpt lat="42.4691" lon="1.77096">
        <ele>2420.4</ele>
        <time>2020-02-13T23:31:52.652Z</time>
      </trkpt>
      <trkpt lat="42.46912" lon="1.77094">
        <ele>2421.7</ele>
        <time>2020-02-13T23:31:54.091Z</time>
      </trkpt>
      <trkpt lat="42.46918" lon="1.77084">
        <ele>2425.1</ele>
        <time>2020-02-13T23:31:58.931Z</time>
      </trkpt>
      <trkpt lat="42.46924" lon="1.77078">
        <ele>2427</ele>
        <time>2020-02-13T23:32:02.666Z</time>
      </trkpt>
      <trkpt lat="42.46937" lon="1.77077">
        <ele>2430.8</ele>
        <time>2020-02-13T23:32:09.366Z</time>
      </trkpt>
      <trkpt lat="42.46953" lon="1.77076">
        <ele>2434.8</ele>
        <time>2020-02-13T23:32:16.934Z</time>
      </trkpt>
      <trkpt lat="42.4697" lon="1.77076">
        <ele>2438.1</ele>
        <time>2020-02-13T23:32:25.492Z</time>
      </trkpt>
      <trkpt lat="42.46988" lon="1.77073">
        <ele>2441.4</ele>
        <time>2020-02-13T23:32:34.324Z</time>
      </trkpt>
      <trkpt lat="42.47005" lon="1.77075">
        <ele>2444.4</ele>
        <time>2020-02-13T23:32:42.892Z</time>
      </trkpt>
      <trkpt lat="42.47017" lon="1.77073">
        <ele>2447.7</ele>
        <time>2020-02-13T23:32:49.048Z</time>
      </trkpt>
      <trkpt lat="42.47021" lon="1.77074">
        <ele>2448.2</ele>
        <time>2020-02-13T23:32:50.965Z</time>
      </trkpt>
      <trkpt lat="42.47036" lon="1.77073">
        <ele>2451.6</ele>
        <time>2020-02-13T23:32:58.486Z</time>
      </trkpt>
      <trkpt lat="42.47039" lon="1.77073">
        <ele>2453.4</ele>
        <time>2020-02-13T23:33:00.174Z</time>
      </trkpt>
      <trkpt lat="42.47051" lon="1.77072">
        <ele>2456.8</ele>
        <time>2020-02-13T23:33:06.215Z</time>
      </trkpt>
      <trkpt lat="42.47066" lon="1.77061">
        <ele>2460.2</ele>
        <time>2020-02-13T23:33:14.624Z</time>
      </trkpt>
      <trkpt lat="42.47082" lon="1.77054">
        <ele>2463.5</ele>
        <time>2020-02-13T23:33:22.905Z</time>
      </trkpt>
      <trkpt lat="42.47089" lon="1.77053">
        <ele>2465.1</ele>
        <time>2020-02-13T23:33:26.440Z</time>
      </trkpt>
      <trkpt lat="42.47103" lon="1.77054">
        <ele>2467.9</ele>
        <time>2020-02-13T23:33:33.475Z</time>
      </trkpt>
      <trkpt lat="42.47119" lon="1.77059">
        <ele>2471.3</ele>
        <time>2020-02-13T23:33:41.482Z</time>
      </trkpt>
      <trkpt lat="42.47134" lon="1.77066">
        <ele>2474.2</ele>
        <time>2020-02-13T23:33:49.671Z</time>
      </trkpt>
      <trkpt lat="42.47143" lon="1.77068">
        <ele>2476.6</ele>
        <time>2020-02-13T23:33:54.046Z</time>
      </trkpt>
      <trkpt lat="42.47161" lon="1.77074">
        <ele>2479.9</ele>
        <time>2020-02-13T23:34:03.089Z</time>
      </trkpt>
      <trkpt lat="42.47176" lon="1.77082">
        <ele>2483.3</ele>
        <time>2020-02-13T23:34:11.247Z</time>
      </trkpt>
      <trkpt lat="42.47177" lon="1.77082">
        <ele>2483.2</ele>
        <time>2020-02-13T23:34:11.880Z</time>
      </trkpt>
      <trkpt lat="42.47181" lon="1.77082">
        <ele>2483.2</ele>
        <time>2020-02-13T23:34:13.891Z</time>
      </trkpt>
      <trkpt lat="42.47185" lon="1.77082">
        <ele>2484.8</ele>
        <time>2020-02-13T23:34:15.642Z</time>
      </trkpt>
      <trkpt lat="42.47205" lon="1.77089">
        <ele>2487.2</ele>
        <time>2020-02-13T23:34:25.879Z</time>
      </trkpt>
      <trkpt lat="42.4722" lon="1.77099">
        <ele>2490.1</ele>
        <time>2020-02-13T23:34:34.135Z</time>
      </trkpt>
      <trkpt lat="42.47222" lon="1.77096">
        <ele>2490.4</ele>
        <time>2020-02-13T23:34:35.532Z</time>
      </trkpt>
      <trkpt lat="42.47231" lon="1.77102">
        <ele>2491.4</ele>
        <time>2020-02-13T23:34:40.485Z</time>
      </trkpt>
      <trkpt lat="42.47235" lon="1.77106">
        <ele>2493.3</ele>
        <time>2020-02-13T23:34:43.051Z</time>
      </trkpt>
      <trkpt lat="42.47239" lon="1.77111">
        <ele>2494.9</ele>
        <time>2020-02-13T23:34:45.717Z</time>
      </trkpt>
      <trkpt lat="42.47242" lon="1.77115">
        <ele>2496.3</ele>
        <time>2020-02-13T23:34:47.783Z</time>
      </trkpt>
      <trkpt lat="42.47256" lon="1.77127">
        <ele>2499.7</ele>
        <time>2020-02-13T23:34:56.134Z</time>
      </trkpt>
      <trkpt lat="42.47268" lon="1.77144">
        <ele>2502.9</ele>
        <time>2020-02-13T23:35:04.935Z</time>
      </trkpt>
      <trkpt lat="42.47279" lon="1.77151">
        <ele>2505.8</ele>
        <time>2020-02-13T23:35:10.664Z</time>
      </trkpt>
      <trkpt lat="42.47284" lon="1.7716">
        <ele>2508.3</ele>
        <time>2020-02-13T23:35:14.961Z</time>
      </trkpt>
      <trkpt lat="42.47288" lon="1.77178">
        <ele>2511.6</ele>
        <time>2020-02-13T23:35:21.800Z</time>
      </trkpt>
      <trkpt lat="42.47292" lon="1.77189">
        <ele>2514.6</ele>
        <time>2020-02-13T23:35:26.376Z</time>
      </trkpt>
      <trkpt lat="42.47296" lon="1.772">
        <ele>2517.9</ele>
        <time>2020-02-13T23:35:31.009Z</time>
      </trkpt>
      <trkpt lat="42.47305" lon="1.77207">
        <ele>2521.3</ele>
        <time>2020-02-13T23:35:36.321Z</time>
      </trkpt>
      <trkpt lat="42.47309" lon="1.77212">
        <ele>2524.1</ele>
        <time>2020-02-13T23:35:39.471Z</time>
      </trkpt>
      <trkpt lat="42.47315" lon="1.77222">
        <ele>2527</ele>
        <time>2020-02-13T23:35:44.280Z</time>
      </trkpt>
      <trkpt lat="42.47319" lon="1.7723">
        <ele>2530.4</ele>
        <time>2020-02-13T23:35:47.973Z</time>
      </trkpt>
      <trkpt lat="42.47321" lon="1.77236">
        <ele>2531.3</ele>
        <time>2020-02-13T23:35:50.239Z</time>
      </trkpt>
      <trkpt lat="42.47334" lon="1.77237">
        <ele>2535.6</ele>
        <time>2020-02-13T23:35:56.759Z</time>
      </trkpt>
      <trkpt lat="42.47343" lon="1.77235">
        <ele>2538.5</ele>
        <time>2020-02-13T23:36:01.405Z</time>
      </trkpt>
      <trkpt lat="42.47349" lon="1.77238">
        <ele>2540.5</ele>
        <time>2020-02-13T23:36:04.753Z</time>
      </trkpt>
      <trkpt lat="42.47359" lon="1.77237">
        <ele>2544.4</ele>
        <time>2020-02-13T23:36:09.977Z</time>
      </trkpt>
      <trkpt lat="42.47369" lon="1.77232">
        <ele>2547.3</ele>
        <time>2020-02-13T23:36:15.073Z</time>
      </trkpt>
      <trkpt lat="42.4737" lon="1.77228">
        <ele>2547.7</ele>
        <time>2020-02-13T23:36:16.735Z</time>
      </trkpt>
      <trkpt lat="42.47379" lon="1.7722">
        <ele>2551.6</ele>
        <time>2020-02-13T23:36:22.259Z</time>
      </trkpt>
      <trkpt lat="42.47387" lon="1.77205">
        <ele>2554</ele>
        <time>2020-02-13T23:36:28.746Z</time>
      </trkpt>
      <trkpt lat="42.47397" lon="1.772">
        <ele>2557.8</ele>
        <time>2020-02-13T23:36:34.124Z</time>
      </trkpt>
      <trkpt lat="42.47398" lon="1.772">
        <ele>2558.3</ele>
        <time>2020-02-13T23:36:34.618Z</time>
      </trkpt>
      <trkpt lat="42.47406" lon="1.77188">
        <ele>2561.6</ele>
        <time>2020-02-13T23:36:40.694Z</time>
      </trkpt>
      <trkpt lat="42.47412" lon="1.77181">
        <ele>2564</ele>
        <time>2020-02-13T23:36:44.812Z</time>
      </trkpt>
      <trkpt lat="42.47417" lon="1.77182">
        <ele>2566.9</ele>
        <time>2020-02-13T23:36:47.571Z</time>
      </trkpt>
      <trkpt lat="42.47423" lon="1.77175">
        <ele>2568.9</ele>
        <time>2020-02-13T23:36:51.348Z</time>
      </trkpt>
      <trkpt lat="42.4743" lon="1.77176">
        <ele>2571.8</ele>
        <time>2020-02-13T23:36:55.343Z</time>
      </trkpt>
      <trkpt lat="42.47438" lon="1.7717">
        <ele>2574.6</ele>
        <time>2020-02-13T23:36:59.798Z</time>
      </trkpt>
      <trkpt lat="42.4744" lon="1.77165">
        <ele>2576.5</ele>
        <time>2020-02-13T23:37:01.851Z</time>
      </trkpt>
      <trkpt lat="42.47449" lon="1.77152">
        <ele>2578.4</ele>
        <time>2020-02-13T23:37:08.463Z</time>
      </trkpt>
      <trkpt lat="42.47455" lon="1.77148">
        <ele>2581.4</ele>
        <time>2020-02-13T23:37:11.737Z</time>
      </trkpt>
      <trkpt lat="42.47456" lon="1.77146">
        <ele>2581.4</ele>
        <time>2020-02-13T23:37:12.877Z</time>
      </trkpt>
      <trkpt lat="42.47464" lon="1.77139">
        <ele>2584.3</ele>
        <time>2020-02-13T23:37:17.730Z</time>
      </trkpt>
      <trkpt lat="42.47472" lon="1.77132">
        <ele>2587.5</ele>
        <time>2020-02-13T23:37:22.374Z</time>
      </trkpt>
      <trkpt lat="42.47482" lon="1.77128">
        <ele>2590.9</ele>
        <time>2020-02-13T23:37:27.821Z</time>
      </trkpt>
      <trkpt lat="42.47495" lon="1.77125">
        <ele>2593.8</ele>
        <time>2020-02-13T23:37:34.325Z</time>
      </trkpt>
      <trkpt lat="42.47496" lon="1.77126">
        <ele>2595.2</ele>
        <time>2020-02-13T23:37:35.329Z</time>
      </trkpt>
      <trkpt lat="42.47502" lon="1.77122">
        <ele>2597.2</ele>
        <time>2020-02-13T23:37:38.649Z</time>
      </trkpt>
      <trkpt lat="42.4751" lon="1.77111">
        <ele>2599.6</ele>
        <time>2020-02-13T23:37:44.270Z</time>
      </trkpt>
      <trkpt lat="42.47526" lon="1.77109">
        <ele>2603.5</ele>
        <time>2020-02-13T23:37:51.972Z</time>
      </trkpt>
      <trkpt lat="42.47533" lon="1.77098">
        <ele>2606.4</ele>
        <time>2020-02-13T23:37:57.470Z</time>
      </trkpt>
      <trkpt lat="42.47534" lon="1.77094">
        <ele>2608.3</ele>
        <time>2020-02-13T23:37:59.323Z</time>
      </trkpt>
      <trkpt lat="42.47538" lon="1.77084">
        <ele>2610.6</ele>
        <time>2020-02-13T23:38:03.657Z</time>
      </trkpt>
      <trkpt lat="42.47543" lon="1.77082">
        <ele>2612.1</ele>
        <time>2020-02-13T23:38:06.107Z</time>
      </trkpt>
      <trkpt lat="42.47556" lon="1.77104">
        <ele>2614.9</ele>
        <time>2020-02-13T23:38:16.235Z</time>
      </trkpt>
      <trkpt lat="42.47558" lon="1.77105">
        <ele>2616.4</ele>
        <time>2020-02-13T23:38:17.423Z</time>
      </trkpt>
      <trkpt lat="42.47568" lon="1.77103">
        <ele>2619.3</ele>
        <time>2020-02-13T23:38:22.497Z</time>
      </trkpt>
      <trkpt lat="42.47574" lon="1.77102">
        <ele>2622.6</ele>
        <time>2020-02-13T23:38:25.865Z</time>
      </trkpt>
      <trkpt lat="42.47583" lon="1.77096">
        <ele>2626</ele>
        <time>2020-02-13T23:38:30.778Z</time>
      </trkpt>
      <trkpt lat="42.47589" lon="1.77094">
        <ele>2629</ele>
        <time>2020-02-13T23:38:34.228Z</time>
      </trkpt>
      <trkpt lat="42.47595" lon="1.77088">
        <ele>2632.3</ele>
        <time>2020-02-13T23:38:38.051Z</time>
      </trkpt>
      <trkpt lat="42.47603" lon="1.7709">
        <ele>2635.1</ele>
        <time>2020-02-13T23:38:42.469Z</time>
      </trkpt>
      <trkpt lat="42.47611" lon="1.77092">
        <ele>2638.1</ele>
        <time>2020-02-13T23:38:46.613Z</time>
      </trkpt>
      <trkpt lat="42.4762" lon="1.77082">
        <ele>2641.4</ele>
        <time>2020-02-13T23:38:52.375Z</time>
      </trkpt>
      <trkpt lat="42.47623" lon="1.7708">
        <ele>2642.3</ele>
        <time>2020-02-13T23:38:53.910Z</time>
      </trkpt>
      <trkpt lat="42.47635" lon="1.77066">
        <ele>2645.3</ele>
        <time>2020-02-13T23:39:01.962Z</time>
      </trkpt>
      <trkpt lat="42.47646" lon="1.77055">
        <ele>2648.1</ele>
        <time>2020-02-13T23:39:08.700Z</time>
      </trkpt>
      <trkpt lat="42.47655" lon="1.7705">
        <ele>2651.5</ele>
        <time>2020-02-13T23:39:13.515Z</time>
      </trkpt>
      <trkpt lat="42.47664" lon="1.77044">
        <ele>2654.4</ele>
        <time>2020-02-13T23:39:18.787Z</time>
      </trkpt>
      <trkpt lat="42.47671" lon="1.77054">
        <ele>2657.8</ele>
        <time>2020-02-13T23:39:23.809Z</time>
      </trkpt>
      <trkpt lat="42.47675" lon="1.77062">
        <ele>2660.7</ele>
        <time>2020-02-13T23:39:27.652Z</time>
      </trkpt>
      <trkpt lat="42.47686" lon="1.7706">
        <ele>2663.6</ele>
        <time>2020-02-13T23:39:33.166Z</time>
      </trkpt>
      <trkpt lat="42.47689" lon="1.7706">
        <ele>2664.5</ele>
        <time>2020-02-13T23:39:34.733Z</time>
      </trkpt>
      <trkpt lat="42.47702" lon="1.77058">
        <ele>2667.9</ele>
        <time>2020-02-13T23:39:41.396Z</time>
      </trkpt>
      <trkpt lat="42.47708" lon="1.77055">
        <ele>2669.7</ele>
        <time>2020-02-13T23:39:44.552Z</time>
      </trkpt>
      <trkpt lat="42.47713" lon="1.77057">
        <ele>2672.1</ele>
        <time>2020-02-13T23:39:47.078Z</time>
      </trkpt>
      <trkpt lat="42.47716" lon="1.77062">
        <ele>2673.2</ele>
        <time>2020-02-13T23:39:49.469Z</time>
      </trkpt>
      <trkpt lat="42.4773" lon="1.77057">
        <ele>2675.5</ele>
        <time>2020-02-13T23:39:56.800Z</time>
      </trkpt>
      <trkpt lat="42.47741" lon="1.77051">
        <ele>2679.3</ele>
        <time>2020-02-13T23:40:02.614Z</time>
      </trkpt>
      <trkpt lat="42.47743" lon="1.77052">
        <ele>2679.9</ele>
        <time>2020-02-13T23:40:03.827Z</time>
      </trkpt>
      <trkpt lat="42.47745" lon="1.77052">
        <ele>2680.9</ele>
        <time>2020-02-13T23:40:04.859Z</time>
      </trkpt>
      <trkpt lat="42.47766" lon="1.77046">
        <ele>2684.1</ele>
        <time>2020-02-13T23:40:15.564Z</time>
      </trkpt>
      <trkpt lat="42.47785" lon="1.77037">
        <ele>2686.2</ele>
        <time>2020-02-13T23:40:25.529Z</time>
      </trkpt>
      <trkpt lat="42.47809" lon="1.7702">
        <ele>2687.1</ele>
        <time>2020-02-13T23:40:38.673Z</time>
      </trkpt>
      <trkpt lat="42.47831" lon="1.77012">
        <ele>2690.4</ele>
        <time>2020-02-13T23:40:49.658Z</time>
      </trkpt>
      <trkpt lat="42.47855" lon="1.77005">
        <ele>2693.3</ele>
        <time>2020-02-13T23:41:01.608Z</time>
      </trkpt>
      <trkpt lat="42.4786" lon="1.77005">
        <ele>2694.3</ele>
        <time>2020-02-13T23:41:04.418Z</time>
      </trkpt>
      <trkpt lat="42.47879" lon="1.77002">
        <ele>2698.1</ele>
        <time>2020-02-13T23:41:13.561Z</time>
      </trkpt>
      <trkpt lat="42.47897" lon="1.76992">
        <ele>2701</ele>
        <time>2020-02-13T23:41:23.137Z</time>
      </trkpt>
      <trkpt lat="42.47918" lon="1.76984">
        <ele>2703.9</ele>
        <time>2020-02-13T23:41:34.036Z</time>
      </trkpt>
      <trkpt lat="42.47944" lon="1.76974">
        <ele>2705.9</ele>
        <time>2020-02-13T23:41:47.079Z</time>
      </trkpt>
      <trkpt lat="42.47963" lon="1.76967">
        <ele>2708.3</ele>
        <time>2020-02-13T23:41:57.109Z</time>
      </trkpt>
      <trkpt lat="42.47968" lon="1.76959">
        <ele>2708.7</ele>
        <time>2020-02-13T23:42:00.570Z</time>
      </trkpt>
      <trkpt lat="42.47989" lon="1.76946">
        <ele>2710.2</ele>
        <time>2020-02-13T23:42:11.659Z</time>
      </trkpt>
      <trkpt lat="42.47993" lon="1.76946">
        <ele>2708.7</ele>
        <time>2020-02-13T23:42:14.141Z</time>
      </trkpt>
      <trkpt lat="42.48015" lon="1.76939">
        <ele>2711.5</ele>
        <time>2020-02-13T23:42:25.255Z</time>
      </trkpt>
      <trkpt lat="42.48036" lon="1.76928">
        <ele>2714</ele>
        <time>2020-02-13T23:42:35.808Z</time>
      </trkpt>
      <trkpt lat="42.48059" lon="1.76921">
        <ele>2714.9</ele>
        <time>2020-02-13T23:42:47.340Z</time>
      </trkpt>
      <trkpt lat="42.48074" lon="1.76915">
        <ele>2718.3</ele>
        <time>2020-02-13T23:42:55.523Z</time>
      </trkpt>
      <trkpt lat="42.48076" lon="1.76914">
        <ele>2718.3</ele>
        <time>2020-02-13T23:42:56.215Z</time>
      </trkpt>
      <trkpt lat="42.48097" lon="1.76902">
        <ele>2719.7</ele>
        <time>2020-02-13T23:43:07.413Z</time>
      </trkpt>
      <trkpt lat="42.48112" lon="1.76895">
        <ele>2722.7</ele>
        <time>2020-02-13T23:43:15.268Z</time>
      </trkpt>
      <trkpt lat="42.48127" lon="1.76886">
        <ele>2726.1</ele>
        <time>2020-02-13T23:43:23.472Z</time>
      </trkpt>
      <trkpt lat="42.48144" lon="1.76878">
        <ele>2728.4</ele>
        <time>2020-02-13T23:43:32.259Z</time>
      </trkpt>
      <trkpt lat="42.48158" lon="1.76864">
        <ele>2730.3</ele>
        <time>2020-02-13T23:43:40.904Z</time>
      </trkpt>
      <trkpt lat="42.48172" lon="1.76847">
        <ele>2733.8</ele>
        <time>2020-02-13T23:43:50.069Z</time>
      </trkpt>
      <trkpt lat="42.48186" lon="1.76833">
        <ele>2735.6</ele>
        <time>2020-02-13T23:43:58.453Z</time>
      </trkpt>
      <trkpt lat="42.48192" lon="1.76823">
        <ele>2737.5</ele>
        <time>2020-02-13T23:44:02.995Z</time>
      </trkpt>
      <trkpt lat="42.482" lon="1.76812">
        <ele>2741.4</ele>
        <time>2020-02-13T23:44:09.138Z</time>
      </trkpt>
      <trkpt lat="42.48213" lon="1.768">
        <ele>2744.7</ele>
        <time>2020-02-13T23:44:17.003Z</time>
      </trkpt>
      <trkpt lat="42.48227" lon="1.76787">
        <ele>2748.1</ele>
        <time>2020-02-13T23:44:25.330Z</time>
      </trkpt>
      <trkpt lat="42.48244" lon="1.76778">
        <ele>2751.4</ele>
        <time>2020-02-13T23:44:34.132Z</time>
      </trkpt>
      <trkpt lat="42.48265" lon="1.76765">
        <ele>2753.8</ele>
        <time>2020-02-13T23:44:45.626Z</time>
      </trkpt>
      <trkpt lat="42.48274" lon="1.76757">
        <ele>2756.2</ele>
        <time>2020-02-13T23:44:51.098Z</time>
      </trkpt>
      <trkpt lat="42.48287" lon="1.76743">
        <ele>2759.7</ele>
        <time>2020-02-13T23:44:59.107Z</time>
      </trkpt>
      <trkpt lat="42.48301" lon="1.7673">
        <ele>2761.5</ele>
        <time>2020-02-13T23:45:07.644Z</time>
      </trkpt>
      <trkpt lat="42.48313" lon="1.76722">
        <ele>2764.5</ele>
        <time>2020-02-13T23:45:14.245Z</time>
      </trkpt>
      <trkpt lat="42.48321" lon="1.76712">
        <ele>2766.3</ele>
        <time>2020-02-13T23:45:19.567Z</time>
      </trkpt>
      <trkpt lat="42.48326" lon="1.76708">
        <ele>2766.9</ele>
        <time>2020-02-13T23:45:22.245Z</time>
      </trkpt>
      <trkpt lat="42.48337" lon="1.76701">
        <ele>2770.3</ele>
        <time>2020-02-13T23:45:28.545Z</time>
      </trkpt>
      <trkpt lat="42.48357" lon="1.76694">
        <ele>2773.6</ele>
        <time>2020-02-13T23:45:38.477Z</time>
      </trkpt>
      <trkpt lat="42.48368" lon="1.76684">
        <ele>2776.4</ele>
        <time>2020-02-13T23:45:45.354Z</time>
      </trkpt>
      <trkpt lat="42.48369" lon="1.76683">
        <ele>2776.4</ele>
        <time>2020-02-13T23:45:45.788Z</time>
      </trkpt>
      <trkpt lat="42.48385" lon="1.76672">
        <ele>2779.9</ele>
        <time>2020-02-13T23:45:54.811Z</time>
      </trkpt>
      <trkpt lat="42.48397" lon="1.76662">
        <ele>2781.2</ele>
        <time>2020-02-13T23:46:01.872Z</time>
      </trkpt>
      <trkpt lat="42.4841" lon="1.76651">
        <ele>2784.6</ele>
        <time>2020-02-13T23:46:09.035Z</time>
      </trkpt>
      <trkpt lat="42.48418" lon="1.76644">
        <ele>2787</ele>
        <time>2020-02-13T23:46:13.911Z</time>
      </trkpt>
      <trkpt lat="42.48432" lon="1.76633">
        <ele>2790</ele>
        <time>2020-02-13T23:46:21.862Z</time>
      </trkpt>
      <trkpt lat="42.48435" lon="1.76629">
        <ele>2790.4</ele>
        <time>2020-02-13T23:46:23.977Z</time>
      </trkpt>
      <trkpt lat="42.4845" lon="1.7662">
        <ele>2793.8</ele>
        <time>2020-02-13T23:46:32.038Z</time>
      </trkpt>
      <trkpt lat="42.48458" lon="1.76611">
        <ele>2797.2</ele>
        <time>2020-02-13T23:46:37.601Z</time>
      </trkpt>
      <trkpt lat="42.48465" lon="1.76601">
        <ele>2798.1</ele>
        <time>2020-02-13T23:46:42.216Z</time>
      </trkpt>
      <trkpt lat="42.48476" lon="1.76589">
        <ele>2801.9</ele>
        <time>2020-02-13T23:46:49.569Z</time>
      </trkpt>
      <trkpt lat="42.48482" lon="1.76585">
        <ele>2803.3</ele>
        <time>2020-02-13T23:46:52.988Z</time>
      </trkpt>
      <trkpt lat="42.48493" lon="1.76582">
        <ele>2806.7</ele>
        <time>2020-02-13T23:46:58.510Z</time>
      </trkpt>
      <trkpt lat="42.48505" lon="1.76575">
        <ele>2810.2</ele>
        <time>2020-02-13T23:47:04.912Z</time>
      </trkpt>
      <trkpt lat="42.48517" lon="1.7657">
        <ele>2813.1</ele>
        <time>2020-02-13T23:47:11.126Z</time>
      </trkpt>
      <trkpt lat="42.48519" lon="1.76569">
        <ele>2814.5</ele>
        <time>2020-02-13T23:47:12.421Z</time>
      </trkpt>
      <trkpt lat="42.48523" lon="1.76561">
        <ele>2814.9</ele>
        <time>2020-02-13T23:47:15.872Z</time>
      </trkpt>
      <trkpt lat="42.48524" lon="1.76559">
        <ele>2815.4</ele>
        <time>2020-02-13T23:47:16.768Z</time>
      </trkpt>
      <trkpt lat="42.48534" lon="1.76549">
        <ele>2818.2</ele>
        <time>2020-02-13T23:47:22.833Z</time>
      </trkpt>
      <trkpt lat="42.48538" lon="1.7655">
        <ele>2819.7</ele>
        <time>2020-02-13T23:47:25.215Z</time>
      </trkpt>
      <trkpt lat="42.48548" lon="1.76543">
        <ele>2823.2</ele>
        <time>2020-02-13T23:47:30.753Z</time>
      </trkpt>
      <trkpt lat="42.4856" lon="1.76538">
        <ele>2825.9</ele>
        <time>2020-02-13T23:47:36.839Z</time>
      </trkpt>
      <trkpt lat="42.4857" lon="1.76526">
        <ele>2828.3</ele>
        <time>2020-02-13T23:47:43.803Z</time>
      </trkpt>
      <trkpt lat="42.48579" lon="1.76515">
        <ele>2831.7</ele>
        <time>2020-02-13T23:47:49.793Z</time>
      </trkpt>
      <trkpt lat="42.48586" lon="1.76508">
        <ele>2835.2</ele>
        <time>2020-02-13T23:47:54.186Z</time>
      </trkpt>
      <trkpt lat="42.4859" lon="1.76495">
        <ele>2837</ele>
        <time>2020-02-13T23:47:59.410Z</time>
      </trkpt>
      <trkpt lat="42.48596" lon="1.76482">
        <ele>2840.9</ele>
        <time>2020-02-13T23:48:05.010Z</time>
      </trkpt>
      <trkpt lat="42.48606" lon="1.76471">
        <ele>2844.3</ele>
        <time>2020-02-13T23:48:11.351Z</time>
      </trkpt>
      <trkpt lat="42.48612" lon="1.76462">
        <ele>2847.7</ele>
        <time>2020-02-13T23:48:15.935Z</time>
      </trkpt>
      <trkpt lat="42.48613" lon="1.76457">
        <ele>2847.2</ele>
        <time>2020-02-13T23:48:17.833Z</time>
      </trkpt>
      <trkpt lat="42.48613" lon="1.76452">
        <ele>2848</ele>
        <time>2020-02-13T23:48:19.816Z</time>
      </trkpt>
      <trkpt lat="42.48615" lon="1.76445">
        <ele>2849.6</ele>
        <time>2020-02-13T23:48:22.634Z</time>
      </trkpt>
      <trkpt lat="42.48623" lon="1.76437">
        <ele>2852.9</ele>
        <time>2020-02-13T23:48:27.550Z</time>
      </trkpt>
      <trkpt lat="42.48624" lon="1.76436">
        <ele>2853.3</ele>
        <time>2020-02-13T23:48:28.089Z</time>
      </trkpt>
      <trkpt lat="42.48631" lon="1.76428">
        <ele>2855.8</ele>
        <time>2020-02-13T23:48:32.907Z</time>
      </trkpt>
      <trkpt lat="42.48633" lon="1.76421">
        <ele>2857.8</ele>
        <time>2020-02-13T23:48:35.713Z</time>
      </trkpt>
      <trkpt lat="42.48631" lon="1.76406">
        <ele>2859.6</ele>
        <time>2020-02-13T23:48:41.035Z</time>
      </trkpt>
      <trkpt lat="42.48636" lon="1.76395">
        <ele>2861.5</ele>
        <time>2020-02-13T23:48:45.894Z</time>
      </trkpt>
      <trkpt lat="42.48642" lon="1.76392">
        <ele>2863.9</ele>
        <time>2020-02-13T23:48:49.044Z</time>
      </trkpt>
      <trkpt lat="42.48651" lon="1.76385">
        <ele>2866.8</ele>
        <time>2020-02-13T23:48:54.629Z</time>
      </trkpt>
      <trkpt lat="42.48659" lon="1.76384">
        <ele>2868.7</ele>
        <time>2020-02-13T23:48:58.580Z</time>
      </trkpt>
      <trkpt lat="42.48661" lon="1.76379">
        <ele>2870.2</ele>
        <time>2020-02-13T23:49:00.633Z</time>
      </trkpt>
      <trkpt lat="42.48661" lon="1.76371">
        <ele>2873</ele>
        <time>2020-02-13T23:49:03.819Z</time>
      </trkpt>
      <trkpt lat="42.48663" lon="1.76362">
        <ele>2876.4</ele>
        <time>2020-02-13T23:49:07.229Z</time>
      </trkpt>
      <trkpt lat="42.48665" lon="1.76358">
        <ele>2877.8</ele>
        <time>2020-02-13T23:49:09.211Z</time>
      </trkpt>
      <trkpt lat="42.4867" lon="1.76352">
        <ele>2880.4</ele>
        <time>2020-02-13T23:49:12.805Z</time>
      </trkpt>
      <trkpt lat="42.48674" lon="1.76347">
        <ele>2882.8</ele>
        <time>2020-02-13T23:49:15.521Z</time>
      </trkpt>
      <trkpt lat="42.48676" lon="1.7634">
        <ele>2885.6</ele>
        <time>2020-02-13T23:49:18.582Z</time>
      </trkpt>
      <trkpt lat="42.4868" lon="1.76333">
        <ele>2888.5</ele>
        <time>2020-02-13T23:49:22.001Z</time>
      </trkpt>
      <trkpt lat="42.48683" lon="1.76331">
        <ele>2888.9</ele>
        <time>2020-02-13T23:49:23.487Z</time>
      </trkpt>
      <trkpt lat="42.48685" lon="1.76328">
        <ele>2891.8</ele>
        <time>2020-02-13T23:49:25.465Z</time>
      </trkpt>
      <trkpt lat="42.48682" lon="1.76318">
        <ele>2894.3</ele>
        <time>2020-02-13T23:49:29.743Z</time>
      </trkpt>
      <trkpt lat="42.48681" lon="1.7631">
        <ele>2897.7</ele>
        <time>2020-02-13T23:49:32.699Z</time>
      </trkpt>
      <trkpt lat="42.48682" lon="1.76301">
        <ele>2900.4</ele>
        <time>2020-02-13T23:49:36.179Z</time>
      </trkpt>
      <trkpt lat="42.48681" lon="1.76282">
        <ele>2902.8</ele>
        <time>2020-02-13T23:49:43.407Z</time>
      </trkpt>
      <trkpt lat="42.48678" lon="1.76271">
        <ele>2904.3</ele>
        <time>2020-02-13T23:49:47.523Z</time>
      </trkpt>
      <trkpt lat="42.48679" lon="1.76271">
        <ele>2902.9</ele>
        <time>2020-02-13T23:49:48.208Z</time>
      </trkpt>
      <trkpt lat="42.4868" lon="1.76272">
        <ele>2902.8</ele>
        <time>2020-02-13T23:49:48.903Z</time>
      </trkpt>
      <trkpt lat="42.48679" lon="1.76272">
        <ele>2903.3</ele>
        <time>2020-02-13T23:49:49.400Z</time>
      </trkpt>
      <trkpt lat="42.48678" lon="1.76271">
        <ele>2903.8</ele>
        <time>2020-02-13T23:49:49.839Z</time>
      </trkpt>
      <trkpt lat="42.48679" lon="1.7627">
        <ele>2904.3</ele>
        <time>2020-02-13T23:49:50.540Z</time>
      </trkpt>
      <trkpt lat="42.48679" lon="1.76271">
        <ele>2903.9</ele>
        <time>2020-02-13T23:49:50.864Z</time>
      </trkpt>
      <trkpt lat="42.48678" lon="1.76271">
        <ele>2904.3</ele>
        <time>2020-02-13T23:49:51.385Z</time>
      </trkpt>
      <trkpt lat="42.4868" lon="1.76271">
        <ele>2903.3</ele>
        <time>2020-02-13T23:49:52.164Z</time>
      </trkpt>
      <trkpt lat="42.48679" lon="1.76272">
        <ele>2904.4</ele>
        <time>2020-02-13T23:49:52.989Z</time>
      </trkpt>
      <trkpt lat="42.48679" lon="1.76271">
        <ele>2903.8</ele>
        <time>2020-02-13T23:49:53.494Z</time>
      </trkpt>
      <trkpt lat="42.48681" lon="1.76272">
        <ele>2905.2</ele>
        <time>2020-02-13T23:49:54.828Z</time>
      </trkpt>
      <trkpt lat="42.48681" lon="1.76275">
        <ele>2904.3</ele>
        <time>2020-02-13T23:49:56.078Z</time>
      </trkpt>
      <trkpt lat="42.48682" lon="1.76277">
        <ele>2904.3</ele>
        <time>2020-02-13T23:49:56.950Z</time>
      </trkpt>
      <trkpt lat="42.48682" lon="1.7627">
        <ele>2905.2</ele>
        <time>2020-02-13T23:49:59.502Z</time>
      </trkpt>
      <trkpt lat="42.48682" lon="1.76269">
        <ele>2906.7</ele>
        <time>2020-02-13T23:50:00.277Z</time>
      </trkpt>
      <trkpt lat="42.48683" lon="1.76269">
        <ele>2906.8</ele>
        <time>2020-02-13T23:50:00.857Z</time>
      </trkpt>
      <trkpt lat="42.48681" lon="1.76267">
        <ele>2906.2</ele>
        <time>2020-02-13T23:50:01.992Z</time>
      </trkpt>
      <trkpt lat="42.48684" lon="1.76266">
        <ele>2905.7</ele>
        <time>2020-02-13T23:50:03.260Z</time>
      </trkpt>
      <trkpt lat="42.4869" lon="1.76264">
        <ele>2902.8</ele>
        <time>2020-02-13T23:50:06.640Z</time>
      </trkpt>
      <trkpt lat="42.48692" lon="1.76263">
        <ele>2902.5</ele>
        <time>2020-02-13T23:50:07.656Z</time>
      </trkpt>
      <trkpt lat="42.48694" lon="1.76262">
        <ele>2902.4</ele>
        <time>2020-02-13T23:50:08.688Z</time>
      </trkpt>
      <trkpt lat="42.48698" lon="1.76261">
        <ele>2901.9</ele>
        <time>2020-02-13T23:50:10.774Z</time>
      </trkpt>
      <trkpt lat="42.48709" lon="1.76257">
        <ele>2901</ele>
        <time>2020-02-13T23:50:16.283Z</time>
      </trkpt>
      <trkpt lat="42.48711" lon="1.76256">
        <ele>2898</ele>
        <time>2020-02-13T23:50:17.928Z</time>
      </trkpt>
      <trkpt lat="42.48711" lon="1.76255">
        <ele>2903.4</ele>
        <time>2020-02-13T23:50:20.311Z</time>
      </trkpt>
      <trkpt lat="42.48713" lon="1.76254">
        <ele>2900.5</ele>
        <time>2020-02-13T23:50:21.891Z</time>
      </trkpt>
      <trkpt lat="42.48717" lon="1.7625">
        <ele>2900.4</ele>
        <time>2020-02-13T23:50:24.128Z</time>
      </trkpt>
      <trkpt lat="42.48732" lon="1.7624">
        <ele>2899.1</ele>
        <time>2020-02-13T23:50:32.647Z</time>
      </trkpt>
      <trkpt lat="42.4875" lon="1.76232">
        <ele>2899</ele>
        <time>2020-02-13T23:50:41.444Z</time>
      </trkpt>
      <trkpt lat="42.48754" lon="1.76224">
        <ele>2901.4</ele>
        <time>2020-02-13T23:50:44.987Z</time>
      </trkpt>
      <trkpt lat="42.48749" lon="1.76208">
        <ele>2905.3</ele>
        <time>2020-02-13T23:50:51.372Z</time>
      </trkpt>
      <trkpt lat="42.4874" lon="1.76203">
        <ele>2904.8</ele>
        <time>2020-02-13T23:50:56.433Z</time>
      </trkpt>
      <trkpt lat="42.4874" lon="1.76202">
        <ele>2908.6</ele>
        <time>2020-02-13T23:50:58.095Z</time>
      </trkpt>
      <trkpt lat="42.4874" lon="1.76202">
        <ele>2905.8</ele>
        <time>2020-02-13T23:50:59.333Z</time>
      </trkpt>
      <trkpt lat="42.4874" lon="1.76204">
        <ele>2905.7</ele>
        <time>2020-02-13T23:51:00.008Z</time>
      </trkpt>
      <trkpt lat="42.48744" lon="1.76205">
        <ele>2906.7</ele>
        <time>2020-02-13T23:51:01.729Z</time>
      </trkpt>
      <trkpt lat="42.48746" lon="1.76204">
        <ele>2902.5</ele>
        <time>2020-02-13T23:51:03.967Z</time>
      </trkpt>
      <trkpt lat="42.48748" lon="1.76204">
        <ele>2908.7</ele>
        <time>2020-02-13T23:51:06.783Z</time>
      </trkpt>
      <trkpt lat="42.48751" lon="1.76204">
        <ele>2905.7</ele>
        <time>2020-02-13T23:51:08.970Z</time>
      </trkpt>
      <trkpt lat="42.48754" lon="1.76206">
        <ele>2902</ele>
        <time>2020-02-13T23:51:10.998Z</time>
      </trkpt>
      <trkpt lat="42.48755" lon="1.76206">
        <ele>2908.1</ele>
        <time>2020-02-13T23:51:13.753Z</time>
      </trkpt>
      <trkpt lat="42.48756" lon="1.76206">
        <ele>2904.8</ele>
        <time>2020-02-13T23:51:15.301Z</time>
      </trkpt>
      <trkpt lat="42.48769" lon="1.762">
        <ele>2903.8</ele>
        <time>2020-02-13T23:51:21.856Z</time>
      </trkpt>
      <trkpt lat="42.48778" lon="1.76196">
        <ele>2900</ele>
        <time>2020-02-13T23:51:26.778Z</time>
      </trkpt>
      <trkpt lat="42.48785" lon="1.76188">
        <ele>2902</ele>
        <time>2020-02-13T23:51:31.595Z</time>
      </trkpt>
      <trkpt lat="42.48789" lon="1.76187">
        <ele>2900.5</ele>
        <time>2020-02-13T23:51:33.659Z</time>
      </trkpt>
      <trkpt lat="42.48794" lon="1.7618">
        <ele>2906.8</ele>
        <time>2020-02-13T23:51:37.912Z</time>
      </trkpt>
      <trkpt lat="42.48794" lon="1.76179">
        <ele>2901.4</ele>
        <time>2020-02-13T23:51:40.319Z</time>
      </trkpt>
      <trkpt lat="42.48809" lon="1.76169">
        <ele>2898</ele>
        <time>2020-02-13T23:51:48.243Z</time>
      </trkpt>
      <trkpt lat="42.48821" lon="1.7616">
        <ele>2895.3</ele>
        <time>2020-02-13T23:51:55.368Z</time>
      </trkpt>
      <trkpt lat="42.48842" lon="1.76148">
        <ele>2892.7</ele>
        <time>2020-02-13T23:52:06.161Z</time>
      </trkpt>
      <trkpt lat="42.48869" lon="1.76137">
        <ele>2891.3</ele>
        <time>2020-02-13T23:52:20.037Z</time>
      </trkpt>
      <trkpt lat="42.48882" lon="1.76134">
        <ele>2889.9</ele>
        <time>2020-02-13T23:52:26.314Z</time>
      </trkpt>
      <trkpt lat="42.48901" lon="1.76121">
        <ele>2887.5</ele>
        <time>2020-02-13T23:52:37.082Z</time>
      </trkpt>
      <trkpt lat="42.48921" lon="1.76109">
        <ele>2886.5</ele>
        <time>2020-02-13T23:52:47.799Z</time>
      </trkpt>
      <trkpt lat="42.48946" lon="1.76097">
        <ele>2883.6</ele>
        <time>2020-02-13T23:53:00.414Z</time>
      </trkpt>
      <trkpt lat="42.48947" lon="1.76097">
        <ele>2884.2</ele>
        <time>2020-02-13T23:53:01.096Z</time>
      </trkpt>
      <trkpt lat="42.48954" lon="1.76098">
        <ele>2882.2</ele>
        <time>2020-02-13T23:53:04.773Z</time>
      </trkpt>
      <trkpt lat="42.4896" lon="1.76094">
        <ele>2881.8</ele>
        <time>2020-02-13T23:53:07.798Z</time>
      </trkpt>
      <trkpt lat="42.4897" lon="1.7608">
        <ele>2878.8</ele>
        <time>2020-02-13T23:53:15.037Z</time>
      </trkpt>
      <trkpt lat="42.48972" lon="1.76077">
        <ele>2879.4</ele>
        <time>2020-02-13T23:53:16.397Z</time>
      </trkpt>
      <trkpt lat="42.48971" lon="1.76071">
        <ele>2878.9</ele>
        <time>2020-02-13T23:53:18.579Z</time>
      </trkpt>
      <trkpt lat="42.48973" lon="1.76065">
        <ele>2877.5</ele>
        <time>2020-02-13T23:53:20.822Z</time>
      </trkpt>
      <trkpt lat="42.48977" lon="1.76051">
        <ele>2874</ele>
        <time>2020-02-13T23:53:26.495Z</time>
      </trkpt>
      <trkpt lat="42.4898" lon="1.76046">
        <ele>2872.6</ele>
        <time>2020-02-13T23:53:28.901Z</time>
      </trkpt>
      <trkpt lat="42.48981" lon="1.76044">
        <ele>2872.1</ele>
        <time>2020-02-13T23:53:30.106Z</time>
      </trkpt>
      <trkpt lat="42.4898" lon="1.76033">
        <ele>2869.2</ele>
        <time>2020-02-13T23:53:34.079Z</time>
      </trkpt>
      <trkpt lat="42.48983" lon="1.76019">
        <ele>2867.4</ele>
        <time>2020-02-13T23:53:39.345Z</time>
      </trkpt>
      <trkpt lat="42.48984" lon="1.76017">
        <ele>2866.4</ele>
        <time>2020-02-13T23:53:40.549Z</time>
      </trkpt>
      <trkpt lat="42.48985" lon="1.76013">
        <ele>2865.5</ele>
        <time>2020-02-13T23:53:41.963Z</time>
      </trkpt>
      <trkpt lat="42.48988" lon="1.76005">
        <ele>2863.5</ele>
        <time>2020-02-13T23:53:45.371Z</time>
      </trkpt>
      <trkpt lat="42.48987" lon="1.75993">
        <ele>2860.6</ele>
        <time>2020-02-13T23:53:49.879Z</time>
      </trkpt>
      <trkpt lat="42.48986" lon="1.7599">
        <ele>2859.7</ele>
        <time>2020-02-13T23:53:51.049Z</time>
      </trkpt>
      <trkpt lat="42.48979" lon="1.75985">
        <ele>2856.7</ele>
        <time>2020-02-13T23:53:54.864Z</time>
      </trkpt>
      <trkpt lat="42.48976" lon="1.75983">
        <ele>2854.4</ele>
        <time>2020-02-13T23:53:57.038Z</time>
      </trkpt>
      <trkpt lat="42.48975" lon="1.75977">
        <ele>2853.8</ele>
        <time>2020-02-13T23:53:59.123Z</time>
      </trkpt>
      <trkpt lat="42.48972" lon="1.75972">
        <ele>2851.9</ele>
        <time>2020-02-13T23:54:01.712Z</time>
      </trkpt>
      <trkpt lat="42.48973" lon="1.75964">
        <ele>2848</ele>
        <time>2020-02-13T23:54:04.931Z</time>
      </trkpt>
      <trkpt lat="42.48974" lon="1.7596">
        <ele>2846.7</ele>
        <time>2020-02-13T23:54:06.699Z</time>
      </trkpt>
      <trkpt lat="42.48974" lon="1.75958">
        <ele>2846.2</ele>
        <time>2020-02-13T23:54:07.325Z</time>
      </trkpt>
      <trkpt lat="42.48972" lon="1.75949">
        <ele>2843.7</ele>
        <time>2020-02-13T23:54:10.837Z</time>
      </trkpt>
      <trkpt lat="42.48971" lon="1.75947">
        <ele>2843.3</ele>
        <time>2020-02-13T23:54:11.960Z</time>
      </trkpt>
      <trkpt lat="42.4897" lon="1.75941">
        <ele>2841.4</ele>
        <time>2020-02-13T23:54:14.034Z</time>
      </trkpt>
      <trkpt lat="42.48971" lon="1.75937">
        <ele>2839.9</ele>
        <time>2020-02-13T23:54:15.722Z</time>
      </trkpt>
      <trkpt lat="42.48966" lon="1.75929">
        <ele>2836.5</ele>
        <time>2020-02-13T23:54:19.806Z</time>
      </trkpt>
      <trkpt lat="42.48964" lon="1.75926">
        <ele>2835.6</ele>
        <time>2020-02-13T23:54:21.366Z</time>
      </trkpt>
      <trkpt lat="42.48966" lon="1.7592">
        <ele>2833.6</ele>
        <time>2020-02-13T23:54:23.926Z</time>
      </trkpt>
      <trkpt lat="42.48973" lon="1.75913">
        <ele>2830.7</ele>
        <time>2020-02-13T23:54:28.044Z</time>
      </trkpt>
      <trkpt lat="42.48974" lon="1.75911">
        <ele>2830.4</ele>
        <time>2020-02-13T23:54:29.336Z</time>
      </trkpt>
      <trkpt lat="42.48978" lon="1.75905">
        <ele>2828.9</ele>
        <time>2020-02-13T23:54:32.137Z</time>
      </trkpt>
      <trkpt lat="42.48981" lon="1.75898">
        <ele>2827.5</ele>
        <time>2020-02-13T23:54:35.045Z</time>
      </trkpt>
      <trkpt lat="42.48983" lon="1.75895">
        <ele>2825.9</ele>
        <time>2020-02-13T23:54:36.567Z</time>
      </trkpt>
      <trkpt lat="42.48983" lon="1.75892">
        <ele>2825</ele>
        <time>2020-02-13T23:54:37.812Z</time>
      </trkpt>
      <trkpt lat="42.48983" lon="1.7588">
        <ele>2822.1</ele>
        <time>2020-02-13T23:54:42.355Z</time>
      </trkpt>
      <trkpt lat="42.48984" lon="1.75877">
        <ele>2820.8</ele>
        <time>2020-02-13T23:54:43.752Z</time>
      </trkpt>
      <trkpt lat="42.48984" lon="1.75876">
        <ele>2820.7</ele>
        <time>2020-02-13T23:54:44.077Z</time>
      </trkpt>
      <trkpt lat="42.4898" lon="1.75873">
        <ele>2819.3</ele>
        <time>2020-02-13T23:54:46.300Z</time>
      </trkpt>
      <trkpt lat="42.48972" lon="1.75866">
        <ele>2815.4</ele>
        <time>2020-02-13T23:54:51.542Z</time>
      </trkpt>
      <trkpt lat="42.48968" lon="1.75861">
        <ele>2813</ele>
        <time>2020-02-13T23:54:54.348Z</time>
      </trkpt>
      <trkpt lat="42.4897" lon="1.75857">
        <ele>2811</ele>
        <time>2020-02-13T23:54:56.467Z</time>
      </trkpt>
      <trkpt lat="42.48976" lon="1.7585">
        <ele>2808.2</ele>
        <time>2020-02-13T23:55:00.508Z</time>
      </trkpt>
      <trkpt lat="42.48979" lon="1.75847">
        <ele>2807.8</ele>
        <time>2020-02-13T23:55:02.318Z</time>
      </trkpt>
      <trkpt lat="42.48973" lon="1.75844">
        <ele>2804.4</ele>
        <time>2020-02-13T23:55:05.726Z</time>
      </trkpt>
      <trkpt lat="42.48974" lon="1.75837">
        <ele>2802</ele>
        <time>2020-02-13T23:55:08.423Z</time>
      </trkpt>
      <trkpt lat="42.48972" lon="1.75832">
        <ele>2799.1</ele>
        <time>2020-02-13T23:55:10.775Z</time>
      </trkpt>
      <trkpt lat="42.48973" lon="1.7583">
        <ele>2799.1</ele>
        <time>2020-02-13T23:55:11.917Z</time>
      </trkpt>
      <trkpt lat="42.48975" lon="1.75827">
        <ele>2797.7</ele>
        <time>2020-02-13T23:55:13.303Z</time>
      </trkpt>
      <trkpt lat="42.48985" lon="1.75813">
        <ele>2793.4</ele>
        <time>2020-02-13T23:55:20.750Z</time>
      </trkpt>
      <trkpt lat="42.48986" lon="1.75811">
        <ele>2792.8</ele>
        <time>2020-02-13T23:55:21.487Z</time>
      </trkpt>
      <trkpt lat="42.48988" lon="1.75801">
        <ele>2789.9</ele>
        <time>2020-02-13T23:55:25.579Z</time>
      </trkpt>
      <trkpt lat="42.48988" lon="1.75799">
        <ele>2788.9</ele>
        <time>2020-02-13T23:55:26.268Z</time>
      </trkpt>
      <trkpt lat="42.48988" lon="1.75796">
        <ele>2788.5</ele>
        <time>2020-02-13T23:55:27.232Z</time>
      </trkpt>
      <trkpt lat="42.48986" lon="1.75794">
        <ele>2788</ele>
        <time>2020-02-13T23:55:28.433Z</time>
      </trkpt>
      <trkpt lat="42.48988" lon="1.75789">
        <ele>2785.6</ele>
        <time>2020-02-13T23:55:30.592Z</time>
      </trkpt>
      <trkpt lat="42.48991" lon="1.75786">
        <ele>2784.1</ele>
        <time>2020-02-13T23:55:32.576Z</time>
      </trkpt>
      <trkpt lat="42.49003" lon="1.75775">
        <ele>2782.3</ele>
        <time>2020-02-13T23:55:39.807Z</time>
      </trkpt>
      <trkpt lat="42.49007" lon="1.75771">
        <ele>2781.3</ele>
        <time>2020-02-13T23:55:41.927Z</time>
      </trkpt>
      <trkpt lat="42.49013" lon="1.75767">
        <ele>2779.8</ele>
        <time>2020-02-13T23:55:45.296Z</time>
      </trkpt>
      <trkpt lat="42.49017" lon="1.75758">
        <ele>2775.5</ele>
        <time>2020-02-13T23:55:49.742Z</time>
      </trkpt>
      <trkpt lat="42.49019" lon="1.75756">
        <ele>2775.5</ele>
        <time>2020-02-13T23:55:50.793Z</time>
      </trkpt>
      <trkpt lat="42.49021" lon="1.75755">
        <ele>2775</ele>
        <time>2020-02-13T23:55:51.842Z</time>
      </trkpt>
      <trkpt lat="42.49028" lon="1.75749">
        <ele>2771.6</ele>
        <time>2020-02-13T23:55:56.084Z</time>
      </trkpt>
      <trkpt lat="42.49024" lon="1.75746">
        <ele>2770.2</ele>
        <time>2020-02-13T23:55:58.237Z</time>
      </trkpt>
      <trkpt lat="42.49021" lon="1.75744">
        <ele>2768.7</ele>
        <time>2020-02-13T23:56:00.082Z</time>
      </trkpt>
      <trkpt lat="42.49023" lon="1.75741">
        <ele>2767.3</ele>
        <time>2020-02-13T23:56:01.579Z</time>
      </trkpt>
      <trkpt lat="42.49023" lon="1.75739">
        <ele>2766.4</ele>
        <time>2020-02-13T23:56:02.302Z</time>
      </trkpt>
      <trkpt lat="42.49024" lon="1.75736">
        <ele>2765.5</ele>
        <time>2020-02-13T23:56:03.409Z</time>
      </trkpt>
      <trkpt lat="42.49028" lon="1.75729">
        <ele>2762.5</ele>
        <time>2020-02-13T23:56:07.037Z</time>
      </trkpt>
      <trkpt lat="42.4903" lon="1.75727">
        <ele>2762</ele>
        <time>2020-02-13T23:56:08.186Z</time>
      </trkpt>
      <trkpt lat="42.49033" lon="1.75718">
        <ele>2758.6</ele>
        <time>2020-02-13T23:56:11.954Z</time>
      </trkpt>
      <trkpt lat="42.49032" lon="1.75715">
        <ele>2757.7</ele>
        <time>2020-02-13T23:56:13.328Z</time>
      </trkpt>
      <trkpt lat="42.4904" lon="1.75706">
        <ele>2753.4</ele>
        <time>2020-02-13T23:56:18.735Z</time>
      </trkpt>
      <trkpt lat="42.49041" lon="1.75705">
        <ele>2753.5</ele>
        <time>2020-02-13T23:56:19.336Z</time>
      </trkpt>
      <trkpt lat="42.49041" lon="1.75703">
        <ele>2752.5</ele>
        <time>2020-02-13T23:56:19.940Z</time>
      </trkpt>
      <trkpt lat="42.49042" lon="1.75699">
        <ele>2751.1</ele>
        <time>2020-02-13T23:56:21.717Z</time>
      </trkpt>
      <trkpt lat="42.49043" lon="1.75698">
        <ele>2750.5</ele>
        <time>2020-02-13T23:56:22.329Z</time>
      </trkpt>
      <trkpt lat="42.4905" lon="1.75694">
        <ele>2749.6</ele>
        <time>2020-02-13T23:56:26.163Z</time>
      </trkpt>
      <trkpt lat="42.49057" lon="1.75687">
        <ele>2747.7</ele>
        <time>2020-02-13T23:56:30.337Z</time>
      </trkpt>
      <trkpt lat="42.49062" lon="1.75676">
        <ele>2743.3</ele>
        <time>2020-02-13T23:56:35.330Z</time>
      </trkpt>
      <trkpt lat="42.49062" lon="1.75675">
        <ele>2743.3</ele>
        <time>2020-02-13T23:56:35.906Z</time>
      </trkpt>
      <trkpt lat="42.49068" lon="1.75671">
        <ele>2741.3</ele>
        <time>2020-02-13T23:56:39.084Z</time>
      </trkpt>
      <trkpt lat="42.49077" lon="1.75659">
        <ele>2737.5</ele>
        <time>2020-02-13T23:56:45.463Z</time>
      </trkpt>
      <trkpt lat="42.49077" lon="1.75658">
        <ele>2737</ele>
        <time>2020-02-13T23:56:45.906Z</time>
      </trkpt>
      <trkpt lat="42.49074" lon="1.75653">
        <ele>2733.7</ele>
        <time>2020-02-13T23:56:48.856Z</time>
      </trkpt>
      <trkpt lat="42.49074" lon="1.75653">
        <ele>2733.2</ele>
        <time>2020-02-13T23:56:49.070Z</time>
      </trkpt>
      <trkpt lat="42.49073" lon="1.75654">
        <ele>2732.7</ele>
        <time>2020-02-13T23:56:49.476Z</time>
      </trkpt>
      <trkpt lat="42.49072" lon="1.75651">
        <ele>2733.3</ele>
        <time>2020-02-13T23:56:50.461Z</time>
      </trkpt>
      <trkpt lat="42.49073" lon="1.75645">
        <ele>2730.9</ele>
        <time>2020-02-13T23:56:53.119Z</time>
      </trkpt>
      <trkpt lat="42.49079" lon="1.7564">
        <ele>2729.3</ele>
        <time>2020-02-13T23:56:56.560Z</time>
      </trkpt>
      <trkpt lat="42.49083" lon="1.75638">
        <ele>2728.9</ele>
        <time>2020-02-13T23:56:58.547Z</time>
      </trkpt>
      <trkpt lat="42.49091" lon="1.75631">
        <ele>2726.9</ele>
        <time>2020-02-13T23:57:03.447Z</time>
      </trkpt>
      <trkpt lat="42.49092" lon="1.75626">
        <ele>2725.5</ele>
        <time>2020-02-13T23:57:05.105Z</time>
      </trkpt>
      <trkpt lat="42.49088" lon="1.75624">
        <ele>2724.5</ele>
        <time>2020-02-13T23:57:07.196Z</time>
      </trkpt>
      <trkpt lat="42.49086" lon="1.75623">
        <ele>2723.6</ele>
        <time>2020-02-13T23:57:08.363Z</time>
      </trkpt>
      <trkpt lat="42.49082" lon="1.75622">
        <ele>2721.7</ele>
        <time>2020-02-13T23:57:10.743Z</time>
      </trkpt>
      <trkpt lat="42.4908" lon="1.7562">
        <ele>2720.2</ele>
        <time>2020-02-13T23:57:12.097Z</time>
      </trkpt>
      <trkpt lat="42.49072" lon="1.75615">
        <ele>2716.9</ele>
        <time>2020-02-13T23:57:16.373Z</time>
      </trkpt>
      <trkpt lat="42.49071" lon="1.75615">
        <ele>2716.8</ele>
        <time>2020-02-13T23:57:16.963Z</time>
      </trkpt>
      <trkpt lat="42.4907" lon="1.75605">
        <ele>2713.6</ele>
        <time>2020-02-13T23:57:20.675Z</time>
      </trkpt>
      <trkpt lat="42.49072" lon="1.75597">
        <ele>2710.7</ele>
        <time>2020-02-13T23:57:24.346Z</time>
      </trkpt>
      <trkpt lat="42.49073" lon="1.75593">
        <ele>2709.2</ele>
        <time>2020-02-13T23:57:25.766Z</time>
      </trkpt>
      <trkpt lat="42.49074" lon="1.75592">
        <ele>2708.3</ele>
        <time>2020-02-13T23:57:26.617Z</time>
      </trkpt>
      <trkpt lat="42.49075" lon="1.75584">
        <ele>2705.4</ele>
        <time>2020-02-13T23:57:29.550Z</time>
      </trkpt>
      <trkpt lat="42.49075" lon="1.75582">
        <ele>2704.3</ele>
        <time>2020-02-13T23:57:30.413Z</time>
      </trkpt>
      <trkpt lat="42.49076" lon="1.75575">
        <ele>2701.9</ele>
        <time>2020-02-13T23:57:33.266Z</time>
      </trkpt>
      <trkpt lat="42.4908" lon="1.75565">
        <ele>2699.6</ele>
        <time>2020-02-13T23:57:37.524Z</time>
      </trkpt>
      <trkpt lat="42.49079" lon="1.75557">
        <ele>2696.7</ele>
        <time>2020-02-13T23:57:40.566Z</time>
      </trkpt>
      <trkpt lat="42.49077" lon="1.75553">
        <ele>2694.8</ele>
        <time>2020-02-13T23:57:42.683Z</time>
      </trkpt>
      <trkpt lat="42.49078" lon="1.75545">
        <ele>2692.3</ele>
        <time>2020-02-13T23:57:45.837Z</time>
      </trkpt>
      <trkpt lat="42.49079" lon="1.75542">
        <ele>2691.5</ele>
        <time>2020-02-13T23:57:46.903Z</time>
      </trkpt>
      <trkpt lat="42.49081" lon="1.75533">
        <ele>2687.6</ele>
        <time>2020-02-13T23:57:50.892Z</time>
      </trkpt>
      <trkpt lat="42.49081" lon="1.75532">
        <ele>2687.6</ele>
        <time>2020-02-13T23:57:51.211Z</time>
      </trkpt>
      <trkpt lat="42.49082" lon="1.75526">
        <ele>2685.7</ele>
        <time>2020-02-13T23:57:53.428Z</time>
      </trkpt>
      <trkpt lat="42.49085" lon="1.75515">
        <ele>2683.2</ele>
        <time>2020-02-13T23:57:57.694Z</time>
      </trkpt>
      <trkpt lat="42.49088" lon="1.75509">
        <ele>2681.7</ele>
        <time>2020-02-13T23:58:00.408Z</time>
      </trkpt>
      <trkpt lat="42.49088" lon="1.75506">
        <ele>2681.3</ele>
        <time>2020-02-13T23:58:01.654Z</time>
      </trkpt>
      <trkpt lat="42.49088" lon="1.75503">
        <ele>2679.4</ele>
        <time>2020-02-13T23:58:03.085Z</time>
      </trkpt>
      <trkpt lat="42.49089" lon="1.75499">
        <ele>2677.9</ele>
        <time>2020-02-13T23:58:04.803Z</time>
      </trkpt>
      <trkpt lat="42.49095" lon="1.75482">
        <ele>2675.1</ele>
        <time>2020-02-13T23:58:11.450Z</time>
      </trkpt>
      <trkpt lat="42.49102" lon="1.75471">
        <ele>2671.7</ele>
        <time>2020-02-13T23:58:17.019Z</time>
      </trkpt>
      <trkpt lat="42.49105" lon="1.75463">
        <ele>2670.8</ele>
        <time>2020-02-13T23:58:20.120Z</time>
      </trkpt>
      <trkpt lat="42.49108" lon="1.75456">
        <ele>2668.9</ele>
        <time>2020-02-13T23:58:23.312Z</time>
      </trkpt>
      <trkpt lat="42.49109" lon="1.75448">
        <ele>2667.3</ele>
        <time>2020-02-13T23:58:26.184Z</time>
      </trkpt>
      <trkpt lat="42.4911" lon="1.75442">
        <ele>2665.4</ele>
        <time>2020-02-13T23:58:28.656Z</time>
      </trkpt>
      <trkpt lat="42.49123" lon="1.75427">
        <ele>2663.1</ele>
        <time>2020-02-13T23:58:36.962Z</time>
      </trkpt>
      <trkpt lat="42.49125" lon="1.75421">
        <ele>2661.1</ele>
        <time>2020-02-13T23:58:39.366Z</time>
      </trkpt>
      <trkpt lat="42.49127" lon="1.75418">
        <ele>2660.6</ele>
        <time>2020-02-13T23:58:40.691Z</time>
      </trkpt>
      <trkpt lat="42.49127" lon="1.7541">
        <ele>2660.2</ele>
        <time>2020-02-13T23:58:43.753Z</time>
      </trkpt>
      <trkpt lat="42.49125" lon="1.75391">
        <ele>2657.3</ele>
        <time>2020-02-13T23:58:50.662Z</time>
      </trkpt>
      <trkpt lat="42.49124" lon="1.75387">
        <ele>2655.3</ele>
        <time>2020-02-13T23:58:52.463Z</time>
      </trkpt>
      <trkpt lat="42.49126" lon="1.75365">
        <ele>2651.9</ele>
        <time>2020-02-13T23:59:00.545Z</time>
      </trkpt>
      <trkpt lat="42.49125" lon="1.75346">
        <ele>2650.6</ele>
        <time>2020-02-13T23:59:07.519Z</time>
      </trkpt>
      <trkpt lat="42.49125" lon="1.75328">
        <ele>2646.8</ele>
        <time>2020-02-13T23:59:14.268Z</time>
      </trkpt>
      <trkpt lat="42.49139" lon="1.753">
        <ele>2644.8</ele>
        <time>2020-02-13T23:59:26.345Z</time>
      </trkpt>
      <trkpt lat="42.4914" lon="1.753">
        <ele>2647.2</ele>
        <time>2020-02-13T23:59:27.554Z</time>
      </trkpt>
      <trkpt lat="42.4914" lon="1.75299">
        <ele>2644.7</ele>
        <time>2020-02-13T23:59:28.636Z</time>
      </trkpt>
      <trkpt lat="42.4914" lon="1.75299">
        <ele>2648.6</ele>
        <time>2020-02-13T23:59:30.342Z</time>
      </trkpt>
      <trkpt lat="42.4914" lon="1.75299">
        <ele>2646.2</ele>
        <time>2020-02-13T23:59:31.405Z</time>
      </trkpt>
      <trkpt lat="42.49141" lon="1.753">
        <ele>2644.7</ele>
        <time>2020-02-13T23:59:32.157Z</time>
      </trkpt>
      <trkpt lat="42.49139" lon="1.75298">
        <ele>2647.7</ele>
        <time>2020-02-13T23:59:33.796Z</time>
      </trkpt>
      <trkpt lat="42.49139" lon="1.75297">
        <ele>2645.2</ele>
        <time>2020-02-13T23:59:34.943Z</time>
      </trkpt>
      <trkpt lat="42.49165" lon="1.7526">
        <ele>2701.5</ele>
        <time>2020-02-14T00:00:05.646Z</time>
      </trkpt>
      <trkpt lat="42.49163" lon="1.75266">
        <ele>2703.3</ele>
        <time>2020-02-14T00:00:08.083Z</time>
      </trkpt>
      <trkpt lat="42.49161" lon="1.75272">
        <ele>2705.3</ele>
        <time>2020-02-14T00:00:10.568Z</time>
      </trkpt>
      <trkpt lat="42.49157" lon="1.75275">
        <ele>2705.4</ele>
        <time>2020-02-14T00:00:12.854Z</time>
      </trkpt>
      <trkpt lat="42.49152" lon="1.75279">
        <ele>2705.1</ele>
        <time>2020-02-14T00:00:15.572Z</time>
      </trkpt>
      <trkpt lat="42.49147" lon="1.75284">
        <ele>2705.3</ele>
        <time>2020-02-14T00:00:18.682Z</time>
      </trkpt>
      <trkpt lat="42.49143" lon="1.7529">
        <ele>2706</ele>
        <time>2020-02-14T00:00:21.375Z</time>
      </trkpt>
      <trkpt lat="42.49141" lon="1.75297">
        <ele>2706.7</ele>
        <time>2020-02-14T00:00:24.204Z</time>
      </trkpt>
      <trkpt lat="42.4914" lon="1.75304">
        <ele>2706.9</ele>
        <time>2020-02-14T00:00:26.701Z</time>
      </trkpt>
      <trkpt lat="42.49144" lon="1.75308">
        <ele>2706.7</ele>
        <time>2020-02-14T00:00:29.329Z</time>
      </trkpt>
      <trkpt lat="42.49148" lon="1.75312">
        <ele>2707.3</ele>
        <time>2020-02-14T00:00:31.730Z</time>
      </trkpt>
      <trkpt lat="42.4915" lon="1.75319">
        <ele>2707.4</ele>
        <time>2020-02-14T00:00:34.416Z</time>
      </trkpt>
      <trkpt lat="42.49155" lon="1.7532">
        <ele>2705.5</ele>
        <time>2020-02-14T00:00:37.094Z</time>
      </trkpt>
      <trkpt lat="42.4916" lon="1.75323">
        <ele>2704</ele>
        <time>2020-02-14T00:00:39.697Z</time>
      </trkpt>
      <trkpt lat="42.49164" lon="1.75319">
        <ele>2702.3</ele>
        <time>2020-02-14T00:00:42.313Z</time>
      </trkpt>
      <trkpt lat="42.49167" lon="1.75315">
        <ele>2698.7</ele>
        <time>2020-02-14T00:00:45.040Z</time>
      </trkpt>
      <trkpt lat="42.49169" lon="1.75321">
        <ele>2697.4</ele>
        <time>2020-02-14T00:00:47.301Z</time>
      </trkpt>
      <trkpt lat="42.49174" lon="1.7532">
        <ele>2696</ele>
        <time>2020-02-14T00:00:49.747Z</time>
      </trkpt>
      <trkpt lat="42.49178" lon="1.75318">
        <ele>2693.6</ele>
        <time>2020-02-14T00:00:52.241Z</time>
      </trkpt>
      <trkpt lat="42.49183" lon="1.75319">
        <ele>2690.7</ele>
        <time>2020-02-14T00:00:54.813Z</time>
      </trkpt>
      <trkpt lat="42.49185" lon="1.75314">
        <ele>2686.8</ele>
        <time>2020-02-14T00:00:57.651Z</time>
      </trkpt>
      <trkpt lat="42.49189" lon="1.75318">
        <ele>2684.4</ele>
        <time>2020-02-14T00:01:00.127Z</time>
      </trkpt>
      <trkpt lat="42.49193" lon="1.75323">
        <ele>2682.5</ele>
        <time>2020-02-14T00:01:03.036Z</time>
      </trkpt>
      <trkpt lat="42.49198" lon="1.75321">
        <ele>2678.4</ele>
        <time>2020-02-14T00:01:05.920Z</time>
      </trkpt>
      <trkpt lat="42.49201" lon="1.75326">
        <ele>2677.2</ele>
        <time>2020-02-14T00:01:08.324Z</time>
      </trkpt>
      <trkpt lat="42.49206" lon="1.7533">
        <ele>2674.2</ele>
        <time>2020-02-14T00:01:11.356Z</time>
      </trkpt>
      <trkpt lat="42.4921" lon="1.75326">
        <ele>2672.8</ele>
        <time>2020-02-14T00:01:13.913Z</time>
      </trkpt>
      <trkpt lat="42.49211" lon="1.7532">
        <ele>2667.5</ele>
        <time>2020-02-14T00:01:17.136Z</time>
      </trkpt>
      <trkpt lat="42.49216" lon="1.75326">
        <ele>2666.1</ele>
        <time>2020-02-14T00:01:20.283Z</time>
      </trkpt>
      <trkpt lat="42.4922" lon="1.75329">
        <ele>2664.4</ele>
        <time>2020-02-14T00:01:22.749Z</time>
      </trkpt>
      <trkpt lat="42.49225" lon="1.75332">
        <ele>2663.8</ele>
        <time>2020-02-14T00:01:25.108Z</time>
      </trkpt>
      <trkpt lat="42.49227" lon="1.75326">
        <ele>2663.3</ele>
        <time>2020-02-14T00:01:27.412Z</time>
      </trkpt>
      <trkpt lat="42.4923" lon="1.75331">
        <ele>2657</ele>
        <time>2020-02-14T00:01:30.984Z</time>
      </trkpt>
      <trkpt lat="42.49235" lon="1.75331">
        <ele>2653.6</ele>
        <time>2020-02-14T00:01:33.803Z</time>
      </trkpt>
      <trkpt lat="42.4924" lon="1.75334">
        <ele>2649.5</ele>
        <time>2020-02-14T00:01:36.773Z</time>
      </trkpt>
      <trkpt lat="42.49235" lon="1.75336">
        <ele>2646.3</ele>
        <time>2020-02-14T00:01:39.419Z</time>
      </trkpt>
      <trkpt lat="42.49238" lon="1.75328">
        <ele>2643.8</ele>
        <time>2020-02-14T00:01:42.799Z</time>
      </trkpt>
      <trkpt lat="42.4924" lon="1.75322">
        <ele>2643.1</ele>
        <time>2020-02-14T00:01:45.028Z</time>
      </trkpt>
      <trkpt lat="42.49238" lon="1.75329">
        <ele>2641.8</ele>
        <time>2020-02-14T00:01:47.481Z</time>
      </trkpt>
      <trkpt lat="42.49241" lon="1.75335">
        <ele>2641.7</ele>
        <time>2020-02-14T00:01:50.041Z</time>
      </trkpt>
      <trkpt lat="42.49245" lon="1.75332">
        <ele>2640.1</ele>
        <time>2020-02-14T00:01:52.588Z</time>
      </trkpt>
      <trkpt lat="42.49249" lon="1.75328">
        <ele>2638</ele>
        <time>2020-02-14T00:01:55.004Z</time>
      </trkpt>
      <trkpt lat="42.49253" lon="1.75327">
        <ele>2636</ele>
        <time>2020-02-14T00:01:57.358Z</time>
      </trkpt>
      <trkpt lat="42.49258" lon="1.75328">
        <ele>2630.4</ele>
        <time>2020-02-14T00:02:00.674Z</time>
      </trkpt>
      <trkpt lat="42.49262" lon="1.75326">
        <ele>2627.9</ele>
        <time>2020-02-14T00:02:03.234Z</time>
      </trkpt>
      <trkpt lat="42.49267" lon="1.75327">
        <ele>2625.3</ele>
        <time>2020-02-14T00:02:05.886Z</time>
      </trkpt>
      <trkpt lat="42.49271" lon="1.7533">
        <ele>2623.4</ele>
        <time>2020-02-14T00:02:08.241Z</time>
      </trkpt>
      <trkpt lat="42.49274" lon="1.75335">
        <ele>2619.6</ele>
        <time>2020-02-14T00:02:11.036Z</time>
      </trkpt>
      <trkpt lat="42.49276" lon="1.75341">
        <ele>2618.6</ele>
        <time>2020-02-14T00:02:13.391Z</time>
      </trkpt>
      <trkpt lat="42.49281" lon="1.75341">
        <ele>2617.1</ele>
        <time>2020-02-14T00:02:15.718Z</time>
      </trkpt>
      <trkpt lat="42.49285" lon="1.75344">
        <ele>2614.8</ele>
        <time>2020-02-14T00:02:18.229Z</time>
      </trkpt>
      <trkpt lat="42.4929" lon="1.75344">
        <ele>2611.7</ele>
        <time>2020-02-14T00:02:20.913Z</time>
      </trkpt>
      <trkpt lat="42.49284" lon="1.75346">
        <ele>2611</ele>
        <time>2020-02-14T00:02:23.688Z</time>
      </trkpt>
      <trkpt lat="42.49285" lon="1.7534">
        <ele>2607.2</ele>
        <time>2020-02-14T00:02:26.520Z</time>
      </trkpt>
      <trkpt lat="42.49287" lon="1.75334">
        <ele>2605.7</ele>
        <time>2020-02-14T00:02:28.851Z</time>
      </trkpt>
      <trkpt lat="42.49291" lon="1.75331">
        <ele>2604</ele>
        <time>2020-02-14T00:02:31.264Z</time>
      </trkpt>
      <trkpt lat="42.49295" lon="1.75333">
        <ele>2601.4</ele>
        <time>2020-02-14T00:02:33.836Z</time>
      </trkpt>
      <trkpt lat="42.493" lon="1.7533">
        <ele>2598.7</ele>
        <time>2020-02-14T00:02:36.444Z</time>
      </trkpt>
      <trkpt lat="42.49304" lon="1.75327">
        <ele>2596.8</ele>
        <time>2020-02-14T00:02:38.837Z</time>
      </trkpt>
      <trkpt lat="42.49308" lon="1.75326">
        <ele>2595.5</ele>
        <time>2020-02-14T00:02:41.171Z</time>
      </trkpt>
      <trkpt lat="42.49313" lon="1.75328">
        <ele>2594</ele>
        <time>2020-02-14T00:02:43.742Z</time>
      </trkpt>
      <trkpt lat="42.49318" lon="1.7533">
        <ele>2592.3</ele>
        <time>2020-02-14T00:02:46.244Z</time>
      </trkpt>
      <trkpt lat="42.49322" lon="1.75333">
        <ele>2590.5</ele>
        <time>2020-02-14T00:02:48.598Z</time>
      </trkpt>
      <trkpt lat="42.49327" lon="1.75333">
        <ele>2588.4</ele>
        <time>2020-02-14T00:02:51.079Z</time>
      </trkpt>
      <trkpt lat="42.49332" lon="1.75335">
        <ele>2587.2</ele>
        <time>2020-02-14T00:02:53.593Z</time>
      </trkpt>
      <trkpt lat="42.49336" lon="1.75336">
        <ele>2585.1</ele>
        <time>2020-02-14T00:02:55.998Z</time>
      </trkpt>
      <trkpt lat="42.49341" lon="1.75335">
        <ele>2581.5</ele>
        <time>2020-02-14T00:02:58.769Z</time>
      </trkpt>
      <trkpt lat="42.49346" lon="1.75334">
        <ele>2571.6</ele>
        <time>2020-02-14T00:03:03.815Z</time>
      </trkpt>
      <trkpt lat="42.4935" lon="1.75337">
        <ele>2569.2</ele>
        <time>2020-02-14T00:03:06.315Z</time>
      </trkpt>
      <trkpt lat="42.49354" lon="1.7534">
        <ele>2568.6</ele>
        <time>2020-02-14T00:03:08.589Z</time>
      </trkpt>
      <trkpt lat="42.49358" lon="1.75337">
        <ele>2568.5</ele>
        <time>2020-02-14T00:03:10.832Z</time>
      </trkpt>
      <trkpt lat="42.49363" lon="1.75335">
        <ele>2566.2</ele>
        <time>2020-02-14T00:03:13.391Z</time>
      </trkpt>
      <trkpt lat="42.49367" lon="1.75336">
        <ele>2565.2</ele>
        <time>2020-02-14T00:03:15.667Z</time>
      </trkpt>
      <trkpt lat="42.49372" lon="1.75334">
        <ele>2564</ele>
        <time>2020-02-14T00:03:18.101Z</time>
      </trkpt>
      <trkpt lat="42.49375" lon="1.75328">
        <ele>2562.6</ele>
        <time>2020-02-14T00:03:20.834Z</time>
      </trkpt>
      <trkpt lat="42.49379" lon="1.75323">
        <ele>2561.8</ele>
        <time>2020-02-14T00:03:23.583Z</time>
      </trkpt>
      <trkpt lat="42.49383" lon="1.75318">
        <ele>2560.7</ele>
        <time>2020-02-14T00:03:26.176Z</time>
      </trkpt>
      <trkpt lat="42.49379" lon="1.75322">
        <ele>2556.7</ele>
        <time>2020-02-14T00:03:29.055Z</time>
      </trkpt>
      <trkpt lat="42.49384" lon="1.7532">
        <ele>2555.5</ele>
        <time>2020-02-14T00:03:31.632Z</time>
      </trkpt>
      <trkpt lat="42.49389" lon="1.75323">
        <ele>2550.9</ele>
        <time>2020-02-14T00:03:34.810Z</time>
      </trkpt>
      <trkpt lat="42.49384" lon="1.7532">
        <ele>2551.1</ele>
        <time>2020-02-14T00:03:37.409Z</time>
      </trkpt>
      <trkpt lat="42.49378" lon="1.75319">
        <ele>2551.1</ele>
        <time>2020-02-14T00:03:40.530Z</time>
      </trkpt>
      <trkpt lat="42.49382" lon="1.75321">
        <ele>2549.8</ele>
        <time>2020-02-14T00:03:42.855Z</time>
      </trkpt>
      <trkpt lat="42.49387" lon="1.75321">
        <ele>2551.2</ele>
        <time>2020-02-14T00:03:45.384Z</time>
      </trkpt>
      <trkpt lat="42.49392" lon="1.75319">
        <ele>2551.5</ele>
        <time>2020-02-14T00:03:48.005Z</time>
      </trkpt>
      <trkpt lat="42.49396" lon="1.75324">
        <ele>2551.2</ele>
        <time>2020-02-14T00:03:50.443Z</time>
      </trkpt>
      <trkpt lat="42.49401" lon="1.75325">
        <ele>2551.1</ele>
        <time>2020-02-14T00:03:52.685Z</time>
      </trkpt>
      <trkpt lat="42.49407" lon="1.7533">
        <ele>2550.8</ele>
        <time>2020-02-14T00:03:56.349Z</time>
      </trkpt>
      <trkpt lat="42.49414" lon="1.75333">
        <ele>2550.3</ele>
        <time>2020-02-14T00:03:59.964Z</time>
      </trkpt>
      <trkpt lat="42.4942" lon="1.75339">
        <ele>2549.7</ele>
        <time>2020-02-14T00:04:03.668Z</time>
      </trkpt>
      <trkpt lat="42.49427" lon="1.7534">
        <ele>2548.9</ele>
        <time>2020-02-14T00:04:07.044Z</time>
      </trkpt>
      <trkpt lat="42.49431" lon="1.75344">
        <ele>2548.5</ele>
        <time>2020-02-14T00:04:09.482Z</time>
      </trkpt>
      <trkpt lat="42.49436" lon="1.75348">
        <ele>2548.2</ele>
        <time>2020-02-14T00:04:12.047Z</time>
      </trkpt>
      <trkpt lat="42.4944" lon="1.75353">
        <ele>2547.8</ele>
        <time>2020-02-14T00:04:14.581Z</time>
      </trkpt>
      <trkpt lat="42.49445" lon="1.75354">
        <ele>2547</ele>
        <time>2020-02-14T00:04:17.181Z</time>
      </trkpt>
      <trkpt lat="42.4945" lon="1.75351">
        <ele>2546.6</ele>
        <time>2020-02-14T00:04:19.973Z</time>
      </trkpt>
      <trkpt lat="42.49455" lon="1.75349">
        <ele>2545.4</ele>
        <time>2020-02-14T00:04:22.342Z</time>
      </trkpt>
      <trkpt lat="42.4946" lon="1.75348">
        <ele>2544.7</ele>
        <time>2020-02-14T00:04:24.915Z</time>
      </trkpt>
      <trkpt lat="42.49464" lon="1.7535">
        <ele>2544.1</ele>
        <time>2020-02-14T00:04:27.240Z</time>
      </trkpt>
      <trkpt lat="42.49469" lon="1.75353">
        <ele>2543</ele>
        <time>2020-02-14T00:04:29.743Z</time>
      </trkpt>
      <trkpt lat="42.49473" lon="1.75357">
        <ele>2541.5</ele>
        <time>2020-02-14T00:04:32.489Z</time>
      </trkpt>
      <trkpt lat="42.4948" lon="1.75363">
        <ele>2540.4</ele>
        <time>2020-02-14T00:04:36.301Z</time>
      </trkpt>
      <trkpt lat="42.49486" lon="1.75362">
        <ele>2539.4</ele>
        <time>2020-02-14T00:04:39.278Z</time>
      </trkpt>
      <trkpt lat="42.4949" lon="1.75363">
        <ele>2538.5</ele>
        <time>2020-02-14T00:04:41.490Z</time>
      </trkpt>
      <trkpt lat="42.49495" lon="1.75364">
        <ele>2537.3</ele>
        <time>2020-02-14T00:04:43.886Z</time>
      </trkpt>
      <trkpt lat="42.495" lon="1.75365">
        <ele>2536</ele>
        <time>2020-02-14T00:04:46.390Z</time>
      </trkpt>
      <trkpt lat="42.49505" lon="1.75364">
        <ele>2534</ele>
        <time>2020-02-14T00:04:48.947Z</time>
      </trkpt>
      <trkpt lat="42.49508" lon="1.75368">
        <ele>2532.4</ele>
        <time>2020-02-14T00:04:51.346Z</time>
      </trkpt>
      <trkpt lat="42.49513" lon="1.75369">
        <ele>2521.7</ele>
        <time>2020-02-14T00:04:56.656Z</time>
      </trkpt>
      <trkpt lat="42.49516" lon="1.75363">
        <ele>2521.1</ele>
        <time>2020-02-14T00:04:59.012Z</time>
      </trkpt>
      <trkpt lat="42.49512" lon="1.75367">
        <ele>2519.3</ele>
        <time>2020-02-14T00:05:01.568Z</time>
      </trkpt>
      <trkpt lat="42.49516" lon="1.75371">
        <ele>2519</ele>
        <time>2020-02-14T00:05:04.240Z</time>
      </trkpt>
      <trkpt lat="42.49521" lon="1.75372">
        <ele>2518.9</ele>
        <time>2020-02-14T00:05:06.639Z</time>
      </trkpt>
      <trkpt lat="42.49525" lon="1.75375">
        <ele>2518.9</ele>
        <time>2020-02-14T00:05:09.010Z</time>
      </trkpt>
      <trkpt lat="42.4953" lon="1.75375">
        <ele>2519.3</ele>
        <time>2020-02-14T00:05:11.360Z</time>
      </trkpt>
      <trkpt lat="42.49536" lon="1.75376">
        <ele>2518.7</ele>
        <time>2020-02-14T00:05:14.076Z</time>
      </trkpt>
      <trkpt lat="42.49542" lon="1.75376">
        <ele>2518.4</ele>
        <time>2020-02-14T00:05:17.052Z</time>
      </trkpt>
      <trkpt lat="42.49547" lon="1.75378">
        <ele>2518</ele>
        <time>2020-02-14T00:05:19.513Z</time>
      </trkpt>
      <trkpt lat="42.49552" lon="1.75377">
        <ele>2517</ele>
        <time>2020-02-14T00:05:22.089Z</time>
      </trkpt>
      <trkpt lat="42.49558" lon="1.7538">
        <ele>2516.3</ele>
        <time>2020-02-14T00:05:25.393Z</time>
      </trkpt>
      <trkpt lat="42.49566" lon="1.75383">
        <ele>2515.6</ele>
        <time>2020-02-14T00:05:29.166Z</time>
      </trkpt>
      <trkpt lat="42.49568" lon="1.75389">
        <ele>2514.3</ele>
        <time>2020-02-14T00:05:31.863Z</time>
      </trkpt>
      <trkpt lat="42.49572" lon="1.75386">
        <ele>2512.8</ele>
        <time>2020-02-14T00:05:34.350Z</time>
      </trkpt>
      <trkpt lat="42.49576" lon="1.75383">
        <ele>2511.3</ele>
        <time>2020-02-14T00:05:36.803Z</time>
      </trkpt>
      <trkpt lat="42.49582" lon="1.75385">
        <ele>2510.6</ele>
        <time>2020-02-14T00:05:39.514Z</time>
      </trkpt>
      <trkpt lat="42.49592" lon="1.75389">
        <ele>2509.4</ele>
        <time>2020-02-14T00:05:44.581Z</time>
      </trkpt>
      <trkpt lat="42.496" lon="1.75394">
        <ele>2508.6</ele>
        <time>2020-02-14T00:05:49.053Z</time>
      </trkpt>
      <trkpt lat="42.49606" lon="1.75393">
        <ele>2507.8</ele>
        <time>2020-02-14T00:05:51.867Z</time>
      </trkpt>
      <trkpt lat="42.49611" lon="1.75396">
        <ele>2506.8</ele>
        <time>2020-02-14T00:05:54.579Z</time>
      </trkpt>
      <trkpt lat="42.49619" lon="1.75397">
        <ele>2505.8</ele>
        <time>2020-02-14T00:05:58.363Z</time>
      </trkpt>
      <trkpt lat="42.49626" lon="1.75397">
        <ele>2504.8</ele>
        <time>2020-02-14T00:06:02.006Z</time>
      </trkpt>
      <trkpt lat="42.49633" lon="1.75396">
        <ele>2503.7</ele>
        <time>2020-02-14T00:06:05.263Z</time>
      </trkpt>
      <trkpt lat="42.49641" lon="1.75392">
        <ele>2502.6</ele>
        <time>2020-02-14T00:06:09.611Z</time>
      </trkpt>
      <trkpt lat="42.49648" lon="1.75388">
        <ele>2501.7</ele>
        <time>2020-02-14T00:06:13.611Z</time>
      </trkpt>
      <trkpt lat="42.49653" lon="1.75385">
        <ele>2501</ele>
        <time>2020-02-14T00:06:16.197Z</time>
      </trkpt>
      <trkpt lat="42.49657" lon="1.7538">
        <ele>2500.1</ele>
        <time>2020-02-14T00:06:18.632Z</time>
      </trkpt>
      <trkpt lat="42.49659" lon="1.75385">
        <ele>2498.6</ele>
        <time>2020-02-14T00:06:21.010Z</time>
      </trkpt>
      <trkpt lat="42.49663" lon="1.75388">
        <ele>2497.7</ele>
        <time>2020-02-14T00:06:23.323Z</time>
      </trkpt>
      <trkpt lat="42.4967" lon="1.75391">
        <ele>2497.5</ele>
        <time>2020-02-14T00:06:26.842Z</time>
      </trkpt>
      <trkpt lat="42.49676" lon="1.75389">
        <ele>2496.9</ele>
        <time>2020-02-14T00:06:30.035Z</time>
      </trkpt>
      <trkpt lat="42.49682" lon="1.75388">
        <ele>2496.7</ele>
        <time>2020-02-14T00:06:32.751Z</time>
      </trkpt>
      <trkpt lat="42.49691" lon="1.75386">
        <ele>2496.5</ele>
        <time>2020-02-14T00:06:37.131Z</time>
      </trkpt>
      <trkpt lat="42.49698" lon="1.75381">
        <ele>2496.2</ele>
        <time>2020-02-14T00:06:40.838Z</time>
      </trkpt>
      <trkpt lat="42.49703" lon="1.75375">
        <ele>2495.6</ele>
        <time>2020-02-14T00:06:44.378Z</time>
      </trkpt>
      <trkpt lat="42.49708" lon="1.75373">
        <ele>2495.2</ele>
        <time>2020-02-14T00:06:46.849Z</time>
      </trkpt>
      <trkpt lat="42.49713" lon="1.75374">
        <ele>2494.5</ele>
        <time>2020-02-14T00:06:49.443Z</time>
      </trkpt>
      <trkpt lat="42.49718" lon="1.75373">
        <ele>2493.8</ele>
        <time>2020-02-14T00:06:51.919Z</time>
      </trkpt>
      <trkpt lat="42.49723" lon="1.75373">
        <ele>2493.3</ele>
        <time>2020-02-14T00:06:54.466Z</time>
      </trkpt>
      <trkpt lat="42.49728" lon="1.75371">
        <ele>2492.7</ele>
        <time>2020-02-14T00:06:56.793Z</time>
      </trkpt>
      <trkpt lat="42.49732" lon="1.75374">
        <ele>2491.8</ele>
        <time>2020-02-14T00:06:59.363Z</time>
      </trkpt>
      <trkpt lat="42.49738" lon="1.75373">
        <ele>2490.8</ele>
        <time>2020-02-14T00:07:02.290Z</time>
      </trkpt>
      <trkpt lat="42.49743" lon="1.75369">
        <ele>2490.1</ele>
        <time>2020-02-14T00:07:05.027Z</time>
      </trkpt>
      <trkpt lat="42.49748" lon="1.75371">
        <ele>2488.8</ele>
        <time>2020-02-14T00:07:07.698Z</time>
      </trkpt>
      <trkpt lat="42.49753" lon="1.75369">
        <ele>2488.5</ele>
        <time>2020-02-14T00:07:10.219Z</time>
      </trkpt>
      <trkpt lat="42.49758" lon="1.75372">
        <ele>2488.4</ele>
        <time>2020-02-14T00:07:13.128Z</time>
      </trkpt>
      <trkpt lat="42.49766" lon="1.75374">
        <ele>2488.2</ele>
        <time>2020-02-14T00:07:16.781Z</time>
      </trkpt>
      <trkpt lat="42.49773" lon="1.7537">
        <ele>2487.7</ele>
        <time>2020-02-14T00:07:20.689Z</time>
      </trkpt>
      <trkpt lat="42.49778" lon="1.75371">
        <ele>2486.5</ele>
        <time>2020-02-14T00:07:23.191Z</time>
      </trkpt>
      <trkpt lat="42.49774" lon="1.7537">
        <ele>2485</ele>
        <time>2020-02-14T00:07:25.522Z</time>
      </trkpt>
      <trkpt lat="42.49778" lon="1.75374">
        <ele>2483.9</ele>
        <time>2020-02-14T00:07:28.189Z</time>
      </trkpt>
      <trkpt lat="42.49782" lon="1.75379">
        <ele>2482.6</ele>
        <time>2020-02-14T00:07:31.000Z</time>
      </trkpt>
      <trkpt lat="42.49787" lon="1.7538">
        <ele>2481.8</ele>
        <time>2020-02-14T00:07:33.740Z</time>
      </trkpt>
      <trkpt lat="42.49792" lon="1.75378">
        <ele>2480.6</ele>
        <time>2020-02-14T00:07:36.195Z</time>
      </trkpt>
      <trkpt lat="42.49797" lon="1.75381">
        <ele>2478.8</ele>
        <time>2020-02-14T00:07:38.965Z</time>
      </trkpt>
      <trkpt lat="42.49792" lon="1.75378">
        <ele>2473.8</ele>
        <time>2020-02-14T00:07:42.390Z</time>
      </trkpt>
      <trkpt lat="42.49797" lon="1.75378">
        <ele>2472.8</ele>
        <time>2020-02-14T00:07:44.691Z</time>
      </trkpt>
      <trkpt lat="42.49801" lon="1.75382">
        <ele>2471.1</ele>
        <time>2020-02-14T00:07:47.162Z</time>
      </trkpt>
      <trkpt lat="42.49805" lon="1.75386">
        <ele>2470.4</ele>
        <time>2020-02-14T00:07:49.506Z</time>
      </trkpt>
      <trkpt lat="42.4981" lon="1.75386">
        <ele>2465.8</ele>
        <time>2020-02-14T00:07:52.674Z</time>
      </trkpt>
      <trkpt lat="42.49815" lon="1.75386">
        <ele>2465.6</ele>
        <time>2020-02-14T00:07:55.408Z</time>
      </trkpt>
      <trkpt lat="42.4982" lon="1.75386">
        <ele>2465.4</ele>
        <time>2020-02-14T00:07:57.808Z</time>
      </trkpt>
      <trkpt lat="42.49825" lon="1.75384">
        <ele>2464.7</ele>
        <time>2020-02-14T00:08:00.349Z</time>
      </trkpt>
      <trkpt lat="42.49828" lon="1.7539">
        <ele>2463.7</ele>
        <time>2020-02-14T00:08:03.022Z</time>
      </trkpt>
      <trkpt lat="42.49832" lon="1.75393">
        <ele>2458</ele>
        <time>2020-02-14T00:08:06.359Z</time>
      </trkpt>
      <trkpt lat="42.49838" lon="1.75393">
        <ele>2456.3</ele>
        <time>2020-02-14T00:08:09.014Z</time>
      </trkpt>
      <trkpt lat="42.49842" lon="1.75395">
        <ele>2455.1</ele>
        <time>2020-02-14T00:08:11.354Z</time>
      </trkpt>
      <trkpt lat="42.49849" lon="1.75397">
        <ele>2454.6</ele>
        <time>2020-02-14T00:08:15.012Z</time>
      </trkpt>
      <trkpt lat="42.49853" lon="1.754">
        <ele>2454.3</ele>
        <time>2020-02-14T00:08:17.234Z</time>
      </trkpt>
      <trkpt lat="42.49858" lon="1.75401">
        <ele>2453.2</ele>
        <time>2020-02-14T00:08:19.507Z</time>
      </trkpt>
      <trkpt lat="42.49862" lon="1.75405">
        <ele>2452.5</ele>
        <time>2020-02-14T00:08:22.126Z</time>
      </trkpt>
      <trkpt lat="42.49867" lon="1.75406">
        <ele>2451.7</ele>
        <time>2020-02-14T00:08:24.515Z</time>
      </trkpt>
      <trkpt lat="42.49872" lon="1.75405">
        <ele>2451.3</ele>
        <time>2020-02-14T00:08:26.974Z</time>
      </trkpt>
      <trkpt lat="42.49877" lon="1.75405">
        <ele>2450.9</ele>
        <time>2020-02-14T00:08:29.467Z</time>
      </trkpt>
      <trkpt lat="42.49881" lon="1.75409">
        <ele>2450.2</ele>
        <time>2020-02-14T00:08:31.823Z</time>
      </trkpt>
      <trkpt lat="42.49886" lon="1.75412">
        <ele>2449.3</ele>
        <time>2020-02-14T00:08:34.334Z</time>
      </trkpt>
      <trkpt lat="42.4989" lon="1.75412">
        <ele>2448.3</ele>
        <time>2020-02-14T00:08:36.657Z</time>
      </trkpt>
      <trkpt lat="42.49895" lon="1.75413">
        <ele>2447.1</ele>
        <time>2020-02-14T00:08:39.170Z</time>
      </trkpt>
      <trkpt lat="42.49899" lon="1.75417">
        <ele>2446.4</ele>
        <time>2020-02-14T00:08:41.605Z</time>
      </trkpt>
      <trkpt lat="42.49904" lon="1.7542">
        <ele>2445.5</ele>
        <time>2020-02-14T00:08:44.178Z</time>
      </trkpt>
      <trkpt lat="42.49908" lon="1.75418">
        <ele>2444.7</ele>
        <time>2020-02-14T00:08:46.447Z</time>
      </trkpt>
      <trkpt lat="42.49914" lon="1.75418">
        <ele>2442.8</ele>
        <time>2020-02-14T00:08:49.387Z</time>
      </trkpt>
      <trkpt lat="42.4992" lon="1.75418">
        <ele>2442</ele>
        <time>2020-02-14T00:08:52.145Z</time>
      </trkpt>
      <trkpt lat="42.49925" lon="1.75417">
        <ele>2440.9</ele>
        <time>2020-02-14T00:08:54.838Z</time>
      </trkpt>
      <trkpt lat="42.49928" lon="1.75421">
        <ele>2438.8</ele>
        <time>2020-02-14T00:08:57.178Z</time>
      </trkpt>
      <trkpt lat="42.49933" lon="1.75423">
        <ele>2438.7</ele>
        <time>2020-02-14T00:08:59.785Z</time>
      </trkpt>
      <trkpt lat="42.49938" lon="1.75426">
        <ele>2438.1</ele>
        <time>2020-02-14T00:09:02.135Z</time>
      </trkpt>
      <trkpt lat="42.49942" lon="1.7543">
        <ele>2437.2</ele>
        <time>2020-02-14T00:09:04.794Z</time>
      </trkpt>
      <trkpt lat="42.49947" lon="1.75428">
        <ele>2436</ele>
        <time>2020-02-14T00:09:07.312Z</time>
      </trkpt>
      <trkpt lat="42.49952" lon="1.75426">
        <ele>2434.5</ele>
        <time>2020-02-14T00:09:09.939Z</time>
      </trkpt>
      <trkpt lat="42.49957" lon="1.75425">
        <ele>2433.2</ele>
        <time>2020-02-14T00:09:12.553Z</time>
      </trkpt>
      <trkpt lat="42.49962" lon="1.75425">
        <ele>2431.8</ele>
        <time>2020-02-14T00:09:14.880Z</time>
      </trkpt>
      <trkpt lat="42.49966" lon="1.75429">
        <ele>2430.7</ele>
        <time>2020-02-14T00:09:17.457Z</time>
      </trkpt>
      <trkpt lat="42.49971" lon="1.75437">
        <ele>2429.6</ele>
        <time>2020-02-14T00:09:21.209Z</time>
      </trkpt>
      <trkpt lat="42.49977" lon="1.75439">
        <ele>2428.1</ele>
        <time>2020-02-14T00:09:24.153Z</time>
      </trkpt>
      <trkpt lat="42.49981" lon="1.75442">
        <ele>2427.1</ele>
        <time>2020-02-14T00:09:26.409Z</time>
      </trkpt>
      <trkpt lat="42.49984" lon="1.75447">
        <ele>2425.7</ele>
        <time>2020-02-14T00:09:28.797Z</time>
      </trkpt>
      <trkpt lat="42.49984" lon="1.75454">
        <ele>2425.3</ele>
        <time>2020-02-14T00:09:31.293Z</time>
      </trkpt>
      <trkpt lat="42.49984" lon="1.75461">
        <ele>2424.1</ele>
        <time>2020-02-14T00:09:34.035Z</time>
      </trkpt>
      <trkpt lat="42.49989" lon="1.75461">
        <ele>2423.9</ele>
        <time>2020-02-14T00:09:36.375Z</time>
      </trkpt>
      <trkpt lat="42.49993" lon="1.75463">
        <ele>2421.6</ele>
        <time>2020-02-14T00:09:38.826Z</time>
      </trkpt>
      <trkpt lat="42.49998" lon="1.75465">
        <ele>2420.7</ele>
        <time>2020-02-14T00:09:41.200Z</time>
      </trkpt>
      <trkpt lat="42.50001" lon="1.7547">
        <ele>2420.2</ele>
        <time>2020-02-14T00:09:43.628Z</time>
      </trkpt>
      <trkpt lat="42.50006" lon="1.7547">
        <ele>2419.1</ele>
        <time>2020-02-14T00:09:46.160Z</time>
      </trkpt>
      <trkpt lat="42.50009" lon="1.75476">
        <ele>2418.4</ele>
        <time>2020-02-14T00:09:48.903Z</time>
      </trkpt>
      <trkpt lat="42.50014" lon="1.75479">
        <ele>2417.9</ele>
        <time>2020-02-14T00:09:51.374Z</time>
      </trkpt>
      <trkpt lat="42.50016" lon="1.75485">
        <ele>2415.1</ele>
        <time>2020-02-14T00:09:54.117Z</time>
      </trkpt>
      <trkpt lat="42.50024" lon="1.75483">
        <ele>2414.1</ele>
        <time>2020-02-14T00:09:58.076Z</time>
      </trkpt>
      <trkpt lat="42.50028" lon="1.75486">
        <ele>2413.6</ele>
        <time>2020-02-14T00:10:00.314Z</time>
      </trkpt>
      <trkpt lat="42.50031" lon="1.75493">
        <ele>2413.5</ele>
        <time>2020-02-14T00:10:03.185Z</time>
      </trkpt>
      <trkpt lat="42.50035" lon="1.75499">
        <ele>2413.4</ele>
        <time>2020-02-14T00:10:06.334Z</time>
      </trkpt>
      <trkpt lat="42.50038" lon="1.75505">
        <ele>2413.5</ele>
        <time>2020-02-14T00:10:08.862Z</time>
      </trkpt>
      <trkpt lat="42.50036" lon="1.755">
        <ele>2413.3</ele>
        <time>2020-02-14T00:10:11.153Z</time>
      </trkpt>
      <trkpt lat="42.50035" lon="1.75506">
        <ele>2413</ele>
        <time>2020-02-14T00:10:13.549Z</time>
      </trkpt>
      <trkpt lat="42.50037" lon="1.75501">
        <ele>2412.9</ele>
        <time>2020-02-14T00:10:15.744Z</time>
      </trkpt>
      <trkpt lat="42.50032" lon="1.75501">
        <ele>2411.3</ele>
        <time>2020-02-14T00:10:18.285Z</time>
      </trkpt>
      <trkpt lat="42.50034" lon="1.75507">
        <ele>2409.8</ele>
        <time>2020-02-14T00:10:20.654Z</time>
      </trkpt>
      <trkpt lat="42.5003" lon="1.7551">
        <ele>2409.9</ele>
        <time>2020-02-14T00:10:22.994Z</time>
      </trkpt>
      <trkpt lat="42.50032" lon="1.75504">
        <ele>2410.5</ele>
        <time>2020-02-14T00:10:25.419Z</time>
      </trkpt>
      <trkpt lat="42.50035" lon="1.75509">
        <ele>2410</ele>
        <time>2020-02-14T00:10:27.716Z</time>
      </trkpt>
      <trkpt lat="42.50037" lon="1.75514">
        <ele>2409.6</ele>
        <time>2020-02-14T00:10:29.916Z</time>
      </trkpt>
      <trkpt lat="42.5004" lon="1.75521">
        <ele>2409.4</ele>
        <time>2020-02-14T00:10:32.902Z</time>
      </trkpt>
      <trkpt lat="42.50042" lon="1.75527">
        <ele>2409.3</ele>
        <time>2020-02-14T00:10:35.150Z</time>
      </trkpt>
      <trkpt lat="42.50044" lon="1.75533">
        <ele>2408.9</ele>
        <time>2020-02-14T00:10:37.485Z</time>
      </trkpt>
      <trkpt lat="42.50047" lon="1.75538">
        <ele>2408.8</ele>
        <time>2020-02-14T00:10:39.891Z</time>
      </trkpt>
      <trkpt lat="42.50052" lon="1.7554">
        <ele>2408.8</ele>
        <time>2020-02-14T00:10:42.324Z</time>
      </trkpt>
      <trkpt lat="42.50059" lon="1.75541">
        <ele>2408.8</ele>
        <time>2020-02-14T00:10:45.647Z</time>
      </trkpt>
      <trkpt lat="42.50065" lon="1.7554">
        <ele>2409</ele>
        <time>2020-02-14T00:10:48.384Z</time>
      </trkpt>
      <trkpt lat="42.5007" lon="1.75545">
        <ele>2408.7</ele>
        <time>2020-02-14T00:10:51.330Z</time>
      </trkpt>
      <trkpt lat="42.50076" lon="1.75548">
        <ele>2408.4</ele>
        <time>2020-02-14T00:10:54.549Z</time>
      </trkpt>
      <trkpt lat="42.50081" lon="1.75547">
        <ele>2407.7</ele>
        <time>2020-02-14T00:10:57.178Z</time>
      </trkpt>
      <trkpt lat="42.50086" lon="1.75546">
        <ele>2406.9</ele>
        <time>2020-02-14T00:10:59.706Z</time>
      </trkpt>
      <trkpt lat="42.5009" lon="1.75544">
        <ele>2405.8</ele>
        <time>2020-02-14T00:11:02.028Z</time>
      </trkpt>
      <trkpt lat="42.50095" lon="1.75543">
        <ele>2404.9</ele>
        <time>2020-02-14T00:11:04.281Z</time>
      </trkpt>
      <trkpt lat="42.501" lon="1.75542">
        <ele>2403.7</ele>
        <time>2020-02-14T00:11:06.874Z</time>
      </trkpt>
      <trkpt lat="42.50104" lon="1.75539">
        <ele>2402.6</ele>
        <time>2020-02-14T00:11:09.311Z</time>
      </trkpt>
      <trkpt lat="42.50111" lon="1.75535">
        <ele>2401.5</ele>
        <time>2020-02-14T00:11:13.080Z</time>
      </trkpt>
      <trkpt lat="42.50116" lon="1.75531">
        <ele>2400.8</ele>
        <time>2020-02-14T00:11:15.612Z</time>
      </trkpt>
      <trkpt lat="42.5012" lon="1.7553">
        <ele>2399.9</ele>
        <time>2020-02-14T00:11:17.836Z</time>
      </trkpt>
      <trkpt lat="42.50125" lon="1.75529">
        <ele>2399</ele>
        <time>2020-02-14T00:11:20.534Z</time>
      </trkpt>
      <trkpt lat="42.5013" lon="1.75528">
        <ele>2395.6</ele>
        <time>2020-02-14T00:11:23.155Z</time>
      </trkpt>
      <trkpt lat="42.50134" lon="1.75527">
        <ele>2395.1</ele>
        <time>2020-02-14T00:11:25.418Z</time>
      </trkpt>
      <trkpt lat="42.5014" lon="1.75525">
        <ele>2394.3</ele>
        <time>2020-02-14T00:11:28.060Z</time>
      </trkpt>
      <trkpt lat="42.50145" lon="1.75529">
        <ele>2393.9</ele>
        <time>2020-02-14T00:11:31.107Z</time>
      </trkpt>
      <trkpt lat="42.50148" lon="1.75523">
        <ele>2393.3</ele>
        <time>2020-02-14T00:11:33.521Z</time>
      </trkpt>
      <trkpt lat="42.50153" lon="1.75521">
        <ele>2392.1</ele>
        <time>2020-02-14T00:11:36.034Z</time>
      </trkpt>
      <trkpt lat="42.50158" lon="1.75521">
        <ele>2390.7</ele>
        <time>2020-02-14T00:11:38.503Z</time>
      </trkpt>
      <trkpt lat="42.50162" lon="1.75526">
        <ele>2389.8</ele>
        <time>2020-02-14T00:11:40.931Z</time>
      </trkpt>
      <trkpt lat="42.50165" lon="1.7553">
        <ele>2388.7</ele>
        <time>2020-02-14T00:11:43.181Z</time>
      </trkpt>
      <trkpt lat="42.50168" lon="1.75536">
        <ele>2385.9</ele>
        <time>2020-02-14T00:11:46.071Z</time>
      </trkpt>
      <trkpt lat="42.50173" lon="1.75534">
        <ele>2384.6</ele>
        <time>2020-02-14T00:11:48.861Z</time>
      </trkpt>
      <trkpt lat="42.50179" lon="1.75534">
        <ele>2381.9</ele>
        <time>2020-02-14T00:11:51.792Z</time>
      </trkpt>
      <trkpt lat="42.50183" lon="1.75532">
        <ele>2380.2</ele>
        <time>2020-02-14T00:11:54.080Z</time>
      </trkpt>
      <trkpt lat="42.50185" lon="1.75538">
        <ele>2378.4</ele>
        <time>2020-02-14T00:11:56.687Z</time>
      </trkpt>
      <trkpt lat="42.50189" lon="1.75536">
        <ele>2376.9</ele>
        <time>2020-02-14T00:11:59.068Z</time>
      </trkpt>
      <trkpt lat="42.5019" lon="1.75529">
        <ele>2373.4</ele>
        <time>2020-02-14T00:12:01.903Z</time>
      </trkpt>
      <trkpt lat="42.50194" lon="1.75535">
        <ele>2370.2</ele>
        <time>2020-02-14T00:12:05.012Z</time>
      </trkpt>
      <trkpt lat="42.50197" lon="1.7554">
        <ele>2369</ele>
        <time>2020-02-14T00:12:07.332Z</time>
      </trkpt>
      <trkpt lat="42.50196" lon="1.75546">
        <ele>2361.4</ele>
        <time>2020-02-14T00:12:11.329Z</time>
      </trkpt>
      <trkpt lat="42.502" lon="1.75545">
        <ele>2361.9</ele>
        <time>2020-02-14T00:12:13.556Z</time>
      </trkpt>
      <trkpt lat="42.50203" lon="1.7554">
        <ele>2362.3</ele>
        <time>2020-02-14T00:12:15.905Z</time>
      </trkpt>
      <trkpt lat="42.50208" lon="1.7554">
        <ele>2362.1</ele>
        <time>2020-02-14T00:12:18.405Z</time>
      </trkpt>
      <trkpt lat="42.50212" lon="1.75545">
        <ele>2361.1</ele>
        <time>2020-02-14T00:12:20.944Z</time>
      </trkpt>
      <trkpt lat="42.50215" lon="1.7554">
        <ele>2360.2</ele>
        <time>2020-02-14T00:12:23.263Z</time>
      </trkpt>
      <trkpt lat="42.50213" lon="1.75546">
        <ele>2359.8</ele>
        <time>2020-02-14T00:12:25.499Z</time>
      </trkpt>
      <trkpt lat="42.50218" lon="1.75542">
        <ele>2358</ele>
        <time>2020-02-14T00:12:28.161Z</time>
      </trkpt>
      <trkpt lat="42.50222" lon="1.75539">
        <ele>2356.9</ele>
        <time>2020-02-14T00:12:30.562Z</time>
      </trkpt>
      <trkpt lat="42.50225" lon="1.75534">
        <ele>2355.9</ele>
        <time>2020-02-14T00:12:32.862Z</time>
      </trkpt>
      <trkpt lat="42.50231" lon="1.75533">
        <ele>2355.6</ele>
        <time>2020-02-14T00:12:36.094Z</time>
      </trkpt>
      <trkpt lat="42.50237" lon="1.75533">
        <ele>2354.8</ele>
        <time>2020-02-14T00:12:38.700Z</time>
      </trkpt>
      <trkpt lat="42.50242" lon="1.75534">
        <ele>2353.7</ele>
        <time>2020-02-14T00:12:41.232Z</time>
      </trkpt>
      <trkpt lat="42.50246" lon="1.75533">
        <ele>2352.6</ele>
        <time>2020-02-14T00:12:43.632Z</time>
      </trkpt>
      <trkpt lat="42.50252" lon="1.75536">
        <ele>2351.8</ele>
        <time>2020-02-14T00:12:46.362Z</time>
      </trkpt>
      <trkpt lat="42.50257" lon="1.75536">
        <ele>2350.8</ele>
        <time>2020-02-14T00:12:48.845Z</time>
      </trkpt>
      <trkpt lat="42.5026" lon="1.7554">
        <ele>2349.6</ele>
        <time>2020-02-14T00:12:51.129Z</time>
      </trkpt>
      <trkpt lat="42.50264" lon="1.75546">
        <ele>2348.3</ele>
        <time>2020-02-14T00:12:53.877Z</time>
      </trkpt>
      <trkpt lat="42.50268" lon="1.75549">
        <ele>2346.4</ele>
        <time>2020-02-14T00:12:56.278Z</time>
      </trkpt>
      <trkpt lat="42.50272" lon="1.75553">
        <ele>2344.9</ele>
        <time>2020-02-14T00:12:59.111Z</time>
      </trkpt>
      <trkpt lat="42.50277" lon="1.75557">
        <ele>2343.7</ele>
        <time>2020-02-14T00:13:01.547Z</time>
      </trkpt>
      <trkpt lat="42.5028" lon="1.7556">
        <ele>2342.2</ele>
        <time>2020-02-14T00:13:03.905Z</time>
      </trkpt>
      <trkpt lat="42.50285" lon="1.75563">
        <ele>2341.2</ele>
        <time>2020-02-14T00:13:06.359Z</time>
      </trkpt>
      <trkpt lat="42.5029" lon="1.7557">
        <ele>2340</ele>
        <time>2020-02-14T00:13:09.896Z</time>
      </trkpt>
      <trkpt lat="42.50292" lon="1.75575">
        <ele>2338.7</ele>
        <time>2020-02-14T00:13:12.147Z</time>
      </trkpt>
      <trkpt lat="42.50298" lon="1.75581">
        <ele>2337.5</ele>
        <time>2020-02-14T00:13:15.565Z</time>
      </trkpt>
      <trkpt lat="42.50301" lon="1.75585">
        <ele>2336.2</ele>
        <time>2020-02-14T00:13:17.882Z</time>
      </trkpt>
      <trkpt lat="42.50304" lon="1.75591">
        <ele>2335.2</ele>
        <time>2020-02-14T00:13:20.397Z</time>
      </trkpt>
      <trkpt lat="42.50306" lon="1.75597">
        <ele>2334.1</ele>
        <time>2020-02-14T00:13:22.729Z</time>
      </trkpt>
      <trkpt lat="42.50308" lon="1.75605">
        <ele>2333.1</ele>
        <time>2020-02-14T00:13:25.795Z</time>
      </trkpt>
      <trkpt lat="42.50311" lon="1.7561">
        <ele>2332.2</ele>
        <time>2020-02-14T00:13:28.150Z</time>
      </trkpt>
      <trkpt lat="42.50315" lon="1.75613">
        <ele>2329.6</ele>
        <time>2020-02-14T00:13:30.696Z</time>
      </trkpt>
      <trkpt lat="42.50319" lon="1.75619">
        <ele>2328.5</ele>
        <time>2020-02-14T00:13:33.870Z</time>
      </trkpt>
      <trkpt lat="42.50323" lon="1.75626">
        <ele>2327.4</ele>
        <time>2020-02-14T00:13:36.774Z</time>
      </trkpt>
      <trkpt lat="42.50327" lon="1.75629">
        <ele>2326.4</ele>
        <time>2020-02-14T00:13:39.224Z</time>
      </trkpt>
      <trkpt lat="42.50334" lon="1.75627">
        <ele>2325.9</ele>
        <time>2020-02-14T00:13:42.430Z</time>
      </trkpt>
      <trkpt lat="42.50338" lon="1.75632">
        <ele>2317.3</ele>
        <time>2020-02-14T00:13:46.954Z</time>
      </trkpt>
      <trkpt lat="42.5034" lon="1.75638">
        <ele>2315.5</ele>
        <time>2020-02-14T00:13:49.839Z</time>
      </trkpt>
      <trkpt lat="42.50347" lon="1.75642">
        <ele>2314.1</ele>
        <time>2020-02-14T00:13:53.232Z</time>
      </trkpt>
      <trkpt lat="42.50352" lon="1.75645">
        <ele>2312.8</ele>
        <time>2020-02-14T00:13:55.998Z</time>
      </trkpt>
      <trkpt lat="42.50356" lon="1.75648">
        <ele>2311.5</ele>
        <time>2020-02-14T00:13:58.400Z</time>
      </trkpt>
      <trkpt lat="42.50358" lon="1.75657">
        <ele>2310.7</ele>
        <time>2020-02-14T00:14:01.694Z</time>
      </trkpt>
      <trkpt lat="42.50362" lon="1.75661">
        <ele>2309.7</ele>
        <time>2020-02-14T00:14:04.053Z</time>
      </trkpt>
      <trkpt lat="42.50365" lon="1.75668">
        <ele>2308.9</ele>
        <time>2020-02-14T00:14:07.107Z</time>
      </trkpt>
      <trkpt lat="42.50368" lon="1.75673">
        <ele>2308.5</ele>
        <time>2020-02-14T00:14:09.347Z</time>
      </trkpt>
      <trkpt lat="42.50372" lon="1.75678">
        <ele>2308</ele>
        <time>2020-02-14T00:14:11.966Z</time>
      </trkpt>
      <trkpt lat="42.50377" lon="1.75679">
        <ele>2307.5</ele>
        <time>2020-02-14T00:14:14.247Z</time>
      </trkpt>
      <trkpt lat="42.50379" lon="1.75685">
        <ele>2307</ele>
        <time>2020-02-14T00:14:16.752Z</time>
      </trkpt>
      <trkpt lat="42.50382" lon="1.75691">
        <ele>2306.2</ele>
        <time>2020-02-14T00:14:19.213Z</time>
      </trkpt>
      <trkpt lat="42.50385" lon="1.75695">
        <ele>2305.3</ele>
        <time>2020-02-14T00:14:21.560Z</time>
      </trkpt>
      <trkpt lat="42.5039" lon="1.757">
        <ele>2304.6</ele>
        <time>2020-02-14T00:14:24.648Z</time>
      </trkpt>
      <trkpt lat="42.50395" lon="1.75705">
        <ele>2304.1</ele>
        <time>2020-02-14T00:14:27.808Z</time>
      </trkpt>
      <trkpt lat="42.50399" lon="1.7571">
        <ele>2303.8</ele>
        <time>2020-02-14T00:14:30.250Z</time>
      </trkpt>
      <trkpt lat="42.50399" lon="1.75719">
        <ele>2303.3</ele>
        <time>2020-02-14T00:14:33.208Z</time>
      </trkpt>
      <trkpt lat="42.50399" lon="1.75726">
        <ele>2302.7</ele>
        <time>2020-02-14T00:14:35.816Z</time>
      </trkpt>
      <trkpt lat="42.504" lon="1.75732">
        <ele>2302.3</ele>
        <time>2020-02-14T00:14:38.039Z</time>
      </trkpt>
      <trkpt lat="42.50403" lon="1.75737">
        <ele>2301.3</ele>
        <time>2020-02-14T00:14:40.333Z</time>
      </trkpt>
      <trkpt lat="42.50406" lon="1.75743">
        <ele>2300.6</ele>
        <time>2020-02-14T00:14:43.046Z</time>
      </trkpt>
      <trkpt lat="42.50408" lon="1.75749">
        <ele>2299.5</ele>
        <time>2020-02-14T00:14:45.459Z</time>
      </trkpt>
      <trkpt lat="42.50411" lon="1.75757">
        <ele>2298.8</ele>
        <time>2020-02-14T00:14:48.803Z</time>
      </trkpt>
      <trkpt lat="42.50412" lon="1.75764">
        <ele>2298.3</ele>
        <time>2020-02-14T00:14:51.165Z</time>
      </trkpt>
      <trkpt lat="42.50417" lon="1.75761">
        <ele>2297.8</ele>
        <time>2020-02-14T00:14:53.573Z</time>
      </trkpt>
      <trkpt lat="42.50412" lon="1.75759">
        <ele>2289.4</ele>
        <time>2020-02-14T00:14:57.906Z</time>
      </trkpt>
      <trkpt lat="42.50417" lon="1.7576">
        <ele>2289.7</ele>
        <time>2020-02-14T00:15:00.254Z</time>
      </trkpt>
      <trkpt lat="42.50419" lon="1.75766">
        <ele>2289.1</ele>
        <time>2020-02-14T00:15:02.593Z</time>
      </trkpt>
      <trkpt lat="42.50425" lon="1.75771">
        <ele>2289.1</ele>
        <time>2020-02-14T00:15:06.027Z</time>
      </trkpt>
      <trkpt lat="42.5043" lon="1.75779">
        <ele>2289</ele>
        <time>2020-02-14T00:15:09.963Z</time>
      </trkpt>
      <trkpt lat="42.50435" lon="1.75784">
        <ele>2289</ele>
        <time>2020-02-14T00:15:12.927Z</time>
      </trkpt>
      <trkpt lat="42.50438" lon="1.75791">
        <ele>2288.8</ele>
        <time>2020-02-14T00:15:15.737Z</time>
      </trkpt>
      <trkpt lat="42.50441" lon="1.75798">
        <ele>2288.7</ele>
        <time>2020-02-14T00:15:18.661Z</time>
      </trkpt>
      <trkpt lat="42.50443" lon="1.75803">
        <ele>2288.3</ele>
        <time>2020-02-14T00:15:20.880Z</time>
      </trkpt>
      <trkpt lat="42.50445" lon="1.7581">
        <ele>2288</ele>
        <time>2020-02-14T00:15:23.297Z</time>
      </trkpt>
      <trkpt lat="42.50447" lon="1.75816">
        <ele>2287.9</ele>
        <time>2020-02-14T00:15:25.694Z</time>
      </trkpt>
      <trkpt lat="42.50448" lon="1.75822">
        <ele>2287.6</ele>
        <time>2020-02-14T00:15:28.177Z</time>
      </trkpt>
      <trkpt lat="42.50451" lon="1.75828">
        <ele>2285.8</ele>
        <time>2020-02-14T00:15:30.688Z</time>
      </trkpt>
      <trkpt lat="42.50452" lon="1.75834">
        <ele>2284.6</ele>
        <time>2020-02-14T00:15:33.076Z</time>
      </trkpt>
      <trkpt lat="42.50455" lon="1.75838">
        <ele>2282.7</ele>
        <time>2020-02-14T00:15:35.492Z</time>
      </trkpt>
      <trkpt lat="42.5046" lon="1.7584">
        <ele>2281.3</ele>
        <time>2020-02-14T00:15:37.923Z</time>
      </trkpt>
      <trkpt lat="42.50466" lon="1.75837">
        <ele>2281</ele>
        <time>2020-02-14T00:15:40.734Z</time>
      </trkpt>
      <trkpt lat="42.5047" lon="1.75836">
        <ele>2280.4</ele>
        <time>2020-02-14T00:15:43.133Z</time>
      </trkpt>
      <trkpt lat="42.50474" lon="1.75832">
        <ele>2279.3</ele>
        <time>2020-02-14T00:15:45.384Z</time>
      </trkpt>
      <trkpt lat="42.50477" lon="1.75827">
        <ele>2276.5</ele>
        <time>2020-02-14T00:15:48.020Z</time>
      </trkpt>
      <trkpt lat="42.5048" lon="1.75822">
        <ele>2274.8</ele>
        <time>2020-02-14T00:15:50.516Z</time>
      </trkpt>
      <trkpt lat="42.50484" lon="1.75817">
        <ele>2273.5</ele>
        <time>2020-02-14T00:15:53.059Z</time>
      </trkpt>
      <trkpt lat="42.50487" lon="1.75822">
        <ele>2272.6</ele>
        <time>2020-02-14T00:15:55.489Z</time>
      </trkpt>
      <trkpt lat="42.50492" lon="1.75817">
        <ele>2267.8</ele>
        <time>2020-02-14T00:15:58.951Z</time>
      </trkpt>
      <trkpt lat="42.50496" lon="1.75819">
        <ele>2265.1</ele>
        <time>2020-02-14T00:16:01.502Z</time>
      </trkpt>
      <trkpt lat="42.50501" lon="1.75819">
        <ele>2261.9</ele>
        <time>2020-02-14T00:16:04.277Z</time>
      </trkpt>
      <trkpt lat="42.50504" lon="1.75814">
        <ele>2257.8</ele>
        <time>2020-02-14T00:16:07.191Z</time>
      </trkpt>
      <trkpt lat="42.50509" lon="1.75812">
        <ele>2255.3</ele>
        <time>2020-02-14T00:16:09.937Z</time>
      </trkpt>
      <trkpt lat="42.50514" lon="1.75812">
        <ele>2254.8</ele>
        <time>2020-02-14T00:16:12.247Z</time>
      </trkpt>
      <trkpt lat="42.50518" lon="1.75808">
        <ele>2253</ele>
        <time>2020-02-14T00:16:14.619Z</time>
      </trkpt>
      <trkpt lat="42.50522" lon="1.75809">
        <ele>2252.3</ele>
        <time>2020-02-14T00:16:16.866Z</time>
      </trkpt>
      <trkpt lat="42.50527" lon="1.75809">
        <ele>2249.1</ele>
        <time>2020-02-14T00:16:19.507Z</time>
      </trkpt>
      <trkpt lat="42.50532" lon="1.7581">
        <ele>2247.8</ele>
        <time>2020-02-14T00:16:21.980Z</time>
      </trkpt>
      <trkpt lat="42.50537" lon="1.75809">
        <ele>2247</ele>
        <time>2020-02-14T00:16:24.539Z</time>
      </trkpt>
      <trkpt lat="42.50539" lon="1.75803">
        <ele>2246.6</ele>
        <time>2020-02-14T00:16:26.947Z</time>
      </trkpt>
      <trkpt lat="42.50543" lon="1.75801">
        <ele>2245.1</ele>
        <time>2020-02-14T00:16:29.416Z</time>
      </trkpt>
      <trkpt lat="42.50545" lon="1.75795">
        <ele>2242.9</ele>
        <time>2020-02-14T00:16:31.914Z</time>
      </trkpt>
      <trkpt lat="42.50549" lon="1.75791">
        <ele>2241.3</ele>
        <time>2020-02-14T00:16:34.249Z</time>
      </trkpt>
      <trkpt lat="42.50553" lon="1.75788">
        <ele>2240.4</ele>
        <time>2020-02-14T00:16:36.701Z</time>
      </trkpt>
      <trkpt lat="42.50555" lon="1.75782">
        <ele>2239.5</ele>
        <time>2020-02-14T00:16:39.187Z</time>
      </trkpt>
      <trkpt lat="42.50555" lon="1.75775">
        <ele>2238.8</ele>
        <time>2020-02-14T00:16:41.970Z</time>
      </trkpt>
      <trkpt lat="42.50557" lon="1.7578">
        <ele>2231.8</ele>
        <time>2020-02-14T00:16:45.760Z</time>
      </trkpt>
      <trkpt lat="42.50562" lon="1.75782">
        <ele>2231.1</ele>
        <time>2020-02-14T00:16:48.274Z</time>
      </trkpt>
      <trkpt lat="42.50567" lon="1.75778">
        <ele>2230.9</ele>
        <time>2020-02-14T00:16:51.302Z</time>
      </trkpt>
      <trkpt lat="42.50572" lon="1.75776">
        <ele>2230.8</ele>
        <time>2020-02-14T00:16:53.796Z</time>
      </trkpt>
      <trkpt lat="42.50577" lon="1.75772">
        <ele>2230.3</ele>
        <time>2020-02-14T00:16:56.414Z</time>
      </trkpt>
      <trkpt lat="42.50582" lon="1.75766">
        <ele>2229.7</ele>
        <time>2020-02-14T00:16:59.948Z</time>
      </trkpt>
      <trkpt lat="42.50589" lon="1.75763">
        <ele>2228.8</ele>
        <time>2020-02-14T00:17:03.717Z</time>
      </trkpt>
      <trkpt lat="42.50595" lon="1.75769">
        <ele>2227.8</ele>
        <time>2020-02-14T00:17:07.383Z</time>
      </trkpt>
      <trkpt lat="42.506" lon="1.75766">
        <ele>2226.8</ele>
        <time>2020-02-14T00:17:09.958Z</time>
      </trkpt>
      <trkpt lat="42.50603" lon="1.75772">
        <ele>2226.1</ele>
        <time>2020-02-14T00:17:12.752Z</time>
      </trkpt>
      <trkpt lat="42.50609" lon="1.75775">
        <ele>2225.6</ele>
        <time>2020-02-14T00:17:15.670Z</time>
      </trkpt>
      <trkpt lat="42.50616" lon="1.75775">
        <ele>2224.8</ele>
        <time>2020-02-14T00:17:19.399Z</time>
      </trkpt>
      <trkpt lat="42.5062" lon="1.7577">
        <ele>2224</ele>
        <time>2020-02-14T00:17:22.007Z</time>
      </trkpt>
      <trkpt lat="42.50624" lon="1.75775">
        <ele>2222.8</ele>
        <time>2020-02-14T00:17:24.623Z</time>
      </trkpt>
      <trkpt lat="42.50631" lon="1.75775">
        <ele>2222.1</ele>
        <time>2020-02-14T00:17:28.297Z</time>
      </trkpt>
      <trkpt lat="42.50637" lon="1.75769">
        <ele>2221.5</ele>
        <time>2020-02-14T00:17:31.963Z</time>
      </trkpt>
      <trkpt lat="42.50642" lon="1.7576">
        <ele>2220.1</ele>
        <time>2020-02-14T00:17:35.977Z</time>
      </trkpt>
      <trkpt lat="42.50649" lon="1.75754">
        <ele>2218.9</ele>
        <time>2020-02-14T00:17:39.953Z</time>
      </trkpt>
      <trkpt lat="42.50655" lon="1.75749">
        <ele>2217.7</ele>
        <time>2020-02-14T00:17:43.592Z</time>
      </trkpt>
      <trkpt lat="42.5066" lon="1.75747">
        <ele>2216.7</ele>
        <time>2020-02-14T00:17:46.195Z</time>
      </trkpt>
      <trkpt lat="42.50659" lon="1.75741">
        <ele>2215.9</ele>
        <time>2020-02-14T00:17:48.573Z</time>
      </trkpt>
      <trkpt lat="42.50664" lon="1.75735">
        <ele>2214.1</ele>
        <time>2020-02-14T00:17:51.596Z</time>
      </trkpt>
      <trkpt lat="42.50668" lon="1.75732">
        <ele>2212</ele>
        <time>2020-02-14T00:17:54.393Z</time>
      </trkpt>
      <trkpt lat="42.50675" lon="1.75728">
        <ele>2211.2</ele>
        <time>2020-02-14T00:17:57.806Z</time>
      </trkpt>
      <trkpt lat="42.50679" lon="1.75725">
        <ele>2210.1</ele>
        <time>2020-02-14T00:18:00.054Z</time>
      </trkpt>
      <trkpt lat="42.50684" lon="1.75723">
        <ele>2209.1</ele>
        <time>2020-02-14T00:18:03.062Z</time>
      </trkpt>
      <trkpt lat="42.50689" lon="1.75721">
        <ele>2207.8</ele>
        <time>2020-02-14T00:18:05.576Z</time>
      </trkpt>
      <trkpt lat="42.50696" lon="1.75722">
        <ele>2207</ele>
        <time>2020-02-14T00:18:09.073Z</time>
      </trkpt>
      <trkpt lat="42.50703" lon="1.75721">
        <ele>2206.1</ele>
        <time>2020-02-14T00:18:12.234Z</time>
      </trkpt>
      <trkpt lat="42.5071" lon="1.75717">
        <ele>2205.4</ele>
        <time>2020-02-14T00:18:15.901Z</time>
      </trkpt>
      <trkpt lat="42.50709" lon="1.7571">
        <ele>2205.1</ele>
        <time>2020-02-14T00:18:18.757Z</time>
      </trkpt>
      <trkpt lat="42.50713" lon="1.75711">
        <ele>2204.3</ele>
        <time>2020-02-14T00:18:21.209Z</time>
      </trkpt>
      <trkpt lat="42.5072" lon="1.75711">
        <ele>2203.5</ele>
        <time>2020-02-14T00:18:24.450Z</time>
      </trkpt>
      <trkpt lat="42.50724" lon="1.75708">
        <ele>2202.5</ele>
        <time>2020-02-14T00:18:26.727Z</time>
      </trkpt>
      <trkpt lat="42.50721" lon="1.75703">
        <ele>2200.7</ele>
        <time>2020-02-14T00:18:29.107Z</time>
      </trkpt>
      <trkpt lat="42.50717" lon="1.75695">
        <ele>2200.2</ele>
        <time>2020-02-14T00:18:32.887Z</time>
      </trkpt>
      <trkpt lat="42.50724" lon="1.75694">
        <ele>2200.1</ele>
        <time>2020-02-14T00:18:36.494Z</time>
      </trkpt>
      <trkpt lat="42.50721" lon="1.75689">
        <ele>2200</ele>
        <time>2020-02-14T00:18:38.982Z</time>
      </trkpt>
      <trkpt lat="42.50715" lon="1.75689">
        <ele>2199.6</ele>
        <time>2020-02-14T00:18:41.865Z</time>
      </trkpt>
      <trkpt lat="42.50717" lon="1.75695">
        <ele>2200.4</ele>
        <time>2020-02-14T00:18:44.352Z</time>
      </trkpt>
      <trkpt lat="42.50721" lon="1.75701">
        <ele>2200.9</ele>
        <time>2020-02-14T00:18:47.140Z</time>
      </trkpt>
      <trkpt lat="42.50722" lon="1.75707">
        <ele>2201.2</ele>
        <time>2020-02-14T00:18:49.440Z</time>
      </trkpt>
      <trkpt lat="42.50718" lon="1.75702">
        <ele>2201.8</ele>
        <time>2020-02-14T00:18:51.861Z</time>
      </trkpt>
      <trkpt lat="42.5072" lon="1.75695">
        <ele>2203.2</ele>
        <time>2020-02-14T00:18:54.452Z</time>
      </trkpt>
      <trkpt lat="42.50721" lon="1.75701">
        <ele>2203.2</ele>
        <time>2020-02-14T00:18:56.762Z</time>
      </trkpt>
      <trkpt lat="42.50721" lon="1.75708">
        <ele>2203.4</ele>
        <time>2020-02-14T00:18:59.106Z</time>
      </trkpt>
      <trkpt lat="42.50717" lon="1.75712">
        <ele>2202.3</ele>
        <time>2020-02-14T00:19:01.329Z</time>
      </trkpt>
      <trkpt lat="42.50715" lon="1.75717">
        <ele>2202.5</ele>
        <time>2020-02-14T00:19:03.637Z</time>
      </trkpt>
      <trkpt lat="42.50719" lon="1.75714">
        <ele>2204.4</ele>
        <time>2020-02-14T00:19:06.023Z</time>
      </trkpt>
      <trkpt lat="42.50722" lon="1.7571">
        <ele>2204.1</ele>
        <time>2020-02-14T00:19:08.231Z</time>
      </trkpt>
      <trkpt lat="42.50724" lon="1.75704">
        <ele>2203.5</ele>
        <time>2020-02-14T00:19:10.421Z</time>
      </trkpt>
      <trkpt lat="42.50728" lon="1.75702">
        <ele>2202.8</ele>
        <time>2020-02-14T00:19:12.759Z</time>
      </trkpt>
      <trkpt lat="42.50734" lon="1.75701">
        <ele>2202.7</ele>
        <time>2020-02-14T00:19:15.342Z</time>
      </trkpt>
      <trkpt lat="42.50737" lon="1.75698">
        <ele>2202.1</ele>
        <time>2020-02-14T00:19:17.557Z</time>
      </trkpt>
      <trkpt lat="42.50739" lon="1.75692">
        <ele>2201.6</ele>
        <time>2020-02-14T00:19:19.800Z</time>
      </trkpt>
      <trkpt lat="42.50741" lon="1.75685">
        <ele>2201.2</ele>
        <time>2020-02-14T00:19:22.370Z</time>
      </trkpt>
      <trkpt lat="42.50742" lon="1.75679">
        <ele>2200.1</ele>
        <time>2020-02-14T00:19:24.892Z</time>
      </trkpt>
      <trkpt lat="42.5074" lon="1.75672">
        <ele>2199</ele>
        <time>2020-02-14T00:19:27.466Z</time>
      </trkpt>
      <trkpt lat="42.50737" lon="1.75665">
        <ele>2198.8</ele>
        <time>2020-02-14T00:19:30.650Z</time>
      </trkpt>
      <trkpt lat="42.50732" lon="1.75657">
        <ele>2198.7</ele>
        <time>2020-02-14T00:19:34.242Z</time>
      </trkpt>
      <trkpt lat="42.50734" lon="1.7565">
        <ele>2197.7</ele>
        <time>2020-02-14T00:19:36.707Z</time>
      </trkpt>
      <trkpt lat="42.50739" lon="1.75639">
        <ele>2197</ele>
        <time>2020-02-14T00:19:41.395Z</time>
      </trkpt>
      <trkpt lat="42.50742" lon="1.7563">
        <ele>2196.7</ele>
        <time>2020-02-14T00:19:44.986Z</time>
      </trkpt>
      <trkpt lat="42.50744" lon="1.75621">
        <ele>2196.4</ele>
        <time>2020-02-14T00:19:48.488Z</time>
      </trkpt>
      <trkpt lat="42.50748" lon="1.75614">
        <ele>2196.3</ele>
        <time>2020-02-14T00:19:51.642Z</time>
      </trkpt>
      <trkpt lat="42.50752" lon="1.75605">
        <ele>2196.1</ele>
        <time>2020-02-14T00:19:55.293Z</time>
      </trkpt>
      <trkpt lat="42.50754" lon="1.756">
        <ele>2196</ele>
        <time>2020-02-14T00:19:57.596Z</time>
      </trkpt>
      <trkpt lat="42.50758" lon="1.75594">
        <ele>2196.3</ele>
        <time>2020-02-14T00:20:00.223Z</time>
      </trkpt>
      <trkpt lat="42.50762" lon="1.7559">
        <ele>2196.1</ele>
        <time>2020-02-14T00:20:02.683Z</time>
      </trkpt>
      <trkpt lat="42.50766" lon="1.7559">
        <ele>2196</ele>
        <time>2020-02-14T00:20:04.901Z</time>
      </trkpt>
      <trkpt lat="42.50767" lon="1.75583">
        <ele>2195.9</ele>
        <time>2020-02-14T00:20:07.350Z</time>
      </trkpt>
      <trkpt lat="42.50768" lon="1.75577">
        <ele>2195.8</ele>
        <time>2020-02-14T00:20:09.586Z</time>
      </trkpt>
      <trkpt lat="42.50769" lon="1.7557">
        <ele>2195.5</ele>
        <time>2020-02-14T00:20:12.076Z</time>
      </trkpt>
      <trkpt lat="42.50769" lon="1.75563">
        <ele>2195.2</ele>
        <time>2020-02-14T00:20:14.570Z</time>
      </trkpt>
      <trkpt lat="42.50771" lon="1.75556">
        <ele>2194.9</ele>
        <time>2020-02-14T00:20:17.064Z</time>
      </trkpt>
      <trkpt lat="42.5077" lon="1.75549">
        <ele>2194.7</ele>
        <time>2020-02-14T00:20:19.714Z</time>
      </trkpt>
      <trkpt lat="42.50768" lon="1.75541">
        <ele>2194.9</ele>
        <time>2020-02-14T00:20:22.756Z</time>
      </trkpt>
      <trkpt lat="42.50765" lon="1.75536">
        <ele>2194.9</ele>
        <time>2020-02-14T00:20:25.059Z</time>
      </trkpt>
      <trkpt lat="42.50765" lon="1.75529">
        <ele>2195.8</ele>
        <time>2020-02-14T00:20:27.457Z</time>
      </trkpt>
      <trkpt lat="42.50766" lon="1.75523">
        <ele>2196.6</ele>
        <time>2020-02-14T00:20:29.803Z</time>
      </trkpt>
      <trkpt lat="42.50767" lon="1.75516">
        <ele>2198.2</ele>
        <time>2020-02-14T00:20:32.280Z</time>
      </trkpt>
      <trkpt lat="42.50769" lon="1.7551">
        <ele>2198.8</ele>
        <time>2020-02-14T00:20:34.651Z</time>
      </trkpt>
      <trkpt lat="42.50767" lon="1.75503">
        <ele>2199.5</ele>
        <time>2020-02-14T00:20:37.447Z</time>
      </trkpt>
      <trkpt lat="42.50764" lon="1.75495">
        <ele>2199.8</ele>
        <time>2020-02-14T00:20:40.571Z</time>
      </trkpt>
      <trkpt lat="42.50765" lon="1.75488">
        <ele>2200.3</ele>
        <time>2020-02-14T00:20:42.853Z</time>
      </trkpt>
      <trkpt lat="42.50764" lon="1.75482">
        <ele>2200.8</ele>
        <time>2020-02-14T00:20:45.216Z</time>
      </trkpt>
      <trkpt lat="42.50763" lon="1.75475">
        <ele>2201.4</ele>
        <time>2020-02-14T00:20:47.779Z</time>
      </trkpt>
      <trkpt lat="42.5076" lon="1.7547">
        <ele>2202</ele>
        <time>2020-02-14T00:20:50.086Z</time>
      </trkpt>
      <trkpt lat="42.5076" lon="1.75463">
        <ele>2203.5</ele>
        <time>2020-02-14T00:20:52.628Z</time>
      </trkpt>
      <trkpt lat="42.50759" lon="1.75455">
        <ele>2204.5</ele>
        <time>2020-02-14T00:20:55.563Z</time>
      </trkpt>
      <trkpt lat="42.50756" lon="1.7545">
        <ele>2205.2</ele>
        <time>2020-02-14T00:20:57.840Z</time>
      </trkpt>
      <trkpt lat="42.50757" lon="1.75444">
        <ele>2206</ele>
        <time>2020-02-14T00:21:00.210Z</time>
      </trkpt>
      <trkpt lat="42.50758" lon="1.75438">
        <ele>2206.8</ele>
        <time>2020-02-14T00:21:02.601Z</time>
      </trkpt>
      <trkpt lat="42.50754" lon="1.75434">
        <ele>2207.9</ele>
        <time>2020-02-14T00:21:05.013Z</time>
      </trkpt>
      <trkpt lat="42.50752" lon="1.75428">
        <ele>2208.4</ele>
        <time>2020-02-14T00:21:07.474Z</time>
      </trkpt>
      <trkpt lat="42.50748" lon="1.75418">
        <ele>2209.2</ele>
        <time>2020-02-14T00:21:11.412Z</time>
      </trkpt>
      <trkpt lat="42.50748" lon="1.7541">
        <ele>2210.2</ele>
        <time>2020-02-14T00:21:14.145Z</time>
      </trkpt>
      <trkpt lat="42.50747" lon="1.75404">
        <ele>2211.7</ele>
        <time>2020-02-14T00:21:16.611Z</time>
      </trkpt>
      <trkpt lat="42.50746" lon="1.75398">
        <ele>2213.5</ele>
        <time>2020-02-14T00:21:18.999Z</time>
      </trkpt>
      <trkpt lat="42.50744" lon="1.75392">
        <ele>2214.1</ele>
        <time>2020-02-14T00:21:21.390Z</time>
      </trkpt>
      <trkpt lat="42.50742" lon="1.75386">
        <ele>2214.6</ele>
        <time>2020-02-14T00:21:23.783Z</time>
      </trkpt>
      <trkpt lat="42.50739" lon="1.75381">
        <ele>2215.9</ele>
        <time>2020-02-14T00:21:26.163Z</time>
      </trkpt>
      <trkpt lat="42.50738" lon="1.75375">
        <ele>2217</ele>
        <time>2020-02-14T00:21:28.379Z</time>
      </trkpt>
      <trkpt lat="42.50736" lon="1.75368">
        <ele>2217.9</ele>
        <time>2020-02-14T00:21:30.860Z</time>
      </trkpt>
      <trkpt lat="42.50736" lon="1.75361">
        <ele>2218.7</ele>
        <time>2020-02-14T00:21:33.366Z</time>
      </trkpt>
      <trkpt lat="42.50736" lon="1.75355">
        <ele>2218.7</ele>
        <time>2020-02-14T00:21:35.601Z</time>
      </trkpt>
      <trkpt lat="42.50735" lon="1.75348">
        <ele>2218.5</ele>
        <time>2020-02-14T00:21:38.157Z</time>
      </trkpt>
      <trkpt lat="42.50732" lon="1.75343">
        <ele>2218.6</ele>
        <time>2020-02-14T00:21:40.451Z</time>
      </trkpt>
      <trkpt lat="42.5073" lon="1.75337">
        <ele>2218.7</ele>
        <time>2020-02-14T00:21:42.804Z</time>
      </trkpt>
      <trkpt lat="42.50727" lon="1.75333">
        <ele>2219</ele>
        <time>2020-02-14T00:21:45.001Z</time>
      </trkpt>
      <trkpt lat="42.50728" lon="1.75325">
        <ele>2218.9</ele>
        <time>2020-02-14T00:21:47.909Z</time>
      </trkpt>
      <trkpt lat="42.50726" lon="1.75318">
        <ele>2219.5</ele>
        <time>2020-02-14T00:21:50.483Z</time>
      </trkpt>
      <trkpt lat="42.50725" lon="1.75312">
        <ele>2219.9</ele>
        <time>2020-02-14T00:21:52.719Z</time>
      </trkpt>
      <trkpt lat="42.50722" lon="1.75307">
        <ele>2220.6</ele>
        <time>2020-02-14T00:21:55.049Z</time>
      </trkpt>
      <trkpt lat="42.5072" lon="1.75301">
        <ele>2220.6</ele>
        <time>2020-02-14T00:21:57.376Z</time>
      </trkpt>
      <trkpt lat="42.50718" lon="1.75295">
        <ele>2220.7</ele>
        <time>2020-02-14T00:21:59.826Z</time>
      </trkpt>
      <trkpt lat="42.50716" lon="1.75289">
        <ele>2221.5</ele>
        <time>2020-02-14T00:22:02.163Z</time>
      </trkpt>
      <trkpt lat="42.50711" lon="1.75289">
        <ele>2221.8</ele>
        <time>2020-02-14T00:22:04.506Z</time>
      </trkpt>
      <trkpt lat="42.50706" lon="1.75288">
        <ele>2222.1</ele>
        <time>2020-02-14T00:22:07.091Z</time>
      </trkpt>
      <trkpt lat="42.50701" lon="1.75288">
        <ele>2222.7</ele>
        <time>2020-02-14T00:22:09.500Z</time>
      </trkpt>
      <trkpt lat="42.50696" lon="1.75291">
        <ele>2223.4</ele>
        <time>2020-02-14T00:22:11.801Z</time>
      </trkpt>
      <trkpt lat="42.50692" lon="1.75291">
        <ele>2224.2</ele>
        <time>2020-02-14T00:22:14.029Z</time>
      </trkpt>
      <trkpt lat="42.50687" lon="1.75292">
        <ele>2225.6</ele>
        <time>2020-02-14T00:22:16.493Z</time>
      </trkpt>
      <trkpt lat="42.50683" lon="1.75296">
        <ele>2227.6</ele>
        <time>2020-02-14T00:22:18.929Z</time>
      </trkpt>
      <trkpt lat="42.50679" lon="1.75297">
        <ele>2229.1</ele>
        <time>2020-02-14T00:22:21.433Z</time>
      </trkpt>
      <trkpt lat="42.50674" lon="1.75296">
        <ele>2230.2</ele>
        <time>2020-02-14T00:22:23.689Z</time>
      </trkpt>
      <trkpt lat="42.50672" lon="1.75287">
        <ele>2233.8</ele>
        <time>2020-02-14T00:22:27.518Z</time>
      </trkpt>
      <trkpt lat="42.50672" lon="1.75281">
        <ele>2236.2</ele>
        <time>2020-02-14T00:22:29.991Z</time>
      </trkpt>
      <trkpt lat="42.50678" lon="1.75271">
        <ele>2237.3</ele>
        <time>2020-02-14T00:22:34.691Z</time>
      </trkpt>
      <trkpt lat="42.5068" lon="1.75264">
        <ele>2239</ele>
        <time>2020-02-14T00:22:37.293Z</time>
      </trkpt>
      <trkpt lat="42.50681" lon="1.75257">
        <ele>2241.6</ele>
        <time>2020-02-14T00:22:40.278Z</time>
      </trkpt>
      <trkpt lat="42.50685" lon="1.75252">
        <ele>2244.3</ele>
        <time>2020-02-14T00:22:43.036Z</time>
      </trkpt>
      <trkpt lat="42.50688" lon="1.75245">
        <ele>2246.1</ele>
        <time>2020-02-14T00:22:46.072Z</time>
      </trkpt>
      <trkpt lat="42.50683" lon="1.75243">
        <ele>2249.4</ele>
        <time>2020-02-14T00:22:49.250Z</time>
      </trkpt>
      <trkpt lat="42.50679" lon="1.75239">
        <ele>2250.1</ele>
        <time>2020-02-14T00:22:51.703Z</time>
      </trkpt>
      <trkpt lat="42.50675" lon="1.75234">
        <ele>2250.8</ele>
        <time>2020-02-14T00:22:54.285Z</time>
      </trkpt>
      <trkpt lat="42.50672" lon="1.7523">
        <ele>2251.3</ele>
        <time>2020-02-14T00:22:56.451Z</time>
      </trkpt>
      <trkpt lat="42.50668" lon="1.75223">
        <ele>2251.8</ele>
        <time>2020-02-14T00:22:59.390Z</time>
      </trkpt>
      <trkpt lat="42.50664" lon="1.75219">
        <ele>2252.4</ele>
        <time>2020-02-14T00:23:02.046Z</time>
      </trkpt>
      <trkpt lat="42.50661" lon="1.75213">
        <ele>2253.1</ele>
        <time>2020-02-14T00:23:04.473Z</time>
      </trkpt>
      <trkpt lat="42.50659" lon="1.75206">
        <ele>2253.7</ele>
        <time>2020-02-14T00:23:07.269Z</time>
      </trkpt>
      <trkpt lat="42.50656" lon="1.75197">
        <ele>2254.4</ele>
        <time>2020-02-14T00:23:11.045Z</time>
      </trkpt>
      <trkpt lat="42.5065" lon="1.7519">
        <ele>2255.4</ele>
        <time>2020-02-14T00:23:14.662Z</time>
      </trkpt>
      <trkpt lat="42.50647" lon="1.75186">
        <ele>2256.4</ele>
        <time>2020-02-14T00:23:16.982Z</time>
      </trkpt>
      <trkpt lat="42.50643" lon="1.75181">
        <ele>2257.1</ele>
        <time>2020-02-14T00:23:19.439Z</time>
      </trkpt>
      <trkpt lat="42.50641" lon="1.75174">
        <ele>2257.9</ele>
        <time>2020-02-14T00:23:22.064Z</time>
      </trkpt>
      <trkpt lat="42.50637" lon="1.75171">
        <ele>2258.4</ele>
        <time>2020-02-14T00:23:24.281Z</time>
      </trkpt>
      <trkpt lat="42.5063" lon="1.75168">
        <ele>2258.9</ele>
        <time>2020-02-14T00:23:27.832Z</time>
      </trkpt>
      <trkpt lat="42.50626" lon="1.75164">
        <ele>2259.7</ele>
        <time>2020-02-14T00:23:30.299Z</time>
      </trkpt>
      <trkpt lat="42.5062" lon="1.75161">
        <ele>2260.3</ele>
        <time>2020-02-14T00:23:33.338Z</time>
      </trkpt>
      <trkpt lat="42.50616" lon="1.75154">
        <ele>2260.8</ele>
        <time>2020-02-14T00:23:36.390Z</time>
      </trkpt>
      <trkpt lat="42.50615" lon="1.75148">
        <ele>2261.2</ele>
        <time>2020-02-14T00:23:38.867Z</time>
      </trkpt>
      <trkpt lat="42.50614" lon="1.7514">
        <ele>2261.7</ele>
        <time>2020-02-14T00:23:41.729Z</time>
      </trkpt>
      <trkpt lat="42.50614" lon="1.75132">
        <ele>2262.4</ele>
        <time>2020-02-14T00:23:44.439Z</time>
      </trkpt>
      <trkpt lat="42.50614" lon="1.75125">
        <ele>2263.4</ele>
        <time>2020-02-14T00:23:46.997Z</time>
      </trkpt>
      <trkpt lat="42.50612" lon="1.75118">
        <ele>2264.3</ele>
        <time>2020-02-14T00:23:49.711Z</time>
      </trkpt>
      <trkpt lat="42.50612" lon="1.75111">
        <ele>2265.5</ele>
        <time>2020-02-14T00:23:52.286Z</time>
      </trkpt>
      <trkpt lat="42.50614" lon="1.75104">
        <ele>2266</ele>
        <time>2020-02-14T00:23:54.995Z</time>
      </trkpt>
      <trkpt lat="42.50615" lon="1.75096">
        <ele>2266.7</ele>
        <time>2020-02-14T00:23:57.747Z</time>
      </trkpt>
      <trkpt lat="42.50614" lon="1.75089">
        <ele>2267.6</ele>
        <time>2020-02-14T00:24:00.398Z</time>
      </trkpt>
      <trkpt lat="42.50614" lon="1.75083">
        <ele>2268</ele>
        <time>2020-02-14T00:24:02.743Z</time>
      </trkpt>
      <trkpt lat="42.50612" lon="1.75074">
        <ele>2268.4</ele>
        <time>2020-02-14T00:24:05.961Z</time>
      </trkpt>
      <trkpt lat="42.50612" lon="1.75068">
        <ele>2269</ele>
        <time>2020-02-14T00:24:08.173Z</time>
      </trkpt>
      <trkpt lat="42.50611" lon="1.75061">
        <ele>2269.9</ele>
        <time>2020-02-14T00:24:10.638Z</time>
      </trkpt>
      <trkpt lat="42.50613" lon="1.75056">
        <ele>2270.5</ele>
        <time>2020-02-14T00:24:12.860Z</time>
      </trkpt>
      <trkpt lat="42.50613" lon="1.75048">
        <ele>2271.2</ele>
        <time>2020-02-14T00:24:15.732Z</time>
      </trkpt>
      <trkpt lat="42.50612" lon="1.75041">
        <ele>2272.3</ele>
        <time>2020-02-14T00:24:18.504Z</time>
      </trkpt>
      <trkpt lat="42.50613" lon="1.75033">
        <ele>2273.2</ele>
        <time>2020-02-14T00:24:21.286Z</time>
      </trkpt>
      <trkpt lat="42.50612" lon="1.75027">
        <ele>2273.8</ele>
        <time>2020-02-14T00:24:23.689Z</time>
      </trkpt>
      <trkpt lat="42.50614" lon="1.75021">
        <ele>2275.2</ele>
        <time>2020-02-14T00:24:25.972Z</time>
      </trkpt>
      <trkpt lat="42.50615" lon="1.75015">
        <ele>2276.2</ele>
        <time>2020-02-14T00:24:28.479Z</time>
      </trkpt>
      <trkpt lat="42.50615" lon="1.75008">
        <ele>2277.4</ele>
        <time>2020-02-14T00:24:30.840Z</time>
      </trkpt>
      <trkpt lat="42.50616" lon="1.75001">
        <ele>2279.6</ele>
        <time>2020-02-14T00:24:33.572Z</time>
      </trkpt>
      <trkpt lat="42.5062" lon="1.74997">
        <ele>2280.8</ele>
        <time>2020-02-14T00:24:35.850Z</time>
      </trkpt>
      <trkpt lat="42.50622" lon="1.74992">
        <ele>2282.3</ele>
        <time>2020-02-14T00:24:38.164Z</time>
      </trkpt>
      <trkpt lat="42.50623" lon="1.74985">
        <ele>2282.6</ele>
        <time>2020-02-14T00:24:40.665Z</time>
      </trkpt>
      <trkpt lat="42.50627" lon="1.74979">
        <ele>2282.9</ele>
        <time>2020-02-14T00:24:43.307Z</time>
      </trkpt>
      <trkpt lat="42.5063" lon="1.74975">
        <ele>2283.1</ele>
        <time>2020-02-14T00:24:45.724Z</time>
      </trkpt>
      <trkpt lat="42.5063" lon="1.74968">
        <ele>2284.2</ele>
        <time>2020-02-14T00:24:48.219Z</time>
      </trkpt>
      <trkpt lat="42.50634" lon="1.74963">
        <ele>2285.5</ele>
        <time>2020-02-14T00:24:50.956Z</time>
      </trkpt>
      <trkpt lat="42.50633" lon="1.74955">
        <ele>2285.7</ele>
        <time>2020-02-14T00:24:53.740Z</time>
      </trkpt>
      <trkpt lat="42.50633" lon="1.74947">
        <ele>2286.1</ele>
        <time>2020-02-14T00:24:56.717Z</time>
      </trkpt>
      <trkpt lat="42.50635" lon="1.7494">
        <ele>2287.5</ele>
        <time>2020-02-14T00:24:59.618Z</time>
      </trkpt>
      <trkpt lat="42.50637" lon="1.74934">
        <ele>2288.4</ele>
        <time>2020-02-14T00:25:02.021Z</time>
      </trkpt>
      <trkpt lat="42.50637" lon="1.74927">
        <ele>2290.2</ele>
        <time>2020-02-14T00:25:04.676Z</time>
      </trkpt>
      <trkpt lat="42.50639" lon="1.74921">
        <ele>2292.7</ele>
        <time>2020-02-14T00:25:07.124Z</time>
      </trkpt>
      <trkpt lat="42.50641" lon="1.74913">
        <ele>2293.7</ele>
        <time>2020-02-14T00:25:10.074Z</time>
      </trkpt>
      <trkpt lat="42.50641" lon="1.74907">
        <ele>2294.6</ele>
        <time>2020-02-14T00:25:12.555Z</time>
      </trkpt>
      <trkpt lat="42.50642" lon="1.749">
        <ele>2295.9</ele>
        <time>2020-02-14T00:25:15.082Z</time>
      </trkpt>
      <trkpt lat="42.50645" lon="1.74894">
        <ele>2296.9</ele>
        <time>2020-02-14T00:25:17.542Z</time>
      </trkpt>
      <trkpt lat="42.50646" lon="1.74888">
        <ele>2298.4</ele>
        <time>2020-02-14T00:25:19.849Z</time>
      </trkpt>
      <trkpt lat="42.50646" lon="1.74882">
        <ele>2299</ele>
        <time>2020-02-14T00:25:22.129Z</time>
      </trkpt>
      <trkpt lat="42.50646" lon="1.74874">
        <ele>2299.5</ele>
        <time>2020-02-14T00:25:24.739Z</time>
      </trkpt>
      <trkpt lat="42.50648" lon="1.74869">
        <ele>2299.9</ele>
        <time>2020-02-14T00:25:26.977Z</time>
      </trkpt>
      <trkpt lat="42.50649" lon="1.74861">
        <ele>2300.2</ele>
        <time>2020-02-14T00:25:29.792Z</time>
      </trkpt>
      <trkpt lat="42.50651" lon="1.74856">
        <ele>2300.7</ele>
        <time>2020-02-14T00:25:32.093Z</time>
      </trkpt>
      <trkpt lat="42.50654" lon="1.7485">
        <ele>2302.1</ele>
        <time>2020-02-14T00:25:34.504Z</time>
      </trkpt>
      <trkpt lat="42.50653" lon="1.74843">
        <ele>2302.8</ele>
        <time>2020-02-14T00:25:37.053Z</time>
      </trkpt>
      <trkpt lat="42.50654" lon="1.74835">
        <ele>2304.1</ele>
        <time>2020-02-14T00:25:40.094Z</time>
      </trkpt>
      <trkpt lat="42.50649" lon="1.74832">
        <ele>2304.5</ele>
        <time>2020-02-14T00:25:42.617Z</time>
      </trkpt>
      <trkpt lat="42.50651" lon="1.74826">
        <ele>2307.2</ele>
        <time>2020-02-14T00:25:45.265Z</time>
      </trkpt>
      <trkpt lat="42.50652" lon="1.74817">
        <ele>2307.5</ele>
        <time>2020-02-14T00:25:48.355Z</time>
      </trkpt>
      <trkpt lat="42.50651" lon="1.74824">
        <ele>2307.7</ele>
        <time>2020-02-14T00:25:51.048Z</time>
      </trkpt>
      <trkpt lat="42.50648" lon="1.74831">
        <ele>2308.8</ele>
        <time>2020-02-14T00:25:53.627Z</time>
      </trkpt>
      <trkpt lat="42.50653" lon="1.7483">
        <ele>2308.7</ele>
        <time>2020-02-14T00:25:55.972Z</time>
      </trkpt>
      <trkpt lat="42.50655" lon="1.74836">
        <ele>2309.1</ele>
        <time>2020-02-14T00:25:58.213Z</time>
      </trkpt>
      <trkpt lat="42.50655" lon="1.74828">
        <ele>2311</ele>
        <time>2020-02-14T00:26:01.036Z</time>
      </trkpt>
      <trkpt lat="42.50656" lon="1.74822">
        <ele>2311.5</ele>
        <time>2020-02-14T00:26:03.280Z</time>
      </trkpt>
      <trkpt lat="42.50657" lon="1.74814">
        <ele>2312.3</ele>
        <time>2020-02-14T00:26:06.294Z</time>
      </trkpt>
      <trkpt lat="42.50656" lon="1.74804">
        <ele>2312.9</ele>
        <time>2020-02-14T00:26:09.678Z</time>
      </trkpt>
      <trkpt lat="42.5066" lon="1.74799">
        <ele>2313.5</ele>
        <time>2020-02-14T00:26:12.542Z</time>
      </trkpt>
      <trkpt lat="42.50662" lon="1.74792">
        <ele>2314</ele>
        <time>2020-02-14T00:26:15.067Z</time>
      </trkpt>
      <trkpt lat="42.50662" lon="1.74784">
        <ele>2314.1</ele>
        <time>2020-02-14T00:26:18.040Z</time>
      </trkpt>
      <trkpt lat="42.50667" lon="1.74779">
        <ele>2314</ele>
        <time>2020-02-14T00:26:20.966Z</time>
      </trkpt>
      <trkpt lat="42.50667" lon="1.74771">
        <ele>2313.2</ele>
        <time>2020-02-14T00:26:23.913Z</time>
      </trkpt>
      <trkpt lat="42.50663" lon="1.74762">
        <ele>2313.2</ele>
        <time>2020-02-14T00:26:27.663Z</time>
      </trkpt>
      <trkpt lat="42.5066" lon="1.74756">
        <ele>2313.1</ele>
        <time>2020-02-14T00:26:30.310Z</time>
      </trkpt>
      <trkpt lat="42.5066" lon="1.74748">
        <ele>2313.4</ele>
        <time>2020-02-14T00:26:33.243Z</time>
      </trkpt>
      <trkpt lat="42.50656" lon="1.74742">
        <ele>2313.8</ele>
        <time>2020-02-14T00:26:36.002Z</time>
      </trkpt>
      <trkpt lat="42.50655" lon="1.74735">
        <ele>2314.5</ele>
        <time>2020-02-14T00:26:38.326Z</time>
      </trkpt>
      <trkpt lat="42.50654" lon="1.74729">
        <ele>2315.2</ele>
        <time>2020-02-14T00:26:40.595Z</time>
      </trkpt>
      <trkpt lat="42.50654" lon="1.74723">
        <ele>2316</ele>
        <time>2020-02-14T00:26:42.969Z</time>
      </trkpt>
      <trkpt lat="42.50654" lon="1.74716">
        <ele>2316.3</ele>
        <time>2020-02-14T00:26:45.454Z</time>
      </trkpt>
      <trkpt lat="42.50652" lon="1.74708">
        <ele>2316.9</ele>
        <time>2020-02-14T00:26:48.434Z</time>
      </trkpt>
      <trkpt lat="42.50651" lon="1.74702">
        <ele>2318.5</ele>
        <time>2020-02-14T00:26:50.807Z</time>
      </trkpt>
      <trkpt lat="42.50652" lon="1.74696">
        <ele>2319.3</ele>
        <time>2020-02-14T00:26:53.149Z</time>
      </trkpt>
      <trkpt lat="42.50651" lon="1.74689">
        <ele>2321.1</ele>
        <time>2020-02-14T00:26:55.823Z</time>
      </trkpt>
      <trkpt lat="42.50653" lon="1.74683">
        <ele>2321.6</ele>
        <time>2020-02-14T00:26:58.068Z</time>
      </trkpt>
      <trkpt lat="42.50654" lon="1.74676">
        <ele>2322.1</ele>
        <time>2020-02-14T00:27:00.493Z</time>
      </trkpt>
      <trkpt lat="42.50651" lon="1.7467">
        <ele>2322.5</ele>
        <time>2020-02-14T00:27:02.933Z</time>
      </trkpt>
      <trkpt lat="42.50654" lon="1.74666">
        <ele>2323.6</ele>
        <time>2020-02-14T00:27:05.235Z</time>
      </trkpt>
      <trkpt lat="42.50654" lon="1.74658">
        <ele>2324.3</ele>
        <time>2020-02-14T00:27:08.288Z</time>
      </trkpt>
      <trkpt lat="42.50654" lon="1.74651">
        <ele>2326.1</ele>
        <time>2020-02-14T00:27:10.718Z</time>
      </trkpt>
      <trkpt lat="42.50654" lon="1.74644">
        <ele>2327.9</ele>
        <time>2020-02-14T00:27:13.365Z</time>
      </trkpt>
      <trkpt lat="42.50653" lon="1.74638">
        <ele>2329.7</ele>
        <time>2020-02-14T00:27:15.815Z</time>
      </trkpt>
      <trkpt lat="42.50653" lon="1.7463">
        <ele>2330.5</ele>
        <time>2020-02-14T00:27:18.580Z</time>
      </trkpt>
      <trkpt lat="42.50652" lon="1.74624">
        <ele>2331.4</ele>
        <time>2020-02-14T00:27:21.092Z</time>
      </trkpt>
      <trkpt lat="42.50652" lon="1.74617">
        <ele>2332.1</ele>
        <time>2020-02-14T00:27:23.540Z</time>
      </trkpt>
      <trkpt lat="42.50654" lon="1.7461">
        <ele>2332.6</ele>
        <time>2020-02-14T00:27:26.069Z</time>
      </trkpt>
      <trkpt lat="42.50651" lon="1.74606">
        <ele>2333.4</ele>
        <time>2020-02-14T00:27:28.358Z</time>
      </trkpt>
      <trkpt lat="42.5065" lon="1.74596">
        <ele>2333.8</ele>
        <time>2020-02-14T00:27:31.720Z</time>
      </trkpt>
      <trkpt lat="42.50653" lon="1.74591">
        <ele>2337.3</ele>
        <time>2020-02-14T00:27:34.538Z</time>
      </trkpt>
      <trkpt lat="42.50656" lon="1.74585">
        <ele>2338</ele>
        <time>2020-02-14T00:27:37.056Z</time>
      </trkpt>
      <trkpt lat="42.50656" lon="1.74578">
        <ele>2338.7</ele>
        <time>2020-02-14T00:27:39.595Z</time>
      </trkpt>
      <trkpt lat="42.50654" lon="1.74571">
        <ele>2340.4</ele>
        <time>2020-02-14T00:27:42.297Z</time>
      </trkpt>
      <trkpt lat="42.50657" lon="1.74564">
        <ele>2340.9</ele>
        <time>2020-02-14T00:27:45.018Z</time>
      </trkpt>
      <trkpt lat="42.50659" lon="1.74558">
        <ele>2341.4</ele>
        <time>2020-02-14T00:27:47.625Z</time>
      </trkpt>
      <trkpt lat="42.5066" lon="1.74551">
        <ele>2342.5</ele>
        <time>2020-02-14T00:27:50.015Z</time>
      </trkpt>
      <trkpt lat="42.5066" lon="1.74545">
        <ele>2343.5</ele>
        <time>2020-02-14T00:27:52.403Z</time>
      </trkpt>
      <trkpt lat="42.50662" lon="1.74539">
        <ele>2344.5</ele>
        <time>2020-02-14T00:27:54.656Z</time>
      </trkpt>
      <trkpt lat="42.50661" lon="1.74532">
        <ele>2344.9</ele>
        <time>2020-02-14T00:27:57.307Z</time>
      </trkpt>
      <trkpt lat="42.50659" lon="1.74525">
        <ele>2345.1</ele>
        <time>2020-02-14T00:27:59.816Z</time>
      </trkpt>
      <trkpt lat="42.50658" lon="1.74518">
        <ele>2345.4</ele>
        <time>2020-02-14T00:28:02.661Z</time>
      </trkpt>
      <trkpt lat="42.50658" lon="1.7451">
        <ele>2345.7</ele>
        <time>2020-02-14T00:28:05.249Z</time>
      </trkpt>
      <trkpt lat="42.50655" lon="1.74504">
        <ele>2346.4</ele>
        <time>2020-02-14T00:28:07.795Z</time>
      </trkpt>
      <trkpt lat="42.50656" lon="1.74497">
        <ele>2347.3</ele>
        <time>2020-02-14T00:28:10.599Z</time>
      </trkpt>
      <trkpt lat="42.50656" lon="1.7449">
        <ele>2348</ele>
        <time>2020-02-14T00:28:13.050Z</time>
      </trkpt>
      <trkpt lat="42.50658" lon="1.74483">
        <ele>2349.1</ele>
        <time>2020-02-14T00:28:15.611Z</time>
      </trkpt>
      <trkpt lat="42.5066" lon="1.74476">
        <ele>2350.4</ele>
        <time>2020-02-14T00:28:18.467Z</time>
      </trkpt>
      <trkpt lat="42.5066" lon="1.74468">
        <ele>2351.7</ele>
        <time>2020-02-14T00:28:21.328Z</time>
      </trkpt>
      <trkpt lat="42.50661" lon="1.74462">
        <ele>2352.7</ele>
        <time>2020-02-14T00:28:23.742Z</time>
      </trkpt>
      <trkpt lat="42.50663" lon="1.74456">
        <ele>2353.9</ele>
        <time>2020-02-14T00:28:26.044Z</time>
      </trkpt>
      <trkpt lat="42.50664" lon="1.74449">
        <ele>2354.7</ele>
        <time>2020-02-14T00:28:28.744Z</time>
      </trkpt>
      <trkpt lat="42.50668" lon="1.74444">
        <ele>2355.3</ele>
        <time>2020-02-14T00:28:31.332Z</time>
      </trkpt>
      <trkpt lat="42.50669" lon="1.74437">
        <ele>2355.9</ele>
        <time>2020-02-14T00:28:33.692Z</time>
      </trkpt>
      <trkpt lat="42.50672" lon="1.74432">
        <ele>2356.2</ele>
        <time>2020-02-14T00:28:36.042Z</time>
      </trkpt>
      <trkpt lat="42.50674" lon="1.74426">
        <ele>2357.3</ele>
        <time>2020-02-14T00:28:38.432Z</time>
      </trkpt>
      <trkpt lat="42.50676" lon="1.74419">
        <ele>2357.9</ele>
        <time>2020-02-14T00:28:41.222Z</time>
      </trkpt>
      <trkpt lat="42.50678" lon="1.74414">
        <ele>2358.5</ele>
        <time>2020-02-14T00:28:43.439Z</time>
      </trkpt>
      <trkpt lat="42.50681" lon="1.74406">
        <ele>2359.2</ele>
        <time>2020-02-14T00:28:46.556Z</time>
      </trkpt>
      <trkpt lat="42.50682" lon="1.74399">
        <ele>2360.7</ele>
        <time>2020-02-14T00:28:48.982Z</time>
      </trkpt>
      <trkpt lat="42.50681" lon="1.74393">
        <ele>2361.4</ele>
        <time>2020-02-14T00:28:51.340Z</time>
      </trkpt>
      <trkpt lat="42.50681" lon="1.74386">
        <ele>2362</ele>
        <time>2020-02-14T00:28:53.871Z</time>
      </trkpt>
      <trkpt lat="42.50684" lon="1.74379">
        <ele>2362.6</ele>
        <time>2020-02-14T00:28:56.696Z</time>
      </trkpt>
      <trkpt lat="42.50686" lon="1.74373">
        <ele>2363.2</ele>
        <time>2020-02-14T00:28:59.011Z</time>
      </trkpt>
      <trkpt lat="42.50687" lon="1.74367">
        <ele>2363.9</ele>
        <time>2020-02-14T00:29:01.363Z</time>
      </trkpt>
      <trkpt lat="42.50691" lon="1.74362">
        <ele>2365.1</ele>
        <time>2020-02-14T00:29:04.101Z</time>
      </trkpt>
      <trkpt lat="42.50694" lon="1.74355">
        <ele>2366.2</ele>
        <time>2020-02-14T00:29:06.870Z</time>
      </trkpt>
      <trkpt lat="42.50696" lon="1.74349">
        <ele>2366.9</ele>
        <time>2020-02-14T00:29:09.266Z</time>
      </trkpt>
      <trkpt lat="42.50696" lon="1.74342">
        <ele>2367.4</ele>
        <time>2020-02-14T00:29:11.950Z</time>
      </trkpt>
      <trkpt lat="42.50697" lon="1.74335">
        <ele>2368.1</ele>
        <time>2020-02-14T00:29:14.602Z</time>
      </trkpt>
      <trkpt lat="42.50696" lon="1.74327">
        <ele>2368.8</ele>
        <time>2020-02-14T00:29:17.445Z</time>
      </trkpt>
      <trkpt lat="42.50698" lon="1.74319">
        <ele>2369.3</ele>
        <time>2020-02-14T00:29:20.328Z</time>
      </trkpt>
      <trkpt lat="42.50699" lon="1.74313">
        <ele>2369.9</ele>
        <time>2020-02-14T00:29:22.826Z</time>
      </trkpt>
      <trkpt lat="42.50699" lon="1.74306">
        <ele>2370.7</ele>
        <time>2020-02-14T00:29:25.263Z</time>
      </trkpt>
      <trkpt lat="42.50698" lon="1.743">
        <ele>2371.4</ele>
        <time>2020-02-14T00:29:27.543Z</time>
      </trkpt>
      <trkpt lat="42.50697" lon="1.7429">
        <ele>2371.8</ele>
        <time>2020-02-14T00:29:31.041Z</time>
      </trkpt>
      <trkpt lat="42.50697" lon="1.74283">
        <ele>2372.2</ele>
        <time>2020-02-14T00:29:33.561Z</time>
      </trkpt>
      <trkpt lat="42.50698" lon="1.74275">
        <ele>2372.5</ele>
        <time>2020-02-14T00:29:36.530Z</time>
      </trkpt>
      <trkpt lat="42.50699" lon="1.74266">
        <ele>2372.9</ele>
        <time>2020-02-14T00:29:39.573Z</time>
      </trkpt>
      <trkpt lat="42.50697" lon="1.74258">
        <ele>2373.3</ele>
        <time>2020-02-14T00:29:42.561Z</time>
      </trkpt>
      <trkpt lat="42.50696" lon="1.74251">
        <ele>2373.9</ele>
        <time>2020-02-14T00:29:45.346Z</time>
      </trkpt>
      <trkpt lat="42.50695" lon="1.74245">
        <ele>2373.8</ele>
        <time>2020-02-14T00:29:47.629Z</time>
      </trkpt>
      <trkpt lat="42.50694" lon="1.74238">
        <ele>2374.2</ele>
        <time>2020-02-14T00:29:49.940Z</time>
      </trkpt>
      <trkpt lat="42.50698" lon="1.74233">
        <ele>2374.4</ele>
        <time>2020-02-14T00:29:52.674Z</time>
      </trkpt>
      <trkpt lat="42.50703" lon="1.74226">
        <ele>2374.1</ele>
        <time>2020-02-14T00:29:55.788Z</time>
      </trkpt>
      <trkpt lat="42.50702" lon="1.7422">
        <ele>2374</ele>
        <time>2020-02-14T00:29:58.002Z</time>
      </trkpt>
      <trkpt lat="42.50703" lon="1.74212">
        <ele>2374.1</ele>
        <time>2020-02-14T00:30:01.154Z</time>
      </trkpt>
      <trkpt lat="42.50699" lon="1.74206">
        <ele>2375.4</ele>
        <time>2020-02-14T00:30:03.774Z</time>
      </trkpt>
      <trkpt lat="42.50696" lon="1.74201">
        <ele>2375.4</ele>
        <time>2020-02-14T00:30:06.170Z</time>
      </trkpt>
      <trkpt lat="42.50692" lon="1.74194">
        <ele>2375.4</ele>
        <time>2020-02-14T00:30:09.405Z</time>
      </trkpt>
      <trkpt lat="42.5069" lon="1.74188">
        <ele>2375.2</ele>
        <time>2020-02-14T00:30:11.908Z</time>
      </trkpt>
      <trkpt lat="42.5069" lon="1.74179">
        <ele>2375.4</ele>
        <time>2020-02-14T00:30:15.109Z</time>
      </trkpt>
      <trkpt lat="42.50686" lon="1.74171">
        <ele>2375.5</ele>
        <time>2020-02-14T00:30:18.488Z</time>
      </trkpt>
      <trkpt lat="42.50684" lon="1.74164">
        <ele>2375.8</ele>
        <time>2020-02-14T00:30:20.999Z</time>
      </trkpt>
      <trkpt lat="42.50677" lon="1.74155">
        <ele>2375.7</ele>
        <time>2020-02-14T00:30:25.678Z</time>
      </trkpt>
      <trkpt lat="42.50675" lon="1.7415">
        <ele>2376</ele>
        <time>2020-02-14T00:30:28.085Z</time>
      </trkpt>
      <trkpt lat="42.50672" lon="1.74141">
        <ele>2376.1</ele>
        <time>2020-02-14T00:30:31.461Z</time>
      </trkpt>
      <trkpt lat="42.50671" lon="1.7413">
        <ele>2376.2</ele>
        <time>2020-02-14T00:30:35.252Z</time>
      </trkpt>
      <trkpt lat="42.5067" lon="1.74122">
        <ele>2376.3</ele>
        <time>2020-02-14T00:30:38.362Z</time>
      </trkpt>
      <trkpt lat="42.50668" lon="1.74113">
        <ele>2376.5</ele>
        <time>2020-02-14T00:30:41.791Z</time>
      </trkpt>
      <trkpt lat="42.50666" lon="1.74106">
        <ele>2376.8</ele>
        <time>2020-02-14T00:30:44.293Z</time>
      </trkpt>
      <trkpt lat="42.50665" lon="1.74095">
        <ele>2377</ele>
        <time>2020-02-14T00:30:48.469Z</time>
      </trkpt>
      <trkpt lat="42.50665" lon="1.74087">
        <ele>2377.3</ele>
        <time>2020-02-14T00:30:51.273Z</time>
      </trkpt>
      <trkpt lat="42.50664" lon="1.7408">
        <ele>2377.2</ele>
        <time>2020-02-14T00:30:53.684Z</time>
      </trkpt>
      <trkpt lat="42.50663" lon="1.74072">
        <ele>2377.3</ele>
        <time>2020-02-14T00:30:56.644Z</time>
      </trkpt>
      <trkpt lat="42.50661" lon="1.74066">
        <ele>2377.3</ele>
        <time>2020-02-14T00:30:59.162Z</time>
      </trkpt>
      <trkpt lat="42.50659" lon="1.74058">
        <ele>2377.3</ele>
        <time>2020-02-14T00:31:02.076Z</time>
      </trkpt>
      <trkpt lat="42.50657" lon="1.74051">
        <ele>2377.4</ele>
        <time>2020-02-14T00:31:05.027Z</time>
      </trkpt>
      <trkpt lat="42.50655" lon="1.74038">
        <ele>2377.4</ele>
        <time>2020-02-14T00:31:09.546Z</time>
      </trkpt>
      <trkpt lat="42.50655" lon="1.74031">
        <ele>2377.4</ele>
        <time>2020-02-14T00:31:12.261Z</time>
      </trkpt>
      <trkpt lat="42.50655" lon="1.74021">
        <ele>2377.2</ele>
        <time>2020-02-14T00:31:15.607Z</time>
      </trkpt>
      <trkpt lat="42.50655" lon="1.74011">
        <ele>2377.1</ele>
        <time>2020-02-14T00:31:19.205Z</time>
      </trkpt>
      <trkpt lat="42.50655" lon="1.74004">
        <ele>2377.1</ele>
        <time>2020-02-14T00:31:21.828Z</time>
      </trkpt>
      <trkpt lat="42.50655" lon="1.73994">
        <ele>2377.3</ele>
        <time>2020-02-14T00:31:25.603Z</time>
      </trkpt>
      <trkpt lat="42.50656" lon="1.73985">
        <ele>2377.4</ele>
        <time>2020-02-14T00:31:28.717Z</time>
      </trkpt>
      <trkpt lat="42.50657" lon="1.73979">
        <ele>2377.9</ele>
        <time>2020-02-14T00:31:31.046Z</time>
      </trkpt>
      <trkpt lat="42.50656" lon="1.73972">
        <ele>2378.4</ele>
        <time>2020-02-14T00:31:33.688Z</time>
      </trkpt>
      <trkpt lat="42.50655" lon="1.73961">
        <ele>2378.6</ele>
        <time>2020-02-14T00:31:37.559Z</time>
      </trkpt>
      <trkpt lat="42.50657" lon="1.73952">
        <ele>2378.8</ele>
        <time>2020-02-14T00:31:41.189Z</time>
      </trkpt>
      <trkpt lat="42.50658" lon="1.73944">
        <ele>2379.1</ele>
        <time>2020-02-14T00:31:43.843Z</time>
      </trkpt>
      <trkpt lat="42.50658" lon="1.73937">
        <ele>2379.9</ele>
        <time>2020-02-14T00:31:46.547Z</time>
      </trkpt>
      <trkpt lat="42.50659" lon="1.73926">
        <ele>2380.5</ele>
        <time>2020-02-14T00:31:50.322Z</time>
      </trkpt>
      <trkpt lat="42.5066" lon="1.73919">
        <ele>2381.1</ele>
        <time>2020-02-14T00:31:53.308Z</time>
      </trkpt>
      <trkpt lat="42.50664" lon="1.73911">
        <ele>2381.9</ele>
        <time>2020-02-14T00:31:56.465Z</time>
      </trkpt>
      <trkpt lat="42.50667" lon="1.73905">
        <ele>2382.3</ele>
        <time>2020-02-14T00:31:59.207Z</time>
      </trkpt>
      <trkpt lat="42.50672" lon="1.73902">
        <ele>2382.6</ele>
        <time>2020-02-14T00:32:01.909Z</time>
      </trkpt>
      <trkpt lat="42.50675" lon="1.73895">
        <ele>2382.4</ele>
        <time>2020-02-14T00:32:04.598Z</time>
      </trkpt>
      <trkpt lat="42.50675" lon="1.73888">
        <ele>2382.5</ele>
        <time>2020-02-14T00:32:07.082Z</time>
      </trkpt>
      <trkpt lat="42.50674" lon="1.73882">
        <ele>2382.6</ele>
        <time>2020-02-14T00:32:09.364Z</time>
      </trkpt>
      <trkpt lat="42.50674" lon="1.73875">
        <ele>2382.8</ele>
        <time>2020-02-14T00:32:11.953Z</time>
      </trkpt>
      <trkpt lat="42.50672" lon="1.73869">
        <ele>2383.5</ele>
        <time>2020-02-14T00:32:14.419Z</time>
      </trkpt>
      <trkpt lat="42.50672" lon="1.73862">
        <ele>2384</ele>
        <time>2020-02-14T00:32:16.827Z</time>
      </trkpt>
      <trkpt lat="42.50673" lon="1.73856">
        <ele>2384.4</ele>
        <time>2020-02-14T00:32:19.026Z</time>
      </trkpt>
      <trkpt lat="42.50675" lon="1.73847">
        <ele>2385</ele>
        <time>2020-02-14T00:32:22.585Z</time>
      </trkpt>
      <trkpt lat="42.50676" lon="1.73841">
        <ele>2385.5</ele>
        <time>2020-02-14T00:32:24.825Z</time>
      </trkpt>
      <trkpt lat="42.5068" lon="1.73834">
        <ele>2386.2</ele>
        <time>2020-02-14T00:32:27.708Z</time>
      </trkpt>
      <trkpt lat="42.50681" lon="1.73828">
        <ele>2387</ele>
        <time>2020-02-14T00:32:30.072Z</time>
      </trkpt>
      <trkpt lat="42.50681" lon="1.73821">
        <ele>2387.3</ele>
        <time>2020-02-14T00:32:32.618Z</time>
      </trkpt>
      <trkpt lat="42.50682" lon="1.73812">
        <ele>2388</ele>
        <time>2020-02-14T00:32:35.826Z</time>
      </trkpt>
      <trkpt lat="42.50685" lon="1.73806">
        <ele>2388.8</ele>
        <time>2020-02-14T00:32:38.434Z</time>
      </trkpt>
      <trkpt lat="42.50689" lon="1.738">
        <ele>2389.4</ele>
        <time>2020-02-14T00:32:41.501Z</time>
      </trkpt>
      <trkpt lat="42.50691" lon="1.73794">
        <ele>2390</ele>
        <time>2020-02-14T00:32:43.890Z</time>
      </trkpt>
      <trkpt lat="42.5069" lon="1.73786">
        <ele>2390.7</ele>
        <time>2020-02-14T00:32:46.971Z</time>
      </trkpt>
      <trkpt lat="42.50684" lon="1.73784">
        <ele>2391.3</ele>
        <time>2020-02-14T00:32:49.501Z</time>
      </trkpt>
      <trkpt lat="42.50682" lon="1.73777">
        <ele>2392.2</ele>
        <time>2020-02-14T00:32:52.318Z</time>
      </trkpt>
      <trkpt lat="42.50682" lon="1.73767">
        <ele>2392.4</ele>
        <time>2020-02-14T00:32:56.208Z</time>
      </trkpt>
      <trkpt lat="42.50682" lon="1.7376">
        <ele>2392.8</ele>
        <time>2020-02-14T00:32:58.655Z</time>
      </trkpt>
      <trkpt lat="42.50683" lon="1.73754">
        <ele>2393.5</ele>
        <time>2020-02-14T00:33:01.040Z</time>
      </trkpt>
      <trkpt lat="42.50685" lon="1.73746">
        <ele>2394.2</ele>
        <time>2020-02-14T00:33:03.777Z</time>
      </trkpt>
      <trkpt lat="42.50684" lon="1.7374">
        <ele>2395.6</ele>
        <time>2020-02-14T00:33:06.106Z</time>
      </trkpt>
      <trkpt lat="42.50685" lon="1.73733">
        <ele>2395.8</ele>
        <time>2020-02-14T00:33:08.859Z</time>
      </trkpt>
      <trkpt lat="42.50686" lon="1.73726">
        <ele>2396.1</ele>
        <time>2020-02-14T00:33:11.250Z</time>
      </trkpt>
      <trkpt lat="42.50685" lon="1.73719">
        <ele>2396.7</ele>
        <time>2020-02-14T00:33:13.885Z</time>
      </trkpt>
      <trkpt lat="42.50683" lon="1.73711">
        <ele>2397.4</ele>
        <time>2020-02-14T00:33:16.885Z</time>
      </trkpt>
      <trkpt lat="42.50683" lon="1.73705">
        <ele>2397.9</ele>
        <time>2020-02-14T00:33:19.199Z</time>
      </trkpt>
      <trkpt lat="42.50682" lon="1.73696">
        <ele>2398.6</ele>
        <time>2020-02-14T00:33:22.466Z</time>
      </trkpt>
      <trkpt lat="42.50683" lon="1.73687">
        <ele>2399</ele>
        <time>2020-02-14T00:33:25.503Z</time>
      </trkpt>
      <trkpt lat="42.50683" lon="1.7368">
        <ele>2400.1</ele>
        <time>2020-02-14T00:33:28.396Z</time>
      </trkpt>
      <trkpt lat="42.50682" lon="1.73673">
        <ele>2400.3</ele>
        <time>2020-02-14T00:33:30.760Z</time>
      </trkpt>
      <trkpt lat="42.50682" lon="1.73665">
        <ele>2400.9</ele>
        <time>2020-02-14T00:33:33.761Z</time>
      </trkpt>
      <trkpt lat="42.50685" lon="1.73657">
        <ele>2401.4</ele>
        <time>2020-02-14T00:33:36.924Z</time>
      </trkpt>
      <trkpt lat="42.50687" lon="1.73651">
        <ele>2402</ele>
        <time>2020-02-14T00:33:39.250Z</time>
      </trkpt>
      <trkpt lat="42.50688" lon="1.73645">
        <ele>2402.4</ele>
        <time>2020-02-14T00:33:41.483Z</time>
      </trkpt>
      <trkpt lat="42.50689" lon="1.73638">
        <ele>2402.8</ele>
        <time>2020-02-14T00:33:43.950Z</time>
      </trkpt>
      <trkpt lat="42.5069" lon="1.7363">
        <ele>2403.3</ele>
        <time>2020-02-14T00:33:46.928Z</time>
      </trkpt>
      <trkpt lat="42.5069" lon="1.73621">
        <ele>2403.2</ele>
        <time>2020-02-14T00:33:50.170Z</time>
      </trkpt>
      <trkpt lat="42.50692" lon="1.73615">
        <ele>2403.3</ele>
        <time>2020-02-14T00:33:52.347Z</time>
      </trkpt>
      <trkpt lat="42.50695" lon="1.73611">
        <ele>2404.5</ele>
        <time>2020-02-14T00:33:54.734Z</time>
      </trkpt>
      <trkpt lat="42.50697" lon="1.73601">
        <ele>2405.5</ele>
        <time>2020-02-14T00:33:58.524Z</time>
      </trkpt>
      <trkpt lat="42.50695" lon="1.73592">
        <ele>2406.1</ele>
        <time>2020-02-14T00:34:01.821Z</time>
      </trkpt>
      <trkpt lat="42.50694" lon="1.73584">
        <ele>2406.1</ele>
        <time>2020-02-14T00:34:04.733Z</time>
      </trkpt>
      <trkpt lat="42.50692" lon="1.73578">
        <ele>2406.8</ele>
        <time>2020-02-14T00:34:07.330Z</time>
      </trkpt>
      <trkpt lat="42.50687" lon="1.73571">
        <ele>2407.6</ele>
        <time>2020-02-14T00:34:10.883Z</time>
      </trkpt>
      <trkpt lat="42.50686" lon="1.73565">
        <ele>2409.1</ele>
        <time>2020-02-14T00:34:13.379Z</time>
      </trkpt>
      <trkpt lat="42.50689" lon="1.7356">
        <ele>2410</ele>
        <time>2020-02-14T00:34:15.614Z</time>
      </trkpt>
      <trkpt lat="42.50693" lon="1.73556">
        <ele>2410.2</ele>
        <time>2020-02-14T00:34:17.810Z</time>
      </trkpt>
      <trkpt lat="42.50694" lon="1.73544">
        <ele>2410.8</ele>
        <time>2020-02-14T00:34:21.976Z</time>
      </trkpt>
      <trkpt lat="42.50691" lon="1.73536">
        <ele>2411.5</ele>
        <time>2020-02-14T00:34:25.243Z</time>
      </trkpt>
      <trkpt lat="42.50684" lon="1.73528">
        <ele>2412.1</ele>
        <time>2020-02-14T00:34:29.759Z</time>
      </trkpt>
      <trkpt lat="42.50681" lon="1.73523">
        <ele>2412.9</ele>
        <time>2020-02-14T00:34:32.190Z</time>
      </trkpt>
      <trkpt lat="42.50678" lon="1.73517">
        <ele>2414.1</ele>
        <time>2020-02-14T00:34:34.686Z</time>
      </trkpt>
      <trkpt lat="42.5068" lon="1.73511">
        <ele>2415.2</ele>
        <time>2020-02-14T00:34:37.023Z</time>
      </trkpt>
      <trkpt lat="42.5068" lon="1.73505">
        <ele>2416</ele>
        <time>2020-02-14T00:34:39.463Z</time>
      </trkpt>
      <trkpt lat="42.50683" lon="1.73498">
        <ele>2416.4</ele>
        <time>2020-02-14T00:34:41.975Z</time>
      </trkpt>
      <trkpt lat="42.50685" lon="1.73492">
        <ele>2416.8</ele>
        <time>2020-02-14T00:34:44.388Z</time>
      </trkpt>
      <trkpt lat="42.50686" lon="1.73484">
        <ele>2417</ele>
        <time>2020-02-14T00:34:47.306Z</time>
      </trkpt>
      <trkpt lat="42.50689" lon="1.73478">
        <ele>2418.2</ele>
        <time>2020-02-14T00:34:49.973Z</time>
      </trkpt>
      <trkpt lat="42.50688" lon="1.73472">
        <ele>2418.9</ele>
        <time>2020-02-14T00:34:52.246Z</time>
      </trkpt>
      <trkpt lat="42.50685" lon="1.73466">
        <ele>2420</ele>
        <time>2020-02-14T00:34:54.895Z</time>
      </trkpt>
      <trkpt lat="42.50682" lon="1.73459">
        <ele>2421.1</ele>
        <time>2020-02-14T00:34:57.736Z</time>
      </trkpt>
      <trkpt lat="42.50682" lon="1.73453">
        <ele>2421.7</ele>
        <time>2020-02-14T00:35:00.020Z</time>
      </trkpt>
      <trkpt lat="42.50682" lon="1.73446">
        <ele>2422.2</ele>
        <time>2020-02-14T00:35:02.438Z</time>
      </trkpt>
      <trkpt lat="42.50684" lon="1.7344">
        <ele>2422.8</ele>
        <time>2020-02-14T00:35:04.930Z</time>
      </trkpt>
      <trkpt lat="42.50689" lon="1.73442">
        <ele>2423.1</ele>
        <time>2020-02-14T00:35:07.211Z</time>
      </trkpt>
      <trkpt lat="42.50692" lon="1.73436">
        <ele>2423.6</ele>
        <time>2020-02-14T00:35:09.827Z</time>
      </trkpt>
      <trkpt lat="42.50696" lon="1.73434">
        <ele>2424</ele>
        <time>2020-02-14T00:35:12.184Z</time>
      </trkpt>
      <trkpt lat="42.507" lon="1.73438">
        <ele>2427.4</ele>
        <time>2020-02-14T00:35:14.931Z</time>
      </trkpt>
      <trkpt lat="42.50701" lon="1.73432">
        <ele>2427.7</ele>
        <time>2020-02-14T00:35:17.194Z</time>
      </trkpt>
      <trkpt lat="42.50704" lon="1.73425">
        <ele>2428.4</ele>
        <time>2020-02-14T00:35:20.123Z</time>
      </trkpt>
      <trkpt lat="42.50707" lon="1.73418">
        <ele>2429.1</ele>
        <time>2020-02-14T00:35:22.892Z</time>
      </trkpt>
      <trkpt lat="42.50708" lon="1.73412">
        <ele>2430.9</ele>
        <time>2020-02-14T00:35:25.492Z</time>
      </trkpt>
      <trkpt lat="42.50712" lon="1.73407">
        <ele>2432.1</ele>
        <time>2020-02-14T00:35:27.888Z</time>
      </trkpt>
      <trkpt lat="42.50713" lon="1.73401">
        <ele>2432.9</ele>
        <time>2020-02-14T00:35:30.122Z</time>
      </trkpt>
      <trkpt lat="42.50716" lon="1.73396">
        <ele>2433.5</ele>
        <time>2020-02-14T00:35:32.631Z</time>
      </trkpt>
      <trkpt lat="42.50718" lon="1.73388">
        <ele>2434.6</ele>
        <time>2020-02-14T00:35:35.452Z</time>
      </trkpt>
      <trkpt lat="42.50722" lon="1.73385">
        <ele>2435.5</ele>
        <time>2020-02-14T00:35:37.756Z</time>
      </trkpt>
      <trkpt lat="42.50724" lon="1.73379">
        <ele>2436.9</ele>
        <time>2020-02-14T00:35:40.251Z</time>
      </trkpt>
      <trkpt lat="42.50725" lon="1.73372">
        <ele>2438.2</ele>
        <time>2020-02-14T00:35:42.892Z</time>
      </trkpt>
      <trkpt lat="42.50729" lon="1.73366">
        <ele>2440.3</ele>
        <time>2020-02-14T00:35:46.061Z</time>
      </trkpt>
      <trkpt lat="42.50731" lon="1.73359">
        <ele>2441.4</ele>
        <time>2020-02-14T00:35:48.638Z</time>
      </trkpt>
      <trkpt lat="42.50734" lon="1.73354">
        <ele>2442.3</ele>
        <time>2020-02-14T00:35:51.076Z</time>
      </trkpt>
      <trkpt lat="42.50735" lon="1.73347">
        <ele>2442.9</ele>
        <time>2020-02-14T00:35:53.466Z</time>
      </trkpt>
      <trkpt lat="42.50737" lon="1.73341">
        <ele>2443.8</ele>
        <time>2020-02-14T00:35:55.991Z</time>
      </trkpt>
      <trkpt lat="42.5074" lon="1.73335">
        <ele>2444.8</ele>
        <time>2020-02-14T00:35:58.578Z</time>
      </trkpt>
      <trkpt lat="42.50742" lon="1.7333">
        <ele>2445.9</ele>
        <time>2020-02-14T00:36:00.894Z</time>
      </trkpt>
      <trkpt lat="42.50743" lon="1.73323">
        <ele>2447.9</ele>
        <time>2020-02-14T00:36:03.400Z</time>
      </trkpt>
      <trkpt lat="42.50743" lon="1.73316">
        <ele>2449.3</ele>
        <time>2020-02-14T00:36:06.105Z</time>
      </trkpt>
      <trkpt lat="42.50743" lon="1.73309">
        <ele>2450</ele>
        <time>2020-02-14T00:36:08.391Z</time>
      </trkpt>
      <trkpt lat="42.50747" lon="1.73305">
        <ele>2450.7</ele>
        <time>2020-02-14T00:36:10.852Z</time>
      </trkpt>
      <trkpt lat="42.5075" lon="1.73299">
        <ele>2452.1</ele>
        <time>2020-02-14T00:36:13.511Z</time>
      </trkpt>
      <trkpt lat="42.50751" lon="1.73293">
        <ele>2453.3</ele>
        <time>2020-02-14T00:36:15.837Z</time>
      </trkpt>
      <trkpt lat="42.50755" lon="1.73289">
        <ele>2455.1</ele>
        <time>2020-02-14T00:36:18.454Z</time>
      </trkpt>
      <trkpt lat="42.50758" lon="1.73283">
        <ele>2456</ele>
        <time>2020-02-14T00:36:20.746Z</time>
      </trkpt>
      <trkpt lat="42.50759" lon="1.73277">
        <ele>2457.2</ele>
        <time>2020-02-14T00:36:23.114Z</time>
      </trkpt>
      <trkpt lat="42.5076" lon="1.73269">
        <ele>2458.3</ele>
        <time>2020-02-14T00:36:26.051Z</time>
      </trkpt>
      <trkpt lat="42.5076" lon="1.73262">
        <ele>2459.6</ele>
        <time>2020-02-14T00:36:28.771Z</time>
      </trkpt>
      <trkpt lat="42.50763" lon="1.73256">
        <ele>2459.9</ele>
        <time>2020-02-14T00:36:31.269Z</time>
      </trkpt>
      <trkpt lat="42.50763" lon="1.73249">
        <ele>2460.8</ele>
        <time>2020-02-14T00:36:33.819Z</time>
      </trkpt>
      <trkpt lat="42.50767" lon="1.73243">
        <ele>2461.9</ele>
        <time>2020-02-14T00:36:36.615Z</time>
      </trkpt>
      <trkpt lat="42.50769" lon="1.73237">
        <ele>2463.1</ele>
        <time>2020-02-14T00:36:39.114Z</time>
      </trkpt>
      <trkpt lat="42.50771" lon="1.7323">
        <ele>2465.2</ele>
        <time>2020-02-14T00:36:42.045Z</time>
      </trkpt>
      <trkpt lat="42.50773" lon="1.73224">
        <ele>2466.3</ele>
        <time>2020-02-14T00:36:44.322Z</time>
      </trkpt>
      <trkpt lat="42.50774" lon="1.73218">
        <ele>2467.1</ele>
        <time>2020-02-14T00:36:46.805Z</time>
      </trkpt>
      <trkpt lat="42.50773" lon="1.7321">
        <ele>2467.6</ele>
        <time>2020-02-14T00:36:49.561Z</time>
      </trkpt>
      <trkpt lat="42.50774" lon="1.73202">
        <ele>2468.4</ele>
        <time>2020-02-14T00:36:52.390Z</time>
      </trkpt>
      <trkpt lat="42.50778" lon="1.73199">
        <ele>2469.7</ele>
        <time>2020-02-14T00:36:54.713Z</time>
      </trkpt>
      <trkpt lat="42.50777" lon="1.73188">
        <ele>2470.8</ele>
        <time>2020-02-14T00:36:58.967Z</time>
      </trkpt>
      <trkpt lat="42.50777" lon="1.73181">
        <ele>2472.2</ele>
        <time>2020-02-14T00:37:01.566Z</time>
      </trkpt>
      <trkpt lat="42.50778" lon="1.73175">
        <ele>2472.8</ele>
        <time>2020-02-14T00:37:03.823Z</time>
      </trkpt>
      <trkpt lat="42.50781" lon="1.73169">
        <ele>2473.1</ele>
        <time>2020-02-14T00:37:06.045Z</time>
      </trkpt>
      <trkpt lat="42.50781" lon="1.73163">
        <ele>2473.6</ele>
        <time>2020-02-14T00:37:08.498Z</time>
      </trkpt>
      <trkpt lat="42.50784" lon="1.73157">
        <ele>2474.2</ele>
        <time>2020-02-14T00:37:10.990Z</time>
      </trkpt>
      <trkpt lat="42.50787" lon="1.73151">
        <ele>2475.5</ele>
        <time>2020-02-14T00:37:13.519Z</time>
      </trkpt>
      <trkpt lat="42.50791" lon="1.73145">
        <ele>2476.4</ele>
        <time>2020-02-14T00:37:16.547Z</time>
      </trkpt>
      <trkpt lat="42.5079" lon="1.73138">
        <ele>2477.4</ele>
        <time>2020-02-14T00:37:18.966Z</time>
      </trkpt>
      <trkpt lat="42.50791" lon="1.73131">
        <ele>2478.4</ele>
        <time>2020-02-14T00:37:21.372Z</time>
      </trkpt>
      <trkpt lat="42.50791" lon="1.73125">
        <ele>2479.6</ele>
        <time>2020-02-14T00:37:23.633Z</time>
      </trkpt>
      <trkpt lat="42.5079" lon="1.73119">
        <ele>2480.4</ele>
        <time>2020-02-14T00:37:26.000Z</time>
      </trkpt>
      <trkpt lat="42.50787" lon="1.73112">
        <ele>2481.1</ele>
        <time>2020-02-14T00:37:28.963Z</time>
      </trkpt>
      <trkpt lat="42.50786" lon="1.73105">
        <ele>2482.4</ele>
        <time>2020-02-14T00:37:31.578Z</time>
      </trkpt>
      <trkpt lat="42.50785" lon="1.73098">
        <ele>2483.7</ele>
        <time>2020-02-14T00:37:34.250Z</time>
      </trkpt>
      <trkpt lat="42.50787" lon="1.73092">
        <ele>2484.5</ele>
        <time>2020-02-14T00:37:36.625Z</time>
      </trkpt>
      <trkpt lat="42.50787" lon="1.73085">
        <ele>2485.1</ele>
        <time>2020-02-14T00:37:38.979Z</time>
      </trkpt>
      <trkpt lat="42.50792" lon="1.73079">
        <ele>2485.4</ele>
        <time>2020-02-14T00:37:42.067Z</time>
      </trkpt>
      <trkpt lat="42.50793" lon="1.73073">
        <ele>2486.5</ele>
        <time>2020-02-14T00:37:44.438Z</time>
      </trkpt>
      <trkpt lat="42.50795" lon="1.73067">
        <ele>2487.2</ele>
        <time>2020-02-14T00:37:46.787Z</time>
      </trkpt>
      <trkpt lat="42.50799" lon="1.73063">
        <ele>2489.7</ele>
        <time>2020-02-14T00:37:49.455Z</time>
      </trkpt>
      <trkpt lat="42.50803" lon="1.73058">
        <ele>2490.6</ele>
        <time>2020-02-14T00:37:52.095Z</time>
      </trkpt>
      <trkpt lat="42.50805" lon="1.73051">
        <ele>2491.4</ele>
        <time>2020-02-14T00:37:55.101Z</time>
      </trkpt>
      <trkpt lat="42.5081" lon="1.73048">
        <ele>2492</ele>
        <time>2020-02-14T00:37:57.389Z</time>
      </trkpt>
      <trkpt lat="42.50814" lon="1.73046">
        <ele>2492.3</ele>
        <time>2020-02-14T00:37:59.771Z</time>
      </trkpt>
      <trkpt lat="42.50819" lon="1.73044">
        <ele>2492.7</ele>
        <time>2020-02-14T00:38:02.021Z</time>
      </trkpt>
      <trkpt lat="42.50823" lon="1.73039">
        <ele>2494.1</ele>
        <time>2020-02-14T00:38:04.605Z</time>
      </trkpt>
      <trkpt lat="42.50826" lon="1.73035">
        <ele>2495.2</ele>
        <time>2020-02-14T00:38:06.909Z</time>
      </trkpt>
      <trkpt lat="42.5083" lon="1.73032">
        <ele>2496.8</ele>
        <time>2020-02-14T00:38:09.297Z</time>
      </trkpt>
      <trkpt lat="42.5083" lon="1.73025">
        <ele>2500.1</ele>
        <time>2020-02-14T00:38:12.004Z</time>
      </trkpt>
      <trkpt lat="42.50833" lon="1.7302">
        <ele>2501</ele>
        <time>2020-02-14T00:38:14.327Z</time>
      </trkpt>
      <trkpt lat="42.50835" lon="1.73014">
        <ele>2503.2</ele>
        <time>2020-02-14T00:38:17.037Z</time>
      </trkpt>
      <trkpt lat="42.50838" lon="1.73008">
        <ele>2505.8</ele>
        <time>2020-02-14T00:38:19.744Z</time>
      </trkpt>
      <trkpt lat="42.50843" lon="1.73008">
        <ele>2509.8</ele>
        <time>2020-02-14T00:38:22.643Z</time>
      </trkpt>
      <trkpt lat="42.50846" lon="1.73004">
        <ele>2511.1</ele>
        <time>2020-02-14T00:38:24.889Z</time>
      </trkpt>
      <trkpt lat="42.50849" lon="1.72997">
        <ele>2515.2</ele>
        <time>2020-02-14T00:38:28.111Z</time>
      </trkpt>
      <trkpt lat="42.50851" lon="1.72992">
        <ele>2516.5</ele>
        <time>2020-02-14T00:38:30.545Z</time>
      </trkpt>
      <trkpt lat="42.50854" lon="1.72987">
        <ele>2520.5</ele>
        <time>2020-02-14T00:38:33.335Z</time>
      </trkpt>
      <trkpt lat="42.50859" lon="1.72986">
        <ele>2521.9</ele>
        <time>2020-02-14T00:38:35.679Z</time>
      </trkpt>
      <trkpt lat="42.50859" lon="1.72979">
        <ele>2523.4</ele>
        <time>2020-02-14T00:38:38.521Z</time>
      </trkpt>
      <trkpt lat="42.50861" lon="1.72973">
        <ele>2525.4</ele>
        <time>2020-02-14T00:38:41.082Z</time>
      </trkpt>
      <trkpt lat="42.50861" lon="1.72966">
        <ele>2528.3</ele>
        <time>2020-02-14T00:38:43.803Z</time>
      </trkpt>
      <trkpt lat="42.50856" lon="1.72969">
        <ele>2528.6</ele>
        <time>2020-02-14T00:38:46.247Z</time>
      </trkpt>
      <trkpt lat="42.50857" lon="1.72962">
        <ele>2528.5</ele>
        <time>2020-02-14T00:38:48.767Z</time>
      </trkpt>
      <trkpt lat="42.50858" lon="1.72969">
        <ele>2527.6</ele>
        <time>2020-02-14T00:38:51.614Z</time>
      </trkpt>
      <trkpt lat="42.50854" lon="1.72968">
        <ele>2527.2</ele>
        <time>2020-02-14T00:38:53.953Z</time>
      </trkpt>
      <trkpt lat="42.50856" lon="1.72962">
        <ele>2527.4</ele>
        <time>2020-02-14T00:38:56.238Z</time>
      </trkpt>
      <trkpt lat="42.50859" lon="1.72969">
        <ele>2527</ele>
        <time>2020-02-14T00:38:59.061Z</time>
      </trkpt>
      <trkpt lat="42.50864" lon="1.72967">
        <ele>2527.5</ele>
        <time>2020-02-14T00:39:01.691Z</time>
      </trkpt>
      <trkpt lat="42.50861" lon="1.72972">
        <ele>2525.5</ele>
        <time>2020-02-14T00:39:04.386Z</time>
      </trkpt>
      <trkpt lat="42.5086" lon="1.72966">
        <ele>2523.4</ele>
        <time>2020-02-14T00:39:06.845Z</time>
      </trkpt>
      <trkpt lat="42.50855" lon="1.72962">
        <ele>2520.5</ele>
        <time>2020-02-14T00:39:09.857Z</time>
      </trkpt>
      <trkpt lat="42.50858" lon="1.72967">
        <ele>2525.3</ele>
        <time>2020-02-14T00:39:13.016Z</time>
      </trkpt>
      <trkpt lat="42.50861" lon="1.72973">
        <ele>2526.7</ele>
        <time>2020-02-14T00:39:15.529Z</time>
      </trkpt>
      <trkpt lat="42.50866" lon="1.72974">
        <ele>2529.1</ele>
        <time>2020-02-14T00:39:18.030Z</time>
      </trkpt>
      <trkpt lat="42.50871" lon="1.72973">
        <ele>2531.3</ele>
        <time>2020-02-14T00:39:20.664Z</time>
      </trkpt>
      <trkpt lat="42.50875" lon="1.72973">
        <ele>2533.5</ele>
        <time>2020-02-14T00:39:23.060Z</time>
      </trkpt>
      <trkpt lat="42.5088" lon="1.72972">
        <ele>2535</ele>
        <time>2020-02-14T00:39:25.385Z</time>
      </trkpt>
      <trkpt lat="42.50884" lon="1.72968">
        <ele>2538.4</ele>
        <time>2020-02-14T00:39:28.051Z</time>
      </trkpt>
      <trkpt lat="42.50885" lon="1.72963">
        <ele>2539.6</ele>
        <time>2020-02-14T00:39:30.375Z</time>
      </trkpt>
      <trkpt lat="42.50886" lon="1.72956">
        <ele>2540.9</ele>
        <time>2020-02-14T00:39:32.731Z</time>
      </trkpt>
      <trkpt lat="42.50888" lon="1.7295">
        <ele>2542</ele>
        <time>2020-02-14T00:39:35.120Z</time>
      </trkpt>
      <trkpt lat="42.50889" lon="1.72944">
        <ele>2543.4</ele>
        <time>2020-02-14T00:39:37.560Z</time>
      </trkpt>
      <trkpt lat="42.50891" lon="1.72938">
        <ele>2545.1</ele>
        <time>2020-02-14T00:39:39.946Z</time>
      </trkpt>
      <trkpt lat="42.50893" lon="1.72932">
        <ele>2546.3</ele>
        <time>2020-02-14T00:39:42.245Z</time>
      </trkpt>
      <trkpt lat="42.50897" lon="1.72929">
        <ele>2548.1</ele>
        <time>2020-02-14T00:39:44.846Z</time>
      </trkpt>
      <trkpt lat="42.50901" lon="1.72922">
        <ele>2551</ele>
        <time>2020-02-14T00:39:47.937Z</time>
      </trkpt>
      <trkpt lat="42.50903" lon="1.72917">
        <ele>2552.1</ele>
        <time>2020-02-14T00:39:50.181Z</time>
      </trkpt>
      <trkpt lat="42.50906" lon="1.72912">
        <ele>2555.2</ele>
        <time>2020-02-14T00:39:52.779Z</time>
      </trkpt>
      <trkpt lat="42.5091" lon="1.72911">
        <ele>2556.4</ele>
        <time>2020-02-14T00:39:55.104Z</time>
      </trkpt>
      <trkpt lat="42.50915" lon="1.7291">
        <ele>2558.5</ele>
        <time>2020-02-14T00:39:57.771Z</time>
      </trkpt>
      <trkpt lat="42.50916" lon="1.72904">
        <ele>2559.7</ele>
        <time>2020-02-14T00:40:00.096Z</time>
      </trkpt>
      <trkpt lat="42.50922" lon="1.72904">
        <ele>2561</ele>
        <time>2020-02-14T00:40:02.692Z</time>
      </trkpt>
      <trkpt lat="42.50927" lon="1.72906">
        <ele>2562.6</ele>
        <time>2020-02-14T00:40:05.626Z</time>
      </trkpt>
      <trkpt lat="42.50932" lon="1.72906">
        <ele>2564.5</ele>
        <time>2020-02-14T00:40:08.065Z</time>
      </trkpt>
      <trkpt lat="42.50938" lon="1.7291">
        <ele>2564.9</ele>
        <time>2020-02-14T00:40:11.341Z</time>
      </trkpt>
      <trkpt lat="42.50942" lon="1.72914">
        <ele>2565.5</ele>
        <time>2020-02-14T00:40:13.700Z</time>
      </trkpt>
      <trkpt lat="42.50949" lon="1.72914">
        <ele>2566</ele>
        <time>2020-02-14T00:40:16.930Z</time>
      </trkpt>
      <trkpt lat="42.50955" lon="1.72918">
        <ele>2566.7</ele>
        <time>2020-02-14T00:40:20.453Z</time>
      </trkpt>
      <trkpt lat="42.5096" lon="1.72919">
        <ele>2567.7</ele>
        <time>2020-02-14T00:40:22.932Z</time>
      </trkpt>
      <trkpt lat="42.50965" lon="1.72915">
        <ele>2568.6</ele>
        <time>2020-02-14T00:40:25.453Z</time>
      </trkpt>
      <trkpt lat="42.50969" lon="1.72912">
        <ele>2570</ele>
        <time>2020-02-14T00:40:27.835Z</time>
      </trkpt>
      <trkpt lat="42.50975" lon="1.72913">
        <ele>2571.3</ele>
        <time>2020-02-14T00:40:30.952Z</time>
      </trkpt>
      <trkpt lat="42.5098" lon="1.72915">
        <ele>2571.9</ele>
        <time>2020-02-14T00:40:33.643Z</time>
      </trkpt>
      <trkpt lat="42.50987" lon="1.72915">
        <ele>2572.4</ele>
        <time>2020-02-14T00:40:36.823Z</time>
      </trkpt>
      <trkpt lat="42.50992" lon="1.72914">
        <ele>2573</ele>
        <time>2020-02-14T00:40:39.247Z</time>
      </trkpt>
      <trkpt lat="42.50997" lon="1.72913">
        <ele>2573.7</ele>
        <time>2020-02-14T00:40:41.816Z</time>
      </trkpt>
      <trkpt lat="42.51" lon="1.72909">
        <ele>2575.1</ele>
        <time>2020-02-14T00:40:44.096Z</time>
      </trkpt>
      <trkpt lat="42.51004" lon="1.72906">
        <ele>2575.9</ele>
        <time>2020-02-14T00:40:46.366Z</time>
      </trkpt>
      <trkpt lat="42.51007" lon="1.72901">
        <ele>2577.1</ele>
        <time>2020-02-14T00:40:48.722Z</time>
      </trkpt>
      <trkpt lat="42.51012" lon="1.72901">
        <ele>2578.1</ele>
        <time>2020-02-14T00:40:51.104Z</time>
      </trkpt>
      <trkpt lat="42.51015" lon="1.72897">
        <ele>2579.1</ele>
        <time>2020-02-14T00:40:53.354Z</time>
      </trkpt>
      <trkpt lat="42.51019" lon="1.72895">
        <ele>2580.3</ele>
        <time>2020-02-14T00:40:55.739Z</time>
      </trkpt>
      <trkpt lat="42.51023" lon="1.72889">
        <ele>2581.1</ele>
        <time>2020-02-14T00:40:58.240Z</time>
      </trkpt>
      <trkpt lat="42.51027" lon="1.72888">
        <ele>2582.1</ele>
        <time>2020-02-14T00:41:00.658Z</time>
      </trkpt>
      <trkpt lat="42.51032" lon="1.72888">
        <ele>2584.8</ele>
        <time>2020-02-14T00:41:03.214Z</time>
      </trkpt>
      <trkpt lat="42.51037" lon="1.7289">
        <ele>2585.6</ele>
        <time>2020-02-14T00:41:05.589Z</time>
      </trkpt>
      <trkpt lat="42.51045" lon="1.72887">
        <ele>2586</ele>
        <time>2020-02-14T00:41:09.618Z</time>
      </trkpt>
      <trkpt lat="42.51051" lon="1.72888">
        <ele>2586.1</ele>
        <time>2020-02-14T00:41:12.553Z</time>
      </trkpt>
      <trkpt lat="42.51056" lon="1.72889">
        <ele>2586.3</ele>
        <time>2020-02-14T00:41:14.938Z</time>
      </trkpt>
      <trkpt lat="42.5106" lon="1.72891">
        <ele>2587.6</ele>
        <time>2020-02-14T00:41:17.245Z</time>
      </trkpt>
      <trkpt lat="42.51064" lon="1.72894">
        <ele>2588.6</ele>
        <time>2020-02-14T00:41:19.626Z</time>
      </trkpt>
      <trkpt lat="42.51069" lon="1.72895">
        <ele>2589.4</ele>
        <time>2020-02-14T00:41:22.331Z</time>
      </trkpt>
      <trkpt lat="42.51077" lon="1.72894">
        <ele>2590</ele>
        <time>2020-02-14T00:41:26.055Z</time>
      </trkpt>
      <trkpt lat="42.51083" lon="1.72893">
        <ele>2590.6</ele>
        <time>2020-02-14T00:41:28.833Z</time>
      </trkpt>
      <trkpt lat="42.51089" lon="1.72894">
        <ele>2591.3</ele>
        <time>2020-02-14T00:41:31.895Z</time>
      </trkpt>
      <trkpt lat="42.51094" lon="1.72896">
        <ele>2592</ele>
        <time>2020-02-14T00:41:34.745Z</time>
      </trkpt>
      <trkpt lat="42.511" lon="1.72896">
        <ele>2593</ele>
        <time>2020-02-14T00:41:37.664Z</time>
      </trkpt>
      <trkpt lat="42.51105" lon="1.72898">
        <ele>2594.1</ele>
        <time>2020-02-14T00:41:40.132Z</time>
      </trkpt>
      <trkpt lat="42.51111" lon="1.72902">
        <ele>2595.1</ele>
        <time>2020-02-14T00:41:43.438Z</time>
      </trkpt>
      <trkpt lat="42.51118" lon="1.72901">
        <ele>2596.1</ele>
        <time>2020-02-14T00:41:46.759Z</time>
      </trkpt>
      <trkpt lat="42.51122" lon="1.72904">
        <ele>2597.1</ele>
        <time>2020-02-14T00:41:49.155Z</time>
      </trkpt>
      <trkpt lat="42.51127" lon="1.72906">
        <ele>2599.1</ele>
        <time>2020-02-14T00:41:52.017Z</time>
      </trkpt>
      <trkpt lat="42.51131" lon="1.72902">
        <ele>2600.1</ele>
        <time>2020-02-14T00:41:54.266Z</time>
      </trkpt>
      <trkpt lat="42.51136" lon="1.72903">
        <ele>2604.9</ele>
        <time>2020-02-14T00:41:57.570Z</time>
      </trkpt>
      <trkpt lat="42.51141" lon="1.72903">
        <ele>2606.7</ele>
        <time>2020-02-14T00:41:59.952Z</time>
      </trkpt>
      <trkpt lat="42.51145" lon="1.72908">
        <ele>2609</ele>
        <time>2020-02-14T00:42:02.660Z</time>
      </trkpt>
      <trkpt lat="42.51151" lon="1.72906">
        <ele>2610.1</ele>
        <time>2020-02-14T00:42:05.617Z</time>
      </trkpt>
      <trkpt lat="42.51155" lon="1.72911">
        <ele>2611.3</ele>
        <time>2020-02-14T00:42:08.611Z</time>
      </trkpt>
      <trkpt lat="42.51161" lon="1.7291">
        <ele>2613.8</ele>
        <time>2020-02-14T00:42:11.635Z</time>
      </trkpt>
      <trkpt lat="42.51167" lon="1.72912">
        <ele>2614.5</ele>
        <time>2020-02-14T00:42:14.609Z</time>
      </trkpt>
      <trkpt lat="42.51173" lon="1.72913">
        <ele>2615.4</ele>
        <time>2020-02-14T00:42:17.563Z</time>
      </trkpt>
      <trkpt lat="42.51178" lon="1.72913">
        <ele>2616.1</ele>
        <time>2020-02-14T00:42:20.215Z</time>
      </trkpt>
      <trkpt lat="42.51185" lon="1.72915">
        <ele>2616.4</ele>
        <time>2020-02-14T00:42:23.385Z</time>
      </trkpt>
      <trkpt lat="42.51189" lon="1.72917">
        <ele>2616.5</ele>
        <time>2020-02-14T00:42:25.584Z</time>
      </trkpt>
      <trkpt lat="42.51191" lon="1.72923">
        <ele>2616.8</ele>
        <time>2020-02-14T00:42:27.871Z</time>
      </trkpt>
      <trkpt lat="42.51196" lon="1.72927">
        <ele>2617.2</ele>
        <time>2020-02-14T00:42:30.490Z</time>
      </trkpt>
      <trkpt lat="42.51201" lon="1.72933">
        <ele>2617.8</ele>
        <time>2020-02-14T00:42:33.909Z</time>
      </trkpt>
      <trkpt lat="42.51206" lon="1.72937">
        <ele>2618.2</ele>
        <time>2020-02-14T00:42:36.483Z</time>
      </trkpt>
      <trkpt lat="42.51214" lon="1.72942">
        <ele>2618.5</ele>
        <time>2020-02-14T00:42:40.913Z</time>
      </trkpt>
      <trkpt lat="42.51221" lon="1.72946">
        <ele>2618.7</ele>
        <time>2020-02-14T00:42:44.813Z</time>
      </trkpt>
      <trkpt lat="42.51226" lon="1.72952">
        <ele>2618.7</ele>
        <time>2020-02-14T00:42:47.848Z</time>
      </trkpt>
      <trkpt lat="42.51232" lon="1.72956">
        <ele>2618.9</ele>
        <time>2020-02-14T00:42:50.972Z</time>
      </trkpt>
      <trkpt lat="42.51236" lon="1.72957">
        <ele>2619</ele>
        <time>2020-02-14T00:42:53.144Z</time>
      </trkpt>
      <trkpt lat="42.51243" lon="1.72954">
        <ele>2618.9</ele>
        <time>2020-02-14T00:42:57.029Z</time>
      </trkpt>
      <trkpt lat="42.51249" lon="1.72958">
        <ele>2618.7</ele>
        <time>2020-02-14T00:43:00.156Z</time>
      </trkpt>
      <trkpt lat="42.51254" lon="1.72957">
        <ele>2618</ele>
        <time>2020-02-14T00:43:02.579Z</time>
      </trkpt>
      <trkpt lat="42.51258" lon="1.72953">
        <ele>2617.9</ele>
        <time>2020-02-14T00:43:04.903Z</time>
      </trkpt>
      <trkpt lat="42.51266" lon="1.72948">
        <ele>2618</ele>
        <time>2020-02-14T00:43:09.006Z</time>
      </trkpt>
      <trkpt lat="42.5127" lon="1.72944">
        <ele>2618</ele>
        <time>2020-02-14T00:43:11.672Z</time>
      </trkpt>
      <trkpt lat="42.51275" lon="1.72943">
        <ele>2618.2</ele>
        <time>2020-02-14T00:43:13.920Z</time>
      </trkpt>
      <trkpt lat="42.51282" lon="1.72941">
        <ele>2618.2</ele>
        <time>2020-02-14T00:43:17.460Z</time>
      </trkpt>
      <trkpt lat="42.51277" lon="1.72942">
        <ele>2620.1</ele>
        <time>2020-02-14T00:43:19.917Z</time>
      </trkpt>
      <trkpt lat="42.5128" lon="1.72935">
        <ele>2619.3</ele>
        <time>2020-02-14T00:43:22.658Z</time>
      </trkpt>
      <trkpt lat="42.51283" lon="1.72942">
        <ele>2619.2</ele>
        <time>2020-02-14T00:43:25.273Z</time>
      </trkpt>
      <trkpt lat="42.51287" lon="1.72934">
        <ele>2619</ele>
        <time>2020-02-14T00:43:28.661Z</time>
      </trkpt>
      <trkpt lat="42.51286" lon="1.72941">
        <ele>2618.7</ele>
        <time>2020-02-14T00:43:31.365Z</time>
      </trkpt>
      <trkpt lat="42.51284" lon="1.72946">
        <ele>2619.6</ele>
        <time>2020-02-14T00:43:33.605Z</time>
      </trkpt>
      <trkpt lat="42.51288" lon="1.72945">
        <ele>2620.5</ele>
        <time>2020-02-14T00:43:35.838Z</time>
      </trkpt>
      <trkpt lat="42.51283" lon="1.72944">
        <ele>2620.7</ele>
        <time>2020-02-14T00:43:38.187Z</time>
      </trkpt>
      <trkpt lat="42.51278" lon="1.7294">
        <ele>2625.4</ele>
        <time>2020-02-14T00:43:41.830Z</time>
      </trkpt>
      <trkpt lat="42.51274" lon="1.72936">
        <ele>2626</ele>
        <time>2020-02-14T00:43:44.367Z</time>
      </trkpt>
      <trkpt lat="42.51279" lon="1.72938">
        <ele>2625.9</ele>
        <time>2020-02-14T00:43:46.955Z</time>
      </trkpt>
      <trkpt lat="42.51283" lon="1.72942">
        <ele>2625.6</ele>
        <time>2020-02-14T00:43:49.364Z</time>
      </trkpt>
      <trkpt lat="42.51278" lon="1.7294">
        <ele>2623.3</ele>
        <time>2020-02-14T00:43:52.027Z</time>
      </trkpt>
      <trkpt lat="42.5128" lon="1.72946">
        <ele>2622.4</ele>
        <time>2020-02-14T00:43:54.372Z</time>
      </trkpt>
      <trkpt lat="42.51284" lon="1.72945">
        <ele>2620.4</ele>
        <time>2020-02-14T00:43:56.853Z</time>
      </trkpt>
      <trkpt lat="42.5129" lon="1.72946">
        <ele>2619.1</ele>
        <time>2020-02-14T00:43:59.591Z</time>
      </trkpt>
      <trkpt lat="42.51284" lon="1.72945">
        <ele>2618</ele>
        <time>2020-02-14T00:44:02.375Z</time>
      </trkpt>
      <trkpt lat="42.51289" lon="1.72946">
        <ele>2618.3</ele>
        <time>2020-02-14T00:44:04.598Z</time>
      </trkpt>
      <trkpt lat="42.51284" lon="1.72945">
        <ele>2618.6</ele>
        <time>2020-02-14T00:44:06.914Z</time>
      </trkpt>
      <trkpt lat="42.51287" lon="1.72951">
        <ele>2619.1</ele>
        <time>2020-02-14T00:44:09.362Z</time>
      </trkpt>
      <trkpt lat="42.51282" lon="1.72947">
        <ele>2619.8</ele>
        <time>2020-02-14T00:44:12.036Z</time>
      </trkpt>
      <trkpt lat="42.51284" lon="1.72941">
        <ele>2623.3</ele>
        <time>2020-02-14T00:44:14.907Z</time>
      </trkpt>
      <trkpt lat="42.5128" lon="1.72938">
        <ele>2624.3</ele>
        <time>2020-02-14T00:44:17.189Z</time>
      </trkpt>
      <trkpt lat="42.51283" lon="1.72943">
        <ele>2625.9</ele>
        <time>2020-02-14T00:44:19.799Z</time>
      </trkpt>
      <trkpt lat="42.51288" lon="1.7295">
        <ele>2630.8</ele>
        <time>2020-02-14T00:44:23.748Z</time>
      </trkpt>
      <trkpt lat="42.51294" lon="1.72954">
        <ele>2632.5</ele>
        <time>2020-02-14T00:44:27.283Z</time>
      </trkpt>
      <trkpt lat="42.51288" lon="1.7295">
        <ele>2633.3</ele>
        <time>2020-02-14T00:44:30.404Z</time>
      </trkpt>
      <trkpt lat="42.51285" lon="1.72945">
        <ele>2631.9</ele>
        <time>2020-02-14T00:44:33.153Z</time>
      </trkpt>
      <trkpt lat="42.51279" lon="1.72944">
        <ele>2631</ele>
        <time>2020-02-14T00:44:35.695Z</time>
      </trkpt>
      <trkpt lat="42.51284" lon="1.72939">
        <ele>2629.1</ele>
        <time>2020-02-14T00:44:38.667Z</time>
      </trkpt>
      <trkpt lat="42.5128" lon="1.72943">
        <ele>2624.3</ele>
        <time>2020-02-14T00:44:41.793Z</time>
      </trkpt>
      <trkpt lat="42.5128" lon="1.72949">
        <ele>2622.5</ele>
        <time>2020-02-14T00:44:44.121Z</time>
      </trkpt>
      <trkpt lat="42.51283" lon="1.72944">
        <ele>2624.4</ele>
        <time>2020-02-14T00:44:46.675Z</time>
      </trkpt>
      <trkpt lat="42.51278" lon="1.72947">
        <ele>2622.1</ele>
        <time>2020-02-14T00:44:49.519Z</time>
      </trkpt>
      <trkpt lat="42.5128" lon="1.72953">
        <ele>2619.9</ele>
        <time>2020-02-14T00:44:51.967Z</time>
      </trkpt>
      <trkpt lat="42.51276" lon="1.72957">
        <ele>2619.3</ele>
        <time>2020-02-14T00:44:54.242Z</time>
      </trkpt>
      <trkpt lat="42.5127" lon="1.72956">
        <ele>2615.4</ele>
        <time>2020-02-14T00:44:57.608Z</time>
      </trkpt>
      <trkpt lat="42.51269" lon="1.7295">
        <ele>2611.4</ele>
        <time>2020-02-14T00:45:00.530Z</time>
      </trkpt>
      <trkpt lat="42.51263" lon="1.72952">
        <ele>2611</ele>
        <time>2020-02-14T00:45:03.125Z</time>
      </trkpt>
      <trkpt lat="42.51267" lon="1.72956">
        <ele>2610.7</ele>
        <time>2020-02-14T00:45:05.288Z</time>
      </trkpt>
      <trkpt lat="42.51271" lon="1.72955">
        <ele>2610.8</ele>
        <time>2020-02-14T00:45:07.509Z</time>
      </trkpt>
      <trkpt lat="42.51276" lon="1.72954">
        <ele>2612.9</ele>
        <time>2020-02-14T00:45:10.005Z</time>
      </trkpt>
      <trkpt lat="42.51271" lon="1.72955">
        <ele>2615.3</ele>
        <time>2020-02-14T00:45:12.451Z</time>
      </trkpt>
      <trkpt lat="42.51275" lon="1.72952">
        <ele>2616.5</ele>
        <time>2020-02-14T00:45:14.748Z</time>
      </trkpt>
      <trkpt lat="42.51278" lon="1.72947">
        <ele>2616.4</ele>
        <time>2020-02-14T00:45:17.111Z</time>
      </trkpt>
      <trkpt lat="42.5128" lon="1.72941">
        <ele>2617.1</ele>
        <time>2020-02-14T00:45:19.340Z</time>
      </trkpt>
      <trkpt lat="42.51279" lon="1.72948">
        <ele>2612.6</ele>
        <time>2020-02-14T00:45:22.439Z</time>
      </trkpt>
      <trkpt lat="42.51281" lon="1.72941">
        <ele>2611.2</ele>
        <time>2020-02-14T00:45:24.879Z</time>
      </trkpt>
      <trkpt lat="42.51285" lon="1.72943">
        <ele>2612.6</ele>
        <time>2020-02-14T00:45:27.172Z</time>
      </trkpt>
      <trkpt lat="42.51284" lon="1.7295">
        <ele>2614.3</ele>
        <time>2020-02-14T00:45:29.850Z</time>
      </trkpt>
      <trkpt lat="42.51281" lon="1.72954">
        <ele>2615.1</ele>
        <time>2020-02-14T00:45:32.050Z</time>
      </trkpt>
      <trkpt lat="42.51281" lon="1.72948">
        <ele>2615.4</ele>
        <time>2020-02-14T00:45:34.370Z</time>
      </trkpt>
      <trkpt lat="42.51278" lon="1.72943">
        <ele>2613.3</ele>
        <time>2020-02-14T00:45:36.757Z</time>
      </trkpt>
      <trkpt lat="42.51282" lon="1.7294">
        <ele>2615.8</ele>
        <time>2020-02-14T00:45:39.254Z</time>
      </trkpt>
      <trkpt lat="42.51286" lon="1.72934">
        <ele>2620.9</ele>
        <time>2020-02-14T00:45:42.743Z</time>
      </trkpt>
      <trkpt lat="42.51285" lon="1.7294">
        <ele>2625.3</ele>
        <time>2020-02-14T00:45:45.772Z</time>
      </trkpt>
      <trkpt lat="42.5128" lon="1.72943">
        <ele>2625.2</ele>
        <time>2020-02-14T00:45:48.183Z</time>
      </trkpt>
      <trkpt lat="42.51277" lon="1.72948">
        <ele>2625.3</ele>
        <time>2020-02-14T00:45:50.609Z</time>
      </trkpt>
      <trkpt lat="42.51282" lon="1.72947">
        <ele>2625.7</ele>
        <time>2020-02-14T00:45:52.878Z</time>
      </trkpt>
      <trkpt lat="42.51287" lon="1.72947">
        <ele>2625.6</ele>
        <time>2020-02-14T00:45:55.464Z</time>
      </trkpt>
      <trkpt lat="42.51292" lon="1.72946">
        <ele>2626.8</ele>
        <time>2020-02-14T00:45:58.053Z</time>
      </trkpt>
      <trkpt lat="42.51287" lon="1.72944">
        <ele>2624.3</ele>
        <time>2020-02-14T00:46:01.038Z</time>
      </trkpt>
      <trkpt lat="42.51282" lon="1.72944">
        <ele>2624.1</ele>
        <time>2020-02-14T00:46:03.476Z</time>
      </trkpt>
      <trkpt lat="42.51286" lon="1.72949">
        <ele>2620.1</ele>
        <time>2020-02-14T00:46:06.820Z</time>
      </trkpt>
      <trkpt lat="42.51282" lon="1.72948">
        <ele>2619.6</ele>
        <time>2020-02-14T00:46:09.170Z</time>
      </trkpt>
      <trkpt lat="42.51277" lon="1.72946">
        <ele>2618.8</ele>
        <time>2020-02-14T00:46:11.731Z</time>
      </trkpt>
      <trkpt lat="42.51272" lon="1.72944">
        <ele>2618.6</ele>
        <time>2020-02-14T00:46:14.177Z</time>
      </trkpt>
      <trkpt lat="42.51279" lon="1.72943">
        <ele>2618.3</ele>
        <time>2020-02-14T00:46:17.410Z</time>
      </trkpt>
      <trkpt lat="42.51274" lon="1.72941">
        <ele>2616.3</ele>
        <time>2020-02-14T00:46:20.066Z</time>
      </trkpt>
      <trkpt lat="42.51278" lon="1.72939">
        <ele>2615.6</ele>
        <time>2020-02-14T00:46:22.299Z</time>
      </trkpt>
      <trkpt lat="42.51282" lon="1.72941">
        <ele>2612.8</ele>
        <time>2020-02-14T00:46:24.903Z</time>
      </trkpt>
      <trkpt lat="42.51287" lon="1.72943">
        <ele>2619.1</ele>
        <time>2020-02-14T00:46:28.450Z</time>
      </trkpt>
      <trkpt lat="42.51292" lon="1.72942">
        <ele>2619.1</ele>
        <time>2020-02-14T00:46:31.161Z</time>
      </trkpt>
      <trkpt lat="42.51297" lon="1.72941">
        <ele>2619.3</ele>
        <time>2020-02-14T00:46:33.526Z</time>
      </trkpt>
      <trkpt lat="42.51302" lon="1.7294">
        <ele>2619.4</ele>
        <time>2020-02-14T00:46:35.820Z</time>
      </trkpt>
      <trkpt lat="42.51308" lon="1.7294">
        <ele>2619.4</ele>
        <time>2020-02-14T00:46:38.560Z</time>
      </trkpt>
      <trkpt lat="42.51313" lon="1.72943">
        <ele>2619.6</ele>
        <time>2020-02-14T00:46:41.319Z</time>
      </trkpt>
      <trkpt lat="42.51318" lon="1.72946">
        <ele>2619.7</ele>
        <time>2020-02-14T00:46:44.089Z</time>
      </trkpt>
      <trkpt lat="42.51323" lon="1.72949">
        <ele>2620</ele>
        <time>2020-02-14T00:46:46.619Z</time>
      </trkpt>
      <trkpt lat="42.51328" lon="1.7295">
        <ele>2620.2</ele>
        <time>2020-02-14T00:46:49.162Z</time>
      </trkpt>
      <trkpt lat="42.51331" lon="1.72944">
        <ele>2620.4</ele>
        <time>2020-02-14T00:46:51.830Z</time>
      </trkpt>
      <trkpt lat="42.51336" lon="1.72939">
        <ele>2620</ele>
        <time>2020-02-14T00:46:54.586Z</time>
      </trkpt>
      <trkpt lat="42.51342" lon="1.72937">
        <ele>2619.4</ele>
        <time>2020-02-14T00:46:57.467Z</time>
      </trkpt>
      <trkpt lat="42.51346" lon="1.72933">
        <ele>2619.2</ele>
        <time>2020-02-14T00:47:00.145Z</time>
      </trkpt>
      <trkpt lat="42.51352" lon="1.7293">
        <ele>2619.1</ele>
        <time>2020-02-14T00:47:03.347Z</time>
      </trkpt>
      <trkpt lat="42.51355" lon="1.72924">
        <ele>2618.1</ele>
        <time>2020-02-14T00:47:06.101Z</time>
      </trkpt>
      <trkpt lat="42.51356" lon="1.72916">
        <ele>2616.5</ele>
        <time>2020-02-14T00:47:09.009Z</time>
      </trkpt>
      <trkpt lat="42.51359" lon="1.7291">
        <ele>2614.4</ele>
        <time>2020-02-14T00:47:11.694Z</time>
      </trkpt>
      <trkpt lat="42.51366" lon="1.72911">
        <ele>2613</ele>
        <time>2020-02-14T00:47:15.108Z</time>
      </trkpt>
      <trkpt lat="42.51372" lon="1.72907">
        <ele>2611.8</ele>
        <time>2020-02-14T00:47:18.468Z</time>
      </trkpt>
      <trkpt lat="42.51376" lon="1.72903">
        <ele>2610.8</ele>
        <time>2020-02-14T00:47:20.853Z</time>
      </trkpt>
      <trkpt lat="42.51381" lon="1.729">
        <ele>2610.2</ele>
        <time>2020-02-14T00:47:23.444Z</time>
      </trkpt>
      <trkpt lat="42.51384" lon="1.72894">
        <ele>2609.8</ele>
        <time>2020-02-14T00:47:26.143Z</time>
      </trkpt>
      <trkpt lat="42.51392" lon="1.72891">
        <ele>2610</ele>
        <time>2020-02-14T00:47:30.049Z</time>
      </trkpt>
      <trkpt lat="42.51399" lon="1.72888">
        <ele>2610.5</ele>
        <time>2020-02-14T00:47:33.708Z</time>
      </trkpt>
      <trkpt lat="42.51404" lon="1.72887">
        <ele>2611.3</ele>
        <time>2020-02-14T00:47:35.983Z</time>
      </trkpt>
      <trkpt lat="42.51409" lon="1.72882">
        <ele>2612.1</ele>
        <time>2020-02-14T00:47:39.047Z</time>
      </trkpt>
      <trkpt lat="42.51413" lon="1.72879">
        <ele>2613.4</ele>
        <time>2020-02-14T00:47:41.547Z</time>
      </trkpt>
      <trkpt lat="42.5142" lon="1.72877">
        <ele>2614.9</ele>
        <time>2020-02-14T00:47:45.028Z</time>
      </trkpt>
      <trkpt lat="42.51425" lon="1.72874">
        <ele>2616.1</ele>
        <time>2020-02-14T00:47:47.938Z</time>
      </trkpt>
      <trkpt lat="42.5143" lon="1.7287">
        <ele>2616.8</ele>
        <time>2020-02-14T00:47:50.422Z</time>
      </trkpt>
      <trkpt lat="42.51434" lon="1.72865">
        <ele>2617.7</ele>
        <time>2020-02-14T00:47:53.089Z</time>
      </trkpt>
      <trkpt lat="42.51433" lon="1.72859">
        <ele>2618.1</ele>
        <time>2020-02-14T00:47:55.327Z</time>
      </trkpt>
      <trkpt lat="42.51437" lon="1.72863">
        <ele>2620.8</ele>
        <time>2020-02-14T00:47:58.023Z</time>
      </trkpt>
      <trkpt lat="42.51445" lon="1.72859">
        <ele>2621.5</ele>
        <time>2020-02-14T00:48:01.784Z</time>
      </trkpt>
      <trkpt lat="42.51448" lon="1.72855">
        <ele>2622.1</ele>
        <time>2020-02-14T00:48:04.070Z</time>
      </trkpt>
      <trkpt lat="42.51452" lon="1.72851">
        <ele>2622.5</ele>
        <time>2020-02-14T00:48:06.613Z</time>
      </trkpt>
      <trkpt lat="42.51457" lon="1.72844">
        <ele>2622.7</ele>
        <time>2020-02-14T00:48:10.040Z</time>
      </trkpt>
      <trkpt lat="42.51464" lon="1.72841">
        <ele>2622.7</ele>
        <time>2020-02-14T00:48:13.659Z</time>
      </trkpt>
      <trkpt lat="42.5147" lon="1.72838">
        <ele>2622.6</ele>
        <time>2020-02-14T00:48:16.696Z</time>
      </trkpt>
      <trkpt lat="42.51476" lon="1.72837">
        <ele>2622.6</ele>
        <time>2020-02-14T00:48:19.676Z</time>
      </trkpt>
      <trkpt lat="42.51481" lon="1.72836">
        <ele>2622.5</ele>
        <time>2020-02-14T00:48:22.212Z</time>
      </trkpt>
      <trkpt lat="42.51486" lon="1.72839">
        <ele>2622.7</ele>
        <time>2020-02-14T00:48:24.893Z</time>
      </trkpt>
      <trkpt lat="42.51491" lon="1.72838">
        <ele>2624</ele>
        <time>2020-02-14T00:48:27.225Z</time>
      </trkpt>
      <trkpt lat="42.51497" lon="1.72838">
        <ele>2624.8</ele>
        <time>2020-02-14T00:48:30.271Z</time>
      </trkpt>
      <trkpt lat="42.51503" lon="1.72841">
        <ele>2625.2</ele>
        <time>2020-02-14T00:48:33.313Z</time>
      </trkpt>
      <trkpt lat="42.51509" lon="1.72839">
        <ele>2625.8</ele>
        <time>2020-02-14T00:48:36.592Z</time>
      </trkpt>
      <trkpt lat="42.51514" lon="1.72839">
        <ele>2626.9</ele>
        <time>2020-02-14T00:48:38.892Z</time>
      </trkpt>
      <trkpt lat="42.51518" lon="1.72846">
        <ele>2627.5</ele>
        <time>2020-02-14T00:48:41.947Z</time>
      </trkpt>
      <trkpt lat="42.5152" lon="1.72851">
        <ele>2628</ele>
        <time>2020-02-14T00:48:44.228Z</time>
      </trkpt>
      <trkpt lat="42.51524" lon="1.72858">
        <ele>2629</ele>
        <time>2020-02-14T00:48:47.321Z</time>
      </trkpt>
      <trkpt lat="42.51525" lon="1.72864">
        <ele>2629.8</ele>
        <time>2020-02-14T00:48:49.709Z</time>
      </trkpt>
      <trkpt lat="42.51525" lon="1.72871">
        <ele>2629.4</ele>
        <time>2020-02-14T00:48:52.221Z</time>
      </trkpt>
      <trkpt lat="42.51524" lon="1.72878">
        <ele>2629.3</ele>
        <time>2020-02-14T00:48:54.595Z</time>
      </trkpt>
      <trkpt lat="42.51526" lon="1.72884">
        <ele>2629.5</ele>
        <time>2020-02-14T00:48:57.192Z</time>
      </trkpt>
      <trkpt lat="42.51526" lon="1.72892">
        <ele>2629.6</ele>
        <time>2020-02-14T00:49:00.037Z</time>
      </trkpt>
      <trkpt lat="42.51527" lon="1.72898">
        <ele>2629.8</ele>
        <time>2020-02-14T00:49:02.234Z</time>
      </trkpt>
      <trkpt lat="42.51526" lon="1.72907">
        <ele>2630.2</ele>
        <time>2020-02-14T00:49:05.519Z</time>
      </trkpt>
      <trkpt lat="42.51531" lon="1.72913">
        <ele>2630.6</ele>
        <time>2020-02-14T00:49:08.730Z</time>
      </trkpt>
      <trkpt lat="42.51535" lon="1.72914">
        <ele>2632.1</ele>
        <time>2020-02-14T00:49:11.035Z</time>
      </trkpt>
      <trkpt lat="42.5154" lon="1.72911">
        <ele>2633.2</ele>
        <time>2020-02-14T00:49:13.603Z</time>
      </trkpt>
      <trkpt lat="42.51545" lon="1.72912">
        <ele>2635.2</ele>
        <time>2020-02-14T00:49:16.148Z</time>
      </trkpt>
      <trkpt lat="42.51548" lon="1.72916">
        <ele>2636.1</ele>
        <time>2020-02-14T00:49:18.595Z</time>
      </trkpt>
      <trkpt lat="42.51552" lon="1.7292">
        <ele>2636.9</ele>
        <time>2020-02-14T00:49:20.857Z</time>
      </trkpt>
      <trkpt lat="42.51557" lon="1.72921">
        <ele>2637.9</ele>
        <time>2020-02-14T00:49:23.503Z</time>
      </trkpt>
      <trkpt lat="42.51561" lon="1.72924">
        <ele>2638.7</ele>
        <time>2020-02-14T00:49:25.832Z</time>
      </trkpt>
      <trkpt lat="42.51565" lon="1.7293">
        <ele>2639.5</ele>
        <time>2020-02-14T00:49:28.380Z</time>
      </trkpt>
      <trkpt lat="42.51569" lon="1.72932">
        <ele>2640.3</ele>
        <time>2020-02-14T00:49:30.747Z</time>
      </trkpt>
      <trkpt lat="42.51573" lon="1.72936">
        <ele>2644.5</ele>
        <time>2020-02-14T00:49:33.755Z</time>
      </trkpt>
      <trkpt lat="42.51576" lon="1.7294">
        <ele>2645.2</ele>
        <time>2020-02-14T00:49:36.028Z</time>
      </trkpt>
      <trkpt lat="42.51579" lon="1.72946">
        <ele>2645.8</ele>
        <time>2020-02-14T00:49:38.298Z</time>
      </trkpt>
      <trkpt lat="42.51583" lon="1.7295">
        <ele>2646.5</ele>
        <time>2020-02-14T00:49:41.108Z</time>
      </trkpt>
      <trkpt lat="42.51588" lon="1.72952">
        <ele>2647.9</ele>
        <time>2020-02-14T00:49:43.629Z</time>
      </trkpt>
      <trkpt lat="42.51593" lon="1.72957">
        <ele>2649.6</ele>
        <time>2020-02-14T00:49:46.605Z</time>
      </trkpt>
      <trkpt lat="42.51597" lon="1.7296">
        <ele>2651.7</ele>
        <time>2020-02-14T00:49:49.124Z</time>
      </trkpt>
      <trkpt lat="42.51601" lon="1.72963">
        <ele>2652.7</ele>
        <time>2020-02-14T00:49:51.385Z</time>
      </trkpt>
      <trkpt lat="42.51602" lon="1.72971">
        <ele>2654.5</ele>
        <time>2020-02-14T00:49:54.205Z</time>
      </trkpt>
      <trkpt lat="42.51604" lon="1.72977">
        <ele>2654.9</ele>
        <time>2020-02-14T00:49:56.849Z</time>
      </trkpt>
      <trkpt lat="42.51611" lon="1.72981">
        <ele>2655.5</ele>
        <time>2020-02-14T00:50:00.538Z</time>
      </trkpt>
      <trkpt lat="42.51613" lon="1.72988">
        <ele>2659.9</ele>
        <time>2020-02-14T00:50:03.716Z</time>
      </trkpt>
      <trkpt lat="42.51616" lon="1.72993">
        <ele>2661.2</ele>
        <time>2020-02-14T00:50:06.086Z</time>
      </trkpt>
      <trkpt lat="42.5162" lon="1.72998">
        <ele>2661.6</ele>
        <time>2020-02-14T00:50:08.930Z</time>
      </trkpt>
      <trkpt lat="42.51623" lon="1.73003">
        <ele>2662.5</ele>
        <time>2020-02-14T00:50:11.198Z</time>
      </trkpt>
      <trkpt lat="42.51627" lon="1.73006">
        <ele>2665.7</ele>
        <time>2020-02-14T00:50:13.786Z</time>
      </trkpt>
      <trkpt lat="42.51627" lon="1.73013">
        <ele>2666.7</ele>
        <time>2020-02-14T00:50:16.171Z</time>
      </trkpt>
      <trkpt lat="42.51632" lon="1.73013">
        <ele>2669.9</ele>
        <time>2020-02-14T00:50:18.786Z</time>
      </trkpt>
      <trkpt lat="42.5164" lon="1.73018">
        <ele>2672.5</ele>
        <time>2020-02-14T00:50:23.230Z</time>
      </trkpt>
      <trkpt lat="42.51634" lon="1.73014">
        <ele>2675.1</ele>
        <time>2020-02-14T00:50:26.577Z</time>
      </trkpt>
      <trkpt lat="42.51638" lon="1.73017">
        <ele>2678.4</ele>
        <time>2020-02-14T00:50:29.354Z</time>
      </trkpt>
      <trkpt lat="42.51643" lon="1.73021">
        <ele>2678.8</ele>
        <time>2020-02-14T00:50:31.911Z</time>
      </trkpt>
      <trkpt lat="42.51647" lon="1.73022">
        <ele>2679</ele>
        <time>2020-02-14T00:50:34.140Z</time>
      </trkpt>
      <trkpt lat="42.51652" lon="1.73021">
        <ele>2679.4</ele>
        <time>2020-02-14T00:50:36.384Z</time>
      </trkpt>
      <trkpt lat="42.51656" lon="1.73018">
        <ele>2680.4</ele>
        <time>2020-02-14T00:50:38.908Z</time>
      </trkpt>
      <trkpt lat="42.51661" lon="1.73019">
        <ele>2681.2</ele>
        <time>2020-02-14T00:50:41.511Z</time>
      </trkpt>
      <trkpt lat="42.51664" lon="1.73025">
        <ele>2681.8</ele>
        <time>2020-02-14T00:50:44.042Z</time>
      </trkpt>
      <trkpt lat="42.51669" lon="1.73024">
        <ele>2684.3</ele>
        <time>2020-02-14T00:50:46.541Z</time>
      </trkpt>
      <trkpt lat="42.51674" lon="1.73027">
        <ele>2687.2</ele>
        <time>2020-02-14T00:50:49.772Z</time>
      </trkpt>
      <trkpt lat="42.51679" lon="1.73029">
        <ele>2689.4</ele>
        <time>2020-02-14T00:50:52.335Z</time>
      </trkpt>
      <trkpt lat="42.51685" lon="1.73032">
        <ele>2690.2</ele>
        <time>2020-02-14T00:50:55.324Z</time>
      </trkpt>
      <trkpt lat="42.51689" lon="1.73034">
        <ele>2691.2</ele>
        <time>2020-02-14T00:50:57.682Z</time>
      </trkpt>
      <trkpt lat="42.51693" lon="1.73037">
        <ele>2692.7</ele>
        <time>2020-02-14T00:50:59.996Z</time>
      </trkpt>
      <trkpt lat="42.51698" lon="1.7304">
        <ele>2695.5</ele>
        <time>2020-02-14T00:51:02.620Z</time>
      </trkpt>
      <trkpt lat="42.51702" lon="1.73041">
        <ele>2697</ele>
        <time>2020-02-14T00:51:04.895Z</time>
      </trkpt>
      <trkpt lat="42.51703" lon="1.73035">
        <ele>2699.9</ele>
        <time>2020-02-14T00:51:07.461Z</time>
      </trkpt>
      <trkpt lat="42.51698" lon="1.73031">
        <ele>2700.5</ele>
        <time>2020-02-14T00:51:09.850Z</time>
      </trkpt>
      <trkpt lat="42.51697" lon="1.73023">
        <ele>2700.6</ele>
        <time>2020-02-14T00:51:12.948Z</time>
      </trkpt>
      <trkpt lat="42.51695" lon="1.73016">
        <ele>2700.9</ele>
        <time>2020-02-14T00:51:15.524Z</time>
      </trkpt>
      <trkpt lat="42.51698" lon="1.73009">
        <ele>2701.1</ele>
        <time>2020-02-14T00:51:18.283Z</time>
      </trkpt>
      <trkpt lat="42.51702" lon="1.73013">
        <ele>2702</ele>
        <time>2020-02-14T00:51:20.698Z</time>
      </trkpt>
      <trkpt lat="42.51705" lon="1.73018">
        <ele>2702.9</ele>
        <time>2020-02-14T00:51:23.017Z</time>
      </trkpt>
      <trkpt lat="42.51709" lon="1.73012">
        <ele>2703.6</ele>
        <time>2020-02-14T00:51:25.699Z</time>
      </trkpt>
      <trkpt lat="42.51713" lon="1.73014">
        <ele>2704.3</ele>
        <time>2020-02-14T00:51:28.175Z</time>
      </trkpt>
      <trkpt lat="42.5171" lon="1.73018">
        <ele>2706.4</ele>
        <time>2020-02-14T00:51:30.534Z</time>
      </trkpt>
      <trkpt lat="42.51715" lon="1.73017">
        <ele>2706.7</ele>
        <time>2020-02-14T00:51:33.077Z</time>
      </trkpt>
      <trkpt lat="42.51716" lon="1.73011">
        <ele>2707.1</ele>
        <time>2020-02-14T00:51:35.331Z</time>
      </trkpt>
      <trkpt lat="42.5172" lon="1.73008">
        <ele>2706.9</ele>
        <time>2020-02-14T00:51:37.745Z</time>
      </trkpt>
      <trkpt lat="42.51725" lon="1.73005">
        <ele>2707.2</ele>
        <time>2020-02-14T00:51:39.975Z</time>
      </trkpt>
      <trkpt lat="42.51726" lon="1.72999">
        <ele>2707.2</ele>
        <time>2020-02-14T00:51:42.361Z</time>
      </trkpt>
      <trkpt lat="42.51724" lon="1.72993">
        <ele>2707.6</ele>
        <time>2020-02-14T00:51:44.607Z</time>
      </trkpt>
      <trkpt lat="42.51725" lon="1.73">
        <ele>2708.4</ele>
        <time>2020-02-14T00:51:47.126Z</time>
      </trkpt>
      <trkpt lat="42.51721" lon="1.72996">
        <ele>2712</ele>
        <time>2020-02-14T00:51:49.859Z</time>
      </trkpt>
      <trkpt lat="42.51723" lon="1.72991">
        <ele>2713.1</ele>
        <time>2020-02-14T00:51:52.289Z</time>
      </trkpt>
      <trkpt lat="42.51725" lon="1.72997">
        <ele>2713.8</ele>
        <time>2020-02-14T00:51:54.720Z</time>
      </trkpt>
      <trkpt lat="42.51729" lon="1.72993">
        <ele>2714.1</ele>
        <time>2020-02-14T00:51:57.034Z</time>
      </trkpt>
      <trkpt lat="42.51734" lon="1.72991">
        <ele>2713</ele>
        <time>2020-02-14T00:51:59.763Z</time>
      </trkpt>
      <trkpt lat="42.51738" lon="1.7299">
        <ele>2711.3</ele>
        <time>2020-02-14T00:52:02.096Z</time>
      </trkpt>
      <trkpt lat="42.51741" lon="1.72985">
        <ele>2708</ele>
        <time>2020-02-14T00:52:04.768Z</time>
      </trkpt>
      <trkpt lat="42.51747" lon="1.72983">
        <ele>2704.3</ele>
        <time>2020-02-14T00:52:08.039Z</time>
      </trkpt>
      <trkpt lat="42.51751" lon="1.72984">
        <ele>2702.3</ele>
        <time>2020-02-14T00:52:10.548Z</time>
      </trkpt>
      <trkpt lat="42.51754" lon="1.72989">
        <ele>2702.2</ele>
        <time>2020-02-14T00:52:12.747Z</time>
      </trkpt>
      <trkpt lat="42.51753" lon="1.72996">
        <ele>2702</ele>
        <time>2020-02-14T00:52:15.318Z</time>
      </trkpt>
      <trkpt lat="42.51755" lon="1.73002">
        <ele>2702.3</ele>
        <time>2020-02-14T00:52:17.633Z</time>
      </trkpt>
      <trkpt lat="42.51761" lon="1.73003">
        <ele>2702</ele>
        <time>2020-02-14T00:52:20.546Z</time>
      </trkpt>
      <trkpt lat="42.51768" lon="1.73004">
        <ele>2701.7</ele>
        <time>2020-02-14T00:52:24.091Z</time>
      </trkpt>
      <trkpt lat="42.51771" lon="1.73009">
        <ele>2700.6</ele>
        <time>2020-02-14T00:52:26.422Z</time>
      </trkpt>
      <trkpt lat="42.51774" lon="1.73015">
        <ele>2698.9</ele>
        <time>2020-02-14T00:52:28.967Z</time>
      </trkpt>
      <trkpt lat="42.51777" lon="1.73021">
        <ele>2696.6</ele>
        <time>2020-02-14T00:52:31.630Z</time>
      </trkpt>
      <trkpt lat="42.51777" lon="1.73027">
        <ele>2692.8</ele>
        <time>2020-02-14T00:52:34.538Z</time>
      </trkpt>
      <trkpt lat="42.5178" lon="1.73033">
        <ele>2689.1</ele>
        <time>2020-02-14T00:52:37.367Z</time>
      </trkpt>
      <trkpt lat="42.51786" lon="1.73031">
        <ele>2687.8</ele>
        <time>2020-02-14T00:52:40.458Z</time>
      </trkpt>
      <trkpt lat="42.51792" lon="1.7303">
        <ele>2686.8</ele>
        <time>2020-02-14T00:52:43.376Z</time>
      </trkpt>
      <trkpt lat="42.51797" lon="1.73034">
        <ele>2687.3</ele>
        <time>2020-02-14T00:52:45.948Z</time>
      </trkpt>
      <trkpt lat="42.51802" lon="1.73035">
        <ele>2686.4</ele>
        <time>2020-02-14T00:52:48.401Z</time>
      </trkpt>
      <trkpt lat="42.51801" lon="1.73029">
        <ele>2684.2</ele>
        <time>2020-02-14T00:52:50.816Z</time>
      </trkpt>
      <trkpt lat="42.51806" lon="1.7303">
        <ele>2679.2</ele>
        <time>2020-02-14T00:52:53.986Z</time>
      </trkpt>
      <trkpt lat="42.51809" lon="1.73034">
        <ele>2675</ele>
        <time>2020-02-14T00:52:57.021Z</time>
      </trkpt>
      <trkpt lat="42.51813" lon="1.73039">
        <ele>2673.1</ele>
        <time>2020-02-14T00:52:59.726Z</time>
      </trkpt>
      <trkpt lat="42.51818" lon="1.73042">
        <ele>2670.3</ele>
        <time>2020-02-14T00:53:02.566Z</time>
      </trkpt>
      <trkpt lat="42.51823" lon="1.73041">
        <ele>2668.6</ele>
        <time>2020-02-14T00:53:04.954Z</time>
      </trkpt>
      <trkpt lat="42.51827" lon="1.73045">
        <ele>2667.4</ele>
        <time>2020-02-14T00:53:07.402Z</time>
      </trkpt>
      <trkpt lat="42.51829" lon="1.73051">
        <ele>2666.3</ele>
        <time>2020-02-14T00:53:09.917Z</time>
      </trkpt>
      <trkpt lat="42.51832" lon="1.73056">
        <ele>2664.7</ele>
        <time>2020-02-14T00:53:12.286Z</time>
      </trkpt>
      <trkpt lat="42.51836" lon="1.7306">
        <ele>2663.2</ele>
        <time>2020-02-14T00:53:15.013Z</time>
      </trkpt>
      <trkpt lat="42.5184" lon="1.73065">
        <ele>2661</ele>
        <time>2020-02-14T00:53:17.496Z</time>
      </trkpt>
      <trkpt lat="42.51843" lon="1.73069">
        <ele>2658.4</ele>
        <time>2020-02-14T00:53:20.157Z</time>
      </trkpt>
      <trkpt lat="42.51848" lon="1.73069">
        <ele>2652.5</ele>
        <time>2020-02-14T00:53:23.583Z</time>
      </trkpt>
      <trkpt lat="42.51849" lon="1.73063">
        <ele>2647.7</ele>
        <time>2020-02-14T00:53:26.747Z</time>
      </trkpt>
      <trkpt lat="42.51849" lon="1.73056">
        <ele>2645.6</ele>
        <time>2020-02-14T00:53:29.470Z</time>
      </trkpt>
      <trkpt lat="42.51848" lon="1.73048">
        <ele>2639.8</ele>
        <time>2020-02-14T00:53:33.407Z</time>
      </trkpt>
      <trkpt lat="42.51849" lon="1.73042">
        <ele>2638</ele>
        <time>2020-02-14T00:53:35.810Z</time>
      </trkpt>
      <trkpt lat="42.51853" lon="1.73036">
        <ele>2635.4</ele>
        <time>2020-02-14T00:53:38.771Z</time>
      </trkpt>
      <trkpt lat="42.51858" lon="1.73035">
        <ele>2631.9</ele>
        <time>2020-02-14T00:53:41.612Z</time>
      </trkpt>
      <trkpt lat="42.51862" lon="1.73038">
        <ele>2630.2</ele>
        <time>2020-02-14T00:53:44.209Z</time>
      </trkpt>
      <trkpt lat="42.51866" lon="1.73034">
        <ele>2627.6</ele>
        <time>2020-02-14T00:53:46.736Z</time>
      </trkpt>
      <trkpt lat="42.51869" lon="1.73029">
        <ele>2625.9</ele>
        <time>2020-02-14T00:53:49.160Z</time>
      </trkpt>
      <trkpt lat="42.51873" lon="1.73025">
        <ele>2624.6</ele>
        <time>2020-02-14T00:53:51.554Z</time>
      </trkpt>
      <trkpt lat="42.51878" lon="1.73022">
        <ele>2623.5</ele>
        <time>2020-02-14T00:53:54.154Z</time>
      </trkpt>
      <trkpt lat="42.51883" lon="1.73025">
        <ele>2622.6</ele>
        <time>2020-02-14T00:53:57.084Z</time>
      </trkpt>
      <trkpt lat="42.51888" lon="1.73026">
        <ele>2621.3</ele>
        <time>2020-02-14T00:53:59.355Z</time>
      </trkpt>
      <trkpt lat="42.51893" lon="1.73027">
        <ele>2620.7</ele>
        <time>2020-02-14T00:54:01.806Z</time>
      </trkpt>
      <trkpt lat="42.51898" lon="1.73025">
        <ele>2619.6</ele>
        <time>2020-02-14T00:54:04.468Z</time>
      </trkpt>
      <trkpt lat="42.51904" lon="1.73026">
        <ele>2619</ele>
        <time>2020-02-14T00:54:07.410Z</time>
      </trkpt>
      <trkpt lat="42.51911" lon="1.73031">
        <ele>2618.2</ele>
        <time>2020-02-14T00:54:11.344Z</time>
      </trkpt>
      <trkpt lat="42.51915" lon="1.73034">
        <ele>2617</ele>
        <time>2020-02-14T00:54:13.782Z</time>
      </trkpt>
      <trkpt lat="42.51922" lon="1.73038">
        <ele>2616.1</ele>
        <time>2020-02-14T00:54:17.365Z</time>
      </trkpt>
      <trkpt lat="42.51928" lon="1.7304">
        <ele>2615.4</ele>
        <time>2020-02-14T00:54:20.395Z</time>
      </trkpt>
      <trkpt lat="42.51933" lon="1.73043">
        <ele>2614.8</ele>
        <time>2020-02-14T00:54:22.925Z</time>
      </trkpt>
      <trkpt lat="42.5194" lon="1.73045">
        <ele>2614.1</ele>
        <time>2020-02-14T00:54:26.456Z</time>
      </trkpt>
      <trkpt lat="42.51944" lon="1.73048">
        <ele>2613.4</ele>
        <time>2020-02-14T00:54:28.753Z</time>
      </trkpt>
      <trkpt lat="42.51948" lon="1.73051">
        <ele>2612.8</ele>
        <time>2020-02-14T00:54:31.254Z</time>
      </trkpt>
      <trkpt lat="42.51955" lon="1.73058">
        <ele>2612.1</ele>
        <time>2020-02-14T00:54:35.326Z</time>
      </trkpt>
      <trkpt lat="42.51957" lon="1.73064">
        <ele>2611.2</ele>
        <time>2020-02-14T00:54:37.744Z</time>
      </trkpt>
      <trkpt lat="42.51961" lon="1.73067">
        <ele>2609.4</ele>
        <time>2020-02-14T00:54:40.278Z</time>
      </trkpt>
      <trkpt lat="42.51967" lon="1.73072">
        <ele>2608.6</ele>
        <time>2020-02-14T00:54:43.460Z</time>
      </trkpt>
      <trkpt lat="42.51972" lon="1.73077">
        <ele>2607.9</ele>
        <time>2020-02-14T00:54:46.640Z</time>
      </trkpt>
      <trkpt lat="42.51978" lon="1.73083">
        <ele>2607.5</ele>
        <time>2020-02-14T00:54:50.087Z</time>
      </trkpt>
      <trkpt lat="42.51982" lon="1.73083">
        <ele>2606.9</ele>
        <time>2020-02-14T00:54:52.344Z</time>
      </trkpt>
      <trkpt lat="42.5199" lon="1.73079">
        <ele>2606.3</ele>
        <time>2020-02-14T00:54:56.554Z</time>
      </trkpt>
      <trkpt lat="42.51997" lon="1.73073">
        <ele>2605.5</ele>
        <time>2020-02-14T00:55:00.303Z</time>
      </trkpt>
      <trkpt lat="42.52" lon="1.73064">
        <ele>2604.7</ele>
        <time>2020-02-14T00:55:03.870Z</time>
      </trkpt>
      <trkpt lat="42.51999" lon="1.73058">
        <ele>2603.9</ele>
        <time>2020-02-14T00:55:06.304Z</time>
      </trkpt>
      <trkpt lat="42.51998" lon="1.73051">
        <ele>2602.9</ele>
        <time>2020-02-14T00:55:08.891Z</time>
      </trkpt>
      <trkpt lat="42.51998" lon="1.73045">
        <ele>2602.2</ele>
        <time>2020-02-14T00:55:11.151Z</time>
      </trkpt>
      <trkpt lat="42.52001" lon="1.73039">
        <ele>2602.1</ele>
        <time>2020-02-14T00:55:13.617Z</time>
      </trkpt>
      <trkpt lat="42.52004" lon="1.73034">
        <ele>2601.6</ele>
        <time>2020-02-14T00:55:16.064Z</time>
      </trkpt>
      <trkpt lat="42.52007" lon="1.73029">
        <ele>2601.3</ele>
        <time>2020-02-14T00:55:18.382Z</time>
      </trkpt>
      <trkpt lat="42.5201" lon="1.73025">
        <ele>2601.1</ele>
        <time>2020-02-14T00:55:20.590Z</time>
      </trkpt>
      <trkpt lat="42.52014" lon="1.73022">
        <ele>2600.9</ele>
        <time>2020-02-14T00:55:22.865Z</time>
      </trkpt>
      <trkpt lat="42.52018" lon="1.73017">
        <ele>2600.7</ele>
        <time>2020-02-14T00:55:25.394Z</time>
      </trkpt>
      <trkpt lat="42.52023" lon="1.73017">
        <ele>2600.4</ele>
        <time>2020-02-14T00:55:27.989Z</time>
      </trkpt>
      <trkpt lat="42.52028" lon="1.7302">
        <ele>2600.5</ele>
        <time>2020-02-14T00:55:30.638Z</time>
      </trkpt>
      <trkpt lat="42.52033" lon="1.73021">
        <ele>2600.4</ele>
        <time>2020-02-14T00:55:32.978Z</time>
      </trkpt>
      <trkpt lat="42.52038" lon="1.73023">
        <ele>2600.4</ele>
        <time>2020-02-14T00:55:35.511Z</time>
      </trkpt>
      <trkpt lat="42.52043" lon="1.73025">
        <ele>2600.5</ele>
        <time>2020-02-14T00:55:38.200Z</time>
      </trkpt>
      <trkpt lat="42.52049" lon="1.73026">
        <ele>2600.6</ele>
        <time>2020-02-14T00:55:40.734Z</time>
      </trkpt>
      <trkpt lat="42.52053" lon="1.7303">
        <ele>2600.6</ele>
        <time>2020-02-14T00:55:43.499Z</time>
      </trkpt>
      <trkpt lat="42.52057" lon="1.73034">
        <ele>2600.6</ele>
        <time>2020-02-14T00:55:45.741Z</time>
      </trkpt>
      <trkpt lat="42.5206" lon="1.73038">
        <ele>2601</ele>
        <time>2020-02-14T00:55:48.053Z</time>
      </trkpt>
      <trkpt lat="42.52065" lon="1.73038">
        <ele>2601.5</ele>
        <time>2020-02-14T00:55:50.449Z</time>
      </trkpt>
      <trkpt lat="42.52071" lon="1.73039">
        <ele>2602.2</ele>
        <time>2020-02-14T00:55:53.166Z</time>
      </trkpt>
      <trkpt lat="42.52075" lon="1.73041">
        <ele>2602.7</ele>
        <time>2020-02-14T00:55:55.505Z</time>
      </trkpt>
      <trkpt lat="42.52079" lon="1.73038">
        <ele>2603.3</ele>
        <time>2020-02-14T00:55:57.959Z</time>
      </trkpt>
      <trkpt lat="42.52083" lon="1.73042">
        <ele>2608.1</ele>
        <time>2020-02-14T00:56:01.086Z</time>
      </trkpt>
      <trkpt lat="42.52087" lon="1.73047">
        <ele>2608.9</ele>
        <time>2020-02-14T00:56:03.761Z</time>
      </trkpt>
      <trkpt lat="42.5209" lon="1.73042">
        <ele>2611.2</ele>
        <time>2020-02-14T00:56:06.266Z</time>
      </trkpt>
      <trkpt lat="42.52087" lon="1.73035">
        <ele>2611.6</ele>
        <time>2020-02-14T00:56:08.903Z</time>
      </trkpt>
      <trkpt lat="42.52083" lon="1.73032">
        <ele>2611.6</ele>
        <time>2020-02-14T00:56:11.280Z</time>
      </trkpt>
      <trkpt lat="42.52079" lon="1.73038">
        <ele>2612.6</ele>
        <time>2020-02-14T00:56:14.296Z</time>
      </trkpt>
      <trkpt lat="42.52081" lon="1.73032">
        <ele>2608.5</ele>
        <time>2020-02-14T00:56:17.305Z</time>
      </trkpt>
      <trkpt lat="42.52083" lon="1.73026">
        <ele>2606.8</ele>
        <time>2020-02-14T00:56:19.630Z</time>
      </trkpt>
      <trkpt lat="42.52087" lon="1.73023">
        <ele>2606</ele>
        <time>2020-02-14T00:56:21.947Z</time>
      </trkpt>
      <trkpt lat="42.52091" lon="1.7302">
        <ele>2606.6</ele>
        <time>2020-02-14T00:56:24.404Z</time>
      </trkpt>
      <trkpt lat="42.52096" lon="1.7302">
        <ele>2607.6</ele>
        <time>2020-02-14T00:56:26.688Z</time>
      </trkpt>
      <trkpt lat="42.52097" lon="1.73014">
        <ele>2607.3</ele>
        <time>2020-02-14T00:56:28.990Z</time>
      </trkpt>
      <trkpt lat="42.52097" lon="1.73007">
        <ele>2606.1</ele>
        <time>2020-02-14T00:56:31.766Z</time>
      </trkpt>
      <trkpt lat="42.52095" lon="1.73">
        <ele>2605.7</ele>
        <time>2020-02-14T00:56:34.410Z</time>
      </trkpt>
      <trkpt lat="42.52093" lon="1.72994">
        <ele>2603.3</ele>
        <time>2020-02-14T00:56:37.034Z</time>
      </trkpt>
      <trkpt lat="42.52093" lon="1.72988">
        <ele>2601</ele>
        <time>2020-02-14T00:56:39.499Z</time>
      </trkpt>
      <trkpt lat="42.52095" lon="1.72981">
        <ele>2599.5</ele>
        <time>2020-02-14T00:56:42.089Z</time>
      </trkpt>
      <trkpt lat="42.52096" lon="1.72975">
        <ele>2595</ele>
        <time>2020-02-14T00:56:45.170Z</time>
      </trkpt>
      <trkpt lat="42.52101" lon="1.72977">
        <ele>2593.2</ele>
        <time>2020-02-14T00:56:47.729Z</time>
      </trkpt>
      <trkpt lat="42.52104" lon="1.72982">
        <ele>2591</ele>
        <time>2020-02-14T00:56:50.263Z</time>
      </trkpt>
      <trkpt lat="42.52108" lon="1.72986">
        <ele>2587.9</ele>
        <time>2020-02-14T00:56:53.066Z</time>
      </trkpt>
      <trkpt lat="42.52111" lon="1.72991">
        <ele>2584.8</ele>
        <time>2020-02-14T00:56:55.756Z</time>
      </trkpt>
      <trkpt lat="42.52115" lon="1.72993">
        <ele>2583.4</ele>
        <time>2020-02-14T00:56:58.008Z</time>
      </trkpt>
      <trkpt lat="42.52117" lon="1.72987">
        <ele>2581.7</ele>
        <time>2020-02-14T00:57:00.469Z</time>
      </trkpt>
      <trkpt lat="42.52117" lon="1.7298">
        <ele>2580.5</ele>
        <time>2020-02-14T00:57:03.042Z</time>
      </trkpt>
      <trkpt lat="42.52118" lon="1.72974">
        <ele>2579.4</ele>
        <time>2020-02-14T00:57:05.570Z</time>
      </trkpt>
      <trkpt lat="42.52119" lon="1.72968">
        <ele>2577.2</ele>
        <time>2020-02-14T00:57:07.975Z</time>
      </trkpt>
      <trkpt lat="42.5212" lon="1.72961">
        <ele>2574.6</ele>
        <time>2020-02-14T00:57:10.769Z</time>
      </trkpt>
      <trkpt lat="42.5212" lon="1.72954">
        <ele>2573.5</ele>
        <time>2020-02-14T00:57:13.234Z</time>
      </trkpt>
      <trkpt lat="42.52124" lon="1.72952">
        <ele>2569.1</ele>
        <time>2020-02-14T00:57:16.173Z</time>
      </trkpt>
      <trkpt lat="42.52128" lon="1.72956">
        <ele>2568</ele>
        <time>2020-02-14T00:57:18.562Z</time>
      </trkpt>
      <trkpt lat="42.52131" lon="1.72951">
        <ele>2565</ele>
        <time>2020-02-14T00:57:21.274Z</time>
      </trkpt>
      <trkpt lat="42.52136" lon="1.72951">
        <ele>2562.8</ele>
        <time>2020-02-14T00:57:23.715Z</time>
      </trkpt>
      <trkpt lat="42.5214" lon="1.72947">
        <ele>2561.7</ele>
        <time>2020-02-14T00:57:26.190Z</time>
      </trkpt>
      <trkpt lat="42.52144" lon="1.72943">
        <ele>2561</ele>
        <time>2020-02-14T00:57:28.582Z</time>
      </trkpt>
      <trkpt lat="42.52148" lon="1.72939">
        <ele>2560.2</ele>
        <time>2020-02-14T00:57:31.033Z</time>
      </trkpt>
      <trkpt lat="42.52152" lon="1.7294">
        <ele>2559.4</ele>
        <time>2020-02-14T00:57:33.337Z</time>
      </trkpt>
      <trkpt lat="42.52157" lon="1.72938">
        <ele>2558.3</ele>
        <time>2020-02-14T00:57:35.819Z</time>
      </trkpt>
      <trkpt lat="42.52161" lon="1.7294">
        <ele>2556.7</ele>
        <time>2020-02-14T00:57:38.391Z</time>
      </trkpt>
      <trkpt lat="42.52165" lon="1.72948">
        <ele>2555.7</ele>
        <time>2020-02-14T00:57:41.862Z</time>
      </trkpt>
      <trkpt lat="42.5217" lon="1.72952">
        <ele>2554.9</ele>
        <time>2020-02-14T00:57:44.685Z</time>
      </trkpt>
      <trkpt lat="42.52176" lon="1.7295">
        <ele>2553.7</ele>
        <time>2020-02-14T00:57:47.414Z</time>
      </trkpt>
      <trkpt lat="42.5218" lon="1.72944">
        <ele>2552.5</ele>
        <time>2020-02-14T00:57:50.477Z</time>
      </trkpt>
      <trkpt lat="42.5218" lon="1.72934">
        <ele>2551.4</ele>
        <time>2020-02-14T00:57:53.966Z</time>
      </trkpt>
      <trkpt lat="42.52184" lon="1.72935">
        <ele>2546.7</ele>
        <time>2020-02-14T00:57:57.039Z</time>
      </trkpt>
      <trkpt lat="42.52188" lon="1.72939">
        <ele>2545.8</ele>
        <time>2020-02-14T00:57:59.336Z</time>
      </trkpt>
      <trkpt lat="42.52192" lon="1.72942">
        <ele>2544.3</ele>
        <time>2020-02-14T00:58:01.797Z</time>
      </trkpt>
      <trkpt lat="42.52196" lon="1.72947">
        <ele>2542.9</ele>
        <time>2020-02-14T00:58:04.472Z</time>
      </trkpt>
      <trkpt lat="42.522" lon="1.72949">
        <ele>2539.9</ele>
        <time>2020-02-14T00:58:07.113Z</time>
      </trkpt>
      <trkpt lat="42.52204" lon="1.72941">
        <ele>2538.2</ele>
        <time>2020-02-14T00:58:10.953Z</time>
      </trkpt>
      <trkpt lat="42.52205" lon="1.72934">
        <ele>2535.4</ele>
        <time>2020-02-14T00:58:13.583Z</time>
      </trkpt>
      <trkpt lat="42.52205" lon="1.72926">
        <ele>2533.6</ele>
        <time>2020-02-14T00:58:16.708Z</time>
      </trkpt>
      <trkpt lat="42.52207" lon="1.7292">
        <ele>2530.9</ele>
        <time>2020-02-14T00:58:19.307Z</time>
      </trkpt>
      <trkpt lat="42.52212" lon="1.72919">
        <ele>2529.1</ele>
        <time>2020-02-14T00:58:21.848Z</time>
      </trkpt>
      <trkpt lat="42.52218" lon="1.7292">
        <ele>2528</ele>
        <time>2020-02-14T00:58:25.214Z</time>
      </trkpt>
      <trkpt lat="42.52223" lon="1.72921">
        <ele>2526.9</ele>
        <time>2020-02-14T00:58:27.723Z</time>
      </trkpt>
      <trkpt lat="42.52228" lon="1.7292">
        <ele>2526</ele>
        <time>2020-02-14T00:58:30.167Z</time>
      </trkpt>
      <trkpt lat="42.52235" lon="1.72916">
        <ele>2525.2</ele>
        <time>2020-02-14T00:58:33.682Z</time>
      </trkpt>
      <trkpt lat="42.52241" lon="1.7291">
        <ele>2524.2</ele>
        <time>2020-02-14T00:58:37.361Z</time>
      </trkpt>
      <trkpt lat="42.52245" lon="1.72905">
        <ele>2523</ele>
        <time>2020-02-14T00:58:39.952Z</time>
      </trkpt>
      <trkpt lat="42.52249" lon="1.72906">
        <ele>2521.8</ele>
        <time>2020-02-14T00:58:42.353Z</time>
      </trkpt>
      <trkpt lat="42.52254" lon="1.72903">
        <ele>2520.8</ele>
        <time>2020-02-14T00:58:44.607Z</time>
      </trkpt>
      <trkpt lat="42.52258" lon="1.72897">
        <ele>2519.9</ele>
        <time>2020-02-14T00:58:48.008Z</time>
      </trkpt>
      <trkpt lat="42.52263" lon="1.72893">
        <ele>2518.8</ele>
        <time>2020-02-14T00:58:50.554Z</time>
      </trkpt>
      <trkpt lat="42.52268" lon="1.72891">
        <ele>2518.1</ele>
        <time>2020-02-14T00:58:53.298Z</time>
      </trkpt>
      <trkpt lat="42.52274" lon="1.72894">
        <ele>2517</ele>
        <time>2020-02-14T00:58:56.563Z</time>
      </trkpt>
      <trkpt lat="42.52279" lon="1.72897">
        <ele>2514.5</ele>
        <time>2020-02-14T00:58:59.415Z</time>
      </trkpt>
      <trkpt lat="42.52284" lon="1.72901">
        <ele>2512</ele>
        <time>2020-02-14T00:59:02.233Z</time>
      </trkpt>
      <trkpt lat="42.52288" lon="1.72908">
        <ele>2509.7</ele>
        <time>2020-02-14T00:59:05.634Z</time>
      </trkpt>
      <trkpt lat="42.52292" lon="1.7291">
        <ele>2508.2</ele>
        <time>2020-02-14T00:59:08.064Z</time>
      </trkpt>
      <trkpt lat="42.52297" lon="1.7291">
        <ele>2507.3</ele>
        <time>2020-02-14T00:59:10.485Z</time>
      </trkpt>
      <trkpt lat="42.52302" lon="1.72908">
        <ele>2505.9</ele>
        <time>2020-02-14T00:59:12.760Z</time>
      </trkpt>
      <trkpt lat="42.52307" lon="1.72908">
        <ele>2504.7</ele>
        <time>2020-02-14T00:59:15.365Z</time>
      </trkpt>
      <trkpt lat="42.52312" lon="1.72913">
        <ele>2503.5</ele>
        <time>2020-02-14T00:59:18.581Z</time>
      </trkpt>
      <trkpt lat="42.52316" lon="1.72909">
        <ele>2501.8</ele>
        <time>2020-02-14T00:59:21.157Z</time>
      </trkpt>
      <trkpt lat="42.5232" lon="1.72906">
        <ele>2500.7</ele>
        <time>2020-02-14T00:59:23.529Z</time>
      </trkpt>
      <trkpt lat="42.52328" lon="1.729">
        <ele>2499.6</ele>
        <time>2020-02-14T00:59:27.849Z</time>
      </trkpt>
      <trkpt lat="42.52332" lon="1.72897">
        <ele>2498.1</ele>
        <time>2020-02-14T00:59:30.304Z</time>
      </trkpt>
      <trkpt lat="42.52338" lon="1.72897">
        <ele>2496.9</ele>
        <time>2020-02-14T00:59:32.996Z</time>
      </trkpt>
      <trkpt lat="42.52342" lon="1.729">
        <ele>2495.9</ele>
        <time>2020-02-14T00:59:35.554Z</time>
      </trkpt>
      <trkpt lat="42.52346" lon="1.72904">
        <ele>2495.4</ele>
        <time>2020-02-14T00:59:37.845Z</time>
      </trkpt>
      <trkpt lat="42.52351" lon="1.72903">
        <ele>2495</ele>
        <time>2020-02-14T00:59:40.669Z</time>
      </trkpt>
      <trkpt lat="42.52357" lon="1.72904">
        <ele>2494.5</ele>
        <time>2020-02-14T00:59:43.541Z</time>
      </trkpt>
      <trkpt lat="42.52362" lon="1.72905">
        <ele>2493.7</ele>
        <time>2020-02-14T00:59:46.053Z</time>
      </trkpt>
      <trkpt lat="42.52367" lon="1.72903">
        <ele>2493.3</ele>
        <time>2020-02-14T00:59:48.392Z</time>
      </trkpt>
      <trkpt lat="42.52373" lon="1.729">
        <ele>2492.9</ele>
        <time>2020-02-14T00:59:51.448Z</time>
      </trkpt>
      <trkpt lat="42.52379" lon="1.72899">
        <ele>2492.4</ele>
        <time>2020-02-14T00:59:54.342Z</time>
      </trkpt>
      <trkpt lat="42.52386" lon="1.72898">
        <ele>2491.7</ele>
        <time>2020-02-14T00:59:57.837Z</time>
      </trkpt>
      <trkpt lat="42.52392" lon="1.72898">
        <ele>2491.3</ele>
        <time>2020-02-14T01:00:00.870Z</time>
      </trkpt>
      <trkpt lat="42.52397" lon="1.72897">
        <ele>2490.6</ele>
        <time>2020-02-14T01:00:03.318Z</time>
      </trkpt>
      <trkpt lat="42.52402" lon="1.72894">
        <ele>2489.9</ele>
        <time>2020-02-14T01:00:05.772Z</time>
      </trkpt>
      <trkpt lat="42.52408" lon="1.72894">
        <ele>2489.5</ele>
        <time>2020-02-14T01:00:08.851Z</time>
      </trkpt>
      <trkpt lat="42.52418" lon="1.72897">
        <ele>2488.9</ele>
        <time>2020-02-14T01:00:13.974Z</time>
      </trkpt>
      <trkpt lat="42.52423" lon="1.72901">
        <ele>2488.4</ele>
        <time>2020-02-14T01:00:16.611Z</time>
      </trkpt>
      <trkpt lat="42.52429" lon="1.72905">
        <ele>2487.9</ele>
        <time>2020-02-14T01:00:19.882Z</time>
      </trkpt>
      <trkpt lat="42.52435" lon="1.72911">
        <ele>2487</ele>
        <time>2020-02-14T01:00:23.852Z</time>
      </trkpt>
      <trkpt lat="42.5244" lon="1.72913">
        <ele>2486.2</ele>
        <time>2020-02-14T01:00:26.151Z</time>
      </trkpt>
      <trkpt lat="42.52445" lon="1.72911">
        <ele>2485.9</ele>
        <time>2020-02-14T01:00:28.690Z</time>
      </trkpt>
      <trkpt lat="42.52451" lon="1.7291">
        <ele>2485.3</ele>
        <time>2020-02-14T01:00:31.548Z</time>
      </trkpt>
      <trkpt lat="42.52455" lon="1.72908">
        <ele>2485</ele>
        <time>2020-02-14T01:00:33.977Z</time>
      </trkpt>
      <trkpt lat="42.52459" lon="1.72903">
        <ele>2484</ele>
        <time>2020-02-14T01:00:36.501Z</time>
      </trkpt>
      <trkpt lat="42.52463" lon="1.72901">
        <ele>2482</ele>
        <time>2020-02-14T01:00:38.862Z</time>
      </trkpt>
      <trkpt lat="42.52467" lon="1.72897">
        <ele>2481</ele>
        <time>2020-02-14T01:00:41.263Z</time>
      </trkpt>
      <trkpt lat="42.52472" lon="1.72895">
        <ele>2480.1</ele>
        <time>2020-02-14T01:00:43.627Z</time>
      </trkpt>
      <trkpt lat="42.52476" lon="1.72892">
        <ele>2478.7</ele>
        <time>2020-02-14T01:00:46.151Z</time>
      </trkpt>
      <trkpt lat="42.52479" lon="1.72897">
        <ele>2478.8</ele>
        <time>2020-02-14T01:00:48.369Z</time>
      </trkpt>
      <trkpt lat="42.52478" lon="1.7289">
        <ele>2477.5</ele>
        <time>2020-02-14T01:00:50.962Z</time>
      </trkpt>
      <trkpt lat="42.52475" lon="1.72885">
        <ele>2477.8</ele>
        <time>2020-02-14T01:00:53.152Z</time>
      </trkpt>
      <trkpt lat="42.5248" lon="1.72887">
        <ele>2477.2</ele>
        <time>2020-02-14T01:00:55.657Z</time>
      </trkpt>
      <trkpt lat="42.52483" lon="1.72893">
        <ele>2475.9</ele>
        <time>2020-02-14T01:00:58.211Z</time>
      </trkpt>
      <trkpt lat="42.52482" lon="1.72899">
        <ele>2475.3</ele>
        <time>2020-02-14T01:01:00.537Z</time>
      </trkpt>
      <trkpt lat="42.52486" lon="1.72903">
        <ele>2475.2</ele>
        <time>2020-02-14T01:01:02.901Z</time>
      </trkpt>
      <trkpt lat="42.5249" lon="1.72907">
        <ele>2475.1</ele>
        <time>2020-02-14T01:01:05.407Z</time>
      </trkpt>
      <trkpt lat="42.52495" lon="1.72909">
        <ele>2475.4</ele>
        <time>2020-02-14T01:01:07.891Z</time>
      </trkpt>
      <trkpt lat="42.52498" lon="1.72913">
        <ele>2475.6</ele>
        <time>2020-02-14T01:01:10.090Z</time>
      </trkpt>
      <trkpt lat="42.52502" lon="1.72915">
        <ele>2475.6</ele>
        <time>2020-02-14T01:01:12.296Z</time>
      </trkpt>
      <trkpt lat="42.52507" lon="1.72918">
        <ele>2475.4</ele>
        <time>2020-02-14T01:01:14.598Z</time>
      </trkpt>
      <trkpt lat="42.52511" lon="1.7292">
        <ele>2474.8</ele>
        <time>2020-02-14T01:01:16.860Z</time>
      </trkpt>
      <trkpt lat="42.52516" lon="1.72923">
        <ele>2474.2</ele>
        <time>2020-02-14T01:01:19.540Z</time>
      </trkpt>
      <trkpt lat="42.52523" lon="1.72925">
        <ele>2474</ele>
        <time>2020-02-14T01:01:23.184Z</time>
      </trkpt>
      <trkpt lat="42.52528" lon="1.72922">
        <ele>2473.5</ele>
        <time>2020-02-14T01:01:25.616Z</time>
      </trkpt>
      <trkpt lat="42.52532" lon="1.72923">
        <ele>2472.9</ele>
        <time>2020-02-14T01:01:28.057Z</time>
      </trkpt>
      <trkpt lat="42.52537" lon="1.72922">
        <ele>2470.6</ele>
        <time>2020-02-14T01:01:30.664Z</time>
      </trkpt>
      <trkpt lat="42.52542" lon="1.72921">
        <ele>2469.4</ele>
        <time>2020-02-14T01:01:33.020Z</time>
      </trkpt>
      <trkpt lat="42.52558" lon="1.72927">
        <ele>2468</ele>
        <time>2020-02-14T01:01:41.433Z</time>
      </trkpt>
      <trkpt lat="42.52567" lon="1.72933">
        <ele>2467.1</ele>
        <time>2020-02-14T01:01:46.139Z</time>
      </trkpt>
      <trkpt lat="42.52568" lon="1.72941">
        <ele>2466.5</ele>
        <time>2020-02-14T01:01:49.049Z</time>
      </trkpt>
      <trkpt lat="42.52572" lon="1.72944">
        <ele>2465.9</ele>
        <time>2020-02-14T01:01:51.437Z</time>
      </trkpt>
      <trkpt lat="42.52577" lon="1.72943">
        <ele>2464</ele>
        <time>2020-02-14T01:01:53.875Z</time>
      </trkpt>
      <trkpt lat="42.52579" lon="1.72949">
        <ele>2463.2</ele>
        <time>2020-02-14T01:01:56.208Z</time>
      </trkpt>
      <trkpt lat="42.52584" lon="1.72952">
        <ele>2462.3</ele>
        <time>2020-02-14T01:01:58.893Z</time>
      </trkpt>
      <trkpt lat="42.52589" lon="1.72957">
        <ele>2461.1</ele>
        <time>2020-02-14T01:02:01.848Z</time>
      </trkpt>
      <trkpt lat="42.52593" lon="1.72961">
        <ele>2457.5</ele>
        <time>2020-02-14T01:02:04.694Z</time>
      </trkpt>
      <trkpt lat="42.52597" lon="1.72964">
        <ele>2455.6</ele>
        <time>2020-02-14T01:02:07.079Z</time>
      </trkpt>
      <trkpt lat="42.52602" lon="1.7297">
        <ele>2453.5</ele>
        <time>2020-02-14T01:02:10.783Z</time>
      </trkpt>
      <trkpt lat="42.52607" lon="1.72973">
        <ele>2451.5</ele>
        <time>2020-02-14T01:02:13.413Z</time>
      </trkpt>
      <trkpt lat="42.52612" lon="1.72979">
        <ele>2450.3</ele>
        <time>2020-02-14T01:02:16.694Z</time>
      </trkpt>
      <trkpt lat="42.52616" lon="1.72985">
        <ele>2449.2</ele>
        <time>2020-02-14T01:02:19.803Z</time>
      </trkpt>
      <trkpt lat="42.5262" lon="1.72991">
        <ele>2448.2</ele>
        <time>2020-02-14T01:02:22.567Z</time>
      </trkpt>
      <trkpt lat="42.52625" lon="1.72998">
        <ele>2447.5</ele>
        <time>2020-02-14T01:02:25.948Z</time>
      </trkpt>
      <trkpt lat="42.52629" lon="1.73003">
        <ele>2446.3</ele>
        <time>2020-02-14T01:02:28.906Z</time>
      </trkpt>
      <trkpt lat="42.52633" lon="1.73011">
        <ele>2444.8</ele>
        <time>2020-02-14T01:02:32.471Z</time>
      </trkpt>
      <trkpt lat="42.52636" lon="1.73017">
        <ele>2443.4</ele>
        <time>2020-02-14T01:02:35.015Z</time>
      </trkpt>
      <trkpt lat="42.52639" lon="1.73024">
        <ele>2441.6</ele>
        <time>2020-02-14T01:02:37.859Z</time>
      </trkpt>
      <trkpt lat="42.52641" lon="1.73029">
        <ele>2439.3</ele>
        <time>2020-02-14T01:02:40.298Z</time>
      </trkpt>
      <trkpt lat="42.52643" lon="1.73035">
        <ele>2436.3</ele>
        <time>2020-02-14T01:02:42.951Z</time>
      </trkpt>
      <trkpt lat="42.52648" lon="1.73041">
        <ele>2434.7</ele>
        <time>2020-02-14T01:02:45.978Z</time>
      </trkpt>
      <trkpt lat="42.5265" lon="1.73046">
        <ele>2433.5</ele>
        <time>2020-02-14T01:02:48.309Z</time>
      </trkpt>
      <trkpt lat="42.52655" lon="1.73053">
        <ele>2432.1</ele>
        <time>2020-02-14T01:02:52.102Z</time>
      </trkpt>
      <trkpt lat="42.52659" lon="1.73061">
        <ele>2431.1</ele>
        <time>2020-02-14T01:02:55.433Z</time>
      </trkpt>
      <trkpt lat="42.52664" lon="1.73059">
        <ele>2429.4</ele>
        <time>2020-02-14T01:02:57.813Z</time>
      </trkpt>
      <trkpt lat="42.5267" lon="1.7306">
        <ele>2428</ele>
        <time>2020-02-14T01:03:00.802Z</time>
      </trkpt>
      <trkpt lat="42.52678" lon="1.73062">
        <ele>2427.9</ele>
        <time>2020-02-14T01:03:04.831Z</time>
      </trkpt>
      <trkpt lat="42.52686" lon="1.73068">
        <ele>2427.9</ele>
        <time>2020-02-14T01:03:09.508Z</time>
      </trkpt>
      <trkpt lat="42.5269" lon="1.73075">
        <ele>2427.8</ele>
        <time>2020-02-14T01:03:12.869Z</time>
      </trkpt>
      <trkpt lat="42.52696" lon="1.73082">
        <ele>2427.6</ele>
        <time>2020-02-14T01:03:16.562Z</time>
      </trkpt>
      <trkpt lat="42.52699" lon="1.73088">
        <ele>2427</ele>
        <time>2020-02-14T01:03:19.061Z</time>
      </trkpt>
      <trkpt lat="42.527" lon="1.73094">
        <ele>2426.5</ele>
        <time>2020-02-14T01:03:21.524Z</time>
      </trkpt>
      <trkpt lat="42.52705" lon="1.73098">
        <ele>2425.8</ele>
        <time>2020-02-14T01:03:24.202Z</time>
      </trkpt>
      <trkpt lat="42.5271" lon="1.73098">
        <ele>2425</ele>
        <time>2020-02-14T01:03:26.518Z</time>
      </trkpt>
      <trkpt lat="42.52714" lon="1.73095">
        <ele>2424.3</ele>
        <time>2020-02-14T01:03:28.780Z</time>
      </trkpt>
      <trkpt lat="42.52718" lon="1.73101">
        <ele>2421.5</ele>
        <time>2020-02-14T01:03:31.976Z</time>
      </trkpt>
      <trkpt lat="42.52721" lon="1.73107">
        <ele>2420.8</ele>
        <time>2020-02-14T01:03:34.457Z</time>
      </trkpt>
      <trkpt lat="42.52726" lon="1.73111">
        <ele>2419.7</ele>
        <time>2020-02-14T01:03:37.267Z</time>
      </trkpt>
      <trkpt lat="42.52731" lon="1.73113">
        <ele>2418.7</ele>
        <time>2020-02-14T01:03:39.990Z</time>
      </trkpt>
      <trkpt lat="42.52738" lon="1.73114">
        <ele>2417.7</ele>
        <time>2020-02-14T01:03:43.447Z</time>
      </trkpt>
      <trkpt lat="42.52742" lon="1.73116">
        <ele>2416.5</ele>
        <time>2020-02-14T01:03:45.716Z</time>
      </trkpt>
      <trkpt lat="42.52747" lon="1.73118">
        <ele>2415.5</ele>
        <time>2020-02-14T01:03:48.169Z</time>
      </trkpt>
      <trkpt lat="42.52752" lon="1.73122">
        <ele>2414.2</ele>
        <time>2020-02-14T01:03:51.039Z</time>
      </trkpt>
      <trkpt lat="42.52757" lon="1.73124">
        <ele>2412.3</ele>
        <time>2020-02-14T01:03:53.444Z</time>
      </trkpt>
      <trkpt lat="42.52762" lon="1.73126">
        <ele>2410.6</ele>
        <time>2020-02-14T01:03:56.106Z</time>
      </trkpt>
      <trkpt lat="42.52766" lon="1.73132">
        <ele>2409.2</ele>
        <time>2020-02-14T01:03:59.054Z</time>
      </trkpt>
      <trkpt lat="42.52772" lon="1.73134">
        <ele>2407.9</ele>
        <time>2020-02-14T01:04:02.402Z</time>
      </trkpt>
      <trkpt lat="42.52777" lon="1.73134">
        <ele>2406.7</ele>
        <time>2020-02-14T01:04:04.715Z</time>
      </trkpt>
      <trkpt lat="42.52781" lon="1.73139">
        <ele>2405.1</ele>
        <time>2020-02-14T01:04:07.354Z</time>
      </trkpt>
      <trkpt lat="42.52785" lon="1.73142">
        <ele>2403.6</ele>
        <time>2020-02-14T01:04:09.904Z</time>
      </trkpt>
      <trkpt lat="42.5279" lon="1.73143">
        <ele>2402</ele>
        <time>2020-02-14T01:04:12.355Z</time>
      </trkpt>
      <trkpt lat="42.52794" lon="1.73141">
        <ele>2400.1</ele>
        <time>2020-02-14T01:04:14.949Z</time>
      </trkpt>
      <trkpt lat="42.528" lon="1.7314">
        <ele>2398.9</ele>
        <time>2020-02-14T01:04:17.930Z</time>
      </trkpt>
      <trkpt lat="42.52805" lon="1.73141">
        <ele>2397</ele>
        <time>2020-02-14T01:04:20.397Z</time>
      </trkpt>
      <trkpt lat="42.52813" lon="1.73143">
        <ele>2395.9</ele>
        <time>2020-02-14T01:04:24.509Z</time>
      </trkpt>
      <trkpt lat="42.52818" lon="1.73142">
        <ele>2395.1</ele>
        <time>2020-02-14T01:04:26.958Z</time>
      </trkpt>
      <trkpt lat="42.52823" lon="1.7314">
        <ele>2394</ele>
        <time>2020-02-14T01:04:29.362Z</time>
      </trkpt>
      <trkpt lat="42.52827" lon="1.73137">
        <ele>2392.4</ele>
        <time>2020-02-14T01:04:31.694Z</time>
      </trkpt>
      <trkpt lat="42.52832" lon="1.73138">
        <ele>2391.6</ele>
        <time>2020-02-14T01:04:34.214Z</time>
      </trkpt>
      <trkpt lat="42.52836" lon="1.73134">
        <ele>2390.4</ele>
        <time>2020-02-14T01:04:36.617Z</time>
      </trkpt>
      <trkpt lat="42.52838" lon="1.7314">
        <ele>2388.6</ele>
        <time>2020-02-14T01:04:39.114Z</time>
      </trkpt>
      <trkpt lat="42.52843" lon="1.73142">
        <ele>2387.4</ele>
        <time>2020-02-14T01:04:41.703Z</time>
      </trkpt>
      <trkpt lat="42.52848" lon="1.73144">
        <ele>2386.3</ele>
        <time>2020-02-14T01:04:44.041Z</time>
      </trkpt>
      <trkpt lat="42.52853" lon="1.73151">
        <ele>2385</ele>
        <time>2020-02-14T01:04:47.819Z</time>
      </trkpt>
      <trkpt lat="42.52862" lon="1.7315">
        <ele>2383.2</ele>
        <time>2020-02-14T01:04:52.153Z</time>
      </trkpt>
      <trkpt lat="42.52867" lon="1.73149">
        <ele>2381.4</ele>
        <time>2020-02-14T01:04:54.788Z</time>
      </trkpt>
      <trkpt lat="42.52871" lon="1.73153">
        <ele>2379.3</ele>
        <time>2020-02-14T01:04:57.503Z</time>
      </trkpt>
      <trkpt lat="42.52877" lon="1.73153">
        <ele>2377.3</ele>
        <time>2020-02-14T01:05:00.274Z</time>
      </trkpt>
      <trkpt lat="42.52881" lon="1.73154">
        <ele>2375.5</ele>
        <time>2020-02-14T01:05:02.763Z</time>
      </trkpt>
      <trkpt lat="42.52886" lon="1.73155">
        <ele>2374</ele>
        <time>2020-02-14T01:05:05.223Z</time>
      </trkpt>
      <trkpt lat="42.52889" lon="1.7316">
        <ele>2372.7</ele>
        <time>2020-02-14T01:05:07.525Z</time>
      </trkpt>
      <trkpt lat="42.52893" lon="1.73165">
        <ele>2368.8</ele>
        <time>2020-02-14T01:05:10.589Z</time>
      </trkpt>
      <trkpt lat="42.52898" lon="1.73169">
        <ele>2367.8</ele>
        <time>2020-02-14T01:05:13.464Z</time>
      </trkpt>
      <trkpt lat="42.529" lon="1.73174">
        <ele>2365.7</ele>
        <time>2020-02-14T01:05:15.847Z</time>
      </trkpt>
      <trkpt lat="42.52903" lon="1.73179">
        <ele>2364.7</ele>
        <time>2020-02-14T01:05:18.267Z</time>
      </trkpt>
      <trkpt lat="42.52905" lon="1.73185">
        <ele>2363.9</ele>
        <time>2020-02-14T01:05:20.517Z</time>
      </trkpt>
      <trkpt lat="42.5291" lon="1.73185">
        <ele>2363</ele>
        <time>2020-02-14T01:05:22.896Z</time>
      </trkpt>
      <trkpt lat="42.52914" lon="1.7319">
        <ele>2361.6</ele>
        <time>2020-02-14T01:05:25.531Z</time>
      </trkpt>
      <trkpt lat="42.52918" lon="1.73192">
        <ele>2360.1</ele>
        <time>2020-02-14T01:05:27.961Z</time>
      </trkpt>
      <trkpt lat="42.52922" lon="1.73196">
        <ele>2359.1</ele>
        <time>2020-02-14T01:05:30.328Z</time>
      </trkpt>
      <trkpt lat="42.52927" lon="1.73195">
        <ele>2357.6</ele>
        <time>2020-02-14T01:05:32.651Z</time>
      </trkpt>
      <trkpt lat="42.52931" lon="1.73198">
        <ele>2355.8</ele>
        <time>2020-02-14T01:05:35.298Z</time>
      </trkpt>
      <trkpt lat="42.52934" lon="1.73203">
        <ele>2352.9</ele>
        <time>2020-02-14T01:05:37.928Z</time>
      </trkpt>
      <trkpt lat="42.52939" lon="1.73201">
        <ele>2350.4</ele>
        <time>2020-02-14T01:05:40.524Z</time>
      </trkpt>
      <trkpt lat="42.52942" lon="1.73207">
        <ele>2348.5</ele>
        <time>2020-02-14T01:05:42.977Z</time>
      </trkpt>
      <trkpt lat="42.52946" lon="1.7321">
        <ele>2347.3</ele>
        <time>2020-02-14T01:05:45.549Z</time>
      </trkpt>
      <trkpt lat="42.5295" lon="1.73215">
        <ele>2345.9</ele>
        <time>2020-02-14T01:05:48.258Z</time>
      </trkpt>
      <trkpt lat="42.52952" lon="1.73222">
        <ele>2343.4</ele>
        <time>2020-02-14T01:05:51.150Z</time>
      </trkpt>
      <trkpt lat="42.52955" lon="1.73227">
        <ele>2342.4</ele>
        <time>2020-02-14T01:05:53.451Z</time>
      </trkpt>
      <trkpt lat="42.52959" lon="1.7323">
        <ele>2341.3</ele>
        <time>2020-02-14T01:05:55.715Z</time>
      </trkpt>
      <trkpt lat="42.52963" lon="1.73233">
        <ele>2340.3</ele>
        <time>2020-02-14T01:05:58.001Z</time>
      </trkpt>
      <trkpt lat="42.52969" lon="1.73236">
        <ele>2339.2</ele>
        <time>2020-02-14T01:06:00.998Z</time>
      </trkpt>
      <trkpt lat="42.52974" lon="1.73237">
        <ele>2337.8</ele>
        <time>2020-02-14T01:06:03.515Z</time>
      </trkpt>
      <trkpt lat="42.52977" lon="1.73241">
        <ele>2336.1</ele>
        <time>2020-02-14T01:06:05.993Z</time>
      </trkpt>
      <trkpt lat="42.52981" lon="1.73246">
        <ele>2335.2</ele>
        <time>2020-02-14T01:06:08.747Z</time>
      </trkpt>
      <trkpt lat="42.52984" lon="1.73253">
        <ele>2334.1</ele>
        <time>2020-02-14T01:06:11.608Z</time>
      </trkpt>
      <trkpt lat="42.52984" lon="1.73265">
        <ele>2333.2</ele>
        <time>2020-02-14T01:06:15.725Z</time>
      </trkpt>
      <trkpt lat="42.52987" lon="1.7327">
        <ele>2332.2</ele>
        <time>2020-02-14T01:06:18.314Z</time>
      </trkpt>
      <trkpt lat="42.52993" lon="1.73276">
        <ele>2331</ele>
        <time>2020-02-14T01:06:21.896Z</time>
      </trkpt>
      <trkpt lat="42.52996" lon="1.7328">
        <ele>2329.8</ele>
        <time>2020-02-14T01:06:24.217Z</time>
      </trkpt>
      <trkpt lat="42.52993" lon="1.73285">
        <ele>2328</ele>
        <time>2020-02-14T01:06:26.687Z</time>
      </trkpt>
      <trkpt lat="42.52998" lon="1.73282">
        <ele>2327.6</ele>
        <time>2020-02-14T01:06:29.152Z</time>
      </trkpt>
      <trkpt lat="42.52998" lon="1.73289">
        <ele>2326.8</ele>
        <time>2020-02-14T01:06:31.583Z</time>
      </trkpt>
      <trkpt lat="42.53001" lon="1.73294">
        <ele>2325.7</ele>
        <time>2020-02-14T01:06:33.928Z</time>
      </trkpt>
      <trkpt lat="42.52998" lon="1.73299">
        <ele>2324.3</ele>
        <time>2020-02-14T01:06:36.263Z</time>
      </trkpt>
      <trkpt lat="42.52996" lon="1.73305">
        <ele>2323.7</ele>
        <time>2020-02-14T01:06:38.636Z</time>
      </trkpt>
      <trkpt lat="42.53001" lon="1.73299">
        <ele>2323.4</ele>
        <time>2020-02-14T01:06:42.050Z</time>
      </trkpt>
      <trkpt lat="42.53006" lon="1.73298">
        <ele>2322.7</ele>
        <time>2020-02-14T01:06:44.402Z</time>
      </trkpt>
      <trkpt lat="42.53006" lon="1.73291">
        <ele>2322.5</ele>
        <time>2020-02-14T01:06:46.664Z</time>
      </trkpt>
      <trkpt lat="42.53002" lon="1.73288">
        <ele>2322.9</ele>
        <time>2020-02-14T01:06:48.894Z</time>
      </trkpt>
      <trkpt lat="42.53006" lon="1.73284">
        <ele>2323.3</ele>
        <time>2020-02-14T01:06:51.233Z</time>
      </trkpt>
      <trkpt lat="42.53007" lon="1.73277">
        <ele>2323</ele>
        <time>2020-02-14T01:06:53.780Z</time>
      </trkpt>
      <trkpt lat="42.53012" lon="1.73279">
        <ele>2322.1</ele>
        <time>2020-02-14T01:06:56.304Z</time>
      </trkpt>
      <trkpt lat="42.53017" lon="1.73281">
        <ele>2321.6</ele>
        <time>2020-02-14T01:06:58.884Z</time>
      </trkpt>
      <trkpt lat="42.53021" lon="1.73276">
        <ele>2322</ele>
        <time>2020-02-14T01:07:01.429Z</time>
      </trkpt>
      <trkpt lat="42.53027" lon="1.73275">
        <ele>2322.1</ele>
        <time>2020-02-14T01:07:04.479Z</time>
      </trkpt>
      <trkpt lat="42.53034" lon="1.73274">
        <ele>2322.1</ele>
        <time>2020-02-14T01:07:07.870Z</time>
      </trkpt>
      <trkpt lat="42.53039" lon="1.73275">
        <ele>2321.9</ele>
        <time>2020-02-14T01:07:10.187Z</time>
      </trkpt>
      <trkpt lat="42.53045" lon="1.73272">
        <ele>2321.6</ele>
        <time>2020-02-14T01:07:13.203Z</time>
      </trkpt>
      <trkpt lat="42.53048" lon="1.73267">
        <ele>2321.3</ele>
        <time>2020-02-14T01:07:15.641Z</time>
      </trkpt>
      <trkpt lat="42.53052" lon="1.73263">
        <ele>2321.1</ele>
        <time>2020-02-14T01:07:18.116Z</time>
      </trkpt>
      <trkpt lat="42.53059" lon="1.73262">
        <ele>2321.1</ele>
        <time>2020-02-14T01:07:21.490Z</time>
      </trkpt>
      <trkpt lat="42.53064" lon="1.73262">
        <ele>2320.9</ele>
        <time>2020-02-14T01:07:23.880Z</time>
      </trkpt>
      <trkpt lat="42.53068" lon="1.73255">
        <ele>2320.5</ele>
        <time>2020-02-14T01:07:27.042Z</time>
      </trkpt>
      <trkpt lat="42.53072" lon="1.73252">
        <ele>2319.8</ele>
        <time>2020-02-14T01:07:29.620Z</time>
      </trkpt>
      <trkpt lat="42.53078" lon="1.73252">
        <ele>2319.5</ele>
        <time>2020-02-14T01:07:32.452Z</time>
      </trkpt>
      <trkpt lat="42.53085" lon="1.73251">
        <ele>2319.5</ele>
        <time>2020-02-14T01:07:35.838Z</time>
      </trkpt>
      <trkpt lat="42.53096" lon="1.73248">
        <ele>2319.1</ele>
        <time>2020-02-14T01:07:41.037Z</time>
      </trkpt>
      <trkpt lat="42.53101" lon="1.73247">
        <ele>2318.7</ele>
        <time>2020-02-14T01:07:43.840Z</time>
      </trkpt>
      <trkpt lat="42.53109" lon="1.73244">
        <ele>2318.4</ele>
        <time>2020-02-14T01:07:47.991Z</time>
      </trkpt>
      <trkpt lat="42.53115" lon="1.73243">
        <ele>2318.1</ele>
        <time>2020-02-14T01:07:50.516Z</time>
      </trkpt>
      <trkpt lat="42.53119" lon="1.73239">
        <ele>2317.8</ele>
        <time>2020-02-14T01:07:53.211Z</time>
      </trkpt>
      <trkpt lat="42.53124" lon="1.73233">
        <ele>2317.5</ele>
        <time>2020-02-14T01:07:56.043Z</time>
      </trkpt>
      <trkpt lat="42.5313" lon="1.7323">
        <ele>2317.1</ele>
        <time>2020-02-14T01:07:59.514Z</time>
      </trkpt>
      <trkpt lat="42.53137" lon="1.73229">
        <ele>2316.6</ele>
        <time>2020-02-14T01:08:02.955Z</time>
      </trkpt>
      <trkpt lat="42.53142" lon="1.73226">
        <ele>2316.4</ele>
        <time>2020-02-14T01:08:05.404Z</time>
      </trkpt>
      <trkpt lat="42.53145" lon="1.73221">
        <ele>2316.2</ele>
        <time>2020-02-14T01:08:07.836Z</time>
      </trkpt>
      <trkpt lat="42.53149" lon="1.73216">
        <ele>2316.3</ele>
        <time>2020-02-14T01:08:10.374Z</time>
      </trkpt>
      <trkpt lat="42.53153" lon="1.73214">
        <ele>2316.6</ele>
        <time>2020-02-14T01:08:12.679Z</time>
      </trkpt>
      <trkpt lat="42.5316" lon="1.7321">
        <ele>2316.7</ele>
        <time>2020-02-14T01:08:16.410Z</time>
      </trkpt>
      <trkpt lat="42.53168" lon="1.73208">
        <ele>2316.7</ele>
        <time>2020-02-14T01:08:20.133Z</time>
      </trkpt>
      <trkpt lat="42.53173" lon="1.73205">
        <ele>2316.6</ele>
        <time>2020-02-14T01:08:22.647Z</time>
      </trkpt>
      <trkpt lat="42.53177" lon="1.73202">
        <ele>2316.4</ele>
        <time>2020-02-14T01:08:25.194Z</time>
      </trkpt>
      <trkpt lat="42.53182" lon="1.73198">
        <ele>2315.9</ele>
        <time>2020-02-14T01:08:27.708Z</time>
      </trkpt>
      <trkpt lat="42.53188" lon="1.73192">
        <ele>2315.5</ele>
        <time>2020-02-14T01:08:31.409Z</time>
      </trkpt>
      <trkpt lat="42.53194" lon="1.73188">
        <ele>2315</ele>
        <time>2020-02-14T01:08:34.914Z</time>
      </trkpt>
      <trkpt lat="42.53203" lon="1.73193">
        <ele>2314.8</ele>
        <time>2020-02-14T01:08:39.489Z</time>
      </trkpt>
      <trkpt lat="42.53208" lon="1.73195">
        <ele>2314.8</ele>
        <time>2020-02-14T01:08:42.313Z</time>
      </trkpt>
      <trkpt lat="42.53213" lon="1.73196">
        <ele>2315.1</ele>
        <time>2020-02-14T01:08:44.573Z</time>
      </trkpt>
      <trkpt lat="42.53218" lon="1.73198">
        <ele>2314.9</ele>
        <time>2020-02-14T01:08:47.246Z</time>
      </trkpt>
      <trkpt lat="42.53224" lon="1.73196">
        <ele>2314.1</ele>
        <time>2020-02-14T01:08:50.224Z</time>
      </trkpt>
      <trkpt lat="42.53228" lon="1.73199">
        <ele>2313.3</ele>
        <time>2020-02-14T01:08:52.533Z</time>
      </trkpt>
      <trkpt lat="42.53233" lon="1.73198">
        <ele>2312.5</ele>
        <time>2020-02-14T01:08:55.157Z</time>
      </trkpt>
      <trkpt lat="42.53239" lon="1.73199">
        <ele>2311.2</ele>
        <time>2020-02-14T01:08:57.903Z</time>
      </trkpt>
      <trkpt lat="42.53244" lon="1.73199">
        <ele>2310.4</ele>
        <time>2020-02-14T01:09:00.362Z</time>
      </trkpt>
      <trkpt lat="42.53248" lon="1.73203">
        <ele>2310.3</ele>
        <time>2020-02-14T01:09:03.031Z</time>
      </trkpt>
      <trkpt lat="42.53253" lon="1.73205">
        <ele>2310.3</ele>
        <time>2020-02-14T01:09:05.476Z</time>
      </trkpt>
      <trkpt lat="42.53258" lon="1.73206">
        <ele>2310</ele>
        <time>2020-02-14T01:09:07.946Z</time>
      </trkpt>
      <trkpt lat="42.53262" lon="1.7321">
        <ele>2309.7</ele>
        <time>2020-02-14T01:09:10.367Z</time>
      </trkpt>
      <trkpt lat="42.53266" lon="1.73211">
        <ele>2309.2</ele>
        <time>2020-02-14T01:09:12.568Z</time>
      </trkpt>
      <trkpt lat="42.53269" lon="1.73218">
        <ele>2309.1</ele>
        <time>2020-02-14T01:09:15.187Z</time>
      </trkpt>
      <trkpt lat="42.53272" lon="1.73223">
        <ele>2308.5</ele>
        <time>2020-02-14T01:09:17.556Z</time>
      </trkpt>
      <trkpt lat="42.53276" lon="1.73225">
        <ele>2307.5</ele>
        <time>2020-02-14T01:09:19.938Z</time>
      </trkpt>
      <trkpt lat="42.53282" lon="1.73222">
        <ele>2306.4</ele>
        <time>2020-02-14T01:09:22.884Z</time>
      </trkpt>
      <trkpt lat="42.53287" lon="1.73223">
        <ele>2305.4</ele>
        <time>2020-02-14T01:09:25.160Z</time>
      </trkpt>
      <trkpt lat="42.5329" lon="1.73228">
        <ele>2303.6</ele>
        <time>2020-02-14T01:09:27.739Z</time>
      </trkpt>
      <trkpt lat="42.53295" lon="1.73231">
        <ele>2301.5</ele>
        <time>2020-02-14T01:09:30.474Z</time>
      </trkpt>
      <trkpt lat="42.533" lon="1.73234">
        <ele>2299.5</ele>
        <time>2020-02-14T01:09:33.084Z</time>
      </trkpt>
      <trkpt lat="42.53304" lon="1.73237">
        <ele>2296.5</ele>
        <time>2020-02-14T01:09:35.880Z</time>
      </trkpt>
      <trkpt lat="42.53303" lon="1.73246">
        <ele>2295.4</ele>
        <time>2020-02-14T01:09:39.204Z</time>
      </trkpt>
      <trkpt lat="42.533" lon="1.73254">
        <ele>2294.8</ele>
        <time>2020-02-14T01:09:42.436Z</time>
      </trkpt>
      <trkpt lat="42.53301" lon="1.7326">
        <ele>2293.5</ele>
        <time>2020-02-14T01:09:44.712Z</time>
      </trkpt>
      <trkpt lat="42.53299" lon="1.73267">
        <ele>2292.4</ele>
        <time>2020-02-14T01:09:47.284Z</time>
      </trkpt>
      <trkpt lat="42.53297" lon="1.73273">
        <ele>2290.5</ele>
        <time>2020-02-14T01:09:49.975Z</time>
      </trkpt>
      <trkpt lat="42.53293" lon="1.73278">
        <ele>2289.5</ele>
        <time>2020-02-14T01:09:52.502Z</time>
      </trkpt>
      <trkpt lat="42.53291" lon="1.73283">
        <ele>2288.3</ele>
        <time>2020-02-14T01:09:54.771Z</time>
      </trkpt>
      <trkpt lat="42.53288" lon="1.73289">
        <ele>2287.7</ele>
        <time>2020-02-14T01:09:57.419Z</time>
      </trkpt>
      <trkpt lat="42.53284" lon="1.73294">
        <ele>2286.4</ele>
        <time>2020-02-14T01:10:00.290Z</time>
      </trkpt>
      <trkpt lat="42.53289" lon="1.73297">
        <ele>2284.6</ele>
        <time>2020-02-14T01:10:03.144Z</time>
      </trkpt>
      <trkpt lat="42.53298" lon="1.73296">
        <ele>2283.2</ele>
        <time>2020-02-14T01:10:07.482Z</time>
      </trkpt>
      <trkpt lat="42.53305" lon="1.73296">
        <ele>2280.9</ele>
        <time>2020-02-14T01:10:10.905Z</time>
      </trkpt>
      <trkpt lat="42.53309" lon="1.73288">
        <ele>2278.8</ele>
        <time>2020-02-14T01:10:14.498Z</time>
      </trkpt>
      <trkpt lat="42.53312" lon="1.73281">
        <ele>2277.5</ele>
        <time>2020-02-14T01:10:17.496Z</time>
      </trkpt>
      <trkpt lat="42.53316" lon="1.73274">
        <ele>2276.2</ele>
        <time>2020-02-14T01:10:20.532Z</time>
      </trkpt>
      <trkpt lat="42.5332" lon="1.73262">
        <ele>2275.1</ele>
        <time>2020-02-14T01:10:25.493Z</time>
      </trkpt>
      <trkpt lat="42.53327" lon="1.73267">
        <ele>2274.4</ele>
        <time>2020-02-14T01:10:29.485Z</time>
      </trkpt>
      <trkpt lat="42.53329" lon="1.73273">
        <ele>2273.5</ele>
        <time>2020-02-14T01:10:31.944Z</time>
      </trkpt>
      <trkpt lat="42.53333" lon="1.73281">
        <ele>2273</ele>
        <time>2020-02-14T01:10:35.447Z</time>
      </trkpt>
      <trkpt lat="42.53338" lon="1.73288">
        <ele>2272.1</ele>
        <time>2020-02-14T01:10:38.837Z</time>
      </trkpt>
      <trkpt lat="42.53343" lon="1.73288">
        <ele>2270.8</ele>
        <time>2020-02-14T01:10:41.640Z</time>
      </trkpt>
      <trkpt lat="42.53349" lon="1.7329">
        <ele>2269.2</ele>
        <time>2020-02-14T01:10:44.311Z</time>
      </trkpt>
      <trkpt lat="42.53353" lon="1.73291">
        <ele>2267.7</ele>
        <time>2020-02-14T01:10:46.719Z</time>
      </trkpt>
      <trkpt lat="42.53358" lon="1.73289">
        <ele>2266.2</ele>
        <time>2020-02-14T01:10:49.065Z</time>
      </trkpt>
      <trkpt lat="42.53363" lon="1.73288">
        <ele>2264.2</ele>
        <time>2020-02-14T01:10:51.728Z</time>
      </trkpt>
      <trkpt lat="42.5337" lon="1.73287">
        <ele>2262.8</ele>
        <time>2020-02-14T01:10:55.399Z</time>
      </trkpt>
      <trkpt lat="42.53381" lon="1.73288">
        <ele>2261.3</ele>
        <time>2020-02-14T01:11:00.468Z</time>
      </trkpt>
      <trkpt lat="42.53386" lon="1.73289">
        <ele>2260</ele>
        <time>2020-02-14T01:11:03.216Z</time>
      </trkpt>
      <trkpt lat="42.53387" lon="1.73295">
        <ele>2259.5</ele>
        <time>2020-02-14T01:11:05.427Z</time>
      </trkpt>
      <trkpt lat="42.53381" lon="1.73293">
        <ele>2259</ele>
        <time>2020-02-14T01:11:08.484Z</time>
      </trkpt>
      <trkpt lat="42.53386" lon="1.73293">
        <ele>2258.8</ele>
        <time>2020-02-14T01:11:10.825Z</time>
      </trkpt>
      <trkpt lat="42.53381" lon="1.73289">
        <ele>2258.3</ele>
        <time>2020-02-14T01:11:13.377Z</time>
      </trkpt>
      <trkpt lat="42.53386" lon="1.73291">
        <ele>2256.9</ele>
        <time>2020-02-14T01:11:15.744Z</time>
      </trkpt>
      <trkpt lat="42.5339" lon="1.73289">
        <ele>2256.5</ele>
        <time>2020-02-14T01:11:18.071Z</time>
      </trkpt>
      <trkpt lat="42.53394" lon="1.73284">
        <ele>2255.9</ele>
        <time>2020-02-14T01:11:20.635Z</time>
      </trkpt>
      <trkpt lat="42.53399" lon="1.73279">
        <ele>2253.7</ele>
        <time>2020-02-14T01:11:23.621Z</time>
      </trkpt>
      <trkpt lat="42.53403" lon="1.73278">
        <ele>2253.2</ele>
        <time>2020-02-14T01:11:26.034Z</time>
      </trkpt>
      <trkpt lat="42.53407" lon="1.73274">
        <ele>2252.3</ele>
        <time>2020-02-14T01:11:28.406Z</time>
      </trkpt>
      <trkpt lat="42.53413" lon="1.73272">
        <ele>2251.6</ele>
        <time>2020-02-14T01:11:31.297Z</time>
      </trkpt>
      <trkpt lat="42.5342" lon="1.73273">
        <ele>2250.8</ele>
        <time>2020-02-14T01:11:34.554Z</time>
      </trkpt>
      <trkpt lat="42.53427" lon="1.73277">
        <ele>2249.8</ele>
        <time>2020-02-14T01:11:38.289Z</time>
      </trkpt>
      <trkpt lat="42.53432" lon="1.73279">
        <ele>2249.3</ele>
        <time>2020-02-14T01:11:41.144Z</time>
      </trkpt>
      <trkpt lat="42.53441" lon="1.73282">
        <ele>2248.3</ele>
        <time>2020-02-14T01:11:45.492Z</time>
      </trkpt>
      <trkpt lat="42.53447" lon="1.73281">
        <ele>2247.5</ele>
        <time>2020-02-14T01:11:48.261Z</time>
      </trkpt>
      <trkpt lat="42.53453" lon="1.73282">
        <ele>2246.7</ele>
        <time>2020-02-14T01:11:51.271Z</time>
      </trkpt>
      <trkpt lat="42.53458" lon="1.73283">
        <ele>2245.7</ele>
        <time>2020-02-14T01:11:54.135Z</time>
      </trkpt>
      <trkpt lat="42.53466" lon="1.73285">
        <ele>2244.9</ele>
        <time>2020-02-14T01:11:57.899Z</time>
      </trkpt>
      <trkpt lat="42.53471" lon="1.73282">
        <ele>2243.7</ele>
        <time>2020-02-14T01:12:00.686Z</time>
      </trkpt>
      <trkpt lat="42.53479" lon="1.73284">
        <ele>2243.1</ele>
        <time>2020-02-14T01:12:04.681Z</time>
      </trkpt>
      <trkpt lat="42.53486" lon="1.73285">
        <ele>2242.2</ele>
        <time>2020-02-14T01:12:08.255Z</time>
      </trkpt>
      <trkpt lat="42.53493" lon="1.73287">
        <ele>2241.6</ele>
        <time>2020-02-14T01:12:11.403Z</time>
      </trkpt>
      <trkpt lat="42.53498" lon="1.73288">
        <ele>2240.7</ele>
        <time>2020-02-14T01:12:14.209Z</time>
      </trkpt>
      <trkpt lat="42.53504" lon="1.73286">
        <ele>2239.6</ele>
        <time>2020-02-14T01:12:17.169Z</time>
      </trkpt>
      <trkpt lat="42.53509" lon="1.73283">
        <ele>2238.8</ele>
        <time>2020-02-14T01:12:19.822Z</time>
      </trkpt>
      <trkpt lat="42.53517" lon="1.73282">
        <ele>2237.8</ele>
        <time>2020-02-14T01:12:23.665Z</time>
      </trkpt>
      <trkpt lat="42.53522" lon="1.73283">
        <ele>2236.5</ele>
        <time>2020-02-14T01:12:26.177Z</time>
      </trkpt>
      <trkpt lat="42.53526" lon="1.73285">
        <ele>2235.7</ele>
        <time>2020-02-14T01:12:28.486Z</time>
      </trkpt>
      <trkpt lat="42.53533" lon="1.73285">
        <ele>2234.9</ele>
        <time>2020-02-14T01:12:31.874Z</time>
      </trkpt>
      <trkpt lat="42.5354" lon="1.73287">
        <ele>2234.1</ele>
        <time>2020-02-14T01:12:35.385Z</time>
      </trkpt>
      <trkpt lat="42.53545" lon="1.73287">
        <ele>2233.1</ele>
        <time>2020-02-14T01:12:37.781Z</time>
      </trkpt>
      <trkpt lat="42.53551" lon="1.73288">
        <ele>2232</ele>
        <time>2020-02-14T01:12:40.457Z</time>
      </trkpt>
      <trkpt lat="42.53556" lon="1.73289">
        <ele>2231.3</ele>
        <time>2020-02-14T01:12:43.093Z</time>
      </trkpt>
      <trkpt lat="42.5356" lon="1.73291">
        <ele>2230.6</ele>
        <time>2020-02-14T01:12:45.347Z</time>
      </trkpt>
      <trkpt lat="42.53565" lon="1.73294">
        <ele>2229.5</ele>
        <time>2020-02-14T01:12:47.914Z</time>
      </trkpt>
      <trkpt lat="42.53573" lon="1.73294">
        <ele>2228.7</ele>
        <time>2020-02-14T01:12:52.082Z</time>
      </trkpt>
      <trkpt lat="42.53579" lon="1.73294">
        <ele>2227.6</ele>
        <time>2020-02-14T01:12:54.620Z</time>
      </trkpt>
      <trkpt lat="42.53585" lon="1.73296">
        <ele>2226.5</ele>
        <time>2020-02-14T01:12:57.804Z</time>
      </trkpt>
      <trkpt lat="42.53591" lon="1.73294">
        <ele>2225.5</ele>
        <time>2020-02-14T01:13:01.088Z</time>
      </trkpt>
      <trkpt lat="42.53598" lon="1.73293">
        <ele>2224.9</ele>
        <time>2020-02-14T01:13:04.207Z</time>
      </trkpt>
      <trkpt lat="42.53606" lon="1.73291">
        <ele>2224.5</ele>
        <time>2020-02-14T01:13:08.278Z</time>
      </trkpt>
      <trkpt lat="42.53611" lon="1.73291">
        <ele>2224.3</ele>
        <time>2020-02-14T01:13:10.579Z</time>
      </trkpt>
      <trkpt lat="42.53616" lon="1.7329">
        <ele>2223.5</ele>
        <time>2020-02-14T01:13:13.426Z</time>
      </trkpt>
      <trkpt lat="42.53627" lon="1.7329">
        <ele>2222.5</ele>
        <time>2020-02-14T01:13:18.414Z</time>
      </trkpt>
      <trkpt lat="42.53631" lon="1.73289">
        <ele>2221.6</ele>
        <time>2020-02-14T01:13:20.701Z</time>
      </trkpt>
      <trkpt lat="42.53636" lon="1.73291">
        <ele>2221</ele>
        <time>2020-02-14T01:13:23.303Z</time>
      </trkpt>
      <trkpt lat="42.53642" lon="1.73292">
        <ele>2220</ele>
        <time>2020-02-14T01:13:26.130Z</time>
      </trkpt>
      <trkpt lat="42.53645" lon="1.73297">
        <ele>2219.4</ele>
        <time>2020-02-14T01:13:28.500Z</time>
      </trkpt>
      <trkpt lat="42.53653" lon="1.73297">
        <ele>2218.7</ele>
        <time>2020-02-14T01:13:32.266Z</time>
      </trkpt>
      <trkpt lat="42.53658" lon="1.733">
        <ele>2217.9</ele>
        <time>2020-02-14T01:13:34.774Z</time>
      </trkpt>
      <trkpt lat="42.53663" lon="1.73302">
        <ele>2217.1</ele>
        <time>2020-02-14T01:13:37.485Z</time>
      </trkpt>
      <trkpt lat="42.53671" lon="1.73301">
        <ele>2216.4</ele>
        <time>2020-02-14T01:13:41.653Z</time>
      </trkpt>
      <trkpt lat="42.53677" lon="1.73301">
        <ele>2215.4</ele>
        <time>2020-02-14T01:13:44.617Z</time>
      </trkpt>
      <trkpt lat="42.53684" lon="1.73298">
        <ele>2214.6</ele>
        <time>2020-02-14T01:13:48.137Z</time>
      </trkpt>
      <trkpt lat="42.53692" lon="1.73293">
        <ele>2213.3</ele>
        <time>2020-02-14T01:13:52.417Z</time>
      </trkpt>
      <trkpt lat="42.53697" lon="1.73291">
        <ele>2211.7</ele>
        <time>2020-02-14T01:13:55.064Z</time>
      </trkpt>
      <trkpt lat="42.53703" lon="1.73292">
        <ele>2210.7</ele>
        <time>2020-02-14T01:13:57.723Z</time>
      </trkpt>
      <trkpt lat="42.53711" lon="1.73292">
        <ele>2209.6</ele>
        <time>2020-02-14T01:14:01.745Z</time>
      </trkpt>
      <trkpt lat="42.53716" lon="1.7329">
        <ele>2208.9</ele>
        <time>2020-02-14T01:14:04.483Z</time>
      </trkpt>
      <trkpt lat="42.53725" lon="1.73291">
        <ele>2207.9</ele>
        <time>2020-02-14T01:14:08.990Z</time>
      </trkpt>
      <trkpt lat="42.53734" lon="1.73287">
        <ele>2207.1</ele>
        <time>2020-02-14T01:14:13.562Z</time>
      </trkpt>
      <trkpt lat="42.5374" lon="1.73285">
        <ele>2206.5</ele>
        <time>2020-02-14T01:14:16.570Z</time>
      </trkpt>
      <trkpt lat="42.53747" lon="1.73287">
        <ele>2205.9</ele>
        <time>2020-02-14T01:14:20.058Z</time>
      </trkpt>
      <trkpt lat="42.53755" lon="1.73285">
        <ele>2205.5</ele>
        <time>2020-02-14T01:14:23.876Z</time>
      </trkpt>
      <trkpt lat="42.53763" lon="1.73285">
        <ele>2205</ele>
        <time>2020-02-14T01:14:27.833Z</time>
      </trkpt>
      <trkpt lat="42.53772" lon="1.73283">
        <ele>2204.4</ele>
        <time>2020-02-14T01:14:32.082Z</time>
      </trkpt>
      <trkpt lat="42.53777" lon="1.73282">
        <ele>2203.7</ele>
        <time>2020-02-14T01:14:34.447Z</time>
      </trkpt>
      <trkpt lat="42.53784" lon="1.7328">
        <ele>2203.2</ele>
        <time>2020-02-14T01:14:38.198Z</time>
      </trkpt>
      <trkpt lat="42.53797" lon="1.73281">
        <ele>2202.5</ele>
        <time>2020-02-14T01:14:44.419Z</time>
      </trkpt>
      <trkpt lat="42.53805" lon="1.73282">
        <ele>2201.8</ele>
        <time>2020-02-14T01:14:48.681Z</time>
      </trkpt>
      <trkpt lat="42.53812" lon="1.73282">
        <ele>2201.3</ele>
        <time>2020-02-14T01:14:51.811Z</time>
      </trkpt>
      <trkpt lat="42.53819" lon="1.73282">
        <ele>2200.9</ele>
        <time>2020-02-14T01:14:55.226Z</time>
      </trkpt>
      <trkpt lat="42.53828" lon="1.73281">
        <ele>2200.4</ele>
        <time>2020-02-14T01:14:59.584Z</time>
      </trkpt>
      <trkpt lat="42.53835" lon="1.73283">
        <ele>2200.1</ele>
        <time>2020-02-14T01:15:03.120Z</time>
      </trkpt>
      <trkpt lat="42.53842" lon="1.73283">
        <ele>2199.7</ele>
        <time>2020-02-14T01:15:06.682Z</time>
      </trkpt>
      <trkpt lat="42.53849" lon="1.73282">
        <ele>2199.5</ele>
        <time>2020-02-14T01:15:09.981Z</time>
      </trkpt>
      <trkpt lat="42.53857" lon="1.73281">
        <ele>2199.3</ele>
        <time>2020-02-14T01:15:13.793Z</time>
      </trkpt>
      <trkpt lat="42.53865" lon="1.7328">
        <ele>2199.2</ele>
        <time>2020-02-14T01:15:17.994Z</time>
      </trkpt>
      <trkpt lat="42.5387" lon="1.7328">
        <ele>2199.3</ele>
        <time>2020-02-14T01:15:20.350Z</time>
      </trkpt>
      <trkpt lat="42.53876" lon="1.73281">
        <ele>2199.2</ele>
        <time>2020-02-14T01:15:23.298Z</time>
      </trkpt>
      <trkpt lat="42.53884" lon="1.7328">
        <ele>2198.9</ele>
        <time>2020-02-14T01:15:27.017Z</time>
      </trkpt>
      <trkpt lat="42.53892" lon="1.73279">
        <ele>2198.7</ele>
        <time>2020-02-14T01:15:31.047Z</time>
      </trkpt>
      <trkpt lat="42.53895" lon="1.73284">
        <ele>2198.4</ele>
        <time>2020-02-14T01:15:33.336Z</time>
      </trkpt>
      <trkpt lat="42.53895" lon="1.73291">
        <ele>2198.1</ele>
        <time>2020-02-14T01:15:36.002Z</time>
      </trkpt>
      <trkpt lat="42.53895" lon="1.73301">
        <ele>2197.9</ele>
        <time>2020-02-14T01:15:39.356Z</time>
      </trkpt>
      <trkpt lat="42.53899" lon="1.73308">
        <ele>2198</ele>
        <time>2020-02-14T01:15:42.339Z</time>
      </trkpt>
      <trkpt lat="42.53904" lon="1.73311">
        <ele>2197.8</ele>
        <time>2020-02-14T01:15:45.375Z</time>
      </trkpt>
      <trkpt lat="42.53907" lon="1.73318">
        <ele>2197.7</ele>
        <time>2020-02-14T01:15:48.234Z</time>
      </trkpt>
      <trkpt lat="42.53909" lon="1.73324">
        <ele>2197.4</ele>
        <time>2020-02-14T01:15:50.428Z</time>
      </trkpt>
      <trkpt lat="42.5391" lon="1.73336">
        <ele>2197.2</ele>
        <time>2020-02-14T01:15:54.811Z</time>
      </trkpt>
      <trkpt lat="42.53914" lon="1.73335">
        <ele>2196.9</ele>
        <time>2020-02-14T01:15:56.980Z</time>
      </trkpt>
      <trkpt lat="42.53916" lon="1.73329">
        <ele>2195.8</ele>
        <time>2020-02-14T01:15:59.375Z</time>
      </trkpt>
      <trkpt lat="42.53916" lon="1.73322">
        <ele>2194.3</ele>
        <time>2020-02-14T01:16:02.217Z</time>
      </trkpt>
      <trkpt lat="42.5391" lon="1.73322">
        <ele>2195.3</ele>
        <time>2020-02-14T01:16:04.837Z</time>
      </trkpt>
      <trkpt lat="42.53909" lon="1.73329">
        <ele>2195.8</ele>
        <time>2020-02-14T01:16:07.484Z</time>
      </trkpt>
      <trkpt lat="42.53914" lon="1.73329">
        <ele>2196.9</ele>
        <time>2020-02-14T01:16:10.217Z</time>
      </trkpt>
      <trkpt lat="42.53923" lon="1.73334">
        <ele>2196.9</ele>
        <time>2020-02-14T01:16:14.824Z</time>
      </trkpt>
      <trkpt lat="42.53929" lon="1.73335">
        <ele>2196.4</ele>
        <time>2020-02-14T01:16:17.597Z</time>
      </trkpt>
      <trkpt lat="42.53934" lon="1.73337">
        <ele>2196.1</ele>
        <time>2020-02-14T01:16:20.446Z</time>
      </trkpt>
      <trkpt lat="42.53943" lon="1.73341">
        <ele>2196</ele>
        <time>2020-02-14T01:16:24.949Z</time>
      </trkpt>
      <trkpt lat="42.53951" lon="1.73342">
        <ele>2196.1</ele>
        <time>2020-02-14T01:16:28.895Z</time>
      </trkpt>
      <trkpt lat="42.53956" lon="1.73344">
        <ele>2196</ele>
        <time>2020-02-14T01:16:31.493Z</time>
      </trkpt>
      <trkpt lat="42.53963" lon="1.73345">
        <ele>2196.2</ele>
        <time>2020-02-14T01:16:34.816Z</time>
      </trkpt>
      <trkpt lat="42.53969" lon="1.73345">
        <ele>2196.1</ele>
        <time>2020-02-14T01:16:37.598Z</time>
      </trkpt>
      <trkpt lat="42.53977" lon="1.73348">
        <ele>2196</ele>
        <time>2020-02-14T01:16:41.934Z</time>
      </trkpt>
      <trkpt lat="42.53985" lon="1.73349">
        <ele>2195.6</ele>
        <time>2020-02-14T01:16:45.776Z</time>
      </trkpt>
      <trkpt lat="42.53994" lon="1.73351">
        <ele>2194.6</ele>
        <time>2020-02-14T01:16:50.230Z</time>
      </trkpt>
      <trkpt lat="42.54001" lon="1.73349">
        <ele>2193.6</ele>
        <time>2020-02-14T01:16:53.612Z</time>
      </trkpt>
      <trkpt lat="42.54008" lon="1.73351">
        <ele>2192.5</ele>
        <time>2020-02-14T01:16:57.224Z</time>
      </trkpt>
      <trkpt lat="42.54016" lon="1.73352">
        <ele>2191.3</ele>
        <time>2020-02-14T01:17:00.943Z</time>
      </trkpt>
      <trkpt lat="42.54021" lon="1.73352">
        <ele>2190.2</ele>
        <time>2020-02-14T01:17:03.474Z</time>
      </trkpt>
      <trkpt lat="42.54031" lon="1.73353">
        <ele>2188.5</ele>
        <time>2020-02-14T01:17:08.327Z</time>
      </trkpt>
      <trkpt lat="42.54037" lon="1.73353">
        <ele>2187.1</ele>
        <time>2020-02-14T01:17:11.507Z</time>
      </trkpt>
      <trkpt lat="42.54041" lon="1.73355">
        <ele>2185.4</ele>
        <time>2020-02-14T01:17:13.909Z</time>
      </trkpt>
      <trkpt lat="42.54046" lon="1.73356">
        <ele>2184.1</ele>
        <time>2020-02-14T01:17:16.324Z</time>
      </trkpt>
      <trkpt lat="42.54055" lon="1.73357">
        <ele>2182.3</ele>
        <time>2020-02-14T01:17:20.704Z</time>
      </trkpt>
      <trkpt lat="42.54063" lon="1.73358">
        <ele>2180.6</ele>
        <time>2020-02-14T01:17:24.462Z</time>
      </trkpt>
      <trkpt lat="42.54068" lon="1.73358">
        <ele>2179.1</ele>
        <time>2020-02-14T01:17:27.225Z</time>
      </trkpt>
      <trkpt lat="42.54073" lon="1.73359">
        <ele>2177.6</ele>
        <time>2020-02-14T01:17:29.910Z</time>
      </trkpt>
      <trkpt lat="42.54079" lon="1.73361">
        <ele>2176.8</ele>
        <time>2020-02-14T01:17:32.823Z</time>
      </trkpt>
      <trkpt lat="42.54084" lon="1.73364">
        <ele>2177</ele>
        <time>2020-02-14T01:17:35.411Z</time>
      </trkpt>
      <trkpt lat="42.54089" lon="1.73366">
        <ele>2177.5</ele>
        <time>2020-02-14T01:17:38.044Z</time>
      </trkpt>
      <trkpt lat="42.54095" lon="1.73365">
        <ele>2177.8</ele>
        <time>2020-02-14T01:17:40.830Z</time>
      </trkpt>
      <trkpt lat="42.54099" lon="1.73366">
        <ele>2178</ele>
        <time>2020-02-14T01:17:43.044Z</time>
      </trkpt>
      <trkpt lat="42.54104" lon="1.73368">
        <ele>2178.1</ele>
        <time>2020-02-14T01:17:45.490Z</time>
      </trkpt>
      <trkpt lat="42.54109" lon="1.7337">
        <ele>2178</ele>
        <time>2020-02-14T01:17:47.943Z</time>
      </trkpt>
      <trkpt lat="42.54114" lon="1.73373">
        <ele>2177.9</ele>
        <time>2020-02-14T01:17:50.726Z</time>
      </trkpt>
      <trkpt lat="42.54123" lon="1.73376">
        <ele>2177.5</ele>
        <time>2020-02-14T01:17:54.938Z</time>
      </trkpt>
      <trkpt lat="42.54133" lon="1.73376">
        <ele>2176.9</ele>
        <time>2020-02-14T01:18:00.257Z</time>
      </trkpt>
      <trkpt lat="42.54139" lon="1.73376">
        <ele>2177</ele>
        <time>2020-02-14T01:18:02.751Z</time>
      </trkpt>
      <trkpt lat="42.54146" lon="1.73378">
        <ele>2177.4</ele>
        <time>2020-02-14T01:18:06.547Z</time>
      </trkpt>
      <trkpt lat="42.54154" lon="1.73378">
        <ele>2178.1</ele>
        <time>2020-02-14T01:18:10.267Z</time>
      </trkpt>
      <trkpt lat="42.54162" lon="1.73381">
        <ele>2178.6</ele>
        <time>2020-02-14T01:18:14.441Z</time>
      </trkpt>
      <trkpt lat="42.54167" lon="1.73383">
        <ele>2178.8</ele>
        <time>2020-02-14T01:18:17.002Z</time>
      </trkpt>
      <trkpt lat="42.54176" lon="1.73384">
        <ele>2178.6</ele>
        <time>2020-02-14T01:18:21.361Z</time>
      </trkpt>
      <trkpt lat="42.54187" lon="1.73382">
        <ele>2178.4</ele>
        <time>2020-02-14T01:18:26.606Z</time>
      </trkpt>
      <trkpt lat="42.54193" lon="1.73383">
        <ele>2178.7</ele>
        <time>2020-02-14T01:18:29.802Z</time>
      </trkpt>
      <trkpt lat="42.54198" lon="1.73384">
        <ele>2179.2</ele>
        <time>2020-02-14T01:18:32.072Z</time>
      </trkpt>
      <trkpt lat="42.54203" lon="1.73383">
        <ele>2179.5</ele>
        <time>2020-02-14T01:18:34.673Z</time>
      </trkpt>
      <trkpt lat="42.54213" lon="1.73382">
        <ele>2180.1</ele>
        <time>2020-02-14T01:18:39.701Z</time>
      </trkpt>
      <trkpt lat="42.54219" lon="1.73387">
        <ele>2180.3</ele>
        <time>2020-02-14T01:18:42.953Z</time>
      </trkpt>
      <trkpt lat="42.54229" lon="1.73403">
        <ele>2179.8</ele>
        <time>2020-02-14T01:18:50.482Z</time>
      </trkpt>
      <trkpt lat="42.5423" lon="1.73409">
        <ele>2178.7</ele>
        <time>2020-02-14T01:18:52.760Z</time>
      </trkpt>
      <trkpt lat="42.54234" lon="1.73414">
        <ele>2177.7</ele>
        <time>2020-02-14T01:18:55.257Z</time>
      </trkpt>
      <trkpt lat="42.54235" lon="1.73421">
        <ele>2175.8</ele>
        <time>2020-02-14T01:18:57.853Z</time>
      </trkpt>
      <trkpt lat="42.54241" lon="1.7343">
        <ele>2174.7</ele>
        <time>2020-02-14T01:19:02.549Z</time>
      </trkpt>
      <trkpt lat="42.54244" lon="1.73439">
        <ele>2173.9</ele>
        <time>2020-02-14T01:19:06.229Z</time>
      </trkpt>
      <trkpt lat="42.54245" lon="1.73449">
        <ele>2172.7</ele>
        <time>2020-02-14T01:19:09.582Z</time>
      </trkpt>
      <trkpt lat="42.54252" lon="1.73455">
        <ele>2172</ele>
        <time>2020-02-14T01:19:13.874Z</time>
      </trkpt>
      <trkpt lat="42.54257" lon="1.73459">
        <ele>2171.2</ele>
        <time>2020-02-14T01:19:16.397Z</time>
      </trkpt>
      <trkpt lat="42.54261" lon="1.73463">
        <ele>2170.8</ele>
        <time>2020-02-14T01:19:18.792Z</time>
      </trkpt>
      <trkpt lat="42.54263" lon="1.73472">
        <ele>2170</ele>
        <time>2020-02-14T01:19:22.118Z</time>
      </trkpt>
      <trkpt lat="42.54267" lon="1.73478">
        <ele>2169</ele>
        <time>2020-02-14T01:19:25.181Z</time>
      </trkpt>
      <trkpt lat="42.54275" lon="1.73484">
        <ele>2168</ele>
        <time>2020-02-14T01:19:29.508Z</time>
      </trkpt>
      <trkpt lat="42.54281" lon="1.73491">
        <ele>2166.7</ele>
        <time>2020-02-14T01:19:33.283Z</time>
      </trkpt>
      <trkpt lat="42.54287" lon="1.73492">
        <ele>2165.7</ele>
        <time>2020-02-14T01:19:36.173Z</time>
      </trkpt>
      <trkpt lat="42.54291" lon="1.73495">
        <ele>2164.4</ele>
        <time>2020-02-14T01:19:38.643Z</time>
      </trkpt>
      <trkpt lat="42.54296" lon="1.73497">
        <ele>2162.4</ele>
        <time>2020-02-14T01:19:41.178Z</time>
      </trkpt>
      <trkpt lat="42.54302" lon="1.73498">
        <ele>2160.2</ele>
        <time>2020-02-14T01:19:44.509Z</time>
      </trkpt>
      <trkpt lat="42.54308" lon="1.73501">
        <ele>2157.9</ele>
        <time>2020-02-14T01:19:47.657Z</time>
      </trkpt>
      <trkpt lat="42.54311" lon="1.73515">
        <ele>2155.6</ele>
        <time>2020-02-14T01:19:53.135Z</time>
      </trkpt>
      <trkpt lat="42.54314" lon="1.73523">
        <ele>2154.2</ele>
        <time>2020-02-14T01:19:56.394Z</time>
      </trkpt>
      <trkpt lat="42.54319" lon="1.73525">
        <ele>2152.9</ele>
        <time>2020-02-14T01:19:58.863Z</time>
      </trkpt>
      <trkpt lat="42.54324" lon="1.73531">
        <ele>2152.3</ele>
        <time>2020-02-14T01:20:02.557Z</time>
      </trkpt>
      <trkpt lat="42.54327" lon="1.73537">
        <ele>2151.9</ele>
        <time>2020-02-14T01:20:05.079Z</time>
      </trkpt>
      <trkpt lat="42.5433" lon="1.73542">
        <ele>2152.1</ele>
        <time>2020-02-14T01:20:07.296Z</time>
      </trkpt>
      <trkpt lat="42.54333" lon="1.73547">
        <ele>2152.7</ele>
        <time>2020-02-14T01:20:09.646Z</time>
      </trkpt>
      <trkpt lat="42.54338" lon="1.73547">
        <ele>2154.3</ele>
        <time>2020-02-14T01:20:12.142Z</time>
      </trkpt>
      <trkpt lat="42.54331" lon="1.73619">
        <ele>2091</ele>
        <time>2020-02-14T01:20:50.440Z</time>
      </trkpt>
      <trkpt lat="42.54325" lon="1.73628">
        <ele>2091.9</ele>
        <time>2020-02-14T01:20:54.711Z</time>
      </trkpt>
      <trkpt lat="42.54327" lon="1.73634">
        <ele>2092.1</ele>
        <time>2020-02-14T01:20:57.171Z</time>
      </trkpt>
      <trkpt lat="42.54329" lon="1.73642">
        <ele>2092.2</ele>
        <time>2020-02-14T01:21:00.076Z</time>
      </trkpt>
      <trkpt lat="42.54328" lon="1.7365">
        <ele>2092.8</ele>
        <time>2020-02-14T01:21:03.016Z</time>
      </trkpt>
      <trkpt lat="42.54327" lon="1.73658">
        <ele>2093.4</ele>
        <time>2020-02-14T01:21:05.701Z</time>
      </trkpt>
      <trkpt lat="42.54329" lon="1.73666">
        <ele>2093.9</ele>
        <time>2020-02-14T01:21:08.656Z</time>
      </trkpt>
      <trkpt lat="42.54332" lon="1.73671">
        <ele>2094.1</ele>
        <time>2020-02-14T01:21:11.280Z</time>
      </trkpt>
      <trkpt lat="42.54336" lon="1.73678">
        <ele>2094.4</ele>
        <time>2020-02-14T01:21:14.148Z</time>
      </trkpt>
      <trkpt lat="42.54339" lon="1.73684">
        <ele>2094.5</ele>
        <time>2020-02-14T01:21:16.956Z</time>
      </trkpt>
      <trkpt lat="42.54342" lon="1.73691">
        <ele>2094.8</ele>
        <time>2020-02-14T01:21:19.907Z</time>
      </trkpt>
      <trkpt lat="42.54342" lon="1.73697">
        <ele>2096</ele>
        <time>2020-02-14T01:21:22.265Z</time>
      </trkpt>
      <trkpt lat="42.54346" lon="1.73703">
        <ele>2096.8</ele>
        <time>2020-02-14T01:21:25.038Z</time>
      </trkpt>
      <trkpt lat="42.5435" lon="1.73708">
        <ele>2097.2</ele>
        <time>2020-02-14T01:21:27.763Z</time>
      </trkpt>
      <trkpt lat="42.54355" lon="1.73709">
        <ele>2097.2</ele>
        <time>2020-02-14T01:21:30.010Z</time>
      </trkpt>
      <trkpt lat="42.5436" lon="1.73711">
        <ele>2097.2</ele>
        <time>2020-02-14T01:21:32.800Z</time>
      </trkpt>
      <trkpt lat="42.54366" lon="1.73713">
        <ele>2097.4</ele>
        <time>2020-02-14T01:21:35.640Z</time>
      </trkpt>
      <trkpt lat="42.5437" lon="1.73717">
        <ele>2097.7</ele>
        <time>2020-02-14T01:21:38.168Z</time>
      </trkpt>
      <trkpt lat="42.54376" lon="1.73715">
        <ele>2097.2</ele>
        <time>2020-02-14T01:21:41.037Z</time>
      </trkpt>
      <trkpt lat="42.5438" lon="1.73719">
        <ele>2097.8</ele>
        <time>2020-02-14T01:21:43.386Z</time>
      </trkpt>
      <trkpt lat="42.54386" lon="1.73724">
        <ele>2098.3</ele>
        <time>2020-02-14T01:21:46.971Z</time>
      </trkpt>
      <trkpt lat="42.54392" lon="1.73727">
        <ele>2098.7</ele>
        <time>2020-02-14T01:21:50.106Z</time>
      </trkpt>
      <trkpt lat="42.54398" lon="1.73729">
        <ele>2098.7</ele>
        <time>2020-02-14T01:21:52.919Z</time>
      </trkpt>
      <trkpt lat="42.54403" lon="1.73733">
        <ele>2099</ele>
        <time>2020-02-14T01:21:55.603Z</time>
      </trkpt>
      <trkpt lat="42.54407" lon="1.73736">
        <ele>2099.3</ele>
        <time>2020-02-14T01:21:57.971Z</time>
      </trkpt>
      <trkpt lat="42.54412" lon="1.7374">
        <ele>2100</ele>
        <time>2020-02-14T01:22:00.984Z</time>
      </trkpt>
      <trkpt lat="42.54419" lon="1.73744">
        <ele>2100.2</ele>
        <time>2020-02-14T01:22:04.488Z</time>
      </trkpt>
      <trkpt lat="42.54423" lon="1.73748">
        <ele>2100.8</ele>
        <time>2020-02-14T01:22:06.881Z</time>
      </trkpt>
      <trkpt lat="42.54428" lon="1.7375">
        <ele>2101</ele>
        <time>2020-02-14T01:22:09.566Z</time>
      </trkpt>
      <trkpt lat="42.54433" lon="1.73755">
        <ele>2101.8</ele>
        <time>2020-02-14T01:22:12.379Z</time>
      </trkpt>
      <trkpt lat="42.54437" lon="1.73758">
        <ele>2102.2</ele>
        <time>2020-02-14T01:22:14.589Z</time>
      </trkpt>
      <trkpt lat="42.54442" lon="1.7376">
        <ele>2102.4</ele>
        <time>2020-02-14T01:22:17.575Z</time>
      </trkpt>
      <trkpt lat="42.54447" lon="1.73764">
        <ele>2102.8</ele>
        <time>2020-02-14T01:22:20.017Z</time>
      </trkpt>
      <trkpt lat="42.54451" lon="1.73769">
        <ele>2103.6</ele>
        <time>2020-02-14T01:22:22.964Z</time>
      </trkpt>
      <trkpt lat="42.54456" lon="1.73778">
        <ele>2105.2</ele>
        <time>2020-02-14T01:22:27.005Z</time>
      </trkpt>
      <trkpt lat="42.54463" lon="1.73784">
        <ele>2105.8</ele>
        <time>2020-02-14T01:22:30.858Z</time>
      </trkpt>
      <trkpt lat="42.54469" lon="1.73789">
        <ele>2106.5</ele>
        <time>2020-02-14T01:22:34.214Z</time>
      </trkpt>
      <trkpt lat="42.54474" lon="1.73795">
        <ele>2107.6</ele>
        <time>2020-02-14T01:22:37.657Z</time>
      </trkpt>
      <trkpt lat="42.5448" lon="1.738">
        <ele>2108.3</ele>
        <time>2020-02-14T01:22:41.222Z</time>
      </trkpt>
      <trkpt lat="42.5449" lon="1.73806">
        <ele>2109.1</ele>
        <time>2020-02-14T01:22:46.629Z</time>
      </trkpt>
      <trkpt lat="42.54497" lon="1.73814">
        <ele>2110.3</ele>
        <time>2020-02-14T01:22:50.944Z</time>
      </trkpt>
      <trkpt lat="42.54507" lon="1.73827">
        <ele>2112.5</ele>
        <time>2020-02-14T01:22:57.973Z</time>
      </trkpt>
      <trkpt lat="42.54512" lon="1.73836">
        <ele>2113.7</ele>
        <time>2020-02-14T01:23:01.825Z</time>
      </trkpt>
      <trkpt lat="42.54518" lon="1.73845">
        <ele>2114.8</ele>
        <time>2020-02-14T01:23:06.259Z</time>
      </trkpt>
      <trkpt lat="42.54527" lon="1.73856">
        <ele>2115.9</ele>
        <time>2020-02-14T01:23:11.934Z</time>
      </trkpt>
      <trkpt lat="42.54532" lon="1.7386">
        <ele>2116.1</ele>
        <time>2020-02-14T01:23:15.019Z</time>
      </trkpt>
      <trkpt lat="42.54537" lon="1.73867">
        <ele>2116.6</ele>
        <time>2020-02-14T01:23:18.481Z</time>
      </trkpt>
      <trkpt lat="42.5454" lon="1.73873">
        <ele>2117.4</ele>
        <time>2020-02-14T01:23:21.023Z</time>
      </trkpt>
      <trkpt lat="42.54543" lon="1.73882">
        <ele>2118.6</ele>
        <time>2020-02-14T01:23:24.507Z</time>
      </trkpt>
      <trkpt lat="42.54547" lon="1.73889">
        <ele>2119.5</ele>
        <time>2020-02-14T01:23:27.944Z</time>
      </trkpt>
      <trkpt lat="42.54549" lon="1.73896">
        <ele>2120.5</ele>
        <time>2020-02-14T01:23:30.656Z</time>
      </trkpt>
      <trkpt lat="42.54552" lon="1.73901">
        <ele>2120.8</ele>
        <time>2020-02-14T01:23:32.996Z</time>
      </trkpt>
      <trkpt lat="42.54554" lon="1.73907">
        <ele>2121.5</ele>
        <time>2020-02-14T01:23:35.277Z</time>
      </trkpt>
      <trkpt lat="42.54556" lon="1.73912">
        <ele>2122.1</ele>
        <time>2020-02-14T01:23:37.644Z</time>
      </trkpt>
      <trkpt lat="42.5456" lon="1.73917">
        <ele>2122.5</ele>
        <time>2020-02-14T01:23:40.127Z</time>
      </trkpt>
      <trkpt lat="42.54561" lon="1.73925">
        <ele>2123.7</ele>
        <time>2020-02-14T01:23:42.911Z</time>
      </trkpt>
      <trkpt lat="42.54564" lon="1.73931">
        <ele>2124.2</ele>
        <time>2020-02-14T01:23:45.675Z</time>
      </trkpt>
      <trkpt lat="42.54567" lon="1.73937">
        <ele>2124.9</ele>
        <time>2020-02-14T01:23:48.383Z</time>
      </trkpt>
      <trkpt lat="42.54568" lon="1.73944">
        <ele>2126</ele>
        <time>2020-02-14T01:23:50.943Z</time>
      </trkpt>
      <trkpt lat="42.54568" lon="1.73954">
        <ele>2127.6</ele>
        <time>2020-02-14T01:23:54.422Z</time>
      </trkpt>
      <trkpt lat="42.54569" lon="1.73961">
        <ele>2128.7</ele>
        <time>2020-02-14T01:23:57.140Z</time>
      </trkpt>
      <trkpt lat="42.54567" lon="1.73968">
        <ele>2130.2</ele>
        <time>2020-02-14T01:23:59.938Z</time>
      </trkpt>
      <trkpt lat="42.54568" lon="1.73975">
        <ele>2131.2</ele>
        <time>2020-02-14T01:24:02.492Z</time>
      </trkpt>
      <trkpt lat="42.54569" lon="1.73982">
        <ele>2132.1</ele>
        <time>2020-02-14T01:24:04.931Z</time>
      </trkpt>
      <trkpt lat="42.54574" lon="1.73988">
        <ele>2132.2</ele>
        <time>2020-02-14T01:24:08.147Z</time>
      </trkpt>
      <trkpt lat="42.54576" lon="1.73995">
        <ele>2132.8</ele>
        <time>2020-02-14T01:24:10.719Z</time>
      </trkpt>
      <trkpt lat="42.54579" lon="1.74">
        <ele>2133.2</ele>
        <time>2020-02-14T01:24:13.007Z</time>
      </trkpt>
      <trkpt lat="42.54581" lon="1.74006">
        <ele>2133.9</ele>
        <time>2020-02-14T01:24:15.559Z</time>
      </trkpt>
      <trkpt lat="42.54585" lon="1.74013">
        <ele>2134</ele>
        <time>2020-02-14T01:24:18.823Z</time>
      </trkpt>
      <trkpt lat="42.54589" lon="1.74018">
        <ele>2134.4</ele>
        <time>2020-02-14T01:24:21.413Z</time>
      </trkpt>
      <trkpt lat="42.54594" lon="1.74025">
        <ele>2134.8</ele>
        <time>2020-02-14T01:24:24.681Z</time>
      </trkpt>
      <trkpt lat="42.54597" lon="1.74029">
        <ele>2135</ele>
        <time>2020-02-14T01:24:27.044Z</time>
      </trkpt>
      <trkpt lat="42.54601" lon="1.74034">
        <ele>2135.2</ele>
        <time>2020-02-14T01:24:29.770Z</time>
      </trkpt>
      <trkpt lat="42.54606" lon="1.74041">
        <ele>2135.7</ele>
        <time>2020-02-14T01:24:33.110Z</time>
      </trkpt>
      <trkpt lat="42.54608" lon="1.74049">
        <ele>2136.8</ele>
        <time>2020-02-14T01:24:36.119Z</time>
      </trkpt>
      <trkpt lat="42.54612" lon="1.74055">
        <ele>2137.4</ele>
        <time>2020-02-14T01:24:38.854Z</time>
      </trkpt>
      <trkpt lat="42.54612" lon="1.74062">
        <ele>2138.6</ele>
        <time>2020-02-14T01:24:41.558Z</time>
      </trkpt>
      <trkpt lat="42.54616" lon="1.7407">
        <ele>2139.3</ele>
        <time>2020-02-14T01:24:44.807Z</time>
      </trkpt>
      <trkpt lat="42.54619" lon="1.74075">
        <ele>2139.8</ele>
        <time>2020-02-14T01:24:47.422Z</time>
      </trkpt>
      <trkpt lat="42.54624" lon="1.74081">
        <ele>2140</ele>
        <time>2020-02-14T01:24:50.554Z</time>
      </trkpt>
      <trkpt lat="42.54628" lon="1.74086">
        <ele>2140.4</ele>
        <time>2020-02-14T01:24:53.063Z</time>
      </trkpt>
      <trkpt lat="42.54629" lon="1.74092">
        <ele>2141.3</ele>
        <time>2020-02-14T01:24:55.441Z</time>
      </trkpt>
      <trkpt lat="42.54634" lon="1.74097">
        <ele>2141</ele>
        <time>2020-02-14T01:24:58.564Z</time>
      </trkpt>
      <trkpt lat="42.54638" lon="1.74102">
        <ele>2141.6</ele>
        <time>2020-02-14T01:25:01.187Z</time>
      </trkpt>
      <trkpt lat="42.54644" lon="1.74107">
        <ele>2141.2</ele>
        <time>2020-02-14T01:25:04.594Z</time>
      </trkpt>
      <trkpt lat="42.54647" lon="1.74113">
        <ele>2142</ele>
        <time>2020-02-14T01:25:07.291Z</time>
      </trkpt>
      <trkpt lat="42.54653" lon="1.74118">
        <ele>2142.1</ele>
        <time>2020-02-14T01:25:10.606Z</time>
      </trkpt>
      <trkpt lat="42.54657" lon="1.74123">
        <ele>2142.4</ele>
        <time>2020-02-14T01:25:13.559Z</time>
      </trkpt>
      <trkpt lat="42.5466" lon="1.74129">
        <ele>2143.1</ele>
        <time>2020-02-14T01:25:16.191Z</time>
      </trkpt>
      <trkpt lat="42.54661" lon="1.74138">
        <ele>2144.8</ele>
        <time>2020-02-14T01:25:19.345Z</time>
      </trkpt>
      <trkpt lat="42.54662" lon="1.74146">
        <ele>2146.7</ele>
        <time>2020-02-14T01:25:22.558Z</time>
      </trkpt>
      <trkpt lat="42.54663" lon="1.74154">
        <ele>2148.3</ele>
        <time>2020-02-14T01:25:25.586Z</time>
      </trkpt>
      <trkpt lat="42.54663" lon="1.74162">
        <ele>2149.9</ele>
        <time>2020-02-14T01:25:28.297Z</time>
      </trkpt>
      <trkpt lat="42.54661" lon="1.74168">
        <ele>2151.5</ele>
        <time>2020-02-14T01:25:30.762Z</time>
      </trkpt>
      <trkpt lat="42.54663" lon="1.74174">
        <ele>2152.5</ele>
        <time>2020-02-14T01:25:33.036Z</time>
      </trkpt>
      <trkpt lat="42.5467" lon="1.74176">
        <ele>2151.7</ele>
        <time>2020-02-14T01:25:36.425Z</time>
      </trkpt>
      <trkpt lat="42.54674" lon="1.74179">
        <ele>2151.5</ele>
        <time>2020-02-14T01:25:38.651Z</time>
      </trkpt>
      <trkpt lat="42.54673" lon="1.74188">
        <ele>2153.9</ele>
        <time>2020-02-14T01:25:42.169Z</time>
      </trkpt>
      <trkpt lat="42.54672" lon="1.74196">
        <ele>2155.7</ele>
        <time>2020-02-14T01:25:45.096Z</time>
      </trkpt>
      <trkpt lat="42.54674" lon="1.74204">
        <ele>2157.2</ele>
        <time>2020-02-14T01:25:48.450Z</time>
      </trkpt>
      <trkpt lat="42.54679" lon="1.74205">
        <ele>2156.7</ele>
        <time>2020-02-14T01:25:50.962Z</time>
      </trkpt>
      <trkpt lat="42.54684" lon="1.74203">
        <ele>2155.9</ele>
        <time>2020-02-14T01:25:53.456Z</time>
      </trkpt>
      <trkpt lat="42.54688" lon="1.742">
        <ele>2154.7</ele>
        <time>2020-02-14T01:25:55.886Z</time>
      </trkpt>
      <trkpt lat="42.54696" lon="1.74197">
        <ele>2153.3</ele>
        <time>2020-02-14T01:25:59.681Z</time>
      </trkpt>
      <trkpt lat="42.547" lon="1.74199">
        <ele>2153.1</ele>
        <time>2020-02-14T01:26:01.986Z</time>
      </trkpt>
      <trkpt lat="42.54703" lon="1.74207">
        <ele>2154.7</ele>
        <time>2020-02-14T01:26:05.261Z</time>
      </trkpt>
      <trkpt lat="42.54706" lon="1.74212">
        <ele>2155.6</ele>
        <time>2020-02-14T01:26:07.599Z</time>
      </trkpt>
      <trkpt lat="42.54708" lon="1.7422">
        <ele>2157.3</ele>
        <time>2020-02-14T01:26:10.720Z</time>
      </trkpt>
      <trkpt lat="42.5471" lon="1.74226">
        <ele>2158.4</ele>
        <time>2020-02-14T01:26:13.224Z</time>
      </trkpt>
      <trkpt lat="42.54714" lon="1.74231">
        <ele>2159.1</ele>
        <time>2020-02-14T01:26:15.602Z</time>
      </trkpt>
      <trkpt lat="42.54716" lon="1.74236">
        <ele>2160.2</ele>
        <time>2020-02-14T01:26:18.055Z</time>
      </trkpt>
      <trkpt lat="42.54722" lon="1.74239">
        <ele>2160.3</ele>
        <time>2020-02-14T01:26:20.681Z</time>
      </trkpt>
      <trkpt lat="42.54726" lon="1.74242">
        <ele>2160.6</ele>
        <time>2020-02-14T01:26:23.149Z</time>
      </trkpt>
      <trkpt lat="42.54731" lon="1.74246">
        <ele>2160.9</ele>
        <time>2020-02-14T01:26:26.213Z</time>
      </trkpt>
      <trkpt lat="42.54736" lon="1.74248">
        <ele>2160.7</ele>
        <time>2020-02-14T01:26:28.401Z</time>
      </trkpt>
      <trkpt lat="42.54741" lon="1.74249">
        <ele>2160.3</ele>
        <time>2020-02-14T01:26:31.171Z</time>
      </trkpt>
      <trkpt lat="42.54745" lon="1.74253">
        <ele>2160.7</ele>
        <time>2020-02-14T01:26:33.516Z</time>
      </trkpt>
      <trkpt lat="42.54749" lon="1.74261">
        <ele>2162</ele>
        <time>2020-02-14T01:26:36.922Z</time>
      </trkpt>
      <trkpt lat="42.54754" lon="1.74265">
        <ele>2162.2</ele>
        <time>2020-02-14T01:26:39.707Z</time>
      </trkpt>
      <trkpt lat="42.54758" lon="1.74269">
        <ele>2162.5</ele>
        <time>2020-02-14T01:26:42.217Z</time>
      </trkpt>
      <trkpt lat="42.54761" lon="1.74273">
        <ele>2163.1</ele>
        <time>2020-02-14T01:26:44.470Z</time>
      </trkpt>
      <trkpt lat="42.54765" lon="1.74279">
        <ele>2163.7</ele>
        <time>2020-02-14T01:26:47.217Z</time>
      </trkpt>
      <trkpt lat="42.54769" lon="1.74284">
        <ele>2164</ele>
        <time>2020-02-14T01:26:49.984Z</time>
      </trkpt>
      <trkpt lat="42.54773" lon="1.74289">
        <ele>2164.7</ele>
        <time>2020-02-14T01:26:52.762Z</time>
      </trkpt>
      <trkpt lat="42.54777" lon="1.74294">
        <ele>2165</ele>
        <time>2020-02-14T01:26:55.195Z</time>
      </trkpt>
      <trkpt lat="42.54782" lon="1.74298">
        <ele>2165</ele>
        <time>2020-02-14T01:26:57.909Z</time>
      </trkpt>
      <trkpt lat="42.54786" lon="1.74302">
        <ele>2165.2</ele>
        <time>2020-02-14T01:27:00.568Z</time>
      </trkpt>
      <trkpt lat="42.54791" lon="1.74309">
        <ele>2165.7</ele>
        <time>2020-02-14T01:27:03.908Z</time>
      </trkpt>
      <trkpt lat="42.54795" lon="1.74315">
        <ele>2166.4</ele>
        <time>2020-02-14T01:27:06.799Z</time>
      </trkpt>
      <trkpt lat="42.54799" lon="1.7432">
        <ele>2166.9</ele>
        <time>2020-02-14T01:27:09.459Z</time>
      </trkpt>
      <trkpt lat="42.54801" lon="1.74326">
        <ele>2167.9</ele>
        <time>2020-02-14T01:27:11.899Z</time>
      </trkpt>
      <trkpt lat="42.54803" lon="1.74332">
        <ele>2168.7</ele>
        <time>2020-02-14T01:27:14.252Z</time>
      </trkpt>
      <trkpt lat="42.54806" lon="1.74339">
        <ele>2169.7</ele>
        <time>2020-02-14T01:27:17.275Z</time>
      </trkpt>
      <trkpt lat="42.54809" lon="1.74344">
        <ele>2170</ele>
        <time>2020-02-14T01:27:19.570Z</time>
      </trkpt>
      <trkpt lat="42.54812" lon="1.7435">
        <ele>2170.6</ele>
        <time>2020-02-14T01:27:22.145Z</time>
      </trkpt>
      <trkpt lat="42.54814" lon="1.74356">
        <ele>2170.9</ele>
        <time>2020-02-14T01:27:24.553Z</time>
      </trkpt>
      <trkpt lat="42.54819" lon="1.74361">
        <ele>2171.1</ele>
        <time>2020-02-14T01:27:27.619Z</time>
      </trkpt>
      <trkpt lat="42.54821" lon="1.74367">
        <ele>2171.5</ele>
        <time>2020-02-14T01:27:30.077Z</time>
      </trkpt>
      <trkpt lat="42.54823" lon="1.74374">
        <ele>2172.1</ele>
        <time>2020-02-14T01:27:32.537Z</time>
      </trkpt>
      <trkpt lat="42.54826" lon="1.74379">
        <ele>2172.5</ele>
        <time>2020-02-14T01:27:34.862Z</time>
      </trkpt>
      <trkpt lat="42.54829" lon="1.74386">
        <ele>2172.9</ele>
        <time>2020-02-14T01:27:37.720Z</time>
      </trkpt>
      <trkpt lat="42.54834" lon="1.74388">
        <ele>2172.6</ele>
        <time>2020-02-14T01:27:40.007Z</time>
      </trkpt>
      <trkpt lat="42.54838" lon="1.74392">
        <ele>2172.4</ele>
        <time>2020-02-14T01:27:42.553Z</time>
      </trkpt>
      <trkpt lat="42.54843" lon="1.74396">
        <ele>2172.2</ele>
        <time>2020-02-14T01:27:45.487Z</time>
      </trkpt>
      <trkpt lat="42.54845" lon="1.74401">
        <ele>2172.6</ele>
        <time>2020-02-14T01:27:47.803Z</time>
      </trkpt>
      <trkpt lat="42.54849" lon="1.74407">
        <ele>2172.9</ele>
        <time>2020-02-14T01:27:50.592Z</time>
      </trkpt>
      <trkpt lat="42.54852" lon="1.74412">
        <ele>2173.1</ele>
        <time>2020-02-14T01:27:52.791Z</time>
      </trkpt>
      <trkpt lat="42.54856" lon="1.74417">
        <ele>2173.1</ele>
        <time>2020-02-14T01:27:55.480Z</time>
      </trkpt>
      <trkpt lat="42.54861" lon="1.74421">
        <ele>2172.9</ele>
        <time>2020-02-14T01:27:58.101Z</time>
      </trkpt>
      <trkpt lat="42.54863" lon="1.74427">
        <ele>2173.3</ele>
        <time>2020-02-14T01:28:00.670Z</time>
      </trkpt>
      <trkpt lat="42.54867" lon="1.74434">
        <ele>2173.6</ele>
        <time>2020-02-14T01:28:03.691Z</time>
      </trkpt>
      <trkpt lat="42.5487" lon="1.7444">
        <ele>2174.1</ele>
        <time>2020-02-14T01:28:06.590Z</time>
      </trkpt>
      <trkpt lat="42.54874" lon="1.74447">
        <ele>2174.3</ele>
        <time>2020-02-14T01:28:09.341Z</time>
      </trkpt>
      <trkpt lat="42.54878" lon="1.74452">
        <ele>2174.5</ele>
        <time>2020-02-14T01:28:12.140Z</time>
      </trkpt>
      <trkpt lat="42.54881" lon="1.74458">
        <ele>2174.8</ele>
        <time>2020-02-14T01:28:14.662Z</time>
      </trkpt>
      <trkpt lat="42.54885" lon="1.74462">
        <ele>2174.5</ele>
        <time>2020-02-14T01:28:17.212Z</time>
      </trkpt>
      <trkpt lat="42.5489" lon="1.74465">
        <ele>2174.2</ele>
        <time>2020-02-14T01:28:19.968Z</time>
      </trkpt>
      <trkpt lat="42.54894" lon="1.74469">
        <ele>2174</ele>
        <time>2020-02-14T01:28:22.330Z</time>
      </trkpt>
      <trkpt lat="42.54899" lon="1.74473">
        <ele>2173.9</ele>
        <time>2020-02-14T01:28:25.095Z</time>
      </trkpt>
      <trkpt lat="42.54903" lon="1.74478">
        <ele>2173.8</ele>
        <time>2020-02-14T01:28:27.972Z</time>
      </trkpt>
      <trkpt lat="42.54908" lon="1.74484">
        <ele>2173.7</ele>
        <time>2020-02-14T01:28:30.881Z</time>
      </trkpt>
      <trkpt lat="42.54911" lon="1.7449">
        <ele>2173.9</ele>
        <time>2020-02-14T01:28:33.691Z</time>
      </trkpt>
      <trkpt lat="42.54915" lon="1.74495">
        <ele>2174.1</ele>
        <time>2020-02-14T01:28:36.044Z</time>
      </trkpt>
      <trkpt lat="42.54919" lon="1.745">
        <ele>2174</ele>
        <time>2020-02-14T01:28:38.918Z</time>
      </trkpt>
      <trkpt lat="42.54923" lon="1.74505">
        <ele>2173.8</ele>
        <time>2020-02-14T01:28:41.671Z</time>
      </trkpt>
      <trkpt lat="42.54929" lon="1.74509">
        <ele>2173.5</ele>
        <time>2020-02-14T01:28:44.661Z</time>
      </trkpt>
      <trkpt lat="42.54933" lon="1.74518">
        <ele>2173.8</ele>
        <time>2020-02-14T01:28:48.438Z</time>
      </trkpt>
      <trkpt lat="42.54936" lon="1.74524">
        <ele>2174.1</ele>
        <time>2020-02-14T01:28:51.248Z</time>
      </trkpt>
      <trkpt lat="42.54939" lon="1.74531">
        <ele>2174.3</ele>
        <time>2020-02-14T01:28:54.074Z</time>
      </trkpt>
      <trkpt lat="42.54942" lon="1.74537">
        <ele>2174.4</ele>
        <time>2020-02-14T01:28:56.650Z</time>
      </trkpt>
      <trkpt lat="42.54946" lon="1.74543">
        <ele>2174.5</ele>
        <time>2020-02-14T01:28:59.741Z</time>
      </trkpt>
      <trkpt lat="42.54951" lon="1.74549">
        <ele>2174.3</ele>
        <time>2020-02-14T01:29:02.625Z</time>
      </trkpt>
      <trkpt lat="42.54954" lon="1.74554">
        <ele>2174.1</ele>
        <time>2020-02-14T01:29:05.308Z</time>
      </trkpt>
      <trkpt lat="42.54959" lon="1.74558">
        <ele>2173.6</ele>
        <time>2020-02-14T01:29:08.209Z</time>
      </trkpt>
      <trkpt lat="42.54963" lon="1.74564">
        <ele>2173.6</ele>
        <time>2020-02-14T01:29:11.053Z</time>
      </trkpt>
      <trkpt lat="42.54965" lon="1.74572">
        <ele>2174</ele>
        <time>2020-02-14T01:29:13.927Z</time>
      </trkpt>
      <trkpt lat="42.54968" lon="1.74577">
        <ele>2174.1</ele>
        <time>2020-02-14T01:29:16.135Z</time>
      </trkpt>
      <trkpt lat="42.54972" lon="1.74581">
        <ele>2173.9</ele>
        <time>2020-02-14T01:29:18.696Z</time>
      </trkpt>
      <trkpt lat="42.54976" lon="1.74587">
        <ele>2173.6</ele>
        <time>2020-02-14T01:29:21.703Z</time>
      </trkpt>
      <trkpt lat="42.54978" lon="1.74595">
        <ele>2174</ele>
        <time>2020-02-14T01:29:24.843Z</time>
      </trkpt>
      <trkpt lat="42.54984" lon="1.74599">
        <ele>2173.3</ele>
        <time>2020-02-14T01:29:27.703Z</time>
      </trkpt>
      <trkpt lat="42.54989" lon="1.74604">
        <ele>2172.7</ele>
        <time>2020-02-14T01:29:31.023Z</time>
      </trkpt>
      <trkpt lat="42.54996" lon="1.74607">
        <ele>2171.7</ele>
        <time>2020-02-14T01:29:34.463Z</time>
      </trkpt>
      <trkpt lat="42.55" lon="1.74612">
        <ele>2171.4</ele>
        <time>2020-02-14T01:29:37.283Z</time>
      </trkpt>
      <trkpt lat="42.55004" lon="1.74617">
        <ele>2171.1</ele>
        <time>2020-02-14T01:29:39.911Z</time>
      </trkpt>
      <trkpt lat="42.55008" lon="1.74622">
        <ele>2170.9</ele>
        <time>2020-02-14T01:29:42.416Z</time>
      </trkpt>
      <trkpt lat="42.5501" lon="1.7463">
        <ele>2171.1</ele>
        <time>2020-02-14T01:29:45.470Z</time>
      </trkpt>
      <trkpt lat="42.55014" lon="1.74635">
        <ele>2170.8</ele>
        <time>2020-02-14T01:29:48.240Z</time>
      </trkpt>
      <trkpt lat="42.55019" lon="1.74642">
        <ele>2170.8</ele>
        <time>2020-02-14T01:29:51.564Z</time>
      </trkpt>
      <trkpt lat="42.55023" lon="1.74646">
        <ele>2170.3</ele>
        <time>2020-02-14T01:29:54.280Z</time>
      </trkpt>
      <trkpt lat="42.55026" lon="1.74653">
        <ele>2170.3</ele>
        <time>2020-02-14T01:29:56.862Z</time>
      </trkpt>
      <trkpt lat="42.55026" lon="1.7466">
        <ele>2170.8</ele>
        <time>2020-02-14T01:29:59.464Z</time>
      </trkpt>
      <trkpt lat="42.55028" lon="1.74667">
        <ele>2171</ele>
        <time>2020-02-14T01:30:02.296Z</time>
      </trkpt>
      <trkpt lat="42.55032" lon="1.74672">
        <ele>2171</ele>
        <time>2020-02-14T01:30:04.871Z</time>
      </trkpt>
      <trkpt lat="42.55035" lon="1.7468">
        <ele>2171</ele>
        <time>2020-02-14T01:30:07.990Z</time>
      </trkpt>
      <trkpt lat="42.55038" lon="1.74687">
        <ele>2171.1</ele>
        <time>2020-02-14T01:30:11.025Z</time>
      </trkpt>
      <trkpt lat="42.5504" lon="1.74695">
        <ele>2171.2</ele>
        <time>2020-02-14T01:30:13.930Z</time>
      </trkpt>
      <trkpt lat="42.55043" lon="1.74701">
        <ele>2171.3</ele>
        <time>2020-02-14T01:30:16.543Z</time>
      </trkpt>
      <trkpt lat="42.55047" lon="1.74708">
        <ele>2171.3</ele>
        <time>2020-02-14T01:30:19.660Z</time>
      </trkpt>
      <trkpt lat="42.5505" lon="1.74716">
        <ele>2171.5</ele>
        <time>2020-02-14T01:30:22.784Z</time>
      </trkpt>
      <trkpt lat="42.55051" lon="1.74723">
        <ele>2171.6</ele>
        <time>2020-02-14T01:30:25.434Z</time>
      </trkpt>
      <trkpt lat="42.55055" lon="1.74728">
        <ele>2171.4</ele>
        <time>2020-02-14T01:30:28.042Z</time>
      </trkpt>
      <trkpt lat="42.55058" lon="1.74733">
        <ele>2171.2</ele>
        <time>2020-02-14T01:30:30.510Z</time>
      </trkpt>
      <trkpt lat="42.5506" lon="1.74742">
        <ele>2171.6</ele>
        <time>2020-02-14T01:30:33.993Z</time>
      </trkpt>
      <trkpt lat="42.55062" lon="1.7475">
        <ele>2171.9</ele>
        <time>2020-02-14T01:30:36.711Z</time>
      </trkpt>
      <trkpt lat="42.55066" lon="1.74756">
        <ele>2171.6</ele>
        <time>2020-02-14T01:30:39.613Z</time>
      </trkpt>
      <trkpt lat="42.5507" lon="1.74761">
        <ele>2170.6</ele>
        <time>2020-02-14T01:30:42.557Z</time>
      </trkpt>
      <trkpt lat="42.55073" lon="1.74768">
        <ele>2170.3</ele>
        <time>2020-02-14T01:30:45.428Z</time>
      </trkpt>
      <trkpt lat="42.55072" lon="1.74776">
        <ele>2170.4</ele>
        <time>2020-02-14T01:30:48.279Z</time>
      </trkpt>
      <trkpt lat="42.55073" lon="1.74784">
        <ele>2170.4</ele>
        <time>2020-02-14T01:30:51.147Z</time>
      </trkpt>
      <trkpt lat="42.55074" lon="1.74791">
        <ele>2170.3</ele>
        <time>2020-02-14T01:30:53.706Z</time>
      </trkpt>
      <trkpt lat="42.55075" lon="1.74799">
        <ele>2170.2</ele>
        <time>2020-02-14T01:30:56.583Z</time>
      </trkpt>
      <trkpt lat="42.55075" lon="1.74807">
        <ele>2170</ele>
        <time>2020-02-14T01:30:59.347Z</time>
      </trkpt>
      <trkpt lat="42.55075" lon="1.74814">
        <ele>2170</ele>
        <time>2020-02-14T01:31:02.004Z</time>
      </trkpt>
      <trkpt lat="42.55076" lon="1.74822">
        <ele>2169.7</ele>
        <time>2020-02-14T01:31:04.965Z</time>
      </trkpt>
      <trkpt lat="42.55075" lon="1.74829">
        <ele>2169.8</ele>
        <time>2020-02-14T01:31:07.457Z</time>
      </trkpt>
      <trkpt lat="42.55075" lon="1.74837">
        <ele>2169.8</ele>
        <time>2020-02-14T01:31:10.293Z</time>
      </trkpt>
      <trkpt lat="42.55075" lon="1.74846">
        <ele>2169.8</ele>
        <time>2020-02-14T01:31:13.388Z</time>
      </trkpt>
      <trkpt lat="42.55073" lon="1.74852">
        <ele>2169.5</ele>
        <time>2020-02-14T01:31:15.873Z</time>
      </trkpt>
      <trkpt lat="42.55071" lon="1.7486">
        <ele>2169.4</ele>
        <time>2020-02-14T01:31:18.838Z</time>
      </trkpt>
      <trkpt lat="42.55069" lon="1.74867">
        <ele>2169.1</ele>
        <time>2020-02-14T01:31:21.505Z</time>
      </trkpt>
      <trkpt lat="42.55067" lon="1.74873">
        <ele>2169</ele>
        <time>2020-02-14T01:31:24.085Z</time>
      </trkpt>
      <trkpt lat="42.55066" lon="1.74882">
        <ele>2168.4</ele>
        <time>2020-02-14T01:31:27.162Z</time>
      </trkpt>
      <trkpt lat="42.55065" lon="1.74889">
        <ele>2168</ele>
        <time>2020-02-14T01:31:29.603Z</time>
      </trkpt>
      <trkpt lat="42.55063" lon="1.74896">
        <ele>2167.9</ele>
        <time>2020-02-14T01:31:32.530Z</time>
      </trkpt>
      <trkpt lat="42.55059" lon="1.74901">
        <ele>2168.3</ele>
        <time>2020-02-14T01:31:35.188Z</time>
      </trkpt>
      <trkpt lat="42.55055" lon="1.74907">
        <ele>2168.6</ele>
        <time>2020-02-14T01:31:37.955Z</time>
      </trkpt>
      <trkpt lat="42.5505" lon="1.74912">
        <ele>2169</ele>
        <time>2020-02-14T01:31:40.914Z</time>
      </trkpt>
      <trkpt lat="42.55047" lon="1.74917">
        <ele>2169.1</ele>
        <time>2020-02-14T01:31:43.153Z</time>
      </trkpt>
      <trkpt lat="42.55043" lon="1.7492">
        <ele>2169.9</ele>
        <time>2020-02-14T01:31:45.691Z</time>
      </trkpt>
      <trkpt lat="42.55038" lon="1.74924">
        <ele>2170.6</ele>
        <time>2020-02-14T01:31:48.401Z</time>
      </trkpt>
      <trkpt lat="42.55034" lon="1.74927">
        <ele>2171.3</ele>
        <time>2020-02-14T01:31:50.816Z</time>
      </trkpt>
      <trkpt lat="42.55029" lon="1.74931">
        <ele>2172</ele>
        <time>2020-02-14T01:31:53.561Z</time>
      </trkpt>
      <trkpt lat="42.55025" lon="1.74939">
        <ele>2172.2</ele>
        <time>2020-02-14T01:31:56.978Z</time>
      </trkpt>
      <trkpt lat="42.55022" lon="1.74945">
        <ele>2172.2</ele>
        <time>2020-02-14T01:31:59.494Z</time>
      </trkpt>
      <trkpt lat="42.55018" lon="1.74952">
        <ele>2172.3</ele>
        <time>2020-02-14T01:32:02.832Z</time>
      </trkpt>
      <trkpt lat="42.55016" lon="1.74958">
        <ele>2171.8</ele>
        <time>2020-02-14T01:32:05.124Z</time>
      </trkpt>
      <trkpt lat="42.55013" lon="1.74964">
        <ele>2171.5</ele>
        <time>2020-02-14T01:32:07.752Z</time>
      </trkpt>
      <trkpt lat="42.5501" lon="1.7497">
        <ele>2171.5</ele>
        <time>2020-02-14T01:32:10.470Z</time>
      </trkpt>
      <trkpt lat="42.55005" lon="1.74974">
        <ele>2171.9</ele>
        <time>2020-02-14T01:32:13.175Z</time>
      </trkpt>
      <trkpt lat="42.55001" lon="1.74981">
        <ele>2172.1</ele>
        <time>2020-02-14T01:32:16.361Z</time>
      </trkpt>
      <trkpt lat="42.54997" lon="1.74986">
        <ele>2172.2</ele>
        <time>2020-02-14T01:32:18.847Z</time>
      </trkpt>
      <trkpt lat="42.54994" lon="1.74992">
        <ele>2172.2</ele>
        <time>2020-02-14T01:32:21.621Z</time>
      </trkpt>
      <trkpt lat="42.5499" lon="1.74998">
        <ele>2172.1</ele>
        <time>2020-02-14T01:32:24.487Z</time>
      </trkpt>
      <trkpt lat="42.54986" lon="1.75004">
        <ele>2172.4</ele>
        <time>2020-02-14T01:32:27.407Z</time>
      </trkpt>
      <trkpt lat="42.54983" lon="1.75012">
        <ele>2172</ele>
        <time>2020-02-14T01:32:30.613Z</time>
      </trkpt>
      <trkpt lat="42.54979" lon="1.75018">
        <ele>2172.6</ele>
        <time>2020-02-14T01:32:33.759Z</time>
      </trkpt>
      <trkpt lat="42.54975" lon="1.75023">
        <ele>2172.8</ele>
        <time>2020-02-14T01:32:36.338Z</time>
      </trkpt>
      <trkpt lat="42.54972" lon="1.75029">
        <ele>2172.9</ele>
        <time>2020-02-14T01:32:39.024Z</time>
      </trkpt>
      <trkpt lat="42.54968" lon="1.75036">
        <ele>2173</ele>
        <time>2020-02-14T01:32:42.088Z</time>
      </trkpt>
      <trkpt lat="42.54965" lon="1.75044">
        <ele>2172.6</ele>
        <time>2020-02-14T01:32:45.299Z</time>
      </trkpt>
      <trkpt lat="42.54963" lon="1.7505">
        <ele>2172.2</ele>
        <time>2020-02-14T01:32:47.836Z</time>
      </trkpt>
      <trkpt lat="42.54959" lon="1.75059">
        <ele>2171.9</ele>
        <time>2020-02-14T01:32:51.360Z</time>
      </trkpt>
      <trkpt lat="42.54956" lon="1.75065">
        <ele>2172</ele>
        <time>2020-02-14T01:32:54.138Z</time>
      </trkpt>
      <trkpt lat="42.54951" lon="1.75071">
        <ele>2172.4</ele>
        <time>2020-02-14T01:32:57.080Z</time>
      </trkpt>
      <trkpt lat="42.54946" lon="1.75073">
        <ele>2173.4</ele>
        <time>2020-02-14T01:32:59.611Z</time>
      </trkpt>
      <trkpt lat="42.54942" lon="1.75078">
        <ele>2174.1</ele>
        <time>2020-02-14T01:33:02.511Z</time>
      </trkpt>
      <trkpt lat="42.54934" lon="1.75082">
        <ele>2175.7</ele>
        <time>2020-02-14T01:33:06.523Z</time>
      </trkpt>
      <trkpt lat="42.54929" lon="1.75085">
        <ele>2177</ele>
        <time>2020-02-14T01:33:09.340Z</time>
      </trkpt>
      <trkpt lat="42.54924" lon="1.75086">
        <ele>2178.4</ele>
        <time>2020-02-14T01:33:12.073Z</time>
      </trkpt>
      <trkpt lat="42.54919" lon="1.75089">
        <ele>2179.4</ele>
        <time>2020-02-14T01:33:14.464Z</time>
      </trkpt>
      <trkpt lat="42.54914" lon="1.75092">
        <ele>2180.7</ele>
        <time>2020-02-14T01:33:17.318Z</time>
      </trkpt>
      <trkpt lat="42.54909" lon="1.75094">
        <ele>2182.1</ele>
        <time>2020-02-14T01:33:20.079Z</time>
      </trkpt>
      <trkpt lat="42.54904" lon="1.75097">
        <ele>2183.4</ele>
        <time>2020-02-14T01:33:22.809Z</time>
      </trkpt>
      <trkpt lat="42.54904" lon="1.75104">
        <ele>2182.5</ele>
        <time>2020-02-14T01:33:25.374Z</time>
      </trkpt>
      <trkpt lat="42.54907" lon="1.7511">
        <ele>2181.2</ele>
        <time>2020-02-14T01:33:27.879Z</time>
      </trkpt>
      <trkpt lat="42.54909" lon="1.75116">
        <ele>2179.9</ele>
        <time>2020-02-14T01:33:30.282Z</time>
      </trkpt>
      <trkpt lat="42.54912" lon="1.7512">
        <ele>2178.6</ele>
        <time>2020-02-14T01:33:32.609Z</time>
      </trkpt>
      <trkpt lat="42.54915" lon="1.75128">
        <ele>2176.9</ele>
        <time>2020-02-14T01:33:35.744Z</time>
      </trkpt>
      <trkpt lat="42.54916" lon="1.75136">
        <ele>2175.9</ele>
        <time>2020-02-14T01:33:38.796Z</time>
      </trkpt>
      <trkpt lat="42.54917" lon="1.75143">
        <ele>2175.4</ele>
        <time>2020-02-14T01:33:41.436Z</time>
      </trkpt>
      <trkpt lat="42.54915" lon="1.75151">
        <ele>2175.1</ele>
        <time>2020-02-14T01:33:44.360Z</time>
      </trkpt>
      <trkpt lat="42.54915" lon="1.75159">
        <ele>2174.7</ele>
        <time>2020-02-14T01:33:47.198Z</time>
      </trkpt>
      <trkpt lat="42.54914" lon="1.75166">
        <ele>2174.4</ele>
        <time>2020-02-14T01:33:49.813Z</time>
      </trkpt>
      <trkpt lat="42.54912" lon="1.75174">
        <ele>2174.8</ele>
        <time>2020-02-14T01:33:52.704Z</time>
      </trkpt>
      <trkpt lat="42.5491" lon="1.75181">
        <ele>2175.3</ele>
        <time>2020-02-14T01:33:55.434Z</time>
      </trkpt>
      <trkpt lat="42.5491" lon="1.75189">
        <ele>2175.3</ele>
        <time>2020-02-14T01:33:58.235Z</time>
      </trkpt>
      <trkpt lat="42.54908" lon="1.75197">
        <ele>2175.8</ele>
        <time>2020-02-14T01:34:01.387Z</time>
      </trkpt>
      <trkpt lat="42.54907" lon="1.75204">
        <ele>2176.4</ele>
        <time>2020-02-14T01:34:03.833Z</time>
      </trkpt>
      <trkpt lat="42.54907" lon="1.75211">
        <ele>2176</ele>
        <time>2020-02-14T01:34:06.360Z</time>
      </trkpt>
      <trkpt lat="42.54906" lon="1.75217">
        <ele>2176.7</ele>
        <time>2020-02-14T01:34:08.638Z</time>
      </trkpt>
      <trkpt lat="42.54907" lon="1.75224">
        <ele>2176.2</ele>
        <time>2020-02-14T01:34:11.337Z</time>
      </trkpt>
      <trkpt lat="42.54907" lon="1.7523">
        <ele>2176.2</ele>
        <time>2020-02-14T01:34:13.605Z</time>
      </trkpt>
      <trkpt lat="42.54906" lon="1.75237">
        <ele>2176.8</ele>
        <time>2020-02-14T01:34:16.234Z</time>
      </trkpt>
      <trkpt lat="42.54906" lon="1.75245">
        <ele>2176.7</ele>
        <time>2020-02-14T01:34:18.997Z</time>
      </trkpt>
      <trkpt lat="42.54906" lon="1.75254">
        <ele>2176.8</ele>
        <time>2020-02-14T01:34:22.231Z</time>
      </trkpt>
      <trkpt lat="42.54906" lon="1.7526">
        <ele>2177</ele>
        <time>2020-02-14T01:34:24.496Z</time>
      </trkpt>
      <trkpt lat="42.54906" lon="1.75269">
        <ele>2177.2</ele>
        <time>2020-02-14T01:34:27.624Z</time>
      </trkpt>
      <trkpt lat="42.54908" lon="1.75276">
        <ele>2176.6</ele>
        <time>2020-02-14T01:34:30.303Z</time>
      </trkpt>
      <trkpt lat="42.54908" lon="1.75284">
        <ele>2177.1</ele>
        <time>2020-02-14T01:34:33.073Z</time>
      </trkpt>
      <trkpt lat="42.54909" lon="1.75291">
        <ele>2177</ele>
        <time>2020-02-14T01:34:35.592Z</time>
      </trkpt>
      <trkpt lat="42.5491" lon="1.75299">
        <ele>2177.1</ele>
        <time>2020-02-14T01:34:38.659Z</time>
      </trkpt>
      <trkpt lat="42.5491" lon="1.75306">
        <ele>2177.2</ele>
        <time>2020-02-14T01:34:41.086Z</time>
      </trkpt>
      <trkpt lat="42.54911" lon="1.75313">
        <ele>2177.3</ele>
        <time>2020-02-14T01:34:43.507Z</time>
      </trkpt>
      <trkpt lat="42.54913" lon="1.75319">
        <ele>2177</ele>
        <time>2020-02-14T01:34:46.094Z</time>
      </trkpt>
      <trkpt lat="42.54913" lon="1.75325">
        <ele>2177</ele>
        <time>2020-02-14T01:34:48.336Z</time>
      </trkpt>
      <trkpt lat="42.54914" lon="1.75332">
        <ele>2177.3</ele>
        <time>2020-02-14T01:34:50.579Z</time>
      </trkpt>
      <trkpt lat="42.54914" lon="1.75338">
        <ele>2177.5</ele>
        <time>2020-02-14T01:34:52.929Z</time>
      </trkpt>
      <trkpt lat="42.54916" lon="1.75344">
        <ele>2177.3</ele>
        <time>2020-02-14T01:34:55.175Z</time>
      </trkpt>
      <trkpt lat="42.54917" lon="1.75353">
        <ele>2177.5</ele>
        <time>2020-02-14T01:34:58.511Z</time>
      </trkpt>
      <trkpt lat="42.54918" lon="1.7536">
        <ele>2177.6</ele>
        <time>2020-02-14T01:35:01.095Z</time>
      </trkpt>
      <trkpt lat="42.54919" lon="1.75367">
        <ele>2177.5</ele>
        <time>2020-02-14T01:35:03.677Z</time>
      </trkpt>
      <trkpt lat="42.54921" lon="1.75373">
        <ele>2177.4</ele>
        <time>2020-02-14T01:35:06.023Z</time>
      </trkpt>
      <trkpt lat="42.54923" lon="1.75381">
        <ele>2177.5</ele>
        <time>2020-02-14T01:35:08.906Z</time>
      </trkpt>
      <trkpt lat="42.54925" lon="1.75389">
        <ele>2177.4</ele>
        <time>2020-02-14T01:35:11.811Z</time>
      </trkpt>
      <trkpt lat="42.54925" lon="1.75396">
        <ele>2177.8</ele>
        <time>2020-02-14T01:35:14.352Z</time>
      </trkpt>
      <trkpt lat="42.54926" lon="1.75403">
        <ele>2178.1</ele>
        <time>2020-02-14T01:35:17.181Z</time>
      </trkpt>
      <trkpt lat="42.54926" lon="1.75413">
        <ele>2178.9</ele>
        <time>2020-02-14T01:35:20.792Z</time>
      </trkpt>
      <trkpt lat="42.54924" lon="1.7542">
        <ele>2179.6</ele>
        <time>2020-02-14T01:35:23.284Z</time>
      </trkpt>
      <trkpt lat="42.54925" lon="1.7543">
        <ele>2180.1</ele>
        <time>2020-02-14T01:35:26.888Z</time>
      </trkpt>
      <trkpt lat="42.54923" lon="1.75436">
        <ele>2180.9</ele>
        <time>2020-02-14T01:35:29.256Z</time>
      </trkpt>
      <trkpt lat="42.54924" lon="1.75442">
        <ele>2180.9</ele>
        <time>2020-02-14T01:35:31.595Z</time>
      </trkpt>
      <trkpt lat="42.54923" lon="1.75449">
        <ele>2181.6</ele>
        <time>2020-02-14T01:35:33.998Z</time>
      </trkpt>
      <trkpt lat="42.54921" lon="1.75458">
        <ele>2182.4</ele>
        <time>2020-02-14T01:35:37.482Z</time>
      </trkpt>
      <trkpt lat="42.54922" lon="1.75465">
        <ele>2182.4</ele>
        <time>2020-02-14T01:35:39.843Z</time>
      </trkpt>
      <trkpt lat="42.5492" lon="1.75472">
        <ele>2182.8</ele>
        <time>2020-02-14T01:35:42.684Z</time>
      </trkpt>
      <trkpt lat="42.54917" lon="1.75478">
        <ele>2183.4</ele>
        <time>2020-02-14T01:35:45.214Z</time>
      </trkpt>
      <trkpt lat="42.54913" lon="1.75482">
        <ele>2184</ele>
        <time>2020-02-14T01:35:47.470Z</time>
      </trkpt>
      <trkpt lat="42.54911" lon="1.75487">
        <ele>2184.5</ele>
        <time>2020-02-14T01:35:49.704Z</time>
      </trkpt>
      <trkpt lat="42.54907" lon="1.75492">
        <ele>2184.9</ele>
        <time>2020-02-14T01:35:52.173Z</time>
      </trkpt>
      <trkpt lat="42.54902" lon="1.75496">
        <ele>2184.9</ele>
        <time>2020-02-14T01:35:55.127Z</time>
      </trkpt>
      <trkpt lat="42.54903" lon="1.75503">
        <ele>2184.2</ele>
        <time>2020-02-14T01:35:57.816Z</time>
      </trkpt>
      <trkpt lat="42.54905" lon="1.75511">
        <ele>2183.4</ele>
        <time>2020-02-14T01:36:00.760Z</time>
      </trkpt>
      <trkpt lat="42.54902" lon="1.75516">
        <ele>2183</ele>
        <time>2020-02-14T01:36:03.373Z</time>
      </trkpt>
      <trkpt lat="42.54898" lon="1.7552">
        <ele>2182.5</ele>
        <time>2020-02-14T01:36:05.697Z</time>
      </trkpt>
      <trkpt lat="42.54898" lon="1.75527">
        <ele>2182</ele>
        <time>2020-02-14T01:36:08.077Z</time>
      </trkpt>
      <trkpt lat="42.54898" lon="1.75534">
        <ele>2181.4</ele>
        <time>2020-02-14T01:36:10.504Z</time>
      </trkpt>
      <trkpt lat="42.54898" lon="1.75541">
        <ele>2180.7</ele>
        <time>2020-02-14T01:36:13.043Z</time>
      </trkpt>
      <trkpt lat="42.54897" lon="1.75547">
        <ele>2179.7</ele>
        <time>2020-02-14T01:36:15.539Z</time>
      </trkpt>
      <trkpt lat="42.54897" lon="1.75554">
        <ele>2178.8</ele>
        <time>2020-02-14T01:36:17.845Z</time>
      </trkpt>
      <trkpt lat="42.54894" lon="1.75559">
        <ele>2178</ele>
        <time>2020-02-14T01:36:20.272Z</time>
      </trkpt>
      <trkpt lat="42.54891" lon="1.75565">
        <ele>2177</ele>
        <time>2020-02-14T01:36:22.895Z</time>
      </trkpt>
      <trkpt lat="42.54889" lon="1.75571">
        <ele>2176.1</ele>
        <time>2020-02-14T01:36:25.211Z</time>
      </trkpt>
      <trkpt lat="42.54882" lon="1.75575">
        <ele>2175.3</ele>
        <time>2020-02-14T01:36:28.689Z</time>
      </trkpt>
      <trkpt lat="42.54876" lon="1.75577">
        <ele>2174.9</ele>
        <time>2020-02-14T01:36:31.945Z</time>
      </trkpt>
      <trkpt lat="42.54871" lon="1.75577">
        <ele>2174.8</ele>
        <time>2020-02-14T01:36:34.431Z</time>
      </trkpt>
      <trkpt lat="42.54866" lon="1.75576">
        <ele>2174.7</ele>
        <time>2020-02-14T01:36:36.946Z</time>
      </trkpt>
      <trkpt lat="42.5486" lon="1.75576">
        <ele>2174.6</ele>
        <time>2020-02-14T01:36:39.533Z</time>
      </trkpt>
      <trkpt lat="42.54856" lon="1.75577">
        <ele>2174.4</ele>
        <time>2020-02-14T01:36:41.865Z</time>
      </trkpt>
      <trkpt lat="42.54851" lon="1.7558">
        <ele>2173.9</ele>
        <time>2020-02-14T01:36:44.404Z</time>
      </trkpt>
      <trkpt lat="42.54846" lon="1.75582">
        <ele>2173.4</ele>
        <time>2020-02-14T01:36:46.737Z</time>
      </trkpt>
      <trkpt lat="42.54842" lon="1.75585">
        <ele>2172.9</ele>
        <time>2020-02-14T01:36:49.014Z</time>
      </trkpt>
      <trkpt lat="42.54838" lon="1.75589">
        <ele>2172.2</ele>
        <time>2020-02-14T01:36:51.602Z</time>
      </trkpt>
      <trkpt lat="42.54833" lon="1.75591">
        <ele>2171.8</ele>
        <time>2020-02-14T01:36:53.983Z</time>
      </trkpt>
      <trkpt lat="42.54828" lon="1.75595">
        <ele>2171.3</ele>
        <time>2020-02-14T01:36:56.890Z</time>
      </trkpt>
      <trkpt lat="42.54823" lon="1.75597">
        <ele>2170.7</ele>
        <time>2020-02-14T01:36:59.432Z</time>
      </trkpt>
      <trkpt lat="42.54818" lon="1.75599">
        <ele>2170.5</ele>
        <time>2020-02-14T01:37:01.898Z</time>
      </trkpt>
      <trkpt lat="42.54812" lon="1.75601">
        <ele>2170.2</ele>
        <time>2020-02-14T01:37:04.930Z</time>
      </trkpt>
      <trkpt lat="42.54806" lon="1.75605">
        <ele>2169.8</ele>
        <time>2020-02-14T01:37:08.145Z</time>
      </trkpt>
      <trkpt lat="42.54802" lon="1.75606">
        <ele>2169.8</ele>
        <time>2020-02-14T01:37:10.510Z</time>
      </trkpt>
      <trkpt lat="42.54797" lon="1.75605">
        <ele>2169.9</ele>
        <time>2020-02-14T01:37:12.788Z</time>
      </trkpt>
      <trkpt lat="42.54792" lon="1.75607">
        <ele>2169.9</ele>
        <time>2020-02-14T01:37:15.404Z</time>
      </trkpt>
      <trkpt lat="42.54787" lon="1.75611">
        <ele>2169.4</ele>
        <time>2020-02-14T01:37:18.072Z</time>
      </trkpt>
      <trkpt lat="42.54785" lon="1.75617">
        <ele>2168.8</ele>
        <time>2020-02-14T01:37:20.402Z</time>
      </trkpt>
      <trkpt lat="42.54781" lon="1.75622">
        <ele>2168.4</ele>
        <time>2020-02-14T01:37:23.032Z</time>
      </trkpt>
      <trkpt lat="42.54779" lon="1.75629">
        <ele>2167.6</ele>
        <time>2020-02-14T01:37:25.743Z</time>
      </trkpt>
      <trkpt lat="42.54777" lon="1.75636">
        <ele>2166.8</ele>
        <time>2020-02-14T01:37:28.483Z</time>
      </trkpt>
      <trkpt lat="42.54774" lon="1.75643">
        <ele>2166.2</ele>
        <time>2020-02-14T01:37:31.402Z</time>
      </trkpt>
      <trkpt lat="42.5477" lon="1.75648">
        <ele>2165.8</ele>
        <time>2020-02-14T01:37:34.056Z</time>
      </trkpt>
      <trkpt lat="42.54765" lon="1.75652">
        <ele>2165.9</ele>
        <time>2020-02-14T01:37:36.892Z</time>
      </trkpt>
      <trkpt lat="42.5476" lon="1.75656">
        <ele>2165.7</ele>
        <time>2020-02-14T01:37:39.609Z</time>
      </trkpt>
      <trkpt lat="42.54756" lon="1.7566">
        <ele>2165.7</ele>
        <time>2020-02-14T01:37:42.108Z</time>
      </trkpt>
      <trkpt lat="42.54752" lon="1.75664">
        <ele>2165.5</ele>
        <time>2020-02-14T01:37:44.431Z</time>
      </trkpt>
      <trkpt lat="42.54748" lon="1.75668">
        <ele>2165.6</ele>
        <time>2020-02-14T01:37:47.056Z</time>
      </trkpt>
      <trkpt lat="42.54742" lon="1.75672">
        <ele>2165.5</ele>
        <time>2020-02-14T01:37:50.279Z</time>
      </trkpt>
      <trkpt lat="42.54739" lon="1.75678">
        <ele>2165.2</ele>
        <time>2020-02-14T01:37:52.770Z</time>
      </trkpt>
      <trkpt lat="42.54735" lon="1.75681">
        <ele>2165.3</ele>
        <time>2020-02-14T01:37:54.984Z</time>
      </trkpt>
      <trkpt lat="42.5473" lon="1.75683">
        <ele>2165.7</ele>
        <time>2020-02-14T01:37:57.606Z</time>
      </trkpt>
      <trkpt lat="42.54725" lon="1.75688">
        <ele>2165.7</ele>
        <time>2020-02-14T01:38:00.498Z</time>
      </trkpt>
      <trkpt lat="42.5472" lon="1.75692">
        <ele>2165.9</ele>
        <time>2020-02-14T01:38:03.159Z</time>
      </trkpt>
      <trkpt lat="42.54715" lon="1.75696">
        <ele>2166</ele>
        <time>2020-02-14T01:38:06.049Z</time>
      </trkpt>
      <trkpt lat="42.54711" lon="1.757">
        <ele>2166.1</ele>
        <time>2020-02-14T01:38:08.537Z</time>
      </trkpt>
      <trkpt lat="42.54707" lon="1.75706">
        <ele>2166.2</ele>
        <time>2020-02-14T01:38:11.550Z</time>
      </trkpt>
      <trkpt lat="42.54702" lon="1.75712">
        <ele>2166.2</ele>
        <time>2020-02-14T01:38:14.845Z</time>
      </trkpt>
      <trkpt lat="42.54699" lon="1.75717">
        <ele>2166.1</ele>
        <time>2020-02-14T01:38:17.132Z</time>
      </trkpt>
      <trkpt lat="42.54696" lon="1.75722">
        <ele>2165.9</ele>
        <time>2020-02-14T01:38:19.484Z</time>
      </trkpt>
      <trkpt lat="42.54692" lon="1.75728">
        <ele>2165.8</ele>
        <time>2020-02-14T01:38:22.376Z</time>
      </trkpt>
      <trkpt lat="42.54688" lon="1.75733">
        <ele>2165.8</ele>
        <time>2020-02-14T01:38:25.154Z</time>
      </trkpt>
      <trkpt lat="42.54684" lon="1.75738">
        <ele>2165.9</ele>
        <time>2020-02-14T01:38:27.546Z</time>
      </trkpt>
      <trkpt lat="42.5468" lon="1.75741">
        <ele>2166.1</ele>
        <time>2020-02-14T01:38:29.952Z</time>
      </trkpt>
      <trkpt lat="42.54675" lon="1.75743">
        <ele>2166.3</ele>
        <time>2020-02-14T01:38:32.296Z</time>
      </trkpt>
      <trkpt lat="42.54669" lon="1.75745">
        <ele>2166.8</ele>
        <time>2020-02-14T01:38:35.404Z</time>
      </trkpt>
      <trkpt lat="42.54662" lon="1.75749">
        <ele>2167</ele>
        <time>2020-02-14T01:38:39.228Z</time>
      </trkpt>
      <trkpt lat="42.54657" lon="1.75751">
        <ele>2167.3</ele>
        <time>2020-02-14T01:38:41.789Z</time>
      </trkpt>
      <trkpt lat="42.54651" lon="1.75753">
        <ele>2167.6</ele>
        <time>2020-02-14T01:38:44.824Z</time>
      </trkpt>
      <trkpt lat="42.54646" lon="1.7576">
        <ele>2167.7</ele>
        <time>2020-02-14T01:38:48.206Z</time>
      </trkpt>
      <trkpt lat="42.54642" lon="1.75766">
        <ele>2167.5</ele>
        <time>2020-02-14T01:38:51.072Z</time>
      </trkpt>
      <trkpt lat="42.5464" lon="1.75772">
        <ele>2167.2</ele>
        <time>2020-02-14T01:38:53.402Z</time>
      </trkpt>
      <trkpt lat="42.54634" lon="1.75775">
        <ele>2167.3</ele>
        <time>2020-02-14T01:38:56.469Z</time>
      </trkpt>
      <trkpt lat="42.5463" lon="1.75777">
        <ele>2167.6</ele>
        <time>2020-02-14T01:38:58.673Z</time>
      </trkpt>
      <trkpt lat="42.54624" lon="1.75777">
        <ele>2167.9</ele>
        <time>2020-02-14T01:39:01.418Z</time>
      </trkpt>
      <trkpt lat="42.54619" lon="1.7578">
        <ele>2168.1</ele>
        <time>2020-02-14T01:39:04.253Z</time>
      </trkpt>
      <trkpt lat="42.54612" lon="1.75781">
        <ele>2168.5</ele>
        <time>2020-02-14T01:39:07.590Z</time>
      </trkpt>
      <trkpt lat="42.54607" lon="1.75784">
        <ele>2168.6</ele>
        <time>2020-02-14T01:39:10.410Z</time>
      </trkpt>
      <trkpt lat="42.54601" lon="1.75786">
        <ele>2168.8</ele>
        <time>2020-02-14T01:39:13.320Z</time>
      </trkpt>
      <trkpt lat="42.54596" lon="1.75788">
        <ele>2168.9</ele>
        <time>2020-02-14T01:39:15.898Z</time>
      </trkpt>
      <trkpt lat="42.54591" lon="1.75789">
        <ele>2168.9</ele>
        <time>2020-02-14T01:39:18.474Z</time>
      </trkpt>
      <trkpt lat="42.54586" lon="1.75791">
        <ele>2169.1</ele>
        <time>2020-02-14T01:39:21.061Z</time>
      </trkpt>
      <trkpt lat="42.54581" lon="1.75796">
        <ele>2168.8</ele>
        <time>2020-02-14T01:39:24.029Z</time>
      </trkpt>
      <trkpt lat="42.54575" lon="1.75802">
        <ele>2168.2</ele>
        <time>2020-02-14T01:39:27.668Z</time>
      </trkpt>
      <trkpt lat="42.54569" lon="1.75805">
        <ele>2168.1</ele>
        <time>2020-02-14T01:39:30.507Z</time>
      </trkpt>
      <trkpt lat="42.54565" lon="1.75807">
        <ele>2168</ele>
        <time>2020-02-14T01:39:32.820Z</time>
      </trkpt>
      <trkpt lat="42.5456" lon="1.75811">
        <ele>2167.7</ele>
        <time>2020-02-14T01:39:35.610Z</time>
      </trkpt>
      <trkpt lat="42.54554" lon="1.75815">
        <ele>2167.5</ele>
        <time>2020-02-14T01:39:38.816Z</time>
      </trkpt>
      <trkpt lat="42.54547" lon="1.75818">
        <ele>2167.2</ele>
        <time>2020-02-14T01:39:42.515Z</time>
      </trkpt>
      <trkpt lat="42.54542" lon="1.75822">
        <ele>2166.9</ele>
        <time>2020-02-14T01:39:45.245Z</time>
      </trkpt>
      <trkpt lat="42.54537" lon="1.75826">
        <ele>2166.5</ele>
        <time>2020-02-14T01:39:48.132Z</time>
      </trkpt>
      <trkpt lat="42.54533" lon="1.75829">
        <ele>2166.3</ele>
        <time>2020-02-14T01:39:50.379Z</time>
      </trkpt>
      <trkpt lat="42.54529" lon="1.75833">
        <ele>2166</ele>
        <time>2020-02-14T01:39:52.745Z</time>
      </trkpt>
      <trkpt lat="42.54524" lon="1.75838">
        <ele>2165.5</ele>
        <time>2020-02-14T01:39:55.540Z</time>
      </trkpt>
      <trkpt lat="42.54519" lon="1.75843">
        <ele>2165</ele>
        <time>2020-02-14T01:39:58.675Z</time>
      </trkpt>
      <trkpt lat="42.54514" lon="1.75844">
        <ele>2165.2</ele>
        <time>2020-02-14T01:40:01.300Z</time>
      </trkpt>
      <trkpt lat="42.54508" lon="1.75846">
        <ele>2165.2</ele>
        <time>2020-02-14T01:40:04.166Z</time>
      </trkpt>
      <trkpt lat="42.54503" lon="1.75847">
        <ele>2165.3</ele>
        <time>2020-02-14T01:40:06.757Z</time>
      </trkpt>
      <trkpt lat="42.54498" lon="1.75851">
        <ele>2164.9</ele>
        <time>2020-02-14T01:40:09.512Z</time>
      </trkpt>
      <trkpt lat="42.54497" lon="1.75858">
        <ele>2164.3</ele>
        <time>2020-02-14T01:40:11.832Z</time>
      </trkpt>
      <trkpt lat="42.54493" lon="1.75862">
        <ele>2163.9</ele>
        <time>2020-02-14T01:40:14.437Z</time>
      </trkpt>
      <trkpt lat="42.54493" lon="1.75871">
        <ele>2162.5</ele>
        <time>2020-02-14T01:40:17.833Z</time>
      </trkpt>
      <trkpt lat="42.54496" lon="1.75879">
        <ele>2161.4</ele>
        <time>2020-02-14T01:40:20.972Z</time>
      </trkpt>
      <trkpt lat="42.54499" lon="1.75884">
        <ele>2160.6</ele>
        <time>2020-02-14T01:40:23.401Z</time>
      </trkpt>
      <trkpt lat="42.54502" lon="1.75891">
        <ele>2159.4</ele>
        <time>2020-02-14T01:40:26.220Z</time>
      </trkpt>
      <trkpt lat="42.54504" lon="1.75898">
        <ele>2158.4</ele>
        <time>2020-02-14T01:40:29.071Z</time>
      </trkpt>
      <trkpt lat="42.54504" lon="1.75905">
        <ele>2157.5</ele>
        <time>2020-02-14T01:40:31.546Z</time>
      </trkpt>
      <trkpt lat="42.54503" lon="1.7591">
        <ele>2156.8</ele>
        <time>2020-02-14T01:40:33.406Z</time>
      </trkpt>
      <trkpt lat="42.54505" lon="1.75917">
        <ele>2155.5</ele>
        <time>2020-02-14T01:40:36.092Z</time>
      </trkpt>
      <trkpt lat="42.54506" lon="1.75924">
        <ele>2154.3</ele>
        <time>2020-02-14T01:40:38.799Z</time>
      </trkpt>
      <trkpt lat="42.54506" lon="1.75931">
        <ele>2153.2</ele>
        <time>2020-02-14T01:40:41.472Z</time>
      </trkpt>
      <trkpt lat="42.54506" lon="1.7594">
        <ele>2151.6</ele>
        <time>2020-02-14T01:40:44.834Z</time>
      </trkpt>
      <trkpt lat="42.54511" lon="1.75946">
        <ele>2150.3</ele>
        <time>2020-02-14T01:40:48.004Z</time>
      </trkpt>
      <trkpt lat="42.54516" lon="1.7595">
        <ele>2149.2</ele>
        <time>2020-02-14T01:40:50.843Z</time>
      </trkpt>
      <trkpt lat="42.54516" lon="1.7596">
        <ele>2147.5</ele>
        <time>2020-02-14T01:40:54.518Z</time>
      </trkpt>
      <trkpt lat="42.54515" lon="1.75966">
        <ele>2146.5</ele>
        <time>2020-02-14T01:40:56.820Z</time>
      </trkpt>
      <trkpt lat="42.5451" lon="1.75971">
        <ele>2145.9</ele>
        <time>2020-02-14T01:40:59.573Z</time>
      </trkpt>
      <trkpt lat="42.54509" lon="1.75977">
        <ele>2144.7</ele>
        <time>2020-02-14T01:41:02.061Z</time>
      </trkpt>
      <trkpt lat="42.54507" lon="1.75983">
        <ele>2143.7</ele>
        <time>2020-02-14T01:41:04.306Z</time>
      </trkpt>
      <trkpt lat="42.54503" lon="1.75987">
        <ele>2143.2</ele>
        <time>2020-02-14T01:41:06.897Z</time>
      </trkpt>
      <trkpt lat="42.54498" lon="1.75991">
        <ele>2142.9</ele>
        <time>2020-02-14T01:41:09.356Z</time>
      </trkpt>
      <trkpt lat="42.54494" lon="1.75995">
        <ele>2142.3</ele>
        <time>2020-02-14T01:41:11.984Z</time>
      </trkpt>
      <trkpt lat="42.54488" lon="1.76">
        <ele>2142.3</ele>
        <time>2020-02-14T01:41:15.205Z</time>
      </trkpt>
      <trkpt lat="42.54483" lon="1.76001">
        <ele>2143.1</ele>
        <time>2020-02-14T01:41:18.032Z</time>
      </trkpt>
      <trkpt lat="42.54478" lon="1.76006">
        <ele>2143.4</ele>
        <time>2020-02-14T01:41:20.864Z</time>
      </trkpt>
      <trkpt lat="42.54474" lon="1.76011">
        <ele>2143.2</ele>
        <time>2020-02-14T01:41:23.422Z</time>
      </trkpt>
      <trkpt lat="42.5447" lon="1.76013">
        <ele>2143.9</ele>
        <time>2020-02-14T01:41:25.885Z</time>
      </trkpt>
      <trkpt lat="42.54465" lon="1.76015">
        <ele>2144.5</ele>
        <time>2020-02-14T01:41:28.173Z</time>
      </trkpt>
      <trkpt lat="42.54461" lon="1.76018">
        <ele>2144.8</ele>
        <time>2020-02-14T01:41:30.566Z</time>
      </trkpt>
      <trkpt lat="42.54458" lon="1.76023">
        <ele>2144.6</ele>
        <time>2020-02-14T01:41:32.771Z</time>
      </trkpt>
      <trkpt lat="42.54455" lon="1.76028">
        <ele>2144.4</ele>
        <time>2020-02-14T01:41:35.150Z</time>
      </trkpt>
      <trkpt lat="42.54452" lon="1.76034">
        <ele>2144.4</ele>
        <time>2020-02-14T01:41:37.821Z</time>
      </trkpt>
      <trkpt lat="42.54447" lon="1.76039">
        <ele>2144.7</ele>
        <time>2020-02-14T01:41:40.829Z</time>
      </trkpt>
      <trkpt lat="42.54443" lon="1.76044">
        <ele>2144.6</ele>
        <time>2020-02-14T01:41:43.218Z</time>
      </trkpt>
      <trkpt lat="42.5444" lon="1.7605">
        <ele>2144.6</ele>
        <time>2020-02-14T01:41:45.966Z</time>
      </trkpt>
      <trkpt lat="42.54436" lon="1.76054">
        <ele>2144.9</ele>
        <time>2020-02-14T01:41:48.383Z</time>
      </trkpt>
      <trkpt lat="42.54432" lon="1.76059">
        <ele>2145.3</ele>
        <time>2020-02-14T01:41:51.028Z</time>
      </trkpt>
      <trkpt lat="42.54428" lon="1.76067">
        <ele>2145.4</ele>
        <time>2020-02-14T01:41:54.732Z</time>
      </trkpt>
      <trkpt lat="42.54422" lon="1.76069">
        <ele>2146.5</ele>
        <time>2020-02-14T01:41:57.412Z</time>
      </trkpt>
      <trkpt lat="42.54418" lon="1.76071">
        <ele>2147.4</ele>
        <time>2020-02-14T01:41:59.725Z</time>
      </trkpt>
      <trkpt lat="42.54413" lon="1.76074">
        <ele>2148.3</ele>
        <time>2020-02-14T01:42:02.424Z</time>
      </trkpt>
      <trkpt lat="42.54408" lon="1.76076">
        <ele>2149.4</ele>
        <time>2020-02-14T01:42:04.938Z</time>
      </trkpt>
      <trkpt lat="42.54404" lon="1.76079">
        <ele>2149.9</ele>
        <time>2020-02-14T01:42:07.117Z</time>
      </trkpt>
      <trkpt lat="42.54405" lon="1.76086">
        <ele>2149.1</ele>
        <time>2020-02-14T01:42:09.423Z</time>
      </trkpt>
      <trkpt lat="42.54408" lon="1.76092">
        <ele>2147.7</ele>
        <time>2020-02-14T01:42:12.101Z</time>
      </trkpt>
      <trkpt lat="42.54409" lon="1.76096">
        <ele>2147</ele>
        <time>2020-02-14T01:42:13.724Z</time>
      </trkpt>
      <trkpt lat="42.54412" lon="1.76102">
        <ele>2146</ele>
        <time>2020-02-14T01:42:16.508Z</time>
      </trkpt>
      <trkpt lat="42.54415" lon="1.76112">
        <ele>2144.7</ele>
        <time>2020-02-14T01:42:20.487Z</time>
      </trkpt>
      <trkpt lat="42.54417" lon="1.7612">
        <ele>2143.5</ele>
        <time>2020-02-14T01:42:23.630Z</time>
      </trkpt>
      <trkpt lat="42.54417" lon="1.76127">
        <ele>2143.6</ele>
        <time>2020-02-14T01:42:25.907Z</time>
      </trkpt>
      <trkpt lat="42.54416" lon="1.76139">
        <ele>2143.4</ele>
        <time>2020-02-14T01:42:30.344Z</time>
      </trkpt>
      <trkpt lat="42.54416" lon="1.76143">
        <ele>2143.1</ele>
        <time>2020-02-14T01:42:31.893Z</time>
      </trkpt>
      <trkpt lat="42.54417" lon="1.76149">
        <ele>2142.9</ele>
        <time>2020-02-14T01:42:33.838Z</time>
      </trkpt>
      <trkpt lat="42.54416" lon="1.76155">
        <ele>2143.1</ele>
        <time>2020-02-14T01:42:36.244Z</time>
      </trkpt>
      <trkpt lat="42.54415" lon="1.76162">
        <ele>2143.6</ele>
        <time>2020-02-14T01:42:38.721Z</time>
      </trkpt>
      <trkpt lat="42.54414" lon="1.7617">
        <ele>2144.2</ele>
        <time>2020-02-14T01:42:41.885Z</time>
      </trkpt>
      <trkpt lat="42.54415" lon="1.76178">
        <ele>2143.6</ele>
        <time>2020-02-14T01:42:44.696Z</time>
      </trkpt>
      <trkpt lat="42.54415" lon="1.76183">
        <ele>2143.6</ele>
        <time>2020-02-14T01:42:46.599Z</time>
      </trkpt>
      <trkpt lat="42.54415" lon="1.76189">
        <ele>2143.9</ele>
        <time>2020-02-14T01:42:48.760Z</time>
      </trkpt>
      <trkpt lat="42.54416" lon="1.76196">
        <ele>2144.4</ele>
        <time>2020-02-14T01:42:51.156Z</time>
      </trkpt>
      <trkpt lat="42.54416" lon="1.76201">
        <ele>2144.5</ele>
        <time>2020-02-14T01:42:52.887Z</time>
      </trkpt>
      <trkpt lat="42.54417" lon="1.76207">
        <ele>2144.6</ele>
        <time>2020-02-14T01:42:55.078Z</time>
      </trkpt>
      <trkpt lat="42.54417" lon="1.76215">
        <ele>2145.7</ele>
        <time>2020-02-14T01:42:58.203Z</time>
      </trkpt>
      <trkpt lat="42.54417" lon="1.7622">
        <ele>2145.8</ele>
        <time>2020-02-14T01:42:59.772Z</time>
      </trkpt>
      <trkpt lat="42.54417" lon="1.76225">
        <ele>2146.6</ele>
        <time>2020-02-14T01:43:01.720Z</time>
      </trkpt>
      <trkpt lat="42.54419" lon="1.7623">
        <ele>2146.4</ele>
        <time>2020-02-14T01:43:03.583Z</time>
      </trkpt>
      <trkpt lat="42.5442" lon="1.76236">
        <ele>2146.3</ele>
        <time>2020-02-14T01:43:06.130Z</time>
      </trkpt>
      <trkpt lat="42.54422" lon="1.76244">
        <ele>2147</ele>
        <time>2020-02-14T01:43:09.087Z</time>
      </trkpt>
      <trkpt lat="42.54422" lon="1.76251">
        <ele>2148</ele>
        <time>2020-02-14T01:43:11.614Z</time>
      </trkpt>
      <trkpt lat="42.54424" lon="1.76258">
        <ele>2148.3</ele>
        <time>2020-02-14T01:43:14.292Z</time>
      </trkpt>
      <trkpt lat="42.54427" lon="1.76265">
        <ele>2148.3</ele>
        <time>2020-02-14T01:43:17.229Z</time>
      </trkpt>
      <trkpt lat="42.54431" lon="1.76273">
        <ele>2147.9</ele>
        <time>2020-02-14T01:43:20.708Z</time>
      </trkpt>
      <trkpt lat="42.54432" lon="1.76285">
        <ele>2149.2</ele>
        <time>2020-02-14T01:43:24.881Z</time>
      </trkpt>
      <trkpt lat="42.5444" lon="1.76291">
        <ele>2147.3</ele>
        <time>2020-02-14T01:43:29.301Z</time>
      </trkpt>
      <trkpt lat="42.54445" lon="1.76291">
        <ele>2144.8</ele>
        <time>2020-02-14T01:43:32.258Z</time>
      </trkpt>
      <trkpt lat="42.54451" lon="1.76291">
        <ele>2142.3</ele>
        <time>2020-02-14T01:43:35.109Z</time>
      </trkpt>
      <trkpt lat="42.54455" lon="1.76293">
        <ele>2140.8</ele>
        <time>2020-02-14T01:43:37.462Z</time>
      </trkpt>
      <trkpt lat="42.5446" lon="1.76293">
        <ele>2138.6</ele>
        <time>2020-02-14T01:43:39.996Z</time>
      </trkpt>
      <trkpt lat="42.54468" lon="1.76296">
        <ele>2135.5</ele>
        <time>2020-02-14T01:43:44.420Z</time>
      </trkpt>
      <trkpt lat="42.54474" lon="1.76298">
        <ele>2133.6</ele>
        <time>2020-02-14T01:43:47.299Z</time>
      </trkpt>
      <trkpt lat="42.5448" lon="1.763">
        <ele>2131.3</ele>
        <time>2020-02-14T01:43:50.412Z</time>
      </trkpt>
      <trkpt lat="42.54488" lon="1.76304">
        <ele>2128.3</ele>
        <time>2020-02-14T01:43:55.111Z</time>
      </trkpt>
      <trkpt lat="42.54493" lon="1.76307">
        <ele>2127.1</ele>
        <time>2020-02-14T01:43:57.420Z</time>
      </trkpt>
      <trkpt lat="42.54497" lon="1.76313">
        <ele>2127</ele>
        <time>2020-02-14T01:44:00.611Z</time>
      </trkpt>
      <trkpt lat="42.54501" lon="1.76322">
        <ele>2127.5</ele>
        <time>2020-02-14T01:44:04.326Z</time>
      </trkpt>
      <trkpt lat="42.54505" lon="1.76325">
        <ele>2126.9</ele>
        <time>2020-02-14T01:44:06.630Z</time>
      </trkpt>
      <trkpt lat="42.54511" lon="1.76328">
        <ele>2125.7</ele>
        <time>2020-02-14T01:44:09.824Z</time>
      </trkpt>
      <trkpt lat="42.54516" lon="1.76335">
        <ele>2126</ele>
        <time>2020-02-14T01:44:13.037Z</time>
      </trkpt>
      <trkpt lat="42.54519" lon="1.76337">
        <ele>2126</ele>
        <time>2020-02-14T01:44:14.650Z</time>
      </trkpt>
      <trkpt lat="42.54524" lon="1.76344">
        <ele>2126</ele>
        <time>2020-02-14T01:44:18.118Z</time>
      </trkpt>
      <trkpt lat="42.54527" lon="1.76348">
        <ele>2126.5</ele>
        <time>2020-02-14T01:44:20.132Z</time>
      </trkpt>
      <trkpt lat="42.54532" lon="1.76352">
        <ele>2125.8</ele>
        <time>2020-02-14T01:44:23.067Z</time>
      </trkpt>
      <trkpt lat="42.54537" lon="1.76356">
        <ele>2125.2</ele>
        <time>2020-02-14T01:44:25.827Z</time>
      </trkpt>
      <trkpt lat="42.5454" lon="1.76358">
        <ele>2124.7</ele>
        <time>2020-02-14T01:44:27.780Z</time>
      </trkpt>
      <trkpt lat="42.54544" lon="1.76363">
        <ele>2125.1</ele>
        <time>2020-02-14T01:44:30.210Z</time>
      </trkpt>
      <trkpt lat="42.54549" lon="1.76365">
        <ele>2124.1</ele>
        <time>2020-02-14T01:44:32.905Z</time>
      </trkpt>
      <trkpt lat="42.54553" lon="1.76366">
        <ele>2123.1</ele>
        <time>2020-02-14T01:44:34.734Z</time>
      </trkpt>
      <trkpt lat="42.54557" lon="1.76368">
        <ele>2122.3</ele>
        <time>2020-02-14T01:44:36.890Z</time>
      </trkpt>
      <trkpt lat="42.5456" lon="1.76371">
        <ele>2122</ele>
        <time>2020-02-14T01:44:38.636Z</time>
      </trkpt>
      <trkpt lat="42.54567" lon="1.76375">
        <ele>2120.9</ele>
        <time>2020-02-14T01:44:42.543Z</time>
      </trkpt>
      <trkpt lat="42.54573" lon="1.76376">
        <ele>2119.1</ele>
        <time>2020-02-14T01:44:45.633Z</time>
      </trkpt>
      <trkpt lat="42.54579" lon="1.76377">
        <ele>2117.6</ele>
        <time>2020-02-14T01:44:48.685Z</time>
      </trkpt>
      <trkpt lat="42.54584" lon="1.76378">
        <ele>2116.3</ele>
        <time>2020-02-14T01:44:50.968Z</time>
      </trkpt>
      <trkpt lat="42.54591" lon="1.76379">
        <ele>2114.3</ele>
        <time>2020-02-14T01:44:54.733Z</time>
      </trkpt>
      <trkpt lat="42.54596" lon="1.76381">
        <ele>2113.3</ele>
        <time>2020-02-14T01:44:57.311Z</time>
      </trkpt>
      <trkpt lat="42.54602" lon="1.76382">
        <ele>2112</ele>
        <time>2020-02-14T01:45:00.494Z</time>
      </trkpt>
      <trkpt lat="42.54607" lon="1.76387">
        <ele>2112.1</ele>
        <time>2020-02-14T01:45:03.064Z</time>
      </trkpt>
      <trkpt lat="42.5461" lon="1.76391">
        <ele>2112.5</ele>
        <time>2020-02-14T01:45:05.464Z</time>
      </trkpt>
      <trkpt lat="42.54614" lon="1.76396">
        <ele>2112.6</ele>
        <time>2020-02-14T01:45:08.144Z</time>
      </trkpt>
      <trkpt lat="42.54619" lon="1.76404">
        <ele>2113.6</ele>
        <time>2020-02-14T01:45:11.728Z</time>
      </trkpt>
      <trkpt lat="42.54624" lon="1.76417">
        <ele>2115.9</ele>
        <time>2020-02-14T01:45:17.115Z</time>
      </trkpt>
      <trkpt lat="42.54628" lon="1.76425">
        <ele>2117.4</ele>
        <time>2020-02-14T01:45:20.783Z</time>
      </trkpt>
      <trkpt lat="42.54634" lon="1.76432">
        <ele>2118.2</ele>
        <time>2020-02-14T01:45:24.478Z</time>
      </trkpt>
      <trkpt lat="42.54639" lon="1.76436">
        <ele>2118.5</ele>
        <time>2020-02-14T01:45:27.606Z</time>
      </trkpt>
      <trkpt lat="42.54645" lon="1.76438">
        <ele>2117.1</ele>
        <time>2020-02-14T01:45:30.655Z</time>
      </trkpt>
      <trkpt lat="42.54652" lon="1.7644">
        <ele>2116</ele>
        <time>2020-02-14T01:45:33.968Z</time>
      </trkpt>
      <trkpt lat="42.54656" lon="1.76445">
        <ele>2116.3</ele>
        <time>2020-02-14T01:45:36.515Z</time>
      </trkpt>
      <trkpt lat="42.54663" lon="1.76447">
        <ele>2115</ele>
        <time>2020-02-14T01:45:39.926Z</time>
      </trkpt>
      <trkpt lat="42.54669" lon="1.76454">
        <ele>2115.5</ele>
        <time>2020-02-14T01:45:43.831Z</time>
      </trkpt>
      <trkpt lat="42.54677" lon="1.76458">
        <ele>2114.3</ele>
        <time>2020-02-14T01:45:48.053Z</time>
      </trkpt>
      <trkpt lat="42.54684" lon="1.76461">
        <ele>2113.8</ele>
        <time>2020-02-14T01:45:51.785Z</time>
      </trkpt>
      <trkpt lat="42.5469" lon="1.76468">
        <ele>2114.3</ele>
        <time>2020-02-14T01:45:55.401Z</time>
      </trkpt>
      <trkpt lat="42.54695" lon="1.76473">
        <ele>2115</ele>
        <time>2020-02-14T01:45:58.258Z</time>
      </trkpt>
      <trkpt lat="42.547" lon="1.76475">
        <ele>2114.5</ele>
        <time>2020-02-14T01:46:00.783Z</time>
      </trkpt>
      <trkpt lat="42.54705" lon="1.7648">
        <ele>2115.1</ele>
        <time>2020-02-14T01:46:03.931Z</time>
      </trkpt>
      <trkpt lat="42.54709" lon="1.76484">
        <ele>2115.4</ele>
        <time>2020-02-14T01:46:06.683Z</time>
      </trkpt>
      <trkpt lat="42.54714" lon="1.76491">
        <ele>2116.5</ele>
        <time>2020-02-14T01:46:09.944Z</time>
      </trkpt>
      <trkpt lat="42.5472" lon="1.76498">
        <ele>2117</ele>
        <time>2020-02-14T01:46:13.856Z</time>
      </trkpt>
      <trkpt lat="42.54724" lon="1.76503">
        <ele>2117.5</ele>
        <time>2020-02-14T01:46:16.664Z</time>
      </trkpt>
      <trkpt lat="42.54731" lon="1.76507">
        <ele>2117.4</ele>
        <time>2020-02-14T01:46:20.114Z</time>
      </trkpt>
      <trkpt lat="42.54736" lon="1.76512">
        <ele>2117.6</ele>
        <time>2020-02-14T01:46:23.025Z</time>
      </trkpt>
      <trkpt lat="42.54739" lon="1.76513">
        <ele>2117.1</ele>
        <time>2020-02-14T01:46:24.606Z</time>
      </trkpt>
      <trkpt lat="42.54743" lon="1.76514">
        <ele>2116.8</ele>
        <time>2020-02-14T01:46:26.694Z</time>
      </trkpt>
      <trkpt lat="42.54751" lon="1.7652">
        <ele>2117.5</ele>
        <time>2020-02-14T01:46:30.900Z</time>
      </trkpt>
      <trkpt lat="42.54755" lon="1.76522">
        <ele>2117</ele>
        <time>2020-02-14T01:46:33.190Z</time>
      </trkpt>
      <trkpt lat="42.54758" lon="1.76525">
        <ele>2118.2</ele>
        <time>2020-02-14T01:46:35.150Z</time>
      </trkpt>
      <trkpt lat="42.54764" lon="1.7653">
        <ele>2118.8</ele>
        <time>2020-02-14T01:46:38.892Z</time>
      </trkpt>
      <trkpt lat="42.54771" lon="1.76535">
        <ele>2119.4</ele>
        <time>2020-02-14T01:46:42.666Z</time>
      </trkpt>
      <trkpt lat="42.5478" lon="1.76541">
        <ele>2120.3</ele>
        <time>2020-02-14T01:46:47.370Z</time>
      </trkpt>
      <trkpt lat="42.54786" lon="1.76545">
        <ele>2120.1</ele>
        <time>2020-02-14T01:46:50.848Z</time>
      </trkpt>
      <trkpt lat="42.54793" lon="1.76551">
        <ele>2121.2</ele>
        <time>2020-02-14T01:46:54.852Z</time>
      </trkpt>
      <trkpt lat="42.54802" lon="1.76557">
        <ele>2122</ele>
        <time>2020-02-14T01:46:59.682Z</time>
      </trkpt>
      <trkpt lat="42.54809" lon="1.76558">
        <ele>2120.3</ele>
        <time>2020-02-14T01:47:03.270Z</time>
      </trkpt>
      <trkpt lat="42.54814" lon="1.76565">
        <ele>2122.1</ele>
        <time>2020-02-14T01:47:06.724Z</time>
      </trkpt>
      <trkpt lat="42.54818" lon="1.76568">
        <ele>2122.3</ele>
        <time>2020-02-14T01:47:09.223Z</time>
      </trkpt>
      <trkpt lat="42.54824" lon="1.76572">
        <ele>2122.6</ele>
        <time>2020-02-14T01:47:12.313Z</time>
      </trkpt>
      <trkpt lat="42.54831" lon="1.76575">
        <ele>2121.5</ele>
        <time>2020-02-14T01:47:15.801Z</time>
      </trkpt>
      <trkpt lat="42.54836" lon="1.76578">
        <ele>2121.1</ele>
        <time>2020-02-14T01:47:18.397Z</time>
      </trkpt>
      <trkpt lat="42.54843" lon="1.76581">
        <ele>2120</ele>
        <time>2020-02-14T01:47:22.077Z</time>
      </trkpt>
      <trkpt lat="42.54849" lon="1.76586">
        <ele>2120.2</ele>
        <time>2020-02-14T01:47:25.732Z</time>
      </trkpt>
      <trkpt lat="42.54854" lon="1.76589">
        <ele>2119.6</ele>
        <time>2020-02-14T01:47:28.562Z</time>
      </trkpt>
      <trkpt lat="42.54859" lon="1.76591">
        <ele>2118.8</ele>
        <time>2020-02-14T01:47:30.868Z</time>
      </trkpt>
      <trkpt lat="42.54863" lon="1.76593">
        <ele>2118.1</ele>
        <time>2020-02-14T01:47:33.168Z</time>
      </trkpt>
      <trkpt lat="42.54866" lon="1.76595">
        <ele>2117.9</ele>
        <time>2020-02-14T01:47:34.625Z</time>
      </trkpt>
      <trkpt lat="42.5487" lon="1.76598">
        <ele>2117.8</ele>
        <time>2020-02-14T01:47:36.995Z</time>
      </trkpt>
      <trkpt lat="42.54875" lon="1.76598">
        <ele>2115.8</ele>
        <time>2020-02-14T01:47:39.398Z</time>
      </trkpt>
      <trkpt lat="42.5488" lon="1.76601">
        <ele>2115.1</ele>
        <time>2020-02-14T01:47:41.956Z</time>
      </trkpt>
      <trkpt lat="42.5489" lon="1.76609">
        <ele>2114.4</ele>
        <time>2020-02-14T01:47:48.014Z</time>
      </trkpt>
      <trkpt lat="42.549" lon="1.76616">
        <ele>2113.5</ele>
        <time>2020-02-14T01:47:53.499Z</time>
      </trkpt>
      <trkpt lat="42.54912" lon="1.76625">
        <ele>2112.6</ele>
        <time>2020-02-14T01:48:00.113Z</time>
      </trkpt>
      <trkpt lat="42.54916" lon="1.76627">
        <ele>2112</ele>
        <time>2020-02-14T01:48:02.364Z</time>
      </trkpt>
      <trkpt lat="42.5492" lon="1.76631">
        <ele>2112.7</ele>
        <time>2020-02-14T01:48:04.695Z</time>
      </trkpt>
      <trkpt lat="42.54926" lon="1.76632">
        <ele>2110.6</ele>
        <time>2020-02-14T01:48:07.901Z</time>
      </trkpt>
      <trkpt lat="42.54932" lon="1.76635">
        <ele>2109.9</ele>
        <time>2020-02-14T01:48:10.625Z</time>
      </trkpt>
      <trkpt lat="42.54937" lon="1.7664">
        <ele>2110.2</ele>
        <time>2020-02-14T01:48:13.736Z</time>
      </trkpt>
      <trkpt lat="42.54941" lon="1.76643">
        <ele>2110.2</ele>
        <time>2020-02-14T01:48:16.171Z</time>
      </trkpt>
      <trkpt lat="42.54946" lon="1.76648">
        <ele>2110.7</ele>
        <time>2020-02-14T01:48:19.075Z</time>
      </trkpt>
      <trkpt lat="42.54951" lon="1.76651">
        <ele>2109.9</ele>
        <time>2020-02-14T01:48:21.623Z</time>
      </trkpt>
      <trkpt lat="42.54956" lon="1.76656">
        <ele>2110.1</ele>
        <time>2020-02-14T01:48:24.769Z</time>
      </trkpt>
      <trkpt lat="42.54961" lon="1.7666">
        <ele>2110.5</ele>
        <time>2020-02-14T01:48:27.574Z</time>
      </trkpt>
      <trkpt lat="42.54964" lon="1.76662">
        <ele>2110.4</ele>
        <time>2020-02-14T01:48:29.256Z</time>
      </trkpt>
      <trkpt lat="42.54967" lon="1.76665">
        <ele>2110.2</ele>
        <time>2020-02-14T01:48:31.128Z</time>
      </trkpt>
      <trkpt lat="42.54974" lon="1.76668">
        <ele>2109</ele>
        <time>2020-02-14T01:48:34.844Z</time>
      </trkpt>
      <trkpt lat="42.54979" lon="1.76669">
        <ele>2108.2</ele>
        <time>2020-02-14T01:48:37.145Z</time>
      </trkpt>
      <trkpt lat="42.54984" lon="1.76674">
        <ele>2108.3</ele>
        <time>2020-02-14T01:48:40.418Z</time>
      </trkpt>
      <trkpt lat="42.54989" lon="1.76679">
        <ele>2108.4</ele>
        <time>2020-02-14T01:48:43.361Z</time>
      </trkpt>
      <trkpt lat="42.54996" lon="1.76682">
        <ele>2107.4</ele>
        <time>2020-02-14T01:48:46.624Z</time>
      </trkpt>
      <trkpt lat="42.55001" lon="1.76683">
        <ele>2106.2</ele>
        <time>2020-02-14T01:48:49.200Z</time>
      </trkpt>
      <trkpt lat="42.55006" lon="1.76683">
        <ele>2104.7</ele>
        <time>2020-02-14T01:48:51.643Z</time>
      </trkpt>
      <trkpt lat="42.55011" lon="1.76687">
        <ele>2104.3</ele>
        <time>2020-02-14T01:48:54.787Z</time>
      </trkpt>
      <trkpt lat="42.55017" lon="1.7669">
        <ele>2104</ele>
        <time>2020-02-14T01:48:57.917Z</time>
      </trkpt>
      <trkpt lat="42.55023" lon="1.76691">
        <ele>2102.5</ele>
        <time>2020-02-14T01:49:00.641Z</time>
      </trkpt>
      <trkpt lat="42.55028" lon="1.76692">
        <ele>2101.3</ele>
        <time>2020-02-14T01:49:03.410Z</time>
      </trkpt>
      <trkpt lat="42.55035" lon="1.76697">
        <ele>2101</ele>
        <time>2020-02-14T01:49:06.914Z</time>
      </trkpt>
      <trkpt lat="42.55039" lon="1.767">
        <ele>2101</ele>
        <time>2020-02-14T01:49:09.534Z</time>
      </trkpt>
      <trkpt lat="42.55045" lon="1.76704">
        <ele>2100.5</ele>
        <time>2020-02-14T01:49:12.623Z</time>
      </trkpt>
      <trkpt lat="42.5505" lon="1.76708">
        <ele>2100.1</ele>
        <time>2020-02-14T01:49:15.593Z</time>
      </trkpt>
      <trkpt lat="42.55056" lon="1.76711">
        <ele>2099.7</ele>
        <time>2020-02-14T01:49:18.489Z</time>
      </trkpt>
      <trkpt lat="42.5506" lon="1.76715">
        <ele>2099.4</ele>
        <time>2020-02-14T01:49:21.240Z</time>
      </trkpt>
      <trkpt lat="42.55065" lon="1.76719">
        <ele>2099.2</ele>
        <time>2020-02-14T01:49:24.052Z</time>
      </trkpt>
      <trkpt lat="42.5507" lon="1.76723">
        <ele>2099</ele>
        <time>2020-02-14T01:49:26.876Z</time>
      </trkpt>
      <trkpt lat="42.55075" lon="1.76726">
        <ele>2098.5</ele>
        <time>2020-02-14T01:49:29.480Z</time>
      </trkpt>
      <trkpt lat="42.55081" lon="1.7673">
        <ele>2097.6</ele>
        <time>2020-02-14T01:49:32.587Z</time>
      </trkpt>
      <trkpt lat="42.55086" lon="1.76734">
        <ele>2097.2</ele>
        <time>2020-02-14T01:49:35.445Z</time>
      </trkpt>
      <trkpt lat="42.55091" lon="1.76739">
        <ele>2097.7</ele>
        <time>2020-02-14T01:49:38.428Z</time>
      </trkpt>
      <trkpt lat="42.55096" lon="1.76744">
        <ele>2097.3</ele>
        <time>2020-02-14T01:49:41.416Z</time>
      </trkpt>
      <trkpt lat="42.551" lon="1.76749">
        <ele>2097.1</ele>
        <time>2020-02-14T01:49:44.028Z</time>
      </trkpt>
      <trkpt lat="42.55104" lon="1.76752">
        <ele>2095.9</ele>
        <time>2020-02-14T01:49:46.648Z</time>
      </trkpt>
      <trkpt lat="42.55108" lon="1.76757">
        <ele>2095.4</ele>
        <time>2020-02-14T01:49:49.197Z</time>
      </trkpt>
      <trkpt lat="42.55112" lon="1.76763">
        <ele>2095.5</ele>
        <time>2020-02-14T01:49:52.020Z</time>
      </trkpt>
      <trkpt lat="42.55116" lon="1.76769">
        <ele>2095.4</ele>
        <time>2020-02-14T01:49:54.950Z</time>
      </trkpt>
      <trkpt lat="42.5512" lon="1.76772">
        <ele>2094.5</ele>
        <time>2020-02-14T01:49:57.464Z</time>
      </trkpt>
      <trkpt lat="42.55125" lon="1.76778">
        <ele>2094.1</ele>
        <time>2020-02-14T01:50:00.371Z</time>
      </trkpt>
      <trkpt lat="42.55128" lon="1.76783">
        <ele>2093.9</ele>
        <time>2020-02-14T01:50:02.769Z</time>
      </trkpt>
      <trkpt lat="42.55132" lon="1.76789">
        <ele>2094</ele>
        <time>2020-02-14T01:50:05.673Z</time>
      </trkpt>
      <trkpt lat="42.55136" lon="1.76795">
        <ele>2093.8</ele>
        <time>2020-02-14T01:50:08.399Z</time>
      </trkpt>
      <trkpt lat="42.55138" lon="1.76802">
        <ele>2094.5</ele>
        <time>2020-02-14T01:50:11.197Z</time>
      </trkpt>
      <trkpt lat="42.55142" lon="1.76809">
        <ele>2094.1</ele>
        <time>2020-02-14T01:50:14.441Z</time>
      </trkpt>
      <trkpt lat="42.55145" lon="1.76815">
        <ele>2094.4</ele>
        <time>2020-02-14T01:50:17.135Z</time>
      </trkpt>
      <trkpt lat="42.55148" lon="1.76821">
        <ele>2094.3</ele>
        <time>2020-02-14T01:50:19.822Z</time>
      </trkpt>
      <trkpt lat="42.55151" lon="1.76827">
        <ele>2094.7</ele>
        <time>2020-02-14T01:50:22.471Z</time>
      </trkpt>
      <trkpt lat="42.55154" lon="1.76833">
        <ele>2094.5</ele>
        <time>2020-02-14T01:50:25.134Z</time>
      </trkpt>
      <trkpt lat="42.55158" lon="1.76839">
        <ele>2093.8</ele>
        <time>2020-02-14T01:50:27.863Z</time>
      </trkpt>
      <trkpt lat="42.5516" lon="1.76844">
        <ele>2094.2</ele>
        <time>2020-02-14T01:50:29.829Z</time>
      </trkpt>
      <trkpt lat="42.55162" lon="1.76851">
        <ele>2094.6</ele>
        <time>2020-02-14T01:50:32.598Z</time>
      </trkpt>
      <trkpt lat="42.55161" lon="1.76857">
        <ele>2096.1</ele>
        <time>2020-02-14T01:50:34.681Z</time>
      </trkpt>
      <trkpt lat="42.55163" lon="1.76864">
        <ele>2096.9</ele>
        <time>2020-02-14T01:50:37.274Z</time>
      </trkpt>
      <trkpt lat="42.55163" lon="1.76872">
        <ele>2098.7</ele>
        <time>2020-02-14T01:50:40.290Z</time>
      </trkpt>
      <trkpt lat="42.55165" lon="1.7688">
        <ele>2099.4</ele>
        <time>2020-02-14T01:50:43.606Z</time>
      </trkpt>
      <trkpt lat="42.55167" lon="1.76884">
        <ele>2099.1</ele>
        <time>2020-02-14T01:50:45.327Z</time>
      </trkpt>
      <trkpt lat="42.5517" lon="1.7689">
        <ele>2099.3</ele>
        <time>2020-02-14T01:50:47.649Z</time>
      </trkpt>
      <trkpt lat="42.55175" lon="1.76896">
        <ele>2098.1</ele>
        <time>2020-02-14T01:50:51.344Z</time>
      </trkpt>
      <trkpt lat="42.55179" lon="1.76901">
        <ele>2097.2</ele>
        <time>2020-02-14T01:50:54.035Z</time>
      </trkpt>
      <trkpt lat="42.55185" lon="1.76906">
        <ele>2095.9</ele>
        <time>2020-02-14T01:50:57.166Z</time>
      </trkpt>
      <trkpt lat="42.55188" lon="1.7691">
        <ele>2095</ele>
        <time>2020-02-14T01:50:59.426Z</time>
      </trkpt>
      <trkpt lat="42.55192" lon="1.76918">
        <ele>2095.3</ele>
        <time>2020-02-14T01:51:02.871Z</time>
      </trkpt>
      <trkpt lat="42.55194" lon="1.76925">
        <ele>2095.7</ele>
        <time>2020-02-14T01:51:05.584Z</time>
      </trkpt>
      <trkpt lat="42.55196" lon="1.76932">
        <ele>2096.3</ele>
        <time>2020-02-14T01:51:08.532Z</time>
      </trkpt>
      <trkpt lat="42.55201" lon="1.76938">
        <ele>2095.4</ele>
        <time>2020-02-14T01:51:11.670Z</time>
      </trkpt>
      <trkpt lat="42.55204" lon="1.76947">
        <ele>2096.2</ele>
        <time>2020-02-14T01:51:15.173Z</time>
      </trkpt>
      <trkpt lat="42.55206" lon="1.76955">
        <ele>2096.3</ele>
        <time>2020-02-14T01:51:18.119Z</time>
      </trkpt>
      <trkpt lat="42.55206" lon="1.76959">
        <ele>2097.5</ele>
        <time>2020-02-14T01:51:19.794Z</time>
      </trkpt>
      <trkpt lat="42.55209" lon="1.76967">
        <ele>2097.5</ele>
        <time>2020-02-14T01:51:22.905Z</time>
      </trkpt>
      <trkpt lat="42.55213" lon="1.76976">
        <ele>2097.7</ele>
        <time>2020-02-14T01:51:26.519Z</time>
      </trkpt>
      <trkpt lat="42.55214" lon="1.76982">
        <ele>2098.5</ele>
        <time>2020-02-14T01:51:28.935Z</time>
      </trkpt>
      <trkpt lat="42.55217" lon="1.76989">
        <ele>2098.8</ele>
        <time>2020-02-14T01:51:31.870Z</time>
      </trkpt>
      <trkpt lat="42.5522" lon="1.76996">
        <ele>2098.8</ele>
        <time>2020-02-14T01:51:34.893Z</time>
      </trkpt>
      <trkpt lat="42.55224" lon="1.77001">
        <ele>2097.9</ele>
        <time>2020-02-14T01:51:37.660Z</time>
      </trkpt>
      <trkpt lat="42.55229" lon="1.77009">
        <ele>2097.8</ele>
        <time>2020-02-14T01:51:41.126Z</time>
      </trkpt>
      <trkpt lat="42.55232" lon="1.77017">
        <ele>2097.9</ele>
        <time>2020-02-14T01:51:44.555Z</time>
      </trkpt>
      <trkpt lat="42.55232" lon="1.77024">
        <ele>2099.3</ele>
        <time>2020-02-14T01:51:47.082Z</time>
      </trkpt>
      <trkpt lat="42.55235" lon="1.77031">
        <ele>2099.9</ele>
        <time>2020-02-14T01:51:49.795Z</time>
      </trkpt>
      <trkpt lat="42.55237" lon="1.77038">
        <ele>2100.4</ele>
        <time>2020-02-14T01:51:52.466Z</time>
      </trkpt>
      <trkpt lat="42.55239" lon="1.77045">
        <ele>2101.1</ele>
        <time>2020-02-14T01:51:55.303Z</time>
      </trkpt>
      <trkpt lat="42.55242" lon="1.77053">
        <ele>2101.6</ele>
        <time>2020-02-14T01:51:58.396Z</time>
      </trkpt>
      <trkpt lat="42.55244" lon="1.77059">
        <ele>2102.2</ele>
        <time>2020-02-14T01:52:01.117Z</time>
      </trkpt>
      <trkpt lat="42.55246" lon="1.77068">
        <ele>2103.7</ele>
        <time>2020-02-14T01:52:04.301Z</time>
      </trkpt>
      <trkpt lat="42.55249" lon="1.77075">
        <ele>2103.6</ele>
        <time>2020-02-14T01:52:07.437Z</time>
      </trkpt>
      <trkpt lat="42.55252" lon="1.77083">
        <ele>2104</ele>
        <time>2020-02-14T01:52:10.481Z</time>
      </trkpt>
      <trkpt lat="42.55253" lon="1.77091">
        <ele>2105</ele>
        <time>2020-02-14T01:52:13.579Z</time>
      </trkpt>
      <trkpt lat="42.55255" lon="1.771">
        <ele>2106.1</ele>
        <time>2020-02-14T01:52:16.761Z</time>
      </trkpt>
      <trkpt lat="42.55257" lon="1.77107">
        <ele>2106.8</ele>
        <time>2020-02-14T01:52:19.438Z</time>
      </trkpt>
      <trkpt lat="42.55257" lon="1.77114">
        <ele>2108.2</ele>
        <time>2020-02-14T01:52:22.181Z</time>
      </trkpt>
      <trkpt lat="42.55258" lon="1.77122">
        <ele>2109.1</ele>
        <time>2020-02-14T01:52:25.244Z</time>
      </trkpt>
      <trkpt lat="42.55259" lon="1.77131">
        <ele>2110.6</ele>
        <time>2020-02-14T01:52:28.298Z</time>
      </trkpt>
      <trkpt lat="42.5526" lon="1.77139">
        <ele>2111.1</ele>
        <time>2020-02-14T01:52:31.343Z</time>
      </trkpt>
      <trkpt lat="42.55263" lon="1.77146">
        <ele>2111.3</ele>
        <time>2020-02-14T01:52:34.013Z</time>
      </trkpt>
      <trkpt lat="42.55265" lon="1.77153">
        <ele>2111.8</ele>
        <time>2020-02-14T01:52:36.885Z</time>
      </trkpt>
      <trkpt lat="42.55267" lon="1.77161">
        <ele>2112.4</ele>
        <time>2020-02-14T01:52:39.981Z</time>
      </trkpt>
      <trkpt lat="42.55267" lon="1.7717">
        <ele>2113.9</ele>
        <time>2020-02-14T01:52:43.248Z</time>
      </trkpt>
      <trkpt lat="42.55268" lon="1.77178">
        <ele>2114.6</ele>
        <time>2020-02-14T01:52:45.973Z</time>
      </trkpt>
      <trkpt lat="42.5527" lon="1.77185">
        <ele>2115.1</ele>
        <time>2020-02-14T01:52:48.831Z</time>
      </trkpt>
      <trkpt lat="42.55273" lon="1.77193">
        <ele>2114.7</ele>
        <time>2020-02-14T01:52:52.018Z</time>
      </trkpt>
      <trkpt lat="42.55276" lon="1.772">
        <ele>2114.5</ele>
        <time>2020-02-14T01:52:54.978Z</time>
      </trkpt>
      <trkpt lat="42.55279" lon="1.77206">
        <ele>2114</ele>
        <time>2020-02-14T01:52:57.881Z</time>
      </trkpt>
      <trkpt lat="42.55283" lon="1.77213">
        <ele>2113.7</ele>
        <time>2020-02-14T01:53:00.717Z</time>
      </trkpt>
      <trkpt lat="42.55286" lon="1.7722">
        <ele>2112.9</ele>
        <time>2020-02-14T01:53:03.773Z</time>
      </trkpt>
      <trkpt lat="42.5529" lon="1.77225">
        <ele>2112.3</ele>
        <time>2020-02-14T01:53:06.369Z</time>
      </trkpt>
      <trkpt lat="42.55293" lon="1.77232">
        <ele>2111.6</ele>
        <time>2020-02-14T01:53:09.219Z</time>
      </trkpt>
      <trkpt lat="42.55297" lon="1.77237">
        <ele>2110.7</ele>
        <time>2020-02-14T01:53:11.926Z</time>
      </trkpt>
      <trkpt lat="42.55301" lon="1.77242">
        <ele>2110.1</ele>
        <time>2020-02-14T01:53:14.520Z</time>
      </trkpt>
      <trkpt lat="42.55304" lon="1.77249">
        <ele>2109.4</ele>
        <time>2020-02-14T01:53:17.436Z</time>
      </trkpt>
      <trkpt lat="42.55308" lon="1.77256">
        <ele>2108.4</ele>
        <time>2020-02-14T01:53:20.704Z</time>
      </trkpt>
      <trkpt lat="42.55313" lon="1.77263">
        <ele>2107.5</ele>
        <time>2020-02-14T01:53:24.169Z</time>
      </trkpt>
      <trkpt lat="42.55316" lon="1.77271">
        <ele>2107.3</ele>
        <time>2020-02-14T01:53:27.288Z</time>
      </trkpt>
      <trkpt lat="42.55318" lon="1.77278">
        <ele>2107.3</ele>
        <time>2020-02-14T01:53:30.142Z</time>
      </trkpt>
      <trkpt lat="42.5532" lon="1.77287">
        <ele>2107.8</ele>
        <time>2020-02-14T01:53:33.318Z</time>
      </trkpt>
      <trkpt lat="42.55321" lon="1.77294">
        <ele>2108.5</ele>
        <time>2020-02-14T01:53:36.206Z</time>
      </trkpt>
      <trkpt lat="42.55322" lon="1.77302">
        <ele>2109.3</ele>
        <time>2020-02-14T01:53:38.787Z</time>
      </trkpt>
      <trkpt lat="42.55323" lon="1.77308">
        <ele>2109.7</ele>
        <time>2020-02-14T01:53:41.130Z</time>
      </trkpt>
      <trkpt lat="42.55325" lon="1.77314">
        <ele>2109.6</ele>
        <time>2020-02-14T01:53:43.757Z</time>
      </trkpt>
      <trkpt lat="42.55328" lon="1.77321">
        <ele>2109.6</ele>
        <time>2020-02-14T01:53:46.294Z</time>
      </trkpt>
      <trkpt lat="42.5533" lon="1.77328">
        <ele>2109.5</ele>
        <time>2020-02-14T01:53:49.144Z</time>
      </trkpt>
      <trkpt lat="42.55333" lon="1.77336">
        <ele>2109.7</ele>
        <time>2020-02-14T01:53:52.313Z</time>
      </trkpt>
      <trkpt lat="42.55336" lon="1.77344">
        <ele>2109.5</ele>
        <time>2020-02-14T01:53:55.518Z</time>
      </trkpt>
      <trkpt lat="42.55338" lon="1.77351">
        <ele>2109.7</ele>
        <time>2020-02-14T01:53:58.296Z</time>
      </trkpt>
      <trkpt lat="42.5534" lon="1.77357">
        <ele>2109.5</ele>
        <time>2020-02-14T01:54:00.798Z</time>
      </trkpt>
      <trkpt lat="42.55344" lon="1.77365">
        <ele>2109.1</ele>
        <time>2020-02-14T01:54:04.198Z</time>
      </trkpt>
      <trkpt lat="42.55346" lon="1.77373">
        <ele>2109.1</ele>
        <time>2020-02-14T01:54:07.118Z</time>
      </trkpt>
      <trkpt lat="42.55347" lon="1.77381">
        <ele>2109.9</ele>
        <time>2020-02-14T01:54:09.885Z</time>
      </trkpt>
      <trkpt lat="42.55347" lon="1.77388">
        <ele>2110.6</ele>
        <time>2020-02-14T01:54:12.511Z</time>
      </trkpt>
      <trkpt lat="42.5535" lon="1.77396">
        <ele>2110.4</ele>
        <time>2020-02-14T01:54:15.551Z</time>
      </trkpt>
      <trkpt lat="42.5535" lon="1.77404">
        <ele>2111.4</ele>
        <time>2020-02-14T01:54:18.668Z</time>
      </trkpt>
      <trkpt lat="42.55351" lon="1.77413">
        <ele>2112</ele>
        <time>2020-02-14T01:54:21.716Z</time>
      </trkpt>
      <trkpt lat="42.5535" lon="1.77421">
        <ele>2112.9</ele>
        <time>2020-02-14T01:54:24.618Z</time>
      </trkpt>
      <trkpt lat="42.55351" lon="1.7743">
        <ele>2113.8</ele>
        <time>2020-02-14T01:54:28.111Z</time>
      </trkpt>
      <trkpt lat="42.55353" lon="1.77437">
        <ele>2113.5</ele>
        <time>2020-02-14T01:54:30.678Z</time>
      </trkpt>
      <trkpt lat="42.55354" lon="1.77444">
        <ele>2113.9</ele>
        <time>2020-02-14T01:54:33.166Z</time>
      </trkpt>
      <trkpt lat="42.55355" lon="1.77452">
        <ele>2113.9</ele>
        <time>2020-02-14T01:54:36.265Z</time>
      </trkpt>
      <trkpt lat="42.55355" lon="1.77463">
        <ele>2114.3</ele>
        <time>2020-02-14T01:54:40.269Z</time>
      </trkpt>
      <trkpt lat="42.55356" lon="1.77471">
        <ele>2114.5</ele>
        <time>2020-02-14T01:54:43.188Z</time>
      </trkpt>
      <trkpt lat="42.55356" lon="1.77479">
        <ele>2115.2</ele>
        <time>2020-02-14T01:54:46.152Z</time>
      </trkpt>
      <trkpt lat="42.55355" lon="1.77487">
        <ele>2115.8</ele>
        <time>2020-02-14T01:54:48.730Z</time>
      </trkpt>
      <trkpt lat="42.55356" lon="1.77496">
        <ele>2115.3</ele>
        <time>2020-02-14T01:54:52.022Z</time>
      </trkpt>
      <trkpt lat="42.55356" lon="1.77505">
        <ele>2115.5</ele>
        <time>2020-02-14T01:54:55.327Z</time>
      </trkpt>
      <trkpt lat="42.55356" lon="1.77513">
        <ele>2116</ele>
        <time>2020-02-14T01:54:58.270Z</time>
      </trkpt>
      <trkpt lat="42.55355" lon="1.7752">
        <ele>2116.1</ele>
        <time>2020-02-14T01:55:00.933Z</time>
      </trkpt>
      <trkpt lat="42.55356" lon="1.77526">
        <ele>2115.9</ele>
        <time>2020-02-14T01:55:03.208Z</time>
      </trkpt>
      <trkpt lat="42.55357" lon="1.77533">
        <ele>2115.4</ele>
        <time>2020-02-14T01:55:05.691Z</time>
      </trkpt>
      <trkpt lat="42.55358" lon="1.77541">
        <ele>2114.5</ele>
        <time>2020-02-14T01:55:08.623Z</time>
      </trkpt>
      <trkpt lat="42.55359" lon="1.77549">
        <ele>2113.6</ele>
        <time>2020-02-14T01:55:11.685Z</time>
      </trkpt>
      <trkpt lat="42.55358" lon="1.77557">
        <ele>2113.9</ele>
        <time>2020-02-14T01:55:14.652Z</time>
      </trkpt>
      <trkpt lat="42.55358" lon="1.77565">
        <ele>2113.6</ele>
        <time>2020-02-14T01:55:17.425Z</time>
      </trkpt>
      <trkpt lat="42.55356" lon="1.77573">
        <ele>2114.1</ele>
        <time>2020-02-14T01:55:20.400Z</time>
      </trkpt>
      <trkpt lat="42.55354" lon="1.7758">
        <ele>2114.2</ele>
        <time>2020-02-14T01:55:22.965Z</time>
      </trkpt>
      <trkpt lat="42.5535" lon="1.77585">
        <ele>2115</ele>
        <time>2020-02-14T01:55:25.872Z</time>
      </trkpt>
      <trkpt lat="42.55347" lon="1.77592">
        <ele>2115.2</ele>
        <time>2020-02-14T01:55:28.706Z</time>
      </trkpt>
      <trkpt lat="42.55343" lon="1.77598">
        <ele>2115.8</ele>
        <time>2020-02-14T01:55:31.476Z</time>
      </trkpt>
      <trkpt lat="42.5534" lon="1.77604">
        <ele>2115.9</ele>
        <time>2020-02-14T01:55:34.264Z</time>
      </trkpt>
      <trkpt lat="42.55336" lon="1.77612">
        <ele>2116.1</ele>
        <time>2020-02-14T01:55:37.451Z</time>
      </trkpt>
      <trkpt lat="42.55332" lon="1.77617">
        <ele>2116.8</ele>
        <time>2020-02-14T01:55:40.197Z</time>
      </trkpt>
      <trkpt lat="42.55328" lon="1.77619">
        <ele>2118.3</ele>
        <time>2020-02-14T01:55:42.581Z</time>
      </trkpt>
      <trkpt lat="42.55323" lon="1.77621">
        <ele>2120.1</ele>
        <time>2020-02-14T01:55:44.951Z</time>
      </trkpt>
      <trkpt lat="42.55317" lon="1.77624">
        <ele>2122.1</ele>
        <time>2020-02-14T01:55:48.173Z</time>
      </trkpt>
      <trkpt lat="42.55312" lon="1.77628">
        <ele>2123.7</ele>
        <time>2020-02-14T01:55:51.309Z</time>
      </trkpt>
      <trkpt lat="42.55309" lon="1.77633">
        <ele>2123.6</ele>
        <time>2020-02-14T01:55:53.623Z</time>
      </trkpt>
      <trkpt lat="42.55306" lon="1.77638">
        <ele>2123.8</ele>
        <time>2020-02-14T01:55:56.009Z</time>
      </trkpt>
      <trkpt lat="42.55302" lon="1.77644">
        <ele>2123.9</ele>
        <time>2020-02-14T01:55:58.653Z</time>
      </trkpt>
      <trkpt lat="42.55299" lon="1.77648">
        <ele>2124.5</ele>
        <time>2020-02-14T01:56:01.074Z</time>
      </trkpt>
      <trkpt lat="42.55295" lon="1.77652">
        <ele>2125.1</ele>
        <time>2020-02-14T01:56:03.340Z</time>
      </trkpt>
      <trkpt lat="42.55292" lon="1.77657">
        <ele>2125.4</ele>
        <time>2020-02-14T01:56:05.899Z</time>
      </trkpt>
      <trkpt lat="42.55288" lon="1.77665">
        <ele>2125.3</ele>
        <time>2020-02-14T01:56:09.221Z</time>
      </trkpt>
      <trkpt lat="42.55285" lon="1.77671">
        <ele>2124.9</ele>
        <time>2020-02-14T01:56:11.733Z</time>
      </trkpt>
      <trkpt lat="42.55281" lon="1.77677">
        <ele>2125.6</ele>
        <time>2020-02-14T01:56:14.680Z</time>
      </trkpt>
      <trkpt lat="42.55278" lon="1.77684">
        <ele>2126.1</ele>
        <time>2020-02-14T01:56:17.609Z</time>
      </trkpt>
      <trkpt lat="42.55275" lon="1.77692">
        <ele>2126.2</ele>
        <time>2020-02-14T01:56:20.671Z</time>
      </trkpt>
      <trkpt lat="42.55273" lon="1.77698">
        <ele>2126.1</ele>
        <time>2020-02-14T01:56:23.136Z</time>
      </trkpt>
      <trkpt lat="42.55272" lon="1.77705">
        <ele>2125.5</ele>
        <time>2020-02-14T01:56:25.809Z</time>
      </trkpt>
      <trkpt lat="42.55271" lon="1.77713">
        <ele>2124.6</ele>
        <time>2020-02-14T01:56:28.746Z</time>
      </trkpt>
      <trkpt lat="42.55269" lon="1.7772">
        <ele>2124.3</ele>
        <time>2020-02-14T01:56:31.298Z</time>
      </trkpt>
      <trkpt lat="42.55267" lon="1.77727">
        <ele>2124</ele>
        <time>2020-02-14T01:56:34.000Z</time>
      </trkpt>
      <trkpt lat="42.55266" lon="1.77734">
        <ele>2123.4</ele>
        <time>2020-02-14T01:56:36.824Z</time>
      </trkpt>
      <trkpt lat="42.55264" lon="1.77742">
        <ele>2122.9</ele>
        <time>2020-02-14T01:56:39.456Z</time>
      </trkpt>
      <trkpt lat="42.55262" lon="1.77749">
        <ele>2122.9</ele>
        <time>2020-02-14T01:56:42.567Z</time>
      </trkpt>
      <trkpt lat="42.55259" lon="1.77756">
        <ele>2123.1</ele>
        <time>2020-02-14T01:56:45.252Z</time>
      </trkpt>
      <trkpt lat="42.55257" lon="1.77764">
        <ele>2123.2</ele>
        <time>2020-02-14T01:56:48.243Z</time>
      </trkpt>
      <trkpt lat="42.55253" lon="1.7777">
        <ele>2123.9</ele>
        <time>2020-02-14T01:56:51.221Z</time>
      </trkpt>
      <trkpt lat="42.55249" lon="1.77776">
        <ele>2124.5</ele>
        <time>2020-02-14T01:56:54.042Z</time>
      </trkpt>
      <trkpt lat="42.55245" lon="1.77781">
        <ele>2125.5</ele>
        <time>2020-02-14T01:56:56.798Z</time>
      </trkpt>
      <trkpt lat="42.55241" lon="1.77786">
        <ele>2126.3</ele>
        <time>2020-02-14T01:56:59.275Z</time>
      </trkpt>
      <trkpt lat="42.55237" lon="1.77792">
        <ele>2127</ele>
        <time>2020-02-14T01:57:02.193Z</time>
      </trkpt>
      <trkpt lat="42.55234" lon="1.77799">
        <ele>2127.3</ele>
        <time>2020-02-14T01:57:05.127Z</time>
      </trkpt>
      <trkpt lat="42.55232" lon="1.77805">
        <ele>2127.2</ele>
        <time>2020-02-14T01:57:07.771Z</time>
      </trkpt>
      <trkpt lat="42.55229" lon="1.77812">
        <ele>2127</ele>
        <time>2020-02-14T01:57:10.494Z</time>
      </trkpt>
      <trkpt lat="42.55225" lon="1.77819">
        <ele>2127.3</ele>
        <time>2020-02-14T01:57:13.448Z</time>
      </trkpt>
      <trkpt lat="42.55222" lon="1.77823">
        <ele>2128</ele>
        <time>2020-02-14T01:57:15.680Z</time>
      </trkpt>
      <trkpt lat="42.55219" lon="1.77827">
        <ele>2128.3</ele>
        <time>2020-02-14T01:57:17.953Z</time>
      </trkpt>
      <trkpt lat="42.55217" lon="1.77833">
        <ele>2128.2</ele>
        <time>2020-02-14T01:57:20.135Z</time>
      </trkpt>
      <trkpt lat="42.55214" lon="1.77838">
        <ele>2128</ele>
        <time>2020-02-14T01:57:22.359Z</time>
      </trkpt>
      <trkpt lat="42.55212" lon="1.77843">
        <ele>2128.3</ele>
        <time>2020-02-14T01:57:24.732Z</time>
      </trkpt>
      <trkpt lat="42.55208" lon="1.77848">
        <ele>2128.7</ele>
        <time>2020-02-14T01:57:27.276Z</time>
      </trkpt>
      <trkpt lat="42.55206" lon="1.77854">
        <ele>2128.5</ele>
        <time>2020-02-14T01:57:29.548Z</time>
      </trkpt>
      <trkpt lat="42.55204" lon="1.77862">
        <ele>2128.2</ele>
        <time>2020-02-14T01:57:32.436Z</time>
      </trkpt>
      <trkpt lat="42.55201" lon="1.77869">
        <ele>2128.2</ele>
        <time>2020-02-14T01:57:35.280Z</time>
      </trkpt>
      <trkpt lat="42.55199" lon="1.77876">
        <ele>2127.9</ele>
        <time>2020-02-14T01:57:38.099Z</time>
      </trkpt>
      <trkpt lat="42.55196" lon="1.77883">
        <ele>2128</ele>
        <time>2020-02-14T01:57:41.066Z</time>
      </trkpt>
      <trkpt lat="42.55194" lon="1.77891">
        <ele>2127.9</ele>
        <time>2020-02-14T01:57:43.887Z</time>
      </trkpt>
      <trkpt lat="42.55191" lon="1.77898">
        <ele>2127.9</ele>
        <time>2020-02-14T01:57:46.786Z</time>
      </trkpt>
      <trkpt lat="42.5519" lon="1.77906">
        <ele>2127.5</ele>
        <time>2020-02-14T01:57:49.673Z</time>
      </trkpt>
      <trkpt lat="42.55188" lon="1.77914">
        <ele>2127.4</ele>
        <time>2020-02-14T01:57:52.656Z</time>
      </trkpt>
      <trkpt lat="42.55186" lon="1.77921">
        <ele>2127.6</ele>
        <time>2020-02-14T01:57:55.592Z</time>
      </trkpt>
      <trkpt lat="42.55184" lon="1.77929">
        <ele>2127.9</ele>
        <time>2020-02-14T01:57:58.609Z</time>
      </trkpt>
      <trkpt lat="42.55182" lon="1.77937">
        <ele>2128.1</ele>
        <time>2020-02-14T01:58:01.829Z</time>
      </trkpt>
      <trkpt lat="42.5518" lon="1.77945">
        <ele>2128.2</ele>
        <time>2020-02-14T01:58:04.665Z</time>
      </trkpt>
      <trkpt lat="42.55177" lon="1.77952">
        <ele>2128.7</ele>
        <time>2020-02-14T01:58:07.565Z</time>
      </trkpt>
      <trkpt lat="42.55174" lon="1.77959">
        <ele>2129.7</ele>
        <time>2020-02-14T01:58:10.408Z</time>
      </trkpt>
      <trkpt lat="42.55172" lon="1.77965">
        <ele>2130.2</ele>
        <time>2020-02-14T01:58:13.118Z</time>
      </trkpt>
      <trkpt lat="42.55168" lon="1.77972">
        <ele>2131.2</ele>
        <time>2020-02-14T01:58:16.042Z</time>
      </trkpt>
      <trkpt lat="42.55166" lon="1.77979">
        <ele>2131.5</ele>
        <time>2020-02-14T01:58:18.763Z</time>
      </trkpt>
      <trkpt lat="42.55164" lon="1.77986">
        <ele>2131.8</ele>
        <time>2020-02-14T01:58:21.425Z</time>
      </trkpt>
      <trkpt lat="42.55161" lon="1.77993">
        <ele>2132.8</ele>
        <time>2020-02-14T01:58:24.523Z</time>
      </trkpt>
      <trkpt lat="42.55157" lon="1.77999">
        <ele>2134.3</ele>
        <time>2020-02-14T01:58:27.480Z</time>
      </trkpt>
      <trkpt lat="42.55152" lon="1.78004">
        <ele>2135.7</ele>
        <time>2020-02-14T01:58:30.356Z</time>
      </trkpt>
      <trkpt lat="42.5515" lon="1.7801">
        <ele>2136.6</ele>
        <time>2020-02-14T01:58:32.711Z</time>
      </trkpt>
      <trkpt lat="42.55149" lon="1.78016">
        <ele>2136.8</ele>
        <time>2020-02-14T01:58:34.995Z</time>
      </trkpt>
      <trkpt lat="42.55148" lon="1.78025">
        <ele>2136.6</ele>
        <time>2020-02-14T01:58:38.319Z</time>
      </trkpt>
      <trkpt lat="42.55148" lon="1.78032">
        <ele>2136.3</ele>
        <time>2020-02-14T01:58:40.703Z</time>
      </trkpt>
      <trkpt lat="42.55148" lon="1.78039">
        <ele>2136.3</ele>
        <time>2020-02-14T01:58:43.190Z</time>
      </trkpt>
      <trkpt lat="42.55149" lon="1.78046">
        <ele>2136</ele>
        <time>2020-02-14T01:58:45.727Z</time>
      </trkpt>
      <trkpt lat="42.55149" lon="1.78054">
        <ele>2135.7</ele>
        <time>2020-02-14T01:58:48.742Z</time>
      </trkpt>
      <trkpt lat="42.55151" lon="1.78063">
        <ele>2135.1</ele>
        <time>2020-02-14T01:58:51.992Z</time>
      </trkpt>
      <trkpt lat="42.5515" lon="1.7807">
        <ele>2135.5</ele>
        <time>2020-02-14T01:58:54.903Z</time>
      </trkpt>
      <trkpt lat="42.5515" lon="1.78077">
        <ele>2135.3</ele>
        <time>2020-02-14T01:58:57.422Z</time>
      </trkpt>
      <trkpt lat="42.5515" lon="1.78085">
        <ele>2135.4</ele>
        <time>2020-02-14T01:58:59.973Z</time>
      </trkpt>
      <trkpt lat="42.5515" lon="1.78088">
        <ele>2135.4</ele>
        <time>2020-02-14T01:59:01.397Z</time>
      </trkpt>
      <trkpt lat="42.55153" lon="1.78096">
        <ele>2135.2</ele>
        <time>2020-02-14T01:59:04.419Z</time>
      </trkpt>
      <trkpt lat="42.55153" lon="1.78101">
        <ele>2135.4</ele>
        <time>2020-02-14T01:59:06.259Z</time>
      </trkpt>
      <trkpt lat="42.55155" lon="1.78105">
        <ele>2135.4</ele>
        <time>2020-02-14T01:59:07.973Z</time>
      </trkpt>
      <trkpt lat="42.5516" lon="1.78109">
        <ele>2134.6</ele>
        <time>2020-02-14T01:59:10.755Z</time>
      </trkpt>
      <trkpt lat="42.55164" lon="1.78116">
        <ele>2134.2</ele>
        <time>2020-02-14T01:59:13.863Z</time>
      </trkpt>
      <trkpt lat="42.55166" lon="1.78122">
        <ele>2134.3</ele>
        <time>2020-02-14T01:59:16.223Z</time>
      </trkpt>
      <trkpt lat="42.55169" lon="1.78127">
        <ele>2134.1</ele>
        <time>2020-02-14T01:59:18.696Z</time>
      </trkpt>
      <trkpt lat="42.55171" lon="1.78135">
        <ele>2134.3</ele>
        <time>2020-02-14T01:59:21.700Z</time>
      </trkpt>
      <trkpt lat="42.55175" lon="1.78142">
        <ele>2134.4</ele>
        <time>2020-02-14T01:59:25.055Z</time>
      </trkpt>
      <trkpt lat="42.5518" lon="1.78146">
        <ele>2133.9</ele>
        <time>2020-02-14T01:59:27.855Z</time>
      </trkpt>
      <trkpt lat="42.55186" lon="1.7815">
        <ele>2133.4</ele>
        <time>2020-02-14T01:59:30.774Z</time>
      </trkpt>
      <trkpt lat="42.5519" lon="1.78154">
        <ele>2133</ele>
        <time>2020-02-14T01:59:33.442Z</time>
      </trkpt>
      <trkpt lat="42.55196" lon="1.78156">
        <ele>2132.5</ele>
        <time>2020-02-14T01:59:36.128Z</time>
      </trkpt>
      <trkpt lat="42.55201" lon="1.7816">
        <ele>2132.2</ele>
        <time>2020-02-14T01:59:39.202Z</time>
      </trkpt>
      <trkpt lat="42.55206" lon="1.78165">
        <ele>2131.8</ele>
        <time>2020-02-14T01:59:42.150Z</time>
      </trkpt>
      <trkpt lat="42.55211" lon="1.7817">
        <ele>2131.7</ele>
        <time>2020-02-14T01:59:45.200Z</time>
      </trkpt>
      <trkpt lat="42.55216" lon="1.78174">
        <ele>2131.4</ele>
        <time>2020-02-14T01:59:47.930Z</time>
      </trkpt>
      <trkpt lat="42.5522" lon="1.7818">
        <ele>2131.3</ele>
        <time>2020-02-14T01:59:51.003Z</time>
      </trkpt>
      <trkpt lat="42.55223" lon="1.78187">
        <ele>2131.2</ele>
        <time>2020-02-14T01:59:53.724Z</time>
      </trkpt>
      <trkpt lat="42.55227" lon="1.78194">
        <ele>2131</ele>
        <time>2020-02-14T01:59:56.765Z</time>
      </trkpt>
      <trkpt lat="42.5523" lon="1.782">
        <ele>2130.8</ele>
        <time>2020-02-14T01:59:59.462Z</time>
      </trkpt>
      <trkpt lat="42.55232" lon="1.78206">
        <ele>2130.5</ele>
        <time>2020-02-14T02:00:02.027Z</time>
      </trkpt>
      <trkpt lat="42.55236" lon="1.78211">
        <ele>2130</ele>
        <time>2020-02-14T02:00:04.713Z</time>
      </trkpt>
      <trkpt lat="42.55239" lon="1.78217">
        <ele>2129.6</ele>
        <time>2020-02-14T02:00:07.381Z</time>
      </trkpt>
      <trkpt lat="42.55242" lon="1.78223">
        <ele>2129.4</ele>
        <time>2020-02-14T02:00:09.932Z</time>
      </trkpt>
      <trkpt lat="42.55245" lon="1.7823">
        <ele>2129.1</ele>
        <time>2020-02-14T02:00:12.609Z</time>
      </trkpt>
      <trkpt lat="42.5525" lon="1.78235">
        <ele>2128.4</ele>
        <time>2020-02-14T02:00:15.611Z</time>
      </trkpt>
      <trkpt lat="42.55253" lon="1.78241">
        <ele>2128</ele>
        <time>2020-02-14T02:00:18.279Z</time>
      </trkpt>
      <trkpt lat="42.55256" lon="1.78248">
        <ele>2127.5</ele>
        <time>2020-02-14T02:00:21.182Z</time>
      </trkpt>
      <trkpt lat="42.55259" lon="1.78255">
        <ele>2127.4</ele>
        <time>2020-02-14T02:00:23.881Z</time>
      </trkpt>
      <trkpt lat="42.55259" lon="1.78262">
        <ele>2127.6</ele>
        <time>2020-02-14T02:00:26.657Z</time>
      </trkpt>
      <trkpt lat="42.55261" lon="1.78268">
        <ele>2127.5</ele>
        <time>2020-02-14T02:00:28.833Z</time>
      </trkpt>
      <trkpt lat="42.55261" lon="1.78276">
        <ele>2127.9</ele>
        <time>2020-02-14T02:00:31.658Z</time>
      </trkpt>
      <trkpt lat="42.55264" lon="1.78286">
        <ele>2127.8</ele>
        <time>2020-02-14T02:00:35.432Z</time>
      </trkpt>
      <trkpt lat="42.55265" lon="1.78294">
        <ele>2128</ele>
        <time>2020-02-14T02:00:38.577Z</time>
      </trkpt>
      <trkpt lat="42.55265" lon="1.78302">
        <ele>2128.4</ele>
        <time>2020-02-14T02:00:41.366Z</time>
      </trkpt>
      <trkpt lat="42.55264" lon="1.78309">
        <ele>2128.8</ele>
        <time>2020-02-14T02:00:44.036Z</time>
      </trkpt>
      <trkpt lat="42.55263" lon="1.78316">
        <ele>2129.3</ele>
        <time>2020-02-14T02:00:46.601Z</time>
      </trkpt>
      <trkpt lat="42.55263" lon="1.78323">
        <ele>2129.6</ele>
        <time>2020-02-14T02:00:48.941Z</time>
      </trkpt>
      <trkpt lat="42.55262" lon="1.78331">
        <ele>2129.9</ele>
        <time>2020-02-14T02:00:51.819Z</time>
      </trkpt>
      <trkpt lat="42.55261" lon="1.78339">
        <ele>2130.1</ele>
        <time>2020-02-14T02:00:54.915Z</time>
      </trkpt>
      <trkpt lat="42.55264" lon="1.78346">
        <ele>2129.8</ele>
        <time>2020-02-14T02:00:57.572Z</time>
      </trkpt>
      <trkpt lat="42.5527" lon="1.78351">
        <ele>2129.2</ele>
        <time>2020-02-14T02:01:01.012Z</time>
      </trkpt>
      <trkpt lat="42.55274" lon="1.78355">
        <ele>2128.8</ele>
        <time>2020-02-14T02:01:03.468Z</time>
      </trkpt>
      <trkpt lat="42.55279" lon="1.78356">
        <ele>2128</ele>
        <time>2020-02-14T02:01:05.806Z</time>
      </trkpt>
      <trkpt lat="42.55284" lon="1.78356">
        <ele>2127.2</ele>
        <time>2020-02-14T02:01:08.369Z</time>
      </trkpt>
      <trkpt lat="42.55288" lon="1.78353">
        <ele>2126.5</ele>
        <time>2020-02-14T02:01:10.672Z</time>
      </trkpt>
      <trkpt lat="42.55292" lon="1.78355">
        <ele>2125.9</ele>
        <time>2020-02-14T02:01:12.990Z</time>
      </trkpt>
      <trkpt lat="42.55296" lon="1.78351">
        <ele>2125.2</ele>
        <time>2020-02-14T02:01:15.295Z</time>
      </trkpt>
      <trkpt lat="42.55301" lon="1.78354">
        <ele>2124.5</ele>
        <time>2020-02-14T02:01:17.978Z</time>
      </trkpt>
      <trkpt lat="42.55307" lon="1.78355">
        <ele>2123.7</ele>
        <time>2020-02-14T02:01:20.814Z</time>
      </trkpt>
      <trkpt lat="42.55311" lon="1.78359">
        <ele>2123.1</ele>
        <time>2020-02-14T02:01:23.542Z</time>
      </trkpt>
      <trkpt lat="42.55316" lon="1.78362">
        <ele>2122.6</ele>
        <time>2020-02-14T02:01:26.044Z</time>
      </trkpt>
      <trkpt lat="42.5532" lon="1.78367">
        <ele>2122</ele>
        <time>2020-02-14T02:01:28.696Z</time>
      </trkpt>
      <trkpt lat="42.55324" lon="1.78371">
        <ele>2121.6</ele>
        <time>2020-02-14T02:01:31.331Z</time>
      </trkpt>
      <trkpt lat="42.55329" lon="1.78377">
        <ele>2121.2</ele>
        <time>2020-02-14T02:01:34.431Z</time>
      </trkpt>
      <trkpt lat="42.55335" lon="1.78381">
        <ele>2120.7</ele>
        <time>2020-02-14T02:01:37.532Z</time>
      </trkpt>
      <trkpt lat="42.5534" lon="1.78386">
        <ele>2120.1</ele>
        <time>2020-02-14T02:01:40.788Z</time>
      </trkpt>
      <trkpt lat="42.55345" lon="1.78392">
        <ele>2119.8</ele>
        <time>2020-02-14T02:01:43.664Z</time>
      </trkpt>
      <trkpt lat="42.55349" lon="1.78396">
        <ele>2119.4</ele>
        <time>2020-02-14T02:01:46.346Z</time>
      </trkpt>
      <trkpt lat="42.55355" lon="1.78403">
        <ele>2119.1</ele>
        <time>2020-02-14T02:01:50.088Z</time>
      </trkpt>
      <trkpt lat="42.5536" lon="1.78409">
        <ele>2118.8</ele>
        <time>2020-02-14T02:01:53.275Z</time>
      </trkpt>
      <trkpt lat="42.55363" lon="1.78411">
        <ele>2118.5</ele>
        <time>2020-02-14T02:01:54.936Z</time>
      </trkpt>
      <trkpt lat="42.55368" lon="1.78415">
        <ele>2117.7</ele>
        <time>2020-02-14T02:01:58.149Z</time>
      </trkpt>
      <trkpt lat="42.55374" lon="1.78419">
        <ele>2116.9</ele>
        <time>2020-02-14T02:02:01.381Z</time>
      </trkpt>
      <trkpt lat="42.55381" lon="1.78419">
        <ele>2116.2</ele>
        <time>2020-02-14T02:02:04.612Z</time>
      </trkpt>
      <trkpt lat="42.55387" lon="1.7842">
        <ele>2115.3</ele>
        <time>2020-02-14T02:02:07.540Z</time>
      </trkpt>
      <trkpt lat="42.55391" lon="1.7842">
        <ele>2114.8</ele>
        <time>2020-02-14T02:02:09.757Z</time>
      </trkpt>
      <trkpt lat="42.55397" lon="1.78421">
        <ele>2114</ele>
        <time>2020-02-14T02:02:12.673Z</time>
      </trkpt>
      <trkpt lat="42.55403" lon="1.78424">
        <ele>2113.2</ele>
        <time>2020-02-14T02:02:15.567Z</time>
      </trkpt>
      <trkpt lat="42.55408" lon="1.78424">
        <ele>2112.6</ele>
        <time>2020-02-14T02:02:18.117Z</time>
      </trkpt>
      <trkpt lat="42.55414" lon="1.78426">
        <ele>2111.8</ele>
        <time>2020-02-14T02:02:21.106Z</time>
      </trkpt>
      <trkpt lat="42.5542" lon="1.78428">
        <ele>2111.1</ele>
        <time>2020-02-14T02:02:24.014Z</time>
      </trkpt>
      <trkpt lat="42.55426" lon="1.78432">
        <ele>2110.1</ele>
        <time>2020-02-14T02:02:27.330Z</time>
      </trkpt>
      <trkpt lat="42.55431" lon="1.78435">
        <ele>2109.5</ele>
        <time>2020-02-14T02:02:30.083Z</time>
      </trkpt>
      <trkpt lat="42.55437" lon="1.78438">
        <ele>2108.6</ele>
        <time>2020-02-14T02:02:33.187Z</time>
      </trkpt>
      <trkpt lat="42.55442" lon="1.78442">
        <ele>2107.9</ele>
        <time>2020-02-14T02:02:35.972Z</time>
      </trkpt>
      <trkpt lat="42.55447" lon="1.78449">
        <ele>2107.3</ele>
        <time>2020-02-14T02:02:39.622Z</time>
      </trkpt>
      <trkpt lat="42.5545" lon="1.78455">
        <ele>2106.7</ele>
        <time>2020-02-14T02:02:42.271Z</time>
      </trkpt>
      <trkpt lat="42.55454" lon="1.7846">
        <ele>2106.1</ele>
        <time>2020-02-14T02:02:45.071Z</time>
      </trkpt>
      <trkpt lat="42.55459" lon="1.78464">
        <ele>2105.4</ele>
        <time>2020-02-14T02:02:47.869Z</time>
      </trkpt>
      <trkpt lat="42.55461" lon="1.78472">
        <ele>2104.8</ele>
        <time>2020-02-14T02:02:50.962Z</time>
      </trkpt>
      <trkpt lat="42.55463" lon="1.78479">
        <ele>2104.4</ele>
        <time>2020-02-14T02:02:53.668Z</time>
      </trkpt>
      <trkpt lat="42.55466" lon="1.78485">
        <ele>2103.8</ele>
        <time>2020-02-14T02:02:56.086Z</time>
      </trkpt>
      <trkpt lat="42.55468" lon="1.78492">
        <ele>2103.3</ele>
        <time>2020-02-14T02:02:58.924Z</time>
      </trkpt>
      <trkpt lat="42.5547" lon="1.78499">
        <ele>2102.7</ele>
        <time>2020-02-14T02:03:01.744Z</time>
      </trkpt>
      <trkpt lat="42.5547" lon="1.78499">
        <ele>2102.8</ele>
        <time>2020-02-14T02:03:01.755Z</time>
      </trkpt>
      <trkpt lat="42.55474" lon="1.78506">
        <ele>2102.2</ele>
        <time>2020-02-14T02:03:04.487Z</time>
      </trkpt>
      <trkpt lat="42.55477" lon="1.78513">
        <ele>2101.4</ele>
        <time>2020-02-14T02:03:07.597Z</time>
      </trkpt>
      <trkpt lat="42.55481" lon="1.7852">
        <ele>2100.8</ele>
        <time>2020-02-14T02:03:10.790Z</time>
      </trkpt>
      <trkpt lat="42.55485" lon="1.78526">
        <ele>2100.1</ele>
        <time>2020-02-14T02:03:13.818Z</time>
      </trkpt>
      <trkpt lat="42.55488" lon="1.78532">
        <ele>2099.5</ele>
        <time>2020-02-14T02:03:16.237Z</time>
      </trkpt>
      <trkpt lat="42.55491" lon="1.78539">
        <ele>2099.1</ele>
        <time>2020-02-14T02:03:19.175Z</time>
      </trkpt>
      <trkpt lat="42.55495" lon="1.78546">
        <ele>2098.3</ele>
        <time>2020-02-14T02:03:22.523Z</time>
      </trkpt>
      <trkpt lat="42.55498" lon="1.78552">
        <ele>2097.8</ele>
        <time>2020-02-14T02:03:24.967Z</time>
      </trkpt>
      <trkpt lat="42.55499" lon="1.78558">
        <ele>2097.7</ele>
        <time>2020-02-14T02:03:27.262Z</time>
      </trkpt>
      <trkpt lat="42.55502" lon="1.78564">
        <ele>2097.3</ele>
        <time>2020-02-14T02:03:29.675Z</time>
      </trkpt>
      <trkpt lat="42.55505" lon="1.78571">
        <ele>2096.8</ele>
        <time>2020-02-14T02:03:32.558Z</time>
      </trkpt>
      <trkpt lat="42.55507" lon="1.78577">
        <ele>2096.5</ele>
        <time>2020-02-14T02:03:35.283Z</time>
      </trkpt>
      <trkpt lat="42.5551" lon="1.78585">
        <ele>2095.9</ele>
        <time>2020-02-14T02:03:38.174Z</time>
      </trkpt>
      <trkpt lat="42.55512" lon="1.78592">
        <ele>2095.4</ele>
        <time>2020-02-14T02:03:41.150Z</time>
      </trkpt>
      <trkpt lat="42.55516" lon="1.786">
        <ele>2094.4</ele>
        <time>2020-02-14T02:03:44.546Z</time>
      </trkpt>
      <trkpt lat="42.5552" lon="1.78608">
        <ele>2093.3</ele>
        <time>2020-02-14T02:03:47.908Z</time>
      </trkpt>
      <trkpt lat="42.55523" lon="1.78615">
        <ele>2092.5</ele>
        <time>2020-02-14T02:03:50.946Z</time>
      </trkpt>
      <trkpt lat="42.55525" lon="1.78623">
        <ele>2091.7</ele>
        <time>2020-02-14T02:03:54.017Z</time>
      </trkpt>
      <trkpt lat="42.55528" lon="1.7863">
        <ele>2090.7</ele>
        <time>2020-02-14T02:03:57.029Z</time>
      </trkpt>
      <trkpt lat="42.55531" lon="1.78638">
        <ele>2089.8</ele>
        <time>2020-02-14T02:04:00.189Z</time>
      </trkpt>
      <trkpt lat="42.55534" lon="1.78646">
        <ele>2088.9</ele>
        <time>2020-02-14T02:04:03.334Z</time>
      </trkpt>
      <trkpt lat="42.55536" lon="1.78653">
        <ele>2088.4</ele>
        <time>2020-02-14T02:04:06.138Z</time>
      </trkpt>
      <trkpt lat="42.55538" lon="1.78661">
        <ele>2087.5</ele>
        <time>2020-02-14T02:04:09.296Z</time>
      </trkpt>
      <trkpt lat="42.5554" lon="1.7867">
        <ele>2086.8</ele>
        <time>2020-02-14T02:04:12.649Z</time>
      </trkpt>
      <trkpt lat="42.55543" lon="1.78678">
        <ele>2086</ele>
        <time>2020-02-14T02:04:15.699Z</time>
      </trkpt>
      <trkpt lat="42.55546" lon="1.78686">
        <ele>2085.2</ele>
        <time>2020-02-14T02:04:19.005Z</time>
      </trkpt>
      <trkpt lat="42.55547" lon="1.78694">
        <ele>2084.5</ele>
        <time>2020-02-14T02:04:22.055Z</time>
      </trkpt>
      <trkpt lat="42.55549" lon="1.78701">
        <ele>2083.7</ele>
        <time>2020-02-14T02:04:24.721Z</time>
      </trkpt>
      <trkpt lat="42.5555" lon="1.7871">
        <ele>2083.1</ele>
        <time>2020-02-14T02:04:27.810Z</time>
      </trkpt>
      <trkpt lat="42.55552" lon="1.78717">
        <ele>2082.4</ele>
        <time>2020-02-14T02:04:30.763Z</time>
      </trkpt>
      <trkpt lat="42.55554" lon="1.78725">
        <ele>2081.5</ele>
        <time>2020-02-14T02:04:33.708Z</time>
      </trkpt>
      <trkpt lat="42.55555" lon="1.78733">
        <ele>2080.9</ele>
        <time>2020-02-14T02:04:36.819Z</time>
      </trkpt>
      <trkpt lat="42.55556" lon="1.78741">
        <ele>2080.2</ele>
        <time>2020-02-14T02:04:39.489Z</time>
      </trkpt>
      <trkpt lat="42.55558" lon="1.78748">
        <ele>2079.4</ele>
        <time>2020-02-14T02:04:42.163Z</time>
      </trkpt>
      <trkpt lat="42.55559" lon="1.78756">
        <ele>2078.8</ele>
        <time>2020-02-14T02:04:45.355Z</time>
      </trkpt>
      <trkpt lat="42.55559" lon="1.78765">
        <ele>2078.2</ele>
        <time>2020-02-14T02:04:48.563Z</time>
      </trkpt>
      <trkpt lat="42.55558" lon="1.78774">
        <ele>2077.8</ele>
        <time>2020-02-14T02:04:51.705Z</time>
      </trkpt>
      <trkpt lat="42.55557" lon="1.78783">
        <ele>2077.4</ele>
        <time>2020-02-14T02:04:54.884Z</time>
      </trkpt>
      <trkpt lat="42.55557" lon="1.78791">
        <ele>2076.7</ele>
        <time>2020-02-14T02:04:57.808Z</time>
      </trkpt>
      <trkpt lat="42.55556" lon="1.78801">
        <ele>2076.2</ele>
        <time>2020-02-14T02:05:01.451Z</time>
      </trkpt>
      <trkpt lat="42.55553" lon="1.78807">
        <ele>2075.9</ele>
        <time>2020-02-14T02:05:04.221Z</time>
      </trkpt>
      <trkpt lat="42.55549" lon="1.78812">
        <ele>2075.9</ele>
        <time>2020-02-14T02:05:06.873Z</time>
      </trkpt>
      <trkpt lat="42.55543" lon="1.78814">
        <ele>2076.3</ele>
        <time>2020-02-14T02:05:09.668Z</time>
      </trkpt>
      <trkpt lat="42.55537" lon="1.78815">
        <ele>2076.8</ele>
        <time>2020-02-14T02:05:12.748Z</time>
      </trkpt>
      <trkpt lat="42.55531" lon="1.78816">
        <ele>2077.5</ele>
        <time>2020-02-14T02:05:15.592Z</time>
      </trkpt>
      <trkpt lat="42.55525" lon="1.78817">
        <ele>2077.9</ele>
        <time>2020-02-14T02:05:18.547Z</time>
      </trkpt>
      <trkpt lat="42.5552" lon="1.78816">
        <ele>2078.5</ele>
        <time>2020-02-14T02:05:21.002Z</time>
      </trkpt>
      <trkpt lat="42.55516" lon="1.78817">
        <ele>2078.9</ele>
        <time>2020-02-14T02:05:23.303Z</time>
      </trkpt>
      <trkpt lat="42.5551" lon="1.78816">
        <ele>2079.5</ele>
        <time>2020-02-14T02:05:25.875Z</time>
      </trkpt>
      <trkpt lat="42.55505" lon="1.78817">
        <ele>2079.8</ele>
        <time>2020-02-14T02:05:28.364Z</time>
      </trkpt>
      <trkpt lat="42.555" lon="1.78818">
        <ele>2080</ele>
        <time>2020-02-14T02:05:30.900Z</time>
      </trkpt>
      <trkpt lat="42.55495" lon="1.78821">
        <ele>2080.1</ele>
        <time>2020-02-14T02:05:33.714Z</time>
      </trkpt>
      <trkpt lat="42.5549" lon="1.78822">
        <ele>2080.1</ele>
        <time>2020-02-14T02:05:36.217Z</time>
      </trkpt>
      <trkpt lat="42.55485" lon="1.78826">
        <ele>2080</ele>
        <time>2020-02-14T02:05:38.819Z</time>
      </trkpt>
      <trkpt lat="42.55486" lon="1.78832">
        <ele>2079</ele>
        <time>2020-02-14T02:05:41.084Z</time>
      </trkpt>
      <trkpt lat="42.55488" lon="1.78839">
        <ele>2078</ele>
        <time>2020-02-14T02:05:43.582Z</time>
      </trkpt>
      <trkpt lat="42.55493" lon="1.78841">
        <ele>2077.3</ele>
        <time>2020-02-14T02:05:46.288Z</time>
      </trkpt>
      <trkpt lat="42.55499" lon="1.78842">
        <ele>2076.8</ele>
        <time>2020-02-14T02:05:48.948Z</time>
      </trkpt>
      <trkpt lat="42.55505" lon="1.78844">
        <ele>2076.3</ele>
        <time>2020-02-14T02:05:51.899Z</time>
      </trkpt>
      <trkpt lat="42.55511" lon="1.78847">
        <ele>2075.2</ele>
        <time>2020-02-14T02:05:55.234Z</time>
      </trkpt>
      <trkpt lat="42.55516" lon="1.78853">
        <ele>2074.1</ele>
        <time>2020-02-14T02:05:58.417Z</time>
      </trkpt>
      <trkpt lat="42.55522" lon="1.78857">
        <ele>2073.1</ele>
        <time>2020-02-14T02:06:01.704Z</time>
      </trkpt>
      <trkpt lat="42.55526" lon="1.78859">
        <ele>2072.7</ele>
        <time>2020-02-14T02:06:04.118Z</time>
      </trkpt>
      <trkpt lat="42.55531" lon="1.78863">
        <ele>2071.8</ele>
        <time>2020-02-14T02:06:06.704Z</time>
      </trkpt>
      <trkpt lat="42.55534" lon="1.78868">
        <ele>2071.2</ele>
        <time>2020-02-14T02:06:09.026Z</time>
      </trkpt>
      <trkpt lat="42.55539" lon="1.78871">
        <ele>2070.6</ele>
        <time>2020-02-14T02:06:11.580Z</time>
      </trkpt>
      <trkpt lat="42.55543" lon="1.78877">
        <ele>2069.6</ele>
        <time>2020-02-14T02:06:14.423Z</time>
      </trkpt>
      <trkpt lat="42.55547" lon="1.78882">
        <ele>2068.9</ele>
        <time>2020-02-14T02:06:17.141Z</time>
      </trkpt>
      <trkpt lat="42.55551" lon="1.78886">
        <ele>2068.3</ele>
        <time>2020-02-14T02:06:19.515Z</time>
      </trkpt>
      <trkpt lat="42.55557" lon="1.7889">
        <ele>2067.7</ele>
        <time>2020-02-14T02:06:22.731Z</time>
      </trkpt>
      <trkpt lat="42.55562" lon="1.78894">
        <ele>2066.9</ele>
        <time>2020-02-14T02:06:25.775Z</time>
      </trkpt>
      <trkpt lat="42.55567" lon="1.789">
        <ele>2065.9</ele>
        <time>2020-02-14T02:06:29.111Z</time>
      </trkpt>
      <trkpt lat="42.55574" lon="1.78904">
        <ele>2065</ele>
        <time>2020-02-14T02:06:32.825Z</time>
      </trkpt>
      <trkpt lat="42.5558" lon="1.78909">
        <ele>2064.3</ele>
        <time>2020-02-14T02:06:36.088Z</time>
      </trkpt>
      <trkpt lat="42.55585" lon="1.78912">
        <ele>2063.7</ele>
        <time>2020-02-14T02:06:39.105Z</time>
      </trkpt>
      <trkpt lat="42.55589" lon="1.78918">
        <ele>2063.1</ele>
        <time>2020-02-14T02:06:41.947Z</time>
      </trkpt>
      <trkpt lat="42.55595" lon="1.78921">
        <ele>2062.5</ele>
        <time>2020-02-14T02:06:45.239Z</time>
      </trkpt>
      <trkpt lat="42.55601" lon="1.78925">
        <ele>2061.6</ele>
        <time>2020-02-14T02:06:48.578Z</time>
      </trkpt>
      <trkpt lat="42.55608" lon="1.78928">
        <ele>2060.7</ele>
        <time>2020-02-14T02:06:52.052Z</time>
      </trkpt>
      <trkpt lat="42.55613" lon="1.7893">
        <ele>2060</ele>
        <time>2020-02-14T02:06:54.591Z</time>
      </trkpt>
      <trkpt lat="42.55619" lon="1.78932">
        <ele>2059.2</ele>
        <time>2020-02-14T02:06:57.730Z</time>
      </trkpt>
      <trkpt lat="42.55625" lon="1.78934">
        <ele>2058.6</ele>
        <time>2020-02-14T02:07:00.601Z</time>
      </trkpt>
      <trkpt lat="42.5563" lon="1.78937">
        <ele>2057.9</ele>
        <time>2020-02-14T02:07:03.351Z</time>
      </trkpt>
      <trkpt lat="42.55637" lon="1.78941">
        <ele>2057</ele>
        <time>2020-02-14T02:07:06.962Z</time>
      </trkpt>
      <trkpt lat="42.55641" lon="1.78944">
        <ele>2056.4</ele>
        <time>2020-02-14T02:07:09.400Z</time>
      </trkpt>
      <trkpt lat="42.55646" lon="1.78948">
        <ele>2055.7</ele>
        <time>2020-02-14T02:07:12.400Z</time>
      </trkpt>
      <trkpt lat="42.55653" lon="1.7895">
        <ele>2054.9</ele>
        <time>2020-02-14T02:07:15.592Z</time>
      </trkpt>
      <trkpt lat="42.55659" lon="1.78953">
        <ele>2054</ele>
        <time>2020-02-14T02:07:18.814Z</time>
      </trkpt>
      <trkpt lat="42.55665" lon="1.78957">
        <ele>2053.2</ele>
        <time>2020-02-14T02:07:22.146Z</time>
      </trkpt>
      <trkpt lat="42.55671" lon="1.78961">
        <ele>2052.3</ele>
        <time>2020-02-14T02:07:25.253Z</time>
      </trkpt>
      <trkpt lat="42.55676" lon="1.78964">
        <ele>2051.6</ele>
        <time>2020-02-14T02:07:28.244Z</time>
      </trkpt>
      <trkpt lat="42.55682" lon="1.78967">
        <ele>2050.9</ele>
        <time>2020-02-14T02:07:31.416Z</time>
      </trkpt>
      <trkpt lat="42.55689" lon="1.7897">
        <ele>2050.2</ele>
        <time>2020-02-14T02:07:34.627Z</time>
      </trkpt>
      <trkpt lat="42.55694" lon="1.78971">
        <ele>2049.7</ele>
        <time>2020-02-14T02:07:37.261Z</time>
      </trkpt>
      <trkpt lat="42.557" lon="1.78975">
        <ele>2048.9</ele>
        <time>2020-02-14T02:07:40.362Z</time>
      </trkpt>
      <trkpt lat="42.55705" lon="1.78979">
        <ele>2048.3</ele>
        <time>2020-02-14T02:07:43.493Z</time>
      </trkpt>
      <trkpt lat="42.55709" lon="1.78986">
        <ele>2047.8</ele>
        <time>2020-02-14T02:07:46.478Z</time>
      </trkpt>
      <trkpt lat="42.55713" lon="1.78993">
        <ele>2047.2</ele>
        <time>2020-02-14T02:07:49.803Z</time>
      </trkpt>
      <trkpt lat="42.55717" lon="1.78999">
        <ele>2046.9</ele>
        <time>2020-02-14T02:07:52.753Z</time>
      </trkpt>
      <trkpt lat="42.5572" lon="1.79007">
        <ele>2046.8</ele>
        <time>2020-02-14T02:07:55.864Z</time>
      </trkpt>
      <trkpt lat="42.55725" lon="1.79014">
        <ele>2046.4</ele>
        <time>2020-02-14T02:07:59.055Z</time>
      </trkpt>
      <trkpt lat="42.55728" lon="1.79021">
        <ele>2045.9</ele>
        <time>2020-02-14T02:08:02.323Z</time>
      </trkpt>
      <trkpt lat="42.55731" lon="1.79028">
        <ele>2045.5</ele>
        <time>2020-02-14T02:08:05.076Z</time>
      </trkpt>
      <trkpt lat="42.55734" lon="1.79034">
        <ele>2045.3</ele>
        <time>2020-02-14T02:08:07.830Z</time>
      </trkpt>
      <trkpt lat="42.55737" lon="1.79042">
        <ele>2045.1</ele>
        <time>2020-02-14T02:08:11.089Z</time>
      </trkpt>
      <trkpt lat="42.55739" lon="1.79051">
        <ele>2045</ele>
        <time>2020-02-14T02:08:14.159Z</time>
      </trkpt>
      <trkpt lat="42.5574" lon="1.79058">
        <ele>2045</ele>
        <time>2020-02-14T02:08:16.952Z</time>
      </trkpt>
      <trkpt lat="42.55742" lon="1.79066">
        <ele>2044.6</ele>
        <time>2020-02-14T02:08:19.927Z</time>
      </trkpt>
      <trkpt lat="42.55745" lon="1.79072">
        <ele>2044.4</ele>
        <time>2020-02-14T02:08:22.531Z</time>
      </trkpt>
      <trkpt lat="42.55748" lon="1.79079">
        <ele>2044</ele>
        <time>2020-02-14T02:08:25.663Z</time>
      </trkpt>
      <trkpt lat="42.55753" lon="1.79085">
        <ele>2043.6</ele>
        <time>2020-02-14T02:08:28.508Z</time>
      </trkpt>
      <trkpt lat="42.55757" lon="1.7909">
        <ele>2043.4</ele>
        <time>2020-02-14T02:08:31.439Z</time>
      </trkpt>
      <trkpt lat="42.55762" lon="1.79095">
        <ele>2043</ele>
        <time>2020-02-14T02:08:34.417Z</time>
      </trkpt>
      <trkpt lat="42.55768" lon="1.79101">
        <ele>2042.7</ele>
        <time>2020-02-14T02:08:37.953Z</time>
      </trkpt>
      <trkpt lat="42.55774" lon="1.79106">
        <ele>2042.3</ele>
        <time>2020-02-14T02:08:41.267Z</time>
      </trkpt>
      <trkpt lat="42.55778" lon="1.7911">
        <ele>2041.9</ele>
        <time>2020-02-14T02:08:43.851Z</time>
      </trkpt>
      <trkpt lat="42.55784" lon="1.79115">
        <ele>2041.4</ele>
        <time>2020-02-14T02:08:47.104Z</time>
      </trkpt>
      <trkpt lat="42.55788" lon="1.79121">
        <ele>2041</ele>
        <time>2020-02-14T02:08:50.059Z</time>
      </trkpt>
      <trkpt lat="42.55794" lon="1.79127">
        <ele>2040.5</ele>
        <time>2020-02-14T02:08:53.645Z</time>
      </trkpt>
      <trkpt lat="42.55798" lon="1.79132">
        <ele>2040.1</ele>
        <time>2020-02-14T02:08:56.577Z</time>
      </trkpt>
      <trkpt lat="42.55802" lon="1.79138">
        <ele>2039.7</ele>
        <time>2020-02-14T02:08:59.490Z</time>
      </trkpt>
      <trkpt lat="42.55807" lon="1.79144">
        <ele>2039.2</ele>
        <time>2020-02-14T02:09:02.546Z</time>
      </trkpt>
      <trkpt lat="42.5581" lon="1.79151">
        <ele>2039</ele>
        <time>2020-02-14T02:09:05.479Z</time>
      </trkpt>
      <trkpt lat="42.55814" lon="1.79157">
        <ele>2038.4</ele>
        <time>2020-02-14T02:09:08.566Z</time>
      </trkpt>
      <trkpt lat="42.55818" lon="1.79164">
        <ele>2038.1</ele>
        <time>2020-02-14T02:09:11.579Z</time>
      </trkpt>
      <trkpt lat="42.55822" lon="1.7917">
        <ele>2037.7</ele>
        <time>2020-02-14T02:09:14.780Z</time>
      </trkpt>
      <trkpt lat="42.55827" lon="1.79177">
        <ele>2037.2</ele>
        <time>2020-02-14T02:09:17.831Z</time>
      </trkpt>
      <trkpt lat="42.55832" lon="1.79181">
        <ele>2036.9</ele>
        <time>2020-02-14T02:09:20.923Z</time>
      </trkpt>
      <trkpt lat="42.55834" lon="1.79184">
        <ele>2036.8</ele>
        <time>2020-02-14T02:09:22.580Z</time>
      </trkpt>
      <trkpt lat="42.5584" lon="1.79188">
        <ele>2036.5</ele>
        <time>2020-02-14T02:09:25.486Z</time>
      </trkpt>
      <trkpt lat="42.55844" lon="1.79192">
        <ele>2036.3</ele>
        <time>2020-02-14T02:09:27.942Z</time>
      </trkpt>
      <trkpt lat="42.5585" lon="1.79195">
        <ele>2036</ele>
        <time>2020-02-14T02:09:31.311Z</time>
      </trkpt>
      <trkpt lat="42.55857" lon="1.79197">
        <ele>2035.8</ele>
        <time>2020-02-14T02:09:34.410Z</time>
      </trkpt>
      <trkpt lat="42.55862" lon="1.79201">
        <ele>2035.4</ele>
        <time>2020-02-14T02:09:37.331Z</time>
      </trkpt>
      <trkpt lat="42.55868" lon="1.79205">
        <ele>2035.1</ele>
        <time>2020-02-14T02:09:40.774Z</time>
      </trkpt>
      <trkpt lat="42.55873" lon="1.7921">
        <ele>2034.8</ele>
        <time>2020-02-14T02:09:43.658Z</time>
      </trkpt>
      <trkpt lat="42.55878" lon="1.79215">
        <ele>2034.6</ele>
        <time>2020-02-14T02:09:46.773Z</time>
      </trkpt>
      <trkpt lat="42.55883" lon="1.79221">
        <ele>2034.1</ele>
        <time>2020-02-14T02:09:49.799Z</time>
      </trkpt>
      <trkpt lat="42.55887" lon="1.79227">
        <ele>2033.8</ele>
        <time>2020-02-14T02:09:52.643Z</time>
      </trkpt>
      <trkpt lat="42.5589" lon="1.79233">
        <ele>2033.5</ele>
        <time>2020-02-14T02:09:55.506Z</time>
      </trkpt>
      <trkpt lat="42.55893" lon="1.79242">
        <ele>2033.2</ele>
        <time>2020-02-14T02:09:59.024Z</time>
      </trkpt>
      <trkpt lat="42.55896" lon="1.7925">
        <ele>2032.8</ele>
        <time>2020-02-14T02:10:02.028Z</time>
      </trkpt>
      <trkpt lat="42.55897" lon="1.79257">
        <ele>2032.5</ele>
        <time>2020-02-14T02:10:04.925Z</time>
      </trkpt>
      <trkpt lat="42.55898" lon="1.79266">
        <ele>2032.2</ele>
        <time>2020-02-14T02:10:08.026Z</time>
      </trkpt>
      <trkpt lat="42.55896" lon="1.79274">
        <ele>2032.1</ele>
        <time>2020-02-14T02:10:11.044Z</time>
      </trkpt>
      <trkpt lat="42.55896" lon="1.79281">
        <ele>2031.7</ele>
        <time>2020-02-14T02:10:13.594Z</time>
      </trkpt>
      <trkpt lat="42.55897" lon="1.7929">
        <ele>2031.4</ele>
        <time>2020-02-14T02:10:16.808Z</time>
      </trkpt>
      <trkpt lat="42.55897" lon="1.79298">
        <ele>2031.2</ele>
        <time>2020-02-14T02:10:19.620Z</time>
      </trkpt>
      <trkpt lat="42.55899" lon="1.79306">
        <ele>2030.9</ele>
        <time>2020-02-14T02:10:22.559Z</time>
      </trkpt>
      <trkpt lat="42.55902" lon="1.79314">
        <ele>2030.4</ele>
        <time>2020-02-14T02:10:25.799Z</time>
      </trkpt>
      <trkpt lat="42.55902" lon="1.79321">
        <ele>2030.2</ele>
        <time>2020-02-14T02:10:28.221Z</time>
      </trkpt>
      <trkpt lat="42.55903" lon="1.79328">
        <ele>2029.9</ele>
        <time>2020-02-14T02:10:30.753Z</time>
      </trkpt>
      <trkpt lat="42.55904" lon="1.79335">
        <ele>2029.7</ele>
        <time>2020-02-14T02:10:33.533Z</time>
      </trkpt>
      <trkpt lat="42.55905" lon="1.79343">
        <ele>2029.4</ele>
        <time>2020-02-14T02:10:36.242Z</time>
      </trkpt>
      <trkpt lat="42.55907" lon="1.7935">
        <ele>2029</ele>
        <time>2020-02-14T02:10:38.857Z</time>
      </trkpt>
      <trkpt lat="42.55909" lon="1.79357">
        <ele>2028.7</ele>
        <time>2020-02-14T02:10:41.635Z</time>
      </trkpt>
      <trkpt lat="42.55909" lon="1.79365">
        <ele>2028.3</ele>
        <time>2020-02-14T02:10:44.569Z</time>
      </trkpt>
      <trkpt lat="42.55909" lon="1.79372">
        <ele>2027.8</ele>
        <time>2020-02-14T02:10:47.056Z</time>
      </trkpt>
      <trkpt lat="42.55911" lon="1.7938">
        <ele>2027.5</ele>
        <time>2020-02-14T02:10:50.091Z</time>
      </trkpt>
      <trkpt lat="42.55912" lon="1.79389">
        <ele>2027</ele>
        <time>2020-02-14T02:10:53.299Z</time>
      </trkpt>
      <trkpt lat="42.55913" lon="1.79397">
        <ele>2026.6</ele>
        <time>2020-02-14T02:10:56.234Z</time>
      </trkpt>
      <trkpt lat="42.55915" lon="1.79404">
        <ele>2026.3</ele>
        <time>2020-02-14T02:10:58.990Z</time>
      </trkpt>
      <trkpt lat="42.55916" lon="1.79412">
        <ele>2025.9</ele>
        <time>2020-02-14T02:11:01.873Z</time>
      </trkpt>
      <trkpt lat="42.55917" lon="1.7942">
        <ele>2025.4</ele>
        <time>2020-02-14T02:11:05.060Z</time>
      </trkpt>
      <trkpt lat="42.55917" lon="1.7943">
        <ele>2025</ele>
        <time>2020-02-14T02:11:08.484Z</time>
      </trkpt>
      <trkpt lat="42.55918" lon="1.79438">
        <ele>2024.3</ele>
        <time>2020-02-14T02:11:11.642Z</time>
      </trkpt>
      <trkpt lat="42.55918" lon="1.79447">
        <ele>2023.9</ele>
        <time>2020-02-14T02:11:14.598Z</time>
      </trkpt>
      <trkpt lat="42.55918" lon="1.79455">
        <ele>2023.3</ele>
        <time>2020-02-14T02:11:17.664Z</time>
      </trkpt>
      <trkpt lat="42.55917" lon="1.79463">
        <ele>2022.7</ele>
        <time>2020-02-14T02:11:20.510Z</time>
      </trkpt>
      <trkpt lat="42.55917" lon="1.79471">
        <ele>2022</ele>
        <time>2020-02-14T02:11:23.434Z</time>
      </trkpt>
      <trkpt lat="42.55917" lon="1.7948">
        <ele>2021.4</ele>
        <time>2020-02-14T02:11:26.501Z</time>
      </trkpt>
      <trkpt lat="42.55916" lon="1.79488">
        <ele>2020.8</ele>
        <time>2020-02-14T02:11:29.421Z</time>
      </trkpt>
      <trkpt lat="42.55916" lon="1.79496">
        <ele>2020.3</ele>
        <time>2020-02-14T02:11:32.486Z</time>
      </trkpt>
      <trkpt lat="42.55916" lon="1.79505">
        <ele>2019.7</ele>
        <time>2020-02-14T02:11:35.668Z</time>
      </trkpt>
      <trkpt lat="42.55917" lon="1.79514">
        <ele>2019.1</ele>
        <time>2020-02-14T02:11:38.990Z</time>
      </trkpt>
      <trkpt lat="42.55917" lon="1.79522">
        <ele>2018.6</ele>
        <time>2020-02-14T02:11:41.789Z</time>
      </trkpt>
      <trkpt lat="42.55918" lon="1.79529">
        <ele>2018</ele>
        <time>2020-02-14T02:11:44.594Z</time>
      </trkpt>
      <trkpt lat="42.55918" lon="1.79538">
        <ele>2017.2</ele>
        <time>2020-02-14T02:11:47.738Z</time>
      </trkpt>
      <trkpt lat="42.5592" lon="1.79547">
        <ele>2016.4</ele>
        <time>2020-02-14T02:11:51.006Z</time>
      </trkpt>
      <trkpt lat="42.5592" lon="1.79555">
        <ele>2015.7</ele>
        <time>2020-02-14T02:11:53.956Z</time>
      </trkpt>
      <trkpt lat="42.55922" lon="1.79563">
        <ele>2015.1</ele>
        <time>2020-02-14T02:11:56.918Z</time>
      </trkpt>
      <trkpt lat="42.55923" lon="1.79571">
        <ele>2014.5</ele>
        <time>2020-02-14T02:11:59.792Z</time>
      </trkpt>
      <trkpt lat="42.55924" lon="1.7958">
        <ele>2013.9</ele>
        <time>2020-02-14T02:12:03.145Z</time>
      </trkpt>
      <trkpt lat="42.55924" lon="1.7959">
        <ele>2013.1</ele>
        <time>2020-02-14T02:12:06.541Z</time>
      </trkpt>
      <trkpt lat="42.55924" lon="1.79598">
        <ele>2012.5</ele>
        <time>2020-02-14T02:12:09.571Z</time>
      </trkpt>
      <trkpt lat="42.55923" lon="1.79607">
        <ele>2011.8</ele>
        <time>2020-02-14T02:12:12.862Z</time>
      </trkpt>
      <trkpt lat="42.55923" lon="1.79615">
        <ele>2011</ele>
        <time>2020-02-14T02:12:15.844Z</time>
      </trkpt>
      <trkpt lat="42.55923" lon="1.79624">
        <ele>2010.5</ele>
        <time>2020-02-14T02:12:19.031Z</time>
      </trkpt>
      <trkpt lat="42.55922" lon="1.79633">
        <ele>2010.1</ele>
        <time>2020-02-14T02:12:22.101Z</time>
      </trkpt>
      <trkpt lat="42.55921" lon="1.79641">
        <ele>2009.3</ele>
        <time>2020-02-14T02:12:25.385Z</time>
      </trkpt>
      <trkpt lat="42.5592" lon="1.79649">
        <ele>2008.8</ele>
        <time>2020-02-14T02:12:28.244Z</time>
      </trkpt>
      <trkpt lat="42.55919" lon="1.79656">
        <ele>2008.4</ele>
        <time>2020-02-14T02:12:30.840Z</time>
      </trkpt>
      <trkpt lat="42.55919" lon="1.79664">
        <ele>2008</ele>
        <time>2020-02-14T02:12:33.472Z</time>
      </trkpt>
      <trkpt lat="42.55918" lon="1.7967">
        <ele>2007.6</ele>
        <time>2020-02-14T02:12:35.721Z</time>
      </trkpt>
      <trkpt lat="42.55917" lon="1.79678">
        <ele>2006.8</ele>
        <time>2020-02-14T02:12:38.972Z</time>
      </trkpt>
      <trkpt lat="42.55916" lon="1.79687">
        <ele>2006.3</ele>
        <time>2020-02-14T02:12:42.187Z</time>
      </trkpt>
      <trkpt lat="42.55916" lon="1.79696">
        <ele>2005.7</ele>
        <time>2020-02-14T02:12:45.249Z</time>
      </trkpt>
      <trkpt lat="42.55918" lon="1.79704">
        <ele>2005.4</ele>
        <time>2020-02-14T02:12:48.393Z</time>
      </trkpt>
      <trkpt lat="42.55917" lon="1.79712">
        <ele>2004.8</ele>
        <time>2020-02-14T02:12:51.124Z</time>
      </trkpt>
      <trkpt lat="42.55918" lon="1.7972">
        <ele>2004.3</ele>
        <time>2020-02-14T02:12:54.239Z</time>
      </trkpt>
      <trkpt lat="42.55917" lon="1.79729">
        <ele>2003.8</ele>
        <time>2020-02-14T02:12:57.201Z</time>
      </trkpt>
      <trkpt lat="42.55917" lon="1.79737">
        <ele>2003.4</ele>
        <time>2020-02-14T02:13:00.187Z</time>
      </trkpt>
      <trkpt lat="42.55917" lon="1.79746">
        <ele>2002.7</ele>
        <time>2020-02-14T02:13:03.368Z</time>
      </trkpt>
      <trkpt lat="42.55916" lon="1.79754">
        <ele>2002.1</ele>
        <time>2020-02-14T02:13:06.545Z</time>
      </trkpt>
      <trkpt lat="42.55915" lon="1.79762">
        <ele>2001.3</ele>
        <time>2020-02-14T02:13:09.305Z</time>
      </trkpt>
      <trkpt lat="42.55915" lon="1.7977">
        <ele>2000.9</ele>
        <time>2020-02-14T02:13:12.222Z</time>
      </trkpt>
      <trkpt lat="42.55914" lon="1.79778">
        <ele>2000.1</ele>
        <time>2020-02-14T02:13:15.207Z</time>
      </trkpt>
      <trkpt lat="42.55915" lon="1.79787">
        <ele>1999.6</ele>
        <time>2020-02-14T02:13:18.354Z</time>
      </trkpt>
      <trkpt lat="42.55914" lon="1.79795">
        <ele>1998.9</ele>
        <time>2020-02-14T02:13:21.381Z</time>
      </trkpt>
      <trkpt lat="42.55914" lon="1.79803">
        <ele>1998.4</ele>
        <time>2020-02-14T02:13:24.301Z</time>
      </trkpt>
      <trkpt lat="42.55913" lon="1.7981">
        <ele>1997.7</ele>
        <time>2020-02-14T02:13:27.060Z</time>
      </trkpt>
      <trkpt lat="42.55912" lon="1.79819">
        <ele>1996.9</ele>
        <time>2020-02-14T02:13:30.171Z</time>
      </trkpt>
      <trkpt lat="42.55912" lon="1.79828">
        <ele>1996.2</ele>
        <time>2020-02-14T02:13:33.388Z</time>
      </trkpt>
      <trkpt lat="42.55913" lon="1.79836">
        <ele>1995.7</ele>
        <time>2020-02-14T02:13:36.467Z</time>
      </trkpt>
      <trkpt lat="42.55911" lon="1.79845">
        <ele>1995</ele>
        <time>2020-02-14T02:13:39.751Z</time>
      </trkpt>
      <trkpt lat="42.5591" lon="1.79854">
        <ele>1994.1</ele>
        <time>2020-02-14T02:13:43.113Z</time>
      </trkpt>
      <trkpt lat="42.5591" lon="1.79862">
        <ele>1993.5</ele>
        <time>2020-02-14T02:13:46.091Z</time>
      </trkpt>
      <trkpt lat="42.55909" lon="1.7987">
        <ele>1992.8</ele>
        <time>2020-02-14T02:13:48.878Z</time>
      </trkpt>
      <trkpt lat="42.55909" lon="1.79879">
        <ele>1992.1</ele>
        <time>2020-02-14T02:13:52.018Z</time>
      </trkpt>
      <trkpt lat="42.55909" lon="1.79888">
        <ele>1991.2</ele>
        <time>2020-02-14T02:13:55.311Z</time>
      </trkpt>
      <trkpt lat="42.55909" lon="1.79895">
        <ele>1990.7</ele>
        <time>2020-02-14T02:13:57.947Z</time>
      </trkpt>
      <trkpt lat="42.55907" lon="1.79904">
        <ele>1989.8</ele>
        <time>2020-02-14T02:14:01.073Z</time>
      </trkpt>
      <trkpt lat="42.55907" lon="1.79912">
        <ele>1989</ele>
        <time>2020-02-14T02:14:04.229Z</time>
      </trkpt>
      <trkpt lat="42.55908" lon="1.7992">
        <ele>1988.5</ele>
        <time>2020-02-14T02:14:07.186Z</time>
      </trkpt>
      <trkpt lat="42.55907" lon="1.7993">
        <ele>1987.8</ele>
        <time>2020-02-14T02:14:10.620Z</time>
      </trkpt>
      <trkpt lat="42.55907" lon="1.79939">
        <ele>1987</ele>
        <time>2020-02-14T02:14:13.735Z</time>
      </trkpt>
      <trkpt lat="42.55907" lon="1.79947">
        <ele>1986.1</ele>
        <time>2020-02-14T02:14:16.672Z</time>
      </trkpt>
      <trkpt lat="42.55906" lon="1.79955">
        <ele>1985.4</ele>
        <time>2020-02-14T02:14:19.704Z</time>
      </trkpt>
      <trkpt lat="42.55907" lon="1.79965">
        <ele>1984.5</ele>
        <time>2020-02-14T02:14:23.141Z</time>
      </trkpt>
      <trkpt lat="42.55906" lon="1.79974">
        <ele>1983.7</ele>
        <time>2020-02-14T02:14:26.501Z</time>
      </trkpt>
      <trkpt lat="42.55905" lon="1.79983">
        <ele>1982.8</ele>
        <time>2020-02-14T02:14:29.667Z</time>
      </trkpt>
      <trkpt lat="42.55906" lon="1.7999">
        <ele>1982.2</ele>
        <time>2020-02-14T02:14:32.385Z</time>
      </trkpt>
      <trkpt lat="42.55908" lon="1.79998">
        <ele>1981.9</ele>
        <time>2020-02-14T02:14:35.273Z</time>
      </trkpt>
      <trkpt lat="42.55909" lon="1.80006">
        <ele>1981.3</ele>
        <time>2020-02-14T02:14:38.267Z</time>
      </trkpt>
      <trkpt lat="42.5591" lon="1.80013">
        <ele>1980.9</ele>
        <time>2020-02-14T02:14:41.074Z</time>
      </trkpt>
      <trkpt lat="42.55913" lon="1.8002">
        <ele>1980.7</ele>
        <time>2020-02-14T02:14:43.887Z</time>
      </trkpt>
      <trkpt lat="42.55916" lon="1.80028">
        <ele>1980.7</ele>
        <time>2020-02-14T02:14:46.988Z</time>
      </trkpt>
      <trkpt lat="42.55918" lon="1.80035">
        <ele>1980.3</ele>
        <time>2020-02-14T02:14:49.653Z</time>
      </trkpt>
      <trkpt lat="42.55918" lon="1.80044">
        <ele>1979.7</ele>
        <time>2020-02-14T02:14:52.790Z</time>
      </trkpt>
      <trkpt lat="42.5592" lon="1.80052">
        <ele>1979.4</ele>
        <time>2020-02-14T02:14:56.130Z</time>
      </trkpt>
      <trkpt lat="42.55922" lon="1.80059">
        <ele>1979.2</ele>
        <time>2020-02-14T02:14:58.781Z</time>
      </trkpt>
      <trkpt lat="42.55924" lon="1.80067">
        <ele>1978.9</ele>
        <time>2020-02-14T02:15:01.649Z</time>
      </trkpt>
      <trkpt lat="42.55925" lon="1.80075">
        <ele>1978.5</ele>
        <time>2020-02-14T02:15:04.736Z</time>
      </trkpt>
      <trkpt lat="42.55928" lon="1.80082">
        <ele>1977.9</ele>
        <time>2020-02-14T02:15:07.575Z</time>
      </trkpt>
      <trkpt lat="42.55931" lon="1.80091">
        <ele>1977.5</ele>
        <time>2020-02-14T02:15:10.953Z</time>
      </trkpt>
      <trkpt lat="42.55934" lon="1.80099">
        <ele>1976.8</ele>
        <time>2020-02-14T02:15:14.308Z</time>
      </trkpt>
      <trkpt lat="42.55936" lon="1.80106">
        <ele>1976.3</ele>
        <time>2020-02-14T02:15:16.830Z</time>
      </trkpt>
      <trkpt lat="42.55939" lon="1.80113">
        <ele>1975.9</ele>
        <time>2020-02-14T02:15:20.080Z</time>
      </trkpt>
      <trkpt lat="42.5594" lon="1.80123">
        <ele>1975</ele>
        <time>2020-02-14T02:15:23.508Z</time>
      </trkpt>
      <trkpt lat="42.55943" lon="1.8013">
        <ele>1974.5</ele>
        <time>2020-02-14T02:15:26.552Z</time>
      </trkpt>
      <trkpt lat="42.55945" lon="1.80139">
        <ele>1973.8</ele>
        <time>2020-02-14T02:15:29.910Z</time>
      </trkpt>
      <trkpt lat="42.55947" lon="1.80147">
        <ele>1973</ele>
        <time>2020-02-14T02:15:32.994Z</time>
      </trkpt>
      <trkpt lat="42.55949" lon="1.80156">
        <ele>1972.2</ele>
        <time>2020-02-14T02:15:36.223Z</time>
      </trkpt>
      <trkpt lat="42.55951" lon="1.80165">
        <ele>1971.5</ele>
        <time>2020-02-14T02:15:39.530Z</time>
      </trkpt>
      <trkpt lat="42.55952" lon="1.80173">
        <ele>1970.8</ele>
        <time>2020-02-14T02:15:42.602Z</time>
      </trkpt>
      <trkpt lat="42.55953" lon="1.80181">
        <ele>1970.2</ele>
        <time>2020-02-14T02:15:45.676Z</time>
      </trkpt>
      <trkpt lat="42.55954" lon="1.80189">
        <ele>1969.6</ele>
        <time>2020-02-14T02:15:48.482Z</time>
      </trkpt>
      <trkpt lat="42.55957" lon="1.80197">
        <ele>1969.1</ele>
        <time>2020-02-14T02:15:51.521Z</time>
      </trkpt>
      <trkpt lat="42.55955" lon="1.80205">
        <ele>1968.3</ele>
        <time>2020-02-14T02:15:54.578Z</time>
      </trkpt>
      <trkpt lat="42.55956" lon="1.80213">
        <ele>1967.7</ele>
        <time>2020-02-14T02:15:57.327Z</time>
      </trkpt>
      <trkpt lat="42.55957" lon="1.8022">
        <ele>1967.1</ele>
        <time>2020-02-14T02:16:00.179Z</time>
      </trkpt>
      <trkpt lat="42.55958" lon="1.80228">
        <ele>1966.6</ele>
        <time>2020-02-14T02:16:02.987Z</time>
      </trkpt>
      <trkpt lat="42.55959" lon="1.80238">
        <ele>1965.9</ele>
        <time>2020-02-14T02:16:06.428Z</time>
      </trkpt>
      <trkpt lat="42.55959" lon="1.80245">
        <ele>1965.2</ele>
        <time>2020-02-14T02:16:09.247Z</time>
      </trkpt>
      <trkpt lat="42.55961" lon="1.80254">
        <ele>1964.5</ele>
        <time>2020-02-14T02:16:12.590Z</time>
      </trkpt>
      <trkpt lat="42.55962" lon="1.80262">
        <ele>1964</ele>
        <time>2020-02-14T02:16:15.484Z</time>
      </trkpt>
      <trkpt lat="42.55961" lon="1.8027">
        <ele>1963.1</ele>
        <time>2020-02-14T02:16:18.514Z</time>
      </trkpt>
      <trkpt lat="42.55961" lon="1.80279">
        <ele>1962.4</ele>
        <time>2020-02-14T02:16:21.440Z</time>
      </trkpt>
      <trkpt lat="42.55964" lon="1.80287">
        <ele>1962</ele>
        <time>2020-02-14T02:16:24.732Z</time>
      </trkpt>
      <trkpt lat="42.55963" lon="1.80296">
        <ele>1961.1</ele>
        <time>2020-02-14T02:16:28.026Z</time>
      </trkpt>
      <trkpt lat="42.55965" lon="1.80305">
        <ele>1960.5</ele>
        <time>2020-02-14T02:16:31.164Z</time>
      </trkpt>
      <trkpt lat="42.55966" lon="1.80313">
        <ele>1959.9</ele>
        <time>2020-02-14T02:16:34.178Z</time>
      </trkpt>
      <trkpt lat="42.55968" lon="1.80321">
        <ele>1959.6</ele>
        <time>2020-02-14T02:16:37.232Z</time>
      </trkpt>
      <trkpt lat="42.55967" lon="1.8033">
        <ele>1958.8</ele>
        <time>2020-02-14T02:16:40.520Z</time>
      </trkpt>
      <trkpt lat="42.55967" lon="1.80339">
        <ele>1958</ele>
        <time>2020-02-14T02:16:43.773Z</time>
      </trkpt>
      <trkpt lat="42.55966" lon="1.80351">
        <ele>1956.9</ele>
        <time>2020-02-14T02:16:48.056Z</time>
      </trkpt>
      <trkpt lat="42.55965" lon="1.80358">
        <ele>1956.2</ele>
        <time>2020-02-14T02:16:50.812Z</time>
      </trkpt>
      <trkpt lat="42.55963" lon="1.80365">
        <ele>1955.5</ele>
        <time>2020-02-14T02:16:53.463Z</time>
      </trkpt>
      <trkpt lat="42.55963" lon="1.80373">
        <ele>1955.1</ele>
        <time>2020-02-14T02:16:56.118Z</time>
      </trkpt>
      <trkpt lat="42.55962" lon="1.80379">
        <ele>1954.5</ele>
        <time>2020-02-14T02:16:58.457Z</time>
      </trkpt>
      <trkpt lat="42.55962" lon="1.80385">
        <ele>1954.2</ele>
        <time>2020-02-14T02:17:00.729Z</time>
      </trkpt>
      <trkpt lat="42.55961" lon="1.80392">
        <ele>1953.6</ele>
        <time>2020-02-14T02:17:03.268Z</time>
      </trkpt>
      <trkpt lat="42.5596" lon="1.804">
        <ele>1952.9</ele>
        <time>2020-02-14T02:17:06.074Z</time>
      </trkpt>
      <trkpt lat="42.55959" lon="1.80407">
        <ele>1952.3</ele>
        <time>2020-02-14T02:17:08.705Z</time>
      </trkpt>
      <trkpt lat="42.55959" lon="1.80416">
        <ele>1951.9</ele>
        <time>2020-02-14T02:17:11.944Z</time>
      </trkpt>
      <trkpt lat="42.5596" lon="1.80424">
        <ele>1951.4</ele>
        <time>2020-02-14T02:17:14.900Z</time>
      </trkpt>
      <trkpt lat="42.55959" lon="1.80433">
        <ele>1950.9</ele>
        <time>2020-02-14T02:17:17.931Z</time>
      </trkpt>
      <trkpt lat="42.55959" lon="1.80442">
        <ele>1950.3</ele>
        <time>2020-02-14T02:17:21.138Z</time>
      </trkpt>
      <trkpt lat="42.5596" lon="1.8045">
        <ele>1950</ele>
        <time>2020-02-14T02:17:23.968Z</time>
      </trkpt>
      <trkpt lat="42.5596" lon="1.80457">
        <ele>1949.7</ele>
        <time>2020-02-14T02:17:26.810Z</time>
      </trkpt>
      <trkpt lat="42.55961" lon="1.80466">
        <ele>1949.2</ele>
        <time>2020-02-14T02:17:29.908Z</time>
      </trkpt>
      <trkpt lat="42.5596" lon="1.80475">
        <ele>1948.7</ele>
        <time>2020-02-14T02:17:32.967Z</time>
      </trkpt>
      <trkpt lat="42.5596" lon="1.80484">
        <ele>1948.1</ele>
        <time>2020-02-14T02:17:36.350Z</time>
      </trkpt>
      <trkpt lat="42.5596" lon="1.80492">
        <ele>1947.8</ele>
        <time>2020-02-14T02:17:39.191Z</time>
      </trkpt>
      <trkpt lat="42.5596" lon="1.80499">
        <ele>1947.1</ele>
        <time>2020-02-14T02:17:41.939Z</time>
      </trkpt>
      <trkpt lat="42.55961" lon="1.80508">
        <ele>1946.6</ele>
        <time>2020-02-14T02:17:45.031Z</time>
      </trkpt>
      <trkpt lat="42.55961" lon="1.80518">
        <ele>1945.8</ele>
        <time>2020-02-14T02:17:48.564Z</time>
      </trkpt>
      <trkpt lat="42.5596" lon="1.80526">
        <ele>1945.2</ele>
        <time>2020-02-14T02:17:51.506Z</time>
      </trkpt>
      <trkpt lat="42.55961" lon="1.80534">
        <ele>1944.8</ele>
        <time>2020-02-14T02:17:54.404Z</time>
      </trkpt>
      <trkpt lat="42.5596" lon="1.80541">
        <ele>1944.1</ele>
        <time>2020-02-14T02:17:57.140Z</time>
      </trkpt>
      <trkpt lat="42.55961" lon="1.80549">
        <ele>1943.5</ele>
        <time>2020-02-14T02:17:59.820Z</time>
      </trkpt>
      <trkpt lat="42.55961" lon="1.80557">
        <ele>1942.8</ele>
        <time>2020-02-14T02:18:02.858Z</time>
      </trkpt>
      <trkpt lat="42.55962" lon="1.80566">
        <ele>1942.2</ele>
        <time>2020-02-14T02:18:06.167Z</time>
      </trkpt>
      <trkpt lat="42.55962" lon="1.80574">
        <ele>1941.5</ele>
        <time>2020-02-14T02:18:09.097Z</time>
      </trkpt>
      <trkpt lat="42.55963" lon="1.80582">
        <ele>1941</ele>
        <time>2020-02-14T02:18:11.885Z</time>
      </trkpt>
      <trkpt lat="42.55962" lon="1.8059">
        <ele>1940.2</ele>
        <time>2020-02-14T02:18:14.719Z</time>
      </trkpt>
      <trkpt lat="42.55963" lon="1.80598">
        <ele>1939.5</ele>
        <time>2020-02-14T02:18:17.835Z</time>
      </trkpt>
      <trkpt lat="42.55962" lon="1.80606">
        <ele>1938.7</ele>
        <time>2020-02-14T02:18:20.733Z</time>
      </trkpt>
      <trkpt lat="42.55963" lon="1.80614">
        <ele>1938.2</ele>
        <time>2020-02-14T02:18:23.663Z</time>
      </trkpt>
      <trkpt lat="42.55963" lon="1.80621">
        <ele>1937.7</ele>
        <time>2020-02-14T02:18:26.369Z</time>
      </trkpt>
      <trkpt lat="42.55962" lon="1.80629">
        <ele>1936.8</ele>
        <time>2020-02-14T02:18:29.125Z</time>
      </trkpt>
      <trkpt lat="42.55959" lon="1.80636">
        <ele>1935.9</ele>
        <time>2020-02-14T02:18:32.247Z</time>
      </trkpt>
      <trkpt lat="42.55959" lon="1.80646">
        <ele>1935.1</ele>
        <time>2020-02-14T02:18:35.894Z</time>
      </trkpt>
      <trkpt lat="42.55956" lon="1.80654">
        <ele>1934.2</ele>
        <time>2020-02-14T02:18:39.138Z</time>
      </trkpt>
      <trkpt lat="42.55957" lon="1.80662">
        <ele>1933.5</ele>
        <time>2020-02-14T02:18:41.961Z</time>
      </trkpt>
      <trkpt lat="42.55956" lon="1.8067">
        <ele>1932.9</ele>
        <time>2020-02-14T02:18:44.899Z</time>
      </trkpt>
      <trkpt lat="42.55955" lon="1.80679">
        <ele>1932.3</ele>
        <time>2020-02-14T02:18:48.203Z</time>
      </trkpt>
      <trkpt lat="42.55953" lon="1.80687">
        <ele>1932.2</ele>
        <time>2020-02-14T02:18:51.191Z</time>
      </trkpt>
      <trkpt lat="42.55954" lon="1.80696">
        <ele>1932.2</ele>
        <time>2020-02-14T02:18:54.161Z</time>
      </trkpt>
      <trkpt lat="42.55953" lon="1.80705">
        <ele>1932.1</ele>
        <time>2020-02-14T02:18:57.653Z</time>
      </trkpt>
      <trkpt lat="42.55952" lon="1.80714">
        <ele>1932.1</ele>
        <time>2020-02-14T02:19:00.886Z</time>
      </trkpt>
      <trkpt lat="42.55951" lon="1.80722">
        <ele>1932.1</ele>
        <time>2020-02-14T02:19:03.928Z</time>
      </trkpt>
      <trkpt lat="42.5595" lon="1.80731">
        <ele>1932.1</ele>
        <time>2020-02-14T02:19:06.877Z</time>
      </trkpt>
      <trkpt lat="42.55949" lon="1.80739">
        <ele>1932</ele>
        <time>2020-02-14T02:19:09.828Z</time>
      </trkpt>
      <trkpt lat="42.55948" lon="1.80747">
        <ele>1931.9</ele>
        <time>2020-02-14T02:19:12.825Z</time>
      </trkpt>
      <trkpt lat="42.55948" lon="1.80755">
        <ele>1931.9</ele>
        <time>2020-02-14T02:19:15.770Z</time>
      </trkpt>
      <trkpt lat="42.55946" lon="1.80763">
        <ele>1931.7</ele>
        <time>2020-02-14T02:19:18.837Z</time>
      </trkpt>
      <trkpt lat="42.55943" lon="1.80771">
        <ele>1931.4</ele>
        <time>2020-02-14T02:19:22.008Z</time>
      </trkpt>
      <trkpt lat="42.55942" lon="1.80779">
        <ele>1931</ele>
        <time>2020-02-14T02:19:24.768Z</time>
      </trkpt>
      <trkpt lat="42.5594" lon="1.80787">
        <ele>1930.4</ele>
        <time>2020-02-14T02:19:28.109Z</time>
      </trkpt>
      <trkpt lat="42.55939" lon="1.80796">
        <ele>1930</ele>
        <time>2020-02-14T02:19:31.119Z</time>
      </trkpt>
      <trkpt lat="42.55937" lon="1.80803">
        <ele>1929.5</ele>
        <time>2020-02-14T02:19:33.984Z</time>
      </trkpt>
      <trkpt lat="42.55936" lon="1.80811">
        <ele>1929.1</ele>
        <time>2020-02-14T02:19:36.859Z</time>
      </trkpt>
      <trkpt lat="42.55934" lon="1.8082">
        <ele>1928.7</ele>
        <time>2020-02-14T02:19:40.168Z</time>
      </trkpt>
      <trkpt lat="42.55932" lon="1.80827">
        <ele>1928.3</ele>
        <time>2020-02-14T02:19:43.008Z</time>
      </trkpt>
      <trkpt lat="42.55931" lon="1.80835">
        <ele>1927.9</ele>
        <time>2020-02-14T02:19:45.870Z</time>
      </trkpt>
      <trkpt lat="42.55931" lon="1.80843">
        <ele>1927.5</ele>
        <time>2020-02-14T02:19:48.695Z</time>
      </trkpt>
      <trkpt lat="42.55931" lon="1.80852">
        <ele>1926.9</ele>
        <time>2020-02-14T02:19:51.903Z</time>
      </trkpt>
      <trkpt lat="42.55931" lon="1.8086">
        <ele>1926.7</ele>
        <time>2020-02-14T02:19:54.714Z</time>
      </trkpt>
      <trkpt lat="42.55931" lon="1.80869">
        <ele>1926.1</ele>
        <time>2020-02-14T02:19:57.921Z</time>
      </trkpt>
      <trkpt lat="42.55934" lon="1.80876">
        <ele>1925.8</ele>
        <time>2020-02-14T02:20:00.950Z</time>
      </trkpt>
      <trkpt lat="42.55934" lon="1.80885">
        <ele>1925.3</ele>
        <time>2020-02-14T02:20:04.082Z</time>
      </trkpt>
      <trkpt lat="42.55935" lon="1.80892">
        <ele>1925</ele>
        <time>2020-02-14T02:20:06.679Z</time>
      </trkpt>
      <trkpt lat="42.55937" lon="1.80901">
        <ele>1924.5</ele>
        <time>2020-02-14T02:20:09.891Z</time>
      </trkpt>
      <trkpt lat="42.55938" lon="1.80908">
        <ele>1924.2</ele>
        <time>2020-02-14T02:20:12.690Z</time>
      </trkpt>
      <trkpt lat="42.5594" lon="1.80917">
        <ele>1923.6</ele>
        <time>2020-02-14T02:20:15.950Z</time>
      </trkpt>
      <trkpt lat="42.55939" lon="1.80925">
        <ele>1922.9</ele>
        <time>2020-02-14T02:20:19.048Z</time>
      </trkpt>
      <trkpt lat="42.5594" lon="1.80933">
        <ele>1922.2</ele>
        <time>2020-02-14T02:20:21.675Z</time>
      </trkpt>
      <trkpt lat="42.5594" lon="1.8094">
        <ele>1921.7</ele>
        <time>2020-02-14T02:20:24.214Z</time>
      </trkpt>
      <trkpt lat="42.5594" lon="1.80948">
        <ele>1921.1</ele>
        <time>2020-02-14T02:20:27.208Z</time>
      </trkpt>
      <trkpt lat="42.5594" lon="1.80956">
        <ele>1920.4</ele>
        <time>2020-02-14T02:20:30.245Z</time>
      </trkpt>
      <trkpt lat="42.55938" lon="1.80964">
        <ele>1919.6</ele>
        <time>2020-02-14T02:20:33.264Z</time>
      </trkpt>
      <trkpt lat="42.55935" lon="1.80972">
        <ele>1918.8</ele>
        <time>2020-02-14T02:20:36.357Z</time>
      </trkpt>
      <trkpt lat="42.55932" lon="1.8098">
        <ele>1917.9</ele>
        <time>2020-02-14T02:20:39.615Z</time>
      </trkpt>
      <trkpt lat="42.55931" lon="1.80987">
        <ele>1917</ele>
        <time>2020-02-14T02:20:42.487Z</time>
      </trkpt>
      <trkpt lat="42.55931" lon="1.80995">
        <ele>1916.3</ele>
        <time>2020-02-14T02:20:45.268Z</time>
      </trkpt>
      <trkpt lat="42.55932" lon="1.81003">
        <ele>1915.6</ele>
        <time>2020-02-14T02:20:48.097Z</time>
      </trkpt>
      <trkpt lat="42.55932" lon="1.81011">
        <ele>1915.3</ele>
        <time>2020-02-14T02:20:50.901Z</time>
      </trkpt>
      <trkpt lat="42.5593" lon="1.81017">
        <ele>1914.7</ele>
        <time>2020-02-14T02:20:53.380Z</time>
      </trkpt>
      <trkpt lat="42.55928" lon="1.81023">
        <ele>1914.3</ele>
        <time>2020-02-14T02:20:55.645Z</time>
      </trkpt>
      <trkpt lat="42.55925" lon="1.81029">
        <ele>1913.6</ele>
        <time>2020-02-14T02:20:58.220Z</time>
      </trkpt>
      <trkpt lat="42.55924" lon="1.81037">
        <ele>1912.8</ele>
        <time>2020-02-14T02:21:01.229Z</time>
      </trkpt>
      <trkpt lat="42.55925" lon="1.81045">
        <ele>1912.6</ele>
        <time>2020-02-14T02:21:04.136Z</time>
      </trkpt>
      <trkpt lat="42.55928" lon="1.81044">
        <ele>1913.2</ele>
        <time>2020-02-14T02:21:06.005Z</time>
      </trkpt>
      <trkpt lat="42.55921" lon="1.81038">
        <ele>1912.1</ele>
        <time>2020-02-14T02:21:10.211Z</time>
      </trkpt>
      <trkpt lat="42.55916" lon="1.81043">
        <ele>1910.6</ele>
        <time>2020-02-14T02:21:13.220Z</time>
      </trkpt>
      <trkpt lat="42.55914" lon="1.81059">
        <ele>1909.1</ele>
        <time>2020-02-14T02:21:19.349Z</time>
      </trkpt>
      <trkpt lat="42.55913" lon="1.81064">
        <ele>1908.8</ele>
        <time>2020-02-14T02:21:21.005Z</time>
      </trkpt>
      <trkpt lat="42.55908" lon="1.81076">
        <ele>1906.9</ele>
        <time>2020-02-14T02:21:26.206Z</time>
      </trkpt>
      <trkpt lat="42.55906" lon="1.81082">
        <ele>1906</ele>
        <time>2020-02-14T02:21:28.668Z</time>
      </trkpt>
      <trkpt lat="42.55903" lon="1.81092">
        <ele>1904.9</ele>
        <time>2020-02-14T02:21:32.443Z</time>
      </trkpt>
      <trkpt lat="42.55901" lon="1.811">
        <ele>1903.8</ele>
        <time>2020-02-14T02:21:35.744Z</time>
      </trkpt>
      <trkpt lat="42.55899" lon="1.81106">
        <ele>1903.2</ele>
        <time>2020-02-14T02:21:37.756Z</time>
      </trkpt>
      <trkpt lat="42.55894" lon="1.81118">
        <ele>1901.5</ele>
        <time>2020-02-14T02:21:42.690Z</time>
      </trkpt>
      <trkpt lat="42.55894" lon="1.81122">
        <ele>1901.2</ele>
        <time>2020-02-14T02:21:44.266Z</time>
      </trkpt>
      <trkpt lat="42.55892" lon="1.81126">
        <ele>1900.7</ele>
        <time>2020-02-14T02:21:45.834Z</time>
      </trkpt>
      <trkpt lat="42.55888" lon="1.81144">
        <ele>1899</ele>
        <time>2020-02-14T02:21:52.712Z</time>
      </trkpt>
      <trkpt lat="42.55884" lon="1.81162">
        <ele>1897.4</ele>
        <time>2020-02-14T02:21:59.377Z</time>
      </trkpt>
      <trkpt lat="42.55883" lon="1.81169">
        <ele>1896.7</ele>
        <time>2020-02-14T02:22:02.256Z</time>
      </trkpt>
      <trkpt lat="42.55883" lon="1.81176">
        <ele>1896.5</ele>
        <time>2020-02-14T02:22:04.522Z</time>
      </trkpt>
      <trkpt lat="42.5588" lon="1.81194">
        <ele>1897.3</ele>
        <time>2020-02-14T02:22:11.434Z</time>
      </trkpt>
      <trkpt lat="42.55877" lon="1.81209">
        <ele>1894.9</ele>
        <time>2020-02-14T02:22:16.826Z</time>
      </trkpt>
      <trkpt lat="42.55873" lon="1.81222">
        <ele>1880.6</ele>
        <time>2020-02-14T02:22:25.049Z</time>
      </trkpt>
      <trkpt lat="42.55869" lon="1.8123">
        <ele>1879.1</ele>
        <time>2020-02-14T02:22:28.573Z</time>
      </trkpt>
      <trkpt lat="42.5586" lon="1.81239">
        <ele>1877.1</ele>
        <time>2020-02-14T02:22:33.890Z</time>
      </trkpt>
      <trkpt lat="42.55858" lon="1.81242">
        <ele>1876.3</ele>
        <time>2020-02-14T02:22:35.481Z</time>
      </trkpt>
      <trkpt lat="42.55854" lon="1.81254">
        <ele>1874.8</ele>
        <time>2020-02-14T02:22:40.222Z</time>
      </trkpt>
      <trkpt lat="42.5585" lon="1.81261">
        <ele>1874.2</ele>
        <time>2020-02-14T02:22:43.301Z</time>
      </trkpt>
      <trkpt lat="42.55846" lon="1.81271">
        <ele>1871.9</ele>
        <time>2020-02-14T02:22:47.533Z</time>
      </trkpt>
      <trkpt lat="42.55844" lon="1.81277">
        <ele>1872.9</ele>
        <time>2020-02-14T02:22:49.981Z</time>
      </trkpt>
      <trkpt lat="42.55843" lon="1.81287">
        <ele>1869.9</ele>
        <time>2020-02-14T02:22:54.062Z</time>
      </trkpt>
      <trkpt lat="42.55838" lon="1.81298">
        <ele>1868.5</ele>
        <time>2020-02-14T02:22:58.736Z</time>
      </trkpt>
      <trkpt lat="42.55833" lon="1.81306">
        <ele>1867.5</ele>
        <time>2020-02-14T02:23:02.236Z</time>
      </trkpt>
      <trkpt lat="42.55825" lon="1.81314">
        <ele>1866.1</ele>
        <time>2020-02-14T02:23:07.375Z</time>
      </trkpt>
      <trkpt lat="42.5582" lon="1.8133">
        <ele>1863.8</ele>
        <time>2020-02-14T02:23:13.384Z</time>
      </trkpt>
      <trkpt lat="42.55811" lon="1.81348">
        <ele>1861.7</ele>
        <time>2020-02-14T02:23:21.477Z</time>
      </trkpt>
      <trkpt lat="42.55804" lon="1.81356">
        <ele>1859.9</ele>
        <time>2020-02-14T02:23:25.798Z</time>
      </trkpt>
      <trkpt lat="42.55798" lon="1.81363">
        <ele>1858.5</ele>
        <time>2020-02-14T02:23:29.921Z</time>
      </trkpt>
      <trkpt lat="42.55794" lon="1.8137">
        <ele>1857.5</ele>
        <time>2020-02-14T02:23:33.163Z</time>
      </trkpt>
      <trkpt lat="42.55788" lon="1.81382">
        <ele>1855.5</ele>
        <time>2020-02-14T02:23:38.594Z</time>
      </trkpt>
      <trkpt lat="42.55787" lon="1.81387">
        <ele>1855.6</ele>
        <time>2020-02-14T02:23:40.281Z</time>
      </trkpt>
      <trkpt lat="42.55781" lon="1.81397">
        <ele>1854</ele>
        <time>2020-02-14T02:23:44.760Z</time>
      </trkpt>
      <trkpt lat="42.55773" lon="1.81411">
        <ele>1852.1</ele>
        <time>2020-02-14T02:23:51.321Z</time>
      </trkpt>
      <trkpt lat="42.55769" lon="1.81417">
        <ele>1851.2</ele>
        <time>2020-02-14T02:23:54.342Z</time>
      </trkpt>
      <trkpt lat="42.55766" lon="1.81419">
        <ele>1849.8</ele>
        <time>2020-02-14T02:23:56.106Z</time>
      </trkpt>
      <trkpt lat="42.5576" lon="1.81429">
        <ele>1848.3</ele>
        <time>2020-02-14T02:24:00.843Z</time>
      </trkpt>
      <trkpt lat="42.55757" lon="1.81431">
        <ele>1847.9</ele>
        <time>2020-02-14T02:24:02.272Z</time>
      </trkpt>
      <trkpt lat="42.55752" lon="1.81436">
        <ele>1846.8</ele>
        <time>2020-02-14T02:24:05.339Z</time>
      </trkpt>
      <trkpt lat="42.55739" lon="1.81447">
        <ele>1844.1</ele>
        <time>2020-02-14T02:24:12.658Z</time>
      </trkpt>
      <trkpt lat="42.55736" lon="1.81452">
        <ele>1842.5</ele>
        <time>2020-02-14T02:24:15.120Z</time>
      </trkpt>
      <trkpt lat="42.55733" lon="1.81453">
        <ele>1841.5</ele>
        <time>2020-02-14T02:24:16.752Z</time>
      </trkpt>
      <trkpt lat="42.55722" lon="1.81462">
        <ele>1838.7</ele>
        <time>2020-02-14T02:24:23.240Z</time>
      </trkpt>
      <trkpt lat="42.5572" lon="1.81465">
        <ele>1838.3</ele>
        <time>2020-02-14T02:24:24.809Z</time>
      </trkpt>
      <trkpt lat="42.55706" lon="1.81476">
        <ele>1835.8</ele>
        <time>2020-02-14T02:24:32.594Z</time>
      </trkpt>
      <trkpt lat="42.55703" lon="1.8148">
        <ele>1834.8</ele>
        <time>2020-02-14T02:24:34.738Z</time>
      </trkpt>
      <trkpt lat="42.557" lon="1.81483">
        <ele>1833.9</ele>
        <time>2020-02-14T02:24:36.840Z</time>
      </trkpt>
      <trkpt lat="42.55698" lon="1.81487">
        <ele>1833.5</ele>
        <time>2020-02-14T02:24:38.360Z</time>
      </trkpt>
      <trkpt lat="42.55686" lon="1.81497">
        <ele>1831</ele>
        <time>2020-02-14T02:24:44.985Z</time>
      </trkpt>
      <trkpt lat="42.55674" lon="1.81512">
        <ele>1827.6</ele>
        <time>2020-02-14T02:24:53.394Z</time>
      </trkpt>
      <trkpt lat="42.55666" lon="1.81524">
        <ele>1825.8</ele>
        <time>2020-02-14T02:24:59.319Z</time>
      </trkpt>
      <trkpt lat="42.55656" lon="1.81536">
        <ele>1822.8</ele>
        <time>2020-02-14T02:25:05.821Z</time>
      </trkpt>
      <trkpt lat="42.55652" lon="1.81541">
        <ele>1822.4</ele>
        <time>2020-02-14T02:25:08.328Z</time>
      </trkpt>
      <trkpt lat="42.55645" lon="1.81549">
        <ele>1820.9</ele>
        <time>2020-02-14T02:25:12.702Z</time>
      </trkpt>
      <trkpt lat="42.55636" lon="1.81553">
        <ele>1819.5</ele>
        <time>2020-02-14T02:25:17.770Z</time>
      </trkpt>
      <trkpt lat="42.55632" lon="1.81554">
        <ele>1818.6</ele>
        <time>2020-02-14T02:25:19.594Z</time>
      </trkpt>
      <trkpt lat="42.55622" lon="1.8156">
        <ele>1816.6</ele>
        <time>2020-02-14T02:25:24.987Z</time>
      </trkpt>
      <trkpt lat="42.55619" lon="1.81561">
        <ele>1816.6</ele>
        <time>2020-02-14T02:25:26.407Z</time>
      </trkpt>
      <trkpt lat="42.55611" lon="1.81566">
        <ele>1814.2</ele>
        <time>2020-02-14T02:25:31.020Z</time>
      </trkpt>
      <trkpt lat="42.55606" lon="1.81567">
        <ele>1813.7</ele>
        <time>2020-02-14T02:25:33.185Z</time>
      </trkpt>
      <trkpt lat="42.55594" lon="1.81576">
        <ele>1812.2</ele>
        <time>2020-02-14T02:25:40.106Z</time>
      </trkpt>
      <trkpt lat="42.55587" lon="1.8158">
        <ele>1811.7</ele>
        <time>2020-02-14T02:25:43.543Z</time>
      </trkpt>
      <trkpt lat="42.55582" lon="1.81589">
        <ele>1808.9</ele>
        <time>2020-02-14T02:25:47.749Z</time>
      </trkpt>
      <trkpt lat="42.55576" lon="1.81603">
        <ele>1807.4</ele>
        <time>2020-02-14T02:25:54.016Z</time>
      </trkpt>
      <trkpt lat="42.55572" lon="1.8161">
        <ele>1806.9</ele>
        <time>2020-02-14T02:25:57.120Z</time>
      </trkpt>
      <trkpt lat="42.55553" lon="1.81622">
        <ele>1806</ele>
        <time>2020-02-14T02:26:06.978Z</time>
      </trkpt>
      <trkpt lat="42.5555" lon="1.81624">
        <ele>1806.1</ele>
        <time>2020-02-14T02:26:08.751Z</time>
      </trkpt>
      <trkpt lat="42.55544" lon="1.81627">
        <ele>1805.1</ele>
        <time>2020-02-14T02:26:11.737Z</time>
      </trkpt>
      <trkpt lat="42.55535" lon="1.81637">
        <ele>1804.2</ele>
        <time>2020-02-14T02:26:17.385Z</time>
      </trkpt>
      <trkpt lat="42.55523" lon="1.81653">
        <ele>1802.1</ele>
        <time>2020-02-14T02:26:25.638Z</time>
      </trkpt>
      <trkpt lat="42.55519" lon="1.81658">
        <ele>1801.7</ele>
        <time>2020-02-14T02:26:28.567Z</time>
      </trkpt>
      <trkpt lat="42.55517" lon="1.81662">
        <ele>1801.2</ele>
        <time>2020-02-14T02:26:30.347Z</time>
      </trkpt>
      <trkpt lat="42.55507" lon="1.81675">
        <ele>1799.7</ele>
        <time>2020-02-14T02:26:36.968Z</time>
      </trkpt>
      <trkpt lat="42.55496" lon="1.81695">
        <ele>1797.3</ele>
        <time>2020-02-14T02:26:46.169Z</time>
      </trkpt>
      <trkpt lat="42.55491" lon="1.81703">
        <ele>1796.4</ele>
        <time>2020-02-14T02:26:49.809Z</time>
      </trkpt>
      <trkpt lat="42.55487" lon="1.81709">
        <ele>1796</ele>
        <time>2020-02-14T02:26:52.693Z</time>
      </trkpt>
      <trkpt lat="42.55483" lon="1.81715">
        <ele>1795</ele>
        <time>2020-02-14T02:26:55.661Z</time>
      </trkpt>
      <trkpt lat="42.55475" lon="1.81729">
        <ele>1792.6</ele>
        <time>2020-02-14T02:27:02.167Z</time>
      </trkpt>
      <trkpt lat="42.55467" lon="1.8174">
        <ele>1791.2</ele>
        <time>2020-02-14T02:27:07.731Z</time>
      </trkpt>
      <trkpt lat="42.55465" lon="1.81744">
        <ele>1790.2</ele>
        <time>2020-02-14T02:27:09.496Z</time>
      </trkpt>
      <trkpt lat="42.55456" lon="1.81762">
        <ele>1787.7</ele>
        <time>2020-02-14T02:27:17.389Z</time>
      </trkpt>
      <trkpt lat="42.55452" lon="1.8177">
        <ele>1786.8</ele>
        <time>2020-02-14T02:27:20.655Z</time>
      </trkpt>
      <trkpt lat="42.55444" lon="1.81778">
        <ele>1784.3</ele>
        <time>2020-02-14T02:27:25.696Z</time>
      </trkpt>
      <trkpt lat="42.5544" lon="1.81781">
        <ele>1784</ele>
        <time>2020-02-14T02:27:27.951Z</time>
      </trkpt>
      <trkpt lat="42.55434" lon="1.81798">
        <ele>1781.5</ele>
        <time>2020-02-14T02:27:35.032Z</time>
      </trkpt>
      <trkpt lat="42.5543" lon="1.81803">
        <ele>1781</ele>
        <time>2020-02-14T02:27:37.878Z</time>
      </trkpt>
      <trkpt lat="42.55422" lon="1.81819">
        <ele>1778.6</ele>
        <time>2020-02-14T02:27:44.707Z</time>
      </trkpt>
      <trkpt lat="42.55417" lon="1.81824">
        <ele>1777.7</ele>
        <time>2020-02-14T02:27:47.497Z</time>
      </trkpt>
      <trkpt lat="42.55414" lon="1.81828">
        <ele>1776.8</ele>
        <time>2020-02-14T02:27:49.951Z</time>
      </trkpt>
      <trkpt lat="42.55403" lon="1.81841">
        <ele>1775.3</ele>
        <time>2020-02-14T02:27:56.921Z</time>
      </trkpt>
      <trkpt lat="42.55392" lon="1.81861">
        <ele>1772.8</ele>
        <time>2020-02-14T02:28:05.809Z</time>
      </trkpt>
      <trkpt lat="42.5539" lon="1.81869">
        <ele>1772</ele>
        <time>2020-02-14T02:28:09.015Z</time>
      </trkpt>
      <trkpt lat="42.55385" lon="1.81871">
        <ele>1771.9</ele>
        <time>2020-02-14T02:28:11.264Z</time>
      </trkpt>
      <trkpt lat="42.55372" lon="1.8188">
        <ele>1770.4</ele>
        <time>2020-02-14T02:28:18.262Z</time>
      </trkpt>
      <trkpt lat="42.55361" lon="1.8189">
        <ele>1768</ele>
        <time>2020-02-14T02:28:24.918Z</time>
      </trkpt>
      <trkpt lat="42.55346" lon="1.81904">
        <ele>1764.6</ele>
        <time>2020-02-14T02:28:33.960Z</time>
      </trkpt>
      <trkpt lat="42.55335" lon="1.81918">
        <ele>1762.7</ele>
        <time>2020-02-14T02:28:41.474Z</time>
      </trkpt>
      <trkpt lat="42.55332" lon="1.81931">
        <ele>1760.9</ele>
        <time>2020-02-14T02:28:46.384Z</time>
      </trkpt>
      <trkpt lat="42.55322" lon="1.81952">
        <ele>1757.9</ele>
        <time>2020-02-14T02:28:55.362Z</time>
      </trkpt>
      <trkpt lat="42.55308" lon="1.81972">
        <ele>1756.5</ele>
        <time>2020-02-14T02:29:05.453Z</time>
      </trkpt>
      <trkpt lat="42.55303" lon="1.81979">
        <ele>1755.6</ele>
        <time>2020-02-14T02:29:08.897Z</time>
      </trkpt>
      <trkpt lat="42.55299" lon="1.81983">
        <ele>1755</ele>
        <time>2020-02-14T02:29:11.468Z</time>
      </trkpt>
      <trkpt lat="42.55288" lon="1.81992">
        <ele>1752.7</ele>
        <time>2020-02-14T02:29:17.591Z</time>
      </trkpt>
      <trkpt lat="42.55286" lon="1.81995">
        <ele>1752.7</ele>
        <time>2020-02-14T02:29:19.332Z</time>
      </trkpt>
      <trkpt lat="42.55285" lon="1.81999">
        <ele>1752.2</ele>
        <time>2020-02-14T02:29:20.860Z</time>
      </trkpt>
      <trkpt lat="42.55281" lon="1.82002">
        <ele>1751.7</ele>
        <time>2020-02-14T02:29:23.057Z</time>
      </trkpt>
      <trkpt lat="42.55279" lon="1.82008">
        <ele>1750.7</ele>
        <time>2020-02-14T02:29:25.407Z</time>
      </trkpt>
      <trkpt lat="42.55274" lon="1.82013">
        <ele>1750.3</ele>
        <time>2020-02-14T02:29:28.687Z</time>
      </trkpt>
      <trkpt lat="42.55268" lon="1.82015">
        <ele>1749.3</ele>
        <time>2020-02-14T02:29:31.533Z</time>
      </trkpt>
      <trkpt lat="42.55263" lon="1.82018">
        <ele>1748.4</ele>
        <time>2020-02-14T02:29:34.107Z</time>
      </trkpt>
      <trkpt lat="42.55254" lon="1.82027">
        <ele>1746.9</ele>
        <time>2020-02-14T02:29:39.769Z</time>
      </trkpt>
      <trkpt lat="42.55251" lon="1.82034">
        <ele>1745.5</ele>
        <time>2020-02-14T02:29:42.673Z</time>
      </trkpt>
      <trkpt lat="42.55247" lon="1.8204">
        <ele>1745</ele>
        <time>2020-02-14T02:29:45.407Z</time>
      </trkpt>
      <trkpt lat="42.55238" lon="1.82054">
        <ele>1743.1</ele>
        <time>2020-02-14T02:29:52.216Z</time>
      </trkpt>
      <trkpt lat="42.55235" lon="1.82059">
        <ele>1742.5</ele>
        <time>2020-02-14T02:29:54.398Z</time>
      </trkpt>
      <trkpt lat="42.55232" lon="1.82066">
        <ele>1741.2</ele>
        <time>2020-02-14T02:29:57.559Z</time>
      </trkpt>
      <trkpt lat="42.55223" lon="1.82078">
        <ele>1738.7</ele>
        <time>2020-02-14T02:30:03.991Z</time>
      </trkpt>
      <trkpt lat="42.55211" lon="1.82092">
        <ele>1736.3</ele>
        <time>2020-02-14T02:30:11.417Z</time>
      </trkpt>
      <trkpt lat="42.55201" lon="1.821">
        <ele>1734.4</ele>
        <time>2020-02-14T02:30:17.198Z</time>
      </trkpt>
      <trkpt lat="42.55195" lon="1.82102">
        <ele>1732.5</ele>
        <time>2020-02-14T02:30:20.445Z</time>
      </trkpt>
      <trkpt lat="42.55185" lon="1.8211">
        <ele>1730.1</ele>
        <time>2020-02-14T02:30:26.171Z</time>
      </trkpt>
      <trkpt lat="42.55174" lon="1.82114">
        <ele>1727.3</ele>
        <time>2020-02-14T02:30:31.786Z</time>
      </trkpt>
      <trkpt lat="42.5517" lon="1.82117">
        <ele>1726.8</ele>
        <time>2020-02-14T02:30:34.064Z</time>
      </trkpt>
      <trkpt lat="42.55167" lon="1.82122">
        <ele>1725.8</ele>
        <time>2020-02-14T02:30:36.483Z</time>
      </trkpt>
      <trkpt lat="42.55161" lon="1.82128">
        <ele>1724.3</ele>
        <time>2020-02-14T02:30:39.878Z</time>
      </trkpt>
      <trkpt lat="42.55157" lon="1.82129">
        <ele>1723.8</ele>
        <time>2020-02-14T02:30:42.002Z</time>
      </trkpt>
      <trkpt lat="42.55154" lon="1.82129">
        <ele>1723.3</ele>
        <time>2020-02-14T02:30:43.450Z</time>
      </trkpt>
      <trkpt lat="42.55145" lon="1.82134">
        <ele>1721.5</ele>
        <time>2020-02-14T02:30:48.258Z</time>
      </trkpt>
      <trkpt lat="42.55143" lon="1.82138">
        <ele>1720.5</ele>
        <time>2020-02-14T02:30:50.276Z</time>
      </trkpt>
      <trkpt lat="42.55135" lon="1.82136">
        <ele>1719.5</ele>
        <time>2020-02-14T02:30:54.045Z</time>
      </trkpt>
      <trkpt lat="42.55124" lon="1.82141">
        <ele>1716.1</ele>
        <time>2020-02-14T02:31:00.295Z</time>
      </trkpt>
      <trkpt lat="42.5512" lon="1.82145">
        <ele>1715.1</ele>
        <time>2020-02-14T02:31:02.638Z</time>
      </trkpt>
      <trkpt lat="42.55113" lon="1.8215">
        <ele>1713.8</ele>
        <time>2020-02-14T02:31:06.527Z</time>
      </trkpt>
      <trkpt lat="42.55106" lon="1.82157">
        <ele>1713.2</ele>
        <time>2020-02-14T02:31:10.541Z</time>
      </trkpt>
      <trkpt lat="42.55103" lon="1.82161">
        <ele>1713.2</ele>
        <time>2020-02-14T02:31:12.725Z</time>
      </trkpt>
      <trkpt lat="42.55094" lon="1.82166">
        <ele>1709.4</ele>
        <time>2020-02-14T02:31:17.862Z</time>
      </trkpt>
      <trkpt lat="42.55082" lon="1.82175">
        <ele>1707</ele>
        <time>2020-02-14T02:31:24.631Z</time>
      </trkpt>
      <trkpt lat="42.55075" lon="1.82183">
        <ele>1705.5</ele>
        <time>2020-02-14T02:31:29.007Z</time>
      </trkpt>
      <trkpt lat="42.55073" lon="1.82187">
        <ele>1705</ele>
        <time>2020-02-14T02:31:30.649Z</time>
      </trkpt>
      <trkpt lat="42.55064" lon="1.82199">
        <ele>1702.7</ele>
        <time>2020-02-14T02:31:37.027Z</time>
      </trkpt>
      <trkpt lat="42.55061" lon="1.82201">
        <ele>1701.8</ele>
        <time>2020-02-14T02:31:38.627Z</time>
      </trkpt>
      <trkpt lat="42.55053" lon="1.8221">
        <ele>1698.8</ele>
        <time>2020-02-14T02:31:43.932Z</time>
      </trkpt>
      <trkpt lat="42.55047" lon="1.82217">
        <ele>1698.3</ele>
        <time>2020-02-14T02:31:47.768Z</time>
      </trkpt>
      <trkpt lat="42.55045" lon="1.8222">
        <ele>1697.4</ele>
        <time>2020-02-14T02:31:49.234Z</time>
      </trkpt>
      <trkpt lat="42.5504" lon="1.82226">
        <ele>1695.9</ele>
        <time>2020-02-14T02:31:52.739Z</time>
      </trkpt>
      <trkpt lat="42.55037" lon="1.8223">
        <ele>1696</ele>
        <time>2020-02-14T02:31:54.729Z</time>
      </trkpt>
      <trkpt lat="42.55035" lon="1.82234">
        <ele>1695.4</ele>
        <time>2020-02-14T02:31:56.479Z</time>
      </trkpt>
      <trkpt lat="42.55027" lon="1.82242">
        <ele>1692.5</ele>
        <time>2020-02-14T02:32:01.559Z</time>
      </trkpt>
      <trkpt lat="42.55011" lon="1.8226">
        <ele>1689.7</ele>
        <time>2020-02-14T02:32:11.583Z</time>
      </trkpt>
      <trkpt lat="42.54824" lon="1.83247">
        <ele>1619.5</ele>
        <time>2020-02-14T03:00:37.000Z</time>
      </trkpt>
      <trkpt lat="42.54824" lon="1.83247">
        <ele>1626.3</ele>
        <time>2020-02-14T03:00:39.350Z</time>
      </trkpt>
      <trkpt lat="42.54824" lon="1.83247">
        <ele>1622.4</ele>
        <time>2020-02-14T03:00:40.694Z</time>
      </trkpt>
      <trkpt lat="42.54824" lon="1.83247">
        <ele>1623.3</ele>
        <time>2020-02-14T03:00:41.004Z</time>
      </trkpt>
      <trkpt lat="42.54824" lon="1.83247">
        <ele>1620.5</ele>
        <time>2020-02-14T03:00:41.985Z</time>
      </trkpt>
      <trkpt lat="42.54824" lon="1.83247">
        <ele>1614.2</ele>
        <time>2020-02-14T03:00:44.160Z</time>
      </trkpt>
      <trkpt lat="42.54824" lon="1.83247">
        <ele>1628.6</ele>
        <time>2020-02-14T03:00:49.163Z</time>
      </trkpt>
      <trkpt lat="42.54824" lon="1.83247">
        <ele>1614.3</ele>
        <time>2020-02-14T03:00:54.156Z</time>
      </trkpt>
      <trkpt lat="42.54824" lon="1.83247">
        <ele>1620.9</ele>
        <time>2020-02-14T03:00:56.476Z</time>
      </trkpt>
      <trkpt lat="42.54824" lon="1.83247">
        <ele>1613.3</ele>
        <time>2020-02-14T03:00:59.143Z</time>
      </trkpt>
      <trkpt lat="42.54824" lon="1.83247">
        <ele>1623.8</ele>
        <time>2020-02-14T03:01:02.812Z</time>
      </trkpt>
      <trkpt lat="42.54824" lon="1.83247">
        <ele>1614.2</ele>
        <time>2020-02-14T03:01:06.152Z</time>
      </trkpt>
      <trkpt lat="42.54824" lon="1.83247">
        <ele>1617.2</ele>
        <time>2020-02-14T03:01:07.180Z</time>
      </trkpt>
      <trkpt lat="42.54823" lon="1.83246">
        <ele>1621.4</ele>
        <time>2020-02-14T03:01:08.686Z</time>
      </trkpt>
      <trkpt lat="42.54823" lon="1.83246">
        <ele>1620</ele>
        <time>2020-02-14T03:01:09.175Z</time>
      </trkpt>
      <trkpt lat="42.54823" lon="1.83247">
        <ele>1620.5</ele>
        <time>2020-02-14T03:01:09.386Z</time>
      </trkpt>
      <trkpt lat="42.54821" lon="1.83246">
        <ele>1616.2</ele>
        <time>2020-02-14T03:01:11.112Z</time>
      </trkpt>
      <trkpt lat="42.5482" lon="1.83247">
        <ele>1622.4</ele>
        <time>2020-02-14T03:01:13.322Z</time>
      </trkpt>
      <trkpt lat="42.54812" lon="1.83248">
        <ele>1619.6</ele>
        <time>2020-02-14T03:01:16.487Z</time>
      </trkpt>
      <trkpt lat="42.54808" lon="1.83256">
        <ele>1616.6</ele>
        <time>2020-02-14T03:01:19.315Z</time>
      </trkpt>
      <trkpt lat="42.54807" lon="1.83257">
        <ele>1622.9</ele>
        <time>2020-02-14T03:01:21.533Z</time>
      </trkpt>
      <trkpt lat="42.54806" lon="1.83258">
        <ele>1615.2</ele>
        <time>2020-02-14T03:01:24.237Z</time>
      </trkpt>
      <trkpt lat="42.54806" lon="1.8326">
        <ele>1621.4</ele>
        <time>2020-02-14T03:01:26.458Z</time>
      </trkpt>
      <trkpt lat="42.548" lon="1.8327">
        <ele>1614.3</ele>
        <time>2020-02-14T03:01:30.903Z</time>
      </trkpt>
      <trkpt lat="42.54799" lon="1.83271">
        <ele>1620</ele>
        <time>2020-02-14T03:01:32.979Z</time>
      </trkpt>
      <trkpt lat="42.54796" lon="1.83273">
        <ele>1619.5</ele>
        <time>2020-02-14T03:01:34.026Z</time>
      </trkpt>
      <trkpt lat="42.54792" lon="1.83275">
        <ele>1623.9</ele>
        <time>2020-02-14T03:01:36.274Z</time>
      </trkpt>
      <trkpt lat="42.54791" lon="1.83276">
        <ele>1619.5</ele>
        <time>2020-02-14T03:01:37.857Z</time>
      </trkpt>
      <trkpt lat="42.54789" lon="1.83277">
        <ele>1620.1</ele>
        <time>2020-02-14T03:01:38.887Z</time>
      </trkpt>
      <trkpt lat="42.54784" lon="1.8328">
        <ele>1620.1</ele>
        <time>2020-02-14T03:01:40.933Z</time>
      </trkpt>
      <trkpt lat="42.54773" lon="1.83285">
        <ele>1620.4</ele>
        <time>2020-02-14T03:01:45.480Z</time>
      </trkpt>
      <trkpt lat="42.54768" lon="1.83293">
        <ele>1620.9</ele>
        <time>2020-02-14T03:01:48.280Z</time>
      </trkpt>
      <trkpt lat="42.54765" lon="1.83316">
        <ele>1621.5</ele>
        <time>2020-02-14T03:01:54.958Z</time>
      </trkpt>
      <trkpt lat="42.54765" lon="1.83321">
        <ele>1622.4</ele>
        <time>2020-02-14T03:01:56.462Z</time>
      </trkpt>
      <trkpt lat="42.54772" lon="1.83335">
        <ele>1622.4</ele>
        <time>2020-02-14T03:02:01.139Z</time>
      </trkpt>
      <trkpt lat="42.54774" lon="1.83337">
        <ele>1622.4</ele>
        <time>2020-02-14T03:02:02.111Z</time>
      </trkpt>
      <trkpt lat="42.54775" lon="1.83343">
        <ele>1623.3</ele>
        <time>2020-02-14T03:02:04.007Z</time>
      </trkpt>
      <trkpt lat="42.54778" lon="1.83347">
        <ele>1622.9</ele>
        <time>2020-02-14T03:02:05.501Z</time>
      </trkpt>
      <trkpt lat="42.54788" lon="1.83356">
        <ele>1624.4</ele>
        <time>2020-02-14T03:02:10.230Z</time>
      </trkpt>
      <trkpt lat="42.54799" lon="1.83357">
        <ele>1624.9</ele>
        <time>2020-02-14T03:02:14.450Z</time>
      </trkpt>
      <trkpt lat="42.54814" lon="1.83356">
        <ele>1626.3</ele>
        <time>2020-02-14T03:02:20.419Z</time>
      </trkpt>
      <trkpt lat="42.54835" lon="1.83357">
        <ele>1627.8</ele>
        <time>2020-02-14T03:02:28.444Z</time>
      </trkpt>
      <trkpt lat="42.5485" lon="1.8337">
        <ele>1628.2</ele>
        <time>2020-02-14T03:02:35.144Z</time>
      </trkpt>
      <trkpt lat="42.54856" lon="1.83377">
        <ele>1629.2</ele>
        <time>2020-02-14T03:02:38.294Z</time>
      </trkpt>
      <trkpt lat="42.54867" lon="1.83387">
        <ele>1630.2</ele>
        <time>2020-02-14T03:02:43.344Z</time>
      </trkpt>
      <trkpt lat="42.54877" lon="1.83395">
        <ele>1630.5</ele>
        <time>2020-02-14T03:02:47.924Z</time>
      </trkpt>
      <trkpt lat="42.5488" lon="1.83401">
        <ele>1631</ele>
        <time>2020-02-14T03:02:50.099Z</time>
      </trkpt>
      <trkpt lat="42.54888" lon="1.8342">
        <ele>1632</ele>
        <time>2020-02-14T03:02:56.235Z</time>
      </trkpt>
      <trkpt lat="42.54891" lon="1.83445">
        <ele>1631.6</ele>
        <time>2020-02-14T03:03:03.414Z</time>
      </trkpt>
      <trkpt lat="42.54895" lon="1.83452">
        <ele>1632</ele>
        <time>2020-02-14T03:03:05.830Z</time>
      </trkpt>
      <trkpt lat="42.54899" lon="1.83474">
        <ele>1632.9</ele>
        <time>2020-02-14T03:03:12.310Z</time>
      </trkpt>
      <trkpt lat="42.54901" lon="1.83488">
        <ele>1633.5</ele>
        <time>2020-02-14T03:03:16.318Z</time>
      </trkpt>
      <trkpt lat="42.54904" lon="1.83512">
        <ele>1633.9</ele>
        <time>2020-02-14T03:03:23.297Z</time>
      </trkpt>
      <trkpt lat="42.54904" lon="1.83519">
        <ele>1634</ele>
        <time>2020-02-14T03:03:25.417Z</time>
      </trkpt>
      <trkpt lat="42.54904" lon="1.83531">
        <ele>1634.4</ele>
        <time>2020-02-14T03:03:28.664Z</time>
      </trkpt>
      <trkpt lat="42.54904" lon="1.83557">
        <ele>1634.9</ele>
        <time>2020-02-14T03:03:36.204Z</time>
      </trkpt>
      <trkpt lat="42.54904" lon="1.83563">
        <ele>1634.9</ele>
        <time>2020-02-14T03:03:37.772Z</time>
      </trkpt>
      <trkpt lat="42.54904" lon="1.83567">
        <ele>1634.4</ele>
        <time>2020-02-14T03:03:38.937Z</time>
      </trkpt>
      <trkpt lat="42.54903" lon="1.8357">
        <ele>1634.9</ele>
        <time>2020-02-14T03:03:40.059Z</time>
      </trkpt>
      <trkpt lat="42.54901" lon="1.83583">
        <ele>1634.5</ele>
        <time>2020-02-14T03:03:43.694Z</time>
      </trkpt>
      <trkpt lat="42.549" lon="1.83593">
        <ele>1634.9</ele>
        <time>2020-02-14T03:03:46.684Z</time>
      </trkpt>
      <trkpt lat="42.549" lon="1.8361">
        <ele>1635.3</ele>
        <time>2020-02-14T03:03:51.521Z</time>
      </trkpt>
      <trkpt lat="42.549" lon="1.83616">
        <ele>1635.4</ele>
        <time>2020-02-14T03:03:53.121Z</time>
      </trkpt>
      <trkpt lat="42.54901" lon="1.83637">
        <ele>1635.3</ele>
        <time>2020-02-14T03:03:59.244Z</time>
      </trkpt>
      <trkpt lat="42.54902" lon="1.83651">
        <ele>1636.3</ele>
        <time>2020-02-14T03:04:03.317Z</time>
      </trkpt>
      <trkpt lat="42.54902" lon="1.83673">
        <ele>1636.9</ele>
        <time>2020-02-14T03:04:09.443Z</time>
      </trkpt>
      <trkpt lat="42.54902" lon="1.83678">
        <ele>1636.8</ele>
        <time>2020-02-14T03:04:10.967Z</time>
      </trkpt>
      <trkpt lat="42.54906" lon="1.83696">
        <ele>1637.8</ele>
        <time>2020-02-14T03:04:16.278Z</time>
      </trkpt>
      <trkpt lat="42.54906" lon="1.83721">
        <ele>1638.2</ele>
        <time>2020-02-14T03:04:23.445Z</time>
      </trkpt>
      <trkpt lat="42.54907" lon="1.83729">
        <ele>1638.7</ele>
        <time>2020-02-14T03:04:25.720Z</time>
      </trkpt>
      <trkpt lat="42.54909" lon="1.83742">
        <ele>1638.8</ele>
        <time>2020-02-14T03:04:29.503Z</time>
      </trkpt>
      <trkpt lat="42.54911" lon="1.83761">
        <ele>1640.2</ele>
        <time>2020-02-14T03:04:34.917Z</time>
      </trkpt>
      <trkpt lat="42.54911" lon="1.83778">
        <ele>1640.7</ele>
        <time>2020-02-14T03:04:39.812Z</time>
      </trkpt>
      <trkpt lat="42.54911" lon="1.83791">
        <ele>1641.1</ele>
        <time>2020-02-14T03:04:43.368Z</time>
      </trkpt>
      <trkpt lat="42.54911" lon="1.838">
        <ele>1641.7</ele>
        <time>2020-02-14T03:04:46.079Z</time>
      </trkpt>
      <trkpt lat="42.54911" lon="1.83811">
        <ele>1642.2</ele>
        <time>2020-02-14T03:04:49.155Z</time>
      </trkpt>
      <trkpt lat="42.54912" lon="1.83814">
        <ele>1642.1</ele>
        <time>2020-02-14T03:04:50.050Z</time>
      </trkpt>
      <trkpt lat="42.54914" lon="1.8382">
        <ele>1642.2</ele>
        <time>2020-02-14T03:04:51.810Z</time>
      </trkpt>
      <trkpt lat="42.54914" lon="1.8383">
        <ele>1642.2</ele>
        <time>2020-02-14T03:04:54.808Z</time>
      </trkpt>
      <trkpt lat="42.54915" lon="1.83844">
        <ele>1643.5</ele>
        <time>2020-02-14T03:04:58.702Z</time>
      </trkpt>
      <trkpt lat="42.54916" lon="1.83852">
        <ele>1643</ele>
        <time>2020-02-14T03:05:00.991Z</time>
      </trkpt>
      <trkpt lat="42.54917" lon="1.83864">
        <ele>1643.5</ele>
        <time>2020-02-14T03:05:04.571Z</time>
      </trkpt>
      <trkpt lat="42.54918" lon="1.83867">
        <ele>1644</ele>
        <time>2020-02-14T03:05:05.449Z</time>
      </trkpt>
      <trkpt lat="42.54918" lon="1.83875">
        <ele>1644.6</ele>
        <time>2020-02-14T03:05:07.706Z</time>
      </trkpt>
      <trkpt lat="42.54921" lon="1.83878">
        <ele>1644.6</ele>
        <time>2020-02-14T03:05:09.052Z</time>
      </trkpt>
      <trkpt lat="42.54921" lon="1.83885">
        <ele>1644</ele>
        <time>2020-02-14T03:05:11.209Z</time>
      </trkpt>
      <trkpt lat="42.54921" lon="1.83893">
        <ele>1645.1</ele>
        <time>2020-02-14T03:05:13.553Z</time>
      </trkpt>
      <trkpt lat="42.5492" lon="1.8392">
        <ele>1645.4</ele>
        <time>2020-02-14T03:05:21.062Z</time>
      </trkpt>
      <trkpt lat="42.5492" lon="1.83934">
        <ele>1645.9</ele>
        <time>2020-02-14T03:05:25.056Z</time>
      </trkpt>
      <trkpt lat="42.54919" lon="1.83956">
        <ele>1646.9</ele>
        <time>2020-02-14T03:05:31.450Z</time>
      </trkpt>
      <trkpt lat="42.54919" lon="1.8396">
        <ele>1647.4</ele>
        <time>2020-02-14T03:05:32.536Z</time>
      </trkpt>
      <trkpt lat="42.54916" lon="1.83985">
        <ele>1647.8</ele>
        <time>2020-02-14T03:05:39.828Z</time>
      </trkpt>
      <trkpt lat="42.54916" lon="1.83989">
        <ele>1647.8</ele>
        <time>2020-02-14T03:05:40.799Z</time>
      </trkpt>
      <trkpt lat="42.54915" lon="1.83998">
        <ele>1648.8</ele>
        <time>2020-02-14T03:05:43.632Z</time>
      </trkpt>
      <trkpt lat="42.54917" lon="1.84017">
        <ele>1649.8</ele>
        <time>2020-02-14T03:05:49.024Z</time>
      </trkpt>
      <trkpt lat="42.5492" lon="1.84033">
        <ele>1650.2</ele>
        <time>2020-02-14T03:05:53.563Z</time>
      </trkpt>
      <trkpt lat="42.54921" lon="1.84038">
        <ele>1650.8</ele>
        <time>2020-02-14T03:05:55.111Z</time>
      </trkpt>
      <trkpt lat="42.54922" lon="1.84044">
        <ele>1651.3</ele>
        <time>2020-02-14T03:05:57.043Z</time>
      </trkpt>
      <trkpt lat="42.54926" lon="1.84058">
        <ele>1651.8</ele>
        <time>2020-02-14T03:06:01.183Z</time>
      </trkpt>
      <trkpt lat="42.54934" lon="1.84071">
        <ele>1652.3</ele>
        <time>2020-02-14T03:06:06.214Z</time>
      </trkpt>
      <trkpt lat="42.54937" lon="1.8409">
        <ele>1654.1</ele>
        <time>2020-02-14T03:06:11.757Z</time>
      </trkpt>
      <trkpt lat="42.54941" lon="1.84105">
        <ele>1654.6</ele>
        <time>2020-02-14T03:06:16.235Z</time>
      </trkpt>
      <trkpt lat="42.54942" lon="1.84112">
        <ele>1654.6</ele>
        <time>2020-02-14T03:06:18.323Z</time>
      </trkpt>
      <trkpt lat="42.54943" lon="1.84119">
        <ele>1654.7</ele>
        <time>2020-02-14T03:06:20.193Z</time>
      </trkpt>
      <trkpt lat="42.54943" lon="1.84133">
        <ele>1655.1</ele>
        <time>2020-02-14T03:06:24.093Z</time>
      </trkpt>
      <trkpt lat="42.54943" lon="1.84144">
        <ele>1655.5</ele>
        <time>2020-02-14T03:06:27.321Z</time>
      </trkpt>
      <trkpt lat="42.54947" lon="1.84158">
        <ele>1656.1</ele>
        <time>2020-02-14T03:06:31.661Z</time>
      </trkpt>
      <trkpt lat="42.54946" lon="1.84161">
        <ele>1655.5</ele>
        <time>2020-02-14T03:06:32.466Z</time>
      </trkpt>
      <trkpt lat="42.54947" lon="1.84173">
        <ele>1656.5</ele>
        <time>2020-02-14T03:06:35.885Z</time>
      </trkpt>
      <trkpt lat="42.54949" lon="1.84187">
        <ele>1657</ele>
        <time>2020-02-14T03:06:39.926Z</time>
      </trkpt>
      <trkpt lat="42.5495" lon="1.84193">
        <ele>1657</ele>
        <time>2020-02-14T03:06:41.790Z</time>
      </trkpt>
      <trkpt lat="42.54956" lon="1.8422">
        <ele>1657.1</ele>
        <time>2020-02-14T03:06:49.731Z</time>
      </trkpt>
      <trkpt lat="42.54958" lon="1.84226">
        <ele>1656</ele>
        <time>2020-02-14T03:06:51.630Z</time>
      </trkpt>
      <trkpt lat="42.54968" lon="1.84244">
        <ele>1656.5</ele>
        <time>2020-02-14T03:06:58.184Z</time>
      </trkpt>
      <trkpt lat="42.54976" lon="1.84252">
        <ele>1657.1</ele>
        <time>2020-02-14T03:07:01.860Z</time>
      </trkpt>
      <trkpt lat="42.54978" lon="1.84248">
        <ele>1660</ele>
        <time>2020-02-14T03:07:03.664Z</time>
      </trkpt>
      <trkpt lat="42.54978" lon="1.84248">
        <ele>1665.7</ele>
        <time>2020-02-14T03:07:05.647Z</time>
      </trkpt>
      <trkpt lat="42.54978" lon="1.84248">
        <ele>1659.4</ele>
        <time>2020-02-14T03:07:07.817Z</time>
      </trkpt>
      <trkpt lat="42.54978" lon="1.84248">
        <ele>1658.4</ele>
        <time>2020-02-14T03:07:08.157Z</time>
      </trkpt>
      <trkpt lat="42.54978" lon="1.84248">
        <ele>1657.5</ele>
        <time>2020-02-14T03:07:08.473Z</time>
      </trkpt>
      <trkpt lat="42.54978" lon="1.84248">
        <ele>1660.8</ele>
        <time>2020-02-14T03:07:09.622Z</time>
      </trkpt>
      <trkpt lat="42.54978" lon="1.84247">
        <ele>1660.8</ele>
        <time>2020-02-14T03:07:09.688Z</time>
      </trkpt>
      <trkpt lat="42.54978" lon="1.84247">
        <ele>1656.5</ele>
        <time>2020-02-14T03:07:11.178Z</time>
      </trkpt>
      <trkpt lat="42.54978" lon="1.84247">
        <ele>1657</ele>
        <time>2020-02-14T03:07:11.345Z</time>
      </trkpt>
      <trkpt lat="42.54978" lon="1.84247">
        <ele>1662.3</ele>
        <time>2020-02-14T03:07:13.187Z</time>
      </trkpt>
      <trkpt lat="42.54978" lon="1.84247">
        <ele>1655.2</ele>
        <time>2020-02-14T03:07:15.657Z</time>
      </trkpt>
      <trkpt lat="42.54978" lon="1.84247">
        <ele>1660.3</ele>
        <time>2020-02-14T03:07:17.437Z</time>
      </trkpt>
      <trkpt lat="42.54978" lon="1.84247">
        <ele>1664.2</ele>
        <time>2020-02-14T03:07:18.792Z</time>
      </trkpt>
      <trkpt lat="42.54978" lon="1.84247">
        <ele>1663.8</ele>
        <time>2020-02-14T03:07:18.951Z</time>
      </trkpt>
      <trkpt lat="42.54978" lon="1.84247">
        <ele>1659.4</ele>
        <time>2020-02-14T03:07:20.461Z</time>
      </trkpt>
      <trkpt lat="42.54978" lon="1.84247">
        <ele>1654.2</ele>
        <time>2020-02-14T03:07:22.271Z</time>
      </trkpt>
      <trkpt lat="42.54978" lon="1.84247">
        <ele>1660.4</ele>
        <time>2020-02-14T03:07:24.413Z</time>
      </trkpt>
      <trkpt lat="42.54978" lon="1.84247">
        <ele>1664.7</ele>
        <time>2020-02-14T03:07:25.921Z</time>
      </trkpt>
      <trkpt lat="42.54978" lon="1.84247">
        <ele>1659.9</ele>
        <time>2020-02-14T03:07:27.584Z</time>
      </trkpt>
      <trkpt lat="42.54984" lon="1.84249">
        <ele>1662.7</ele>
        <time>2020-02-14T03:07:30.130Z</time>
      </trkpt>
      <trkpt lat="42.5499" lon="1.84256">
        <ele>1665.1</ele>
        <time>2020-02-14T03:07:33.140Z</time>
      </trkpt>
      <trkpt lat="42.54996" lon="1.84267">
        <ele>1667.2</ele>
        <time>2020-02-14T03:07:37.121Z</time>
      </trkpt>
      <trkpt lat="42.55001" lon="1.84271">
        <ele>1669.1</ele>
        <time>2020-02-14T03:07:39.438Z</time>
      </trkpt>
      <trkpt lat="42.55005" lon="1.84269">
        <ele>1672</ele>
        <time>2020-02-14T03:07:41.394Z</time>
      </trkpt>
      <trkpt lat="42.55006" lon="1.84258">
        <ele>1672.8</ele>
        <time>2020-02-14T03:07:44.554Z</time>
      </trkpt>
      <trkpt lat="42.55006" lon="1.84257">
        <ele>1672.9</ele>
        <time>2020-02-14T03:07:44.905Z</time>
      </trkpt>
      <trkpt lat="42.55005" lon="1.84249">
        <ele>1675.7</ele>
        <time>2020-02-14T03:07:47.313Z</time>
      </trkpt>
      <trkpt lat="42.55005" lon="1.84242">
        <ele>1678.1</ele>
        <time>2020-02-14T03:07:49.561Z</time>
      </trkpt>
      <trkpt lat="42.55004" lon="1.8423">
        <ele>1680.1</ele>
        <time>2020-02-14T03:07:52.934Z</time>
      </trkpt>
      <trkpt lat="42.55005" lon="1.84226">
        <ele>1681.5</ele>
        <time>2020-02-14T03:07:54.380Z</time>
      </trkpt>
      <trkpt lat="42.55005" lon="1.84219">
        <ele>1682.9</ele>
        <time>2020-02-14T03:07:56.439Z</time>
      </trkpt>
      <trkpt lat="42.55009" lon="1.84221">
        <ele>1684.4</ele>
        <time>2020-02-14T03:07:58.142Z</time>
      </trkpt>
      <trkpt lat="42.55011" lon="1.84221">
        <ele>1684.5</ele>
        <time>2020-02-14T03:07:58.995Z</time>
      </trkpt>
      <trkpt lat="42.55019" lon="1.84229">
        <ele>1684.9</ele>
        <time>2020-02-14T03:08:02.850Z</time>
      </trkpt>
      <trkpt lat="42.55022" lon="1.84243">
        <ele>1686.4</ele>
        <time>2020-02-14T03:08:07.038Z</time>
      </trkpt>
      <trkpt lat="42.55026" lon="1.84252">
        <ele>1686.8</ele>
        <time>2020-02-14T03:08:09.892Z</time>
      </trkpt>
      <trkpt lat="42.55027" lon="1.84265">
        <ele>1687.3</ele>
        <time>2020-02-14T03:08:13.634Z</time>
      </trkpt>
      <trkpt lat="42.55029" lon="1.84275">
        <ele>1686.9</ele>
        <time>2020-02-14T03:08:16.557Z</time>
      </trkpt>
      <trkpt lat="42.55035" lon="1.84288">
        <ele>1687.8</ele>
        <time>2020-02-14T03:08:21.023Z</time>
      </trkpt>
      <trkpt lat="42.55036" lon="1.84295">
        <ele>1688.3</ele>
        <time>2020-02-14T03:08:23.132Z</time>
      </trkpt>
      <trkpt lat="42.55038" lon="1.84308">
        <ele>1688.8</ele>
        <time>2020-02-14T03:08:26.839Z</time>
      </trkpt>
      <trkpt lat="42.55037" lon="1.8431">
        <ele>1689.2</ele>
        <time>2020-02-14T03:08:27.299Z</time>
      </trkpt>
      <trkpt lat="42.5504" lon="1.84322">
        <ele>1689.7</ele>
        <time>2020-02-14T03:08:30.965Z</time>
      </trkpt>
      <trkpt lat="42.55039" lon="1.84331">
        <ele>1690.1</ele>
        <time>2020-02-14T03:08:33.628Z</time>
      </trkpt>
      <trkpt lat="42.55039" lon="1.8435">
        <ele>1691.2</ele>
        <time>2020-02-14T03:08:39.107Z</time>
      </trkpt>
      <trkpt lat="42.55038" lon="1.84356">
        <ele>1690.6</ele>
        <time>2020-02-14T03:08:40.712Z</time>
      </trkpt>
      <trkpt lat="42.55038" lon="1.84364">
        <ele>1689.8</ele>
        <time>2020-02-14T03:08:43.034Z</time>
      </trkpt>
      <trkpt lat="42.55039" lon="1.84367">
        <ele>1689.7</ele>
        <time>2020-02-14T03:08:43.874Z</time>
      </trkpt>
      <trkpt lat="42.55042" lon="1.84381">
        <ele>1691.7</ele>
        <time>2020-02-14T03:08:48.242Z</time>
      </trkpt>
      <trkpt lat="42.55046" lon="1.84391">
        <ele>1693.1</ele>
        <time>2020-02-14T03:08:51.463Z</time>
      </trkpt>
      <trkpt lat="42.55048" lon="1.84403">
        <ele>1694.1</ele>
        <time>2020-02-14T03:08:54.874Z</time>
      </trkpt>
      <trkpt lat="42.55048" lon="1.84412">
        <ele>1694</ele>
        <time>2020-02-14T03:08:57.520Z</time>
      </trkpt>
      <trkpt lat="42.55051" lon="1.84426">
        <ele>1694.9</ele>
        <time>2020-02-14T03:09:01.467Z</time>
      </trkpt>
      <trkpt lat="42.55053" lon="1.84439">
        <ele>1695.9</ele>
        <time>2020-02-14T03:09:05.532Z</time>
      </trkpt>
      <trkpt lat="42.55054" lon="1.84444">
        <ele>1695.5</ele>
        <time>2020-02-14T03:09:06.865Z</time>
      </trkpt>
      <trkpt lat="42.55057" lon="1.84456">
        <ele>1696.5</ele>
        <time>2020-02-14T03:09:10.622Z</time>
      </trkpt>
      <trkpt lat="42.55057" lon="1.84468">
        <ele>1696</ele>
        <time>2020-02-14T03:09:14.070Z</time>
      </trkpt>
      <trkpt lat="42.5506" lon="1.84475">
        <ele>1696.5</ele>
        <time>2020-02-14T03:09:16.353Z</time>
      </trkpt>
      <trkpt lat="42.55064" lon="1.84487">
        <ele>1697.9</ele>
        <time>2020-02-14T03:09:19.936Z</time>
      </trkpt>
      <trkpt lat="42.55065" lon="1.84502">
        <ele>1698.3</ele>
        <time>2020-02-14T03:09:24.426Z</time>
      </trkpt>
      <trkpt lat="42.55064" lon="1.84518">
        <ele>1699.8</ele>
        <time>2020-02-14T03:09:28.858Z</time>
      </trkpt>
      <trkpt lat="42.55064" lon="1.84524">
        <ele>1699.9</ele>
        <time>2020-02-14T03:09:30.713Z</time>
      </trkpt>
      <trkpt lat="42.55064" lon="1.84541">
        <ele>1700.8</ele>
        <time>2020-02-14T03:09:35.502Z</time>
      </trkpt>
      <trkpt lat="42.55063" lon="1.84553">
        <ele>1701.7</ele>
        <time>2020-02-14T03:09:38.880Z</time>
      </trkpt>
      <trkpt lat="42.55063" lon="1.84561">
        <ele>1702.6</ele>
        <time>2020-02-14T03:09:41.125Z</time>
      </trkpt>
      <trkpt lat="42.55064" lon="1.84575">
        <ele>1704.1</ele>
        <time>2020-02-14T03:09:45.336Z</time>
      </trkpt>
      <trkpt lat="42.55064" lon="1.84578">
        <ele>1703.7</ele>
        <time>2020-02-14T03:09:46.255Z</time>
      </trkpt>
      <trkpt lat="42.55064" lon="1.84598">
        <ele>1704.2</ele>
        <time>2020-02-14T03:09:51.751Z</time>
      </trkpt>
      <trkpt lat="42.5507" lon="1.84614">
        <ele>1705.1</ele>
        <time>2020-02-14T03:09:56.918Z</time>
      </trkpt>
      <trkpt lat="42.55071" lon="1.84623">
        <ele>1705.1</ele>
        <time>2020-02-14T03:09:59.347Z</time>
      </trkpt>
      <trkpt lat="42.55078" lon="1.84635">
        <ele>1706.5</ele>
        <time>2020-02-14T03:10:03.912Z</time>
      </trkpt>
      <trkpt lat="42.55084" lon="1.84645">
        <ele>1708</ele>
        <time>2020-02-14T03:10:07.406Z</time>
      </trkpt>
      <trkpt lat="42.55086" lon="1.84653">
        <ele>1708</ele>
        <time>2020-02-14T03:10:09.938Z</time>
      </trkpt>
      <trkpt lat="42.55086" lon="1.84657">
        <ele>1707</ele>
        <time>2020-02-14T03:10:11.013Z</time>
      </trkpt>
      <trkpt lat="42.5509" lon="1.84666">
        <ele>1707.4</ele>
        <time>2020-02-14T03:10:14.122Z</time>
      </trkpt>
      <trkpt lat="42.55095" lon="1.84679">
        <ele>1707.4</ele>
        <time>2020-02-14T03:10:18.148Z</time>
      </trkpt>
      <trkpt lat="42.55096" lon="1.84684">
        <ele>1708</ele>
        <time>2020-02-14T03:10:19.710Z</time>
      </trkpt>
      <trkpt lat="42.55099" lon="1.84693">
        <ele>1709.5</ele>
        <time>2020-02-14T03:10:22.468Z</time>
      </trkpt>
      <trkpt lat="42.55103" lon="1.84703">
        <ele>1711.3</ele>
        <time>2020-02-14T03:10:25.889Z</time>
      </trkpt>
      <trkpt lat="42.55107" lon="1.84714">
        <ele>1711.3</ele>
        <time>2020-02-14T03:10:29.327Z</time>
      </trkpt>
      <trkpt lat="42.55107" lon="1.84716">
        <ele>1711.3</ele>
        <time>2020-02-14T03:10:29.960Z</time>
      </trkpt>
      <trkpt lat="42.55111" lon="1.84725">
        <ele>1710.9</ele>
        <time>2020-02-14T03:10:32.874Z</time>
      </trkpt>
      <trkpt lat="42.55112" lon="1.84728">
        <ele>1710.8</ele>
        <time>2020-02-14T03:10:33.809Z</time>
      </trkpt>
      <trkpt lat="42.55116" lon="1.84744">
        <ele>1710.9</ele>
        <time>2020-02-14T03:10:38.480Z</time>
      </trkpt>
      <trkpt lat="42.5512" lon="1.84754">
        <ele>1712.4</ele>
        <time>2020-02-14T03:10:41.935Z</time>
      </trkpt>
      <trkpt lat="42.55124" lon="1.84762">
        <ele>1713.2</ele>
        <time>2020-02-14T03:10:44.612Z</time>
      </trkpt>
      <trkpt lat="42.55129" lon="1.84777">
        <ele>1713.7</ele>
        <time>2020-02-14T03:10:49.492Z</time>
      </trkpt>
      <trkpt lat="42.55134" lon="1.84792">
        <ele>1714.3</ele>
        <time>2020-02-14T03:10:54.056Z</time>
      </trkpt>
      <trkpt lat="42.55137" lon="1.84802">
        <ele>1714.8</ele>
        <time>2020-02-14T03:10:57.081Z</time>
      </trkpt>
      <trkpt lat="42.55141" lon="1.84813">
        <ele>1715.6</ele>
        <time>2020-02-14T03:11:00.481Z</time>
      </trkpt>
      <trkpt lat="42.55149" lon="1.84833">
        <ele>1715.1</ele>
        <time>2020-02-14T03:11:07.086Z</time>
      </trkpt>
      <trkpt lat="42.55152" lon="1.84846">
        <ele>1715.7</ele>
        <time>2020-02-14T03:11:11.002Z</time>
      </trkpt>
      <trkpt lat="42.55153" lon="1.84861">
        <ele>1717.1</ele>
        <time>2020-02-14T03:11:15.264Z</time>
      </trkpt>
      <trkpt lat="42.55157" lon="1.84874">
        <ele>1718.6</ele>
        <time>2020-02-14T03:11:19.369Z</time>
      </trkpt>
      <trkpt lat="42.55159" lon="1.84887">
        <ele>1718.5</ele>
        <time>2020-02-14T03:11:23.227Z</time>
      </trkpt>
      <trkpt lat="42.55162" lon="1.84891">
        <ele>1720.5</ele>
        <time>2020-02-14T03:11:24.703Z</time>
      </trkpt>
      <trkpt lat="42.55163" lon="1.84897">
        <ele>1720.9</ele>
        <time>2020-02-14T03:11:26.472Z</time>
      </trkpt>
      <trkpt lat="42.55166" lon="1.84913">
        <ele>1721.4</ele>
        <time>2020-02-14T03:11:31.206Z</time>
      </trkpt>
      <trkpt lat="42.55167" lon="1.84918">
        <ele>1722.9</ele>
        <time>2020-02-14T03:11:32.853Z</time>
      </trkpt>
      <trkpt lat="42.55168" lon="1.84934">
        <ele>1721.9</ele>
        <time>2020-02-14T03:11:37.405Z</time>
      </trkpt>
      <trkpt lat="42.55171" lon="1.84942">
        <ele>1724.4</ele>
        <time>2020-02-14T03:11:40.091Z</time>
      </trkpt>
      <trkpt lat="42.55172" lon="1.84943">
        <ele>1724.8</ele>
        <time>2020-02-14T03:11:40.707Z</time>
      </trkpt>
      <trkpt lat="42.55175" lon="1.84946">
        <ele>1725.2</ele>
        <time>2020-02-14T03:11:42.013Z</time>
      </trkpt>
      <trkpt lat="42.55174" lon="1.84963">
        <ele>1725.7</ele>
        <time>2020-02-14T03:11:47.008Z</time>
      </trkpt>
      <trkpt lat="42.55176" lon="1.84972">
        <ele>1726.3</ele>
        <time>2020-02-14T03:11:49.724Z</time>
      </trkpt>
      <trkpt lat="42.55178" lon="1.84977">
        <ele>1726.2</ele>
        <time>2020-02-14T03:11:51.219Z</time>
      </trkpt>
      <trkpt lat="42.5518" lon="1.84996">
        <ele>1726.3</ele>
        <time>2020-02-14T03:11:56.664Z</time>
      </trkpt>
      <trkpt lat="42.55183" lon="1.85009">
        <ele>1726.2</ele>
        <time>2020-02-14T03:12:00.628Z</time>
      </trkpt>
      <trkpt lat="42.55184" lon="1.85013">
        <ele>1726.7</ele>
        <time>2020-02-14T03:12:01.624Z</time>
      </trkpt>
      <trkpt lat="42.55188" lon="1.85024">
        <ele>1727.2</ele>
        <time>2020-02-14T03:12:05.244Z</time>
      </trkpt>
      <trkpt lat="42.55193" lon="1.85032">
        <ele>1730.1</ele>
        <time>2020-02-14T03:12:08.277Z</time>
      </trkpt>
      <trkpt lat="42.55197" lon="1.85041">
        <ele>1730.5</ele>
        <time>2020-02-14T03:12:11.452Z</time>
      </trkpt>
      <trkpt lat="42.55197" lon="1.8505">
        <ele>1731.5</ele>
        <time>2020-02-14T03:12:13.844Z</time>
      </trkpt>
      <trkpt lat="42.55197" lon="1.8505">
        <ele>1731.5</ele>
        <time>2020-02-14T03:12:14.009Z</time>
      </trkpt>
      <trkpt lat="42.55198" lon="1.8505">
        <ele>1730.5</ele>
        <time>2020-02-14T03:12:14.458Z</time>
      </trkpt>
      <trkpt lat="42.55198" lon="1.85051">
        <ele>1731.1</ele>
        <time>2020-02-14T03:12:14.760Z</time>
      </trkpt>
      <trkpt lat="42.55198" lon="1.8505">
        <ele>1731.5</ele>
        <time>2020-02-14T03:12:14.981Z</time>
      </trkpt>
      <trkpt lat="42.55198" lon="1.8505">
        <ele>1731.5</ele>
        <time>2020-02-14T03:12:14.985Z</time>
      </trkpt>
      <trkpt lat="42.55198" lon="1.85049">
        <ele>1731</ele>
        <time>2020-02-14T03:12:15.368Z</time>
      </trkpt>
      <trkpt lat="42.552" lon="1.85051">
        <ele>1731.5</ele>
        <time>2020-02-14T03:12:16.157Z</time>
      </trkpt>
      <trkpt lat="42.552" lon="1.85051">
        <ele>1737.8</ele>
        <time>2020-02-14T03:12:18.336Z</time>
      </trkpt>
      <trkpt lat="42.552" lon="1.85051">
        <ele>1733.5</ele>
        <time>2020-02-14T03:12:19.831Z</time>
      </trkpt>
      <trkpt lat="42.552" lon="1.85055">
        <ele>1732.1</ele>
        <time>2020-02-14T03:12:21.127Z</time>
      </trkpt>
      <trkpt lat="42.55203" lon="1.85076">
        <ele>1733.5</ele>
        <time>2020-02-14T03:12:27.287Z</time>
      </trkpt>
      <trkpt lat="42.55207" lon="1.85093">
        <ele>1734.4</ele>
        <time>2020-02-14T03:12:32.333Z</time>
      </trkpt>
      <trkpt lat="42.55209" lon="1.85101">
        <ele>1733.5</ele>
        <time>2020-02-14T03:12:34.652Z</time>
      </trkpt>
      <trkpt lat="42.55215" lon="1.85117">
        <ele>1735.3</ele>
        <time>2020-02-14T03:12:39.832Z</time>
      </trkpt>
      <trkpt lat="42.55216" lon="1.85119">
        <ele>1735.4</ele>
        <time>2020-02-14T03:12:40.549Z</time>
      </trkpt>
      <trkpt lat="42.55218" lon="1.85125">
        <ele>1734.9</ele>
        <time>2020-02-14T03:12:42.488Z</time>
      </trkpt>
      <trkpt lat="42.55222" lon="1.85136">
        <ele>1736.8</ele>
        <time>2020-02-14T03:12:45.946Z</time>
      </trkpt>
      <trkpt lat="42.5522" lon="1.85147">
        <ele>1739.6</ele>
        <time>2020-02-14T03:12:49.313Z</time>
      </trkpt>
      <trkpt lat="42.55219" lon="1.85153">
        <ele>1740.2</ele>
        <time>2020-02-14T03:12:51.219Z</time>
      </trkpt>
      <trkpt lat="42.55216" lon="1.85157">
        <ele>1739.7</ele>
        <time>2020-02-14T03:12:53.001Z</time>
      </trkpt>
      <trkpt lat="42.55215" lon="1.8516">
        <ele>1739.7</ele>
        <time>2020-02-14T03:12:53.806Z</time>
      </trkpt>
      <trkpt lat="42.5522" lon="1.8518">
        <ele>1738.2</ele>
        <time>2020-02-14T03:12:59.700Z</time>
      </trkpt>
      <trkpt lat="42.55221" lon="1.85183">
        <ele>1738.8</ele>
        <time>2020-02-14T03:13:00.581Z</time>
      </trkpt>
      <trkpt lat="42.55223" lon="1.85196">
        <ele>1739.6</ele>
        <time>2020-02-14T03:13:04.357Z</time>
      </trkpt>
      <trkpt lat="42.55226" lon="1.85211">
        <ele>1741.2</ele>
        <time>2020-02-14T03:13:09.055Z</time>
      </trkpt>
      <trkpt lat="42.55226" lon="1.85214">
        <ele>1741.2</ele>
        <time>2020-02-14T03:13:09.888Z</time>
      </trkpt>
      <trkpt lat="42.5523" lon="1.85235">
        <ele>1742.2</ele>
        <time>2020-02-14T03:13:15.948Z</time>
      </trkpt>
      <trkpt lat="42.55231" lon="1.8524">
        <ele>1742.5</ele>
        <time>2020-02-14T03:13:17.418Z</time>
      </trkpt>
      <trkpt lat="42.55233" lon="1.85246">
        <ele>1743</ele>
        <time>2020-02-14T03:13:19.286Z</time>
      </trkpt>
      <trkpt lat="42.55234" lon="1.85254">
        <ele>1743.5</ele>
        <time>2020-02-14T03:13:21.548Z</time>
      </trkpt>
      <trkpt lat="42.55237" lon="1.8527">
        <ele>1744</ele>
        <time>2020-02-14T03:13:26.300Z</time>
      </trkpt>
      <trkpt lat="42.55238" lon="1.85272">
        <ele>1744.5</ele>
        <time>2020-02-14T03:13:27.122Z</time>
      </trkpt>
      <trkpt lat="42.55242" lon="1.85279">
        <ele>1744.9</ele>
        <time>2020-02-14T03:13:29.418Z</time>
      </trkpt>
      <trkpt lat="42.55251" lon="1.85288">
        <ele>1746</ele>
        <time>2020-02-14T03:13:33.799Z</time>
      </trkpt>
      <trkpt lat="42.55253" lon="1.85291">
        <ele>1745</ele>
        <time>2020-02-14T03:13:34.818Z</time>
      </trkpt>
      <trkpt lat="42.55255" lon="1.85297">
        <ele>1745.5</ele>
        <time>2020-02-14T03:13:36.851Z</time>
      </trkpt>
      <trkpt lat="42.55251" lon="1.85319">
        <ele>1747.8</ele>
        <time>2020-02-14T03:13:43.354Z</time>
      </trkpt>
      <trkpt lat="42.55251" lon="1.85328">
        <ele>1748.4</ele>
        <time>2020-02-14T03:13:45.950Z</time>
      </trkpt>
      <trkpt lat="42.55252" lon="1.85331">
        <ele>1748.3</ele>
        <time>2020-02-14T03:13:46.937Z</time>
      </trkpt>
      <trkpt lat="42.55253" lon="1.85334">
        <ele>1749.3</ele>
        <time>2020-02-14T03:13:47.913Z</time>
      </trkpt>
      <trkpt lat="42.55259" lon="1.85353">
        <ele>1751.3</ele>
        <time>2020-02-14T03:13:53.825Z</time>
      </trkpt>
      <trkpt lat="42.55262" lon="1.85361">
        <ele>1751.7</ele>
        <time>2020-02-14T03:13:56.323Z</time>
      </trkpt>
      <trkpt lat="42.55259" lon="1.85371">
        <ele>1752.2</ele>
        <time>2020-02-14T03:13:59.395Z</time>
      </trkpt>
      <trkpt lat="42.5526" lon="1.8539">
        <ele>1751.8</ele>
        <time>2020-02-14T03:14:04.944Z</time>
      </trkpt>
      <trkpt lat="42.55262" lon="1.85397">
        <ele>1753.2</ele>
        <time>2020-02-14T03:14:07.099Z</time>
      </trkpt>
      <trkpt lat="42.55264" lon="1.854">
        <ele>1753.7</ele>
        <time>2020-02-14T03:14:08.351Z</time>
      </trkpt>
      <trkpt lat="42.55267" lon="1.85415">
        <ele>1753.7</ele>
        <time>2020-02-14T03:14:12.810Z</time>
      </trkpt>
      <trkpt lat="42.55272" lon="1.85425">
        <ele>1754.2</ele>
        <time>2020-02-14T03:14:16.245Z</time>
      </trkpt>
      <trkpt lat="42.55274" lon="1.85426">
        <ele>1754.6</ele>
        <time>2020-02-14T03:14:17.049Z</time>
      </trkpt>
      <trkpt lat="42.55277" lon="1.8543">
        <ele>1754.1</ele>
        <time>2020-02-14T03:14:18.520Z</time>
      </trkpt>
      <trkpt lat="42.55281" lon="1.85442">
        <ele>1756</ele>
        <time>2020-02-14T03:14:22.409Z</time>
      </trkpt>
      <trkpt lat="42.55279" lon="1.85449">
        <ele>1757.4</ele>
        <time>2020-02-14T03:14:24.785Z</time>
      </trkpt>
      <trkpt lat="42.55279" lon="1.85453">
        <ele>1757.4</ele>
        <time>2020-02-14T03:14:25.755Z</time>
      </trkpt>
      <trkpt lat="42.55284" lon="1.8546">
        <ele>1758.5</ele>
        <time>2020-02-14T03:14:28.376Z</time>
      </trkpt>
      <trkpt lat="42.55291" lon="1.8548">
        <ele>1758.9</ele>
        <time>2020-02-14T03:14:34.770Z</time>
      </trkpt>
      <trkpt lat="42.55292" lon="1.85482">
        <ele>1758</ele>
        <time>2020-02-14T03:14:35.489Z</time>
      </trkpt>
      <trkpt lat="42.55298" lon="1.85494">
        <ele>1759</ele>
        <time>2020-02-14T03:14:39.811Z</time>
      </trkpt>
      <trkpt lat="42.55302" lon="1.85501">
        <ele>1758.9</ele>
        <time>2020-02-14T03:14:42.208Z</time>
      </trkpt>
      <trkpt lat="42.55309" lon="1.85512">
        <ele>1760.9</ele>
        <time>2020-02-14T03:14:46.362Z</time>
      </trkpt>
      <trkpt lat="42.55311" lon="1.85514">
        <ele>1760.3</ele>
        <time>2020-02-14T03:14:47.387Z</time>
      </trkpt>
      <trkpt lat="42.55314" lon="1.85525">
        <ele>1761.8</ele>
        <time>2020-02-14T03:14:50.703Z</time>
      </trkpt>
      <trkpt lat="42.5532" lon="1.85542">
        <ele>1761.8</ele>
        <time>2020-02-14T03:14:56.123Z</time>
      </trkpt>
      <trkpt lat="42.5532" lon="1.85543">
        <ele>1762.2</ele>
        <time>2020-02-14T03:14:56.538Z</time>
      </trkpt>
      <trkpt lat="42.5532" lon="1.85546">
        <ele>1761.9</ele>
        <time>2020-02-14T03:14:57.371Z</time>
      </trkpt>
      <trkpt lat="42.55322" lon="1.85565">
        <ele>1763.8</ele>
        <time>2020-02-14T03:15:02.956Z</time>
      </trkpt>
      <trkpt lat="42.55321" lon="1.85568">
        <ele>1763.3</ele>
        <time>2020-02-14T03:15:03.746Z</time>
      </trkpt>
      <trkpt lat="42.55323" lon="1.85573">
        <ele>1763.8</ele>
        <time>2020-02-14T03:15:05.239Z</time>
      </trkpt>
      <trkpt lat="42.55323" lon="1.8558">
        <ele>1763.7</ele>
        <time>2020-02-14T03:15:07.171Z</time>
      </trkpt>
      <trkpt lat="42.55329" lon="1.856">
        <ele>1764.7</ele>
        <time>2020-02-14T03:15:13.533Z</time>
      </trkpt>
      <trkpt lat="42.55331" lon="1.85609">
        <ele>1765.7</ele>
        <time>2020-02-14T03:15:16.201Z</time>
      </trkpt>
      <trkpt lat="42.55331" lon="1.85615">
        <ele>1765.7</ele>
        <time>2020-02-14T03:15:17.881Z</time>
      </trkpt>
      <trkpt lat="42.55332" lon="1.85618">
        <ele>1766.1</ele>
        <time>2020-02-14T03:15:18.762Z</time>
      </trkpt>
      <trkpt lat="42.55332" lon="1.85623">
        <ele>1765.6</ele>
        <time>2020-02-14T03:15:20.340Z</time>
      </trkpt>
      <trkpt lat="42.55339" lon="1.85637">
        <ele>1766.6</ele>
        <time>2020-02-14T03:15:24.983Z</time>
      </trkpt>
      <trkpt lat="42.5534" lon="1.85643">
        <ele>1767.1</ele>
        <time>2020-02-14T03:15:26.786Z</time>
      </trkpt>
      <trkpt lat="42.55339" lon="1.85648">
        <ele>1767.1</ele>
        <time>2020-02-14T03:15:28.401Z</time>
      </trkpt>
      <trkpt lat="42.5534" lon="1.85659">
        <ele>1768.6</ele>
        <time>2020-02-14T03:15:31.667Z</time>
      </trkpt>
      <trkpt lat="42.55341" lon="1.85665">
        <ele>1769.5</ele>
        <time>2020-02-14T03:15:33.456Z</time>
      </trkpt>
      <trkpt lat="42.55341" lon="1.85679">
        <ele>1769.4</ele>
        <time>2020-02-14T03:15:37.380Z</time>
      </trkpt>
      <trkpt lat="42.55339" lon="1.85693">
        <ele>1771.5</ele>
        <time>2020-02-14T03:15:41.574Z</time>
      </trkpt>
      <trkpt lat="42.55338" lon="1.85697">
        <ele>1771.4</ele>
        <time>2020-02-14T03:15:42.525Z</time>
      </trkpt>
      <trkpt lat="42.55339" lon="1.85702">
        <ele>1771.9</ele>
        <time>2020-02-14T03:15:44.131Z</time>
      </trkpt>
      <trkpt lat="42.55337" lon="1.85707">
        <ele>1772.8</ele>
        <time>2020-02-14T03:15:45.669Z</time>
      </trkpt>
      <trkpt lat="42.55339" lon="1.85725">
        <ele>1773.8</ele>
        <time>2020-02-14T03:15:50.822Z</time>
      </trkpt>
      <trkpt lat="42.5534" lon="1.8573">
        <ele>1773.8</ele>
        <time>2020-02-14T03:15:52.240Z</time>
      </trkpt>
      <trkpt lat="42.55342" lon="1.85735">
        <ele>1773.4</ele>
        <time>2020-02-14T03:15:53.957Z</time>
      </trkpt>
      <trkpt lat="42.55346" lon="1.85754">
        <ele>1775.2</ele>
        <time>2020-02-14T03:15:59.528Z</time>
      </trkpt>
      <trkpt lat="42.55349" lon="1.8577">
        <ele>1775.2</ele>
        <time>2020-02-14T03:16:04.288Z</time>
      </trkpt>
      <trkpt lat="42.5535" lon="1.85775">
        <ele>1775.7</ele>
        <time>2020-02-14T03:16:05.784Z</time>
      </trkpt>
      <trkpt lat="42.55351" lon="1.85789">
        <ele>1776.8</ele>
        <time>2020-02-14T03:16:09.755Z</time>
      </trkpt>
      <trkpt lat="42.55351" lon="1.858">
        <ele>1777.6</ele>
        <time>2020-02-14T03:16:13.040Z</time>
      </trkpt>
      <trkpt lat="42.55352" lon="1.85811">
        <ele>1778.1</ele>
        <time>2020-02-14T03:16:15.945Z</time>
      </trkpt>
      <trkpt lat="42.55355" lon="1.85818">
        <ele>1779.1</ele>
        <time>2020-02-14T03:16:18.400Z</time>
      </trkpt>
      <trkpt lat="42.55356" lon="1.85819">
        <ele>1779.5</ele>
        <time>2020-02-14T03:16:19.101Z</time>
      </trkpt>
      <trkpt lat="42.55358" lon="1.85833">
        <ele>1779.5</ele>
        <time>2020-02-14T03:16:22.965Z</time>
      </trkpt>
      <trkpt lat="42.55358" lon="1.85851">
        <ele>1781</ele>
        <time>2020-02-14T03:16:28.255Z</time>
      </trkpt>
      <trkpt lat="42.55364" lon="1.8586">
        <ele>1782</ele>
        <time>2020-02-14T03:16:31.594Z</time>
      </trkpt>
      <trkpt lat="42.55364" lon="1.85861">
        <ele>1782.4</ele>
        <time>2020-02-14T03:16:31.924Z</time>
      </trkpt>
      <trkpt lat="42.55364" lon="1.85871">
        <ele>1782.9</ele>
        <time>2020-02-14T03:16:34.828Z</time>
      </trkpt>
      <trkpt lat="42.55365" lon="1.85876">
        <ele>1782</ele>
        <time>2020-02-14T03:16:36.409Z</time>
      </trkpt>
      <trkpt lat="42.55366" lon="1.85884">
        <ele>1782.4</ele>
        <time>2020-02-14T03:16:38.544Z</time>
      </trkpt>
      <trkpt lat="42.55369" lon="1.85887">
        <ele>1784</ele>
        <time>2020-02-14T03:16:40.080Z</time>
      </trkpt>
      <trkpt lat="42.55377" lon="1.85905">
        <ele>1784.3</ele>
        <time>2020-02-14T03:16:46.080Z</time>
      </trkpt>
      <trkpt lat="42.55377" lon="1.85906">
        <ele>1784.4</ele>
        <time>2020-02-14T03:16:46.426Z</time>
      </trkpt>
      <trkpt lat="42.55382" lon="1.85914">
        <ele>1783.9</ele>
        <time>2020-02-14T03:16:49.359Z</time>
      </trkpt>
      <trkpt lat="42.55386" lon="1.8592">
        <ele>1784.8</ele>
        <time>2020-02-14T03:16:51.620Z</time>
      </trkpt>
      <trkpt lat="42.55391" lon="1.85927">
        <ele>1785.4</ele>
        <time>2020-02-14T03:16:54.317Z</time>
      </trkpt>
      <trkpt lat="42.55391" lon="1.85929">
        <ele>1785.4</ele>
        <time>2020-02-14T03:16:54.998Z</time>
      </trkpt>
      <trkpt lat="42.55392" lon="1.85932">
        <ele>1785.8</ele>
        <time>2020-02-14T03:16:55.916Z</time>
      </trkpt>
      <trkpt lat="42.55392" lon="1.85944">
        <ele>1785.9</ele>
        <time>2020-02-14T03:16:59.194Z</time>
      </trkpt>
      <trkpt lat="42.55393" lon="1.8595">
        <ele>1785.8</ele>
        <time>2020-02-14T03:17:00.900Z</time>
      </trkpt>
      <trkpt lat="42.55396" lon="1.85954">
        <ele>1785.8</ele>
        <time>2020-02-14T03:17:02.434Z</time>
      </trkpt>
      <trkpt lat="42.55399" lon="1.85963">
        <ele>1787.8</ele>
        <time>2020-02-14T03:17:05.425Z</time>
      </trkpt>
      <trkpt lat="42.55406" lon="1.85981">
        <ele>1787.7</ele>
        <time>2020-02-14T03:17:11.239Z</time>
      </trkpt>
      <trkpt lat="42.55408" lon="1.8599">
        <ele>1789.6</ele>
        <time>2020-02-14T03:17:13.972Z</time>
      </trkpt>
      <trkpt lat="42.55409" lon="1.85994">
        <ele>1790.1</ele>
        <time>2020-02-14T03:17:15.078Z</time>
      </trkpt>
      <trkpt lat="42.55411" lon="1.85996">
        <ele>1790.6</ele>
        <time>2020-02-14T03:17:16.100Z</time>
      </trkpt>
      <trkpt lat="42.55412" lon="1.85999">
        <ele>1790.6</ele>
        <time>2020-02-14T03:17:16.861Z</time>
      </trkpt>
      <trkpt lat="42.55416" lon="1.86015">
        <ele>1792</ele>
        <time>2020-02-14T03:17:21.919Z</time>
      </trkpt>
      <trkpt lat="42.55415" lon="1.86025">
        <ele>1794.1</ele>
        <time>2020-02-14T03:17:24.686Z</time>
      </trkpt>
      <trkpt lat="42.55416" lon="1.86033">
        <ele>1794</ele>
        <time>2020-02-14T03:17:26.994Z</time>
      </trkpt>
      <trkpt lat="42.55417" lon="1.86041">
        <ele>1793.5</ele>
        <time>2020-02-14T03:17:29.244Z</time>
      </trkpt>
      <trkpt lat="42.55421" lon="1.86046">
        <ele>1794.1</ele>
        <time>2020-02-14T03:17:31.626Z</time>
      </trkpt>
      <trkpt lat="42.55424" lon="1.8605">
        <ele>1794.4</ele>
        <time>2020-02-14T03:17:33.122Z</time>
      </trkpt>
      <trkpt lat="42.55426" lon="1.86053">
        <ele>1794</ele>
        <time>2020-02-14T03:17:34.286Z</time>
      </trkpt>
      <trkpt lat="42.55434" lon="1.8607">
        <ele>1794.9</ele>
        <time>2020-02-14T03:17:39.903Z</time>
      </trkpt>
      <trkpt lat="42.55441" lon="1.86087">
        <ele>1795.4</ele>
        <time>2020-02-14T03:17:45.536Z</time>
      </trkpt>
      <trkpt lat="42.55442" lon="1.86095">
        <ele>1795.4</ele>
        <time>2020-02-14T03:17:47.855Z</time>
      </trkpt>
      <trkpt lat="42.55444" lon="1.86104">
        <ele>1795.9</ele>
        <time>2020-02-14T03:17:50.506Z</time>
      </trkpt>
      <trkpt lat="42.55446" lon="1.86113">
        <ele>1796</ele>
        <time>2020-02-14T03:17:53.326Z</time>
      </trkpt>
      <trkpt lat="42.55447" lon="1.86125">
        <ele>1795.5</ele>
        <time>2020-02-14T03:17:56.685Z</time>
      </trkpt>
      <trkpt lat="42.5545" lon="1.86137">
        <ele>1796.9</ele>
        <time>2020-02-14T03:18:00.491Z</time>
      </trkpt>
      <trkpt lat="42.55452" lon="1.86142">
        <ele>1796.8</ele>
        <time>2020-02-14T03:18:02.004Z</time>
      </trkpt>
      <trkpt lat="42.55455" lon="1.86156">
        <ele>1797.4</ele>
        <time>2020-02-14T03:18:06.240Z</time>
      </trkpt>
      <trkpt lat="42.55457" lon="1.86163">
        <ele>1797.4</ele>
        <time>2020-02-14T03:18:08.259Z</time>
      </trkpt>
      <trkpt lat="42.55462" lon="1.86177">
        <ele>1798.4</ele>
        <time>2020-02-14T03:18:12.611Z</time>
      </trkpt>
      <trkpt lat="42.55463" lon="1.86179">
        <ele>1798.4</ele>
        <time>2020-02-14T03:18:13.483Z</time>
      </trkpt>
      <trkpt lat="42.55471" lon="1.86198">
        <ele>1798.8</ele>
        <time>2020-02-14T03:18:19.534Z</time>
      </trkpt>
      <trkpt lat="42.55472" lon="1.86199">
        <ele>1798.3</ele>
        <time>2020-02-14T03:18:19.945Z</time>
      </trkpt>
      <trkpt lat="42.55473" lon="1.86201">
        <ele>1799.3</ele>
        <time>2020-02-14T03:18:20.875Z</time>
      </trkpt>
      <trkpt lat="42.55479" lon="1.86211">
        <ele>1801.8</ele>
        <time>2020-02-14T03:18:24.632Z</time>
      </trkpt>
      <trkpt lat="42.5548" lon="1.86221">
        <ele>1802.1</ele>
        <time>2020-02-14T03:18:27.625Z</time>
      </trkpt>
      <trkpt lat="42.55487" lon="1.86235">
        <ele>1802.6</ele>
        <time>2020-02-14T03:18:32.280Z</time>
      </trkpt>
      <trkpt lat="42.55491" lon="1.86247">
        <ele>1803.7</ele>
        <time>2020-02-14T03:18:36.335Z</time>
      </trkpt>
      <trkpt lat="42.55494" lon="1.86255">
        <ele>1803.6</ele>
        <time>2020-02-14T03:18:38.646Z</time>
      </trkpt>
      <trkpt lat="42.55497" lon="1.86259">
        <ele>1804.2</ele>
        <time>2020-02-14T03:18:40.364Z</time>
      </trkpt>
      <trkpt lat="42.555" lon="1.86266">
        <ele>1804.6</ele>
        <time>2020-02-14T03:18:42.861Z</time>
      </trkpt>
      <trkpt lat="42.55504" lon="1.86273">
        <ele>1805</ele>
        <time>2020-02-14T03:18:45.242Z</time>
      </trkpt>
      <trkpt lat="42.55509" lon="1.86281">
        <ele>1806</ele>
        <time>2020-02-14T03:18:48.228Z</time>
      </trkpt>
      <trkpt lat="42.55513" lon="1.86291">
        <ele>1806</ele>
        <time>2020-02-14T03:18:51.419Z</time>
      </trkpt>
      <trkpt lat="42.55515" lon="1.86297">
        <ele>1806.6</ele>
        <time>2020-02-14T03:18:53.366Z</time>
      </trkpt>
      <trkpt lat="42.55517" lon="1.863">
        <ele>1806.9</ele>
        <time>2020-02-14T03:18:54.634Z</time>
      </trkpt>
      <trkpt lat="42.55519" lon="1.86304">
        <ele>1806.9</ele>
        <time>2020-02-14T03:18:55.953Z</time>
      </trkpt>
      <trkpt lat="42.55525" lon="1.86313">
        <ele>1808</ele>
        <time>2020-02-14T03:18:59.360Z</time>
      </trkpt>
      <trkpt lat="42.55528" lon="1.86326">
        <ele>1808.4</ele>
        <time>2020-02-14T03:19:03.249Z</time>
      </trkpt>
      <trkpt lat="42.55528" lon="1.86327">
        <ele>1808.4</ele>
        <time>2020-02-14T03:19:03.538Z</time>
      </trkpt>
      <trkpt lat="42.55528" lon="1.86327">
        <ele>1814.7</ele>
        <time>2020-02-14T03:19:05.715Z</time>
      </trkpt>
      <trkpt lat="42.55528" lon="1.86327">
        <ele>1808.4</ele>
        <time>2020-02-14T03:19:07.896Z</time>
      </trkpt>
      <trkpt lat="42.55528" lon="1.86328">
        <ele>1808.4</ele>
        <time>2020-02-14T03:19:08.308Z</time>
      </trkpt>
      <trkpt lat="42.55535" lon="1.86332">
        <ele>1809.3</ele>
        <time>2020-02-14T03:19:11.137Z</time>
      </trkpt>
      <trkpt lat="42.55537" lon="1.86338">
        <ele>1810.3</ele>
        <time>2020-02-14T03:19:12.934Z</time>
      </trkpt>
      <trkpt lat="42.55541" lon="1.8634">
        <ele>1810.8</ele>
        <time>2020-02-14T03:19:14.766Z</time>
      </trkpt>
      <trkpt lat="42.5555" lon="1.86355">
        <ele>1812.3</ele>
        <time>2020-02-14T03:19:20.271Z</time>
      </trkpt>
      <trkpt lat="42.55551" lon="1.86356">
        <ele>1812.7</ele>
        <time>2020-02-14T03:19:20.769Z</time>
      </trkpt>
      <trkpt lat="42.55556" lon="1.86359">
        <ele>1813.2</ele>
        <time>2020-02-14T03:19:22.646Z</time>
      </trkpt>
      <trkpt lat="42.55557" lon="1.86361">
        <ele>1813.8</ele>
        <time>2020-02-14T03:19:23.650Z</time>
      </trkpt>
      <trkpt lat="42.55563" lon="1.86378">
        <ele>1815.6</ele>
        <time>2020-02-14T03:19:28.793Z</time>
      </trkpt>
      <trkpt lat="42.55563" lon="1.86379">
        <ele>1815.1</ele>
        <time>2020-02-14T03:19:29.171Z</time>
      </trkpt>
      <trkpt lat="42.55573" lon="1.86395">
        <ele>1817.1</ele>
        <time>2020-02-14T03:19:35.212Z</time>
      </trkpt>
      <trkpt lat="42.55583" lon="1.8641">
        <ele>1818.5</ele>
        <time>2020-02-14T03:19:41.058Z</time>
      </trkpt>
      <trkpt lat="42.5559" lon="1.86412">
        <ele>1819.4</ele>
        <time>2020-02-14T03:19:43.760Z</time>
      </trkpt>
      <trkpt lat="42.55592" lon="1.8642">
        <ele>1819.4</ele>
        <time>2020-02-14T03:19:46.110Z</time>
      </trkpt>
      <trkpt lat="42.55599" lon="1.8643">
        <ele>1819</ele>
        <time>2020-02-14T03:19:50.163Z</time>
      </trkpt>
      <trkpt lat="42.55597" lon="1.86434">
        <ele>1820.9</ele>
        <time>2020-02-14T03:19:51.782Z</time>
      </trkpt>
      <trkpt lat="42.55595" lon="1.86443">
        <ele>1821.9</ele>
        <time>2020-02-14T03:19:54.419Z</time>
      </trkpt>
      <trkpt lat="42.55593" lon="1.86453">
        <ele>1822.9</ele>
        <time>2020-02-14T03:19:57.415Z</time>
      </trkpt>
      <trkpt lat="42.55595" lon="1.86461">
        <ele>1823.3</ele>
        <time>2020-02-14T03:19:59.720Z</time>
      </trkpt>
      <trkpt lat="42.55601" lon="1.86471">
        <ele>1824.7</ele>
        <time>2020-02-14T03:20:03.424Z</time>
      </trkpt>
      <trkpt lat="42.55602" lon="1.86478">
        <ele>1824.3</ele>
        <time>2020-02-14T03:20:05.555Z</time>
      </trkpt>
      <trkpt lat="42.55607" lon="1.865">
        <ele>1826.3</ele>
        <time>2020-02-14T03:20:12.150Z</time>
      </trkpt>
      <trkpt lat="42.55612" lon="1.8651">
        <ele>1827.6</ele>
        <time>2020-02-14T03:20:15.698Z</time>
      </trkpt>
      <trkpt lat="42.55612" lon="1.86514">
        <ele>1827.6</ele>
        <time>2020-02-14T03:20:16.695Z</time>
      </trkpt>
      <trkpt lat="42.55612" lon="1.86519">
        <ele>1827.6</ele>
        <time>2020-02-14T03:20:18.006Z</time>
      </trkpt>
      <trkpt lat="42.5561" lon="1.86524">
        <ele>1827.1</ele>
        <time>2020-02-14T03:20:19.710Z</time>
      </trkpt>
      <trkpt lat="42.55612" lon="1.86528">
        <ele>1828.2</ele>
        <time>2020-02-14T03:20:21.051Z</time>
      </trkpt>
      <trkpt lat="42.55617" lon="1.86538">
        <ele>1830</ele>
        <time>2020-02-14T03:20:24.431Z</time>
      </trkpt>
      <trkpt lat="42.55616" lon="1.86541">
        <ele>1830</ele>
        <time>2020-02-14T03:20:25.316Z</time>
      </trkpt>
      <trkpt lat="42.55617" lon="1.86548">
        <ele>1831</ele>
        <time>2020-02-14T03:20:27.489Z</time>
      </trkpt>
      <trkpt lat="42.55619" lon="1.86567">
        <ele>1832</ele>
        <time>2020-02-14T03:20:32.979Z</time>
      </trkpt>
      <trkpt lat="42.55622" lon="1.86575">
        <ele>1833.5</ele>
        <time>2020-02-14T03:20:35.382Z</time>
      </trkpt>
      <trkpt lat="42.55624" lon="1.86587">
        <ele>1834.8</ele>
        <time>2020-02-14T03:20:38.929Z</time>
      </trkpt>
      <trkpt lat="42.55627" lon="1.86598">
        <ele>1835.3</ele>
        <time>2020-02-14T03:20:42.311Z</time>
      </trkpt>
      <trkpt lat="42.55632" lon="1.86603">
        <ele>1835.8</ele>
        <time>2020-02-14T03:20:44.475Z</time>
      </trkpt>
      <trkpt lat="42.55636" lon="1.86612">
        <ele>1835.8</ele>
        <time>2020-02-14T03:20:47.713Z</time>
      </trkpt>
      <trkpt lat="42.55634" lon="1.86617">
        <ele>1836.3</ele>
        <time>2020-02-14T03:20:49.278Z</time>
      </trkpt>
      <trkpt lat="42.55634" lon="1.86621">
        <ele>1837.7</ele>
        <time>2020-02-14T03:20:50.629Z</time>
      </trkpt>
      <trkpt lat="42.55634" lon="1.86626">
        <ele>1837.2</ele>
        <time>2020-02-14T03:20:51.989Z</time>
      </trkpt>
      <trkpt lat="42.55634" lon="1.86633">
        <ele>1838.8</ele>
        <time>2020-02-14T03:20:54.117Z</time>
      </trkpt>
      <trkpt lat="42.55635" lon="1.86637">
        <ele>1839.2</ele>
        <time>2020-02-14T03:20:55.114Z</time>
      </trkpt>
      <trkpt lat="42.55635" lon="1.8664">
        <ele>1838.8</ele>
        <time>2020-02-14T03:20:55.952Z</time>
      </trkpt>
      <trkpt lat="42.55638" lon="1.86645">
        <ele>1839.2</ele>
        <time>2020-02-14T03:20:57.882Z</time>
      </trkpt>
      <trkpt lat="42.55639" lon="1.86648">
        <ele>1839.1</ele>
        <time>2020-02-14T03:20:58.912Z</time>
      </trkpt>
      <trkpt lat="42.55647" lon="1.86657">
        <ele>1841.2</ele>
        <time>2020-02-14T03:21:02.983Z</time>
      </trkpt>
      <trkpt lat="42.55647" lon="1.86668">
        <ele>1842.5</ele>
        <time>2020-02-14T03:21:06.315Z</time>
      </trkpt>
      <trkpt lat="42.55647" lon="1.86671">
        <ele>1843.5</ele>
        <time>2020-02-14T03:21:07.187Z</time>
      </trkpt>
      <trkpt lat="42.55648" lon="1.86686">
        <ele>1844.1</ele>
        <time>2020-02-14T03:21:11.546Z</time>
      </trkpt>
      <trkpt lat="42.55648" lon="1.86693">
        <ele>1844.4</ele>
        <time>2020-02-14T03:21:13.414Z</time>
      </trkpt>
      <trkpt lat="42.55651" lon="1.86702">
        <ele>1844.9</ele>
        <time>2020-02-14T03:21:16.330Z</time>
      </trkpt>
      <trkpt lat="42.55653" lon="1.86708">
        <ele>1845.5</ele>
        <time>2020-02-14T03:21:18.092Z</time>
      </trkpt>
      <trkpt lat="42.5566" lon="1.86714">
        <ele>1846.8</ele>
        <time>2020-02-14T03:21:21.239Z</time>
      </trkpt>
      <trkpt lat="42.55661" lon="1.86716">
        <ele>1847.4</ele>
        <time>2020-02-14T03:21:21.987Z</time>
      </trkpt>
      <trkpt lat="42.55666" lon="1.86728">
        <ele>1848.4</ele>
        <time>2020-02-14T03:21:26.022Z</time>
      </trkpt>
      <trkpt lat="42.55667" lon="1.86729">
        <ele>1848.9</ele>
        <time>2020-02-14T03:21:26.499Z</time>
      </trkpt>
      <trkpt lat="42.55674" lon="1.86738">
        <ele>1849.2</ele>
        <time>2020-02-14T03:21:30.054Z</time>
      </trkpt>
      <trkpt lat="42.55674" lon="1.86744">
        <ele>1849.7</ele>
        <time>2020-02-14T03:21:31.848Z</time>
      </trkpt>
      <trkpt lat="42.55669" lon="1.8676">
        <ele>1851.2</ele>
        <time>2020-02-14T03:21:36.913Z</time>
      </trkpt>
      <trkpt lat="42.55668" lon="1.8678">
        <ele>1853.2</ele>
        <time>2020-02-14T03:21:42.536Z</time>
      </trkpt>
      <trkpt lat="42.55668" lon="1.86783">
        <ele>1853.6</ele>
        <time>2020-02-14T03:21:43.320Z</time>
      </trkpt>
      <trkpt lat="42.55669" lon="1.86785">
        <ele>1853.6</ele>
        <time>2020-02-14T03:21:44.108Z</time>
      </trkpt>
      <trkpt lat="42.55668" lon="1.86792">
        <ele>1854</ele>
        <time>2020-02-14T03:21:45.911Z</time>
      </trkpt>
      <trkpt lat="42.55666" lon="1.86809">
        <ele>1855</ele>
        <time>2020-02-14T03:21:51.041Z</time>
      </trkpt>
      <trkpt lat="42.55666" lon="1.86812">
        <ele>1855.5</ele>
        <time>2020-02-14T03:21:51.828Z</time>
      </trkpt>
      <trkpt lat="42.55667" lon="1.86815">
        <ele>1855.5</ele>
        <time>2020-02-14T03:21:52.780Z</time>
      </trkpt>
      <trkpt lat="42.55668" lon="1.86818">
        <ele>1856</ele>
        <time>2020-02-14T03:21:53.849Z</time>
      </trkpt>
      <trkpt lat="42.55667" lon="1.86833">
        <ele>1857.5</ele>
        <time>2020-02-14T03:21:58.130Z</time>
      </trkpt>
      <trkpt lat="42.55666" lon="1.86841">
        <ele>1857.4</ele>
        <time>2020-02-14T03:22:00.482Z</time>
      </trkpt>
      <trkpt lat="42.55667" lon="1.86847">
        <ele>1858.4</ele>
        <time>2020-02-14T03:22:02.449Z</time>
      </trkpt>
      <trkpt lat="42.55667" lon="1.86866">
        <ele>1858.9</ele>
        <time>2020-02-14T03:22:07.796Z</time>
      </trkpt>
      <trkpt lat="42.55668" lon="1.86868">
        <ele>1859.3</ele>
        <time>2020-02-14T03:22:08.522Z</time>
      </trkpt>
      <trkpt lat="42.55669" lon="1.86876">
        <ele>1860.3</ele>
        <time>2020-02-14T03:22:10.750Z</time>
      </trkpt>
      <trkpt lat="42.55671" lon="1.86887">
        <ele>1861.3</ele>
        <time>2020-02-14T03:22:14.046Z</time>
      </trkpt>
      <trkpt lat="42.5567" lon="1.86907">
        <ele>1862.8</ele>
        <time>2020-02-14T03:22:19.845Z</time>
      </trkpt>
      <trkpt lat="42.55671" lon="1.86917">
        <ele>1863.7</ele>
        <time>2020-02-14T03:22:22.526Z</time>
      </trkpt>
      <trkpt lat="42.55667" lon="1.8693">
        <ele>1865.1</ele>
        <time>2020-02-14T03:22:26.625Z</time>
      </trkpt>
      <trkpt lat="42.55665" lon="1.86936">
        <ele>1864.7</ele>
        <time>2020-02-14T03:22:28.469Z</time>
      </trkpt>
      <trkpt lat="42.55664" lon="1.86951">
        <ele>1868</ele>
        <time>2020-02-14T03:22:32.869Z</time>
      </trkpt>
      <trkpt lat="42.55666" lon="1.86962">
        <ele>1869.9</ele>
        <time>2020-02-14T03:22:36.138Z</time>
      </trkpt>
      <trkpt lat="42.55665" lon="1.86973">
        <ele>1871.8</ele>
        <time>2020-02-14T03:22:39.407Z</time>
      </trkpt>
      <trkpt lat="42.55669" lon="1.86984">
        <ele>1874.8</ele>
        <time>2020-02-14T03:22:43.056Z</time>
      </trkpt>
      <trkpt lat="42.5567" lon="1.86991">
        <ele>1875.8</ele>
        <time>2020-02-14T03:22:45.169Z</time>
      </trkpt>
      <trkpt lat="42.55671" lon="1.86997">
        <ele>1876.2</ele>
        <time>2020-02-14T03:22:46.954Z</time>
      </trkpt>
      <trkpt lat="42.55672" lon="1.87013">
        <ele>1879.5</ele>
        <time>2020-02-14T03:22:51.548Z</time>
      </trkpt>
      <trkpt lat="42.55673" lon="1.87014">
        <ele>1880.1</ele>
        <time>2020-02-14T03:22:52.255Z</time>
      </trkpt>
      <trkpt lat="42.55677" lon="1.87024">
        <ele>1881.5</ele>
        <time>2020-02-14T03:22:55.355Z</time>
      </trkpt>
      <trkpt lat="42.5568" lon="1.8703">
        <ele>1882.5</ele>
        <time>2020-02-14T03:22:57.360Z</time>
      </trkpt>
      <trkpt lat="42.55683" lon="1.87043">
        <ele>1884.8</ele>
        <time>2020-02-14T03:23:01.544Z</time>
      </trkpt>
      <trkpt lat="42.55684" lon="1.87052">
        <ele>1886.3</ele>
        <time>2020-02-14T03:23:04.232Z</time>
      </trkpt>
      <trkpt lat="42.55683" lon="1.87062">
        <ele>1888.2</ele>
        <time>2020-02-14T03:23:07.015Z</time>
      </trkpt>
      <trkpt lat="42.55684" lon="1.87073">
        <ele>1890.1</ele>
        <time>2020-02-14T03:23:10.423Z</time>
      </trkpt>
      <trkpt lat="42.55684" lon="1.87085">
        <ele>1892</ele>
        <time>2020-02-14T03:23:13.987Z</time>
      </trkpt>
      <trkpt lat="42.55686" lon="1.87094">
        <ele>1894.4</ele>
        <time>2020-02-14T03:23:16.692Z</time>
      </trkpt>
      <trkpt lat="42.55688" lon="1.87106">
        <ele>1896.3</ele>
        <time>2020-02-14T03:23:20.211Z</time>
      </trkpt>
      <trkpt lat="42.55689" lon="1.87115">
        <ele>1897.9</ele>
        <time>2020-02-14T03:23:22.780Z</time>
      </trkpt>
      <trkpt lat="42.55689" lon="1.87127">
        <ele>1899.7</ele>
        <time>2020-02-14T03:23:26.267Z</time>
      </trkpt>
      <trkpt lat="42.55687" lon="1.8713">
        <ele>1900.7</ele>
        <time>2020-02-14T03:23:27.375Z</time>
      </trkpt>
      <trkpt lat="42.5569" lon="1.8714">
        <ele>1902.2</ele>
        <time>2020-02-14T03:23:30.524Z</time>
      </trkpt>
      <trkpt lat="42.55693" lon="1.87149">
        <ele>1904</ele>
        <time>2020-02-14T03:23:33.283Z</time>
      </trkpt>
      <trkpt lat="42.55693" lon="1.87149">
        <ele>1904.6</ele>
        <time>2020-02-14T03:23:33.524Z</time>
      </trkpt>
      <trkpt lat="42.55696" lon="1.87159">
        <ele>1906.9</ele>
        <time>2020-02-14T03:23:36.864Z</time>
      </trkpt>
      <trkpt lat="42.55697" lon="1.87169">
        <ele>1909.3</ele>
        <time>2020-02-14T03:23:39.775Z</time>
      </trkpt>
      <trkpt lat="42.55701" lon="1.87177">
        <ele>1910.9</ele>
        <time>2020-02-14T03:23:42.439Z</time>
      </trkpt>
      <trkpt lat="42.55702" lon="1.8718">
        <ele>1911.7</ele>
        <time>2020-02-14T03:23:43.647Z</time>
      </trkpt>
      <trkpt lat="42.55702" lon="1.87184">
        <ele>1912.8</ele>
        <time>2020-02-14T03:23:44.889Z</time>
      </trkpt>
      <trkpt lat="42.55704" lon="1.87195">
        <ele>1914.6</ele>
        <time>2020-02-14T03:23:48.203Z</time>
      </trkpt>
      <trkpt lat="42.55704" lon="1.87196">
        <ele>1915.2</ele>
        <time>2020-02-14T03:23:48.542Z</time>
      </trkpt>
      <trkpt lat="42.55706" lon="1.87204">
        <ele>1916</ele>
        <time>2020-02-14T03:23:50.924Z</time>
      </trkpt>
      <trkpt lat="42.55706" lon="1.87207">
        <ele>1916.1</ele>
        <time>2020-02-14T03:23:51.820Z</time>
      </trkpt>
      <trkpt lat="42.55708" lon="1.87214">
        <ele>1916.6</ele>
        <time>2020-02-14T03:23:54.042Z</time>
      </trkpt>
      <trkpt lat="42.55707" lon="1.87231">
        <ele>1918.1</ele>
        <time>2020-02-14T03:23:58.995Z</time>
      </trkpt>
      <trkpt lat="42.5571" lon="1.87241">
        <ele>1919.4</ele>
        <time>2020-02-14T03:24:01.998Z</time>
      </trkpt>
      <trkpt lat="42.5571" lon="1.87248">
        <ele>1920.9</ele>
        <time>2020-02-14T03:24:04.009Z</time>
      </trkpt>
      <trkpt lat="42.55709" lon="1.87251">
        <ele>1921</ele>
        <time>2020-02-14T03:24:05.001Z</time>
      </trkpt>
      <trkpt lat="42.55709" lon="1.87265">
        <ele>1922.3</ele>
        <time>2020-02-14T03:24:08.926Z</time>
      </trkpt>
      <trkpt lat="42.5571" lon="1.87268">
        <ele>1922.4</ele>
        <time>2020-02-14T03:24:09.958Z</time>
      </trkpt>
      <trkpt lat="42.55712" lon="1.87285">
        <ele>1923.8</ele>
        <time>2020-02-14T03:24:14.950Z</time>
      </trkpt>
      <trkpt lat="42.55714" lon="1.87296">
        <ele>1925.7</ele>
        <time>2020-02-14T03:24:18.280Z</time>
      </trkpt>
      <trkpt lat="42.55714" lon="1.87301">
        <ele>1925.7</ele>
        <time>2020-02-14T03:24:19.578Z</time>
      </trkpt>
      <trkpt lat="42.55715" lon="1.87303">
        <ele>1925.7</ele>
        <time>2020-02-14T03:24:20.381Z</time>
      </trkpt>
      <trkpt lat="42.55717" lon="1.8731">
        <ele>1927.2</ele>
        <time>2020-02-14T03:24:22.476Z</time>
      </trkpt>
      <trkpt lat="42.55717" lon="1.87312">
        <ele>1928.1</ele>
        <time>2020-02-14T03:24:23.263Z</time>
      </trkpt>
      <trkpt lat="42.55716" lon="1.87328">
        <ele>1929.5</ele>
        <time>2020-02-14T03:24:27.849Z</time>
      </trkpt>
      <trkpt lat="42.55717" lon="1.87333">
        <ele>1930</ele>
        <time>2020-02-14T03:24:29.159Z</time>
      </trkpt>
      <trkpt lat="42.55718" lon="1.87339">
        <ele>1930.5</ele>
        <time>2020-02-14T03:24:30.984Z</time>
      </trkpt>
      <trkpt lat="42.5572" lon="1.87346">
        <ele>1931.9</ele>
        <time>2020-02-14T03:24:33.209Z</time>
      </trkpt>
      <trkpt lat="42.55724" lon="1.87357">
        <ele>1933.4</ele>
        <time>2020-02-14T03:24:36.615Z</time>
      </trkpt>
      <trkpt lat="42.55724" lon="1.87368">
        <ele>1934.8</ele>
        <time>2020-02-14T03:24:39.897Z</time>
      </trkpt>
      <trkpt lat="42.55722" lon="1.87384">
        <ele>1936.7</ele>
        <time>2020-02-14T03:24:44.599Z</time>
      </trkpt>
      <trkpt lat="42.5572" lon="1.87386">
        <ele>1937.3</ele>
        <time>2020-02-14T03:24:45.621Z</time>
      </trkpt>
      <trkpt lat="42.55719" lon="1.87395">
        <ele>1937.7</ele>
        <time>2020-02-14T03:24:48.135Z</time>
      </trkpt>
      <trkpt lat="42.55715" lon="1.8741">
        <ele>1938.2</ele>
        <time>2020-02-14T03:24:52.814Z</time>
      </trkpt>
      <trkpt lat="42.55715" lon="1.87416">
        <ele>1938.7</ele>
        <time>2020-02-14T03:24:54.655Z</time>
      </trkpt>
      <trkpt lat="42.55716" lon="1.87426">
        <ele>1940.1</ele>
        <time>2020-02-14T03:24:57.379Z</time>
      </trkpt>
      <trkpt lat="42.55719" lon="1.87439">
        <ele>1940.6</ele>
        <time>2020-02-14T03:25:01.340Z</time>
      </trkpt>
      <trkpt lat="42.55722" lon="1.87456">
        <ele>1942.6</ele>
        <time>2020-02-14T03:25:06.489Z</time>
      </trkpt>
      <trkpt lat="42.55722" lon="1.87462">
        <ele>1943</ele>
        <time>2020-02-14T03:25:07.951Z</time>
      </trkpt>
      <trkpt lat="42.55724" lon="1.87472">
        <ele>1944</ele>
        <time>2020-02-14T03:25:10.926Z</time>
      </trkpt>
      <trkpt lat="42.55725" lon="1.87477">
        <ele>1943.9</ele>
        <time>2020-02-14T03:25:12.531Z</time>
      </trkpt>
      <trkpt lat="42.55727" lon="1.87481">
        <ele>1944.5</ele>
        <time>2020-02-14T03:25:13.872Z</time>
      </trkpt>
      <trkpt lat="42.55733" lon="1.87492">
        <ele>1946</ele>
        <time>2020-02-14T03:25:18.006Z</time>
      </trkpt>
      <trkpt lat="42.55736" lon="1.87497">
        <ele>1946.4</ele>
        <time>2020-02-14T03:25:19.549Z</time>
      </trkpt>
      <trkpt lat="42.55738" lon="1.87508">
        <ele>1946.3</ele>
        <time>2020-02-14T03:25:22.742Z</time>
      </trkpt>
      <trkpt lat="42.55741" lon="1.87519">
        <ele>1948.4</ele>
        <time>2020-02-14T03:25:26.360Z</time>
      </trkpt>
      <trkpt lat="42.55742" lon="1.8753">
        <ele>1949.2</ele>
        <time>2020-02-14T03:25:29.471Z</time>
      </trkpt>
      <trkpt lat="42.55746" lon="1.87543">
        <ele>1950.7</ele>
        <time>2020-02-14T03:25:33.419Z</time>
      </trkpt>
      <trkpt lat="42.55747" lon="1.8755">
        <ele>1953.2</ele>
        <time>2020-02-14T03:25:35.701Z</time>
      </trkpt>
      <trkpt lat="42.55745" lon="1.87561">
        <ele>1954.1</ele>
        <time>2020-02-14T03:25:38.740Z</time>
      </trkpt>
      <trkpt lat="42.55744" lon="1.8757">
        <ele>1955</ele>
        <time>2020-02-14T03:25:41.325Z</time>
      </trkpt>
      <trkpt lat="42.55748" lon="1.87578">
        <ele>1955.6</ele>
        <time>2020-02-14T03:25:43.921Z</time>
      </trkpt>
      <trkpt lat="42.55751" lon="1.87587">
        <ele>1957</ele>
        <time>2020-02-14T03:25:46.968Z</time>
      </trkpt>
      <trkpt lat="42.55753" lon="1.87594">
        <ele>1956.5</ele>
        <time>2020-02-14T03:25:49.153Z</time>
      </trkpt>
      <trkpt lat="42.55755" lon="1.87601">
        <ele>1957.4</ele>
        <time>2020-02-14T03:25:51.262Z</time>
      </trkpt>
      <trkpt lat="42.5576" lon="1.87619">
        <ele>1958.9</ele>
        <time>2020-02-14T03:25:56.675Z</time>
      </trkpt>
      <trkpt lat="42.55762" lon="1.87634">
        <ele>1960.4</ele>
        <time>2020-02-14T03:26:00.979Z</time>
      </trkpt>
      <trkpt lat="42.55764" lon="1.87646">
        <ele>1962.2</ele>
        <time>2020-02-14T03:26:04.591Z</time>
      </trkpt>
      <trkpt lat="42.55769" lon="1.87652">
        <ele>1962.2</ele>
        <time>2020-02-14T03:26:07.248Z</time>
      </trkpt>
      <trkpt lat="42.55769" lon="1.87655">
        <ele>1962.8</ele>
        <time>2020-02-14T03:26:08.086Z</time>
      </trkpt>
      <trkpt lat="42.55773" lon="1.8766">
        <ele>1963.3</ele>
        <time>2020-02-14T03:26:09.913Z</time>
      </trkpt>
      <trkpt lat="42.55776" lon="1.87664">
        <ele>1963.7</ele>
        <time>2020-02-14T03:26:11.657Z</time>
      </trkpt>
      <trkpt lat="42.55785" lon="1.87672">
        <ele>1965.2</ele>
        <time>2020-02-14T03:26:15.954Z</time>
      </trkpt>
      <trkpt lat="42.55798" lon="1.8768">
        <ele>1967.5</ele>
        <time>2020-02-14T03:26:21.312Z</time>
      </trkpt>
      <trkpt lat="42.55808" lon="1.87682">
        <ele>1969.5</ele>
        <time>2020-02-14T03:26:25.373Z</time>
      </trkpt>
      <trkpt lat="42.55817" lon="1.87684">
        <ele>1972.3</ele>
        <time>2020-02-14T03:26:29.209Z</time>
      </trkpt>
      <trkpt lat="42.55825" lon="1.87687">
        <ele>1974.3</ele>
        <time>2020-02-14T03:26:32.519Z</time>
      </trkpt>
      <trkpt lat="42.55836" lon="1.87691">
        <ele>1977.1</ele>
        <time>2020-02-14T03:26:36.794Z</time>
      </trkpt>
      <trkpt lat="42.55844" lon="1.87693">
        <ele>1979</ele>
        <time>2020-02-14T03:26:40.154Z</time>
      </trkpt>
      <trkpt lat="42.55851" lon="1.87697">
        <ele>1980.9</ele>
        <time>2020-02-14T03:26:42.955Z</time>
      </trkpt>
      <trkpt lat="42.55853" lon="1.87698">
        <ele>1981.9</ele>
        <time>2020-02-14T03:26:44.085Z</time>
      </trkpt>
      <trkpt lat="42.55858" lon="1.87704">
        <ele>1983</ele>
        <time>2020-02-14T03:26:46.358Z</time>
      </trkpt>
      <trkpt lat="42.55865" lon="1.87709">
        <ele>1984.8</ele>
        <time>2020-02-14T03:26:49.621Z</time>
      </trkpt>
      <trkpt lat="42.55867" lon="1.87709">
        <ele>1985.7</ele>
        <time>2020-02-14T03:26:50.387Z</time>
      </trkpt>
      <trkpt lat="42.55876" lon="1.87717">
        <ele>1987.2</ele>
        <time>2020-02-14T03:26:54.688Z</time>
      </trkpt>
      <trkpt lat="42.5588" lon="1.8772">
        <ele>1988.6</ele>
        <time>2020-02-14T03:26:56.375Z</time>
      </trkpt>
      <trkpt lat="42.55883" lon="1.87728">
        <ele>1988.6</ele>
        <time>2020-02-14T03:26:58.907Z</time>
      </trkpt>
      <trkpt lat="42.55887" lon="1.87739">
        <ele>1990.2</ele>
        <time>2020-02-14T03:27:02.601Z</time>
      </trkpt>
      <trkpt lat="42.55889" lon="1.87741">
        <ele>1990.6</ele>
        <time>2020-02-14T03:27:03.345Z</time>
      </trkpt>
      <trkpt lat="42.55896" lon="1.87748">
        <ele>1992.5</ele>
        <time>2020-02-14T03:27:06.872Z</time>
      </trkpt>
      <trkpt lat="42.55903" lon="1.87758">
        <ele>1994.9</ele>
        <time>2020-02-14T03:27:10.831Z</time>
      </trkpt>
      <trkpt lat="42.55904" lon="1.87759">
        <ele>1995.5</ele>
        <time>2020-02-14T03:27:11.273Z</time>
      </trkpt>
      <trkpt lat="42.55911" lon="1.87769">
        <ele>1996.3</ele>
        <time>2020-02-14T03:27:15.380Z</time>
      </trkpt>
      <trkpt lat="42.55913" lon="1.87772">
        <ele>1996.8</ele>
        <time>2020-02-14T03:27:16.447Z</time>
      </trkpt>
      <trkpt lat="42.55914" lon="1.87776">
        <ele>1996.9</ele>
        <time>2020-02-14T03:27:17.745Z</time>
      </trkpt>
      <trkpt lat="42.55925" lon="1.87785">
        <ele>1999.2</ele>
        <time>2020-02-14T03:27:22.731Z</time>
      </trkpt>
      <trkpt lat="42.55934" lon="1.87794">
        <ele>2001.1</ele>
        <time>2020-02-14T03:27:27.205Z</time>
      </trkpt>
      <trkpt lat="42.55937" lon="1.87803">
        <ele>2001.7</ele>
        <time>2020-02-14T03:27:29.909Z</time>
      </trkpt>
      <trkpt lat="42.55942" lon="1.87818">
        <ele>2002.2</ele>
        <time>2020-02-14T03:27:34.455Z</time>
      </trkpt>
      <trkpt lat="42.55943" lon="1.87822">
        <ele>2002.7</ele>
        <time>2020-02-14T03:27:35.818Z</time>
      </trkpt>
      <trkpt lat="42.55951" lon="1.87834">
        <ele>2004</ele>
        <time>2020-02-14T03:27:40.375Z</time>
      </trkpt>
      <trkpt lat="42.55958" lon="1.87845">
        <ele>2005.9</ele>
        <time>2020-02-14T03:27:44.618Z</time>
      </trkpt>
      <trkpt lat="42.5596" lon="1.87848">
        <ele>2006.4</ele>
        <time>2020-02-14T03:27:45.571Z</time>
      </trkpt>
      <trkpt lat="42.55966" lon="1.87861">
        <ele>2006.9</ele>
        <time>2020-02-14T03:27:50.106Z</time>
      </trkpt>
      <trkpt lat="42.55972" lon="1.87876">
        <ele>2008.4</ele>
        <time>2020-02-14T03:27:54.876Z</time>
      </trkpt>
      <trkpt lat="42.55973" lon="1.87876">
        <ele>2008.4</ele>
        <time>2020-02-14T03:27:55.161Z</time>
      </trkpt>
      <trkpt lat="42.55982" lon="1.87885">
        <ele>2011.3</ele>
        <time>2020-02-14T03:27:59.790Z</time>
      </trkpt>
      <trkpt lat="42.55985" lon="1.87894">
        <ele>2012.3</ele>
        <time>2020-02-14T03:28:02.528Z</time>
      </trkpt>
      <trkpt lat="42.55992" lon="1.87903">
        <ele>2013.1</ele>
        <time>2020-02-14T03:28:06.110Z</time>
      </trkpt>
      <trkpt lat="42.55994" lon="1.87909">
        <ele>2014.2</ele>
        <time>2020-02-14T03:28:08.129Z</time>
      </trkpt>
      <trkpt lat="42.55997" lon="1.87914">
        <ele>2016</ele>
        <time>2020-02-14T03:28:10.158Z</time>
      </trkpt>
      <trkpt lat="42.55998" lon="1.87917">
        <ele>2016.5</ele>
        <time>2020-02-14T03:28:11.056Z</time>
      </trkpt>
      <trkpt lat="42.56002" lon="1.87929">
        <ele>2017</ele>
        <time>2020-02-14T03:28:14.795Z</time>
      </trkpt>
      <trkpt lat="42.56008" lon="1.87943">
        <ele>2018.4</ele>
        <time>2020-02-14T03:28:19.310Z</time>
      </trkpt>
      <trkpt lat="42.56013" lon="1.87957">
        <ele>2020</ele>
        <time>2020-02-14T03:28:23.931Z</time>
      </trkpt>
      <trkpt lat="42.56013" lon="1.87958">
        <ele>2020.5</ele>
        <time>2020-02-14T03:28:24.291Z</time>
      </trkpt>
      <trkpt lat="42.56017" lon="1.87973">
        <ele>2021.3</ele>
        <time>2020-02-14T03:28:28.672Z</time>
      </trkpt>
      <trkpt lat="42.56018" lon="1.87979">
        <ele>2022.4</ele>
        <time>2020-02-14T03:28:30.567Z</time>
      </trkpt>
      <trkpt lat="42.5602" lon="1.87981">
        <ele>2023.3</ele>
        <time>2020-02-14T03:28:31.473Z</time>
      </trkpt>
      <trkpt lat="42.5602" lon="1.87985">
        <ele>2023.7</ele>
        <time>2020-02-14T03:28:32.691Z</time>
      </trkpt>
      <trkpt lat="42.56025" lon="1.87998">
        <ele>2025.3</ele>
        <time>2020-02-14T03:28:36.725Z</time>
      </trkpt>
      <trkpt lat="42.5603" lon="1.88009">
        <ele>2027.6</ele>
        <time>2020-02-14T03:28:40.622Z</time>
      </trkpt>
      <trkpt lat="42.56033" lon="1.88017">
        <ele>2029.5</ele>
        <time>2020-02-14T03:28:43.067Z</time>
      </trkpt>
      <trkpt lat="42.56035" lon="1.88031">
        <ele>2030</ele>
        <time>2020-02-14T03:28:47.131Z</time>
      </trkpt>
      <trkpt lat="42.56038" lon="1.88038">
        <ele>2032</ele>
        <time>2020-02-14T03:28:49.490Z</time>
      </trkpt>
      <trkpt lat="42.56038" lon="1.88052">
        <ele>2032.8</ele>
        <time>2020-02-14T03:28:53.626Z</time>
      </trkpt>
      <trkpt lat="42.56038" lon="1.88053">
        <ele>2034.4</ele>
        <time>2020-02-14T03:28:54.298Z</time>
      </trkpt>
      <trkpt lat="42.56038" lon="1.88069">
        <ele>2036.2</ele>
        <time>2020-02-14T03:28:58.669Z</time>
      </trkpt>
      <trkpt lat="42.56036" lon="1.88074">
        <ele>2036.8</ele>
        <time>2020-02-14T03:29:00.338Z</time>
      </trkpt>
      <trkpt lat="42.56031" lon="1.88095">
        <ele>2037.3</ele>
        <time>2020-02-14T03:29:06.654Z</time>
      </trkpt>
      <trkpt lat="42.56035" lon="1.88107">
        <ele>2039.7</ele>
        <time>2020-02-14T03:29:10.423Z</time>
      </trkpt>
      <trkpt lat="42.56038" lon="1.88121">
        <ele>2041.6</ele>
        <time>2020-02-14T03:29:14.719Z</time>
      </trkpt>
      <trkpt lat="42.56037" lon="1.88125">
        <ele>2041.5</ele>
        <time>2020-02-14T03:29:15.609Z</time>
      </trkpt>
      <trkpt lat="42.56042" lon="1.88133">
        <ele>2042.5</ele>
        <time>2020-02-14T03:29:18.607Z</time>
      </trkpt>
      <trkpt lat="42.56043" lon="1.88137">
        <ele>2043.4</ele>
        <time>2020-02-14T03:29:19.909Z</time>
      </trkpt>
      <trkpt lat="42.56046" lon="1.88148">
        <ele>2044.4</ele>
        <time>2020-02-14T03:29:23.289Z</time>
      </trkpt>
      <trkpt lat="42.56049" lon="1.8816">
        <ele>2045.8</ele>
        <time>2020-02-14T03:29:26.960Z</time>
      </trkpt>
      <trkpt lat="42.56048" lon="1.88162">
        <ele>2045.8</ele>
        <time>2020-02-14T03:29:27.432Z</time>
      </trkpt>
      <trkpt lat="42.56051" lon="1.88177">
        <ele>2047.9</ele>
        <time>2020-02-14T03:29:31.947Z</time>
      </trkpt>
      <trkpt lat="42.56052" lon="1.8818">
        <ele>2048.8</ele>
        <time>2020-02-14T03:29:32.910Z</time>
      </trkpt>
      <trkpt lat="42.56057" lon="1.88192">
        <ele>2051.6</ele>
        <time>2020-02-14T03:29:36.811Z</time>
      </trkpt>
      <trkpt lat="42.56059" lon="1.88199">
        <ele>2053.1</ele>
        <time>2020-02-14T03:29:39.262Z</time>
      </trkpt>
      <trkpt lat="42.5606" lon="1.88201">
        <ele>2053.1</ele>
        <time>2020-02-14T03:29:39.761Z</time>
      </trkpt>
      <trkpt lat="42.56063" lon="1.88213">
        <ele>2053.5</ele>
        <time>2020-02-14T03:29:43.314Z</time>
      </trkpt>
      <trkpt lat="42.56065" lon="1.88214">
        <ele>2054</ele>
        <time>2020-02-14T03:29:44.350Z</time>
      </trkpt>
      <trkpt lat="42.56069" lon="1.88227">
        <ele>2054.5</ele>
        <time>2020-02-14T03:29:48.092Z</time>
      </trkpt>
      <trkpt lat="42.5607" lon="1.88231">
        <ele>2055.4</ele>
        <time>2020-02-14T03:29:49.325Z</time>
      </trkpt>
      <trkpt lat="42.56071" lon="1.88236">
        <ele>2056.5</ele>
        <time>2020-02-14T03:29:50.955Z</time>
      </trkpt>
      <trkpt lat="42.56073" lon="1.88255">
        <ele>2056.9</ele>
        <time>2020-02-14T03:29:56.513Z</time>
      </trkpt>
      <trkpt lat="42.56072" lon="1.8826">
        <ele>2057.9</ele>
        <time>2020-02-14T03:29:57.934Z</time>
      </trkpt>
      <trkpt lat="42.56074" lon="1.88275">
        <ele>2059.9</ele>
        <time>2020-02-14T03:30:02.262Z</time>
      </trkpt>
      <trkpt lat="42.56079" lon="1.88285">
        <ele>2061.3</ele>
        <time>2020-02-14T03:30:05.610Z</time>
      </trkpt>
      <trkpt lat="42.56081" lon="1.88297">
        <ele>2062.3</ele>
        <time>2020-02-14T03:30:09.115Z</time>
      </trkpt>
      <trkpt lat="42.56082" lon="1.88311">
        <ele>2064.1</ele>
        <time>2020-02-14T03:30:13.178Z</time>
      </trkpt>
      <trkpt lat="42.56083" lon="1.88311">
        <ele>2064.2</ele>
        <time>2020-02-14T03:30:13.318Z</time>
      </trkpt>
      <trkpt lat="42.56087" lon="1.88322">
        <ele>2066.5</ele>
        <time>2020-02-14T03:30:16.985Z</time>
      </trkpt>
      <trkpt lat="42.56086" lon="1.88327">
        <ele>2067.9</ele>
        <time>2020-02-14T03:30:18.458Z</time>
      </trkpt>
      <trkpt lat="42.56085" lon="1.88343">
        <ele>2069.5</ele>
        <time>2020-02-14T03:30:22.905Z</time>
      </trkpt>
      <trkpt lat="42.56086" lon="1.88344">
        <ele>2069.5</ele>
        <time>2020-02-14T03:30:23.357Z</time>
      </trkpt>
      <trkpt lat="42.56091" lon="1.88353">
        <ele>2070.8</ele>
        <time>2020-02-14T03:30:26.605Z</time>
      </trkpt>
      <trkpt lat="42.56092" lon="1.88365">
        <ele>2070.8</ele>
        <time>2020-02-14T03:30:30.097Z</time>
      </trkpt>
      <trkpt lat="42.56098" lon="1.88373">
        <ele>2072.4</ele>
        <time>2020-02-14T03:30:33.270Z</time>
      </trkpt>
      <trkpt lat="42.56101" lon="1.88378">
        <ele>2072.8</ele>
        <time>2020-02-14T03:30:35.015Z</time>
      </trkpt>
      <trkpt lat="42.56104" lon="1.88396">
        <ele>2074.3</ele>
        <time>2020-02-14T03:30:40.543Z</time>
      </trkpt>
      <trkpt lat="42.56104" lon="1.88404">
        <ele>2075.7</ele>
        <time>2020-02-14T03:30:42.794Z</time>
      </trkpt>
      <trkpt lat="42.56106" lon="1.88421">
        <ele>2077.1</ele>
        <time>2020-02-14T03:30:47.556Z</time>
      </trkpt>
      <trkpt lat="42.56104" lon="1.88429">
        <ele>2078</ele>
        <time>2020-02-14T03:30:50.087Z</time>
      </trkpt>
      <trkpt lat="42.56106" lon="1.88435">
        <ele>2080</ele>
        <time>2020-02-14T03:30:51.821Z</time>
      </trkpt>
      <trkpt lat="42.56106" lon="1.88442">
        <ele>2081.5</ele>
        <time>2020-02-14T03:30:53.945Z</time>
      </trkpt>
      <trkpt lat="42.56104" lon="1.88452">
        <ele>2083.9</ele>
        <time>2020-02-14T03:30:57.039Z</time>
      </trkpt>
      <trkpt lat="42.56101" lon="1.88463">
        <ele>2086.3</ele>
        <time>2020-02-14T03:31:00.477Z</time>
      </trkpt>
      <trkpt lat="42.561" lon="1.88469">
        <ele>2087.3</ele>
        <time>2020-02-14T03:31:02.366Z</time>
      </trkpt>
      <trkpt lat="42.56099" lon="1.88479">
        <ele>2089.2</ele>
        <time>2020-02-14T03:31:05.366Z</time>
      </trkpt>
      <trkpt lat="42.56099" lon="1.88492">
        <ele>2091.5</ele>
        <time>2020-02-14T03:31:09.051Z</time>
      </trkpt>
      <trkpt lat="42.56099" lon="1.88494">
        <ele>2091.6</ele>
        <time>2020-02-14T03:31:09.504Z</time>
      </trkpt>
      <trkpt lat="42.56101" lon="1.88508">
        <ele>2091.5</ele>
        <time>2020-02-14T03:31:13.767Z</time>
      </trkpt>
      <trkpt lat="42.56106" lon="1.88518">
        <ele>2092.5</ele>
        <time>2020-02-14T03:31:17.113Z</time>
      </trkpt>
      <trkpt lat="42.56111" lon="1.8853">
        <ele>2094.4</ele>
        <time>2020-02-14T03:31:21.010Z</time>
      </trkpt>
      <trkpt lat="42.56114" lon="1.88538">
        <ele>2096.3</ele>
        <time>2020-02-14T03:31:23.646Z</time>
      </trkpt>
      <trkpt lat="42.56115" lon="1.88547">
        <ele>2098.3</ele>
        <time>2020-02-14T03:31:26.400Z</time>
      </trkpt>
      <trkpt lat="42.56117" lon="1.88557">
        <ele>2100.1</ele>
        <time>2020-02-14T03:31:29.258Z</time>
      </trkpt>
      <trkpt lat="42.56118" lon="1.88561">
        <ele>2101.1</ele>
        <time>2020-02-14T03:31:30.724Z</time>
      </trkpt>
      <trkpt lat="42.5612" lon="1.88571">
        <ele>2102.2</ele>
        <time>2020-02-14T03:31:33.747Z</time>
      </trkpt>
      <trkpt lat="42.56123" lon="1.88585">
        <ele>2104.5</ele>
        <time>2020-02-14T03:31:37.859Z</time>
      </trkpt>
      <trkpt lat="42.56127" lon="1.8859">
        <ele>2106.5</ele>
        <time>2020-02-14T03:31:40.060Z</time>
      </trkpt>
      <trkpt lat="42.5613" lon="1.88596">
        <ele>2107.4</ele>
        <time>2020-02-14T03:31:42.254Z</time>
      </trkpt>
      <trkpt lat="42.56134" lon="1.88606">
        <ele>2109.4</ele>
        <time>2020-02-14T03:31:45.353Z</time>
      </trkpt>
      <trkpt lat="42.56135" lon="1.88616">
        <ele>2111.8</ele>
        <time>2020-02-14T03:31:48.386Z</time>
      </trkpt>
      <trkpt lat="42.56136" lon="1.88625">
        <ele>2113.6</ele>
        <time>2020-02-14T03:31:51.092Z</time>
      </trkpt>
      <trkpt lat="42.56137" lon="1.88634">
        <ele>2115.5</ele>
        <time>2020-02-14T03:31:53.769Z</time>
      </trkpt>
      <trkpt lat="42.56139" lon="1.88639">
        <ele>2118</ele>
        <time>2020-02-14T03:31:55.772Z</time>
      </trkpt>
      <trkpt lat="42.56143" lon="1.88644">
        <ele>2119.5</ele>
        <time>2020-02-14T03:31:57.655Z</time>
      </trkpt>
      <trkpt lat="42.56146" lon="1.88648">
        <ele>2121.9</ele>
        <time>2020-02-14T03:31:59.632Z</time>
      </trkpt>
      <trkpt lat="42.5615" lon="1.88655">
        <ele>2124.8</ele>
        <time>2020-02-14T03:32:02.236Z</time>
      </trkpt>
      <trkpt lat="42.56152" lon="1.88657">
        <ele>2125.1</ele>
        <time>2020-02-14T03:32:03.188Z</time>
      </trkpt>
      <trkpt lat="42.56154" lon="1.88663">
        <ele>2127.5</ele>
        <time>2020-02-14T03:32:05.190Z</time>
      </trkpt>
      <trkpt lat="42.56154" lon="1.88671">
        <ele>2131.4</ele>
        <time>2020-02-14T03:32:07.844Z</time>
      </trkpt>
      <trkpt lat="42.56156" lon="1.88685">
        <ele>2131.4</ele>
        <time>2020-02-14T03:32:11.800Z</time>
      </trkpt>
      <trkpt lat="42.56157" lon="1.88697">
        <ele>2132</ele>
        <time>2020-02-14T03:32:15.254Z</time>
      </trkpt>
      <trkpt lat="42.56157" lon="1.88702">
        <ele>2131.9</ele>
        <time>2020-02-14T03:32:16.905Z</time>
      </trkpt>
      <trkpt lat="42.56157" lon="1.88719">
        <ele>2131.9</ele>
        <time>2020-02-14T03:32:21.653Z</time>
      </trkpt>
      <trkpt lat="42.56159" lon="1.88735">
        <ele>2132.3</ele>
        <time>2020-02-14T03:32:26.350Z</time>
      </trkpt>
      <trkpt lat="42.56161" lon="1.88744">
        <ele>2131.9</ele>
        <time>2020-02-14T03:32:28.860Z</time>
      </trkpt>
      <trkpt lat="42.56162" lon="1.88748">
        <ele>2131.9</ele>
        <time>2020-02-14T03:32:30.212Z</time>
      </trkpt>
      <trkpt lat="42.56162" lon="1.88752">
        <ele>2132.3</ele>
        <time>2020-02-14T03:32:31.221Z</time>
      </trkpt>
      <trkpt lat="42.56162" lon="1.88751">
        <ele>2132.3</ele>
        <time>2020-02-14T03:32:31.479Z</time>
      </trkpt>
      <trkpt lat="42.56164" lon="1.88746">
        <ele>2132.4</ele>
        <time>2020-02-14T03:32:33.096Z</time>
      </trkpt>
      <trkpt lat="42.56164" lon="1.88745">
        <ele>2132.3</ele>
        <time>2020-02-14T03:32:33.286Z</time>
      </trkpt>
      <trkpt lat="42.56164" lon="1.88745">
        <ele>2131.9</ele>
        <time>2020-02-14T03:32:33.515Z</time>
      </trkpt>
      <trkpt lat="42.56161" lon="1.88746">
        <ele>2135.2</ele>
        <time>2020-02-14T03:32:35.068Z</time>
      </trkpt>
      <trkpt lat="42.5616" lon="1.88744">
        <ele>2148.2</ele>
        <time>2020-02-14T03:32:39.640Z</time>
      </trkpt>
      <trkpt lat="42.5616" lon="1.88744">
        <ele>2138.1</ele>
        <time>2020-02-14T03:32:43.148Z</time>
      </trkpt>
      <trkpt lat="42.5616" lon="1.88755">
        <ele>2139.2</ele>
        <time>2020-02-14T03:32:46.189Z</time>
      </trkpt>
      <trkpt lat="42.56163" lon="1.88767">
        <ele>2139.2</ele>
        <time>2020-02-14T03:32:49.902Z</time>
      </trkpt>
      <trkpt lat="42.56166" lon="1.88773">
        <ele>2138.7</ele>
        <time>2020-02-14T03:32:51.741Z</time>
      </trkpt>
      <trkpt lat="42.56167" lon="1.88779">
        <ele>2138.6</ele>
        <time>2020-02-14T03:32:53.586Z</time>
      </trkpt>
      <trkpt lat="42.56175" lon="1.88797">
        <ele>2138.1</ele>
        <time>2020-02-14T03:32:59.582Z</time>
      </trkpt>
      <trkpt lat="42.56178" lon="1.88804">
        <ele>2138.7</ele>
        <time>2020-02-14T03:33:02.130Z</time>
      </trkpt>
      <trkpt lat="42.56182" lon="1.88825">
        <ele>2139.1</ele>
        <time>2020-02-14T03:33:08.126Z</time>
      </trkpt>
      <trkpt lat="42.56182" lon="1.88832">
        <ele>2139.2</ele>
        <time>2020-02-14T03:33:10.236Z</time>
      </trkpt>
      <trkpt lat="42.56185" lon="1.88853">
        <ele>2138.6</ele>
        <time>2020-02-14T03:33:16.202Z</time>
      </trkpt>
      <trkpt lat="42.56191" lon="1.8887">
        <ele>2138.6</ele>
        <time>2020-02-14T03:33:21.623Z</time>
      </trkpt>
      <trkpt lat="42.56198" lon="1.88885">
        <ele>2139.1</ele>
        <time>2020-02-14T03:33:26.613Z</time>
      </trkpt>
      <trkpt lat="42.56211" lon="1.88896">
        <ele>2138.6</ele>
        <time>2020-02-14T03:33:32.620Z</time>
      </trkpt>
      <trkpt lat="42.56227" lon="1.88905">
        <ele>2138.7</ele>
        <time>2020-02-14T03:33:39.241Z</time>
      </trkpt>
      <trkpt lat="42.56231" lon="1.88908">
        <ele>2138.6</ele>
        <time>2020-02-14T03:33:41.073Z</time>
      </trkpt>
      <trkpt lat="42.56234" lon="1.88911">
        <ele>2138.1</ele>
        <time>2020-02-14T03:33:42.557Z</time>
      </trkpt>
      <trkpt lat="42.56244" lon="1.88921">
        <ele>2138.6</ele>
        <time>2020-02-14T03:33:47.244Z</time>
      </trkpt>
      <trkpt lat="42.56246" lon="1.88922">
        <ele>2138.7</ele>
        <time>2020-02-14T03:33:48.102Z</time>
      </trkpt>
      <trkpt lat="42.56255" lon="1.88938">
        <ele>2138.6</ele>
        <time>2020-02-14T03:33:53.598Z</time>
      </trkpt>
      <trkpt lat="42.56257" lon="1.88939">
        <ele>2139.2</ele>
        <time>2020-02-14T03:33:54.474Z</time>
      </trkpt>
      <trkpt lat="42.5627" lon="1.88951">
        <ele>2138.1</ele>
        <time>2020-02-14T03:34:00.827Z</time>
      </trkpt>
      <trkpt lat="42.56279" lon="1.88958">
        <ele>2138.6</ele>
        <time>2020-02-14T03:34:04.779Z</time>
      </trkpt>
      <trkpt lat="42.56281" lon="1.8896">
        <ele>2138.1</ele>
        <time>2020-02-14T03:34:05.767Z</time>
      </trkpt>
      <trkpt lat="42.56294" lon="1.88973">
        <ele>2138.6</ele>
        <time>2020-02-14T03:34:11.849Z</time>
      </trkpt>
      <trkpt lat="42.56294" lon="1.88974">
        <ele>2138.2</ele>
        <time>2020-02-14T03:34:12.227Z</time>
      </trkpt>
      <trkpt lat="42.563" lon="1.88977">
        <ele>2138.2</ele>
        <time>2020-02-14T03:34:14.549Z</time>
      </trkpt>
      <trkpt lat="42.56305" lon="1.88985">
        <ele>2138.2</ele>
        <time>2020-02-14T03:34:17.680Z</time>
      </trkpt>
      <trkpt lat="42.5631" lon="1.88995">
        <ele>2138.2</ele>
        <time>2020-02-14T03:34:20.911Z</time>
      </trkpt>
      <trkpt lat="42.56315" lon="1.89005">
        <ele>2138.1</ele>
        <time>2020-02-14T03:34:24.496Z</time>
      </trkpt>
      <trkpt lat="42.56321" lon="1.89014">
        <ele>2139.2</ele>
        <time>2020-02-14T03:34:27.995Z</time>
      </trkpt>
      <trkpt lat="42.56328" lon="1.89018">
        <ele>2139.2</ele>
        <time>2020-02-14T03:34:30.898Z</time>
      </trkpt>
      <trkpt lat="42.56335" lon="1.89018">
        <ele>2139.2</ele>
        <time>2020-02-14T03:34:33.293Z</time>
      </trkpt>
      <trkpt lat="42.56343" lon="1.89011">
        <ele>2139.1</ele>
        <time>2020-02-14T03:34:37.026Z</time>
      </trkpt>
      <trkpt lat="42.56345" lon="1.89017">
        <ele>2138.6</ele>
        <time>2020-02-14T03:34:38.914Z</time>
      </trkpt>
      <trkpt lat="42.56347" lon="1.89022">
        <ele>2138.7</ele>
        <time>2020-02-14T03:34:40.362Z</time>
      </trkpt>
      <trkpt lat="42.56347" lon="1.89051">
        <ele>2138.6</ele>
        <time>2020-02-14T03:34:48.664Z</time>
      </trkpt>
      <trkpt lat="42.56349" lon="1.8906">
        <ele>2138.7</ele>
        <time>2020-02-14T03:34:51.169Z</time>
      </trkpt>
      <trkpt lat="42.56359" lon="1.89072">
        <ele>2139.1</ele>
        <time>2020-02-14T03:34:56.398Z</time>
      </trkpt>
      <trkpt lat="42.56362" lon="1.89075">
        <ele>2138.7</ele>
        <time>2020-02-14T03:34:57.782Z</time>
      </trkpt>
      <trkpt lat="42.56373" lon="1.89086">
        <ele>2138.7</ele>
        <time>2020-02-14T03:35:03.185Z</time>
      </trkpt>
      <trkpt lat="42.56376" lon="1.89087">
        <ele>2139.7</ele>
        <time>2020-02-14T03:35:04.301Z</time>
      </trkpt>
      <trkpt lat="42.5638" lon="1.89092">
        <ele>2139.6</ele>
        <time>2020-02-14T03:35:06.382Z</time>
      </trkpt>
      <trkpt lat="42.56382" lon="1.89092">
        <ele>2139.2</ele>
        <time>2020-02-14T03:35:07.096Z</time>
      </trkpt>
      <trkpt lat="42.56396" lon="1.891">
        <ele>2139.6</ele>
        <time>2020-02-14T03:35:13.022Z</time>
      </trkpt>
      <trkpt lat="42.5641" lon="1.89101">
        <ele>2139.6</ele>
        <time>2020-02-14T03:35:18.532Z</time>
      </trkpt>
      <trkpt lat="42.56411" lon="1.89102">
        <ele>2139.7</ele>
        <time>2020-02-14T03:35:18.951Z</time>
      </trkpt>
      <trkpt lat="42.56419" lon="1.89098">
        <ele>2139.1</ele>
        <time>2020-02-14T03:35:22.311Z</time>
      </trkpt>
      <trkpt lat="42.56423" lon="1.89085">
        <ele>2138.7</ele>
        <time>2020-02-14T03:35:26.465Z</time>
      </trkpt>
      <trkpt lat="42.56429" lon="1.89082">
        <ele>2139.2</ele>
        <time>2020-02-14T03:35:28.759Z</time>
      </trkpt>
      <trkpt lat="42.56434" lon="1.89083">
        <ele>2138.6</ele>
        <time>2020-02-14T03:35:30.799Z</time>
      </trkpt>
      <trkpt lat="42.56446" lon="1.89083">
        <ele>2138.7</ele>
        <time>2020-02-14T03:35:35.358Z</time>
      </trkpt>
      <trkpt lat="42.56449" lon="1.89082">
        <ele>2138.6</ele>
        <time>2020-02-14T03:35:36.588Z</time>
      </trkpt>
      <trkpt lat="42.56459" lon="1.89072">
        <ele>2137.6</ele>
        <time>2020-02-14T03:35:41.223Z</time>
      </trkpt>
      <trkpt lat="42.56466" lon="1.8906">
        <ele>2138.6</ele>
        <time>2020-02-14T03:35:45.864Z</time>
      </trkpt>
      <trkpt lat="42.56474" lon="1.89047">
        <ele>2137.6</ele>
        <time>2020-02-14T03:35:50.686Z</time>
      </trkpt>
      <trkpt lat="42.56487" lon="1.8904">
        <ele>2137.6</ele>
        <time>2020-02-14T03:35:55.800Z</time>
      </trkpt>
      <trkpt lat="42.56494" lon="1.89025">
        <ele>2138.6</ele>
        <time>2020-02-14T03:36:01.056Z</time>
      </trkpt>
      <trkpt lat="42.56502" lon="1.8902">
        <ele>2138.7</ele>
        <time>2020-02-14T03:36:04.264Z</time>
      </trkpt>
      <trkpt lat="42.56512" lon="1.89027">
        <ele>2138.2</ele>
        <time>2020-02-14T03:36:08.752Z</time>
      </trkpt>
      <trkpt lat="42.56525" lon="1.89021">
        <ele>2138.2</ele>
        <time>2020-02-14T03:36:14.237Z</time>
      </trkpt>
      <trkpt lat="42.56527" lon="1.89019">
        <ele>2138.7</ele>
        <time>2020-02-14T03:36:15.156Z</time>
      </trkpt>
      <trkpt lat="42.56531" lon="1.89016">
        <ele>2138.2</ele>
        <time>2020-02-14T03:36:16.911Z</time>
      </trkpt>
      <trkpt lat="42.56537" lon="1.89012">
        <ele>2137.6</ele>
        <time>2020-02-14T03:36:19.278Z</time>
      </trkpt>
      <trkpt lat="42.56546" lon="1.89007">
        <ele>2137.7</ele>
        <time>2020-02-14T03:36:23.321Z</time>
      </trkpt>
      <trkpt lat="42.56553" lon="1.89005">
        <ele>2138.1</ele>
        <time>2020-02-14T03:36:26.069Z</time>
      </trkpt>
      <trkpt lat="42.56565" lon="1.89004">
        <ele>2138.1</ele>
        <time>2020-02-14T03:36:30.560Z</time>
      </trkpt>
      <trkpt lat="42.56574" lon="1.89001">
        <ele>2137.6</ele>
        <time>2020-02-14T03:36:34.384Z</time>
      </trkpt>
      <trkpt lat="42.56592" lon="1.89006">
        <ele>2138.1</ele>
        <time>2020-02-14T03:36:41.201Z</time>
      </trkpt>
      <trkpt lat="42.56606" lon="1.89013">
        <ele>2138.7</ele>
        <time>2020-02-14T03:36:47.100Z</time>
      </trkpt>
      <trkpt lat="42.56616" lon="1.89024">
        <ele>2139.2</ele>
        <time>2020-02-14T03:36:52.081Z</time>
      </trkpt>
      <trkpt lat="42.56617" lon="1.89025">
        <ele>2138.6</ele>
        <time>2020-02-14T03:36:52.579Z</time>
      </trkpt>
      <trkpt lat="42.56619" lon="1.89027">
        <ele>2139.2</ele>
        <time>2020-02-14T03:36:53.474Z</time>
      </trkpt>
      <trkpt lat="42.56623" lon="1.89031">
        <ele>2139.1</ele>
        <time>2020-02-14T03:36:55.282Z</time>
      </trkpt>
      <trkpt lat="42.56633" lon="1.8903">
        <ele>2138.7</ele>
        <time>2020-02-14T03:36:59.424Z</time>
      </trkpt>
      <trkpt lat="42.56646" lon="1.89025">
        <ele>2138.7</ele>
        <time>2020-02-14T03:37:04.533Z</time>
      </trkpt>
      <trkpt lat="42.56649" lon="1.89022">
        <ele>2138.2</ele>
        <time>2020-02-14T03:37:06.000Z</time>
      </trkpt>
      <trkpt lat="42.56659" lon="1.8901">
        <ele>2138.6</ele>
        <time>2020-02-14T03:37:11.142Z</time>
      </trkpt>
      <trkpt lat="42.56661" lon="1.89005">
        <ele>2138.6</ele>
        <time>2020-02-14T03:37:12.540Z</time>
      </trkpt>
      <trkpt lat="42.56666" lon="1.88994">
        <ele>2138.7</ele>
        <time>2020-02-14T03:37:16.335Z</time>
      </trkpt>
      <trkpt lat="42.56675" lon="1.88986">
        <ele>2139.7</ele>
        <time>2020-02-14T03:37:20.660Z</time>
      </trkpt>
      <trkpt lat="42.56681" lon="1.88984">
        <ele>2138.6</ele>
        <time>2020-02-14T03:37:22.887Z</time>
      </trkpt>
      <trkpt lat="42.56689" lon="1.88984">
        <ele>2139.2</ele>
        <time>2020-02-14T03:37:25.869Z</time>
      </trkpt>
      <trkpt lat="42.56697" lon="1.88989">
        <ele>2139.2</ele>
        <time>2020-02-14T03:37:29.292Z</time>
      </trkpt>
      <trkpt lat="42.56706" lon="1.88997">
        <ele>2140</ele>
        <time>2020-02-14T03:37:33.395Z</time>
      </trkpt>
      <trkpt lat="42.56715" lon="1.89002">
        <ele>2139.6</ele>
        <time>2020-02-14T03:37:37.291Z</time>
      </trkpt>
      <trkpt lat="42.56721" lon="1.89008">
        <ele>2138.7</ele>
        <time>2020-02-14T03:37:40.076Z</time>
      </trkpt>
      <trkpt lat="42.56726" lon="1.89017">
        <ele>2138.6</ele>
        <time>2020-02-14T03:37:43.241Z</time>
      </trkpt>
      <trkpt lat="42.56732" lon="1.89028">
        <ele>2139.1</ele>
        <time>2020-02-14T03:37:47.139Z</time>
      </trkpt>
      <trkpt lat="42.56735" lon="1.89028">
        <ele>2139.6</ele>
        <time>2020-02-14T03:37:48.657Z</time>
      </trkpt>
      <trkpt lat="42.56745" lon="1.89037">
        <ele>2139.1</ele>
        <time>2020-02-14T03:37:53.134Z</time>
      </trkpt>
      <trkpt lat="42.56748" lon="1.89038">
        <ele>2139.6</ele>
        <time>2020-02-14T03:37:54.399Z</time>
      </trkpt>
      <trkpt lat="42.56756" lon="1.89037">
        <ele>2140.1</ele>
        <time>2020-02-14T03:37:57.442Z</time>
      </trkpt>
      <trkpt lat="42.56763" lon="1.89033">
        <ele>2139.6</ele>
        <time>2020-02-14T03:38:00.152Z</time>
      </trkpt>
      <trkpt lat="42.56778" lon="1.89028">
        <ele>2140.1</ele>
        <time>2020-02-14T03:38:06.252Z</time>
      </trkpt>
      <trkpt lat="42.56782" lon="1.89024">
        <ele>2139.7</ele>
        <time>2020-02-14T03:38:08.266Z</time>
      </trkpt>
      <trkpt lat="42.56785" lon="1.89021">
        <ele>2139.6</ele>
        <time>2020-02-14T03:38:09.640Z</time>
      </trkpt>
      <trkpt lat="42.568" lon="1.89013">
        <ele>2140</ele>
        <time>2020-02-14T03:38:15.803Z</time>
      </trkpt>
      <trkpt lat="42.56803" lon="1.89011">
        <ele>2140.5</ele>
        <time>2020-02-14T03:38:17.281Z</time>
      </trkpt>
      <trkpt lat="42.56813" lon="1.88995">
        <ele>2139.1</ele>
        <time>2020-02-14T03:38:23.109Z</time>
      </trkpt>
      <trkpt lat="42.5682" lon="1.88989">
        <ele>2139.1</ele>
        <time>2020-02-14T03:38:26.273Z</time>
      </trkpt>
      <trkpt lat="42.56823" lon="1.88985">
        <ele>2138.7</ele>
        <time>2020-02-14T03:38:27.935Z</time>
      </trkpt>
      <trkpt lat="42.56831" lon="1.88981">
        <ele>2138.1</ele>
        <time>2020-02-14T03:38:31.411Z</time>
      </trkpt>
      <trkpt lat="42.56844" lon="1.88977">
        <ele>2138.2</ele>
        <time>2020-02-14T03:38:36.410Z</time>
      </trkpt>
      <trkpt lat="42.56848" lon="1.88976">
        <ele>2139.1</ele>
        <time>2020-02-14T03:38:37.798Z</time>
      </trkpt>
      <trkpt lat="42.56857" lon="1.88976">
        <ele>2136.3</ele>
        <time>2020-02-14T03:38:41.675Z</time>
      </trkpt>
      <trkpt lat="42.56859" lon="1.88977">
        <ele>2135.3</ele>
        <time>2020-02-14T03:38:42.666Z</time>
      </trkpt>
      <trkpt lat="42.56865" lon="1.8898">
        <ele>2134.3</ele>
        <time>2020-02-14T03:38:44.809Z</time>
      </trkpt>
      <trkpt lat="42.56869" lon="1.88981">
        <ele>2134.4</ele>
        <time>2020-02-14T03:38:46.680Z</time>
      </trkpt>
      <trkpt lat="42.56874" lon="1.88985">
        <ele>2133.8</ele>
        <time>2020-02-14T03:38:48.941Z</time>
      </trkpt>
      <trkpt lat="42.56879" lon="1.88988">
        <ele>2133.3</ele>
        <time>2020-02-14T03:38:50.893Z</time>
      </trkpt>
      <trkpt lat="42.56888" lon="1.89002">
        <ele>2133.8</ele>
        <time>2020-02-14T03:38:56.407Z</time>
      </trkpt>
      <trkpt lat="42.56895" lon="1.89005">
        <ele>2134.8</ele>
        <time>2020-02-14T03:38:59.032Z</time>
      </trkpt>
      <trkpt lat="42.56898" lon="1.89005">
        <ele>2133.9</ele>
        <time>2020-02-14T03:39:00.420Z</time>
      </trkpt>
      <trkpt lat="42.56901" lon="1.89006">
        <ele>2133.3</ele>
        <time>2020-02-14T03:39:01.450Z</time>
      </trkpt>
      <trkpt lat="42.56904" lon="1.89008">
        <ele>2133.3</ele>
        <time>2020-02-14T03:39:03.005Z</time>
      </trkpt>
      <trkpt lat="42.56908" lon="1.89008">
        <ele>2133.3</ele>
        <time>2020-02-14T03:39:04.363Z</time>
      </trkpt>
      <trkpt lat="42.56918" lon="1.89007">
        <ele>2133.3</ele>
        <time>2020-02-14T03:39:08.462Z</time>
      </trkpt>
      <trkpt lat="42.56924" lon="1.89006">
        <ele>2133.4</ele>
        <time>2020-02-14T03:39:10.651Z</time>
      </trkpt>
      <trkpt lat="42.56926" lon="1.89007">
        <ele>2133.9</ele>
        <time>2020-02-14T03:39:11.502Z</time>
      </trkpt>
      <trkpt lat="42.56938" lon="1.89006">
        <ele>2135.7</ele>
        <time>2020-02-14T03:39:15.993Z</time>
      </trkpt>
      <trkpt lat="42.56949" lon="1.89006">
        <ele>2134.3</ele>
        <time>2020-02-14T03:39:20.268Z</time>
      </trkpt>
      <trkpt lat="42.5696" lon="1.89006">
        <ele>2133.3</ele>
        <time>2020-02-14T03:39:24.761Z</time>
      </trkpt>
      <trkpt lat="42.56965" lon="1.89005">
        <ele>2133.8</ele>
        <time>2020-02-14T03:39:26.440Z</time>
      </trkpt>
      <trkpt lat="42.56974" lon="1.89007">
        <ele>2132.8</ele>
        <time>2020-02-14T03:39:30.039Z</time>
      </trkpt>
      <trkpt lat="42.56977" lon="1.89008">
        <ele>2133.8</ele>
        <time>2020-02-14T03:39:31.381Z</time>
      </trkpt>
      <trkpt lat="42.56986" lon="1.8901">
        <ele>2135.3</ele>
        <time>2020-02-14T03:39:34.954Z</time>
      </trkpt>
      <trkpt lat="42.56995" lon="1.89015">
        <ele>2135.8</ele>
        <time>2020-02-14T03:39:38.573Z</time>
      </trkpt>
      <trkpt lat="42.57008" lon="1.8902">
        <ele>2136.8</ele>
        <time>2020-02-14T03:39:43.828Z</time>
      </trkpt>
      <trkpt lat="42.57015" lon="1.89023">
        <ele>2136.8</ele>
        <time>2020-02-14T03:39:46.626Z</time>
      </trkpt>
      <trkpt lat="42.57023" lon="1.89027">
        <ele>2137.6</ele>
        <time>2020-02-14T03:39:49.928Z</time>
      </trkpt>
      <trkpt lat="42.57028" lon="1.89027">
        <ele>2137.3</ele>
        <time>2020-02-14T03:39:51.833Z</time>
      </trkpt>
      <trkpt lat="42.57033" lon="1.89031">
        <ele>2137.2</ele>
        <time>2020-02-14T03:39:54.186Z</time>
      </trkpt>
      <trkpt lat="42.57041" lon="1.89036">
        <ele>2138.6</ele>
        <time>2020-02-14T03:39:57.677Z</time>
      </trkpt>
      <trkpt lat="42.57047" lon="1.8904">
        <ele>2138.1</ele>
        <time>2020-02-14T03:40:00.145Z</time>
      </trkpt>
      <trkpt lat="42.57051" lon="1.8904">
        <ele>2139.1</ele>
        <time>2020-02-14T03:40:01.847Z</time>
      </trkpt>
      <trkpt lat="42.5706" lon="1.89042">
        <ele>2141.1</ele>
        <time>2020-02-14T03:40:05.411Z</time>
      </trkpt>
      <trkpt lat="42.57067" lon="1.89039">
        <ele>2142.4</ele>
        <time>2020-02-14T03:40:08.286Z</time>
      </trkpt>
      <trkpt lat="42.57075" lon="1.89038">
        <ele>2142.5</ele>
        <time>2020-02-14T03:40:11.310Z</time>
      </trkpt>
      <trkpt lat="42.57083" lon="1.8904">
        <ele>2141</ele>
        <time>2020-02-14T03:40:14.457Z</time>
      </trkpt>
      <trkpt lat="42.57091" lon="1.89036">
        <ele>2142</ele>
        <time>2020-02-14T03:40:17.874Z</time>
      </trkpt>
      <trkpt lat="42.57103" lon="1.89036">
        <ele>2144</ele>
        <time>2020-02-14T03:40:22.404Z</time>
      </trkpt>
      <trkpt lat="42.57109" lon="1.89045">
        <ele>2143.4</ele>
        <time>2020-02-14T03:40:26.126Z</time>
      </trkpt>
      <trkpt lat="42.57113" lon="1.8905">
        <ele>2142.4</ele>
        <time>2020-02-14T03:40:28.174Z</time>
      </trkpt>
      <trkpt lat="42.57116" lon="1.89053">
        <ele>2142</ele>
        <time>2020-02-14T03:40:29.661Z</time>
      </trkpt>
      <trkpt lat="42.57128" lon="1.89055">
        <ele>2143</ele>
        <time>2020-02-14T03:40:34.062Z</time>
      </trkpt>
      <trkpt lat="42.57129" lon="1.89056">
        <ele>2143</ele>
        <time>2020-02-14T03:40:34.705Z</time>
      </trkpt>
      <trkpt lat="42.57134" lon="1.89063">
        <ele>2142.4</ele>
        <time>2020-02-14T03:40:37.595Z</time>
      </trkpt>
      <trkpt lat="42.57141" lon="1.89074">
        <ele>2142.1</ele>
        <time>2020-02-14T03:40:41.558Z</time>
      </trkpt>
      <trkpt lat="42.57145" lon="1.89077">
        <ele>2142.1</ele>
        <time>2020-02-14T03:40:43.300Z</time>
      </trkpt>
      <trkpt lat="42.57156" lon="1.89088">
        <ele>2143.5</ele>
        <time>2020-02-14T03:40:48.663Z</time>
      </trkpt>
      <trkpt lat="42.57159" lon="1.89088">
        <ele>2144.5</ele>
        <time>2020-02-14T03:40:50.026Z</time>
      </trkpt>
      <trkpt lat="42.57163" lon="1.89094">
        <ele>2144</ele>
        <time>2020-02-14T03:40:52.181Z</time>
      </trkpt>
      <trkpt lat="42.57166" lon="1.89096">
        <ele>2142.5</ele>
        <time>2020-02-14T03:40:53.624Z</time>
      </trkpt>
      <trkpt lat="42.57167" lon="1.89098">
        <ele>2142</ele>
        <time>2020-02-14T03:40:54.230Z</time>
      </trkpt>
      <trkpt lat="42.57174" lon="1.89105">
        <ele>2140</ele>
        <time>2020-02-14T03:40:57.571Z</time>
      </trkpt>
      <trkpt lat="42.57179" lon="1.89113">
        <ele>2138.2</ele>
        <time>2020-02-14T03:41:00.582Z</time>
      </trkpt>
      <trkpt lat="42.57179" lon="1.89117">
        <ele>2138.2</ele>
        <time>2020-02-14T03:41:01.801Z</time>
      </trkpt>
      <trkpt lat="42.57191" lon="1.89124">
        <ele>2137.2</ele>
        <time>2020-02-14T03:41:06.866Z</time>
      </trkpt>
      <trkpt lat="42.57193" lon="1.89125">
        <ele>2136.7</ele>
        <time>2020-02-14T03:41:07.523Z</time>
      </trkpt>
      <trkpt lat="42.57197" lon="1.89128">
        <ele>2137.3</ele>
        <time>2020-02-14T03:41:09.485Z</time>
      </trkpt>
      <trkpt lat="42.57202" lon="1.89129">
        <ele>2138.2</ele>
        <time>2020-02-14T03:41:11.562Z</time>
      </trkpt>
      <trkpt lat="42.57217" lon="1.89134">
        <ele>2137.6</ele>
        <time>2020-02-14T03:41:17.476Z</time>
      </trkpt>
      <trkpt lat="42.57223" lon="1.89137">
        <ele>2137.3</ele>
        <time>2020-02-14T03:41:19.957Z</time>
      </trkpt>
      <trkpt lat="42.57237" lon="1.89147">
        <ele>2137.3</ele>
        <time>2020-02-14T03:41:25.995Z</time>
      </trkpt>
      <trkpt lat="42.57239" lon="1.89161">
        <ele>2137.6</ele>
        <time>2020-02-14T03:41:29.963Z</time>
      </trkpt>
      <trkpt lat="42.57242" lon="1.89169">
        <ele>2138.1</ele>
        <time>2020-02-14T03:41:32.476Z</time>
      </trkpt>
      <trkpt lat="42.57256" lon="1.89182">
        <ele>2137.3</ele>
        <time>2020-02-14T03:41:39.021Z</time>
      </trkpt>
      <trkpt lat="42.57256" lon="1.89184">
        <ele>2137.6</ele>
        <time>2020-02-14T03:41:39.512Z</time>
      </trkpt>
      <trkpt lat="42.57258" lon="1.89186">
        <ele>2137.2</ele>
        <time>2020-02-14T03:41:40.534Z</time>
      </trkpt>
      <trkpt lat="42.57261" lon="1.89189">
        <ele>2137.6</ele>
        <time>2020-02-14T03:41:41.992Z</time>
      </trkpt>
      <trkpt lat="42.57264" lon="1.89192">
        <ele>2137.7</ele>
        <time>2020-02-14T03:41:43.382Z</time>
      </trkpt>
      <trkpt lat="42.57272" lon="1.89193">
        <ele>2138.2</ele>
        <time>2020-02-14T03:41:46.527Z</time>
      </trkpt>
      <trkpt lat="42.57282" lon="1.89184">
        <ele>2137.3</ele>
        <time>2020-02-14T03:41:51.012Z</time>
      </trkpt>
      <trkpt lat="42.57284" lon="1.89182">
        <ele>2138.2</ele>
        <time>2020-02-14T03:41:52.123Z</time>
      </trkpt>
      <trkpt lat="42.57286" lon="1.8918">
        <ele>2138.2</ele>
        <time>2020-02-14T03:41:53.213Z</time>
      </trkpt>
      <trkpt lat="42.57292" lon="1.89177">
        <ele>2137.6</ele>
        <time>2020-02-14T03:41:55.542Z</time>
      </trkpt>
      <trkpt lat="42.57295" lon="1.89176">
        <ele>2137.6</ele>
        <time>2020-02-14T03:41:56.970Z</time>
      </trkpt>
      <trkpt lat="42.57313" lon="1.89176">
        <ele>2139.2</ele>
        <time>2020-02-14T03:42:03.710Z</time>
      </trkpt>
      <trkpt lat="42.57326" lon="1.89182">
        <ele>2140</ele>
        <time>2020-02-14T03:42:09.118Z</time>
      </trkpt>
      <trkpt lat="42.57331" lon="1.89184">
        <ele>2140.1</ele>
        <time>2020-02-14T03:42:11.128Z</time>
      </trkpt>
      <trkpt lat="42.57337" lon="1.89184">
        <ele>2139.6</ele>
        <time>2020-02-14T03:42:13.645Z</time>
      </trkpt>
      <trkpt lat="42.57344" lon="1.89184">
        <ele>2139.7</ele>
        <time>2020-02-14T03:42:16.238Z</time>
      </trkpt>
      <trkpt lat="42.57349" lon="1.89184">
        <ele>2139.7</ele>
        <time>2020-02-14T03:42:18.283Z</time>
      </trkpt>
      <trkpt lat="42.57362" lon="1.89189">
        <ele>2140</ele>
        <time>2020-02-14T03:42:23.279Z</time>
      </trkpt>
      <trkpt lat="42.57367" lon="1.89193">
        <ele>2139.7</ele>
        <time>2020-02-14T03:42:25.631Z</time>
      </trkpt>
      <trkpt lat="42.57369" lon="1.89198">
        <ele>2138.7</ele>
        <time>2020-02-14T03:42:27.141Z</time>
      </trkpt>
      <trkpt lat="42.5737" lon="1.89201">
        <ele>2139.6</ele>
        <time>2020-02-14T03:42:28.182Z</time>
      </trkpt>
      <trkpt lat="42.5737" lon="1.89209">
        <ele>2137.6</ele>
        <time>2020-02-14T03:42:30.549Z</time>
      </trkpt>
      <trkpt lat="42.57372" lon="1.89215">
        <ele>2137.3</ele>
        <time>2020-02-14T03:42:32.429Z</time>
      </trkpt>
      <trkpt lat="42.5738" lon="1.89226">
        <ele>2136.7</ele>
        <time>2020-02-14T03:42:36.640Z</time>
      </trkpt>
      <trkpt lat="42.57384" lon="1.8924">
        <ele>2136.8</ele>
        <time>2020-02-14T03:42:41.141Z</time>
      </trkpt>
      <trkpt lat="42.57392" lon="1.8925">
        <ele>2137.2</ele>
        <time>2020-02-14T03:42:45.359Z</time>
      </trkpt>
      <trkpt lat="42.57397" lon="1.89252">
        <ele>2136.7</ele>
        <time>2020-02-14T03:42:47.145Z</time>
      </trkpt>
      <trkpt lat="42.57398" lon="1.89255">
        <ele>2136.7</ele>
        <time>2020-02-14T03:42:48.161Z</time>
      </trkpt>
      <trkpt lat="42.57402" lon="1.89269">
        <ele>2137.7</ele>
        <time>2020-02-14T03:42:52.390Z</time>
      </trkpt>
      <trkpt lat="42.57404" lon="1.89273">
        <ele>2137.3</ele>
        <time>2020-02-14T03:42:53.857Z</time>
      </trkpt>
      <trkpt lat="42.57407" lon="1.89275">
        <ele>2136.8</ele>
        <time>2020-02-14T03:42:55.270Z</time>
      </trkpt>
      <trkpt lat="42.57409" lon="1.89277">
        <ele>2137.2</ele>
        <time>2020-02-14T03:42:56.389Z</time>
      </trkpt>
      <trkpt lat="42.57413" lon="1.8928">
        <ele>2137.2</ele>
        <time>2020-02-14T03:42:57.788Z</time>
      </trkpt>
      <trkpt lat="42.57419" lon="1.89292">
        <ele>2137.2</ele>
        <time>2020-02-14T03:43:02.056Z</time>
      </trkpt>
      <trkpt lat="42.57424" lon="1.893">
        <ele>2137.3</ele>
        <time>2020-02-14T03:43:05.199Z</time>
      </trkpt>
      <trkpt lat="42.57427" lon="1.89316">
        <ele>2137.3</ele>
        <time>2020-02-14T03:43:09.827Z</time>
      </trkpt>
      <trkpt lat="42.57428" lon="1.8932">
        <ele>2136.7</ele>
        <time>2020-02-14T03:43:11.046Z</time>
      </trkpt>
      <trkpt lat="42.57432" lon="1.89331">
        <ele>2137.3</ele>
        <time>2020-02-14T03:43:14.495Z</time>
      </trkpt>
      <trkpt lat="42.57433" lon="1.89336">
        <ele>2137.2</ele>
        <time>2020-02-14T03:43:15.949Z</time>
      </trkpt>
      <trkpt lat="42.57444" lon="1.89355">
        <ele>2137.3</ele>
        <time>2020-02-14T03:43:22.933Z</time>
      </trkpt>
      <trkpt lat="42.57455" lon="1.89374">
        <ele>2137.3</ele>
        <time>2020-02-14T03:43:29.778Z</time>
      </trkpt>
      <trkpt lat="42.57463" lon="1.89375">
        <ele>2137.2</ele>
        <time>2020-02-14T03:43:32.907Z</time>
      </trkpt>
      <trkpt lat="42.57464" lon="1.89375">
        <ele>2137.2</ele>
        <time>2020-02-14T03:43:33.451Z</time>
      </trkpt>
      <trkpt lat="42.57465" lon="1.89375">
        <ele>2137.2</ele>
        <time>2020-02-14T03:43:33.782Z</time>
      </trkpt>
      <trkpt lat="42.57466" lon="1.89373">
        <ele>2138.2</ele>
        <time>2020-02-14T03:43:34.531Z</time>
      </trkpt>
      <trkpt lat="42.57466" lon="1.89373">
        <ele>2140.1</ele>
        <time>2020-02-14T03:43:35.197Z</time>
      </trkpt>
      <trkpt lat="42.57466" lon="1.89373">
        <ele>2138.1</ele>
        <time>2020-02-14T03:43:35.869Z</time>
      </trkpt>
      <trkpt lat="42.57466" lon="1.89383">
        <ele>2136.2</ele>
        <time>2020-02-14T03:43:38.982Z</time>
      </trkpt>
      <trkpt lat="42.57474" lon="1.894">
        <ele>2134.4</ele>
        <time>2020-02-14T03:43:44.837Z</time>
      </trkpt>
      <trkpt lat="42.57479" lon="1.89405">
        <ele>2136.8</ele>
        <time>2020-02-14T03:43:47.199Z</time>
      </trkpt>
      <trkpt lat="42.57481" lon="1.89407">
        <ele>2137.3</ele>
        <time>2020-02-14T03:43:48.127Z</time>
      </trkpt>
      <trkpt lat="42.57487" lon="1.89411">
        <ele>2138.2</ele>
        <time>2020-02-14T03:43:50.575Z</time>
      </trkpt>
      <trkpt lat="42.57491" lon="1.89415">
        <ele>2139.6</ele>
        <time>2020-02-14T03:43:52.777Z</time>
      </trkpt>
      <trkpt lat="42.57497" lon="1.89417">
        <ele>2142</ele>
        <time>2020-02-14T03:43:55.342Z</time>
      </trkpt>
      <trkpt lat="42.57502" lon="1.8942">
        <ele>2143.4</ele>
        <time>2020-02-14T03:43:57.325Z</time>
      </trkpt>
      <trkpt lat="42.57512" lon="1.89419">
        <ele>2145.9</ele>
        <time>2020-02-14T03:44:01.505Z</time>
      </trkpt>
      <trkpt lat="42.57515" lon="1.89412">
        <ele>2145.9</ele>
        <time>2020-02-14T03:44:03.843Z</time>
      </trkpt>
      <trkpt lat="42.57518" lon="1.89411">
        <ele>2147.3</ele>
        <time>2020-02-14T03:44:05.226Z</time>
      </trkpt>
      <trkpt lat="42.5752" lon="1.8941">
        <ele>2148.2</ele>
        <time>2020-02-14T03:44:06.109Z</time>
      </trkpt>
      <trkpt lat="42.57523" lon="1.89413">
        <ele>2151.6</ele>
        <time>2020-02-14T03:44:07.847Z</time>
      </trkpt>
      <trkpt lat="42.57527" lon="1.89413">
        <ele>2152.2</ele>
        <time>2020-02-14T03:44:09.600Z</time>
      </trkpt>
      <trkpt lat="42.57528" lon="1.89416">
        <ele>2151.1</ele>
        <time>2020-02-14T03:44:10.682Z</time>
      </trkpt>
      <trkpt lat="42.57534" lon="1.89421">
        <ele>2149.7</ele>
        <time>2020-02-14T03:44:13.400Z</time>
      </trkpt>
      <trkpt lat="42.57535" lon="1.89425">
        <ele>2148.8</ele>
        <time>2020-02-14T03:44:14.862Z</time>
      </trkpt>
      <trkpt lat="42.57533" lon="1.89429">
        <ele>2147.2</ele>
        <time>2020-02-14T03:44:16.282Z</time>
      </trkpt>
      <trkpt lat="42.57529" lon="1.89446">
        <ele>2147.7</ele>
        <time>2020-02-14T03:44:21.460Z</time>
      </trkpt>
      <trkpt lat="42.57529" lon="1.89457">
        <ele>2149.8</ele>
        <time>2020-02-14T03:44:24.810Z</time>
      </trkpt>
      <trkpt lat="42.57529" lon="1.89466">
        <ele>2152.5</ele>
        <time>2020-02-14T03:44:27.489Z</time>
      </trkpt>
      <trkpt lat="42.57536" lon="1.89468">
        <ele>2154.6</ele>
        <time>2020-02-14T03:44:30.416Z</time>
      </trkpt>
      <trkpt lat="42.57539" lon="1.89466">
        <ele>2154.6</ele>
        <time>2020-02-14T03:44:31.601Z</time>
      </trkpt>
      <trkpt lat="42.57549" lon="1.89465">
        <ele>2155</ele>
        <time>2020-02-14T03:44:35.470Z</time>
      </trkpt>
      <trkpt lat="42.57563" lon="1.89473">
        <ele>2156.5</ele>
        <time>2020-02-14T03:44:41.526Z</time>
      </trkpt>
      <trkpt lat="42.57565" lon="1.89473">
        <ele>2156.9</ele>
        <time>2020-02-14T03:44:42.360Z</time>
      </trkpt>
      <trkpt lat="42.57569" lon="1.89474">
        <ele>2156.5</ele>
        <time>2020-02-14T03:44:43.677Z</time>
      </trkpt>
      <trkpt lat="42.57579" lon="1.89476">
        <ele>2157.3</ele>
        <time>2020-02-14T03:44:47.535Z</time>
      </trkpt>
      <trkpt lat="42.57594" lon="1.89474">
        <ele>2157.3</ele>
        <time>2020-02-14T03:44:53.526Z</time>
      </trkpt>
      <trkpt lat="42.57601" lon="1.89471">
        <ele>2156.4</ele>
        <time>2020-02-14T03:44:56.215Z</time>
      </trkpt>
      <trkpt lat="42.57607" lon="1.89476">
        <ele>2156.4</ele>
        <time>2020-02-14T03:44:58.975Z</time>
      </trkpt>
      <trkpt lat="42.57609" lon="1.89477">
        <ele>2157</ele>
        <time>2020-02-14T03:45:00.096Z</time>
      </trkpt>
      <trkpt lat="42.57611" lon="1.89483">
        <ele>2156</ele>
        <time>2020-02-14T03:45:02.074Z</time>
      </trkpt>
      <trkpt lat="42.57617" lon="1.89494">
        <ele>2157.4</ele>
        <time>2020-02-14T03:45:06.001Z</time>
      </trkpt>
      <trkpt lat="42.57621" lon="1.895">
        <ele>2157.4</ele>
        <time>2020-02-14T03:45:08.112Z</time>
      </trkpt>
      <trkpt lat="42.57625" lon="1.8951">
        <ele>2158.4</ele>
        <time>2020-02-14T03:45:11.534Z</time>
      </trkpt>
      <trkpt lat="42.57627" lon="1.89531">
        <ele>2159.3</ele>
        <time>2020-02-14T03:45:17.360Z</time>
      </trkpt>
      <trkpt lat="42.57629" lon="1.89537">
        <ele>2158.9</ele>
        <time>2020-02-14T03:45:19.380Z</time>
      </trkpt>
      <trkpt lat="42.57631" lon="1.89553">
        <ele>2159.7</ele>
        <time>2020-02-14T03:45:24.049Z</time>
      </trkpt>
      <trkpt lat="42.57631" lon="1.89568">
        <ele>2160.2</ele>
        <time>2020-02-14T03:45:28.320Z</time>
      </trkpt>
      <trkpt lat="42.57632" lon="1.89573">
        <ele>2160.7</ele>
        <time>2020-02-14T03:45:29.720Z</time>
      </trkpt>
      <trkpt lat="42.57634" lon="1.89593">
        <ele>2161.8</ele>
        <time>2020-02-14T03:45:35.520Z</time>
      </trkpt>
      <trkpt lat="42.57636" lon="1.89602">
        <ele>2161.7</ele>
        <time>2020-02-14T03:45:38.134Z</time>
      </trkpt>
      <trkpt lat="42.57638" lon="1.89615">
        <ele>2162.6</ele>
        <time>2020-02-14T03:45:41.809Z</time>
      </trkpt>
      <trkpt lat="42.57639" lon="1.89619">
        <ele>2162.7</ele>
        <time>2020-02-14T03:45:43.231Z</time>
      </trkpt>
      <trkpt lat="42.5764" lon="1.89636">
        <ele>2163.6</ele>
        <time>2020-02-14T03:45:47.895Z</time>
      </trkpt>
      <trkpt lat="42.57642" lon="1.8964">
        <ele>2164.6</ele>
        <time>2020-02-14T03:45:49.391Z</time>
      </trkpt>
      <trkpt lat="42.57644" lon="1.89651">
        <ele>2165</ele>
        <time>2020-02-14T03:45:52.442Z</time>
      </trkpt>
      <trkpt lat="42.57644" lon="1.89659">
        <ele>2165.6</ele>
        <time>2020-02-14T03:45:54.812Z</time>
      </trkpt>
      <trkpt lat="42.57647" lon="1.89678">
        <ele>2164.6</ele>
        <time>2020-02-14T03:46:00.317Z</time>
      </trkpt>
      <trkpt lat="42.57649" lon="1.89686">
        <ele>2164.1</ele>
        <time>2020-02-14T03:46:02.752Z</time>
      </trkpt>
      <trkpt lat="42.57651" lon="1.89703">
        <ele>2163.1</ele>
        <time>2020-02-14T03:46:07.707Z</time>
      </trkpt>
      <trkpt lat="42.57654" lon="1.89713">
        <ele>2162.7</ele>
        <time>2020-02-14T03:46:10.576Z</time>
      </trkpt>
      <trkpt lat="42.57655" lon="1.89724">
        <ele>2162.6</ele>
        <time>2020-02-14T03:46:13.884Z</time>
      </trkpt>
      <trkpt lat="42.57658" lon="1.89741">
        <ele>2163.1</ele>
        <time>2020-02-14T03:46:18.700Z</time>
      </trkpt>
      <trkpt lat="42.57661" lon="1.89743">
        <ele>2163.2</ele>
        <time>2020-02-14T03:46:20.252Z</time>
      </trkpt>
      <trkpt lat="42.57666" lon="1.8975">
        <ele>2164.1</ele>
        <time>2020-02-14T03:46:22.953Z</time>
      </trkpt>
      <trkpt lat="42.57669" lon="1.89759">
        <ele>2165.5</ele>
        <time>2020-02-14T03:46:25.640Z</time>
      </trkpt>
      <trkpt lat="42.57672" lon="1.89767">
        <ele>2167.5</ele>
        <time>2020-02-14T03:46:28.548Z</time>
      </trkpt>
      <trkpt lat="42.57678" lon="1.89777">
        <ele>2169.5</ele>
        <time>2020-02-14T03:46:32.008Z</time>
      </trkpt>
      <trkpt lat="42.57678" lon="1.89784">
        <ele>2171.4</ele>
        <time>2020-02-14T03:46:34.228Z</time>
      </trkpt>
      <trkpt lat="42.57678" lon="1.89799">
        <ele>2172.7</ele>
        <time>2020-02-14T03:46:38.576Z</time>
      </trkpt>
      <trkpt lat="42.57681" lon="1.89814">
        <ele>2173.7</ele>
        <time>2020-02-14T03:46:42.965Z</time>
      </trkpt>
      <trkpt lat="42.57683" lon="1.89828">
        <ele>2175.1</ele>
        <time>2020-02-14T03:46:46.929Z</time>
      </trkpt>
      <trkpt lat="42.57684" lon="1.89838">
        <ele>2175.7</ele>
        <time>2020-02-14T03:46:49.949Z</time>
      </trkpt>
      <trkpt lat="42.57685" lon="1.89845">
        <ele>2176.2</ele>
        <time>2020-02-14T03:46:51.874Z</time>
      </trkpt>
      <trkpt lat="42.57687" lon="1.89846">
        <ele>2176.1</ele>
        <time>2020-02-14T03:46:52.563Z</time>
      </trkpt>
      <trkpt lat="42.57697" lon="1.89858">
        <ele>2178.1</ele>
        <time>2020-02-14T03:46:57.852Z</time>
      </trkpt>
      <trkpt lat="42.577" lon="1.89861">
        <ele>2178.1</ele>
        <time>2020-02-14T03:46:59.230Z</time>
      </trkpt>
      <trkpt lat="42.57706" lon="1.89867">
        <ele>2179.5</ele>
        <time>2020-02-14T03:47:02.226Z</time>
      </trkpt>
      <trkpt lat="42.57714" lon="1.89875">
        <ele>2181</ele>
        <time>2020-02-14T03:47:06.034Z</time>
      </trkpt>
      <trkpt lat="42.57717" lon="1.89882">
        <ele>2181.9</ele>
        <time>2020-02-14T03:47:08.169Z</time>
      </trkpt>
      <trkpt lat="42.57719" lon="1.89898">
        <ele>2182.8</ele>
        <time>2020-02-14T03:47:13.011Z</time>
      </trkpt>
      <trkpt lat="42.57719" lon="1.89905">
        <ele>2183.3</ele>
        <time>2020-02-14T03:47:15.006Z</time>
      </trkpt>
      <trkpt lat="42.57717" lon="1.89911">
        <ele>2183.4</ele>
        <time>2020-02-14T03:47:16.674Z</time>
      </trkpt>
      <trkpt lat="42.57717" lon="1.89922">
        <ele>2184.4</ele>
        <time>2020-02-14T03:47:19.884Z</time>
      </trkpt>
      <trkpt lat="42.57715" lon="1.89936">
        <ele>2186.3</ele>
        <time>2020-02-14T03:47:23.802Z</time>
      </trkpt>
      <trkpt lat="42.57711" lon="1.89948">
        <ele>2187.6</ele>
        <time>2020-02-14T03:47:27.757Z</time>
      </trkpt>
      <trkpt lat="42.57709" lon="1.8996">
        <ele>2189.5</ele>
        <time>2020-02-14T03:47:31.275Z</time>
      </trkpt>
      <trkpt lat="42.5771" lon="1.89963">
        <ele>2190.6</ele>
        <time>2020-02-14T03:47:32.328Z</time>
      </trkpt>
      <trkpt lat="42.57711" lon="1.89968">
        <ele>2189.6</ele>
        <time>2020-02-14T03:47:33.642Z</time>
      </trkpt>
      <trkpt lat="42.57713" lon="1.89976">
        <ele>2191.6</ele>
        <time>2020-02-14T03:47:36.189Z</time>
      </trkpt>
      <trkpt lat="42.57717" lon="1.89985">
        <ele>2192</ele>
        <time>2020-02-14T03:47:39.197Z</time>
      </trkpt>
      <trkpt lat="42.5772" lon="1.89993">
        <ele>2192.9</ele>
        <time>2020-02-14T03:47:42.000Z</time>
      </trkpt>
      <trkpt lat="42.57722" lon="1.89995">
        <ele>2193.4</ele>
        <time>2020-02-14T03:47:42.761Z</time>
      </trkpt>
      <trkpt lat="42.57723" lon="1.89998">
        <ele>2193.5</ele>
        <time>2020-02-14T03:47:43.537Z</time>
      </trkpt>
      <trkpt lat="42.57727" lon="1.9">
        <ele>2193.4</ele>
        <time>2020-02-14T03:47:45.299Z</time>
      </trkpt>
      <trkpt lat="42.57728" lon="1.90006">
        <ele>2194</ele>
        <time>2020-02-14T03:47:46.937Z</time>
      </trkpt>
      <trkpt lat="42.57733" lon="1.90021">
        <ele>2194.8</ele>
        <time>2020-02-14T03:47:51.691Z</time>
      </trkpt>
      <trkpt lat="42.57735" lon="1.90025">
        <ele>2194</ele>
        <time>2020-02-14T03:47:53.121Z</time>
      </trkpt>
      <trkpt lat="42.57738" lon="1.90036">
        <ele>2194.9</ele>
        <time>2020-02-14T03:47:56.448Z</time>
      </trkpt>
      <trkpt lat="42.57739" lon="1.90037">
        <ele>2194.8</ele>
        <time>2020-02-14T03:47:56.840Z</time>
      </trkpt>
      <trkpt lat="42.57744" lon="1.90059">
        <ele>2194</ele>
        <time>2020-02-14T03:48:03.330Z</time>
      </trkpt>
      <trkpt lat="42.57744" lon="1.90064">
        <ele>2193.4</ele>
        <time>2020-02-14T03:48:04.763Z</time>
      </trkpt>
      <trkpt lat="42.57744" lon="1.90079">
        <ele>2192.4</ele>
        <time>2020-02-14T03:48:09.213Z</time>
      </trkpt>
      <trkpt lat="42.57744" lon="1.90081">
        <ele>2192.4</ele>
        <time>2020-02-14T03:48:09.638Z</time>
      </trkpt>
      <trkpt lat="42.5775" lon="1.90101">
        <ele>2192.4</ele>
        <time>2020-02-14T03:48:15.632Z</time>
      </trkpt>
      <trkpt lat="42.57755" lon="1.90116">
        <ele>2192</ele>
        <time>2020-02-14T03:48:20.437Z</time>
      </trkpt>
      <trkpt lat="42.57755" lon="1.90118">
        <ele>2191.5</ele>
        <time>2020-02-14T03:48:20.897Z</time>
      </trkpt>
      <trkpt lat="42.57759" lon="1.90136">
        <ele>2192.9</ele>
        <time>2020-02-14T03:48:26.418Z</time>
      </trkpt>
      <trkpt lat="42.5776" lon="1.90141">
        <ele>2193.5</ele>
        <time>2020-02-14T03:48:27.803Z</time>
      </trkpt>
      <trkpt lat="42.57762" lon="1.90152">
        <ele>2194</ele>
        <time>2020-02-14T03:48:31.085Z</time>
      </trkpt>
      <trkpt lat="42.57766" lon="1.90161">
        <ele>2194.4</ele>
        <time>2020-02-14T03:48:34.224Z</time>
      </trkpt>
      <trkpt lat="42.57767" lon="1.90166">
        <ele>2194.9</ele>
        <time>2020-02-14T03:48:35.572Z</time>
      </trkpt>
      <trkpt lat="42.57769" lon="1.90181">
        <ele>2196.3</ele>
        <time>2020-02-14T03:48:39.899Z</time>
      </trkpt>
      <trkpt lat="42.57773" lon="1.90197">
        <ele>2197.7</ele>
        <time>2020-02-14T03:48:44.664Z</time>
      </trkpt>
      <trkpt lat="42.57774" lon="1.90198">
        <ele>2197.7</ele>
        <time>2020-02-14T03:48:45.494Z</time>
      </trkpt>
      <trkpt lat="42.57777" lon="1.902">
        <ele>2198.3</ele>
        <time>2020-02-14T03:48:46.477Z</time>
      </trkpt>
      <trkpt lat="42.57779" lon="1.90205">
        <ele>2198.7</ele>
        <time>2020-02-14T03:48:48.290Z</time>
      </trkpt>
      <trkpt lat="42.57782" lon="1.90205">
        <ele>2199.3</ele>
        <time>2020-02-14T03:48:49.507Z</time>
      </trkpt>
      <trkpt lat="42.57787" lon="1.90219">
        <ele>2200.2</ele>
        <time>2020-02-14T03:48:54.072Z</time>
      </trkpt>
      <trkpt lat="42.57791" lon="1.90224">
        <ele>2200.2</ele>
        <time>2020-02-14T03:48:56.048Z</time>
      </trkpt>
      <trkpt lat="42.57792" lon="1.90232">
        <ele>2201.1</ele>
        <time>2020-02-14T03:48:58.282Z</time>
      </trkpt>
      <trkpt lat="42.57796" lon="1.90239">
        <ele>2201.1</ele>
        <time>2020-02-14T03:49:00.662Z</time>
      </trkpt>
      <trkpt lat="42.57802" lon="1.90247">
        <ele>2202.1</ele>
        <time>2020-02-14T03:49:04.043Z</time>
      </trkpt>
      <trkpt lat="42.57804" lon="1.9025">
        <ele>2202.5</ele>
        <time>2020-02-14T03:49:05.089Z</time>
      </trkpt>
      <trkpt lat="42.57805" lon="1.9026">
        <ele>2202.5</ele>
        <time>2020-02-14T03:49:08.096Z</time>
      </trkpt>
      <trkpt lat="42.5781" lon="1.90272">
        <ele>2203</ele>
        <time>2020-02-14T03:49:11.821Z</time>
      </trkpt>
      <trkpt lat="42.57819" lon="1.90278">
        <ele>2203.6</ele>
        <time>2020-02-14T03:49:15.815Z</time>
      </trkpt>
      <trkpt lat="42.57825" lon="1.9028">
        <ele>2203.6</ele>
        <time>2020-02-14T03:49:18.185Z</time>
      </trkpt>
      <trkpt lat="42.57835" lon="1.9027">
        <ele>2204.5</ele>
        <time>2020-02-14T03:49:23.037Z</time>
      </trkpt>
      <trkpt lat="42.57838" lon="1.90265">
        <ele>2205</ele>
        <time>2020-02-14T03:49:24.705Z</time>
      </trkpt>
      <trkpt lat="42.5785" lon="1.90251">
        <ele>2205</ele>
        <time>2020-02-14T03:49:31.032Z</time>
      </trkpt>
      <trkpt lat="42.57859" lon="1.9024">
        <ele>2204.9</ele>
        <time>2020-02-14T03:49:35.611Z</time>
      </trkpt>
      <trkpt lat="42.57864" lon="1.90221">
        <ele>2204.4</ele>
        <time>2020-02-14T03:49:41.375Z</time>
      </trkpt>
      <trkpt lat="42.57869" lon="1.90201">
        <ele>2204.1</ele>
        <time>2020-02-14T03:49:47.326Z</time>
      </trkpt>
      <trkpt lat="42.57875" lon="1.90189">
        <ele>2204.9</ele>
        <time>2020-02-14T03:49:51.526Z</time>
      </trkpt>
      <trkpt lat="42.5788" lon="1.90183">
        <ele>2207.8</ele>
        <time>2020-02-14T03:49:54.345Z</time>
      </trkpt>
      <trkpt lat="42.57883" lon="1.90177">
        <ele>2206.8</ele>
        <time>2020-02-14T03:49:56.323Z</time>
      </trkpt>
      <trkpt lat="42.57889" lon="1.90189">
        <ele>2206.9</ele>
        <time>2020-02-14T03:50:00.514Z</time>
      </trkpt>
      <trkpt lat="42.5789" lon="1.9019">
        <ele>2206.9</ele>
        <time>2020-02-14T03:50:00.905Z</time>
      </trkpt>
      <trkpt lat="42.579" lon="1.90206">
        <ele>2206.5</ele>
        <time>2020-02-14T03:50:06.758Z</time>
      </trkpt>
      <trkpt lat="42.57903" lon="1.90209">
        <ele>2206.5</ele>
        <time>2020-02-14T03:50:08.180Z</time>
      </trkpt>
      <trkpt lat="42.57906" lon="1.90213">
        <ele>2206.8</ele>
        <time>2020-02-14T03:50:09.732Z</time>
      </trkpt>
      <trkpt lat="42.57911" lon="1.90213">
        <ele>2207.4</ele>
        <time>2020-02-14T03:50:11.755Z</time>
      </trkpt>
      <trkpt lat="42.57908" lon="1.90197">
        <ele>2205.9</ele>
        <time>2020-02-14T03:50:16.611Z</time>
      </trkpt>
      <trkpt lat="42.57903" lon="1.90191">
        <ele>2205.5</ele>
        <time>2020-02-14T03:50:19.088Z</time>
      </trkpt>
      <trkpt lat="42.57903" lon="1.90191">
        <ele>2205.9</ele>
        <time>2020-02-14T03:50:19.293Z</time>
      </trkpt>
      <trkpt lat="42.57905" lon="1.90195">
        <ele>2205.9</ele>
        <time>2020-02-14T03:50:20.695Z</time>
      </trkpt>
      <trkpt lat="42.57905" lon="1.90195">
        <ele>2205.4</ele>
        <time>2020-02-14T03:50:20.874Z</time>
      </trkpt>
      <trkpt lat="42.57902" lon="1.90189">
        <ele>2206</ele>
        <time>2020-02-14T03:50:22.968Z</time>
      </trkpt>
      <trkpt lat="42.57902" lon="1.90189">
        <ele>2205.5</ele>
        <time>2020-02-14T03:50:23.207Z</time>
      </trkpt>
      <trkpt lat="42.57902" lon="1.9019">
        <ele>2206.9</ele>
        <time>2020-02-14T03:50:23.744Z</time>
      </trkpt>
      <trkpt lat="42.57903" lon="1.90188">
        <ele>2202</ele>
        <time>2020-02-14T03:50:25.518Z</time>
      </trkpt>
      <trkpt lat="42.57904" lon="1.90186">
        <ele>2210.8</ele>
        <time>2020-02-14T03:50:28.622Z</time>
      </trkpt>
      <trkpt lat="42.57904" lon="1.90186">
        <ele>2206.4</ele>
        <time>2020-02-14T03:50:30.152Z</time>
      </trkpt>
      <trkpt lat="42.57905" lon="1.90186">
        <ele>2204.5</ele>
        <time>2020-02-14T03:50:30.887Z</time>
      </trkpt>
      <trkpt lat="42.57906" lon="1.90186">
        <ele>2198.2</ele>
        <time>2020-02-14T03:50:33.068Z</time>
      </trkpt>
      <trkpt lat="42.57906" lon="1.90186">
        <ele>2207.3</ele>
        <time>2020-02-14T03:50:36.235Z</time>
      </trkpt>
      <trkpt lat="42.57906" lon="1.90186">
        <ele>2203</ele>
        <time>2020-02-14T03:50:37.737Z</time>
      </trkpt>
      <trkpt lat="42.57906" lon="1.90186">
        <ele>2209.3</ele>
        <time>2020-02-14T03:50:39.925Z</time>
      </trkpt>
      <trkpt lat="42.57906" lon="1.90186">
        <ele>2206.5</ele>
        <time>2020-02-14T03:50:40.906Z</time>
      </trkpt>
      <trkpt lat="42.57906" lon="1.90186">
        <ele>2202.5</ele>
        <time>2020-02-14T03:50:42.282Z</time>
      </trkpt>
      <trkpt lat="42.57906" lon="1.90186">
        <ele>2206.5</ele>
        <time>2020-02-14T03:50:43.657Z</time>
      </trkpt>
      <trkpt lat="42.57906" lon="1.90186">
        <ele>2208.3</ele>
        <time>2020-02-14T03:50:44.296Z</time>
      </trkpt>
      <trkpt lat="42.57906" lon="1.90186">
        <ele>2206.5</ele>
        <time>2020-02-14T03:50:44.931Z</time>
      </trkpt>
      <trkpt lat="42.5791" lon="1.90185">
        <ele>2206</ele>
        <time>2020-02-14T03:50:46.598Z</time>
      </trkpt>
      <trkpt lat="42.57918" lon="1.90193">
        <ele>2206.9</ele>
        <time>2020-02-14T03:50:50.268Z</time>
      </trkpt>
      <trkpt lat="42.57921" lon="1.90193">
        <ele>2206.4</ele>
        <time>2020-02-14T03:50:51.376Z</time>
      </trkpt>
      <trkpt lat="42.57927" lon="1.90193">
        <ele>2207.8</ele>
        <time>2020-02-14T03:50:53.784Z</time>
      </trkpt>
      <trkpt lat="42.57928" lon="1.90192">
        <ele>2208.3</ele>
        <time>2020-02-14T03:50:54.198Z</time>
      </trkpt>
      <trkpt lat="42.57927" lon="1.90193">
        <ele>2208.8</ele>
        <time>2020-02-14T03:50:54.621Z</time>
      </trkpt>
      <trkpt lat="42.57934" lon="1.90188">
        <ele>2210.7</ele>
        <time>2020-02-14T03:50:57.876Z</time>
      </trkpt>
      <trkpt lat="42.57936" lon="1.90185">
        <ele>2211.3</ele>
        <time>2020-02-14T03:50:59.014Z</time>
      </trkpt>
      <trkpt lat="42.57944" lon="1.90179">
        <ele>2213.7</ele>
        <time>2020-02-14T03:51:02.523Z</time>
      </trkpt>
      <trkpt lat="42.57947" lon="1.90175">
        <ele>2216.1</ele>
        <time>2020-02-14T03:51:04.431Z</time>
      </trkpt>
      <trkpt lat="42.57944" lon="1.90163">
        <ele>2218</ele>
        <time>2020-02-14T03:51:07.969Z</time>
      </trkpt>
      <trkpt lat="42.57944" lon="1.90147">
        <ele>2216.1</ele>
        <time>2020-02-14T03:51:12.627Z</time>
      </trkpt>
      <trkpt lat="42.57943" lon="1.9013">
        <ele>2214.1</ele>
        <time>2020-02-14T03:51:17.437Z</time>
      </trkpt>
      <trkpt lat="42.57947" lon="1.90116">
        <ele>2214.1</ele>
        <time>2020-02-14T03:51:21.803Z</time>
      </trkpt>
      <trkpt lat="42.57947" lon="1.90114">
        <ele>2214.1</ele>
        <time>2020-02-14T03:51:22.234Z</time>
      </trkpt>
      <trkpt lat="42.57946" lon="1.90096">
        <ele>2215.5</ele>
        <time>2020-02-14T03:51:27.323Z</time>
      </trkpt>
      <trkpt lat="42.57947" lon="1.90091">
        <ele>2215</ele>
        <time>2020-02-14T03:51:28.924Z</time>
      </trkpt>
      <trkpt lat="42.57951" lon="1.90083">
        <ele>2216.1</ele>
        <time>2020-02-14T03:51:31.839Z</time>
      </trkpt>
      <trkpt lat="42.5796" lon="1.90077">
        <ele>2216.6</ele>
        <time>2020-02-14T03:51:35.411Z</time>
      </trkpt>
      <trkpt lat="42.5796" lon="1.90077">
        <ele>2220.3</ele>
        <time>2020-02-14T03:51:36.728Z</time>
      </trkpt>
      <trkpt lat="42.5796" lon="1.90077">
        <ele>2216.9</ele>
        <time>2020-02-14T03:51:37.912Z</time>
      </trkpt>
      <trkpt lat="42.5796" lon="1.90077">
        <ele>2211.8</ele>
        <time>2020-02-14T03:51:39.704Z</time>
      </trkpt>
      <trkpt lat="42.5796" lon="1.90077">
        <ele>2219.9</ele>
        <time>2020-02-14T03:51:42.522Z</time>
      </trkpt>
      <trkpt lat="42.5796" lon="1.90077">
        <ele>2215.1</ele>
        <time>2020-02-14T03:51:44.186Z</time>
      </trkpt>
      <trkpt lat="42.5796" lon="1.90077">
        <ele>2218.4</ele>
        <time>2020-02-14T03:51:45.342Z</time>
      </trkpt>
      <trkpt lat="42.5796" lon="1.90077">
        <ele>2214.5</ele>
        <time>2020-02-14T03:51:46.688Z</time>
      </trkpt>
      <trkpt lat="42.5796" lon="1.90077">
        <ele>2215</ele>
        <time>2020-02-14T03:51:46.850Z</time>
      </trkpt>
      <trkpt lat="42.5796" lon="1.90077">
        <ele>2219.3</ele>
        <time>2020-02-14T03:51:48.342Z</time>
      </trkpt>
      <trkpt lat="42.5796" lon="1.90077">
        <ele>2216</ele>
        <time>2020-02-14T03:51:49.482Z</time>
      </trkpt>
      <trkpt lat="42.57959" lon="1.90076">
        <ele>2212.1</ele>
        <time>2020-02-14T03:51:50.914Z</time>
      </trkpt>
      <trkpt lat="42.57959" lon="1.90075">
        <ele>2216.1</ele>
        <time>2020-02-14T03:51:52.313Z</time>
      </trkpt>
      <trkpt lat="42.57961" lon="1.90067">
        <ele>2213.6</ele>
        <time>2020-02-14T03:51:54.630Z</time>
      </trkpt>
      <trkpt lat="42.57957" lon="1.90046">
        <ele>2211.2</ele>
        <time>2020-02-14T03:52:00.903Z</time>
      </trkpt>
      <trkpt lat="42.57959" lon="1.90042">
        <ele>2220.4</ele>
        <time>2020-02-14T03:52:04.338Z</time>
      </trkpt>
      <trkpt lat="42.57959" lon="1.90042">
        <ele>2212.1</ele>
        <time>2020-02-14T03:52:07.203Z</time>
      </trkpt>
      <trkpt lat="42.57959" lon="1.90042">
        <ele>2217.5</ele>
        <time>2020-02-14T03:52:09.058Z</time>
      </trkpt>
      <trkpt lat="42.57959" lon="1.90042">
        <ele>2211.8</ele>
        <time>2020-02-14T03:52:11.033Z</time>
      </trkpt>
      <trkpt lat="42.57959" lon="1.90042">
        <ele>2221.3</ele>
        <time>2020-02-14T03:52:14.341Z</time>
      </trkpt>
      <trkpt lat="42.57959" lon="1.90042">
        <ele>2221.3</ele>
        <time>2020-02-14T03:52:14.343Z</time>
      </trkpt>
      <trkpt lat="42.57959" lon="1.90042">
        <ele>2209.3</ele>
        <time>2020-02-14T03:52:18.503Z</time>
      </trkpt>
      <trkpt lat="42.57959" lon="1.90042">
        <ele>2211.2</ele>
        <time>2020-02-14T03:52:19.165Z</time>
      </trkpt>
      <trkpt lat="42.57959" lon="1.90042">
        <ele>2207.9</ele>
        <time>2020-02-14T03:52:20.331Z</time>
      </trkpt>
      <trkpt lat="42.57959" lon="1.90042">
        <ele>2212.6</ele>
        <time>2020-02-14T03:52:21.984Z</time>
      </trkpt>
      <trkpt lat="42.57959" lon="1.90042">
        <ele>2216.5</ele>
        <time>2020-02-14T03:52:23.335Z</time>
      </trkpt>
      <trkpt lat="42.57959" lon="1.90042">
        <ele>2213.6</ele>
        <time>2020-02-14T03:52:24.340Z</time>
      </trkpt>
      <trkpt lat="42.57959" lon="1.90042">
        <ele>2209.7</ele>
        <time>2020-02-14T03:52:25.699Z</time>
      </trkpt>
      <trkpt lat="42.57959" lon="1.90042">
        <ele>2205.4</ele>
        <time>2020-02-14T03:52:27.191Z</time>
      </trkpt>
      <trkpt lat="42.57959" lon="1.90042">
        <ele>2213.7</ele>
        <time>2020-02-14T03:52:30.059Z</time>
      </trkpt>
      <trkpt lat="42.57959" lon="1.90042">
        <ele>2212.1</ele>
        <time>2020-02-14T03:52:30.605Z</time>
      </trkpt>
      <trkpt lat="42.57959" lon="1.90042">
        <ele>2216.5</ele>
        <time>2020-02-14T03:52:32.129Z</time>
      </trkpt>
      <trkpt lat="42.57959" lon="1.90042">
        <ele>2208.9</ele>
        <time>2020-02-14T03:52:34.772Z</time>
      </trkpt>
      <trkpt lat="42.57959" lon="1.90042">
        <ele>2212.1</ele>
        <time>2020-02-14T03:52:35.903Z</time>
      </trkpt>
      <trkpt lat="42.57958" lon="1.90041">
        <ele>2211.3</ele>
        <time>2020-02-14T03:52:36.244Z</time>
      </trkpt>
      <trkpt lat="42.5796" lon="1.90041">
        <ele>2211.7</ele>
        <time>2020-02-14T03:52:36.773Z</time>
      </trkpt>
      <trkpt lat="42.57972" lon="1.90039">
        <ele>2209.3</ele>
        <time>2020-02-14T03:52:41.667Z</time>
      </trkpt>
      <trkpt lat="42.57983" lon="1.90032">
        <ele>2207.8</ele>
        <time>2020-02-14T03:52:46.427Z</time>
      </trkpt>
      <trkpt lat="42.57986" lon="1.90031">
        <ele>2207.3</ele>
        <time>2020-02-14T03:52:47.616Z</time>
      </trkpt>
      <trkpt lat="42.57991" lon="1.90009">
        <ele>2207.3</ele>
        <time>2020-02-14T03:52:54.199Z</time>
      </trkpt>
      <trkpt lat="42.57994" lon="1.89998">
        <ele>2206.9</ele>
        <time>2020-02-14T03:52:57.447Z</time>
      </trkpt>
      <trkpt lat="42.57998" lon="1.89991">
        <ele>2207.8</ele>
        <time>2020-02-14T03:52:59.937Z</time>
      </trkpt>
      <trkpt lat="42.58001" lon="1.89985">
        <ele>2207.8</ele>
        <time>2020-02-14T03:53:02.183Z</time>
      </trkpt>
      <trkpt lat="42.58005" lon="1.89981">
        <ele>2208.9</ele>
        <time>2020-02-14T03:53:04.017Z</time>
      </trkpt>
      <trkpt lat="42.58014" lon="1.89973">
        <ele>2209.4</ele>
        <time>2020-02-14T03:53:08.175Z</time>
      </trkpt>
      <trkpt lat="42.58018" lon="1.89969">
        <ele>2209.3</ele>
        <time>2020-02-14T03:53:10.100Z</time>
      </trkpt>
      <trkpt lat="42.58024" lon="1.89958">
        <ele>2210.2</ele>
        <time>2020-02-14T03:53:13.886Z</time>
      </trkpt>
      <trkpt lat="42.58025" lon="1.89957">
        <ele>2209.8</ele>
        <time>2020-02-14T03:53:14.357Z</time>
      </trkpt>
      <trkpt lat="42.58029" lon="1.89953">
        <ele>2210.2</ele>
        <time>2020-02-14T03:53:16.378Z</time>
      </trkpt>
      <trkpt lat="42.58033" lon="1.89947">
        <ele>2208.4</ele>
        <time>2020-02-14T03:53:18.911Z</time>
      </trkpt>
      <trkpt lat="42.58033" lon="1.89936">
        <ele>2206.9</ele>
        <time>2020-02-14T03:53:22.082Z</time>
      </trkpt>
      <trkpt lat="42.5804" lon="1.89929">
        <ele>2206.9</ele>
        <time>2020-02-14T03:53:25.425Z</time>
      </trkpt>
      <trkpt lat="42.58044" lon="1.89923">
        <ele>2208.8</ele>
        <time>2020-02-14T03:53:27.770Z</time>
      </trkpt>
      <trkpt lat="42.58047" lon="1.89924">
        <ele>2210.7</ele>
        <time>2020-02-14T03:53:29.212Z</time>
      </trkpt>
      <trkpt lat="42.58051" lon="1.89933">
        <ele>2213.1</ele>
        <time>2020-02-14T03:53:32.384Z</time>
      </trkpt>
      <trkpt lat="42.58052" lon="1.89937">
        <ele>2216.1</ele>
        <time>2020-02-14T03:53:33.869Z</time>
      </trkpt>
      <trkpt lat="42.58054" lon="1.89939">
        <ele>2213.1</ele>
        <time>2020-02-14T03:53:35.313Z</time>
      </trkpt>
      <trkpt lat="42.58054" lon="1.89939">
        <ele>2219.9</ele>
        <time>2020-02-14T03:53:37.650Z</time>
      </trkpt>
      <trkpt lat="42.58054" lon="1.89939">
        <ele>2212.2</ele>
        <time>2020-02-14T03:53:40.330Z</time>
      </trkpt>
      <trkpt lat="42.58054" lon="1.89939">
        <ele>2218.5</ele>
        <time>2020-02-14T03:53:42.516Z</time>
      </trkpt>
      <trkpt lat="42.58054" lon="1.89939">
        <ele>2224.3</ele>
        <time>2020-02-14T03:53:44.529Z</time>
      </trkpt>
      <trkpt lat="42.58054" lon="1.89939">
        <ele>2220.3</ele>
        <time>2020-02-14T03:53:45.896Z</time>
      </trkpt>
      <trkpt lat="42.58054" lon="1.89939">
        <ele>2217</ele>
        <time>2020-02-14T03:53:47.056Z</time>
      </trkpt>
      <trkpt lat="42.58055" lon="1.89939">
        <ele>2220.8</ele>
        <time>2020-02-14T03:53:48.404Z</time>
      </trkpt>
      <trkpt lat="42.58054" lon="1.89941">
        <ele>2217.4</ele>
        <time>2020-02-14T03:53:49.715Z</time>
      </trkpt>
      <trkpt lat="42.58055" lon="1.89942">
        <ele>2217.9</ele>
        <time>2020-02-14T03:53:49.974Z</time>
      </trkpt>
      <trkpt lat="42.58058" lon="1.89953">
        <ele>2221.4</ele>
        <time>2020-02-14T03:53:53.520Z</time>
      </trkpt>
      <trkpt lat="42.58061" lon="1.89961">
        <ele>2222.2</ele>
        <time>2020-02-14T03:53:56.206Z</time>
      </trkpt>
      <trkpt lat="42.58065" lon="1.89969">
        <ele>2224.3</ele>
        <time>2020-02-14T03:53:59.005Z</time>
      </trkpt>
      <trkpt lat="42.58075" lon="1.89975">
        <ele>2224.7</ele>
        <time>2020-02-14T03:54:03.424Z</time>
      </trkpt>
      <trkpt lat="42.58083" lon="1.89985">
        <ele>2224.2</ele>
        <time>2020-02-14T03:54:07.664Z</time>
      </trkpt>
      <trkpt lat="42.58091" lon="1.89992">
        <ele>2221.7</ele>
        <time>2020-02-14T03:54:11.389Z</time>
      </trkpt>
      <trkpt lat="42.58097" lon="1.90001">
        <ele>2220.3</ele>
        <time>2020-02-14T03:54:14.825Z</time>
      </trkpt>
      <trkpt lat="42.58098" lon="1.90011">
        <ele>2220.8</ele>
        <time>2020-02-14T03:54:17.785Z</time>
      </trkpt>
      <trkpt lat="42.58103" lon="1.9002">
        <ele>2220.3</ele>
        <time>2020-02-14T03:54:20.765Z</time>
      </trkpt>
      <trkpt lat="42.58104" lon="1.90028">
        <ele>2218.4</ele>
        <time>2020-02-14T03:54:23.247Z</time>
      </trkpt>
      <trkpt lat="42.58105" lon="1.90043">
        <ele>2219</ele>
        <time>2020-02-14T03:54:27.466Z</time>
      </trkpt>
      <trkpt lat="42.58105" lon="1.90045">
        <ele>2218.9</ele>
        <time>2020-02-14T03:54:28.213Z</time>
      </trkpt>
      <trkpt lat="42.58106" lon="1.90053">
        <ele>2220.9</ele>
        <time>2020-02-14T03:54:30.689Z</time>
      </trkpt>
      <trkpt lat="42.58105" lon="1.90059">
        <ele>2222.7</ele>
        <time>2020-02-14T03:54:32.420Z</time>
      </trkpt>
      <trkpt lat="42.58108" lon="1.90075">
        <ele>2223.7</ele>
        <time>2020-02-14T03:54:37.117Z</time>
      </trkpt>
      <trkpt lat="42.58109" lon="1.90084">
        <ele>2225.6</ele>
        <time>2020-02-14T03:54:39.977Z</time>
      </trkpt>
      <trkpt lat="42.58109" lon="1.90095">
        <ele>2228</ele>
        <time>2020-02-14T03:54:43.053Z</time>
      </trkpt>
      <trkpt lat="42.58108" lon="1.90106">
        <ele>2229.5</ele>
        <time>2020-02-14T03:54:46.406Z</time>
      </trkpt>
      <trkpt lat="42.58109" lon="1.90115">
        <ele>2229.5</ele>
        <time>2020-02-14T03:54:49.007Z</time>
      </trkpt>
      <trkpt lat="42.58111" lon="1.90122">
        <ele>2229.4</ele>
        <time>2020-02-14T03:54:51.010Z</time>
      </trkpt>
      <trkpt lat="42.5811" lon="1.9014">
        <ele>2231.8</ele>
        <time>2020-02-14T03:54:56.115Z</time>
      </trkpt>
      <trkpt lat="42.5811" lon="1.9015">
        <ele>2232.8</ele>
        <time>2020-02-14T03:54:58.954Z</time>
      </trkpt>
      <trkpt lat="42.58112" lon="1.90154">
        <ele>2232.8</ele>
        <time>2020-02-14T03:55:00.522Z</time>
      </trkpt>
      <trkpt lat="42.58115" lon="1.90168">
        <ele>2234.2</ele>
        <time>2020-02-14T03:55:04.627Z</time>
      </trkpt>
      <trkpt lat="42.58113" lon="1.90179">
        <ele>2235.2</ele>
        <time>2020-02-14T03:55:07.841Z</time>
      </trkpt>
      <trkpt lat="42.58114" lon="1.90182">
        <ele>2235.8</ele>
        <time>2020-02-14T03:55:08.658Z</time>
      </trkpt>
      <trkpt lat="42.58118" lon="1.90184">
        <ele>2236.2</ele>
        <time>2020-02-14T03:55:10.231Z</time>
      </trkpt>
      <trkpt lat="42.58119" lon="1.90189">
        <ele>2236.6</ele>
        <time>2020-02-14T03:55:11.933Z</time>
      </trkpt>
      <trkpt lat="42.58119" lon="1.90202">
        <ele>2237.6</ele>
        <time>2020-02-14T03:55:15.614Z</time>
      </trkpt>
      <trkpt lat="42.58121" lon="1.90211">
        <ele>2237.7</ele>
        <time>2020-02-14T03:55:18.012Z</time>
      </trkpt>
      <trkpt lat="42.58122" lon="1.90217">
        <ele>2238.1</ele>
        <time>2020-02-14T03:55:19.900Z</time>
      </trkpt>
      <trkpt lat="42.58123" lon="1.90223">
        <ele>2239.5</ele>
        <time>2020-02-14T03:55:21.876Z</time>
      </trkpt>
      <trkpt lat="42.58122" lon="1.90227">
        <ele>2239.1</ele>
        <time>2020-02-14T03:55:22.917Z</time>
      </trkpt>
      <trkpt lat="42.58125" lon="1.90236">
        <ele>2240.6</ele>
        <time>2020-02-14T03:55:25.723Z</time>
      </trkpt>
      <trkpt lat="42.58124" lon="1.90246">
        <ele>2241</ele>
        <time>2020-02-14T03:55:28.556Z</time>
      </trkpt>
      <trkpt lat="42.58126" lon="1.9025">
        <ele>2242</ele>
        <time>2020-02-14T03:55:30.016Z</time>
      </trkpt>
      <trkpt lat="42.58129" lon="1.90259">
        <ele>2243.4</ele>
        <time>2020-02-14T03:55:32.902Z</time>
      </trkpt>
      <trkpt lat="42.58133" lon="1.90276">
        <ele>2242.5</ele>
        <time>2020-02-14T03:55:37.814Z</time>
      </trkpt>
      <trkpt lat="42.58136" lon="1.90289">
        <ele>2242.4</ele>
        <time>2020-02-14T03:55:41.860Z</time>
      </trkpt>
      <trkpt lat="42.58136" lon="1.90296">
        <ele>2242</ele>
        <time>2020-02-14T03:55:43.745Z</time>
      </trkpt>
      <trkpt lat="42.58136" lon="1.90306">
        <ele>2241.1</ele>
        <time>2020-02-14T03:55:46.745Z</time>
      </trkpt>
      <trkpt lat="42.58137" lon="1.90313">
        <ele>2240.5</ele>
        <time>2020-02-14T03:55:48.743Z</time>
      </trkpt>
      <trkpt lat="42.58137" lon="1.90323">
        <ele>2240</ele>
        <time>2020-02-14T03:55:51.649Z</time>
      </trkpt>
      <trkpt lat="42.58138" lon="1.90327">
        <ele>2239.6</ele>
        <time>2020-02-14T03:55:52.707Z</time>
      </trkpt>
      <trkpt lat="42.58137" lon="1.9033">
        <ele>2238.7</ele>
        <time>2020-02-14T03:55:53.622Z</time>
      </trkpt>
      <trkpt lat="42.58141" lon="1.90345">
        <ele>2240</ele>
        <time>2020-02-14T03:55:58.331Z</time>
      </trkpt>
      <trkpt lat="42.58142" lon="1.90351">
        <ele>2239.5</ele>
        <time>2020-02-14T03:55:59.925Z</time>
      </trkpt>
      <trkpt lat="42.58142" lon="1.90355">
        <ele>2239.6</ele>
        <time>2020-02-14T03:56:01.231Z</time>
      </trkpt>
      <trkpt lat="42.58149" lon="1.9037">
        <ele>2239.2</ele>
        <time>2020-02-14T03:56:05.999Z</time>
      </trkpt>
      <trkpt lat="42.5815" lon="1.90373">
        <ele>2239.2</ele>
        <time>2020-02-14T03:56:07.091Z</time>
      </trkpt>
      <trkpt lat="42.58152" lon="1.90378">
        <ele>2238.6</ele>
        <time>2020-02-14T03:56:08.564Z</time>
      </trkpt>
      <trkpt lat="42.58153" lon="1.90389">
        <ele>2237.1</ele>
        <time>2020-02-14T03:56:12.012Z</time>
      </trkpt>
      <trkpt lat="42.58151" lon="1.90412">
        <ele>2235.7</ele>
        <time>2020-02-14T03:56:18.418Z</time>
      </trkpt>
      <trkpt lat="42.58151" lon="1.90417">
        <ele>2235.7</ele>
        <time>2020-02-14T03:56:19.848Z</time>
      </trkpt>
      <trkpt lat="42.58154" lon="1.90424">
        <ele>2235.3</ele>
        <time>2020-02-14T03:56:22.346Z</time>
      </trkpt>
      <trkpt lat="42.58158" lon="1.9042">
        <ele>2234.8</ele>
        <time>2020-02-14T03:56:24.345Z</time>
      </trkpt>
      <trkpt lat="42.58165" lon="1.90416">
        <ele>2233.8</ele>
        <time>2020-02-14T03:56:27.113Z</time>
      </trkpt>
      <trkpt lat="42.58168" lon="1.90418">
        <ele>2234.7</ele>
        <time>2020-02-14T03:56:28.372Z</time>
      </trkpt>
      <trkpt lat="42.58164" lon="1.90429">
        <ele>2234.7</ele>
        <time>2020-02-14T03:56:31.806Z</time>
      </trkpt>
      <trkpt lat="42.58164" lon="1.90438">
        <ele>2236.2</ele>
        <time>2020-02-14T03:56:34.528Z</time>
      </trkpt>
      <trkpt lat="42.58169" lon="1.90446">
        <ele>2237.2</ele>
        <time>2020-02-14T03:56:37.766Z</time>
      </trkpt>
      <trkpt lat="42.5817" lon="1.90449">
        <ele>2237.7</ele>
        <time>2020-02-14T03:56:38.599Z</time>
      </trkpt>
      <trkpt lat="42.58172" lon="1.90456">
        <ele>2239.1</ele>
        <time>2020-02-14T03:56:40.650Z</time>
      </trkpt>
      <trkpt lat="42.58175" lon="1.90459">
        <ele>2240.5</ele>
        <time>2020-02-14T03:56:42.338Z</time>
      </trkpt>
      <trkpt lat="42.58174" lon="1.90473">
        <ele>2241.9</ele>
        <time>2020-02-14T03:56:46.532Z</time>
      </trkpt>
      <trkpt lat="42.58177" lon="1.9048">
        <ele>2243.5</ele>
        <time>2020-02-14T03:56:48.656Z</time>
      </trkpt>
      <trkpt lat="42.58181" lon="1.90479">
        <ele>2244.4</ele>
        <time>2020-02-14T03:56:50.521Z</time>
      </trkpt>
      <trkpt lat="42.58194" lon="1.90483">
        <ele>2244</ele>
        <time>2020-02-14T03:56:55.659Z</time>
      </trkpt>
      <trkpt lat="42.58198" lon="1.90488">
        <ele>2242.9</ele>
        <time>2020-02-14T03:56:57.709Z</time>
      </trkpt>
      <trkpt lat="42.58204" lon="1.90473">
        <ele>2241.5</ele>
        <time>2020-02-14T03:57:02.657Z</time>
      </trkpt>
      <trkpt lat="42.58214" lon="1.90468">
        <ele>2241.1</ele>
        <time>2020-02-14T03:57:06.683Z</time>
      </trkpt>
      <trkpt lat="42.58219" lon="1.90464">
        <ele>2241.5</ele>
        <time>2020-02-14T03:57:08.933Z</time>
      </trkpt>
      <trkpt lat="42.58232" lon="1.90455">
        <ele>2242.4</ele>
        <time>2020-02-14T03:57:14.516Z</time>
      </trkpt>
      <trkpt lat="42.58235" lon="1.90454">
        <ele>2243.4</ele>
        <time>2020-02-14T03:57:15.858Z</time>
      </trkpt>
      <trkpt lat="42.58242" lon="1.90453">
        <ele>2245.3</ele>
        <time>2020-02-14T03:57:18.570Z</time>
      </trkpt>
      <trkpt lat="42.58245" lon="1.90461">
        <ele>2246.3</ele>
        <time>2020-02-14T03:57:21.117Z</time>
      </trkpt>
      <trkpt lat="42.58249" lon="1.9047">
        <ele>2248.3</ele>
        <time>2020-02-14T03:57:24.181Z</time>
      </trkpt>
      <trkpt lat="42.5825" lon="1.90471">
        <ele>2248.3</ele>
        <time>2020-02-14T03:57:24.615Z</time>
      </trkpt>
      <trkpt lat="42.58252" lon="1.90473">
        <ele>2248.2</ele>
        <time>2020-02-14T03:57:25.577Z</time>
      </trkpt>
      <trkpt lat="42.5826" lon="1.90481">
        <ele>2248.8</ele>
        <time>2020-02-14T03:57:29.364Z</time>
      </trkpt>
      <trkpt lat="42.58261" lon="1.90485">
        <ele>2248.7</ele>
        <time>2020-02-14T03:57:30.780Z</time>
      </trkpt>
      <trkpt lat="42.58263" lon="1.90487">
        <ele>2249.1</ele>
        <time>2020-02-14T03:57:31.762Z</time>
      </trkpt>
      <trkpt lat="42.58267" lon="1.90498">
        <ele>2250.7</ele>
        <time>2020-02-14T03:57:35.175Z</time>
      </trkpt>
      <trkpt lat="42.58271" lon="1.90499">
        <ele>2249.7</ele>
        <time>2020-02-14T03:57:36.692Z</time>
      </trkpt>
      <trkpt lat="42.58279" lon="1.90499">
        <ele>2249.6</ele>
        <time>2020-02-14T03:57:39.516Z</time>
      </trkpt>
      <trkpt lat="42.58288" lon="1.9051">
        <ele>2250.1</ele>
        <time>2020-02-14T03:57:44.175Z</time>
      </trkpt>
      <trkpt lat="42.58291" lon="1.90512">
        <ele>2249.6</ele>
        <time>2020-02-14T03:57:45.687Z</time>
      </trkpt>
      <trkpt lat="42.58297" lon="1.90517">
        <ele>2249.6</ele>
        <time>2020-02-14T03:57:48.388Z</time>
      </trkpt>
      <trkpt lat="42.58302" lon="1.90525">
        <ele>2250.2</ele>
        <time>2020-02-14T03:57:51.279Z</time>
      </trkpt>
      <trkpt lat="42.58308" lon="1.90532">
        <ele>2250.7</ele>
        <time>2020-02-14T03:57:54.373Z</time>
      </trkpt>
      <trkpt lat="42.58316" lon="1.90546">
        <ele>2250.6</ele>
        <time>2020-02-14T03:57:59.408Z</time>
      </trkpt>
      <trkpt lat="42.58318" lon="1.90547">
        <ele>2250.6</ele>
        <time>2020-02-14T03:58:00.158Z</time>
      </trkpt>
      <trkpt lat="42.58323" lon="1.90551">
        <ele>2251.2</ele>
        <time>2020-02-14T03:58:02.322Z</time>
      </trkpt>
      <trkpt lat="42.58328" lon="1.9056">
        <ele>2250.7</ele>
        <time>2020-02-14T03:58:05.581Z</time>
      </trkpt>
      <trkpt lat="42.58337" lon="1.90562">
        <ele>2249.7</ele>
        <time>2020-02-14T03:58:09.135Z</time>
      </trkpt>
      <trkpt lat="42.58338" lon="1.90563">
        <ele>2249.6</ele>
        <time>2020-02-14T03:58:09.452Z</time>
      </trkpt>
      <trkpt lat="42.5834" lon="1.9056">
        <ele>2250.1</ele>
        <time>2020-02-14T03:58:10.624Z</time>
      </trkpt>
      <trkpt lat="42.58347" lon="1.90541">
        <ele>2249.6</ele>
        <time>2020-02-14T03:58:16.667Z</time>
      </trkpt>
      <trkpt lat="42.58349" lon="1.90531">
        <ele>2249.6</ele>
        <time>2020-02-14T03:58:19.627Z</time>
      </trkpt>
      <trkpt lat="42.58349" lon="1.90522">
        <ele>2248.7</ele>
        <time>2020-02-14T03:58:22.232Z</time>
      </trkpt>
      <trkpt lat="42.58349" lon="1.90514">
        <ele>2248.2</ele>
        <time>2020-02-14T03:58:24.698Z</time>
      </trkpt>
      <trkpt lat="42.58349" lon="1.90508">
        <ele>2249.2</ele>
        <time>2020-02-14T03:58:26.391Z</time>
      </trkpt>
      <trkpt lat="42.58347" lon="1.905">
        <ele>2250.1</ele>
        <time>2020-02-14T03:58:28.841Z</time>
      </trkpt>
      <trkpt lat="42.58347" lon="1.90497">
        <ele>2250.1</ele>
        <time>2020-02-14T03:58:29.665Z</time>
      </trkpt>
      <trkpt lat="42.58347" lon="1.90481">
        <ele>2250.7</ele>
        <time>2020-02-14T03:58:34.221Z</time>
      </trkpt>
      <trkpt lat="42.58348" lon="1.90473">
        <ele>2252.1</ele>
        <time>2020-02-14T03:58:36.573Z</time>
      </trkpt>
      <trkpt lat="42.58346" lon="1.90465">
        <ele>2251.5</ele>
        <time>2020-02-14T03:58:38.783Z</time>
      </trkpt>
      <trkpt lat="42.58348" lon="1.90459">
        <ele>2252</ele>
        <time>2020-02-14T03:58:40.755Z</time>
      </trkpt>
      <trkpt lat="42.58351" lon="1.90455">
        <ele>2252.5</ele>
        <time>2020-02-14T03:58:42.246Z</time>
      </trkpt>
      <trkpt lat="42.58354" lon="1.90461">
        <ele>2253.1</ele>
        <time>2020-02-14T03:58:44.202Z</time>
      </trkpt>
      <trkpt lat="42.58357" lon="1.90462">
        <ele>2253.6</ele>
        <time>2020-02-14T03:58:45.716Z</time>
      </trkpt>
      <trkpt lat="42.58359" lon="1.90468">
        <ele>2255</ele>
        <time>2020-02-14T03:58:47.584Z</time>
      </trkpt>
      <trkpt lat="42.58362" lon="1.90476">
        <ele>2256.8</ele>
        <time>2020-02-14T03:58:50.268Z</time>
      </trkpt>
      <trkpt lat="42.58365" lon="1.90481">
        <ele>2258.8</ele>
        <time>2020-02-14T03:58:51.993Z</time>
      </trkpt>
      <trkpt lat="42.58368" lon="1.90486">
        <ele>2261.3</ele>
        <time>2020-02-14T03:58:53.912Z</time>
      </trkpt>
      <trkpt lat="42.58369" lon="1.90492">
        <ele>2262.7</ele>
        <time>2020-02-14T03:58:55.781Z</time>
      </trkpt>
      <trkpt lat="42.58375" lon="1.90496">
        <ele>2264</ele>
        <time>2020-02-14T03:58:58.700Z</time>
      </trkpt>
      <trkpt lat="42.58378" lon="1.90494">
        <ele>2265.1</ele>
        <time>2020-02-14T03:58:59.850Z</time>
      </trkpt>
      <trkpt lat="42.58385" lon="1.90496">
        <ele>2266.5</ele>
        <time>2020-02-14T03:59:02.680Z</time>
      </trkpt>
      <trkpt lat="42.5839" lon="1.905">
        <ele>2268.4</ele>
        <time>2020-02-14T03:59:05.112Z</time>
      </trkpt>
      <trkpt lat="42.58398" lon="1.90508">
        <ele>2269.4</ele>
        <time>2020-02-14T03:59:08.933Z</time>
      </trkpt>
      <trkpt lat="42.58408" lon="1.90514">
        <ele>2269.4</ele>
        <time>2020-02-14T03:59:13.098Z</time>
      </trkpt>
      <trkpt lat="42.58414" lon="1.9052">
        <ele>2269.9</ele>
        <time>2020-02-14T03:59:16.176Z</time>
      </trkpt>
      <trkpt lat="42.58417" lon="1.90534">
        <ele>2270.9</ele>
        <time>2020-02-14T03:59:20.225Z</time>
      </trkpt>
      <trkpt lat="42.58421" lon="1.90546">
        <ele>2271.7</ele>
        <time>2020-02-14T03:59:23.927Z</time>
      </trkpt>
      <trkpt lat="42.58423" lon="1.90547">
        <ele>2271.3</ele>
        <time>2020-02-14T03:59:24.646Z</time>
      </trkpt>
      <trkpt lat="42.58428" lon="1.90559">
        <ele>2271.3</ele>
        <time>2020-02-14T03:59:28.595Z</time>
      </trkpt>
      <trkpt lat="42.5843" lon="1.90562">
        <ele>2271.3</ele>
        <time>2020-02-14T03:59:29.771Z</time>
      </trkpt>
      <trkpt lat="42.58435" lon="1.90569">
        <ele>2271.7</ele>
        <time>2020-02-14T03:59:32.507Z</time>
      </trkpt>
      <trkpt lat="42.58441" lon="1.90575">
        <ele>2272.7</ele>
        <time>2020-02-14T03:59:35.511Z</time>
      </trkpt>
      <trkpt lat="42.58446" lon="1.90579">
        <ele>2273.7</ele>
        <time>2020-02-14T03:59:37.769Z</time>
      </trkpt>
      <trkpt lat="42.58446" lon="1.90591">
        <ele>2275.2</ele>
        <time>2020-02-14T03:59:41.104Z</time>
      </trkpt>
      <trkpt lat="42.58447" lon="1.90593">
        <ele>2276.2</ele>
        <time>2020-02-14T03:59:41.945Z</time>
      </trkpt>
      <trkpt lat="42.58449" lon="1.90601">
        <ele>2276.6</ele>
        <time>2020-02-14T03:59:44.295Z</time>
      </trkpt>
      <trkpt lat="42.58449" lon="1.90606">
        <ele>2277.5</ele>
        <time>2020-02-14T03:59:45.657Z</time>
      </trkpt>
      <trkpt lat="42.58451" lon="1.90613">
        <ele>2277.6</ele>
        <time>2020-02-14T03:59:47.912Z</time>
      </trkpt>
      <trkpt lat="42.5845" lon="1.90618">
        <ele>2278.1</ele>
        <time>2020-02-14T03:59:49.243Z</time>
      </trkpt>
      <trkpt lat="42.58452" lon="1.90619">
        <ele>2278.5</ele>
        <time>2020-02-14T03:59:50.288Z</time>
      </trkpt>
      <trkpt lat="42.58452" lon="1.90632">
        <ele>2278.6</ele>
        <time>2020-02-14T03:59:53.957Z</time>
      </trkpt>
      <trkpt lat="42.58454" lon="1.90645">
        <ele>2279</ele>
        <time>2020-02-14T03:59:57.522Z</time>
      </trkpt>
      <trkpt lat="42.58454" lon="1.90658">
        <ele>2279.4</ele>
        <time>2020-02-14T04:00:01.451Z</time>
      </trkpt>
      <trkpt lat="42.58458" lon="1.90675">
        <ele>2278.9</ele>
        <time>2020-02-14T04:00:06.400Z</time>
      </trkpt>
      <trkpt lat="42.58461" lon="1.90686">
        <ele>2278.5</ele>
        <time>2020-02-14T04:00:09.723Z</time>
      </trkpt>
      <trkpt lat="42.58466" lon="1.90702">
        <ele>2278.5</ele>
        <time>2020-02-14T04:00:14.663Z</time>
      </trkpt>
      <trkpt lat="42.58467" lon="1.90703">
        <ele>2279</ele>
        <time>2020-02-14T04:00:15.079Z</time>
      </trkpt>
      <trkpt lat="42.58468" lon="1.90707">
        <ele>2278.9</ele>
        <time>2020-02-14T04:00:16.399Z</time>
      </trkpt>
      <trkpt lat="42.5847" lon="1.90715">
        <ele>2278.9</ele>
        <time>2020-02-14T04:00:18.951Z</time>
      </trkpt>
      <trkpt lat="42.58472" lon="1.90724">
        <ele>2279.4</ele>
        <time>2020-02-14T04:00:21.573Z</time>
      </trkpt>
      <trkpt lat="42.5848" lon="1.90732">
        <ele>2280.5</ele>
        <time>2020-02-14T04:00:25.457Z</time>
      </trkpt>
      <trkpt lat="42.58482" lon="1.90734">
        <ele>2280.5</ele>
        <time>2020-02-14T04:00:26.287Z</time>
      </trkpt>
      <trkpt lat="42.58493" lon="1.90738">
        <ele>2281</ele>
        <time>2020-02-14T04:00:30.761Z</time>
      </trkpt>
      <trkpt lat="42.58499" lon="1.90745">
        <ele>2281.4</ele>
        <time>2020-02-14T04:00:33.928Z</time>
      </trkpt>
      <trkpt lat="42.58509" lon="1.9075">
        <ele>2281.4</ele>
        <time>2020-02-14T04:00:37.919Z</time>
      </trkpt>
      <trkpt lat="42.58516" lon="1.90754">
        <ele>2281.5</ele>
        <time>2020-02-14T04:00:40.716Z</time>
      </trkpt>
      <trkpt lat="42.58523" lon="1.90764">
        <ele>2282.9</ele>
        <time>2020-02-14T04:00:44.729Z</time>
      </trkpt>
      <trkpt lat="42.58529" lon="1.90766">
        <ele>2282.9</ele>
        <time>2020-02-14T04:00:46.950Z</time>
      </trkpt>
      <trkpt lat="42.5853" lon="1.90767">
        <ele>2282.8</ele>
        <time>2020-02-14T04:00:47.656Z</time>
      </trkpt>
      <trkpt lat="42.58532" lon="1.90769">
        <ele>2282.3</ele>
        <time>2020-02-14T04:00:48.547Z</time>
      </trkpt>
      <trkpt lat="42.58535" lon="1.90776">
        <ele>2283.4</ele>
        <time>2020-02-14T04:00:51.007Z</time>
      </trkpt>
      <trkpt lat="42.58537" lon="1.90783">
        <ele>2283.3</ele>
        <time>2020-02-14T04:00:53.165Z</time>
      </trkpt>
      <trkpt lat="42.58539" lon="1.90785">
        <ele>2283.4</ele>
        <time>2020-02-14T04:00:54.010Z</time>
      </trkpt>
      <trkpt lat="42.58543" lon="1.90796">
        <ele>2284.3</ele>
        <time>2020-02-14T04:00:57.594Z</time>
      </trkpt>
      <trkpt lat="42.5855" lon="1.90805">
        <ele>2284.2</ele>
        <time>2020-02-14T04:01:01.245Z</time>
      </trkpt>
      <trkpt lat="42.58562" lon="1.90822">
        <ele>2283.8</ele>
        <time>2020-02-14T04:01:08.105Z</time>
      </trkpt>
      <trkpt lat="42.58564" lon="1.90823">
        <ele>2284.3</ele>
        <time>2020-02-14T04:01:08.707Z</time>
      </trkpt>
      <trkpt lat="42.58566" lon="1.9083">
        <ele>2283.9</ele>
        <time>2020-02-14T04:01:10.978Z</time>
      </trkpt>
      <trkpt lat="42.5857" lon="1.90837">
        <ele>2284.7</ele>
        <time>2020-02-14T04:01:13.331Z</time>
      </trkpt>
      <trkpt lat="42.5858" lon="1.90844">
        <ele>2284.7</ele>
        <time>2020-02-14T04:01:17.694Z</time>
      </trkpt>
      <trkpt lat="42.58581" lon="1.90845">
        <ele>2284.8</ele>
        <time>2020-02-14T04:01:18.260Z</time>
      </trkpt>
      <trkpt lat="42.58582" lon="1.90848">
        <ele>2284.2</ele>
        <time>2020-02-14T04:01:19.312Z</time>
      </trkpt>
      <trkpt lat="42.58585" lon="1.90852">
        <ele>2284.3</ele>
        <time>2020-02-14T04:01:20.913Z</time>
      </trkpt>
      <trkpt lat="42.5859" lon="1.9086">
        <ele>2285.3</ele>
        <time>2020-02-14T04:01:23.778Z</time>
      </trkpt>
      <trkpt lat="42.58592" lon="1.90863">
        <ele>2285.2</ele>
        <time>2020-02-14T04:01:24.848Z</time>
      </trkpt>
      <trkpt lat="42.58594" lon="1.90867">
        <ele>2285.2</ele>
        <time>2020-02-14T04:01:26.295Z</time>
      </trkpt>
      <trkpt lat="42.58597" lon="1.90873">
        <ele>2284.2</ele>
        <time>2020-02-14T04:01:28.543Z</time>
      </trkpt>
      <trkpt lat="42.586" lon="1.90878">
        <ele>2284.2</ele>
        <time>2020-02-14T04:01:30.075Z</time>
      </trkpt>
      <trkpt lat="42.58607" lon="1.90885">
        <ele>2284.3</ele>
        <time>2020-02-14T04:01:33.723Z</time>
      </trkpt>
      <trkpt lat="42.58615" lon="1.90895">
        <ele>2284.3</ele>
        <time>2020-02-14T04:01:37.908Z</time>
      </trkpt>
      <trkpt lat="42.58619" lon="1.90902">
        <ele>2284.7</ele>
        <time>2020-02-14T04:01:40.392Z</time>
      </trkpt>
      <trkpt lat="42.58618" lon="1.90908">
        <ele>2284.8</ele>
        <time>2020-02-14T04:01:42.203Z</time>
      </trkpt>
      <trkpt lat="42.58624" lon="1.9092">
        <ele>2285.3</ele>
        <time>2020-02-14T04:01:46.288Z</time>
      </trkpt>
      <trkpt lat="42.58633" lon="1.90927">
        <ele>2286.3</ele>
        <time>2020-02-14T04:01:50.344Z</time>
      </trkpt>
      <trkpt lat="42.58635" lon="1.90927">
        <ele>2286.2</ele>
        <time>2020-02-14T04:01:51.133Z</time>
      </trkpt>
      <trkpt lat="42.58646" lon="1.90937">
        <ele>2286.6</ele>
        <time>2020-02-14T04:01:55.973Z</time>
      </trkpt>
      <trkpt lat="42.58653" lon="1.90943">
        <ele>2287.6</ele>
        <time>2020-02-14T04:01:59.171Z</time>
      </trkpt>
      <trkpt lat="42.58656" lon="1.90946">
        <ele>2287.6</ele>
        <time>2020-02-14T04:02:00.785Z</time>
      </trkpt>
      <trkpt lat="42.5866" lon="1.90963">
        <ele>2289.1</ele>
        <time>2020-02-14T04:02:05.712Z</time>
      </trkpt>
      <trkpt lat="42.5866" lon="1.90965">
        <ele>2289.5</ele>
        <time>2020-02-14T04:02:06.374Z</time>
      </trkpt>
      <trkpt lat="42.58661" lon="1.90969">
        <ele>2289.6</ele>
        <time>2020-02-14T04:02:07.618Z</time>
      </trkpt>
      <trkpt lat="42.58664" lon="1.9097">
        <ele>2290.1</ele>
        <time>2020-02-14T04:02:08.763Z</time>
      </trkpt>
      <trkpt lat="42.58664" lon="1.90985">
        <ele>2291.4</ele>
        <time>2020-02-14T04:02:13.138Z</time>
      </trkpt>
      <trkpt lat="42.58666" lon="1.90988">
        <ele>2292</ele>
        <time>2020-02-14T04:02:14.166Z</time>
      </trkpt>
      <trkpt lat="42.58668" lon="1.90995">
        <ele>2292.9</ele>
        <time>2020-02-14T04:02:16.360Z</time>
      </trkpt>
      <trkpt lat="42.58669" lon="1.90997">
        <ele>2293</ele>
        <time>2020-02-14T04:02:17.038Z</time>
      </trkpt>
      <trkpt lat="42.58672" lon="1.91003">
        <ele>2292.9</ele>
        <time>2020-02-14T04:02:19.116Z</time>
      </trkpt>
      <trkpt lat="42.58674" lon="1.9101">
        <ele>2293.4</ele>
        <time>2020-02-14T04:02:21.361Z</time>
      </trkpt>
      <trkpt lat="42.58675" lon="1.91019">
        <ele>2293.8</ele>
        <time>2020-02-14T04:02:23.961Z</time>
      </trkpt>
      <trkpt lat="42.58679" lon="1.91022">
        <ele>2293.9</ele>
        <time>2020-02-14T04:02:25.640Z</time>
      </trkpt>
      <trkpt lat="42.5868" lon="1.91024">
        <ele>2293.9</ele>
        <time>2020-02-14T04:02:26.308Z</time>
      </trkpt>
      <trkpt lat="42.58683" lon="1.91031">
        <ele>2294.3</ele>
        <time>2020-02-14T04:02:28.687Z</time>
      </trkpt>
      <trkpt lat="42.58689" lon="1.91042">
        <ele>2294.3</ele>
        <time>2020-02-14T04:02:32.580Z</time>
      </trkpt>
      <trkpt lat="42.58691" lon="1.91047">
        <ele>2293.4</ele>
        <time>2020-02-14T04:02:34.233Z</time>
      </trkpt>
      <trkpt lat="42.58693" lon="1.91049">
        <ele>2293.8</ele>
        <time>2020-02-14T04:02:35.013Z</time>
      </trkpt>
      <trkpt lat="42.58696" lon="1.91057">
        <ele>2293.8</ele>
        <time>2020-02-14T04:02:37.488Z</time>
      </trkpt>
      <trkpt lat="42.587" lon="1.91066">
        <ele>2294.4</ele>
        <time>2020-02-14T04:02:40.584Z</time>
      </trkpt>
      <trkpt lat="42.58705" lon="1.91074">
        <ele>2294.8</ele>
        <time>2020-02-14T04:02:43.702Z</time>
      </trkpt>
      <trkpt lat="42.58707" lon="1.91077">
        <ele>2295.3</ele>
        <time>2020-02-14T04:02:44.613Z</time>
      </trkpt>
      <trkpt lat="42.58709" lon="1.91084">
        <ele>2295.3</ele>
        <time>2020-02-14T04:02:46.836Z</time>
      </trkpt>
      <trkpt lat="42.58714" lon="1.91088">
        <ele>2294.8</ele>
        <time>2020-02-14T04:02:48.905Z</time>
      </trkpt>
      <trkpt lat="42.58717" lon="1.91098">
        <ele>2295.3</ele>
        <time>2020-02-14T04:02:52.023Z</time>
      </trkpt>
      <trkpt lat="42.5873" lon="1.91111">
        <ele>2294.8</ele>
        <time>2020-02-14T04:02:58.234Z</time>
      </trkpt>
      <trkpt lat="42.58734" lon="1.91113">
        <ele>2293.4</ele>
        <time>2020-02-14T04:03:00.107Z</time>
      </trkpt>
      <trkpt lat="42.58739" lon="1.9112">
        <ele>2293.5</ele>
        <time>2020-02-14T04:03:02.721Z</time>
      </trkpt>
      <trkpt lat="42.58739" lon="1.91124">
        <ele>2293.4</ele>
        <time>2020-02-14T04:03:03.717Z</time>
      </trkpt>
      <trkpt lat="42.58741" lon="1.91125">
        <ele>2292.9</ele>
        <time>2020-02-14T04:03:04.878Z</time>
      </trkpt>
      <trkpt lat="42.58749" lon="1.9114">
        <ele>2291.1</ele>
        <time>2020-02-14T04:03:10.138Z</time>
      </trkpt>
      <trkpt lat="42.58755" lon="1.9115">
        <ele>2291</ele>
        <time>2020-02-14T04:03:13.621Z</time>
      </trkpt>
      <trkpt lat="42.58757" lon="1.91153">
        <ele>2291</ele>
        <time>2020-02-14T04:03:14.780Z</time>
      </trkpt>
      <trkpt lat="42.58764" lon="1.91168">
        <ele>2291.9</ele>
        <time>2020-02-14T04:03:19.919Z</time>
      </trkpt>
      <trkpt lat="42.58769" lon="1.91174">
        <ele>2292.5</ele>
        <time>2020-02-14T04:03:22.424Z</time>
      </trkpt>
      <trkpt lat="42.58776" lon="1.91188">
        <ele>2292.4</ele>
        <time>2020-02-14T04:03:27.403Z</time>
      </trkpt>
      <trkpt lat="42.58777" lon="1.91189">
        <ele>2292.9</ele>
        <time>2020-02-14T04:03:27.820Z</time>
      </trkpt>
      <trkpt lat="42.58779" lon="1.91199">
        <ele>2293.5</ele>
        <time>2020-02-14T04:03:30.884Z</time>
      </trkpt>
      <trkpt lat="42.58781" lon="1.91203">
        <ele>2293.5</ele>
        <time>2020-02-14T04:03:32.151Z</time>
      </trkpt>
      <trkpt lat="42.58783" lon="1.91211">
        <ele>2293.8</ele>
        <time>2020-02-14T04:03:34.523Z</time>
      </trkpt>
      <trkpt lat="42.58783" lon="1.91211">
        <ele>2285.8</ele>
        <time>2020-02-14T04:03:37.313Z</time>
      </trkpt>
      <trkpt lat="42.58783" lon="1.91211">
        <ele>2295.8</ele>
        <time>2020-02-14T04:03:40.804Z</time>
      </trkpt>
      <trkpt lat="42.58783" lon="1.91211">
        <ele>2294.3</ele>
        <time>2020-02-14T04:03:41.331Z</time>
      </trkpt>
      <trkpt lat="42.58783" lon="1.91211">
        <ele>2295.8</ele>
        <time>2020-02-14T04:03:41.852Z</time>
      </trkpt>
      <trkpt lat="42.58784" lon="1.91211">
        <ele>2294.3</ele>
        <time>2020-02-14T04:03:42.578Z</time>
      </trkpt>
      <trkpt lat="42.58785" lon="1.91214">
        <ele>2294.3</ele>
        <time>2020-02-14T04:03:43.418Z</time>
      </trkpt>
      <trkpt lat="42.58789" lon="1.91223">
        <ele>2294.8</ele>
        <time>2020-02-14T04:03:46.573Z</time>
      </trkpt>
      <trkpt lat="42.58791" lon="1.91228">
        <ele>2294.8</ele>
        <time>2020-02-14T04:03:48.112Z</time>
      </trkpt>
      <trkpt lat="42.58798" lon="1.91244">
        <ele>2295.3</ele>
        <time>2020-02-14T04:03:53.570Z</time>
      </trkpt>
      <trkpt lat="42.58806" lon="1.91252">
        <ele>2294.8</ele>
        <time>2020-02-14T04:03:57.312Z</time>
      </trkpt>
      <trkpt lat="42.5881" lon="1.91259">
        <ele>2294.3</ele>
        <time>2020-02-14T04:03:59.954Z</time>
      </trkpt>
      <trkpt lat="42.58814" lon="1.91269">
        <ele>2294.4</ele>
        <time>2020-02-14T04:04:03.005Z</time>
      </trkpt>
      <trkpt lat="42.58816" lon="1.91277">
        <ele>2294.3</ele>
        <time>2020-02-14T04:04:05.590Z</time>
      </trkpt>
      <trkpt lat="42.58821" lon="1.91289">
        <ele>2292.9</ele>
        <time>2020-02-14T04:04:09.403Z</time>
      </trkpt>
      <trkpt lat="42.58823" lon="1.91292">
        <ele>2292.9</ele>
        <time>2020-02-14T04:04:10.528Z</time>
      </trkpt>
      <trkpt lat="42.58828" lon="1.91303">
        <ele>2292.4</ele>
        <time>2020-02-14T04:04:14.198Z</time>
      </trkpt>
      <trkpt lat="42.58832" lon="1.91314">
        <ele>2292.5</ele>
        <time>2020-02-14T04:04:17.541Z</time>
      </trkpt>
      <trkpt lat="42.58841" lon="1.91328">
        <ele>2289.5</ele>
        <time>2020-02-14T04:04:22.981Z</time>
      </trkpt>
      <trkpt lat="42.58844" lon="1.91339">
        <ele>2289.5</ele>
        <time>2020-02-14T04:04:26.208Z</time>
      </trkpt>
      <trkpt lat="42.58846" lon="1.91344">
        <ele>2289.6</ele>
        <time>2020-02-14T04:04:27.923Z</time>
      </trkpt>
      <trkpt lat="42.58851" lon="1.91357">
        <ele>2289</ele>
        <time>2020-02-14T04:04:32.113Z</time>
      </trkpt>
      <trkpt lat="42.58855" lon="1.91365">
        <ele>2289.1</ele>
        <time>2020-02-14T04:04:34.839Z</time>
      </trkpt>
      <trkpt lat="42.58856" lon="1.9137">
        <ele>2289</ele>
        <time>2020-02-14T04:04:36.522Z</time>
      </trkpt>
      <trkpt lat="42.58863" lon="1.91385">
        <ele>2288.7</ele>
        <time>2020-02-14T04:04:41.419Z</time>
      </trkpt>
      <trkpt lat="42.58865" lon="1.91391">
        <ele>2288.6</ele>
        <time>2020-02-14T04:04:43.265Z</time>
      </trkpt>
      <trkpt lat="42.58872" lon="1.91404">
        <ele>2289</ele>
        <time>2020-02-14T04:04:47.913Z</time>
      </trkpt>
      <trkpt lat="42.58881" lon="1.91419">
        <ele>2288.6</ele>
        <time>2020-02-14T04:04:53.323Z</time>
      </trkpt>
      <trkpt lat="42.5889" lon="1.91434">
        <ele>2288.1</ele>
        <time>2020-02-14T04:04:58.775Z</time>
      </trkpt>
      <trkpt lat="42.58898" lon="1.91448">
        <ele>2287.6</ele>
        <time>2020-02-14T04:05:03.816Z</time>
      </trkpt>
      <trkpt lat="42.58898" lon="1.91449">
        <ele>2287.1</ele>
        <time>2020-02-14T04:05:04.308Z</time>
      </trkpt>
      <trkpt lat="42.58907" lon="1.91459">
        <ele>2286.2</ele>
        <time>2020-02-14T04:05:08.627Z</time>
      </trkpt>
      <trkpt lat="42.58912" lon="1.91466">
        <ele>2286.2</ele>
        <time>2020-02-14T04:05:11.288Z</time>
      </trkpt>
      <trkpt lat="42.58924" lon="1.91483">
        <ele>2283.9</ele>
        <time>2020-02-14T04:05:18.166Z</time>
      </trkpt>
      <trkpt lat="42.58928" lon="1.91489">
        <ele>2284.2</ele>
        <time>2020-02-14T04:05:20.616Z</time>
      </trkpt>
      <trkpt lat="42.58931" lon="1.91497">
        <ele>2283.4</ele>
        <time>2020-02-14T04:05:23.060Z</time>
      </trkpt>
      <trkpt lat="42.58933" lon="1.91503">
        <ele>2283.3</ele>
        <time>2020-02-14T04:05:24.887Z</time>
      </trkpt>
      <trkpt lat="42.5894" lon="1.91523">
        <ele>2282.8</ele>
        <time>2020-02-14T04:05:31.166Z</time>
      </trkpt>
      <trkpt lat="42.58946" lon="1.91532">
        <ele>2282.8</ele>
        <time>2020-02-14T04:05:34.691Z</time>
      </trkpt>
      <trkpt lat="42.58952" lon="1.91539">
        <ele>2281.8</ele>
        <time>2020-02-14T04:05:37.778Z</time>
      </trkpt>
      <trkpt lat="42.58962" lon="1.91562">
        <ele>2280.9</ele>
        <time>2020-02-14T04:05:45.283Z</time>
      </trkpt>
      <trkpt lat="42.58965" lon="1.91569">
        <ele>2280.9</ele>
        <time>2020-02-14T04:05:47.595Z</time>
      </trkpt>
      <trkpt lat="42.58972" lon="1.91578">
        <ele>2280.9</ele>
        <time>2020-02-14T04:05:51.454Z</time>
      </trkpt>
      <trkpt lat="42.58975" lon="1.9158">
        <ele>2280.4</ele>
        <time>2020-02-14T04:05:52.424Z</time>
      </trkpt>
      <trkpt lat="42.58976" lon="1.91582">
        <ele>2280.4</ele>
        <time>2020-02-14T04:05:53.292Z</time>
      </trkpt>
      <trkpt lat="42.58978" lon="1.91585">
        <ele>2279.9</ele>
        <time>2020-02-14T04:05:54.493Z</time>
      </trkpt>
      <trkpt lat="42.58984" lon="1.91599">
        <ele>2279.5</ele>
        <time>2020-02-14T04:05:59.136Z</time>
      </trkpt>
      <trkpt lat="42.58988" lon="1.91609">
        <ele>2278.6</ele>
        <time>2020-02-14T04:06:02.171Z</time>
      </trkpt>
      <trkpt lat="42.58991" lon="1.91629">
        <ele>2276.5</ele>
        <time>2020-02-14T04:06:08.047Z</time>
      </trkpt>
      <trkpt lat="42.58991" lon="1.91632">
        <ele>2276.1</ele>
        <time>2020-02-14T04:06:09.047Z</time>
      </trkpt>
      <trkpt lat="42.58998" lon="1.91638">
        <ele>2276.1</ele>
        <time>2020-02-14T04:06:12.311Z</time>
      </trkpt>
      <trkpt lat="42.59" lon="1.91639">
        <ele>2276.2</ele>
        <time>2020-02-14T04:06:13.235Z</time>
      </trkpt>
      <trkpt lat="42.59005" lon="1.91645">
        <ele>2275.6</ele>
        <time>2020-02-14T04:06:15.976Z</time>
      </trkpt>
      <trkpt lat="42.59014" lon="1.91658">
        <ele>2274.7</ele>
        <time>2020-02-14T04:06:20.819Z</time>
      </trkpt>
      <trkpt lat="42.59015" lon="1.91659">
        <ele>2274.6</ele>
        <time>2020-02-14T04:06:21.378Z</time>
      </trkpt>
      <trkpt lat="42.59017" lon="1.91662">
        <ele>2274.1</ele>
        <time>2020-02-14T04:06:22.586Z</time>
      </trkpt>
      <trkpt lat="42.59024" lon="1.91668">
        <ele>2273.3</ele>
        <time>2020-02-14T04:06:25.784Z</time>
      </trkpt>
      <trkpt lat="42.59026" lon="1.91676">
        <ele>2273.7</ele>
        <time>2020-02-14T04:06:28.185Z</time>
      </trkpt>
      <trkpt lat="42.59027" lon="1.9168">
        <ele>2274.7</ele>
        <time>2020-02-14T04:06:29.429Z</time>
      </trkpt>
      <trkpt lat="42.59035" lon="1.91686">
        <ele>2273.7</ele>
        <time>2020-02-14T04:06:32.971Z</time>
      </trkpt>
      <trkpt lat="42.59036" lon="1.91691">
        <ele>2274.1</ele>
        <time>2020-02-14T04:06:34.433Z</time>
      </trkpt>
      <trkpt lat="42.59041" lon="1.917">
        <ele>2274.1</ele>
        <time>2020-02-14T04:06:37.731Z</time>
      </trkpt>
      <trkpt lat="42.59045" lon="1.91705">
        <ele>2273.2</ele>
        <time>2020-02-14T04:06:39.678Z</time>
      </trkpt>
      <trkpt lat="42.59053" lon="1.91716">
        <ele>2273.2</ele>
        <time>2020-02-14T04:06:44.089Z</time>
      </trkpt>
      <trkpt lat="42.59056" lon="1.91717">
        <ele>2272.8</ele>
        <time>2020-02-14T04:06:45.458Z</time>
      </trkpt>
      <trkpt lat="42.59066" lon="1.91728">
        <ele>2271.8</ele>
        <time>2020-02-14T04:06:50.409Z</time>
      </trkpt>
      <trkpt lat="42.59071" lon="1.91735">
        <ele>2270.9</ele>
        <time>2020-02-14T04:06:53.175Z</time>
      </trkpt>
      <trkpt lat="42.5908" lon="1.91755">
        <ele>2269.4</ele>
        <time>2020-02-14T04:06:59.827Z</time>
      </trkpt>
      <trkpt lat="42.59081" lon="1.91757">
        <ele>2269.4</ele>
        <time>2020-02-14T04:07:00.381Z</time>
      </trkpt>
      <trkpt lat="42.59087" lon="1.91763">
        <ele>2269</ele>
        <time>2020-02-14T04:07:03.516Z</time>
      </trkpt>
      <trkpt lat="42.59088" lon="1.9177">
        <ele>2269.3</ele>
        <time>2020-02-14T04:07:05.434Z</time>
      </trkpt>
      <trkpt lat="42.59094" lon="1.91779">
        <ele>2268.9</ele>
        <time>2020-02-14T04:07:09.090Z</time>
      </trkpt>
      <trkpt lat="42.59094" lon="1.91783">
        <ele>2269.4</ele>
        <time>2020-02-14T04:07:10.235Z</time>
      </trkpt>
      <trkpt lat="42.59096" lon="1.91791">
        <ele>2268.9</ele>
        <time>2020-02-14T04:07:12.418Z</time>
      </trkpt>
      <trkpt lat="42.59097" lon="1.91797">
        <ele>2268.4</ele>
        <time>2020-02-14T04:07:14.140Z</time>
      </trkpt>
      <trkpt lat="42.59103" lon="1.91806">
        <ele>2267.4</ele>
        <time>2020-02-14T04:07:17.681Z</time>
      </trkpt>
      <trkpt lat="42.59106" lon="1.91814">
        <ele>2268</ele>
        <time>2020-02-14T04:07:20.358Z</time>
      </trkpt>
      <trkpt lat="42.59108" lon="1.91815">
        <ele>2267.9</ele>
        <time>2020-02-14T04:07:21.380Z</time>
      </trkpt>
      <trkpt lat="42.59117" lon="1.91825">
        <ele>2266.9</ele>
        <time>2020-02-14T04:07:25.706Z</time>
      </trkpt>
      <trkpt lat="42.59123" lon="1.91832">
        <ele>2267.4</ele>
        <time>2020-02-14T04:07:28.825Z</time>
      </trkpt>
      <trkpt lat="42.59135" lon="1.91837">
        <ele>2266.6</ele>
        <time>2020-02-14T04:07:33.733Z</time>
      </trkpt>
      <trkpt lat="42.59139" lon="1.91839">
        <ele>2266.5</ele>
        <time>2020-02-14T04:07:35.346Z</time>
      </trkpt>
      <trkpt lat="42.59144" lon="1.91844">
        <ele>2266.5</ele>
        <time>2020-02-14T04:07:37.841Z</time>
      </trkpt>
      <trkpt lat="42.59147" lon="1.91848">
        <ele>2266.5</ele>
        <time>2020-02-14T04:07:39.380Z</time>
      </trkpt>
      <trkpt lat="42.5915" lon="1.9185">
        <ele>2265.6</ele>
        <time>2020-02-14T04:07:40.605Z</time>
      </trkpt>
      <trkpt lat="42.59159" lon="1.91857">
        <ele>2265</ele>
        <time>2020-02-14T04:07:44.582Z</time>
      </trkpt>
      <trkpt lat="42.59167" lon="1.91863">
        <ele>2263.1</ele>
        <time>2020-02-14T04:07:48.238Z</time>
      </trkpt>
      <trkpt lat="42.59169" lon="1.91865">
        <ele>2263.2</ele>
        <time>2020-02-14T04:07:49.261Z</time>
      </trkpt>
      <trkpt lat="42.59187" lon="1.91875">
        <ele>2261.3</ele>
        <time>2020-02-14T04:07:56.746Z</time>
      </trkpt>
      <trkpt lat="42.59196" lon="1.91878">
        <ele>2260.8</ele>
        <time>2020-02-14T04:08:00.380Z</time>
      </trkpt>
      <trkpt lat="42.59201" lon="1.91881">
        <ele>2258.8</ele>
        <time>2020-02-14T04:08:02.648Z</time>
      </trkpt>
      <trkpt lat="42.59204" lon="1.91882">
        <ele>2258.9</ele>
        <time>2020-02-14T04:08:03.831Z</time>
      </trkpt>
      <trkpt lat="42.59217" lon="1.91894">
        <ele>2257.3</ele>
        <time>2020-02-14T04:08:09.829Z</time>
      </trkpt>
      <trkpt lat="42.59223" lon="1.91903">
        <ele>2255.9</ele>
        <time>2020-02-14T04:08:13.153Z</time>
      </trkpt>
      <trkpt lat="42.59227" lon="1.91909">
        <ele>2255.4</ele>
        <time>2020-02-14T04:08:15.591Z</time>
      </trkpt>
      <trkpt lat="42.59241" lon="1.91926">
        <ele>2253.6</ele>
        <time>2020-02-14T04:08:22.985Z</time>
      </trkpt>
      <trkpt lat="42.59242" lon="1.9193">
        <ele>2254</ele>
        <time>2020-02-14T04:08:24.102Z</time>
      </trkpt>
      <trkpt lat="42.59249" lon="1.91938">
        <ele>2254.1</ele>
        <time>2020-02-14T04:08:27.639Z</time>
      </trkpt>
      <trkpt lat="42.59254" lon="1.91938">
        <ele>2254</ele>
        <time>2020-02-14T04:08:29.497Z</time>
      </trkpt>
      <trkpt lat="42.59263" lon="1.91938">
        <ele>2253.6</ele>
        <time>2020-02-14T04:08:32.978Z</time>
      </trkpt>
      <trkpt lat="42.59265" lon="1.9194">
        <ele>2254</ele>
        <time>2020-02-14T04:08:33.833Z</time>
      </trkpt>
      <trkpt lat="42.5927" lon="1.91947">
        <ele>2254.1</ele>
        <time>2020-02-14T04:08:36.569Z</time>
      </trkpt>
      <trkpt lat="42.59274" lon="1.91953">
        <ele>2253.5</ele>
        <time>2020-02-14T04:08:38.965Z</time>
      </trkpt>
      <trkpt lat="42.59276" lon="1.91949">
        <ele>2254</ele>
        <time>2020-02-14T04:08:40.370Z</time>
      </trkpt>
      <trkpt lat="42.59282" lon="1.91932">
        <ele>2254.9</ele>
        <time>2020-02-14T04:08:45.730Z</time>
      </trkpt>
      <trkpt lat="42.59284" lon="1.91932">
        <ele>2255.5</ele>
        <time>2020-02-14T04:08:46.564Z</time>
      </trkpt>
      <trkpt lat="42.59295" lon="1.91929">
        <ele>2255.4</ele>
        <time>2020-02-14T04:08:50.804Z</time>
      </trkpt>
      <trkpt lat="42.59303" lon="1.91921">
        <ele>2256.5</ele>
        <time>2020-02-14T04:08:54.723Z</time>
      </trkpt>
      <trkpt lat="42.59307" lon="1.91919">
        <ele>2257.4</ele>
        <time>2020-02-14T04:08:56.522Z</time>
      </trkpt>
      <trkpt lat="42.5931" lon="1.9192">
        <ele>2257.3</ele>
        <time>2020-02-14T04:08:57.722Z</time>
      </trkpt>
      <trkpt lat="42.59314" lon="1.9192">
        <ele>2257.8</ele>
        <time>2020-02-14T04:08:59.200Z</time>
      </trkpt>
      <trkpt lat="42.59328" lon="1.91924">
        <ele>2257.4</ele>
        <time>2020-02-14T04:09:04.703Z</time>
      </trkpt>
      <trkpt lat="42.59343" lon="1.91928">
        <ele>2257.4</ele>
        <time>2020-02-14T04:09:10.926Z</time>
      </trkpt>
      <trkpt lat="42.59349" lon="1.91931">
        <ele>2256.4</ele>
        <time>2020-02-14T04:09:13.403Z</time>
      </trkpt>
      <trkpt lat="42.59368" lon="1.91938">
        <ele>2255.4</ele>
        <time>2020-02-14T04:09:20.771Z</time>
      </trkpt>
      <trkpt lat="42.59379" lon="1.91944">
        <ele>2254.4</ele>
        <time>2020-02-14T04:09:25.574Z</time>
      </trkpt>
      <trkpt lat="42.59396" lon="1.91948">
        <ele>2251.6</ele>
        <time>2020-02-14T04:09:32.149Z</time>
      </trkpt>
      <trkpt lat="42.59408" lon="1.91954">
        <ele>2251.2</ele>
        <time>2020-02-14T04:09:37.244Z</time>
      </trkpt>
      <trkpt lat="42.59413" lon="1.91954">
        <ele>2250.6</ele>
        <time>2020-02-14T04:09:39.222Z</time>
      </trkpt>
      <trkpt lat="42.59421" lon="1.9195">
        <ele>2250.1</ele>
        <time>2020-02-14T04:09:42.280Z</time>
      </trkpt>
      <trkpt lat="42.5943" lon="1.91958">
        <ele>2250.2</ele>
        <time>2020-02-14T04:09:46.372Z</time>
      </trkpt>
      <trkpt lat="42.59447" lon="1.91959">
        <ele>2252.1</ele>
        <time>2020-02-14T04:09:53.249Z</time>
      </trkpt>
      <trkpt lat="42.5946" lon="1.91962">
        <ele>2249.7</ele>
        <time>2020-02-14T04:09:58.077Z</time>
      </trkpt>
      <trkpt lat="42.59463" lon="1.91964">
        <ele>2248.8</ele>
        <time>2020-02-14T04:09:59.439Z</time>
      </trkpt>
      <trkpt lat="42.59481" lon="1.91972">
        <ele>2248.7</ele>
        <time>2020-02-14T04:10:06.882Z</time>
      </trkpt>
      <trkpt lat="42.59488" lon="1.91977">
        <ele>2248.7</ele>
        <time>2020-02-14T04:10:10.049Z</time>
      </trkpt>
      <trkpt lat="42.59495" lon="1.91985">
        <ele>2247.7</ele>
        <time>2020-02-14T04:10:13.485Z</time>
      </trkpt>
      <trkpt lat="42.595" lon="1.91985">
        <ele>2247.3</ele>
        <time>2020-02-14T04:10:15.306Z</time>
      </trkpt>
      <trkpt lat="42.59515" lon="1.91986">
        <ele>2248.8</ele>
        <time>2020-02-14T04:10:21.202Z</time>
      </trkpt>
      <trkpt lat="42.5953" lon="1.9199">
        <ele>2243.4</ele>
        <time>2020-02-14T04:10:27.567Z</time>
      </trkpt>
      <trkpt lat="42.59531" lon="1.9199">
        <ele>2249.1</ele>
        <time>2020-02-14T04:10:29.595Z</time>
      </trkpt>
      <trkpt lat="42.59538" lon="1.91993">
        <ele>2249.1</ele>
        <time>2020-02-14T04:10:32.127Z</time>
      </trkpt>
      <trkpt lat="42.59544" lon="1.91997">
        <ele>2247.7</ele>
        <time>2020-02-14T04:10:34.780Z</time>
      </trkpt>
      <trkpt lat="42.59556" lon="1.92003">
        <ele>2244.9</ele>
        <time>2020-02-14T04:10:39.857Z</time>
      </trkpt>
      <trkpt lat="42.59563" lon="1.92005">
        <ele>2239.5</ele>
        <time>2020-02-14T04:10:43.247Z</time>
      </trkpt>
      <trkpt lat="42.5957" lon="1.92006">
        <ele>2241.9</ele>
        <time>2020-02-14T04:10:46.043Z</time>
      </trkpt>
      <trkpt lat="42.59578" lon="1.92004">
        <ele>2241.5</ele>
        <time>2020-02-14T04:10:49.419Z</time>
      </trkpt>
      <trkpt lat="42.5959" lon="1.91991">
        <ele>2241.5</ele>
        <time>2020-02-14T04:10:55.329Z</time>
      </trkpt>
      <trkpt lat="42.59591" lon="1.9199">
        <ele>2241.9</ele>
        <time>2020-02-14T04:10:55.742Z</time>
      </trkpt>
      <trkpt lat="42.59602" lon="1.91982">
        <ele>2243.5</ele>
        <time>2020-02-14T04:11:00.369Z</time>
      </trkpt>
      <trkpt lat="42.59616" lon="1.91975">
        <ele>2244.4</ele>
        <time>2020-02-14T04:11:06.437Z</time>
      </trkpt>
      <trkpt lat="42.59624" lon="1.91971">
        <ele>2245.9</ele>
        <time>2020-02-14T04:11:09.654Z</time>
      </trkpt>
      <trkpt lat="42.59624" lon="1.91968">
        <ele>2245.4</ele>
        <time>2020-02-14T04:11:10.510Z</time>
      </trkpt>
      <trkpt lat="42.59635" lon="1.91958">
        <ele>2247.3</ele>
        <time>2020-02-14T04:11:15.723Z</time>
      </trkpt>
      <trkpt lat="42.59636" lon="1.91956">
        <ele>2247.3</ele>
        <time>2020-02-14T04:11:16.512Z</time>
      </trkpt>
      <trkpt lat="42.59655" lon="1.91953">
        <ele>2247.8</ele>
        <time>2020-02-14T04:11:23.771Z</time>
      </trkpt>
      <trkpt lat="42.5967" lon="1.91962">
        <ele>2246.3</ele>
        <time>2020-02-14T04:11:30.007Z</time>
      </trkpt>
      <trkpt lat="42.59678" lon="1.91967">
        <ele>2246.3</ele>
        <time>2020-02-14T04:11:33.737Z</time>
      </trkpt>
      <trkpt lat="42.5969" lon="1.91972">
        <ele>2246.3</ele>
        <time>2020-02-14T04:11:38.309Z</time>
      </trkpt>
      <trkpt lat="42.59695" lon="1.91975">
        <ele>2247.3</ele>
        <time>2020-02-14T04:11:40.550Z</time>
      </trkpt>
      <trkpt lat="42.597" lon="1.91979">
        <ele>2247.8</ele>
        <time>2020-02-14T04:11:42.848Z</time>
      </trkpt>
      <trkpt lat="42.59704" lon="1.91981">
        <ele>2249.1</ele>
        <time>2020-02-14T04:11:44.584Z</time>
      </trkpt>
      <trkpt lat="42.59713" lon="1.91987">
        <ele>2250.1</ele>
        <time>2020-02-14T04:11:48.503Z</time>
      </trkpt>
      <trkpt lat="42.59715" lon="1.91989">
        <ele>2250.1</ele>
        <time>2020-02-14T04:11:49.312Z</time>
      </trkpt>
      <trkpt lat="42.59723" lon="1.9199">
        <ele>2251.1</ele>
        <time>2020-02-14T04:11:52.398Z</time>
      </trkpt>
      <trkpt lat="42.59732" lon="1.91986">
        <ele>2251.5</ele>
        <time>2020-02-14T04:11:55.922Z</time>
      </trkpt>
      <trkpt lat="42.59741" lon="1.91986">
        <ele>2252</ele>
        <time>2020-02-14T04:11:59.403Z</time>
      </trkpt>
      <trkpt lat="42.59742" lon="1.91985">
        <ele>2252.1</ele>
        <time>2020-02-14T04:11:59.877Z</time>
      </trkpt>
      <trkpt lat="42.59745" lon="1.91984">
        <ele>2252.5</ele>
        <time>2020-02-14T04:12:01.236Z</time>
      </trkpt>
      <trkpt lat="42.59745" lon="1.91984">
        <ele>2255.9</ele>
        <time>2020-02-14T04:12:02.413Z</time>
      </trkpt>
      <trkpt lat="42.59745" lon="1.91984">
        <ele>2252.6</ele>
        <time>2020-02-14T04:12:03.574Z</time>
      </trkpt>
      <trkpt lat="42.59745" lon="1.91984">
        <ele>2247.3</ele>
        <time>2020-02-14T04:12:05.416Z</time>
      </trkpt>
      <trkpt lat="42.59745" lon="1.91984">
        <ele>2254.5</ele>
        <time>2020-02-14T04:12:07.926Z</time>
      </trkpt>
      <trkpt lat="42.59745" lon="1.91984">
        <ele>2257.9</ele>
        <time>2020-02-14T04:12:09.092Z</time>
      </trkpt>
      <trkpt lat="42.59745" lon="1.91984">
        <ele>2244</ele>
        <time>2020-02-14T04:12:13.904Z</time>
      </trkpt>
      <trkpt lat="42.59745" lon="1.91984">
        <ele>2253</ele>
        <time>2020-02-14T04:12:17.039Z</time>
      </trkpt>
      <trkpt lat="42.59745" lon="1.91984">
        <ele>2256.5</ele>
        <time>2020-02-14T04:12:18.236Z</time>
      </trkpt>
      <trkpt lat="42.59745" lon="1.91984">
        <ele>2255.4</ele>
        <time>2020-02-14T04:12:18.600Z</time>
      </trkpt>
      <trkpt lat="42.59745" lon="1.91984">
        <ele>2250.1</ele>
        <time>2020-02-14T04:12:20.433Z</time>
      </trkpt>
      <trkpt lat="42.59745" lon="1.91984">
        <ele>2246.7</ele>
        <time>2020-02-14T04:12:21.627Z</time>
      </trkpt>
      <trkpt lat="42.59745" lon="1.91984">
        <ele>2253</ele>
        <time>2020-02-14T04:12:23.814Z</time>
      </trkpt>
      <trkpt lat="42.59745" lon="1.91984">
        <ele>2259.8</ele>
        <time>2020-02-14T04:12:26.163Z</time>
      </trkpt>
      <trkpt lat="42.59745" lon="1.91984">
        <ele>2244.9</ele>
        <time>2020-02-14T04:12:31.337Z</time>
      </trkpt>
      <trkpt lat="42.59745" lon="1.91984">
        <ele>2253.1</ele>
        <time>2020-02-14T04:12:34.179Z</time>
      </trkpt>
      <trkpt lat="42.59745" lon="1.91984">
        <ele>2256.9</ele>
        <time>2020-02-14T04:12:35.506Z</time>
      </trkpt>
      <trkpt lat="42.59745" lon="1.91984">
        <ele>2247.8</ele>
        <time>2020-02-14T04:12:38.665Z</time>
      </trkpt>
      <trkpt lat="42.59745" lon="1.91984">
        <ele>2250.6</ele>
        <time>2020-02-14T04:12:39.654Z</time>
      </trkpt>
      <trkpt lat="42.59745" lon="1.91984">
        <ele>2254.5</ele>
        <time>2020-02-14T04:12:40.994Z</time>
      </trkpt>
      <trkpt lat="42.59745" lon="1.91984">
        <ele>2255.5</ele>
        <time>2020-02-14T04:12:41.336Z</time>
      </trkpt>
      <trkpt lat="42.59745" lon="1.91984">
        <ele>2252</ele>
        <time>2020-02-14T04:12:42.522Z</time>
      </trkpt>
      <trkpt lat="42.59745" lon="1.91984">
        <ele>2255.4</ele>
        <time>2020-02-14T04:12:43.694Z</time>
      </trkpt>
      <trkpt lat="42.59745" lon="1.91984">
        <ele>2252</ele>
        <time>2020-02-14T04:12:44.878Z</time>
      </trkpt>
      <trkpt lat="42.59745" lon="1.91984">
        <ele>2257.9</ele>
        <time>2020-02-14T04:12:46.916Z</time>
      </trkpt>
      <trkpt lat="42.59745" lon="1.91984">
        <ele>2248.8</ele>
        <time>2020-02-14T04:12:50.078Z</time>
      </trkpt>
      <trkpt lat="42.59745" lon="1.91984">
        <ele>2255</ele>
        <time>2020-02-14T04:12:52.234Z</time>
      </trkpt>
      <trkpt lat="42.59745" lon="1.91984">
        <ele>2250.1</ele>
        <time>2020-02-14T04:12:53.925Z</time>
      </trkpt>
      <trkpt lat="42.59745" lon="1.91984">
        <ele>2253.6</ele>
        <time>2020-02-14T04:12:55.134Z</time>
      </trkpt>
      <trkpt lat="42.59745" lon="1.91984">
        <ele>2237.2</ele>
        <time>2020-02-14T04:13:00.836Z</time>
      </trkpt>
      <trkpt lat="42.59745" lon="1.91984">
        <ele>2254.4</ele>
        <time>2020-02-14T04:13:06.827Z</time>
      </trkpt>
      <trkpt lat="42.59745" lon="1.91984">
        <ele>2266.5</ele>
        <time>2020-02-14T04:13:11.028Z</time>
      </trkpt>
      <trkpt lat="42.59745" lon="1.91984">
        <ele>2253.1</ele>
        <time>2020-02-14T04:13:15.701Z</time>
      </trkpt>
      <trkpt lat="42.59745" lon="1.91984">
        <ele>2238.6</ele>
        <time>2020-02-14T04:13:20.726Z</time>
      </trkpt>
      <trkpt lat="42.59745" lon="1.91984">
        <ele>2254.9</ele>
        <time>2020-02-14T04:13:26.384Z</time>
      </trkpt>
      <trkpt lat="42.59745" lon="1.91984">
        <ele>2255</ele>
        <time>2020-02-14T04:13:26.405Z</time>
      </trkpt>
      <trkpt lat="42.59745" lon="1.91984">
        <ele>2244.4</ele>
        <time>2020-02-14T04:13:30.087Z</time>
      </trkpt>
      <trkpt lat="42.59745" lon="1.91984">
        <ele>2252</ele>
        <time>2020-02-14T04:13:32.755Z</time>
      </trkpt>
      <trkpt lat="42.59745" lon="1.91984">
        <ele>2248.3</ele>
        <time>2020-02-14T04:13:34.063Z</time>
      </trkpt>
      <trkpt lat="42.59745" lon="1.91984">
        <ele>2255.5</ele>
        <time>2020-02-14T04:13:36.556Z</time>
      </trkpt>
      <trkpt lat="42.59745" lon="1.91984">
        <ele>2245.8</ele>
        <time>2020-02-14T04:13:39.896Z</time>
      </trkpt>
      <trkpt lat="42.59745" lon="1.91984">
        <ele>2247.3</ele>
        <time>2020-02-14T04:13:40.389Z</time>
      </trkpt>
      <trkpt lat="42.59745" lon="1.91984">
        <ele>2257.3</ele>
        <time>2020-02-14T04:13:43.882Z</time>
      </trkpt>
      <trkpt lat="42.59745" lon="1.91984">
        <ele>2255.9</ele>
        <time>2020-02-14T04:13:44.361Z</time>
      </trkpt>
      <trkpt lat="42.59745" lon="1.91984">
        <ele>2246.3</ele>
        <time>2020-02-14T04:13:47.703Z</time>
      </trkpt>
      <trkpt lat="42.59745" lon="1.91984">
        <ele>2246.7</ele>
        <time>2020-02-14T04:13:47.843Z</time>
      </trkpt>
      <trkpt lat="42.59745" lon="1.91984">
        <ele>2250.6</ele>
        <time>2020-02-14T04:13:49.199Z</time>
      </trkpt>
      <trkpt lat="42.59745" lon="1.91984">
        <ele>2247.7</ele>
        <time>2020-02-14T04:13:50.193Z</time>
      </trkpt>
      <trkpt lat="42.59745" lon="1.91984">
        <ele>2253.6</ele>
        <time>2020-02-14T04:13:52.218Z</time>
      </trkpt>
      <trkpt lat="42.59745" lon="1.91984">
        <ele>2253.5</ele>
        <time>2020-02-14T04:13:52.238Z</time>
      </trkpt>
      <trkpt lat="42.59745" lon="1.91984">
        <ele>2250.7</ele>
        <time>2020-02-14T04:13:53.220Z</time>
      </trkpt>
      <trkpt lat="42.59745" lon="1.91984">
        <ele>2258.9</ele>
        <time>2020-02-14T04:13:56.063Z</time>
      </trkpt>
      <trkpt lat="42.59745" lon="1.91984">
        <ele>2254.5</ele>
        <time>2020-02-14T04:13:57.585Z</time>
      </trkpt>
      <trkpt lat="42.59745" lon="1.91984">
        <ele>2249.7</ele>
        <time>2020-02-14T04:13:59.262Z</time>
      </trkpt>
      <trkpt lat="42.59745" lon="1.91984">
        <ele>2254</ele>
        <time>2020-02-14T04:14:00.777Z</time>
      </trkpt>
      <trkpt lat="42.59745" lon="1.91984">
        <ele>2247.2</ele>
        <time>2020-02-14T04:14:03.141Z</time>
      </trkpt>
      <trkpt lat="42.59745" lon="1.91984">
        <ele>2255.9</ele>
        <time>2020-02-14T04:14:06.157Z</time>
      </trkpt>
      <trkpt lat="42.59745" lon="1.91984">
        <ele>2247.8</ele>
        <time>2020-02-14T04:14:08.977Z</time>
      </trkpt>
      <trkpt lat="42.59745" lon="1.91984">
        <ele>2251.6</ele>
        <time>2020-02-14T04:14:10.298Z</time>
      </trkpt>
      <trkpt lat="42.59745" lon="1.91984">
        <ele>2255.4</ele>
        <time>2020-02-14T04:14:11.628Z</time>
      </trkpt>
      <trkpt lat="42.59745" lon="1.91984">
        <ele>2250.2</ele>
        <time>2020-02-14T04:14:13.458Z</time>
      </trkpt>
      <trkpt lat="42.59745" lon="1.91984">
        <ele>2258.4</ele>
        <time>2020-02-14T04:14:16.305Z</time>
      </trkpt>
      <trkpt lat="42.59745" lon="1.91984">
        <ele>2254.5</ele>
        <time>2020-02-14T04:14:17.653Z</time>
      </trkpt>
      <trkpt lat="42.59745" lon="1.91984">
        <ele>2259.7</ele>
        <time>2020-02-14T04:14:19.478Z</time>
      </trkpt>
      <trkpt lat="42.59745" lon="1.91984">
        <ele>2253.5</ele>
        <time>2020-02-14T04:14:21.629Z</time>
      </trkpt>
      <trkpt lat="42.59745" lon="1.91984">
        <ele>2257.4</ele>
        <time>2020-02-14T04:14:22.966Z</time>
      </trkpt>
      <trkpt lat="42.59745" lon="1.91984">
        <ele>2253.5</ele>
        <time>2020-02-14T04:14:24.310Z</time>
      </trkpt>
      <trkpt lat="42.59745" lon="1.91984">
        <ele>2240.5</ele>
        <time>2020-02-14T04:14:28.827Z</time>
      </trkpt>
      <trkpt lat="42.59745" lon="1.91984">
        <ele>2255.9</ele>
        <time>2020-02-14T04:14:34.183Z</time>
      </trkpt>
      <trkpt lat="42.59745" lon="1.91984">
        <ele>2241.9</ele>
        <time>2020-02-14T04:14:39.042Z</time>
      </trkpt>
      <trkpt lat="42.59745" lon="1.91984">
        <ele>2243.9</ele>
        <time>2020-02-14T04:14:39.727Z</time>
      </trkpt>
      <trkpt lat="42.59745" lon="1.91984">
        <ele>2255.5</ele>
        <time>2020-02-14T04:14:43.733Z</time>
      </trkpt>
      <trkpt lat="42.59745" lon="1.91984">
        <ele>2249.2</ele>
        <time>2020-02-14T04:14:45.921Z</time>
      </trkpt>
      <trkpt lat="42.59745" lon="1.91984">
        <ele>2259.7</ele>
        <time>2020-02-14T04:14:49.587Z</time>
      </trkpt>
      <trkpt lat="42.59745" lon="1.91984">
        <ele>2251.1</ele>
        <time>2020-02-14T04:14:52.560Z</time>
      </trkpt>
      <trkpt lat="42.59745" lon="1.91984">
        <ele>2257.3</ele>
        <time>2020-02-14T04:14:54.705Z</time>
      </trkpt>
      <trkpt lat="42.59745" lon="1.91984">
        <ele>2254</ele>
        <time>2020-02-14T04:14:55.863Z</time>
      </trkpt>
      <trkpt lat="42.59745" lon="1.91984">
        <ele>2244.8</ele>
        <time>2020-02-14T04:14:59.050Z</time>
      </trkpt>
      <trkpt lat="42.59745" lon="1.91984">
        <ele>2255.4</ele>
        <time>2020-02-14T04:15:02.726Z</time>
      </trkpt>
      <trkpt lat="42.59745" lon="1.91984">
        <ele>2259.7</ele>
        <time>2020-02-14T04:15:04.225Z</time>
      </trkpt>
      <trkpt lat="42.59745" lon="1.91984">
        <ele>2253.6</ele>
        <time>2020-02-14T04:15:06.358Z</time>
      </trkpt>
      <trkpt lat="42.59745" lon="1.91984">
        <ele>2246.4</ele>
        <time>2020-02-14T04:15:08.864Z</time>
      </trkpt>
      <trkpt lat="42.59745" lon="1.91984">
        <ele>2254</ele>
        <time>2020-02-14T04:15:11.521Z</time>
      </trkpt>
      <trkpt lat="42.59745" lon="1.91984">
        <ele>2250.2</ele>
        <time>2020-02-14T04:15:12.861Z</time>
      </trkpt>
      <trkpt lat="42.59745" lon="1.91984">
        <ele>2254.1</ele>
        <time>2020-02-14T04:15:14.221Z</time>
      </trkpt>
      <trkpt lat="42.59745" lon="1.91984">
        <ele>2250.6</ele>
        <time>2020-02-14T04:15:15.420Z</time>
      </trkpt>
      <trkpt lat="42.59745" lon="1.91984">
        <ele>2254.4</ele>
        <time>2020-02-14T04:15:16.749Z</time>
      </trkpt>
      <trkpt lat="42.59745" lon="1.91984">
        <ele>2253.5</ele>
        <time>2020-02-14T04:15:17.133Z</time>
      </trkpt>
      <trkpt lat="42.59743" lon="1.91984">
        <ele>2254</ele>
        <time>2020-02-14T04:15:17.697Z</time>
      </trkpt>
      <trkpt lat="42.59743" lon="1.91983">
        <ele>2253.5</ele>
        <time>2020-02-14T04:15:17.909Z</time>
      </trkpt>
      <trkpt lat="42.59744" lon="1.91984">
        <ele>2254.4</ele>
        <time>2020-02-14T04:15:18.338Z</time>
      </trkpt>
      <trkpt lat="42.59747" lon="1.91982">
        <ele>2254.5</ele>
        <time>2020-02-14T04:15:19.610Z</time>
      </trkpt>
      <trkpt lat="42.59748" lon="1.91991">
        <ele>2254.5</ele>
        <time>2020-02-14T04:15:22.135Z</time>
      </trkpt>
      <trkpt lat="42.59746" lon="1.9199">
        <ele>2254</ele>
        <time>2020-02-14T04:15:23.040Z</time>
      </trkpt>
      <trkpt lat="42.59746" lon="1.91988">
        <ele>2254.4</ele>
        <time>2020-02-14T04:15:23.632Z</time>
      </trkpt>
      <trkpt lat="42.59752" lon="1.9199">
        <ele>2254.4</ele>
        <time>2020-02-14T04:15:26.049Z</time>
      </trkpt>
      <trkpt lat="42.59747" lon="1.91991">
        <ele>2254.9</ele>
        <time>2020-02-14T04:15:28.121Z</time>
      </trkpt>
      <trkpt lat="42.59746" lon="1.91991">
        <ele>2256.5</ele>
        <time>2020-02-14T04:15:28.726Z</time>
      </trkpt>
      <trkpt lat="42.59745" lon="1.9199">
        <ele>2254.4</ele>
        <time>2020-02-14T04:15:29.577Z</time>
      </trkpt>
      <trkpt lat="42.59745" lon="1.91986">
        <ele>2254.4</ele>
        <time>2020-02-14T04:15:30.575Z</time>
      </trkpt>
      <trkpt lat="42.59746" lon="1.91986">
        <ele>2254.9</ele>
        <time>2020-02-14T04:15:30.998Z</time>
      </trkpt>
      <trkpt lat="42.59752" lon="1.91982">
        <ele>2255.5</ele>
        <time>2020-02-14T04:15:33.423Z</time>
      </trkpt>
      <trkpt lat="42.59762" lon="1.91977">
        <ele>2256</ele>
        <time>2020-02-14T04:15:37.790Z</time>
      </trkpt>
      <trkpt lat="42.59772" lon="1.91971">
        <ele>2257.8</ele>
        <time>2020-02-14T04:15:42.008Z</time>
      </trkpt>
      <trkpt lat="42.59774" lon="1.91961">
        <ele>2259.8</ele>
        <time>2020-02-14T04:15:45.229Z</time>
      </trkpt>
      <trkpt lat="42.59777" lon="1.91953">
        <ele>2260.2</ele>
        <time>2020-02-14T04:15:47.594Z</time>
      </trkpt>
      <trkpt lat="42.59779" lon="1.91943">
        <ele>2261.2</ele>
        <time>2020-02-14T04:15:50.632Z</time>
      </trkpt>
      <trkpt lat="42.59786" lon="1.91941">
        <ele>2261.7</ele>
        <time>2020-02-14T04:15:53.438Z</time>
      </trkpt>
      <trkpt lat="42.5979" lon="1.91938">
        <ele>2262.1</ele>
        <time>2020-02-14T04:15:55.391Z</time>
      </trkpt>
      <trkpt lat="42.59795" lon="1.91927">
        <ele>2263.6</ele>
        <time>2020-02-14T04:15:59.046Z</time>
      </trkpt>
      <trkpt lat="42.59798" lon="1.91922">
        <ele>2266</ele>
        <time>2020-02-14T04:16:01.032Z</time>
      </trkpt>
      <trkpt lat="42.59803" lon="1.91914">
        <ele>2267.9</ele>
        <time>2020-02-14T04:16:04.060Z</time>
      </trkpt>
      <trkpt lat="42.59803" lon="1.91909">
        <ele>2269.4</ele>
        <time>2020-02-14T04:16:05.789Z</time>
      </trkpt>
      <trkpt lat="42.59802" lon="1.91898">
        <ele>2269.8</ele>
        <time>2020-02-14T04:16:08.745Z</time>
      </trkpt>
      <trkpt lat="42.59801" lon="1.91877">
        <ele>2270.8</ele>
        <time>2020-02-14T04:16:14.964Z</time>
      </trkpt>
      <trkpt lat="42.59801" lon="1.91866">
        <ele>2272.3</ele>
        <time>2020-02-14T04:16:18.078Z</time>
      </trkpt>
      <trkpt lat="42.59803" lon="1.91858">
        <ele>2274.1</ele>
        <time>2020-02-14T04:16:20.412Z</time>
      </trkpt>
      <trkpt lat="42.59801" lon="1.91843">
        <ele>2274.1</ele>
        <time>2020-02-14T04:16:24.842Z</time>
      </trkpt>
      <trkpt lat="42.59804" lon="1.91827">
        <ele>2273.7</ele>
        <time>2020-02-14T04:16:29.575Z</time>
      </trkpt>
      <trkpt lat="42.59802" lon="1.91808">
        <ele>2272.7</ele>
        <time>2020-02-14T04:16:35.061Z</time>
      </trkpt>
      <trkpt lat="42.59805" lon="1.9179">
        <ele>2274.7</ele>
        <time>2020-02-14T04:16:40.150Z</time>
      </trkpt>
      <trkpt lat="42.59805" lon="1.9177">
        <ele>2274.6</ele>
        <time>2020-02-14T04:16:46.094Z</time>
      </trkpt>
      <trkpt lat="42.59806" lon="1.91767">
        <ele>2274.6</ele>
        <time>2020-02-14T04:16:46.997Z</time>
      </trkpt>
      <trkpt lat="42.59813" lon="1.9175">
        <ele>2273.2</ele>
        <time>2020-02-14T04:16:52.634Z</time>
      </trkpt>
      <trkpt lat="42.59818" lon="1.91742">
        <ele>2273.3</ele>
        <time>2020-02-14T04:16:55.506Z</time>
      </trkpt>
      <trkpt lat="42.59821" lon="1.91737">
        <ele>2272.8</ele>
        <time>2020-02-14T04:16:57.390Z</time>
      </trkpt>
      <trkpt lat="42.59826" lon="1.91729">
        <ele>2271.8</ele>
        <time>2020-02-14T04:17:00.215Z</time>
      </trkpt>
      <trkpt lat="42.59826" lon="1.91716">
        <ele>2270.4</ele>
        <time>2020-02-14T04:17:03.910Z</time>
      </trkpt>
      <trkpt lat="42.59827" lon="1.91707">
        <ele>2268.5</ele>
        <time>2020-02-14T04:17:06.622Z</time>
      </trkpt>
      <trkpt lat="42.59825" lon="1.91701">
        <ele>2267.5</ele>
        <time>2020-02-14T04:17:08.600Z</time>
      </trkpt>
      <trkpt lat="42.59834" lon="1.91685">
        <ele>2267</ele>
        <time>2020-02-14T04:17:14.187Z</time>
      </trkpt>
      <trkpt lat="42.59831" lon="1.91673">
        <ele>2264.6</ele>
        <time>2020-02-14T04:17:17.894Z</time>
      </trkpt>
      <trkpt lat="42.59832" lon="1.91666">
        <ele>2264</ele>
        <time>2020-02-14T04:17:19.764Z</time>
      </trkpt>
      <trkpt lat="42.59833" lon="1.91645">
        <ele>2260.2</ele>
        <time>2020-02-14T04:17:25.943Z</time>
      </trkpt>
      <trkpt lat="42.59833" lon="1.91641">
        <ele>2259.8</ele>
        <time>2020-02-14T04:17:27.009Z</time>
      </trkpt>
      <trkpt lat="42.59837" lon="1.91622">
        <ele>2257.4</ele>
        <time>2020-02-14T04:17:32.719Z</time>
      </trkpt>
      <trkpt lat="42.5984" lon="1.91608">
        <ele>2255.4</ele>
        <time>2020-02-14T04:17:36.868Z</time>
      </trkpt>
      <trkpt lat="42.59839" lon="1.91606">
        <ele>2254</ele>
        <time>2020-02-14T04:17:37.692Z</time>
      </trkpt>
      <trkpt lat="42.59835" lon="1.91597">
        <ele>2251.6</ele>
        <time>2020-02-14T04:17:40.881Z</time>
      </trkpt>
      <trkpt lat="42.59834" lon="1.91593">
        <ele>2251.5</ele>
        <time>2020-02-14T04:17:41.932Z</time>
      </trkpt>
      <trkpt lat="42.59836" lon="1.91582">
        <ele>2249.1</ele>
        <time>2020-02-14T04:17:45.229Z</time>
      </trkpt>
      <trkpt lat="42.5984" lon="1.91571">
        <ele>2245.9</ele>
        <time>2020-02-14T04:17:49.154Z</time>
      </trkpt>
      <trkpt lat="42.59843" lon="1.91566">
        <ele>2244.3</ele>
        <time>2020-02-14T04:17:50.933Z</time>
      </trkpt>
      <trkpt lat="42.59843" lon="1.91563">
        <ele>2243.9</ele>
        <time>2020-02-14T04:17:51.720Z</time>
      </trkpt>
      <trkpt lat="42.59846" lon="1.91558">
        <ele>2242.9</ele>
        <time>2020-02-14T04:17:53.540Z</time>
      </trkpt>
      <trkpt lat="42.5985" lon="1.91553">
        <ele>2242.5</ele>
        <time>2020-02-14T04:17:55.636Z</time>
      </trkpt>
      <trkpt lat="42.59852" lon="1.91548">
        <ele>2242.4</ele>
        <time>2020-02-14T04:17:57.229Z</time>
      </trkpt>
      <trkpt lat="42.59851" lon="1.91536">
        <ele>2240.5</ele>
        <time>2020-02-14T04:18:00.794Z</time>
      </trkpt>
      <trkpt lat="42.59855" lon="1.9153">
        <ele>2239.1</ele>
        <time>2020-02-14T04:18:03.065Z</time>
      </trkpt>
      <trkpt lat="42.59856" lon="1.91528">
        <ele>2238.2</ele>
        <time>2020-02-14T04:18:03.836Z</time>
      </trkpt>
      <trkpt lat="42.59858" lon="1.91519">
        <ele>2235.7</ele>
        <time>2020-02-14T04:18:06.755Z</time>
      </trkpt>
      <trkpt lat="42.59861" lon="1.91514">
        <ele>2233.3</ele>
        <time>2020-02-14T04:18:08.750Z</time>
      </trkpt>
      <trkpt lat="42.59873" lon="1.9152">
        <ele>2231.8</ele>
        <time>2020-02-14T04:18:13.570Z</time>
      </trkpt>
      <trkpt lat="42.59888" lon="1.91526">
        <ele>2230</ele>
        <time>2020-02-14T04:18:19.726Z</time>
      </trkpt>
      <trkpt lat="42.59902" lon="1.9153">
        <ele>2227.5</ele>
        <time>2020-02-14T04:18:25.181Z</time>
      </trkpt>
      <trkpt lat="42.59916" lon="1.91536">
        <ele>2225.6</ele>
        <time>2020-02-14T04:18:30.960Z</time>
      </trkpt>
      <trkpt lat="42.5992" lon="1.91543">
        <ele>2224.6</ele>
        <time>2020-02-14T04:18:33.492Z</time>
      </trkpt>
      <trkpt lat="42.59928" lon="1.91548">
        <ele>2223.8</ele>
        <time>2020-02-14T04:18:36.889Z</time>
      </trkpt>
      <trkpt lat="42.5994" lon="1.9155">
        <ele>2221.8</ele>
        <time>2020-02-14T04:18:41.479Z</time>
      </trkpt>
      <trkpt lat="42.59951" lon="1.91556">
        <ele>2221.7</ele>
        <time>2020-02-14T04:18:46.003Z</time>
      </trkpt>
      <trkpt lat="42.59954" lon="1.9156">
        <ele>2220.8</ele>
        <time>2020-02-14T04:18:47.732Z</time>
      </trkpt>
      <trkpt lat="42.59969" lon="1.9157">
        <ele>2219.9</ele>
        <time>2020-02-14T04:18:54.181Z</time>
      </trkpt>
      <trkpt lat="42.59974" lon="1.91572">
        <ele>2219.4</ele>
        <time>2020-02-14T04:18:56.198Z</time>
      </trkpt>
      <trkpt lat="42.59981" lon="1.91572">
        <ele>2217.9</ele>
        <time>2020-02-14T04:18:59.064Z</time>
      </trkpt>
      <trkpt lat="42.59989" lon="1.91558">
        <ele>2219</ele>
        <time>2020-02-14T04:19:04.179Z</time>
      </trkpt>
      <trkpt lat="42.59994" lon="1.91556">
        <ele>2218.9</ele>
        <time>2020-02-14T04:19:06.231Z</time>
      </trkpt>
      <trkpt lat="42.59999" lon="1.91556">
        <ele>2217.9</ele>
        <time>2020-02-14T04:19:08.160Z</time>
      </trkpt>
      <trkpt lat="42.60004" lon="1.91544">
        <ele>2218.5</ele>
        <time>2020-02-14T04:19:12.056Z</time>
      </trkpt>
      <trkpt lat="42.60003" lon="1.91542">
        <ele>2218.5</ele>
        <time>2020-02-14T04:19:12.584Z</time>
      </trkpt>
      <trkpt lat="42.59998" lon="1.9153">
        <ele>2219</ele>
        <time>2020-02-14T04:19:16.540Z</time>
      </trkpt>
      <trkpt lat="42.60002" lon="1.91519">
        <ele>2220.4</ele>
        <time>2020-02-14T04:19:20.287Z</time>
      </trkpt>
      <trkpt lat="42.60009" lon="1.91508">
        <ele>2222.2</ele>
        <time>2020-02-14T04:19:24.317Z</time>
      </trkpt>
      <trkpt lat="42.60014" lon="1.91498">
        <ele>2222.7</ele>
        <time>2020-02-14T04:19:27.600Z</time>
      </trkpt>
      <trkpt lat="42.60021" lon="1.91493">
        <ele>2223.8</ele>
        <time>2020-02-14T04:19:31.015Z</time>
      </trkpt>
      <trkpt lat="42.60021" lon="1.91482">
        <ele>2224.6</ele>
        <time>2020-02-14T04:19:33.989Z</time>
      </trkpt>
      <trkpt lat="42.60021" lon="1.9148">
        <ele>2225.1</ele>
        <time>2020-02-14T04:19:34.719Z</time>
      </trkpt>
      <trkpt lat="42.60021" lon="1.91467">
        <ele>2226.6</ele>
        <time>2020-02-14T04:19:38.454Z</time>
      </trkpt>
      <trkpt lat="42.60024" lon="1.91453">
        <ele>2227.5</ele>
        <time>2020-02-14T04:19:42.587Z</time>
      </trkpt>
      <trkpt lat="42.60023" lon="1.91444">
        <ele>2228.1</ele>
        <time>2020-02-14T04:19:45.208Z</time>
      </trkpt>
      <trkpt lat="42.60024" lon="1.91438">
        <ele>2228.6</ele>
        <time>2020-02-14T04:19:46.705Z</time>
      </trkpt>
      <trkpt lat="42.60023" lon="1.91428">
        <ele>2229.1</ele>
        <time>2020-02-14T04:19:49.647Z</time>
      </trkpt>
      <trkpt lat="42.60025" lon="1.91424">
        <ele>2229.5</ele>
        <time>2020-02-14T04:19:51.172Z</time>
      </trkpt>
      <trkpt lat="42.60026" lon="1.9141">
        <ele>2229.5</ele>
        <time>2020-02-14T04:19:55.209Z</time>
      </trkpt>
      <trkpt lat="42.60024" lon="1.91406">
        <ele>2230.9</ele>
        <time>2020-02-14T04:19:56.639Z</time>
      </trkpt>
      <trkpt lat="42.60018" lon="1.91394">
        <ele>2231.8</ele>
        <time>2020-02-14T04:20:00.810Z</time>
      </trkpt>
      <trkpt lat="42.60018" lon="1.9139">
        <ele>2232.8</ele>
        <time>2020-02-14T04:20:01.894Z</time>
      </trkpt>
      <trkpt lat="42.6001" lon="1.91375">
        <ele>2233.9</ele>
        <time>2020-02-14T04:20:07.171Z</time>
      </trkpt>
      <trkpt lat="42.60007" lon="1.91366">
        <ele>2234.7</ele>
        <time>2020-02-14T04:20:10.038Z</time>
      </trkpt>
      <trkpt lat="42.60006" lon="1.91353">
        <ele>2234.2</ele>
        <time>2020-02-14T04:20:13.955Z</time>
      </trkpt>
      <trkpt lat="42.60002" lon="1.9134">
        <ele>2234.2</ele>
        <time>2020-02-14T04:20:17.742Z</time>
      </trkpt>
      <trkpt lat="42.60001" lon="1.91332">
        <ele>2234.3</ele>
        <time>2020-02-14T04:20:20.217Z</time>
      </trkpt>
      <trkpt lat="42.6" lon="1.91324">
        <ele>2234.8</ele>
        <time>2020-02-14T04:20:22.289Z</time>
      </trkpt>
      <trkpt lat="42.60002" lon="1.91311">
        <ele>2234.8</ele>
        <time>2020-02-14T04:20:26.230Z</time>
      </trkpt>
      <trkpt lat="42.59999" lon="1.91307">
        <ele>2234.8</ele>
        <time>2020-02-14T04:20:27.684Z</time>
      </trkpt>
      <trkpt lat="42.59999" lon="1.91306">
        <ele>2235.3</ele>
        <time>2020-02-14T04:20:28.048Z</time>
      </trkpt>
      <trkpt lat="42.6" lon="1.91306">
        <ele>2235.2</ele>
        <time>2020-02-14T04:20:28.300Z</time>
      </trkpt>
      <trkpt lat="42.60003" lon="1.913">
        <ele>2235.2</ele>
        <time>2020-02-14T04:20:30.452Z</time>
      </trkpt>
      <trkpt lat="42.60005" lon="1.91294">
        <ele>2236.6</ele>
        <time>2020-02-14T04:20:32.194Z</time>
      </trkpt>
      <trkpt lat="42.60012" lon="1.91282">
        <ele>2237.1</ele>
        <time>2020-02-14T04:20:36.524Z</time>
      </trkpt>
      <trkpt lat="42.60014" lon="1.9128">
        <ele>2237.6</ele>
        <time>2020-02-14T04:20:37.590Z</time>
      </trkpt>
      <trkpt lat="42.6002" lon="1.91269">
        <ele>2239.1</ele>
        <time>2020-02-14T04:20:41.449Z</time>
      </trkpt>
      <trkpt lat="42.60029" lon="1.91258">
        <ele>2240</ele>
        <time>2020-02-14T04:20:46.248Z</time>
      </trkpt>
      <trkpt lat="42.60034" lon="1.91254">
        <ele>2240</ele>
        <time>2020-02-14T04:20:48.378Z</time>
      </trkpt>
      <trkpt lat="42.60037" lon="1.91249">
        <ele>2240.1</ele>
        <time>2020-02-14T04:20:50.232Z</time>
      </trkpt>
      <trkpt lat="42.60046" lon="1.9124">
        <ele>2238.6</ele>
        <time>2020-02-14T04:20:54.647Z</time>
      </trkpt>
      <trkpt lat="42.60054" lon="1.91229">
        <ele>2238.1</ele>
        <time>2020-02-14T04:20:59.246Z</time>
      </trkpt>
      <trkpt lat="42.60059" lon="1.91224">
        <ele>2237.2</ele>
        <time>2020-02-14T04:21:01.519Z</time>
      </trkpt>
      <trkpt lat="42.60065" lon="1.91217">
        <ele>2239.2</ele>
        <time>2020-02-14T04:21:04.753Z</time>
      </trkpt>
      <trkpt lat="42.60069" lon="1.91209">
        <ele>2238.1</ele>
        <time>2020-02-14T04:21:07.384Z</time>
      </trkpt>
      <trkpt lat="42.60071" lon="1.91207">
        <ele>2238.1</ele>
        <time>2020-02-14T04:21:08.412Z</time>
      </trkpt>
      <trkpt lat="42.60069" lon="1.91204">
        <ele>2237.6</ele>
        <time>2020-02-14T04:21:09.357Z</time>
      </trkpt>
      <trkpt lat="42.60068" lon="1.91199">
        <ele>2238.2</ele>
        <time>2020-02-14T04:21:10.799Z</time>
      </trkpt>
      <trkpt lat="42.60068" lon="1.91198">
        <ele>2238.2</ele>
        <time>2020-02-14T04:21:11.283Z</time>
      </trkpt>
      <trkpt lat="42.60073" lon="1.91192">
        <ele>2236.6</ele>
        <time>2020-02-14T04:21:13.833Z</time>
      </trkpt>
      <trkpt lat="42.60075" lon="1.9119">
        <ele>2235.8</ele>
        <time>2020-02-14T04:21:14.690Z</time>
      </trkpt>
      <trkpt lat="42.60079" lon="1.91174">
        <ele>2236.3</ele>
        <time>2020-02-14T04:21:19.473Z</time>
      </trkpt>
      <trkpt lat="42.60082" lon="1.91167">
        <ele>2235.2</ele>
        <time>2020-02-14T04:21:21.816Z</time>
      </trkpt>
      <trkpt lat="42.60088" lon="1.91165">
        <ele>2235.2</ele>
        <time>2020-02-14T04:21:24.228Z</time>
      </trkpt>
      <trkpt lat="42.6009" lon="1.9116">
        <ele>2232.8</ele>
        <time>2020-02-14T04:21:26.040Z</time>
      </trkpt>
      <trkpt lat="42.60095" lon="1.91146">
        <ele>2230.9</ele>
        <time>2020-02-14T04:21:30.524Z</time>
      </trkpt>
      <trkpt lat="42.60098" lon="1.9114">
        <ele>2229.9</ele>
        <time>2020-02-14T04:21:32.683Z</time>
      </trkpt>
      <trkpt lat="42.60101" lon="1.91127">
        <ele>2229.9</ele>
        <time>2020-02-14T04:21:36.394Z</time>
      </trkpt>
      <trkpt lat="42.60102" lon="1.91117">
        <ele>2229.1</ele>
        <time>2020-02-14T04:21:39.326Z</time>
      </trkpt>
      <trkpt lat="42.60102" lon="1.91113">
        <ele>2229.5</ele>
        <time>2020-02-14T04:21:40.639Z</time>
      </trkpt>
      <trkpt lat="42.60105" lon="1.91106">
        <ele>2229</ele>
        <time>2020-02-14T04:21:42.882Z</time>
      </trkpt>
      <trkpt lat="42.60109" lon="1.91092">
        <ele>2229.5</ele>
        <time>2020-02-14T04:21:46.964Z</time>
      </trkpt>
      <trkpt lat="42.6011" lon="1.91088">
        <ele>2228.5</ele>
        <time>2020-02-14T04:21:48.306Z</time>
      </trkpt>
      <trkpt lat="42.60112" lon="1.91086">
        <ele>2229</ele>
        <time>2020-02-14T04:21:49.377Z</time>
      </trkpt>
      <trkpt lat="42.60128" lon="1.91086">
        <ele>2229.5</ele>
        <time>2020-02-14T04:21:55.481Z</time>
      </trkpt>
      <trkpt lat="42.60132" lon="1.91087">
        <ele>2233.4</ele>
        <time>2020-02-14T04:21:57.665Z</time>
      </trkpt>
      <trkpt lat="42.60132" lon="1.91087">
        <ele>2226.6</ele>
        <time>2020-02-14T04:22:00.004Z</time>
      </trkpt>
      <trkpt lat="42.60132" lon="1.91087">
        <ele>2229.9</ele>
        <time>2020-02-14T04:22:01.148Z</time>
      </trkpt>
      <trkpt lat="42.60132" lon="1.91087">
        <ele>2227</ele>
        <time>2020-02-14T04:22:02.160Z</time>
      </trkpt>
      <trkpt lat="42.60132" lon="1.91087">
        <ele>2230.4</ele>
        <time>2020-02-14T04:22:03.348Z</time>
      </trkpt>
      <trkpt lat="42.60132" lon="1.91087">
        <ele>2242.4</ele>
        <time>2020-02-14T04:22:07.517Z</time>
      </trkpt>
      <trkpt lat="42.60132" lon="1.91087">
        <ele>2225.7</ele>
        <time>2020-02-14T04:22:13.342Z</time>
      </trkpt>
      <trkpt lat="42.60132" lon="1.91087">
        <ele>2230</ele>
        <time>2020-02-14T04:22:14.842Z</time>
      </trkpt>
      <trkpt lat="42.60132" lon="1.91087">
        <ele>2216.9</ele>
        <time>2020-02-14T04:22:19.376Z</time>
      </trkpt>
      <trkpt lat="42.60132" lon="1.91087">
        <ele>2228.1</ele>
        <time>2020-02-14T04:22:23.256Z</time>
      </trkpt>
      <trkpt lat="42.60132" lon="1.91087">
        <ele>2219</ele>
        <time>2020-02-14T04:22:26.416Z</time>
      </trkpt>
      <trkpt lat="42.60132" lon="1.91087">
        <ele>2229</ele>
        <time>2020-02-14T04:22:29.907Z</time>
      </trkpt>
      <trkpt lat="42.60132" lon="1.91087">
        <ele>2228.5</ele>
        <time>2020-02-14T04:22:30.087Z</time>
      </trkpt>
      <trkpt lat="42.60132" lon="1.91087">
        <ele>2224.2</ele>
        <time>2020-02-14T04:22:31.583Z</time>
      </trkpt>
      <trkpt lat="42.60132" lon="1.91087">
        <ele>2241.9</ele>
        <time>2020-02-14T04:22:37.724Z</time>
      </trkpt>
      <trkpt lat="42.60132" lon="1.91087">
        <ele>2233.8</ele>
        <time>2020-02-14T04:22:40.526Z</time>
      </trkpt>
      <trkpt lat="42.60132" lon="1.91087">
        <ele>2225.7</ele>
        <time>2020-02-14T04:22:43.357Z</time>
      </trkpt>
      <trkpt lat="42.60132" lon="1.91087">
        <ele>2229.9</ele>
        <time>2020-02-14T04:22:44.833Z</time>
      </trkpt>
      <trkpt lat="42.60132" lon="1.91087">
        <ele>2235.2</ele>
        <time>2020-02-14T04:22:46.671Z</time>
      </trkpt>
      <trkpt lat="42.60132" lon="1.91087">
        <ele>2230</ele>
        <time>2020-02-14T04:22:48.497Z</time>
      </trkpt>
      <trkpt lat="42.60131" lon="1.91087">
        <ele>2221.7</ele>
        <time>2020-02-14T04:22:51.391Z</time>
      </trkpt>
      <trkpt lat="42.60131" lon="1.91087">
        <ele>2230.4</ele>
        <time>2020-02-14T04:22:54.414Z</time>
      </trkpt>
      <trkpt lat="42.60131" lon="1.91087">
        <ele>2232.9</ele>
        <time>2020-02-14T04:22:55.283Z</time>
      </trkpt>
      <trkpt lat="42.60131" lon="1.91087">
        <ele>2236.6</ele>
        <time>2020-02-14T04:22:56.583Z</time>
      </trkpt>
      <trkpt lat="42.60131" lon="1.91087">
        <ele>2231.4</ele>
        <time>2020-02-14T04:22:58.381Z</time>
      </trkpt>
      <trkpt lat="42.60131" lon="1.91087">
        <ele>2230.4</ele>
        <time>2020-02-14T04:22:58.732Z</time>
      </trkpt>
      <trkpt lat="42.60131" lon="1.91087">
        <ele>2231.9</ele>
        <time>2020-02-14T04:22:59.242Z</time>
      </trkpt>
      <trkpt lat="42.60131" lon="1.91087">
        <ele>2229</ele>
        <time>2020-02-14T04:23:00.236Z</time>
      </trkpt>
      <trkpt lat="42.60131" lon="1.91087">
        <ele>2229.1</ele>
        <time>2020-02-14T04:23:00.261Z</time>
      </trkpt>
      <trkpt lat="42.60135" lon="1.91081">
        <ele>2229.4</ele>
        <time>2020-02-14T04:23:02.568Z</time>
      </trkpt>
      <trkpt lat="42.6013" lon="1.91086">
        <ele>2228.6</ele>
        <time>2020-02-14T04:23:04.998Z</time>
      </trkpt>
      <trkpt lat="42.6012" lon="1.9108">
        <ele>2228.5</ele>
        <time>2020-02-14T04:23:09.299Z</time>
      </trkpt>
      <trkpt lat="42.60112" lon="1.91078">
        <ele>2228.6</ele>
        <time>2020-02-14T04:23:12.360Z</time>
      </trkpt>
      <trkpt lat="42.60109" lon="1.91077">
        <ele>2229.1</ele>
        <time>2020-02-14T04:23:13.713Z</time>
      </trkpt>
      <trkpt lat="42.60106" lon="1.91062">
        <ele>2229.5</ele>
        <time>2020-02-14T04:23:18.049Z</time>
      </trkpt>
      <trkpt lat="42.60109" lon="1.9105">
        <ele>2229.4</ele>
        <time>2020-02-14T04:23:21.673Z</time>
      </trkpt>
      <trkpt lat="42.60111" lon="1.91044">
        <ele>2229.4</ele>
        <time>2020-02-14T04:23:23.382Z</time>
      </trkpt>
      <trkpt lat="42.60118" lon="1.91026">
        <ele>2230</ele>
        <time>2020-02-14T04:23:29.125Z</time>
      </trkpt>
      <trkpt lat="42.60121" lon="1.91011">
        <ele>2229.9</ele>
        <time>2020-02-14T04:23:33.564Z</time>
      </trkpt>
      <trkpt lat="42.60123" lon="1.90997">
        <ele>2230.5</ele>
        <time>2020-02-14T04:23:37.687Z</time>
      </trkpt>
      <trkpt lat="42.60126" lon="1.90982">
        <ele>2230</ele>
        <time>2020-02-14T04:23:42.082Z</time>
      </trkpt>
      <trkpt lat="42.6013" lon="1.90978">
        <ele>2230</ele>
        <time>2020-02-14T04:23:44.174Z</time>
      </trkpt>
      <trkpt lat="42.60139" lon="1.90965">
        <ele>2230.9</ele>
        <time>2020-02-14T04:23:49.194Z</time>
      </trkpt>
      <trkpt lat="42.60146" lon="1.90957">
        <ele>2233.8</ele>
        <time>2020-02-14T04:23:52.884Z</time>
      </trkpt>
      <trkpt lat="42.6015" lon="1.90954">
        <ele>2234.7</ele>
        <time>2020-02-14T04:23:54.635Z</time>
      </trkpt>
      <trkpt lat="42.60153" lon="1.90947">
        <ele>2235.7</ele>
        <time>2020-02-14T04:23:57.086Z</time>
      </trkpt>
      <trkpt lat="42.6016" lon="1.90934">
        <ele>2236.6</ele>
        <time>2020-02-14T04:24:01.839Z</time>
      </trkpt>
      <trkpt lat="42.60163" lon="1.90925">
        <ele>2237.1</ele>
        <time>2020-02-14T04:24:04.527Z</time>
      </trkpt>
      <trkpt lat="42.60165" lon="1.90921">
        <ele>2237.1</ele>
        <time>2020-02-14T04:24:05.878Z</time>
      </trkpt>
      <trkpt lat="42.60166" lon="1.90918">
        <ele>2237.7</ele>
        <time>2020-02-14T04:24:06.732Z</time>
      </trkpt>
      <trkpt lat="42.60172" lon="1.9091">
        <ele>2238.7</ele>
        <time>2020-02-14T04:24:09.993Z</time>
      </trkpt>
      <trkpt lat="42.60173" lon="1.90908">
        <ele>2238.7</ele>
        <time>2020-02-14T04:24:10.701Z</time>
      </trkpt>
      <trkpt lat="42.60175" lon="1.90901">
        <ele>2239.1</ele>
        <time>2020-02-14T04:24:12.724Z</time>
      </trkpt>
      <trkpt lat="42.60183" lon="1.90884">
        <ele>2239.2</ele>
        <time>2020-02-14T04:24:18.731Z</time>
      </trkpt>
      <trkpt lat="42.60187" lon="1.90881">
        <ele>2239.1</ele>
        <time>2020-02-14T04:24:20.463Z</time>
      </trkpt>
      <trkpt lat="42.6019" lon="1.9088">
        <ele>2239.5</ele>
        <time>2020-02-14T04:24:21.559Z</time>
      </trkpt>
      <trkpt lat="42.60202" lon="1.90871">
        <ele>2240.6</ele>
        <time>2020-02-14T04:24:26.633Z</time>
      </trkpt>
      <trkpt lat="42.60205" lon="1.90868">
        <ele>2240.5</ele>
        <time>2020-02-14T04:24:28.298Z</time>
      </trkpt>
      <trkpt lat="42.60216" lon="1.90864">
        <ele>2241</ele>
        <time>2020-02-14T04:24:32.496Z</time>
      </trkpt>
      <trkpt lat="42.60218" lon="1.90862">
        <ele>2240.6</ele>
        <time>2020-02-14T04:24:33.521Z</time>
      </trkpt>
      <trkpt lat="42.6022" lon="1.90859">
        <ele>2241.6</ele>
        <time>2020-02-14T04:24:34.732Z</time>
      </trkpt>
      <trkpt lat="42.60227" lon="1.90851">
        <ele>2241.6</ele>
        <time>2020-02-14T04:24:38.365Z</time>
      </trkpt>
      <trkpt lat="42.60232" lon="1.90842">
        <ele>2242.4</ele>
        <time>2020-02-14T04:24:41.515Z</time>
      </trkpt>
      <trkpt lat="42.60242" lon="1.90838">
        <ele>2243.5</ele>
        <time>2020-02-14T04:24:45.442Z</time>
      </trkpt>
      <trkpt lat="42.60247" lon="1.90833">
        <ele>2243.5</ele>
        <time>2020-02-14T04:24:47.843Z</time>
      </trkpt>
      <trkpt lat="42.60254" lon="1.90829">
        <ele>2243.4</ele>
        <time>2020-02-14T04:24:51.031Z</time>
      </trkpt>
      <trkpt lat="42.60261" lon="1.90825">
        <ele>2243.4</ele>
        <time>2020-02-14T04:24:53.692Z</time>
      </trkpt>
      <trkpt lat="42.60263" lon="1.9082">
        <ele>2244</ele>
        <time>2020-02-14T04:24:55.359Z</time>
      </trkpt>
      <trkpt lat="42.60275" lon="1.90812">
        <ele>2243.9</ele>
        <time>2020-02-14T04:25:00.624Z</time>
      </trkpt>
      <trkpt lat="42.60276" lon="1.90812">
        <ele>2243.9</ele>
        <time>2020-02-14T04:25:01.023Z</time>
      </trkpt>
      <trkpt lat="42.60287" lon="1.90811">
        <ele>2245.4</ele>
        <time>2020-02-14T04:25:05.228Z</time>
      </trkpt>
      <trkpt lat="42.60296" lon="1.90804">
        <ele>2246.3</ele>
        <time>2020-02-14T04:25:09.408Z</time>
      </trkpt>
      <trkpt lat="42.60299" lon="1.90803">
        <ele>2246.7</ele>
        <time>2020-02-14T04:25:10.488Z</time>
      </trkpt>
      <trkpt lat="42.60301" lon="1.90799">
        <ele>2246.8</ele>
        <time>2020-02-14T04:25:11.875Z</time>
      </trkpt>
      <trkpt lat="42.60302" lon="1.90793">
        <ele>2246.8</ele>
        <time>2020-02-14T04:25:13.533Z</time>
      </trkpt>
      <trkpt lat="42.60303" lon="1.90791">
        <ele>2246.7</ele>
        <time>2020-02-14T04:25:14.345Z</time>
      </trkpt>
      <trkpt lat="42.60312" lon="1.90787">
        <ele>2247.2</ele>
        <time>2020-02-14T04:25:17.860Z</time>
      </trkpt>
      <trkpt lat="42.60319" lon="1.90778">
        <ele>2247.2</ele>
        <time>2020-02-14T04:25:21.449Z</time>
      </trkpt>
      <trkpt lat="42.60327" lon="1.90773">
        <ele>2249.2</ele>
        <time>2020-02-14T04:25:25.115Z</time>
      </trkpt>
      <trkpt lat="42.60331" lon="1.90768">
        <ele>2249.6</ele>
        <time>2020-02-14T04:25:27.259Z</time>
      </trkpt>
      <trkpt lat="42.60335" lon="1.90767">
        <ele>2249.6</ele>
        <time>2020-02-14T04:25:28.793Z</time>
      </trkpt>
      <trkpt lat="42.60338" lon="1.90765">
        <ele>2250.1</ele>
        <time>2020-02-14T04:25:30.125Z</time>
      </trkpt>
      <trkpt lat="42.60347" lon="1.90757">
        <ele>2250.2</ele>
        <time>2020-02-14T04:25:34.325Z</time>
      </trkpt>
      <trkpt lat="42.60355" lon="1.90752">
        <ele>2251.6</ele>
        <time>2020-02-14T04:25:37.653Z</time>
      </trkpt>
      <trkpt lat="42.60362" lon="1.90743">
        <ele>2252.1</ele>
        <time>2020-02-14T04:25:41.384Z</time>
      </trkpt>
      <trkpt lat="42.60363" lon="1.90742">
        <ele>2251.6</ele>
        <time>2020-02-14T04:25:41.748Z</time>
      </trkpt>
      <trkpt lat="42.60369" lon="1.90736">
        <ele>2253</ele>
        <time>2020-02-14T04:25:44.700Z</time>
      </trkpt>
      <trkpt lat="42.60382" lon="1.90734">
        <ele>2254.4</ele>
        <time>2020-02-14T04:25:49.659Z</time>
      </trkpt>
      <trkpt lat="42.60386" lon="1.90732">
        <ele>2254.9</ele>
        <time>2020-02-14T04:25:51.458Z</time>
      </trkpt>
      <trkpt lat="42.6039" lon="1.90729">
        <ele>2254.9</ele>
        <time>2020-02-14T04:25:53.208Z</time>
      </trkpt>
      <trkpt lat="42.60396" lon="1.90728">
        <ele>2254.9</ele>
        <time>2020-02-14T04:25:55.598Z</time>
      </trkpt>
      <trkpt lat="42.604" lon="1.90727">
        <ele>2255.4</ele>
        <time>2020-02-14T04:25:57.197Z</time>
      </trkpt>
      <trkpt lat="42.60407" lon="1.90728">
        <ele>2255.4</ele>
        <time>2020-02-14T04:25:59.874Z</time>
      </trkpt>
      <trkpt lat="42.60413" lon="1.90729">
        <ele>2256.9</ele>
        <time>2020-02-14T04:26:02.140Z</time>
      </trkpt>
      <trkpt lat="42.60422" lon="1.90726">
        <ele>2259.3</ele>
        <time>2020-02-14T04:26:05.910Z</time>
      </trkpt>
      <trkpt lat="42.60432" lon="1.90727">
        <ele>2261.2</ele>
        <time>2020-02-14T04:26:10.033Z</time>
      </trkpt>
      <trkpt lat="42.60437" lon="1.90727">
        <ele>2262.6</ele>
        <time>2020-02-14T04:26:11.958Z</time>
      </trkpt>
      <trkpt lat="42.60445" lon="1.90729">
        <ele>2264.1</ele>
        <time>2020-02-14T04:26:15.084Z</time>
      </trkpt>
      <trkpt lat="42.60455" lon="1.90727">
        <ele>2265.5</ele>
        <time>2020-02-14T04:26:19.003Z</time>
      </trkpt>
      <trkpt lat="42.60465" lon="1.90721">
        <ele>2267.5</ele>
        <time>2020-02-14T04:26:23.444Z</time>
      </trkpt>
      <trkpt lat="42.60469" lon="1.90714">
        <ele>2269.8</ele>
        <time>2020-02-14T04:26:26.022Z</time>
      </trkpt>
      <trkpt lat="42.60475" lon="1.90711">
        <ele>2271.7</ele>
        <time>2020-02-14T04:26:28.470Z</time>
      </trkpt>
      <trkpt lat="42.60481" lon="1.90706">
        <ele>2273.7</ele>
        <time>2020-02-14T04:26:31.334Z</time>
      </trkpt>
      <trkpt lat="42.60489" lon="1.907">
        <ele>2275.1</ele>
        <time>2020-02-14T04:26:34.827Z</time>
      </trkpt>
      <trkpt lat="42.60494" lon="1.90699">
        <ele>2276.1</ele>
        <time>2020-02-14T04:26:36.871Z</time>
      </trkpt>
      <trkpt lat="42.605" lon="1.90695">
        <ele>2279.5</ele>
        <time>2020-02-14T04:26:39.709Z</time>
      </trkpt>
      <trkpt lat="42.60509" lon="1.90693">
        <ele>2280.9</ele>
        <time>2020-02-14T04:26:43.405Z</time>
      </trkpt>
      <trkpt lat="42.60519" lon="1.90686">
        <ele>2282.9</ele>
        <time>2020-02-14T04:26:47.790Z</time>
      </trkpt>
      <trkpt lat="42.6053" lon="1.90681">
        <ele>2284.3</ele>
        <time>2020-02-14T04:26:52.021Z</time>
      </trkpt>
      <trkpt lat="42.6053" lon="1.90675">
        <ele>2285.7</ele>
        <time>2020-02-14T04:26:54.013Z</time>
      </trkpt>
      <trkpt lat="42.60533" lon="1.90673">
        <ele>2287.2</ele>
        <time>2020-02-14T04:26:55.131Z</time>
      </trkpt>
      <trkpt lat="42.6054" lon="1.9067">
        <ele>2288.1</ele>
        <time>2020-02-14T04:26:57.964Z</time>
      </trkpt>
      <trkpt lat="42.60544" lon="1.90666">
        <ele>2289.5</ele>
        <time>2020-02-14T04:27:00.108Z</time>
      </trkpt>
      <trkpt lat="42.60552" lon="1.90667">
        <ele>2291.4</ele>
        <time>2020-02-14T04:27:03.123Z</time>
      </trkpt>
      <trkpt lat="42.6056" lon="1.9066">
        <ele>2293.9</ele>
        <time>2020-02-14T04:27:06.850Z</time>
      </trkpt>
      <trkpt lat="42.60558" lon="1.90654">
        <ele>2295.8</ele>
        <time>2020-02-14T04:27:08.921Z</time>
      </trkpt>
      <trkpt lat="42.60557" lon="1.90652">
        <ele>2295.9</ele>
        <time>2020-02-14T04:27:09.563Z</time>
      </trkpt>
      <trkpt lat="42.60554" lon="1.90646">
        <ele>2298.3</ele>
        <time>2020-02-14T04:27:11.852Z</time>
      </trkpt>
      <trkpt lat="42.60548" lon="1.90636">
        <ele>2300.7</ele>
        <time>2020-02-14T04:27:15.251Z</time>
      </trkpt>
      <trkpt lat="42.60546" lon="1.90632">
        <ele>2301.6</ele>
        <time>2020-02-14T04:27:16.774Z</time>
      </trkpt>
      <trkpt lat="42.60541" lon="1.90622">
        <ele>2303</ele>
        <time>2020-02-14T04:27:20.223Z</time>
      </trkpt>
      <trkpt lat="42.60539" lon="1.90612">
        <ele>2305</ele>
        <time>2020-02-14T04:27:23.429Z</time>
      </trkpt>
      <trkpt lat="42.60544" lon="1.90611">
        <ele>2307.3</ele>
        <time>2020-02-14T04:27:25.467Z</time>
      </trkpt>
      <trkpt lat="42.6055" lon="1.90609">
        <ele>2308.7</ele>
        <time>2020-02-14T04:27:27.917Z</time>
      </trkpt>
      <trkpt lat="42.60564" lon="1.90607">
        <ele>2310.2</ele>
        <time>2020-02-14T04:27:33.373Z</time>
      </trkpt>
      <trkpt lat="42.60571" lon="1.90607">
        <ele>2311.6</ele>
        <time>2020-02-14T04:27:36.123Z</time>
      </trkpt>
      <trkpt lat="42.60576" lon="1.90606">
        <ele>2312.7</ele>
        <time>2020-02-14T04:27:38.286Z</time>
      </trkpt>
      <trkpt lat="42.60582" lon="1.90608">
        <ele>2314.5</ele>
        <time>2020-02-14T04:27:40.808Z</time>
      </trkpt>
      <trkpt lat="42.60593" lon="1.90613">
        <ele>2315.6</ele>
        <time>2020-02-14T04:27:45.263Z</time>
      </trkpt>
      <trkpt lat="42.60602" lon="1.90615">
        <ele>2317.5</ele>
        <time>2020-02-14T04:27:48.652Z</time>
      </trkpt>
      <trkpt lat="42.6061" lon="1.90617">
        <ele>2319.9</ele>
        <time>2020-02-14T04:27:52.169Z</time>
      </trkpt>
      <trkpt lat="42.60619" lon="1.90612">
        <ele>2321.7</ele>
        <time>2020-02-14T04:27:55.839Z</time>
      </trkpt>
      <trkpt lat="42.60623" lon="1.90614">
        <ele>2320.4</ele>
        <time>2020-02-14T04:27:57.493Z</time>
      </trkpt>
      <trkpt lat="42.60626" lon="1.90615">
        <ele>2320.4</ele>
        <time>2020-02-14T04:27:58.763Z</time>
      </trkpt>
      <trkpt lat="42.60629" lon="1.90615">
        <ele>2323.6</ele>
        <time>2020-02-14T04:28:00.301Z</time>
      </trkpt>
      <trkpt lat="42.6064" lon="1.90618">
        <ele>2324.6</ele>
        <time>2020-02-14T04:28:04.764Z</time>
      </trkpt>
      <trkpt lat="42.60645" lon="1.90627">
        <ele>2325.7</ele>
        <time>2020-02-14T04:28:07.989Z</time>
      </trkpt>
      <trkpt lat="42.60653" lon="1.90635">
        <ele>2328.9</ele>
        <time>2020-02-14T04:28:11.852Z</time>
      </trkpt>
      <trkpt lat="42.60657" lon="1.90637">
        <ele>2331.4</ele>
        <time>2020-02-14T04:28:13.821Z</time>
      </trkpt>
      <trkpt lat="42.60662" lon="1.90642">
        <ele>2333.8</ele>
        <time>2020-02-14T04:28:16.170Z</time>
      </trkpt>
      <trkpt lat="42.60668" lon="1.90642">
        <ele>2336.1</ele>
        <time>2020-02-14T04:28:18.633Z</time>
      </trkpt>
      <trkpt lat="42.60674" lon="1.90638">
        <ele>2338.6</ele>
        <time>2020-02-14T04:28:21.595Z</time>
      </trkpt>
      <trkpt lat="42.60681" lon="1.90633">
        <ele>2341.4</ele>
        <time>2020-02-14T04:28:24.831Z</time>
      </trkpt>
      <trkpt lat="42.60684" lon="1.90628">
        <ele>2344.4</ele>
        <time>2020-02-14T04:28:26.878Z</time>
      </trkpt>
      <trkpt lat="42.60689" lon="1.90617">
        <ele>2347.2</ele>
        <time>2020-02-14T04:28:30.713Z</time>
      </trkpt>
      <trkpt lat="42.60689" lon="1.90614">
        <ele>2348.2</ele>
        <time>2020-02-14T04:28:31.551Z</time>
      </trkpt>
      <trkpt lat="42.60693" lon="1.90606">
        <ele>2349.6</ele>
        <time>2020-02-14T04:28:34.188Z</time>
      </trkpt>
      <trkpt lat="42.60696" lon="1.90594">
        <ele>2351.5</ele>
        <time>2020-02-14T04:28:38.008Z</time>
      </trkpt>
      <trkpt lat="42.60697" lon="1.90589">
        <ele>2353</ele>
        <time>2020-02-14T04:28:39.439Z</time>
      </trkpt>
      <trkpt lat="42.60696" lon="1.90577">
        <ele>2353.5</ele>
        <time>2020-02-14T04:28:43.098Z</time>
      </trkpt>
      <trkpt lat="42.60701" lon="1.90563">
        <ele>2354.4</ele>
        <time>2020-02-14T04:28:47.517Z</time>
      </trkpt>
      <trkpt lat="42.60703" lon="1.90558">
        <ele>2354.4</ele>
        <time>2020-02-14T04:28:49.170Z</time>
      </trkpt>
      <trkpt lat="42.60705" lon="1.90545">
        <ele>2359.3</ele>
        <time>2020-02-14T04:28:53.286Z</time>
      </trkpt>
      <trkpt lat="42.60705" lon="1.90544">
        <ele>2356</ele>
        <time>2020-02-14T04:28:54.444Z</time>
      </trkpt>
      <trkpt lat="42.60705" lon="1.90543">
        <ele>2353.1</ele>
        <time>2020-02-14T04:28:55.523Z</time>
      </trkpt>
      <trkpt lat="42.60706" lon="1.9054">
        <ele>2356.4</ele>
        <time>2020-02-14T04:28:56.902Z</time>
      </trkpt>
      <trkpt lat="42.60708" lon="1.90531">
        <ele>2360.7</ele>
        <time>2020-02-14T04:29:00.036Z</time>
      </trkpt>
      <trkpt lat="42.60708" lon="1.9053">
        <ele>2357.3</ele>
        <time>2020-02-14T04:29:01.255Z</time>
      </trkpt>
      <trkpt lat="42.60709" lon="1.90528">
        <ele>2357.4</ele>
        <time>2020-02-14T04:29:01.963Z</time>
      </trkpt>
      <trkpt lat="42.60713" lon="1.90521">
        <ele>2358.7</ele>
        <time>2020-02-14T04:29:04.593Z</time>
      </trkpt>
      <trkpt lat="42.60715" lon="1.90518">
        <ele>2358.8</ele>
        <time>2020-02-14T04:29:05.602Z</time>
      </trkpt>
      <trkpt lat="42.60721" lon="1.90515">
        <ele>2360.2</ele>
        <time>2020-02-14T04:29:08.203Z</time>
      </trkpt>
      <trkpt lat="42.60728" lon="1.90514">
        <ele>2361.7</ele>
        <time>2020-02-14T04:29:10.698Z</time>
      </trkpt>
      <trkpt lat="42.60733" lon="1.90512">
        <ele>2362.6</ele>
        <time>2020-02-14T04:29:12.931Z</time>
      </trkpt>
      <trkpt lat="42.60738" lon="1.90509">
        <ele>2364.1</ele>
        <time>2020-02-14T04:29:15.101Z</time>
      </trkpt>
      <trkpt lat="42.60746" lon="1.90509">
        <ele>2365.9</ele>
        <time>2020-02-14T04:29:18.370Z</time>
      </trkpt>
      <trkpt lat="42.60748" lon="1.9051">
        <ele>2366.9</ele>
        <time>2020-02-14T04:29:19.007Z</time>
      </trkpt>
      <trkpt lat="42.60754" lon="1.90515">
        <ele>2368.4</ele>
        <time>2020-02-14T04:29:21.758Z</time>
      </trkpt>
      <trkpt lat="42.60762" lon="1.90519">
        <ele>2370.8</ele>
        <time>2020-02-14T04:29:25.097Z</time>
      </trkpt>
      <trkpt lat="42.60766" lon="1.90515">
        <ele>2372.7</ele>
        <time>2020-02-14T04:29:27.340Z</time>
      </trkpt>
      <trkpt lat="42.60769" lon="1.90513">
        <ele>2372.8</ele>
        <time>2020-02-14T04:29:28.650Z</time>
      </trkpt>
      <trkpt lat="42.60773" lon="1.90502">
        <ele>2374.2</ele>
        <time>2020-02-14T04:29:32.108Z</time>
      </trkpt>
      <trkpt lat="42.60775" lon="1.9049">
        <ele>2375.2</ele>
        <time>2020-02-14T04:29:35.727Z</time>
      </trkpt>
      <trkpt lat="42.60779" lon="1.90481">
        <ele>2377</ele>
        <time>2020-02-14T04:29:38.724Z</time>
      </trkpt>
      <trkpt lat="42.60781" lon="1.9048">
        <ele>2377.1</ele>
        <time>2020-02-14T04:29:39.524Z</time>
      </trkpt>
      <trkpt lat="42.60786" lon="1.90472">
        <ele>2377.6</ele>
        <time>2020-02-14T04:29:42.374Z</time>
      </trkpt>
      <trkpt lat="42.60794" lon="1.90462">
        <ele>2378.5</ele>
        <time>2020-02-14T04:29:46.839Z</time>
      </trkpt>
      <trkpt lat="42.60802" lon="1.90456">
        <ele>2380</ele>
        <time>2020-02-14T04:29:50.205Z</time>
      </trkpt>
      <trkpt lat="42.60806" lon="1.90453">
        <ele>2380.4</ele>
        <time>2020-02-14T04:29:51.933Z</time>
      </trkpt>
      <trkpt lat="42.60814" lon="1.90451">
        <ele>2381.8</ele>
        <time>2020-02-14T04:29:55.143Z</time>
      </trkpt>
      <trkpt lat="42.60825" lon="1.90451">
        <ele>2382.8</ele>
        <time>2020-02-14T04:29:59.489Z</time>
      </trkpt>
      <trkpt lat="42.60835" lon="1.90452">
        <ele>2383.8</ele>
        <time>2020-02-14T04:30:03.519Z</time>
      </trkpt>
      <trkpt lat="42.60841" lon="1.90451">
        <ele>2384.8</ele>
        <time>2020-02-14T04:30:05.750Z</time>
      </trkpt>
      <trkpt lat="42.60841" lon="1.90447">
        <ele>2384.8</ele>
        <time>2020-02-14T04:30:07.034Z</time>
      </trkpt>
      <trkpt lat="42.60845" lon="1.90435">
        <ele>2384.8</ele>
        <time>2020-02-14T04:30:10.676Z</time>
      </trkpt>
      <trkpt lat="42.60851" lon="1.90423">
        <ele>2386.1</ele>
        <time>2020-02-14T04:30:14.941Z</time>
      </trkpt>
      <trkpt lat="42.60858" lon="1.90414">
        <ele>2387.1</ele>
        <time>2020-02-14T04:30:18.504Z</time>
      </trkpt>
      <trkpt lat="42.60868" lon="1.90404">
        <ele>2388.1</ele>
        <time>2020-02-14T04:30:23.281Z</time>
      </trkpt>
      <trkpt lat="42.6087" lon="1.90399">
        <ele>2388.2</ele>
        <time>2020-02-14T04:30:25.003Z</time>
      </trkpt>
      <trkpt lat="42.60875" lon="1.90385">
        <ele>2388.1</ele>
        <time>2020-02-14T04:30:29.321Z</time>
      </trkpt>
      <trkpt lat="42.60888" lon="1.90376">
        <ele>2388.1</ele>
        <time>2020-02-14T04:30:35.065Z</time>
      </trkpt>
      <trkpt lat="42.60888" lon="1.90375">
        <ele>2388.6</ele>
        <time>2020-02-14T04:30:35.466Z</time>
      </trkpt>
      <trkpt lat="42.6089" lon="1.90369">
        <ele>2389.1</ele>
        <time>2020-02-14T04:30:37.255Z</time>
      </trkpt>
      <trkpt lat="42.60897" lon="1.9036">
        <ele>2390.6</ele>
        <time>2020-02-14T04:30:41.108Z</time>
      </trkpt>
      <trkpt lat="42.60901" lon="1.90353">
        <ele>2391.5</ele>
        <time>2020-02-14T04:30:43.372Z</time>
      </trkpt>
      <trkpt lat="42.60904" lon="1.90344">
        <ele>2393.3</ele>
        <time>2020-02-14T04:30:46.305Z</time>
      </trkpt>
      <trkpt lat="42.60905" lon="1.90342">
        <ele>2393.4</ele>
        <time>2020-02-14T04:30:47.154Z</time>
      </trkpt>
      <trkpt lat="42.60908" lon="1.90327">
        <ele>2394.9</ele>
        <time>2020-02-14T04:30:51.509Z</time>
      </trkpt>
      <trkpt lat="42.60913" lon="1.90319">
        <ele>2396.2</ele>
        <time>2020-02-14T04:30:54.446Z</time>
      </trkpt>
      <trkpt lat="42.60915" lon="1.90314">
        <ele>2397.8</ele>
        <time>2020-02-14T04:30:56.370Z</time>
      </trkpt>
      <trkpt lat="42.60921" lon="1.90315">
        <ele>2400.6</ele>
        <time>2020-02-14T04:30:58.913Z</time>
      </trkpt>
      <trkpt lat="42.60925" lon="1.90312">
        <ele>2403</ele>
        <time>2020-02-14T04:31:00.926Z</time>
      </trkpt>
      <trkpt lat="42.60928" lon="1.90312">
        <ele>2403.5</ele>
        <time>2020-02-14T04:31:01.866Z</time>
      </trkpt>
      <trkpt lat="42.60935" lon="1.90304">
        <ele>2404.9</ele>
        <time>2020-02-14T04:31:05.727Z</time>
      </trkpt>
      <trkpt lat="42.60941" lon="1.90303">
        <ele>2406.3</ele>
        <time>2020-02-14T04:31:08.059Z</time>
      </trkpt>
      <trkpt lat="42.60946" lon="1.90304">
        <ele>2407.9</ele>
        <time>2020-02-14T04:31:09.958Z</time>
      </trkpt>
      <trkpt lat="42.60949" lon="1.90307">
        <ele>2411.1</ele>
        <time>2020-02-14T04:31:11.845Z</time>
      </trkpt>
      <trkpt lat="42.60949" lon="1.90307">
        <ele>2412.7</ele>
        <time>2020-02-14T04:31:12.439Z</time>
      </trkpt>
      <trkpt lat="42.60957" lon="1.90312">
        <ele>2413.2</ele>
        <time>2020-02-14T04:31:15.922Z</time>
      </trkpt>
      <trkpt lat="42.60963" lon="1.90313">
        <ele>2414.5</ele>
        <time>2020-02-14T04:31:18.317Z</time>
      </trkpt>
      <trkpt lat="42.60963" lon="1.90313">
        <ele>2414.6</ele>
        <time>2020-02-14T04:31:18.344Z</time>
      </trkpt>
      <trkpt lat="42.60967" lon="1.90309">
        <ele>2416.9</ele>
        <time>2020-02-14T04:31:20.268Z</time>
      </trkpt>
      <trkpt lat="42.60967" lon="1.90309">
        <ele>2417.4</ele>
        <time>2020-02-14T04:31:20.438Z</time>
      </trkpt>
      <trkpt lat="42.60975" lon="1.90302">
        <ele>2419.3</ele>
        <time>2020-02-14T04:31:24.186Z</time>
      </trkpt>
      <trkpt lat="42.60983" lon="1.90295">
        <ele>2421.2</ele>
        <time>2020-02-14T04:31:27.959Z</time>
      </trkpt>
      <trkpt lat="42.60988" lon="1.9029">
        <ele>2421.8</ele>
        <time>2020-02-14T04:31:30.167Z</time>
      </trkpt>
      <trkpt lat="42.60997" lon="1.90283">
        <ele>2423.1</ele>
        <time>2020-02-14T04:31:34.201Z</time>
      </trkpt>
      <trkpt lat="42.61002" lon="1.90278">
        <ele>2423.7</ele>
        <time>2020-02-14T04:31:36.690Z</time>
      </trkpt>
      <trkpt lat="42.61006" lon="1.90268">
        <ele>2424.2</ele>
        <time>2020-02-14T04:31:39.950Z</time>
      </trkpt>
      <trkpt lat="42.61007" lon="1.90259">
        <ele>2425.5</ele>
        <time>2020-02-14T04:31:42.656Z</time>
      </trkpt>
      <trkpt lat="42.61008" lon="1.90258">
        <ele>2425.5</ele>
        <time>2020-02-14T04:31:43.025Z</time>
      </trkpt>
      <trkpt lat="42.61012" lon="1.90251">
        <ele>2426.1</ele>
        <time>2020-02-14T04:31:45.424Z</time>
      </trkpt>
      <trkpt lat="42.61016" lon="1.90238">
        <ele>2427.5</ele>
        <time>2020-02-14T04:31:49.507Z</time>
      </trkpt>
      <trkpt lat="42.61019" lon="1.90228">
        <ele>2429.4</ele>
        <time>2020-02-14T04:31:52.810Z</time>
      </trkpt>
      <trkpt lat="42.61021" lon="1.90225">
        <ele>2430.9</ele>
        <time>2020-02-14T04:31:53.982Z</time>
      </trkpt>
      <trkpt lat="42.61023" lon="1.90213">
        <ele>2430.8</ele>
        <time>2020-02-14T04:31:57.346Z</time>
      </trkpt>
      <trkpt lat="42.61028" lon="1.90202">
        <ele>2431.9</ele>
        <time>2020-02-14T04:32:01.096Z</time>
      </trkpt>
      <trkpt lat="42.61029" lon="1.90196">
        <ele>2432.9</ele>
        <time>2020-02-14T04:32:02.697Z</time>
      </trkpt>
      <trkpt lat="42.61034" lon="1.90191">
        <ele>2434.8</ele>
        <time>2020-02-14T04:32:05.305Z</time>
      </trkpt>
      <trkpt lat="42.6104" lon="1.90188">
        <ele>2436.2</ele>
        <time>2020-02-14T04:32:07.747Z</time>
      </trkpt>
      <trkpt lat="42.61045" lon="1.90184">
        <ele>2438</ele>
        <time>2020-02-14T04:32:10.067Z</time>
      </trkpt>
      <trkpt lat="42.61051" lon="1.90178">
        <ele>2440.4</ele>
        <time>2020-02-14T04:32:13.277Z</time>
      </trkpt>
      <trkpt lat="42.61054" lon="1.90176">
        <ele>2441</ele>
        <time>2020-02-14T04:32:14.367Z</time>
      </trkpt>
      <trkpt lat="42.61055" lon="1.90173">
        <ele>2441.4</ele>
        <time>2020-02-14T04:32:15.298Z</time>
      </trkpt>
      <trkpt lat="42.6106" lon="1.90158">
        <ele>2442.4</ele>
        <time>2020-02-14T04:32:20.111Z</time>
      </trkpt>
      <trkpt lat="42.61062" lon="1.90153">
        <ele>2442.5</ele>
        <time>2020-02-14T04:32:21.566Z</time>
      </trkpt>
      <trkpt lat="42.61065" lon="1.90145">
        <ele>2443.8</ele>
        <time>2020-02-14T04:32:24.327Z</time>
      </trkpt>
      <trkpt lat="42.61075" lon="1.90139">
        <ele>2445.3</ele>
        <time>2020-02-14T04:32:28.383Z</time>
      </trkpt>
      <trkpt lat="42.61075" lon="1.90137">
        <ele>2445.8</ele>
        <time>2020-02-14T04:32:28.852Z</time>
      </trkpt>
      <trkpt lat="42.61076" lon="1.90136">
        <ele>2445.7</ele>
        <time>2020-02-14T04:32:29.337Z</time>
      </trkpt>
      <trkpt lat="42.61076" lon="1.90136">
        <ele>2452</ele>
        <time>2020-02-14T04:32:31.524Z</time>
      </trkpt>
      <trkpt lat="42.61076" lon="1.90136">
        <ele>2446.7</ele>
        <time>2020-02-14T04:32:33.354Z</time>
      </trkpt>
      <trkpt lat="42.61076" lon="1.90136">
        <ele>2453.4</ele>
        <time>2020-02-14T04:32:35.671Z</time>
      </trkpt>
      <trkpt lat="42.61076" lon="1.90136">
        <ele>2446.2</ele>
        <time>2020-02-14T04:32:38.175Z</time>
      </trkpt>
      <trkpt lat="42.61076" lon="1.90136">
        <ele>2452</ele>
        <time>2020-02-14T04:32:40.191Z</time>
      </trkpt>
      <trkpt lat="42.61076" lon="1.90136">
        <ele>2446.2</ele>
        <time>2020-02-14T04:32:42.209Z</time>
      </trkpt>
      <trkpt lat="42.61076" lon="1.90136">
        <ele>2449.7</ele>
        <time>2020-02-14T04:32:43.419Z</time>
      </trkpt>
      <trkpt lat="42.61076" lon="1.90136">
        <ele>2443.8</ele>
        <time>2020-02-14T04:32:45.448Z</time>
      </trkpt>
      <trkpt lat="42.61076" lon="1.90136">
        <ele>2447.3</ele>
        <time>2020-02-14T04:32:46.643Z</time>
      </trkpt>
      <trkpt lat="42.61076" lon="1.90136">
        <ele>2443.4</ele>
        <time>2020-02-14T04:32:48.007Z</time>
      </trkpt>
      <trkpt lat="42.61076" lon="1.90135">
        <ele>2447.8</ele>
        <time>2020-02-14T04:32:49.575Z</time>
      </trkpt>
      <trkpt lat="42.61076" lon="1.90135">
        <ele>2447.3</ele>
        <time>2020-02-14T04:32:49.735Z</time>
      </trkpt>
      <trkpt lat="42.61076" lon="1.90135">
        <ele>2443</ele>
        <time>2020-02-14T04:32:51.235Z</time>
      </trkpt>
      <trkpt lat="42.61076" lon="1.90135">
        <ele>2446.7</ele>
        <time>2020-02-14T04:32:52.537Z</time>
      </trkpt>
      <trkpt lat="42.61076" lon="1.90135">
        <ele>2442.5</ele>
        <time>2020-02-14T04:32:54.015Z</time>
      </trkpt>
      <trkpt lat="42.61076" lon="1.90135">
        <ele>2445.7</ele>
        <time>2020-02-14T04:32:55.142Z</time>
      </trkpt>
      <trkpt lat="42.61077" lon="1.90134">
        <ele>2446.2</ele>
        <time>2020-02-14T04:32:55.468Z</time>
      </trkpt>
      <trkpt lat="42.61076" lon="1.90134">
        <ele>2441.4</ele>
        <time>2020-02-14T04:32:57.148Z</time>
      </trkpt>
      <trkpt lat="42.61076" lon="1.90134">
        <ele>2452.1</ele>
        <time>2020-02-14T04:33:00.844Z</time>
      </trkpt>
      <trkpt lat="42.61076" lon="1.90134">
        <ele>2446.7</ele>
        <time>2020-02-14T04:33:02.698Z</time>
      </trkpt>
      <trkpt lat="42.61077" lon="1.90133">
        <ele>2446.2</ele>
        <time>2020-02-14T04:33:03.000Z</time>
      </trkpt>
      <trkpt lat="42.61079" lon="1.90131">
        <ele>2446.8</ele>
        <time>2020-02-14T04:33:04.103Z</time>
      </trkpt>
      <trkpt lat="42.6108" lon="1.90127">
        <ele>2446.8</ele>
        <time>2020-02-14T04:33:05.333Z</time>
      </trkpt>
      <trkpt lat="42.61084" lon="1.90117">
        <ele>2447.3</ele>
        <time>2020-02-14T04:33:08.687Z</time>
      </trkpt>
      <trkpt lat="42.61086" lon="1.90105">
        <ele>2447.3</ele>
        <time>2020-02-14T04:33:11.945Z</time>
      </trkpt>
      <trkpt lat="42.61087" lon="1.90102">
        <ele>2447.8</ele>
        <time>2020-02-14T04:33:13.004Z</time>
      </trkpt>
      <trkpt lat="42.6109" lon="1.90094">
        <ele>2448.6</ele>
        <time>2020-02-14T04:33:15.613Z</time>
      </trkpt>
      <trkpt lat="42.61092" lon="1.90082">
        <ele>2449.6</ele>
        <time>2020-02-14T04:33:19.073Z</time>
      </trkpt>
      <trkpt lat="42.61097" lon="1.90075">
        <ele>2450.5</ele>
        <time>2020-02-14T04:33:21.704Z</time>
      </trkpt>
      <trkpt lat="42.61096" lon="1.90068">
        <ele>2451.6</ele>
        <time>2020-02-14T04:33:23.830Z</time>
      </trkpt>
      <trkpt lat="42.61095" lon="1.9006">
        <ele>2452</ele>
        <time>2020-02-14T04:33:26.097Z</time>
      </trkpt>
      <trkpt lat="42.61096" lon="1.90051">
        <ele>2452.5</ele>
        <time>2020-02-14T04:33:28.576Z</time>
      </trkpt>
      <trkpt lat="42.61097" lon="1.90044">
        <ele>2452.6</ele>
        <time>2020-02-14T04:33:30.862Z</time>
      </trkpt>
      <trkpt lat="42.61098" lon="1.9004">
        <ele>2452.5</ele>
        <time>2020-02-14T04:33:32.100Z</time>
      </trkpt>
      <trkpt lat="42.611" lon="1.90033">
        <ele>2452.9</ele>
        <time>2020-02-14T04:33:34.134Z</time>
      </trkpt>
      <trkpt lat="42.61099" lon="1.9003">
        <ele>2453.5</ele>
        <time>2020-02-14T04:33:35.204Z</time>
      </trkpt>
      <trkpt lat="42.611" lon="1.90024">
        <ele>2454</ele>
        <time>2020-02-14T04:33:37.026Z</time>
      </trkpt>
      <trkpt lat="42.61095" lon="1.90006">
        <ele>2452.9</ele>
        <time>2020-02-14T04:33:42.388Z</time>
      </trkpt>
      <trkpt lat="42.61092" lon="1.89994">
        <ele>2452.9</ele>
        <time>2020-02-14T04:33:46.039Z</time>
      </trkpt>
      <trkpt lat="42.61092" lon="1.89992">
        <ele>2453.5</ele>
        <time>2020-02-14T04:33:46.443Z</time>
      </trkpt>
      <trkpt lat="42.61089" lon="1.89987">
        <ele>2453</ele>
        <time>2020-02-14T04:33:48.392Z</time>
      </trkpt>
      <trkpt lat="42.61088" lon="1.89982">
        <ele>2453.5</ele>
        <time>2020-02-14T04:33:49.998Z</time>
      </trkpt>
      <trkpt lat="42.61089" lon="1.89979">
        <ele>2453.4</ele>
        <time>2020-02-14T04:33:50.882Z</time>
      </trkpt>
      <trkpt lat="42.6109" lon="1.89976">
        <ele>2453.5</ele>
        <time>2020-02-14T04:33:51.984Z</time>
      </trkpt>
      <trkpt lat="42.61088" lon="1.89968">
        <ele>2454.5</ele>
        <time>2020-02-14T04:33:54.491Z</time>
      </trkpt>
      <trkpt lat="42.61084" lon="1.89961">
        <ele>2453.4</ele>
        <time>2020-02-14T04:33:57.036Z</time>
      </trkpt>
      <trkpt lat="42.61083" lon="1.89956">
        <ele>2453</ele>
        <time>2020-02-14T04:33:58.396Z</time>
      </trkpt>
      <trkpt lat="42.61081" lon="1.89944">
        <ele>2452.5</ele>
        <time>2020-02-14T04:34:01.767Z</time>
      </trkpt>
      <trkpt lat="42.61081" lon="1.89932">
        <ele>2453.4</ele>
        <time>2020-02-14T04:34:05.313Z</time>
      </trkpt>
      <trkpt lat="42.61081" lon="1.89931">
        <ele>2453.4</ele>
        <time>2020-02-14T04:34:05.554Z</time>
      </trkpt>
      <trkpt lat="42.61082" lon="1.89924">
        <ele>2455.8</ele>
        <time>2020-02-14T04:34:07.674Z</time>
      </trkpt>
      <trkpt lat="42.61083" lon="1.89915">
        <ele>2457.3</ele>
        <time>2020-02-14T04:34:10.381Z</time>
      </trkpt>
      <trkpt lat="42.61081" lon="1.89913">
        <ele>2457.4</ele>
        <time>2020-02-14T04:34:11.372Z</time>
      </trkpt>
      <trkpt lat="42.61077" lon="1.89904">
        <ele>2459.7</ele>
        <time>2020-02-14T04:34:14.414Z</time>
      </trkpt>
      <trkpt lat="42.61077" lon="1.899">
        <ele>2461.2</ele>
        <time>2020-02-14T04:34:15.684Z</time>
      </trkpt>
      <trkpt lat="42.61079" lon="1.89892">
        <ele>2463.1</ele>
        <time>2020-02-14T04:34:18.178Z</time>
      </trkpt>
      <trkpt lat="42.61079" lon="1.8989">
        <ele>2466</ele>
        <time>2020-02-14T04:34:19.302Z</time>
      </trkpt>
      <trkpt lat="42.61082" lon="1.89891">
        <ele>2469.4</ele>
        <time>2020-02-14T04:34:21.050Z</time>
      </trkpt>
      <trkpt lat="42.61086" lon="1.89887">
        <ele>2471.2</ele>
        <time>2020-02-14T04:34:22.999Z</time>
      </trkpt>
      <trkpt lat="42.61084" lon="1.89883">
        <ele>2471.2</ele>
        <time>2020-02-14T04:34:24.285Z</time>
      </trkpt>
      <trkpt lat="42.61084" lon="1.89875">
        <ele>2472.2</ele>
        <time>2020-02-14T04:34:26.753Z</time>
      </trkpt>
      <trkpt lat="42.61085" lon="1.89862">
        <ele>2474.1</ele>
        <time>2020-02-14T04:34:30.482Z</time>
      </trkpt>
      <trkpt lat="42.61078" lon="1.89855">
        <ele>2472.8</ele>
        <time>2020-02-14T04:34:33.619Z</time>
      </trkpt>
      <trkpt lat="42.61072" lon="1.89845">
        <ele>2471.7</ele>
        <time>2020-02-14T04:34:37.461Z</time>
      </trkpt>
      <trkpt lat="42.61067" lon="1.89835">
        <ele>2470.2</ele>
        <time>2020-02-14T04:34:41.047Z</time>
      </trkpt>
      <trkpt lat="42.61061" lon="1.89824">
        <ele>2470.8</ele>
        <time>2020-02-14T04:34:44.804Z</time>
      </trkpt>
      <trkpt lat="42.61054" lon="1.89812">
        <ele>2470.7</ele>
        <time>2020-02-14T04:34:49.186Z</time>
      </trkpt>
      <trkpt lat="42.61052" lon="1.89806">
        <ele>2475.2</ele>
        <time>2020-02-14T04:34:51.582Z</time>
      </trkpt>
      <trkpt lat="42.61052" lon="1.89806">
        <ele>2471.7</ele>
        <time>2020-02-14T04:34:52.770Z</time>
      </trkpt>
      <trkpt lat="42.61052" lon="1.89806">
        <ele>2467.8</ele>
        <time>2020-02-14T04:34:54.130Z</time>
      </trkpt>
      <trkpt lat="42.61052" lon="1.89806">
        <ele>2472.2</ele>
        <time>2020-02-14T04:34:55.655Z</time>
      </trkpt>
      <trkpt lat="42.61052" lon="1.89806">
        <ele>2461.6</ele>
        <time>2020-02-14T04:34:59.340Z</time>
      </trkpt>
      <trkpt lat="42.61052" lon="1.89806">
        <ele>2468.9</ele>
        <time>2020-02-14T04:35:01.857Z</time>
      </trkpt>
      <trkpt lat="42.61052" lon="1.89806">
        <ele>2465</ele>
        <time>2020-02-14T04:35:03.191Z</time>
      </trkpt>
      <trkpt lat="42.61052" lon="1.89806">
        <ele>2471.8</ele>
        <time>2020-02-14T04:35:05.546Z</time>
      </trkpt>
      <trkpt lat="42.61052" lon="1.89806">
        <ele>2471.8</ele>
        <time>2020-02-14T04:35:05.559Z</time>
      </trkpt>
      <trkpt lat="42.61052" lon="1.89806">
        <ele>2466.4</ele>
        <time>2020-02-14T04:35:07.407Z</time>
      </trkpt>
      <trkpt lat="42.61052" lon="1.89806">
        <ele>2471.3</ele>
        <time>2020-02-14T04:35:09.090Z</time>
      </trkpt>
      <trkpt lat="42.61052" lon="1.89806">
        <ele>2476</ele>
        <time>2020-02-14T04:35:10.731Z</time>
      </trkpt>
      <trkpt lat="42.61052" lon="1.89806">
        <ele>2464.6</ele>
        <time>2020-02-14T04:35:14.699Z</time>
      </trkpt>
      <trkpt lat="42.61052" lon="1.89806">
        <ele>2466</ele>
        <time>2020-02-14T04:35:15.178Z</time>
      </trkpt>
      <trkpt lat="42.61052" lon="1.89806">
        <ele>2476.5</ele>
        <time>2020-02-14T04:35:18.842Z</time>
      </trkpt>
      <trkpt lat="42.61052" lon="1.89806">
        <ele>2472.7</ele>
        <time>2020-02-14T04:35:20.165Z</time>
      </trkpt>
      <trkpt lat="42.61052" lon="1.89806">
        <ele>2468.9</ele>
        <time>2020-02-14T04:35:21.494Z</time>
      </trkpt>
      <trkpt lat="42.61052" lon="1.89806">
        <ele>2469.3</ele>
        <time>2020-02-14T04:35:21.646Z</time>
      </trkpt>
      <trkpt lat="42.61052" lon="1.89806">
        <ele>2477.6</ele>
        <time>2020-02-14T04:35:24.514Z</time>
      </trkpt>
      <trkpt lat="42.61052" lon="1.89806">
        <ele>2476.1</ele>
        <time>2020-02-14T04:35:25.028Z</time>
      </trkpt>
      <trkpt lat="42.61052" lon="1.89806">
        <ele>2472.2</ele>
        <time>2020-02-14T04:35:26.375Z</time>
      </trkpt>
      <trkpt lat="42.61052" lon="1.89806">
        <ele>2473.6</ele>
        <time>2020-02-14T04:35:26.865Z</time>
      </trkpt>
      <trkpt lat="42.61052" lon="1.89806">
        <ele>2468.8</ele>
        <time>2020-02-14T04:35:28.529Z</time>
      </trkpt>
      <trkpt lat="42.61052" lon="1.89806">
        <ele>2475.2</ele>
        <time>2020-02-14T04:35:30.738Z</time>
      </trkpt>
      <trkpt lat="42.61052" lon="1.89806">
        <ele>2471.7</ele>
        <time>2020-02-14T04:35:31.934Z</time>
      </trkpt>
      <trkpt lat="42.61052" lon="1.89806">
        <ele>2470.7</ele>
        <time>2020-02-14T04:35:32.304Z</time>
      </trkpt>
      <trkpt lat="42.61053" lon="1.89806">
        <ele>2470.7</ele>
        <time>2020-02-14T04:35:32.649Z</time>
      </trkpt>
      <trkpt lat="42.61052" lon="1.898">
        <ele>2469.4</ele>
        <time>2020-02-14T04:35:34.430Z</time>
      </trkpt>
      <trkpt lat="42.61049" lon="1.89787">
        <ele>2468.4</ele>
        <time>2020-02-14T04:35:38.455Z</time>
      </trkpt>
      <trkpt lat="42.61042" lon="1.89773">
        <ele>2466.9</ele>
        <time>2020-02-14T04:35:43.223Z</time>
      </trkpt>
      <trkpt lat="42.61037" lon="1.89761">
        <ele>2465.4</ele>
        <time>2020-02-14T04:35:47.110Z</time>
      </trkpt>
      <trkpt lat="42.61033" lon="1.89748">
        <ele>2464</ele>
        <time>2020-02-14T04:35:51.172Z</time>
      </trkpt>
      <trkpt lat="42.61027" lon="1.89739">
        <ele>2461.7</ele>
        <time>2020-02-14T04:35:54.617Z</time>
      </trkpt>
      <trkpt lat="42.61025" lon="1.89736">
        <ele>2461.2</ele>
        <time>2020-02-14T04:35:55.813Z</time>
      </trkpt>
      <trkpt lat="42.61021" lon="1.89725">
        <ele>2459.8</ele>
        <time>2020-02-14T04:35:59.426Z</time>
      </trkpt>
      <trkpt lat="42.61019" lon="1.89723">
        <ele>2458.8</ele>
        <time>2020-02-14T04:36:00.426Z</time>
      </trkpt>
      <trkpt lat="42.61018" lon="1.89715">
        <ele>2456.8</ele>
        <time>2020-02-14T04:36:02.744Z</time>
      </trkpt>
      <trkpt lat="42.61016" lon="1.89706">
        <ele>2454.9</ele>
        <time>2020-02-14T04:36:05.508Z</time>
      </trkpt>
      <trkpt lat="42.61016" lon="1.89704">
        <ele>2454.5</ele>
        <time>2020-02-14T04:36:05.988Z</time>
      </trkpt>
      <trkpt lat="42.61016" lon="1.89698">
        <ele>2452.9</ele>
        <time>2020-02-14T04:36:07.831Z</time>
      </trkpt>
      <trkpt lat="42.61017" lon="1.89689">
        <ele>2451.6</ele>
        <time>2020-02-14T04:36:10.373Z</time>
      </trkpt>
      <trkpt lat="42.61014" lon="1.89684">
        <ele>2449.7</ele>
        <time>2020-02-14T04:36:12.602Z</time>
      </trkpt>
      <trkpt lat="42.61011" lon="1.89669">
        <ele>2446.3</ele>
        <time>2020-02-14T04:36:17.006Z</time>
      </trkpt>
      <trkpt lat="42.61008" lon="1.8966">
        <ele>2443.3</ele>
        <time>2020-02-14T04:36:19.869Z</time>
      </trkpt>
      <trkpt lat="42.61006" lon="1.89652">
        <ele>2441.5</ele>
        <time>2020-02-14T04:36:22.461Z</time>
      </trkpt>
      <trkpt lat="42.61005" lon="1.89647">
        <ele>2440.5</ele>
        <time>2020-02-14T04:36:23.887Z</time>
      </trkpt>
      <trkpt lat="42.61003" lon="1.89638">
        <ele>2437.2</ele>
        <time>2020-02-14T04:36:26.822Z</time>
      </trkpt>
      <trkpt lat="42.61003" lon="1.89634">
        <ele>2436.6</ele>
        <time>2020-02-14T04:36:28.150Z</time>
      </trkpt>
      <trkpt lat="42.60999" lon="1.89623">
        <ele>2434.7</ele>
        <time>2020-02-14T04:36:31.667Z</time>
      </trkpt>
      <trkpt lat="42.60998" lon="1.89612">
        <ele>2432.3</ele>
        <time>2020-02-14T04:36:34.855Z</time>
      </trkpt>
      <trkpt lat="42.60998" lon="1.89606">
        <ele>2430.5</ele>
        <time>2020-02-14T04:36:36.606Z</time>
      </trkpt>
      <trkpt lat="42.60997" lon="1.89598">
        <ele>2428.5</ele>
        <time>2020-02-14T04:36:39.077Z</time>
      </trkpt>
      <trkpt lat="42.60997" lon="1.89597">
        <ele>2427.5</ele>
        <time>2020-02-14T04:36:39.533Z</time>
      </trkpt>
      <trkpt lat="42.60994" lon="1.89597">
        <ele>2426.6</ele>
        <time>2020-02-14T04:36:40.674Z</time>
      </trkpt>
      <trkpt lat="42.60991" lon="1.89589">
        <ele>2425.5</ele>
        <time>2020-02-14T04:36:43.217Z</time>
      </trkpt>
      <trkpt lat="42.60991" lon="1.89586">
        <ele>2425.5</ele>
        <time>2020-02-14T04:36:43.964Z</time>
      </trkpt>
      <trkpt lat="42.60994" lon="1.89577">
        <ele>2422.8</ele>
        <time>2020-02-14T04:36:47.114Z</time>
      </trkpt>
      <trkpt lat="42.60997" lon="1.89568">
        <ele>2420.8</ele>
        <time>2020-02-14T04:36:49.797Z</time>
      </trkpt>
      <trkpt lat="42.61" lon="1.89559">
        <ele>2418.3</ele>
        <time>2020-02-14T04:36:52.684Z</time>
      </trkpt>
      <trkpt lat="42.61002" lon="1.89555">
        <ele>2415.9</ele>
        <time>2020-02-14T04:36:54.373Z</time>
      </trkpt>
      <trkpt lat="42.61006" lon="1.89549">
        <ele>2414.1</ele>
        <time>2020-02-14T04:36:56.754Z</time>
      </trkpt>
      <trkpt lat="42.61007" lon="1.89545">
        <ele>2411.1</ele>
        <time>2020-02-14T04:36:58.398Z</time>
      </trkpt>
      <trkpt lat="42.61016" lon="1.89532">
        <ele>2408.8</ele>
        <time>2020-02-14T04:37:03.392Z</time>
      </trkpt>
      <trkpt lat="42.61022" lon="1.89521">
        <ele>2405.9</ele>
        <time>2020-02-14T04:37:07.462Z</time>
      </trkpt>
      <trkpt lat="42.61028" lon="1.89516">
        <ele>2403.4</ele>
        <time>2020-02-14T04:37:10.169Z</time>
      </trkpt>
      <trkpt lat="42.61033" lon="1.8951">
        <ele>2400.7</ele>
        <time>2020-02-14T04:37:12.886Z</time>
      </trkpt>
      <trkpt lat="42.61037" lon="1.89507">
        <ele>2397.2</ele>
        <time>2020-02-14T04:37:15.098Z</time>
      </trkpt>
      <trkpt lat="42.61046" lon="1.89503">
        <ele>2393.8</ele>
        <time>2020-02-14T04:37:19.018Z</time>
      </trkpt>
      <trkpt lat="42.6105" lon="1.89492">
        <ele>2393.3</ele>
        <time>2020-02-14T04:37:22.473Z</time>
      </trkpt>
      <trkpt lat="42.61053" lon="1.89478">
        <ele>2392.9</ele>
        <time>2020-02-14T04:37:26.569Z</time>
      </trkpt>
      <trkpt lat="42.61054" lon="1.89471">
        <ele>2392.4</ele>
        <time>2020-02-14T04:37:28.585Z</time>
      </trkpt>
      <trkpt lat="42.61055" lon="1.89466">
        <ele>2391</ele>
        <time>2020-02-14T04:37:30.209Z</time>
      </trkpt>
      <trkpt lat="42.61053" lon="1.89459">
        <ele>2391</ele>
        <time>2020-02-14T04:37:32.527Z</time>
      </trkpt>
      <trkpt lat="42.61051" lon="1.89457">
        <ele>2390.1</ele>
        <time>2020-02-14T04:37:33.365Z</time>
      </trkpt>
      <trkpt lat="42.61048" lon="1.89457">
        <ele>2389.6</ele>
        <time>2020-02-14T04:37:34.634Z</time>
      </trkpt>
      <trkpt lat="42.61041" lon="1.89447">
        <ele>2388.2</ele>
        <time>2020-02-14T04:37:38.723Z</time>
      </trkpt>
      <trkpt lat="42.61037" lon="1.89443">
        <ele>2387.6</ele>
        <time>2020-02-14T04:37:40.471Z</time>
      </trkpt>
      <trkpt lat="42.61035" lon="1.8944">
        <ele>2387.2</ele>
        <time>2020-02-14T04:37:41.608Z</time>
      </trkpt>
      <trkpt lat="42.61031" lon="1.89425">
        <ele>2384.8</ele>
        <time>2020-02-14T04:37:46.037Z</time>
      </trkpt>
      <trkpt lat="42.6103" lon="1.89425">
        <ele>2384.8</ele>
        <time>2020-02-14T04:37:46.315Z</time>
      </trkpt>
      <trkpt lat="42.61027" lon="1.89417">
        <ele>2383.3</ele>
        <time>2020-02-14T04:37:48.982Z</time>
      </trkpt>
      <trkpt lat="42.61024" lon="1.89412">
        <ele>2383.7</ele>
        <time>2020-02-14T04:37:51.011Z</time>
      </trkpt>
      <trkpt lat="42.61022" lon="1.89409">
        <ele>2381.8</ele>
        <time>2020-02-14T04:37:52.352Z</time>
      </trkpt>
      <trkpt lat="42.61022" lon="1.89408">
        <ele>2380.9</ele>
        <time>2020-02-14T04:37:52.819Z</time>
      </trkpt>
      <trkpt lat="42.61019" lon="1.894">
        <ele>2379.4</ele>
        <time>2020-02-14T04:37:55.184Z</time>
      </trkpt>
      <trkpt lat="42.6102" lon="1.894">
        <ele>2379.4</ele>
        <time>2020-02-14T04:37:55.343Z</time>
      </trkpt>
      <trkpt lat="42.61018" lon="1.89393">
        <ele>2378.1</ele>
        <time>2020-02-14T04:37:57.530Z</time>
      </trkpt>
      <trkpt lat="42.61019" lon="1.89389">
        <ele>2375.6</ele>
        <time>2020-02-14T04:37:58.935Z</time>
      </trkpt>
      <trkpt lat="42.61018" lon="1.89387">
        <ele>2374.2</ele>
        <time>2020-02-14T04:37:59.864Z</time>
      </trkpt>
      <trkpt lat="42.61018" lon="1.89384">
        <ele>2373.6</ele>
        <time>2020-02-14T04:38:00.738Z</time>
      </trkpt>
      <trkpt lat="42.61019" lon="1.8938">
        <ele>2369.4</ele>
        <time>2020-02-14T04:38:02.628Z</time>
      </trkpt>
      <trkpt lat="42.61021" lon="1.89374">
        <ele>2369.8</ele>
        <time>2020-02-14T04:38:04.286Z</time>
      </trkpt>
      <trkpt lat="42.61022" lon="1.89367">
        <ele>2369.3</ele>
        <time>2020-02-14T04:38:06.470Z</time>
      </trkpt>
      <trkpt lat="42.61024" lon="1.89364">
        <ele>2360.7</ele>
        <time>2020-02-14T04:38:09.659Z</time>
      </trkpt>
      <trkpt lat="42.61024" lon="1.89364">
        <ele>2370.9</ele>
        <time>2020-02-14T04:38:13.178Z</time>
      </trkpt>
      <trkpt lat="42.61024" lon="1.89364">
        <ele>2367.9</ele>
        <time>2020-02-14T04:38:14.216Z</time>
      </trkpt>
      <trkpt lat="42.61024" lon="1.89364">
        <ele>2370.8</ele>
        <time>2020-02-14T04:38:15.233Z</time>
      </trkpt>
      <trkpt lat="42.61024" lon="1.89364">
        <ele>2367</ele>
        <time>2020-02-14T04:38:16.576Z</time>
      </trkpt>
      <trkpt lat="42.61024" lon="1.89364">
        <ele>2371.8</ele>
        <time>2020-02-14T04:38:18.241Z</time>
      </trkpt>
      <trkpt lat="42.61024" lon="1.89364">
        <ele>2367.4</ele>
        <time>2020-02-14T04:38:19.752Z</time>
      </trkpt>
      <trkpt lat="42.61024" lon="1.89364">
        <ele>2371.2</ele>
        <time>2020-02-14T04:38:21.081Z</time>
      </trkpt>
      <trkpt lat="42.61024" lon="1.89364">
        <ele>2370.8</ele>
        <time>2020-02-14T04:38:21.226Z</time>
      </trkpt>
      <trkpt lat="42.61024" lon="1.89364">
        <ele>2366.9</ele>
        <time>2020-02-14T04:38:22.583Z</time>
      </trkpt>
      <trkpt lat="42.61024" lon="1.89364">
        <ele>2368.4</ele>
        <time>2020-02-14T04:38:23.098Z</time>
      </trkpt>
      <trkpt lat="42.61024" lon="1.89364">
        <ele>2368.8</ele>
        <time>2020-02-14T04:38:23.239Z</time>
      </trkpt>
      <trkpt lat="42.61025" lon="1.89365">
        <ele>2368.9</ele>
        <time>2020-02-14T04:38:23.594Z</time>
      </trkpt>
      <trkpt lat="42.61024" lon="1.89365">
        <ele>2368.4</ele>
        <time>2020-02-14T04:38:23.979Z</time>
      </trkpt>
      <trkpt lat="42.61025" lon="1.89353">
        <ele>2366.4</ele>
        <time>2020-02-14T04:38:27.540Z</time>
      </trkpt>
      <trkpt lat="42.61025" lon="1.89351">
        <ele>2366</ele>
        <time>2020-02-14T04:38:28.235Z</time>
      </trkpt>
      <trkpt lat="42.61019" lon="1.89345">
        <ele>2364.5</ele>
        <time>2020-02-14T04:38:30.904Z</time>
      </trkpt>
      <trkpt lat="42.61019" lon="1.89333">
        <ele>2362.6</ele>
        <time>2020-02-14T04:38:34.492Z</time>
      </trkpt>
      <trkpt lat="42.6102" lon="1.8933">
        <ele>2362.7</ele>
        <time>2020-02-14T04:38:35.210Z</time>
      </trkpt>
      <trkpt lat="42.6102" lon="1.89322">
        <ele>2361.2</ele>
        <time>2020-02-14T04:38:37.775Z</time>
      </trkpt>
      <trkpt lat="42.61024" lon="1.89307">
        <ele>2358.3</ele>
        <time>2020-02-14T04:38:42.271Z</time>
      </trkpt>
      <trkpt lat="42.61025" lon="1.89294">
        <ele>2354.9</ele>
        <time>2020-02-14T04:38:46.078Z</time>
      </trkpt>
      <trkpt lat="42.61028" lon="1.8929">
        <ele>2354</ele>
        <time>2020-02-14T04:38:47.605Z</time>
      </trkpt>
      <trkpt lat="42.61027" lon="1.89287">
        <ele>2353.5</ele>
        <time>2020-02-14T04:38:48.516Z</time>
      </trkpt>
      <trkpt lat="42.61025" lon="1.89287">
        <ele>2354.9</ele>
        <time>2020-02-14T04:38:49.374Z</time>
      </trkpt>
      <trkpt lat="42.61019" lon="1.89292">
        <ele>2355</ele>
        <time>2020-02-14T04:38:52.151Z</time>
      </trkpt>
      <trkpt lat="42.61018" lon="1.89291">
        <ele>2355</ele>
        <time>2020-02-14T04:38:52.585Z</time>
      </trkpt>
      <trkpt lat="42.61017" lon="1.8928">
        <ele>2352.6</ele>
        <time>2020-02-14T04:38:56.076Z</time>
      </trkpt>
      <trkpt lat="42.61017" lon="1.89276">
        <ele>2352.1</ele>
        <time>2020-02-14T04:38:56.986Z</time>
      </trkpt>
      <trkpt lat="42.61014" lon="1.89262">
        <ele>2349.2</ele>
        <time>2020-02-14T04:39:01.374Z</time>
      </trkpt>
      <trkpt lat="42.61003" lon="1.89258">
        <ele>2348.6</ele>
        <time>2020-02-14T04:39:05.704Z</time>
      </trkpt>
      <trkpt lat="42.61002" lon="1.89256">
        <ele>2349.1</ele>
        <time>2020-02-14T04:39:06.499Z</time>
      </trkpt>
      <trkpt lat="42.61" lon="1.89254">
        <ele>2348.6</ele>
        <time>2020-02-14T04:39:07.429Z</time>
      </trkpt>
      <trkpt lat="42.60995" lon="1.8925">
        <ele>2348.7</ele>
        <time>2020-02-14T04:39:09.537Z</time>
      </trkpt>
      <trkpt lat="42.60991" lon="1.89237">
        <ele>2348.2</ele>
        <time>2020-02-14T04:39:13.550Z</time>
      </trkpt>
      <trkpt lat="42.60991" lon="1.89235">
        <ele>2348.2</ele>
        <time>2020-02-14T04:39:14.064Z</time>
      </trkpt>
      <trkpt lat="42.60986" lon="1.89224">
        <ele>2341.5</ele>
        <time>2020-02-14T04:39:18.712Z</time>
      </trkpt>
      <trkpt lat="42.60986" lon="1.89224">
        <ele>2348.7</ele>
        <time>2020-02-14T04:39:21.204Z</time>
      </trkpt>
      <trkpt lat="42.60986" lon="1.89224">
        <ele>2345.8</ele>
        <time>2020-02-14T04:39:22.181Z</time>
      </trkpt>
      <trkpt lat="42.60986" lon="1.89224">
        <ele>2352</ele>
        <time>2020-02-14T04:39:24.329Z</time>
      </trkpt>
      <trkpt lat="42.60986" lon="1.89224">
        <ele>2348.3</ele>
        <time>2020-02-14T04:39:25.641Z</time>
      </trkpt>
      <trkpt lat="42.60989" lon="1.89219">
        <ele>2347.3</ele>
        <time>2020-02-14T04:39:27.438Z</time>
      </trkpt>
      <trkpt lat="42.60991" lon="1.89205">
        <ele>2346.2</ele>
        <time>2020-02-14T04:39:31.382Z</time>
      </trkpt>
      <trkpt lat="42.60991" lon="1.89197">
        <ele>2344.8</ele>
        <time>2020-02-14T04:39:33.902Z</time>
      </trkpt>
      <trkpt lat="42.60988" lon="1.89185">
        <ele>2345.4</ele>
        <time>2020-02-14T04:39:37.428Z</time>
      </trkpt>
      <trkpt lat="42.60987" lon="1.89182">
        <ele>2345.4</ele>
        <time>2020-02-14T04:39:38.532Z</time>
      </trkpt>
      <trkpt lat="42.60985" lon="1.89173">
        <ele>2345.4</ele>
        <time>2020-02-14T04:39:41.126Z</time>
      </trkpt>
      <trkpt lat="42.60982" lon="1.8917">
        <ele>2346.3</ele>
        <time>2020-02-14T04:39:42.569Z</time>
      </trkpt>
      <trkpt lat="42.6098" lon="1.89162">
        <ele>2346.2</ele>
        <time>2020-02-14T04:39:44.996Z</time>
      </trkpt>
      <trkpt lat="42.60976" lon="1.89154">
        <ele>2345.8</ele>
        <time>2020-02-14T04:39:47.846Z</time>
      </trkpt>
      <trkpt lat="42.60975" lon="1.89149">
        <ele>2339.5</ele>
        <time>2020-02-14T04:39:50.354Z</time>
      </trkpt>
      <trkpt lat="42.60974" lon="1.89148">
        <ele>2346.3</ele>
        <time>2020-02-14T04:39:52.736Z</time>
      </trkpt>
      <trkpt lat="42.60973" lon="1.89139">
        <ele>2343.5</ele>
        <time>2020-02-14T04:39:55.559Z</time>
      </trkpt>
      <trkpt lat="42.60972" lon="1.89137">
        <ele>2343.4</ele>
        <time>2020-02-14T04:39:56.159Z</time>
      </trkpt>
      <trkpt lat="42.60973" lon="1.89136">
        <ele>2342.4</ele>
        <time>2020-02-14T04:39:56.692Z</time>
      </trkpt>
      <trkpt lat="42.60969" lon="1.89131">
        <ele>2341.5</ele>
        <time>2020-02-14T04:39:58.527Z</time>
      </trkpt>
      <trkpt lat="42.60965" lon="1.89122">
        <ele>2339.6</ele>
        <time>2020-02-14T04:40:01.719Z</time>
      </trkpt>
      <trkpt lat="42.60964" lon="1.8912">
        <ele>2343.9</ele>
        <time>2020-02-14T04:40:03.419Z</time>
      </trkpt>
      <trkpt lat="42.60964" lon="1.8912">
        <ele>2340</ele>
        <time>2020-02-14T04:40:04.761Z</time>
      </trkpt>
      <trkpt lat="42.60963" lon="1.89114">
        <ele>2338.6</ele>
        <time>2020-02-14T04:40:06.576Z</time>
      </trkpt>
      <trkpt lat="42.60956" lon="1.89105">
        <ele>2338.1</ele>
        <time>2020-02-14T04:40:10.205Z</time>
      </trkpt>
      <trkpt lat="42.60956" lon="1.891">
        <ele>2337.7</ele>
        <time>2020-02-14T04:40:11.841Z</time>
      </trkpt>
      <trkpt lat="42.60954" lon="1.89094">
        <ele>2337.7</ele>
        <time>2020-02-14T04:40:13.477Z</time>
      </trkpt>
      <trkpt lat="42.60951" lon="1.89084">
        <ele>2337.2</ele>
        <time>2020-02-14T04:40:16.662Z</time>
      </trkpt>
      <trkpt lat="42.60946" lon="1.89082">
        <ele>2333.7</ele>
        <time>2020-02-14T04:40:18.887Z</time>
      </trkpt>
      <trkpt lat="42.60946" lon="1.89082">
        <ele>2338.5</ele>
        <time>2020-02-14T04:40:20.555Z</time>
      </trkpt>
      <trkpt lat="42.60946" lon="1.89082">
        <ele>2346.2</ele>
        <time>2020-02-14T04:40:23.232Z</time>
      </trkpt>
      <trkpt lat="42.60946" lon="1.89082">
        <ele>2332.9</ele>
        <time>2020-02-14T04:40:27.858Z</time>
      </trkpt>
      <trkpt lat="42.60946" lon="1.89082">
        <ele>2338.6</ele>
        <time>2020-02-14T04:40:29.831Z</time>
      </trkpt>
      <trkpt lat="42.60945" lon="1.89082">
        <ele>2337.2</ele>
        <time>2020-02-14T04:40:30.404Z</time>
      </trkpt>
      <trkpt lat="42.60942" lon="1.89078">
        <ele>2337.2</ele>
        <time>2020-02-14T04:40:31.947Z</time>
      </trkpt>
      <trkpt lat="42.60941" lon="1.89077">
        <ele>2336.7</ele>
        <time>2020-02-14T04:40:32.418Z</time>
      </trkpt>
      <trkpt lat="42.6094" lon="1.89076">
        <ele>2336.6</ele>
        <time>2020-02-14T04:40:32.972Z</time>
      </trkpt>
      <trkpt lat="42.60938" lon="1.89071">
        <ele>2337.1</ele>
        <time>2020-02-14T04:40:34.679Z</time>
      </trkpt>
      <trkpt lat="42.60935" lon="1.89067">
        <ele>2337.7</ele>
        <time>2020-02-14T04:40:36.324Z</time>
      </trkpt>
      <trkpt lat="42.60932" lon="1.89058">
        <ele>2338.1</ele>
        <time>2020-02-14T04:40:39.042Z</time>
      </trkpt>
      <trkpt lat="42.60932" lon="1.89046">
        <ele>2338.5</ele>
        <time>2020-02-14T04:40:42.541Z</time>
      </trkpt>
      <trkpt lat="42.60933" lon="1.8904">
        <ele>2338.1</ele>
        <time>2020-02-14T04:40:44.286Z</time>
      </trkpt>
      <trkpt lat="42.60933" lon="1.89034">
        <ele>2332.9</ele>
        <time>2020-02-14T04:40:46.792Z</time>
      </trkpt>
      <trkpt lat="42.60933" lon="1.89032">
        <ele>2339.1</ele>
        <time>2020-02-14T04:40:48.980Z</time>
      </trkpt>
      <trkpt lat="42.60933" lon="1.89022">
        <ele>2337.7</ele>
        <time>2020-02-14T04:40:51.779Z</time>
      </trkpt>
      <trkpt lat="42.60935" lon="1.89018">
        <ele>2337.1</ele>
        <time>2020-02-14T04:40:53.235Z</time>
      </trkpt>
      <trkpt lat="42.60939" lon="1.89008">
        <ele>2336.7</ele>
        <time>2020-02-14T04:40:56.545Z</time>
      </trkpt>
      <trkpt lat="42.60937" lon="1.89004">
        <ele>2336.1</ele>
        <time>2020-02-14T04:40:57.687Z</time>
      </trkpt>
      <trkpt lat="42.60936" lon="1.88996">
        <ele>2335.8</ele>
        <time>2020-02-14T04:41:00.165Z</time>
      </trkpt>
      <trkpt lat="42.60938" lon="1.8899">
        <ele>2335.7</ele>
        <time>2020-02-14T04:41:01.856Z</time>
      </trkpt>
      <trkpt lat="42.60937" lon="1.8898">
        <ele>2334.7</ele>
        <time>2020-02-14T04:41:04.725Z</time>
      </trkpt>
      <trkpt lat="42.60933" lon="1.88971">
        <ele>2334.2</ele>
        <time>2020-02-14T04:41:07.725Z</time>
      </trkpt>
      <trkpt lat="42.60929" lon="1.88965">
        <ele>2333.4</ele>
        <time>2020-02-14T04:41:10.011Z</time>
      </trkpt>
      <trkpt lat="42.60929" lon="1.88962">
        <ele>2333.3</ele>
        <time>2020-02-14T04:41:10.852Z</time>
      </trkpt>
      <trkpt lat="42.60926" lon="1.88952">
        <ele>2333.4</ele>
        <time>2020-02-14T04:41:13.801Z</time>
      </trkpt>
      <trkpt lat="42.60921" lon="1.88942">
        <ele>2332.4</ele>
        <time>2020-02-14T04:41:17.275Z</time>
      </trkpt>
      <trkpt lat="42.60916" lon="1.88929">
        <ele>2331.9</ele>
        <time>2020-02-14T04:41:21.358Z</time>
      </trkpt>
      <trkpt lat="42.60915" lon="1.88927">
        <ele>2319.4</ele>
        <time>2020-02-14T04:41:25.802Z</time>
      </trkpt>
      <trkpt lat="42.60914" lon="1.88926">
        <ele>2333.4</ele>
        <time>2020-02-14T04:41:30.669Z</time>
      </trkpt>
      <trkpt lat="42.60914" lon="1.88925">
        <ele>2337.6</ele>
        <time>2020-02-14T04:41:32.183Z</time>
      </trkpt>
      <trkpt lat="42.60913" lon="1.88921">
        <ele>2332.3</ele>
        <time>2020-02-14T04:41:34.362Z</time>
      </trkpt>
      <trkpt lat="42.60911" lon="1.88919">
        <ele>2330.4</ele>
        <time>2020-02-14T04:41:35.551Z</time>
      </trkpt>
      <trkpt lat="42.60907" lon="1.88912">
        <ele>2327.5</ele>
        <time>2020-02-14T04:41:38.032Z</time>
      </trkpt>
      <trkpt lat="42.609" lon="1.88908">
        <ele>2328.1</ele>
        <time>2020-02-14T04:41:41.221Z</time>
      </trkpt>
      <trkpt lat="42.60898" lon="1.88896">
        <ele>2325.7</ele>
        <time>2020-02-14T04:41:44.645Z</time>
      </trkpt>
      <trkpt lat="42.60889" lon="1.88888">
        <ele>2323.6</ele>
        <time>2020-02-14T04:41:48.825Z</time>
      </trkpt>
      <trkpt lat="42.60888" lon="1.88884">
        <ele>2322.8</ele>
        <time>2020-02-14T04:41:50.062Z</time>
      </trkpt>
      <trkpt lat="42.60887" lon="1.88879">
        <ele>2321.3</ele>
        <time>2020-02-14T04:41:51.664Z</time>
      </trkpt>
      <trkpt lat="42.60886" lon="1.88868">
        <ele>2318.8</ele>
        <time>2020-02-14T04:41:55.004Z</time>
      </trkpt>
      <trkpt lat="42.60883" lon="1.88859">
        <ele>2318.4</ele>
        <time>2020-02-14T04:41:57.810Z</time>
      </trkpt>
      <trkpt lat="42.60878" lon="1.88848">
        <ele>2316.4</ele>
        <time>2020-02-14T04:42:01.647Z</time>
      </trkpt>
      <trkpt lat="42.60873" lon="1.88841">
        <ele>2314</ele>
        <time>2020-02-14T04:42:04.596Z</time>
      </trkpt>
      <trkpt lat="42.60873" lon="1.8884">
        <ele>2314</ele>
        <time>2020-02-14T04:42:04.882Z</time>
      </trkpt>
      <trkpt lat="42.60869" lon="1.88829">
        <ele>2312.6</ele>
        <time>2020-02-14T04:42:08.275Z</time>
      </trkpt>
      <trkpt lat="42.60865" lon="1.8883">
        <ele>2313.6</ele>
        <time>2020-02-14T04:42:09.880Z</time>
      </trkpt>
      <trkpt lat="42.60863" lon="1.88825">
        <ele>2313.1</ele>
        <time>2020-02-14T04:42:11.569Z</time>
      </trkpt>
      <trkpt lat="42.60862" lon="1.88821">
        <ele>2311.6</ele>
        <time>2020-02-14T04:42:12.797Z</time>
      </trkpt>
      <trkpt lat="42.60857" lon="1.8882">
        <ele>2312.2</ele>
        <time>2020-02-14T04:42:14.555Z</time>
      </trkpt>
      <trkpt lat="42.60855" lon="1.88806">
        <ele>2309.7</ele>
        <time>2020-02-14T04:42:18.540Z</time>
      </trkpt>
      <trkpt lat="42.60855" lon="1.88805">
        <ele>2309.8</ele>
        <time>2020-02-14T04:42:18.953Z</time>
      </trkpt>
      <trkpt lat="42.60855" lon="1.88802">
        <ele>2309.8</ele>
        <time>2020-02-14T04:42:19.920Z</time>
      </trkpt>
      <trkpt lat="42.60851" lon="1.88798">
        <ele>2308.4</ele>
        <time>2020-02-14T04:42:21.928Z</time>
      </trkpt>
      <trkpt lat="42.60847" lon="1.88798">
        <ele>2306.8</ele>
        <time>2020-02-14T04:42:23.241Z</time>
      </trkpt>
      <trkpt lat="42.6084" lon="1.88783">
        <ele>2304.4</ele>
        <time>2020-02-14T04:42:28.551Z</time>
      </trkpt>
      <trkpt lat="42.60837" lon="1.88782">
        <ele>2303.9</ele>
        <time>2020-02-14T04:42:29.609Z</time>
      </trkpt>
      <trkpt lat="42.60835" lon="1.88784">
        <ele>2304.5</ele>
        <time>2020-02-14T04:42:30.303Z</time>
      </trkpt>
      <trkpt lat="42.6083" lon="1.88778">
        <ele>2303</ele>
        <time>2020-02-14T04:42:32.804Z</time>
      </trkpt>
      <trkpt lat="42.60827" lon="1.88775">
        <ele>2303.1</ele>
        <time>2020-02-14T04:42:34.243Z</time>
      </trkpt>
      <trkpt lat="42.60827" lon="1.88774">
        <ele>2303.6</ele>
        <time>2020-02-14T04:42:34.631Z</time>
      </trkpt>
      <trkpt lat="42.6082" lon="1.88764">
        <ele>2302.5</ele>
        <time>2020-02-14T04:42:38.719Z</time>
      </trkpt>
      <trkpt lat="42.60818" lon="1.88753">
        <ele>2302.1</ele>
        <time>2020-02-14T04:42:41.668Z</time>
      </trkpt>
      <trkpt lat="42.6082" lon="1.88737">
        <ele>2299.1</ele>
        <time>2020-02-14T04:42:46.442Z</time>
      </trkpt>
      <trkpt lat="42.60819" lon="1.88736">
        <ele>2299.1</ele>
        <time>2020-02-14T04:42:46.887Z</time>
      </trkpt>
      <trkpt lat="42.60819" lon="1.88736">
        <ele>2295.4</ele>
        <time>2020-02-14T04:42:48.201Z</time>
      </trkpt>
      <trkpt lat="42.60819" lon="1.88736">
        <ele>2297.2</ele>
        <time>2020-02-14T04:42:48.846Z</time>
      </trkpt>
      <trkpt lat="42.60819" lon="1.88736">
        <ele>2299.6</ele>
        <time>2020-02-14T04:42:49.676Z</time>
      </trkpt>
      <trkpt lat="42.60819" lon="1.88736">
        <ele>2295.9</ele>
        <time>2020-02-14T04:42:50.968Z</time>
      </trkpt>
      <trkpt lat="42.60819" lon="1.88736">
        <ele>2300.1</ele>
        <time>2020-02-14T04:42:52.436Z</time>
      </trkpt>
      <trkpt lat="42.60819" lon="1.88736">
        <ele>2299.7</ele>
        <time>2020-02-14T04:42:52.585Z</time>
      </trkpt>
      <trkpt lat="42.60819" lon="1.88736">
        <ele>2284.8</ele>
        <time>2020-02-14T04:42:57.768Z</time>
      </trkpt>
      <trkpt lat="42.60819" lon="1.88736">
        <ele>2302.5</ele>
        <time>2020-02-14T04:43:03.938Z</time>
      </trkpt>
      <trkpt lat="42.60819" lon="1.88736">
        <ele>2299.1</ele>
        <time>2020-02-14T04:43:05.112Z</time>
      </trkpt>
      <trkpt lat="42.60819" lon="1.88737">
        <ele>2302.6</ele>
        <time>2020-02-14T04:43:06.315Z</time>
      </trkpt>
      <trkpt lat="42.60819" lon="1.88737">
        <ele>2301.6</ele>
        <time>2020-02-14T04:43:06.656Z</time>
      </trkpt>
      <trkpt lat="42.60819" lon="1.88737">
        <ele>2293.8</ele>
        <time>2020-02-14T04:43:09.361Z</time>
      </trkpt>
      <trkpt lat="42.60819" lon="1.88737">
        <ele>2300.6</ele>
        <time>2020-02-14T04:43:11.729Z</time>
      </trkpt>
      <trkpt lat="42.60819" lon="1.88737">
        <ele>2299.6</ele>
        <time>2020-02-14T04:43:12.083Z</time>
      </trkpt>
      <trkpt lat="42.6082" lon="1.88734">
        <ele>2298.2</ele>
        <time>2020-02-14T04:43:13.202Z</time>
      </trkpt>
      <trkpt lat="42.60825" lon="1.88721">
        <ele>2295.4</ele>
        <time>2020-02-14T04:43:17.500Z</time>
      </trkpt>
      <trkpt lat="42.60825" lon="1.88715">
        <ele>2294.4</ele>
        <time>2020-02-14T04:43:19.019Z</time>
      </trkpt>
      <trkpt lat="42.60831" lon="1.88704">
        <ele>2291.5</ele>
        <time>2020-02-14T04:43:23.234Z</time>
      </trkpt>
      <trkpt lat="42.60831" lon="1.8869">
        <ele>2288.6</ele>
        <time>2020-02-14T04:43:27.167Z</time>
      </trkpt>
      <trkpt lat="42.60832" lon="1.88688">
        <ele>2288.6</ele>
        <time>2020-02-14T04:43:27.995Z</time>
      </trkpt>
      <trkpt lat="42.60832" lon="1.88676">
        <ele>2287.2</ele>
        <time>2020-02-14T04:43:31.247Z</time>
      </trkpt>
      <trkpt lat="42.60833" lon="1.88665">
        <ele>2283.8</ele>
        <time>2020-02-14T04:43:34.537Z</time>
      </trkpt>
      <trkpt lat="42.60831" lon="1.88661">
        <ele>2281</ele>
        <time>2020-02-14T04:43:36.359Z</time>
      </trkpt>
      <trkpt lat="42.60831" lon="1.8866">
        <ele>2280.9</ele>
        <time>2020-02-14T04:43:36.620Z</time>
      </trkpt>
      <trkpt lat="42.60832" lon="1.88655">
        <ele>2277.5</ele>
        <time>2020-02-14T04:43:38.503Z</time>
      </trkpt>
      <trkpt lat="42.60836" lon="1.88656">
        <ele>2274.7</ele>
        <time>2020-02-14T04:43:40.410Z</time>
      </trkpt>
      <trkpt lat="42.60838" lon="1.88646">
        <ele>2271.8</ele>
        <time>2020-02-14T04:43:43.328Z</time>
      </trkpt>
      <trkpt lat="42.60837" lon="1.88642">
        <ele>2269.8</ele>
        <time>2020-02-14T04:43:44.785Z</time>
      </trkpt>
      <trkpt lat="42.60838" lon="1.88637">
        <ele>2266.6</ele>
        <time>2020-02-14T04:43:46.590Z</time>
      </trkpt>
      <trkpt lat="42.60838" lon="1.88633">
        <ele>2264.6</ele>
        <time>2020-02-14T04:43:47.851Z</time>
      </trkpt>
      <trkpt lat="42.60837" lon="1.88613">
        <ele>2260.7</ele>
        <time>2020-02-14T04:43:53.619Z</time>
      </trkpt>
      <trkpt lat="42.60833" lon="1.88608">
        <ele>2259.8</ele>
        <time>2020-02-14T04:43:55.727Z</time>
      </trkpt>
      <trkpt lat="42.60833" lon="1.88607">
        <ele>2259.8</ele>
        <time>2020-02-14T04:43:56.130Z</time>
      </trkpt>
      <trkpt lat="42.60828" lon="1.88602">
        <ele>2260.3</ele>
        <time>2020-02-14T04:43:58.275Z</time>
      </trkpt>
      <trkpt lat="42.60829" lon="1.88601">
        <ele>2258.8</ele>
        <time>2020-02-14T04:43:58.850Z</time>
      </trkpt>
      <trkpt lat="42.60831" lon="1.88599">
        <ele>2256.4</ele>
        <time>2020-02-14T04:44:00.158Z</time>
      </trkpt>
      <trkpt lat="42.60832" lon="1.88593">
        <ele>2254.5</ele>
        <time>2020-02-14T04:44:02.081Z</time>
      </trkpt>
      <trkpt lat="42.60833" lon="1.8859">
        <ele>2253.5</ele>
        <time>2020-02-14T04:44:02.916Z</time>
      </trkpt>
      <trkpt lat="42.60835" lon="1.88585">
        <ele>2252</ele>
        <time>2020-02-14T04:44:04.708Z</time>
      </trkpt>
      <trkpt lat="42.60834" lon="1.88581">
        <ele>2251.5</ele>
        <time>2020-02-14T04:44:05.750Z</time>
      </trkpt>
      <trkpt lat="42.60837" lon="1.88571">
        <ele>2248.8</ele>
        <time>2020-02-14T04:44:08.900Z</time>
      </trkpt>
      <trkpt lat="42.60842" lon="1.88563">
        <ele>2245.9</ele>
        <time>2020-02-14T04:44:12.044Z</time>
      </trkpt>
      <trkpt lat="42.60844" lon="1.88559">
        <ele>2242.4</ele>
        <time>2020-02-14T04:44:13.812Z</time>
      </trkpt>
      <trkpt lat="42.60845" lon="1.88551">
        <ele>2239.2</ele>
        <time>2020-02-14T04:44:16.517Z</time>
      </trkpt>
      <trkpt lat="42.60844" lon="1.88537">
        <ele>2237.6</ele>
        <time>2020-02-14T04:44:20.442Z</time>
      </trkpt>
      <trkpt lat="42.60846" lon="1.88534">
        <ele>2235.7</ele>
        <time>2020-02-14T04:44:21.723Z</time>
      </trkpt>
      <trkpt lat="42.6085" lon="1.88533">
        <ele>2234.2</ele>
        <time>2020-02-14T04:44:23.560Z</time>
      </trkpt>
      <trkpt lat="42.60847" lon="1.88525">
        <ele>2232.8</ele>
        <time>2020-02-14T04:44:26.146Z</time>
      </trkpt>
      <trkpt lat="42.60847" lon="1.88516">
        <ele>2229.1</ele>
        <time>2020-02-14T04:44:29.070Z</time>
      </trkpt>
      <trkpt lat="42.60848" lon="1.88513">
        <ele>2227</ele>
        <time>2020-02-14T04:44:30.264Z</time>
      </trkpt>
      <trkpt lat="42.60852" lon="1.88509">
        <ele>2224.7</ele>
        <time>2020-02-14T04:44:32.326Z</time>
      </trkpt>
      <trkpt lat="42.60856" lon="1.885">
        <ele>2222.8</ele>
        <time>2020-02-14T04:44:35.273Z</time>
      </trkpt>
      <trkpt lat="42.60862" lon="1.88487">
        <ele>2218.9</ele>
        <time>2020-02-14T04:44:39.910Z</time>
      </trkpt>
      <trkpt lat="42.60863" lon="1.88483">
        <ele>2215.5</ele>
        <time>2020-02-14T04:44:41.754Z</time>
      </trkpt>
      <trkpt lat="42.60865" lon="1.88476">
        <ele>2214.6</ele>
        <time>2020-02-14T04:44:43.617Z</time>
      </trkpt>
      <trkpt lat="42.60867" lon="1.88472">
        <ele>2211.2</ele>
        <time>2020-02-14T04:44:45.501Z</time>
      </trkpt>
      <trkpt lat="42.60871" lon="1.88463">
        <ele>2208.3</ele>
        <time>2020-02-14T04:44:48.597Z</time>
      </trkpt>
      <trkpt lat="42.60872" lon="1.88459">
        <ele>2205.9</ele>
        <time>2020-02-14T04:44:50.199Z</time>
      </trkpt>
      <trkpt lat="42.60871" lon="1.88456">
        <ele>2204.1</ele>
        <time>2020-02-14T04:44:51.182Z</time>
      </trkpt>
      <trkpt lat="42.60883" lon="1.88452">
        <ele>2202.1</ele>
        <time>2020-02-14T04:44:56.105Z</time>
      </trkpt>
      <trkpt lat="42.60883" lon="1.88457">
        <ele>2202.6</ele>
        <time>2020-02-14T04:44:57.480Z</time>
      </trkpt>
      <trkpt lat="42.60886" lon="1.88454">
        <ele>2201.7</ele>
        <time>2020-02-14T04:44:59.233Z</time>
      </trkpt>
      <trkpt lat="42.60887" lon="1.8845">
        <ele>2202.1</ele>
        <time>2020-02-14T04:45:00.301Z</time>
      </trkpt>
      <trkpt lat="42.60885" lon="1.88443">
        <ele>2202.1</ele>
        <time>2020-02-14T04:45:02.499Z</time>
      </trkpt>
      <trkpt lat="42.60892" lon="1.88432">
        <ele>2203.5</ele>
        <time>2020-02-14T04:45:06.570Z</time>
      </trkpt>
      <trkpt lat="42.60892" lon="1.88429">
        <ele>2203.1</ele>
        <time>2020-02-14T04:45:07.608Z</time>
      </trkpt>
      <trkpt lat="42.60885" lon="1.88418">
        <ele>2200.6</ele>
        <time>2020-02-14T04:45:11.656Z</time>
      </trkpt>
      <trkpt lat="42.60888" lon="1.88404">
        <ele>2199.6</ele>
        <time>2020-02-14T04:45:15.961Z</time>
      </trkpt>
      <trkpt lat="42.60879" lon="1.88395">
        <ele>2197.2</ele>
        <time>2020-02-14T04:45:20.294Z</time>
      </trkpt>
      <trkpt lat="42.60878" lon="1.88394">
        <ele>2196.8</ele>
        <time>2020-02-14T04:45:20.809Z</time>
      </trkpt>
      <trkpt lat="42.60877" lon="1.88383">
        <ele>2196.9</ele>
        <time>2020-02-14T04:45:23.953Z</time>
      </trkpt>
      <trkpt lat="42.60877" lon="1.88382">
        <ele>2196.8</ele>
        <time>2020-02-14T04:45:24.333Z</time>
      </trkpt>
      <trkpt lat="42.60876" lon="1.88368">
        <ele>2197.8</ele>
        <time>2020-02-14T04:45:28.399Z</time>
      </trkpt>
      <trkpt lat="42.60865" lon="1.88356">
        <ele>2197.7</ele>
        <time>2020-02-14T04:45:33.525Z</time>
      </trkpt>
      <trkpt lat="42.60864" lon="1.88351">
        <ele>2196.8</ele>
        <time>2020-02-14T04:45:35.088Z</time>
      </trkpt>
      <trkpt lat="42.60866" lon="1.8835">
        <ele>2193.5</ele>
        <time>2020-02-14T04:45:36.470Z</time>
      </trkpt>
      <trkpt lat="42.60865" lon="1.8835">
        <ele>2193</ele>
        <time>2020-02-14T04:45:36.733Z</time>
      </trkpt>
      <trkpt lat="42.60865" lon="1.88353">
        <ele>2189.5</ele>
        <time>2020-02-14T04:45:38.283Z</time>
      </trkpt>
      <trkpt lat="42.60864" lon="1.88353">
        <ele>2187.6</ele>
        <time>2020-02-14T04:45:39.018Z</time>
      </trkpt>
      <trkpt lat="42.6086" lon="1.88344">
        <ele>2186.7</ele>
        <time>2020-02-14T04:45:42.267Z</time>
      </trkpt>
      <trkpt lat="42.6086" lon="1.88338">
        <ele>2183.4</ele>
        <time>2020-02-14T04:45:44.168Z</time>
      </trkpt>
      <trkpt lat="42.60856" lon="1.88326">
        <ele>2183.4</ele>
        <time>2020-02-14T04:45:48.011Z</time>
      </trkpt>
      <trkpt lat="42.60841" lon="1.88305">
        <ele>2181.4</ele>
        <time>2020-02-14T04:45:56.448Z</time>
      </trkpt>
      <trkpt lat="42.60835" lon="1.88295">
        <ele>2175.7</ele>
        <time>2020-02-14T04:46:00.687Z</time>
      </trkpt>
      <trkpt lat="42.60833" lon="1.88293">
        <ele>2182.8</ele>
        <time>2020-02-14T04:46:03.265Z</time>
      </trkpt>
      <trkpt lat="42.60832" lon="1.88292">
        <ele>2178.6</ele>
        <time>2020-02-14T04:46:04.918Z</time>
      </trkpt>
      <trkpt lat="42.60831" lon="1.8829">
        <ele>2183.9</ele>
        <time>2020-02-14T04:46:06.823Z</time>
      </trkpt>
      <trkpt lat="42.6083" lon="1.88289">
        <ele>2172.8</ele>
        <time>2020-02-14T04:46:10.702Z</time>
      </trkpt>
      <trkpt lat="42.60829" lon="1.88288">
        <ele>2182.8</ele>
        <time>2020-02-14T04:46:14.214Z</time>
      </trkpt>
      <trkpt lat="42.60829" lon="1.88288">
        <ele>2187.1</ele>
        <time>2020-02-14T04:46:15.733Z</time>
      </trkpt>
      <trkpt lat="42.60828" lon="1.88287">
        <ele>2181.4</ele>
        <time>2020-02-14T04:46:17.737Z</time>
      </trkpt>
      <trkpt lat="42.60828" lon="1.88287">
        <ele>2181.4</ele>
        <time>2020-02-14T04:46:17.889Z</time>
      </trkpt>
      <trkpt lat="42.60827" lon="1.88274">
        <ele>2180.4</ele>
        <time>2020-02-14T04:46:21.570Z</time>
      </trkpt>
      <trkpt lat="42.60826" lon="1.88269">
        <ele>2185.7</ele>
        <time>2020-02-14T04:46:23.913Z</time>
      </trkpt>
      <trkpt lat="42.60827" lon="1.88267">
        <ele>2181.9</ele>
        <time>2020-02-14T04:46:25.384Z</time>
      </trkpt>
      <trkpt lat="42.60827" lon="1.88265">
        <ele>2182</ele>
        <time>2020-02-14T04:46:26.037Z</time>
      </trkpt>
      <trkpt lat="42.60831" lon="1.8825">
        <ele>2180.9</ele>
        <time>2020-02-14T04:46:30.479Z</time>
      </trkpt>
      <trkpt lat="42.6083" lon="1.88237">
        <ele>2180</ele>
        <time>2020-02-14T04:46:34.309Z</time>
      </trkpt>
      <trkpt lat="42.60826" lon="1.88223">
        <ele>2180.4</ele>
        <time>2020-02-14T04:46:38.570Z</time>
      </trkpt>
      <trkpt lat="42.60819" lon="1.8821">
        <ele>2180.5</ele>
        <time>2020-02-14T04:46:43.051Z</time>
      </trkpt>
      <trkpt lat="42.60814" lon="1.882">
        <ele>2179.9</ele>
        <time>2020-02-14T04:46:46.506Z</time>
      </trkpt>
      <trkpt lat="42.60814" lon="1.88199">
        <ele>2180.4</ele>
        <time>2020-02-14T04:46:46.955Z</time>
      </trkpt>
      <trkpt lat="42.60811" lon="1.88193">
        <ele>2180.4</ele>
        <time>2020-02-14T04:46:48.762Z</time>
      </trkpt>
      <trkpt lat="42.60808" lon="1.88188">
        <ele>2177.1</ele>
        <time>2020-02-14T04:46:51.031Z</time>
      </trkpt>
      <trkpt lat="42.60805" lon="1.88176">
        <ele>2178.1</ele>
        <time>2020-02-14T04:46:54.754Z</time>
      </trkpt>
      <trkpt lat="42.60802" lon="1.88161">
        <ele>2180.5</ele>
        <time>2020-02-14T04:46:59.052Z</time>
      </trkpt>
      <trkpt lat="42.60794" lon="1.88159">
        <ele>2180.5</ele>
        <time>2020-02-14T04:47:02.214Z</time>
      </trkpt>
      <trkpt lat="42.60786" lon="1.88148">
        <ele>2179.6</ele>
        <time>2020-02-14T04:47:06.608Z</time>
      </trkpt>
      <trkpt lat="42.60781" lon="1.88146">
        <ele>2177</ele>
        <time>2020-02-14T04:47:08.938Z</time>
      </trkpt>
      <trkpt lat="42.60771" lon="1.88137">
        <ele>2175.7</ele>
        <time>2020-02-14T04:47:13.294Z</time>
      </trkpt>
      <trkpt lat="42.60767" lon="1.88138">
        <ele>2173.7</ele>
        <time>2020-02-14T04:47:15.102Z</time>
      </trkpt>
      <trkpt lat="42.60752" lon="1.88126">
        <ele>2171.3</ele>
        <time>2020-02-14T04:47:21.812Z</time>
      </trkpt>
      <trkpt lat="42.6075" lon="1.88123">
        <ele>2170.8</ele>
        <time>2020-02-14T04:47:23.083Z</time>
      </trkpt>
      <trkpt lat="42.60744" lon="1.88117">
        <ele>2169.9</ele>
        <time>2020-02-14T04:47:26.060Z</time>
      </trkpt>
      <trkpt lat="42.60734" lon="1.88112">
        <ele>2168.4</ele>
        <time>2020-02-14T04:47:30.134Z</time>
      </trkpt>
      <trkpt lat="42.60732" lon="1.88099">
        <ele>2167.5</ele>
        <time>2020-02-14T04:47:33.897Z</time>
      </trkpt>
      <trkpt lat="42.60733" lon="1.88095">
        <ele>2166.5</ele>
        <time>2020-02-14T04:47:35.219Z</time>
      </trkpt>
      <trkpt lat="42.60732" lon="1.88093">
        <ele>2165.6</ele>
        <time>2020-02-14T04:47:36.016Z</time>
      </trkpt>
      <trkpt lat="42.60727" lon="1.88087">
        <ele>2163.7</ele>
        <time>2020-02-14T04:47:38.413Z</time>
      </trkpt>
      <trkpt lat="42.60723" lon="1.88075">
        <ele>2162.1</ele>
        <time>2020-02-14T04:47:42.349Z</time>
      </trkpt>
      <trkpt lat="42.6072" lon="1.88075">
        <ele>2161.8</ele>
        <time>2020-02-14T04:47:43.554Z</time>
      </trkpt>
      <trkpt lat="42.60705" lon="1.88067">
        <ele>2158.3</ele>
        <time>2020-02-14T04:47:49.926Z</time>
      </trkpt>
      <trkpt lat="42.60696" lon="1.88058">
        <ele>2155.9</ele>
        <time>2020-02-14T04:47:54.270Z</time>
      </trkpt>
      <trkpt lat="42.60692" lon="1.88056">
        <ele>2152.5</ele>
        <time>2020-02-14T04:47:56.376Z</time>
      </trkpt>
      <trkpt lat="42.60691" lon="1.88056">
        <ele>2154.5</ele>
        <time>2020-02-14T04:47:57.193Z</time>
      </trkpt>
      <trkpt lat="42.60689" lon="1.88053">
        <ele>2155.5</ele>
        <time>2020-02-14T04:47:58.208Z</time>
      </trkpt>
      <trkpt lat="42.60688" lon="1.88052">
        <ele>2147.3</ele>
        <time>2020-02-14T04:48:01.104Z</time>
      </trkpt>
      <trkpt lat="42.60687" lon="1.88051">
        <ele>2157.3</ele>
        <time>2020-02-14T04:48:04.621Z</time>
      </trkpt>
      <trkpt lat="42.60682" lon="1.88047">
        <ele>2145.8</ele>
        <time>2020-02-14T04:48:09.186Z</time>
      </trkpt>
      <trkpt lat="42.60681" lon="1.88047">
        <ele>2156.9</ele>
        <time>2020-02-14T04:48:13.082Z</time>
      </trkpt>
      <trkpt lat="42.60677" lon="1.88043">
        <ele>2155.4</ele>
        <time>2020-02-14T04:48:15.075Z</time>
      </trkpt>
      <trkpt lat="42.6067" lon="1.88041">
        <ele>2155.5</ele>
        <time>2020-02-14T04:48:17.816Z</time>
      </trkpt>
      <trkpt lat="42.6067" lon="1.88038">
        <ele>2160.8</ele>
        <time>2020-02-14T04:48:19.805Z</time>
      </trkpt>
      <trkpt lat="42.60669" lon="1.88036">
        <ele>2155.9</ele>
        <time>2020-02-14T04:48:21.571Z</time>
      </trkpt>
      <trkpt lat="42.60669" lon="1.88031">
        <ele>2155.4</ele>
        <time>2020-02-14T04:48:23.091Z</time>
      </trkpt>
      <trkpt lat="42.60665" lon="1.88022">
        <ele>2154.9</ele>
        <time>2020-02-14T04:48:26.105Z</time>
      </trkpt>
      <trkpt lat="42.60658" lon="1.88012">
        <ele>2155</ele>
        <time>2020-02-14T04:48:29.935Z</time>
      </trkpt>
      <trkpt lat="42.6065" lon="1.88001">
        <ele>2155.5</ele>
        <time>2020-02-14T04:48:34.486Z</time>
      </trkpt>
      <trkpt lat="42.60641" lon="1.87984">
        <ele>2156.4</ele>
        <time>2020-02-14T04:48:40.493Z</time>
      </trkpt>
      <trkpt lat="42.60637" lon="1.87977">
        <ele>2156.5</ele>
        <time>2020-02-14T04:48:42.964Z</time>
      </trkpt>
      <trkpt lat="42.60631" lon="1.87967">
        <ele>2155.9</ele>
        <time>2020-02-14T04:48:46.473Z</time>
      </trkpt>
      <trkpt lat="42.60627" lon="1.87959">
        <ele>2155.9</ele>
        <time>2020-02-14T04:48:49.344Z</time>
      </trkpt>
      <trkpt lat="42.60621" lon="1.87948">
        <ele>2155.5</ele>
        <time>2020-02-14T04:48:53.306Z</time>
      </trkpt>
      <trkpt lat="42.60616" lon="1.87942">
        <ele>2154.9</ele>
        <time>2020-02-14T04:48:55.741Z</time>
      </trkpt>
      <trkpt lat="42.60609" lon="1.87927">
        <ele>2154</ele>
        <time>2020-02-14T04:49:00.953Z</time>
      </trkpt>
      <trkpt lat="42.60601" lon="1.87918">
        <ele>2151.6</ele>
        <time>2020-02-14T04:49:05.051Z</time>
      </trkpt>
      <trkpt lat="42.60596" lon="1.8791">
        <ele>2150.1</ele>
        <time>2020-02-14T04:49:08.026Z</time>
      </trkpt>
      <trkpt lat="42.60593" lon="1.87908">
        <ele>2148.7</ele>
        <time>2020-02-14T04:49:09.321Z</time>
      </trkpt>
      <trkpt lat="42.60587" lon="1.87899">
        <ele>2146.3</ele>
        <time>2020-02-14T04:49:12.975Z</time>
      </trkpt>
      <trkpt lat="42.60583" lon="1.87891">
        <ele>2143.4</ele>
        <time>2020-02-14T04:49:15.772Z</time>
      </trkpt>
      <trkpt lat="42.60579" lon="1.87884">
        <ele>2139.6</ele>
        <time>2020-02-14T04:49:18.536Z</time>
      </trkpt>
      <trkpt lat="42.60577" lon="1.87884">
        <ele>2138.7</ele>
        <time>2020-02-14T04:49:19.629Z</time>
      </trkpt>
      <trkpt lat="42.6057" lon="1.87875">
        <ele>2136.8</ele>
        <time>2020-02-14T04:49:23.219Z</time>
      </trkpt>
      <trkpt lat="42.60569" lon="1.87867">
        <ele>2136.3</ele>
        <time>2020-02-14T04:49:25.718Z</time>
      </trkpt>
      <trkpt lat="42.60568" lon="1.87854">
        <ele>2136.7</ele>
        <time>2020-02-14T04:49:29.250Z</time>
      </trkpt>
      <trkpt lat="42.60569" lon="1.87846">
        <ele>2136.2</ele>
        <time>2020-02-14T04:49:31.656Z</time>
      </trkpt>
      <trkpt lat="42.60565" lon="1.87839">
        <ele>2135.2</ele>
        <time>2020-02-14T04:49:34.174Z</time>
      </trkpt>
      <trkpt lat="42.6056" lon="1.87826">
        <ele>2136.3</ele>
        <time>2020-02-14T04:49:38.292Z</time>
      </trkpt>
      <trkpt lat="42.6056" lon="1.87825">
        <ele>2135.7</ele>
        <time>2020-02-14T04:49:38.566Z</time>
      </trkpt>
      <trkpt lat="42.6056" lon="1.87822">
        <ele>2136.3</ele>
        <time>2020-02-14T04:49:39.557Z</time>
      </trkpt>
      <trkpt lat="42.60555" lon="1.87815">
        <ele>2134.7</ele>
        <time>2020-02-14T04:49:42.442Z</time>
      </trkpt>
      <trkpt lat="42.60554" lon="1.8781">
        <ele>2134.7</ele>
        <time>2020-02-14T04:49:43.848Z</time>
      </trkpt>
      <trkpt lat="42.60553" lon="1.87803">
        <ele>2135.7</ele>
        <time>2020-02-14T04:49:45.796Z</time>
      </trkpt>
      <trkpt lat="42.60549" lon="1.878">
        <ele>2140.5</ele>
        <time>2020-02-14T04:49:48.215Z</time>
      </trkpt>
      <trkpt lat="42.60548" lon="1.87798">
        <ele>2135.7</ele>
        <time>2020-02-14T04:49:50.046Z</time>
      </trkpt>
      <trkpt lat="42.60545" lon="1.87797">
        <ele>2132</ele>
        <time>2020-02-14T04:49:51.747Z</time>
      </trkpt>
      <trkpt lat="42.60544" lon="1.87796">
        <ele>2140</ele>
        <time>2020-02-14T04:49:54.594Z</time>
      </trkpt>
      <trkpt lat="42.60543" lon="1.87794">
        <ele>2135.2</ele>
        <time>2020-02-14T04:49:56.357Z</time>
      </trkpt>
      <trkpt lat="42.60539" lon="1.87789">
        <ele>2139.7</ele>
        <time>2020-02-14T04:49:58.913Z</time>
      </trkpt>
      <trkpt lat="42.60538" lon="1.87788">
        <ele>2135.2</ele>
        <time>2020-02-14T04:50:00.538Z</time>
      </trkpt>
      <trkpt lat="42.60529" lon="1.87776">
        <ele>2134.3</ele>
        <time>2020-02-14T04:50:05.639Z</time>
      </trkpt>
      <trkpt lat="42.60526" lon="1.87772">
        <ele>2134.7</ele>
        <time>2020-02-14T04:50:07.024Z</time>
      </trkpt>
      <trkpt lat="42.60523" lon="1.87765">
        <ele>2133.9</ele>
        <time>2020-02-14T04:50:09.335Z</time>
      </trkpt>
      <trkpt lat="42.60518" lon="1.87754">
        <ele>2132.4</ele>
        <time>2020-02-14T04:50:13.178Z</time>
      </trkpt>
      <trkpt lat="42.60516" lon="1.8775">
        <ele>2131.4</ele>
        <time>2020-02-14T04:50:14.799Z</time>
      </trkpt>
      <trkpt lat="42.60509" lon="1.87738">
        <ele>2130.9</ele>
        <time>2020-02-14T04:50:19.063Z</time>
      </trkpt>
      <trkpt lat="42.60507" lon="1.87731">
        <ele>2130.9</ele>
        <time>2020-02-14T04:50:21.040Z</time>
      </trkpt>
      <trkpt lat="42.60511" lon="1.87724">
        <ele>2129.9</ele>
        <time>2020-02-14T04:50:23.558Z</time>
      </trkpt>
      <trkpt lat="42.60507" lon="1.87715">
        <ele>2129.5</ele>
        <time>2020-02-14T04:50:26.611Z</time>
      </trkpt>
      <trkpt lat="42.60502" lon="1.877">
        <ele>2128</ele>
        <time>2020-02-14T04:50:31.250Z</time>
      </trkpt>
      <trkpt lat="42.60501" lon="1.87691">
        <ele>2128.1</ele>
        <time>2020-02-14T04:50:33.827Z</time>
      </trkpt>
      <trkpt lat="42.60501" lon="1.87689">
        <ele>2128.1</ele>
        <time>2020-02-14T04:50:34.493Z</time>
      </trkpt>
      <trkpt lat="42.60503" lon="1.8769">
        <ele>2128.1</ele>
        <time>2020-02-14T04:50:35.516Z</time>
      </trkpt>
      <trkpt lat="42.60503" lon="1.87685">
        <ele>2127.6</ele>
        <time>2020-02-14T04:50:36.850Z</time>
      </trkpt>
      <trkpt lat="42.60502" lon="1.87682">
        <ele>2127.1</ele>
        <time>2020-02-14T04:50:37.898Z</time>
      </trkpt>
      <trkpt lat="42.60504" lon="1.87674">
        <ele>2129.1</ele>
        <time>2020-02-14T04:50:40.268Z</time>
      </trkpt>
      <trkpt lat="42.60495" lon="1.87664">
        <ele>2126.7</ele>
        <time>2020-02-14T04:50:44.827Z</time>
      </trkpt>
      <trkpt lat="42.60493" lon="1.8766">
        <ele>2126.6</ele>
        <time>2020-02-14T04:50:46.205Z</time>
      </trkpt>
      <trkpt lat="42.60488" lon="1.87647">
        <ele>2125.6</ele>
        <time>2020-02-14T04:50:50.214Z</time>
      </trkpt>
      <trkpt lat="42.60487" lon="1.87641">
        <ele>2125.6</ele>
        <time>2020-02-14T04:50:52.032Z</time>
      </trkpt>
      <trkpt lat="42.60482" lon="1.87629">
        <ele>2125.2</ele>
        <time>2020-02-14T04:50:56.003Z</time>
      </trkpt>
      <trkpt lat="42.60478" lon="1.8762">
        <ele>2124.7</ele>
        <time>2020-02-14T04:50:59.099Z</time>
      </trkpt>
      <trkpt lat="42.60475" lon="1.87615">
        <ele>2125.2</ele>
        <time>2020-02-14T04:51:00.914Z</time>
      </trkpt>
      <trkpt lat="42.60472" lon="1.87609">
        <ele>2125.2</ele>
        <time>2020-02-14T04:51:02.869Z</time>
      </trkpt>
      <trkpt lat="42.60457" lon="1.87598">
        <ele>2123.8</ele>
        <time>2020-02-14T04:51:09.332Z</time>
      </trkpt>
      <trkpt lat="42.60447" lon="1.87586">
        <ele>2122.4</ele>
        <time>2020-02-14T04:51:14.703Z</time>
      </trkpt>
      <trkpt lat="42.60441" lon="1.87582">
        <ele>2119.9</ele>
        <time>2020-02-14T04:51:17.380Z</time>
      </trkpt>
      <trkpt lat="42.60437" lon="1.87574">
        <ele>2118.9</ele>
        <time>2020-02-14T04:51:20.148Z</time>
      </trkpt>
      <trkpt lat="42.60436" lon="1.87575">
        <ele>2117.9</ele>
        <time>2020-02-14T04:51:20.624Z</time>
      </trkpt>
      <trkpt lat="42.60433" lon="1.87572">
        <ele>2117.9</ele>
        <time>2020-02-14T04:51:22.062Z</time>
      </trkpt>
      <trkpt lat="42.60432" lon="1.87562">
        <ele>2117</ele>
        <time>2020-02-14T04:51:24.986Z</time>
      </trkpt>
      <trkpt lat="42.60433" lon="1.87555">
        <ele>2117.5</ele>
        <time>2020-02-14T04:51:26.876Z</time>
      </trkpt>
      <trkpt lat="42.60434" lon="1.87553">
        <ele>2120.4</ele>
        <time>2020-02-14T04:51:28.109Z</time>
      </trkpt>
      <trkpt lat="42.60427" lon="1.87543">
        <ele>2117.5</ele>
        <time>2020-02-14T04:51:31.957Z</time>
      </trkpt>
      <trkpt lat="42.60421" lon="1.87525">
        <ele>2116.6</ele>
        <time>2020-02-14T04:51:37.502Z</time>
      </trkpt>
      <trkpt lat="42.6042" lon="1.87521">
        <ele>2116.6</ele>
        <time>2020-02-14T04:51:38.747Z</time>
      </trkpt>
      <trkpt lat="42.60418" lon="1.87508">
        <ele>2113.7</ele>
        <time>2020-02-14T04:51:42.501Z</time>
      </trkpt>
      <trkpt lat="42.60418" lon="1.87489">
        <ele>2117.4</ele>
        <time>2020-02-14T04:51:48.089Z</time>
      </trkpt>
      <trkpt lat="42.60416" lon="1.87475">
        <ele>2117.5</ele>
        <time>2020-02-14T04:51:52.155Z</time>
      </trkpt>
      <trkpt lat="42.60409" lon="1.87463">
        <ele>2117.5</ele>
        <time>2020-02-14T04:51:56.669Z</time>
      </trkpt>
      <trkpt lat="42.60406" lon="1.87458">
        <ele>2117.4</ele>
        <time>2020-02-14T04:51:58.295Z</time>
      </trkpt>
      <trkpt lat="42.60406" lon="1.87455">
        <ele>2117</ele>
        <time>2020-02-14T04:51:59.201Z</time>
      </trkpt>
      <trkpt lat="42.60405" lon="1.87449">
        <ele>2116.5</ele>
        <time>2020-02-14T04:52:01.015Z</time>
      </trkpt>
      <trkpt lat="42.60405" lon="1.87443">
        <ele>2116</ele>
        <time>2020-02-14T04:52:02.598Z</time>
      </trkpt>
      <trkpt lat="42.60404" lon="1.87438">
        <ele>2116.1</ele>
        <time>2020-02-14T04:52:04.311Z</time>
      </trkpt>
      <trkpt lat="42.60401" lon="1.87433">
        <ele>2116</ele>
        <time>2020-02-14T04:52:06.055Z</time>
      </trkpt>
      <trkpt lat="42.60393" lon="1.87417">
        <ele>2114.6</ele>
        <time>2020-02-14T04:52:11.513Z</time>
      </trkpt>
      <trkpt lat="42.60388" lon="1.87401">
        <ele>2112.3</ele>
        <time>2020-02-14T04:52:16.453Z</time>
      </trkpt>
      <trkpt lat="42.60382" lon="1.87388">
        <ele>2110.7</ele>
        <time>2020-02-14T04:52:20.857Z</time>
      </trkpt>
      <trkpt lat="42.60381" lon="1.8738">
        <ele>2108.8</ele>
        <time>2020-02-14T04:52:23.397Z</time>
      </trkpt>
      <trkpt lat="42.6038" lon="1.87372">
        <ele>2106.5</ele>
        <time>2020-02-14T04:52:25.726Z</time>
      </trkpt>
      <trkpt lat="42.60377" lon="1.87363">
        <ele>2104.9</ele>
        <time>2020-02-14T04:52:28.566Z</time>
      </trkpt>
      <trkpt lat="42.60376" lon="1.87353">
        <ele>2103.5</ele>
        <time>2020-02-14T04:52:31.653Z</time>
      </trkpt>
      <trkpt lat="42.60373" lon="1.87335">
        <ele>2101.7</ele>
        <time>2020-02-14T04:52:36.929Z</time>
      </trkpt>
      <trkpt lat="42.60371" lon="1.87328">
        <ele>2101.7</ele>
        <time>2020-02-14T04:52:39.119Z</time>
      </trkpt>
      <trkpt lat="42.60369" lon="1.8732">
        <ele>2100.7</ele>
        <time>2020-02-14T04:52:41.453Z</time>
      </trkpt>
      <trkpt lat="42.6036" lon="1.87299">
        <ele>2098.7</ele>
        <time>2020-02-14T04:52:48.419Z</time>
      </trkpt>
      <trkpt lat="42.60358" lon="1.87294">
        <ele>2097.3</ele>
        <time>2020-02-14T04:52:50.174Z</time>
      </trkpt>
      <trkpt lat="42.60356" lon="1.87288">
        <ele>2096.4</ele>
        <time>2020-02-14T04:52:51.939Z</time>
      </trkpt>
      <trkpt lat="42.60357" lon="1.87285">
        <ele>2096.3</ele>
        <time>2020-02-14T04:52:52.840Z</time>
      </trkpt>
      <trkpt lat="42.60354" lon="1.87277">
        <ele>2095</ele>
        <time>2020-02-14T04:52:55.601Z</time>
      </trkpt>
      <trkpt lat="42.60355" lon="1.87263">
        <ele>2093.4</ele>
        <time>2020-02-14T04:52:59.519Z</time>
      </trkpt>
      <trkpt lat="42.60355" lon="1.87258">
        <ele>2092.9</ele>
        <time>2020-02-14T04:53:01.006Z</time>
      </trkpt>
      <trkpt lat="42.60356" lon="1.87252">
        <ele>2092.5</ele>
        <time>2020-02-14T04:53:02.679Z</time>
      </trkpt>
      <trkpt lat="42.60356" lon="1.87248">
        <ele>2091.5</ele>
        <time>2020-02-14T04:53:03.992Z</time>
      </trkpt>
      <trkpt lat="42.60357" lon="1.87236">
        <ele>2089.7</ele>
        <time>2020-02-14T04:53:07.605Z</time>
      </trkpt>
      <trkpt lat="42.60357" lon="1.87235">
        <ele>2089.1</ele>
        <time>2020-02-14T04:53:07.905Z</time>
      </trkpt>
      <trkpt lat="42.60359" lon="1.87229">
        <ele>2087.7</ele>
        <time>2020-02-14T04:53:09.774Z</time>
      </trkpt>
      <trkpt lat="42.60356" lon="1.87227">
        <ele>2086.7</ele>
        <time>2020-02-14T04:53:11.131Z</time>
      </trkpt>
      <trkpt lat="42.60354" lon="1.87217">
        <ele>2085.7</ele>
        <time>2020-02-14T04:53:13.947Z</time>
      </trkpt>
      <trkpt lat="42.60351" lon="1.87208">
        <ele>2082.8</ele>
        <time>2020-02-14T04:53:17.062Z</time>
      </trkpt>
      <trkpt lat="42.60346" lon="1.87203">
        <ele>2079.5</ele>
        <time>2020-02-14T04:53:19.607Z</time>
      </trkpt>
      <trkpt lat="42.60338" lon="1.87193">
        <ele>2077.2</ele>
        <time>2020-02-14T04:53:23.829Z</time>
      </trkpt>
      <trkpt lat="42.60338" lon="1.87192">
        <ele>2076.6</ele>
        <time>2020-02-14T04:53:24.264Z</time>
      </trkpt>
      <trkpt lat="42.60334" lon="1.87181">
        <ele>2073.7</ele>
        <time>2020-02-14T04:53:27.961Z</time>
      </trkpt>
      <trkpt lat="42.6033" lon="1.87171">
        <ele>2071.3</ele>
        <time>2020-02-14T04:53:31.312Z</time>
      </trkpt>
      <trkpt lat="42.6033" lon="1.87159">
        <ele>2070</ele>
        <time>2020-02-14T04:53:34.670Z</time>
      </trkpt>
      <trkpt lat="42.60326" lon="1.87153">
        <ele>2067.1</ele>
        <time>2020-02-14T04:53:37.031Z</time>
      </trkpt>
      <trkpt lat="42.60326" lon="1.87148">
        <ele>2067.1</ele>
        <time>2020-02-14T04:53:38.541Z</time>
      </trkpt>
      <trkpt lat="42.60325" lon="1.87146">
        <ele>2070.4</ele>
        <time>2020-02-14T04:53:39.858Z</time>
      </trkpt>
      <trkpt lat="42.60325" lon="1.87145">
        <ele>2067.1</ele>
        <time>2020-02-14T04:53:41.026Z</time>
      </trkpt>
      <trkpt lat="42.6032" lon="1.87133">
        <ele>2065.1</ele>
        <time>2020-02-14T04:53:45.142Z</time>
      </trkpt>
      <trkpt lat="42.60316" lon="1.87125">
        <ele>2062.3</ele>
        <time>2020-02-14T04:53:48.170Z</time>
      </trkpt>
      <trkpt lat="42.60315" lon="1.87118">
        <ele>2061.7</ele>
        <time>2020-02-14T04:53:50.096Z</time>
      </trkpt>
      <trkpt lat="42.60311" lon="1.87112">
        <ele>2060.2</ele>
        <time>2020-02-14T04:53:52.395Z</time>
      </trkpt>
      <trkpt lat="42.60309" lon="1.87102">
        <ele>2058.8</ele>
        <time>2020-02-14T04:53:55.319Z</time>
      </trkpt>
      <trkpt lat="42.60305" lon="1.87094">
        <ele>2057.8</ele>
        <time>2020-02-14T04:53:58.231Z</time>
      </trkpt>
      <trkpt lat="42.60299" lon="1.87087">
        <ele>2057.9</ele>
        <time>2020-02-14T04:54:01.304Z</time>
      </trkpt>
      <trkpt lat="42.60298" lon="1.87082">
        <ele>2056.4</ele>
        <time>2020-02-14T04:54:02.694Z</time>
      </trkpt>
      <trkpt lat="42.60295" lon="1.87072">
        <ele>2056</ele>
        <time>2020-02-14T04:54:05.728Z</time>
      </trkpt>
      <trkpt lat="42.60293" lon="1.87068">
        <ele>2055.5</ele>
        <time>2020-02-14T04:54:07.183Z</time>
      </trkpt>
      <trkpt lat="42.60292" lon="1.87059">
        <ele>2053.5</ele>
        <time>2020-02-14T04:54:09.728Z</time>
      </trkpt>
      <trkpt lat="42.6029" lon="1.87056">
        <ele>2053.1</ele>
        <time>2020-02-14T04:54:11.024Z</time>
      </trkpt>
      <trkpt lat="42.60289" lon="1.87038">
        <ele>2050.3</ele>
        <time>2020-02-14T04:54:16.326Z</time>
      </trkpt>
      <trkpt lat="42.6029" lon="1.87023">
        <ele>2047.8</ele>
        <time>2020-02-14T04:54:20.484Z</time>
      </trkpt>
      <trkpt lat="42.60288" lon="1.87014">
        <ele>2045.3</ele>
        <time>2020-02-14T04:54:23.243Z</time>
      </trkpt>
      <trkpt lat="42.60288" lon="1.87006">
        <ele>2044.4</ele>
        <time>2020-02-14T04:54:25.746Z</time>
      </trkpt>
      <trkpt lat="42.60287" lon="1.8699">
        <ele>2041.6</ele>
        <time>2020-02-14T04:54:30.273Z</time>
      </trkpt>
      <trkpt lat="42.60288" lon="1.86983">
        <ele>2040.6</ele>
        <time>2020-02-14T04:54:32.489Z</time>
      </trkpt>
      <trkpt lat="42.60287" lon="1.8697">
        <ele>2040.2</ele>
        <time>2020-02-14T04:54:36.054Z</time>
      </trkpt>
      <trkpt lat="42.60289" lon="1.86954">
        <ele>2038.2</ele>
        <time>2020-02-14T04:54:40.785Z</time>
      </trkpt>
      <trkpt lat="42.60289" lon="1.86948">
        <ele>2037.3</ele>
        <time>2020-02-14T04:54:42.486Z</time>
      </trkpt>
      <trkpt lat="42.60294" lon="1.86937">
        <ele>2038.2</ele>
        <time>2020-02-14T04:54:46.058Z</time>
      </trkpt>
      <trkpt lat="42.60294" lon="1.86937">
        <ele>2033.9</ele>
        <time>2020-02-14T04:54:47.561Z</time>
      </trkpt>
      <trkpt lat="42.60294" lon="1.86937">
        <ele>2036.3</ele>
        <time>2020-02-14T04:54:48.401Z</time>
      </trkpt>
      <trkpt lat="42.60294" lon="1.86937">
        <ele>2043.4</ele>
        <time>2020-02-14T04:54:50.880Z</time>
      </trkpt>
      <trkpt lat="42.60294" lon="1.86937">
        <ele>2036.2</ele>
        <time>2020-02-14T04:54:53.379Z</time>
      </trkpt>
      <trkpt lat="42.60294" lon="1.86937">
        <ele>2039.6</ele>
        <time>2020-02-14T04:54:54.558Z</time>
      </trkpt>
      <trkpt lat="42.60294" lon="1.86937">
        <ele>2042.9</ele>
        <time>2020-02-14T04:54:55.708Z</time>
      </trkpt>
      <trkpt lat="42.60294" lon="1.86937">
        <ele>2038.2</ele>
        <time>2020-02-14T04:54:57.363Z</time>
      </trkpt>
      <trkpt lat="42.60294" lon="1.86937">
        <ele>2043</ele>
        <time>2020-02-14T04:54:59.043Z</time>
      </trkpt>
      <trkpt lat="42.60294" lon="1.86937">
        <ele>2032</ele>
        <time>2020-02-14T04:55:02.862Z</time>
      </trkpt>
      <trkpt lat="42.60294" lon="1.86937">
        <ele>2035.7</ele>
        <time>2020-02-14T04:55:04.157Z</time>
      </trkpt>
      <trkpt lat="42.60294" lon="1.86937">
        <ele>2040.2</ele>
        <time>2020-02-14T04:55:05.705Z</time>
      </trkpt>
      <trkpt lat="42.60294" lon="1.86937">
        <ele>2032.9</ele>
        <time>2020-02-14T04:55:08.237Z</time>
      </trkpt>
      <trkpt lat="42.60294" lon="1.86937">
        <ele>2039.7</ele>
        <time>2020-02-14T04:55:10.595Z</time>
      </trkpt>
      <trkpt lat="42.60294" lon="1.86937">
        <ele>2030.9</ele>
        <time>2020-02-14T04:55:13.632Z</time>
      </trkpt>
      <trkpt lat="42.60294" lon="1.86937">
        <ele>2040.1</ele>
        <time>2020-02-14T04:55:16.825Z</time>
      </trkpt>
      <trkpt lat="42.60294" lon="1.86937">
        <ele>2034.3</ele>
        <time>2020-02-14T04:55:18.843Z</time>
      </trkpt>
      <trkpt lat="42.60294" lon="1.86937">
        <ele>2038.6</ele>
        <time>2020-02-14T04:55:20.343Z</time>
      </trkpt>
      <trkpt lat="42.60294" lon="1.86937">
        <ele>2030.9</ele>
        <time>2020-02-14T04:55:23.010Z</time>
      </trkpt>
      <trkpt lat="42.60294" lon="1.86937">
        <ele>2039.6</ele>
        <time>2020-02-14T04:55:26.032Z</time>
      </trkpt>
      <trkpt lat="42.60294" lon="1.86937">
        <ele>2032.5</ele>
        <time>2020-02-14T04:55:28.521Z</time>
      </trkpt>
      <trkpt lat="42.60294" lon="1.86937">
        <ele>2038.1</ele>
        <time>2020-02-14T04:55:30.483Z</time>
      </trkpt>
      <trkpt lat="42.60294" lon="1.86937">
        <ele>2045.9</ele>
        <time>2020-02-14T04:55:33.180Z</time>
      </trkpt>
      <trkpt lat="42.60294" lon="1.86937">
        <ele>2038.7</ele>
        <time>2020-02-14T04:55:35.694Z</time>
      </trkpt>
      <trkpt lat="42.60294" lon="1.86937">
        <ele>2046.4</ele>
        <time>2020-02-14T04:55:38.378Z</time>
      </trkpt>
      <trkpt lat="42.60294" lon="1.86937">
        <ele>2038.1</ele>
        <time>2020-02-14T04:55:41.238Z</time>
      </trkpt>
      <trkpt lat="42.60295" lon="1.86933">
        <ele>2040.5</ele>
        <time>2020-02-14T04:55:42.559Z</time>
      </trkpt>
      <trkpt lat="42.60297" lon="1.86925">
        <ele>2038.1</ele>
        <time>2020-02-14T04:55:45.041Z</time>
      </trkpt>
      <trkpt lat="42.60303" lon="1.86913">
        <ele>2041.5</ele>
        <time>2020-02-14T04:55:49.505Z</time>
      </trkpt>
      <trkpt lat="42.60309" lon="1.86903">
        <ele>2044.5</ele>
        <time>2020-02-14T04:55:53.272Z</time>
      </trkpt>
      <trkpt lat="42.6031" lon="1.86898">
        <ele>2045.9</ele>
        <time>2020-02-14T04:55:54.882Z</time>
      </trkpt>
      <trkpt lat="42.60314" lon="1.86887">
        <ele>2048.3</ele>
        <time>2020-02-14T04:55:58.420Z</time>
      </trkpt>
      <trkpt lat="42.60316" lon="1.86877">
        <ele>2050.2</ele>
        <time>2020-02-14T04:56:01.392Z</time>
      </trkpt>
      <trkpt lat="42.6032" lon="1.86868">
        <ele>2051.7</ele>
        <time>2020-02-14T04:56:04.495Z</time>
      </trkpt>
      <trkpt lat="42.6032" lon="1.86865">
        <ele>2053</ele>
        <time>2020-02-14T04:56:05.280Z</time>
      </trkpt>
      <trkpt lat="42.60323" lon="1.86854">
        <ele>2054.5</ele>
        <time>2020-02-14T04:56:08.652Z</time>
      </trkpt>
      <trkpt lat="42.60324" lon="1.8685">
        <ele>2055.4</ele>
        <time>2020-02-14T04:56:10.075Z</time>
      </trkpt>
      <trkpt lat="42.60326" lon="1.86842">
        <ele>2056.9</ele>
        <time>2020-02-14T04:56:12.505Z</time>
      </trkpt>
      <trkpt lat="42.6033" lon="1.86835">
        <ele>2058.8</ele>
        <time>2020-02-14T04:56:14.953Z</time>
      </trkpt>
      <trkpt lat="42.60335" lon="1.86829">
        <ele>2060.3</ele>
        <time>2020-02-14T04:56:17.688Z</time>
      </trkpt>
      <trkpt lat="42.6034" lon="1.86834">
        <ele>2062.7</ele>
        <time>2020-02-14T04:56:20.131Z</time>
      </trkpt>
      <trkpt lat="42.60346" lon="1.86836">
        <ele>2065.5</ele>
        <time>2020-02-14T04:56:22.723Z</time>
      </trkpt>
      <trkpt lat="42.60348" lon="1.86831">
        <ele>2066.6</ele>
        <time>2020-02-14T04:56:24.342Z</time>
      </trkpt>
      <trkpt lat="42.60349" lon="1.86833">
        <ele>2067</ele>
        <time>2020-02-14T04:56:25.126Z</time>
      </trkpt>
      <trkpt lat="42.60347" lon="1.86846">
        <ele>2068.5</ele>
        <time>2020-02-14T04:56:28.928Z</time>
      </trkpt>
      <trkpt lat="42.60347" lon="1.86848">
        <ele>2068.4</ele>
        <time>2020-02-14T04:56:29.634Z</time>
      </trkpt>
      <trkpt lat="42.6035" lon="1.86851">
        <ele>2070.3</ele>
        <time>2020-02-14T04:56:31.221Z</time>
      </trkpt>
      <trkpt lat="42.60349" lon="1.86854">
        <ele>2070.4</ele>
        <time>2020-02-14T04:56:31.911Z</time>
      </trkpt>
      <trkpt lat="42.60349" lon="1.86861">
        <ele>2071.3</ele>
        <time>2020-02-14T04:56:34.045Z</time>
      </trkpt>
      <trkpt lat="42.60346" lon="1.86872">
        <ele>2073.2</ele>
        <time>2020-02-14T04:56:37.518Z</time>
      </trkpt>
      <trkpt lat="42.60351" lon="1.86885">
        <ele>2075.7</ele>
        <time>2020-02-14T04:56:41.792Z</time>
      </trkpt>
      <trkpt lat="42.60358" lon="1.8689">
        <ele>2078.5</ele>
        <time>2020-02-14T04:56:45.160Z</time>
      </trkpt>
      <trkpt lat="42.60362" lon="1.8689">
        <ele>2081</ele>
        <time>2020-02-14T04:56:46.861Z</time>
      </trkpt>
      <trkpt lat="42.60365" lon="1.8688">
        <ele>2082.5</ele>
        <time>2020-02-14T04:56:50.086Z</time>
      </trkpt>
      <trkpt lat="42.60369" lon="1.86876">
        <ele>2084.4</ele>
        <time>2020-02-14T04:56:51.889Z</time>
      </trkpt>
      <trkpt lat="42.60378" lon="1.86868">
        <ele>2085.3</ele>
        <time>2020-02-14T04:56:56.149Z</time>
      </trkpt>
      <trkpt lat="42.60379" lon="1.86864">
        <ele>2088.7</ele>
        <time>2020-02-14T04:56:57.820Z</time>
      </trkpt>
      <trkpt lat="42.60379" lon="1.86864">
        <ele>2083.9</ele>
        <time>2020-02-14T04:56:59.481Z</time>
      </trkpt>
      <trkpt lat="42.60379" lon="1.86864">
        <ele>2087.6</ele>
        <time>2020-02-14T04:57:00.784Z</time>
      </trkpt>
      <trkpt lat="42.60379" lon="1.86864">
        <ele>2091</ele>
        <time>2020-02-14T04:57:01.961Z</time>
      </trkpt>
      <trkpt lat="42.60379" lon="1.86864">
        <ele>2086.2</ele>
        <time>2020-02-14T04:57:03.632Z</time>
      </trkpt>
      <trkpt lat="42.60379" lon="1.86864">
        <ele>2081.4</ele>
        <time>2020-02-14T04:57:05.284Z</time>
      </trkpt>
      <trkpt lat="42.60379" lon="1.86864">
        <ele>2086.3</ele>
        <time>2020-02-14T04:57:06.952Z</time>
      </trkpt>
      <trkpt lat="42.60379" lon="1.86864">
        <ele>2087.7</ele>
        <time>2020-02-14T04:57:07.439Z</time>
      </trkpt>
      <trkpt lat="42.60379" lon="1.86864">
        <ele>2083.4</ele>
        <time>2020-02-14T04:57:08.933Z</time>
      </trkpt>
      <trkpt lat="42.60379" lon="1.86864">
        <ele>2087.3</ele>
        <time>2020-02-14T04:57:10.301Z</time>
      </trkpt>
      <trkpt lat="42.60379" lon="1.86864">
        <ele>2082.5</ele>
        <time>2020-02-14T04:57:11.983Z</time>
      </trkpt>
      <trkpt lat="42.60379" lon="1.86864">
        <ele>2089.2</ele>
        <time>2020-02-14T04:57:14.318Z</time>
      </trkpt>
      <trkpt lat="42.60379" lon="1.86864">
        <ele>2084.3</ele>
        <time>2020-02-14T04:57:16.000Z</time>
      </trkpt>
      <trkpt lat="42.60379" lon="1.86864">
        <ele>2086.3</ele>
        <time>2020-02-14T04:57:16.671Z</time>
      </trkpt>
      <trkpt lat="42.60379" lon="1.86864">
        <ele>2080.9</ele>
        <time>2020-02-14T04:57:18.529Z</time>
      </trkpt>
      <trkpt lat="42.60379" lon="1.86864">
        <ele>2085.7</ele>
        <time>2020-02-14T04:57:20.192Z</time>
      </trkpt>
      <trkpt lat="42.60378" lon="1.86863">
        <ele>2090.6</ele>
        <time>2020-02-14T04:57:21.893Z</time>
      </trkpt>
      <trkpt lat="42.60378" lon="1.86863">
        <ele>2087.3</ele>
        <time>2020-02-14T04:57:23.036Z</time>
      </trkpt>
      <trkpt lat="42.60378" lon="1.86863">
        <ele>2082.5</ele>
        <time>2020-02-14T04:57:24.706Z</time>
      </trkpt>
      <trkpt lat="42.60378" lon="1.86863">
        <ele>2089.1</ele>
        <time>2020-02-14T04:57:27.018Z</time>
      </trkpt>
      <trkpt lat="42.60378" lon="1.86863">
        <ele>2085.8</ele>
        <time>2020-02-14T04:57:28.184Z</time>
      </trkpt>
      <trkpt lat="42.60378" lon="1.86863">
        <ele>2088.6</ele>
        <time>2020-02-14T04:57:29.180Z</time>
      </trkpt>
      <trkpt lat="42.60378" lon="1.86863">
        <ele>2079.5</ele>
        <time>2020-02-14T04:57:32.344Z</time>
      </trkpt>
      <trkpt lat="42.60378" lon="1.86863">
        <ele>2086.2</ele>
        <time>2020-02-14T04:57:34.668Z</time>
      </trkpt>
      <trkpt lat="42.60378" lon="1.86863">
        <ele>2092.6</ele>
        <time>2020-02-14T04:57:36.870Z</time>
      </trkpt>
      <trkpt lat="42.60378" lon="1.86863">
        <ele>2082.4</ele>
        <time>2020-02-14T04:57:40.392Z</time>
      </trkpt>
      <trkpt lat="42.60385" lon="1.86851">
        <ele>2097.3</ele>
        <time>2020-02-14T04:57:47.093Z</time>
      </trkpt>
      <trkpt lat="42.60385" lon="1.86851">
        <ele>2105</ele>
        <time>2020-02-14T04:57:49.754Z</time>
      </trkpt>
      <trkpt lat="42.60385" lon="1.86851">
        <ele>2099.7</ele>
        <time>2020-02-14T04:57:51.578Z</time>
      </trkpt>
      <trkpt lat="42.60385" lon="1.86851">
        <ele>2096.8</ele>
        <time>2020-02-14T04:57:52.580Z</time>
      </trkpt>
      <trkpt lat="42.60383" lon="1.86859">
        <ele>2093.9</ele>
        <time>2020-02-14T04:57:55.282Z</time>
      </trkpt>
      <trkpt lat="42.60392" lon="1.86863">
        <ele>2095</ele>
        <time>2020-02-14T04:57:58.945Z</time>
      </trkpt>
      <trkpt lat="42.60397" lon="1.86869">
        <ele>2096.9</ele>
        <time>2020-02-14T04:58:01.769Z</time>
      </trkpt>
      <trkpt lat="42.60396" lon="1.8687">
        <ele>2096.4</ele>
        <time>2020-02-14T04:58:02.333Z</time>
      </trkpt>
      <trkpt lat="42.60407" lon="1.86877">
        <ele>2097.3</ele>
        <time>2020-02-14T04:58:06.883Z</time>
      </trkpt>
      <trkpt lat="42.60417" lon="1.86875">
        <ele>2099.3</ele>
        <time>2020-02-14T04:58:10.999Z</time>
      </trkpt>
      <trkpt lat="42.60425" lon="1.86875">
        <ele>2099.7</ele>
        <time>2020-02-14T04:58:14.132Z</time>
      </trkpt>
      <trkpt lat="42.60432" lon="1.8688">
        <ele>2097.7</ele>
        <time>2020-02-14T04:58:17.028Z</time>
      </trkpt>
      <trkpt lat="42.60446" lon="1.86887">
        <ele>2098.2</ele>
        <time>2020-02-14T04:58:23.009Z</time>
      </trkpt>
      <trkpt lat="42.60453" lon="1.8689">
        <ele>2095.3</ele>
        <time>2020-02-14T04:58:25.811Z</time>
      </trkpt>
      <trkpt lat="42.60466" lon="1.86892">
        <ele>2095.8</ele>
        <time>2020-02-14T04:58:30.846Z</time>
      </trkpt>
      <trkpt lat="42.60475" lon="1.86891">
        <ele>2097.4</ele>
        <time>2020-02-14T04:58:34.637Z</time>
      </trkpt>
      <trkpt lat="42.60485" lon="1.86889">
        <ele>2098.8</ele>
        <time>2020-02-14T04:58:38.619Z</time>
      </trkpt>
      <trkpt lat="42.60491" lon="1.86896">
        <ele>2100.1</ele>
        <time>2020-02-14T04:58:41.620Z</time>
      </trkpt>
      <trkpt lat="42.60505" lon="1.86901">
        <ele>2102.6</ele>
        <time>2020-02-14T04:58:47.133Z</time>
      </trkpt>
      <trkpt lat="42.6051" lon="1.86908">
        <ele>2104.1</ele>
        <time>2020-02-14T04:58:50.174Z</time>
      </trkpt>
      <trkpt lat="42.60527" lon="1.86917">
        <ele>2105.9</ele>
        <time>2020-02-14T04:58:57.056Z</time>
      </trkpt>
      <trkpt lat="42.60537" lon="1.86919">
        <ele>2106.4</ele>
        <time>2020-02-14T04:59:01.016Z</time>
      </trkpt>
      <trkpt lat="42.60544" lon="1.86919">
        <ele>2103</ele>
        <time>2020-02-14T04:59:03.789Z</time>
      </trkpt>
      <trkpt lat="42.60561" lon="1.86919">
        <ele>2102.1</ele>
        <time>2020-02-14T04:59:10.632Z</time>
      </trkpt>
      <trkpt lat="42.60568" lon="1.86923">
        <ele>2104</ele>
        <time>2020-02-14T04:59:13.373Z</time>
      </trkpt>
      <trkpt lat="42.60577" lon="1.86918">
        <ele>2104</ele>
        <time>2020-02-14T04:59:17.013Z</time>
      </trkpt>
      <trkpt lat="42.60578" lon="1.86916">
        <ele>2104</ele>
        <time>2020-02-14T04:59:17.972Z</time>
      </trkpt>
      <trkpt lat="42.60584" lon="1.86903">
        <ele>2102.6</ele>
        <time>2020-02-14T04:59:22.223Z</time>
      </trkpt>
      <trkpt lat="42.60587" lon="1.869">
        <ele>2100.7</ele>
        <time>2020-02-14T04:59:23.970Z</time>
      </trkpt>
      <trkpt lat="42.60588" lon="1.86898">
        <ele>2099.7</ele>
        <time>2020-02-14T04:59:24.612Z</time>
      </trkpt>
      <trkpt lat="42.60589" lon="1.86894">
        <ele>2099.2</ele>
        <time>2020-02-14T04:59:25.784Z</time>
      </trkpt>
      <trkpt lat="42.60596" lon="1.86893">
        <ele>2099.2</ele>
        <time>2020-02-14T04:59:28.276Z</time>
      </trkpt>
      <trkpt lat="42.60599" lon="1.86895">
        <ele>2095.8</ele>
        <time>2020-02-14T04:59:30.220Z</time>
      </trkpt>
      <trkpt lat="42.60605" lon="1.86892">
        <ele>2093.9</ele>
        <time>2020-02-14T04:59:32.932Z</time>
      </trkpt>
      <trkpt lat="42.6061" lon="1.86886">
        <ele>2092.1</ele>
        <time>2020-02-14T04:59:35.342Z</time>
      </trkpt>
      <trkpt lat="42.60617" lon="1.86886">
        <ele>2089.7</ele>
        <time>2020-02-14T04:59:38.398Z</time>
      </trkpt>
      <trkpt lat="42.6062" lon="1.86884">
        <ele>2088.6</ele>
        <time>2020-02-14T04:59:39.612Z</time>
      </trkpt>
      <trkpt lat="42.60631" lon="1.86879">
        <ele>2088.2</ele>
        <time>2020-02-14T04:59:44.231Z</time>
      </trkpt>
      <trkpt lat="42.60632" lon="1.86869">
        <ele>2086.8</ele>
        <time>2020-02-14T04:59:47.042Z</time>
      </trkpt>
      <trkpt lat="42.60637" lon="1.86866">
        <ele>2084.9</ele>
        <time>2020-02-14T04:59:49.217Z</time>
      </trkpt>
      <trkpt lat="42.6064" lon="1.8686">
        <ele>2082</ele>
        <time>2020-02-14T04:59:51.537Z</time>
      </trkpt>
      <trkpt lat="42.60646" lon="1.86853">
        <ele>2079.6</ele>
        <time>2020-02-14T04:59:54.457Z</time>
      </trkpt>
      <trkpt lat="42.60647" lon="1.86846">
        <ele>2079</ele>
        <time>2020-02-14T04:59:56.510Z</time>
      </trkpt>
      <trkpt lat="42.60648" lon="1.86838">
        <ele>2077.6</ele>
        <time>2020-02-14T04:59:59.070Z</time>
      </trkpt>
      <trkpt lat="42.60647" lon="1.86829">
        <ele>2076.1</ele>
        <time>2020-02-14T05:00:01.699Z</time>
      </trkpt>
      <trkpt lat="42.60646" lon="1.86822">
        <ele>2074.3</ele>
        <time>2020-02-14T05:00:03.895Z</time>
      </trkpt>
      <trkpt lat="42.60646" lon="1.86819">
        <ele>2074.2</ele>
        <time>2020-02-14T05:00:04.762Z</time>
      </trkpt>
      <trkpt lat="42.60645" lon="1.8681">
        <ele>2072.8</ele>
        <time>2020-02-14T05:00:07.271Z</time>
      </trkpt>
      <trkpt lat="42.60646" lon="1.86808">
        <ele>2072.3</ele>
        <time>2020-02-14T05:00:07.919Z</time>
      </trkpt>
      <trkpt lat="42.60649" lon="1.86793">
        <ele>2072.3</ele>
        <time>2020-02-14T05:00:12.358Z</time>
      </trkpt>
      <trkpt lat="42.60655" lon="1.86777">
        <ele>2072.4</ele>
        <time>2020-02-14T05:00:17.586Z</time>
      </trkpt>
      <trkpt lat="42.60657" lon="1.86766">
        <ele>2071.8</ele>
        <time>2020-02-14T05:00:20.588Z</time>
      </trkpt>
      <trkpt lat="42.60657" lon="1.86763">
        <ele>2070.9</ele>
        <time>2020-02-14T05:00:21.534Z</time>
      </trkpt>
      <trkpt lat="42.60658" lon="1.86762">
        <ele>2070.9</ele>
        <time>2020-02-14T05:00:22.126Z</time>
      </trkpt>
      <trkpt lat="42.6066" lon="1.8675">
        <ele>2069.9</ele>
        <time>2020-02-14T05:00:25.436Z</time>
      </trkpt>
      <trkpt lat="42.6066" lon="1.86738">
        <ele>2069.9</ele>
        <time>2020-02-14T05:00:28.928Z</time>
      </trkpt>
      <trkpt lat="42.60664" lon="1.86726">
        <ele>2069.9</ele>
        <time>2020-02-14T05:00:32.548Z</time>
      </trkpt>
      <trkpt lat="42.60668" lon="1.86721">
        <ele>2072.8</ele>
        <time>2020-02-14T05:00:34.790Z</time>
      </trkpt>
      <trkpt lat="42.60672" lon="1.86712">
        <ele>2075.1</ele>
        <time>2020-02-14T05:00:38.164Z</time>
      </trkpt>
      <trkpt lat="42.60675" lon="1.86707">
        <ele>2076.6</ele>
        <time>2020-02-14T05:00:39.942Z</time>
      </trkpt>
      <trkpt lat="42.60685" lon="1.86704">
        <ele>2077.6</ele>
        <time>2020-02-14T05:00:43.798Z</time>
      </trkpt>
      <trkpt lat="42.60689" lon="1.86696">
        <ele>2079.1</ele>
        <time>2020-02-14T05:00:46.570Z</time>
      </trkpt>
      <trkpt lat="42.60694" lon="1.86688">
        <ele>2080.4</ele>
        <time>2020-02-14T05:00:49.676Z</time>
      </trkpt>
      <trkpt lat="42.60698" lon="1.86683">
        <ele>2081.9</ele>
        <time>2020-02-14T05:00:51.795Z</time>
      </trkpt>
      <trkpt lat="42.60702" lon="1.86672">
        <ele>2083.3</ele>
        <time>2020-02-14T05:00:55.334Z</time>
      </trkpt>
      <trkpt lat="42.60707" lon="1.86664">
        <ele>2084.8</ele>
        <time>2020-02-14T05:00:58.305Z</time>
      </trkpt>
      <trkpt lat="42.60707" lon="1.86663">
        <ele>2084.8</ele>
        <time>2020-02-14T05:00:58.602Z</time>
      </trkpt>
      <trkpt lat="42.60709" lon="1.86661">
        <ele>2084.9</ele>
        <time>2020-02-14T05:00:59.482Z</time>
      </trkpt>
      <trkpt lat="42.6072" lon="1.86656">
        <ele>2085.2</ele>
        <time>2020-02-14T05:01:04.208Z</time>
      </trkpt>
      <trkpt lat="42.60727" lon="1.86653">
        <ele>2086.3</ele>
        <time>2020-02-14T05:01:06.932Z</time>
      </trkpt>
      <trkpt lat="42.60733" lon="1.8665">
        <ele>2088.7</ele>
        <time>2020-02-14T05:01:09.465Z</time>
      </trkpt>
      <trkpt lat="42.60737" lon="1.86652">
        <ele>2090.6</ele>
        <time>2020-02-14T05:01:11.452Z</time>
      </trkpt>
      <trkpt lat="42.60741" lon="1.86656">
        <ele>2092.6</ele>
        <time>2020-02-14T05:01:13.473Z</time>
      </trkpt>
      <trkpt lat="42.60747" lon="1.86654">
        <ele>2094.9</ele>
        <time>2020-02-14T05:01:16.001Z</time>
      </trkpt>
      <trkpt lat="42.6075" lon="1.86654">
        <ele>2095.9</ele>
        <time>2020-02-14T05:01:17.135Z</time>
      </trkpt>
      <trkpt lat="42.60756" lon="1.86654">
        <ele>2097.3</ele>
        <time>2020-02-14T05:01:19.728Z</time>
      </trkpt>
      <trkpt lat="42.60764" lon="1.86656">
        <ele>2100.1</ele>
        <time>2020-02-14T05:01:22.989Z</time>
      </trkpt>
      <trkpt lat="42.60773" lon="1.86658">
        <ele>2102.5</ele>
        <time>2020-02-14T05:01:26.621Z</time>
      </trkpt>
      <trkpt lat="42.60779" lon="1.86657">
        <ele>2104</ele>
        <time>2020-02-14T05:01:28.968Z</time>
      </trkpt>
      <trkpt lat="42.60787" lon="1.86658">
        <ele>2105.4</ele>
        <time>2020-02-14T05:01:31.920Z</time>
      </trkpt>
      <trkpt lat="42.60793" lon="1.86658">
        <ele>2107</ele>
        <time>2020-02-14T05:01:34.564Z</time>
      </trkpt>
      <trkpt lat="42.60799" lon="1.86662">
        <ele>2109.8</ele>
        <time>2020-02-14T05:01:37.205Z</time>
      </trkpt>
      <trkpt lat="42.60804" lon="1.86666">
        <ele>2112.6</ele>
        <time>2020-02-14T05:01:39.484Z</time>
      </trkpt>
      <trkpt lat="42.6081" lon="1.86672">
        <ele>2114.7</ele>
        <time>2020-02-14T05:01:42.560Z</time>
      </trkpt>
      <trkpt lat="42.60817" lon="1.86677">
        <ele>2117.1</ele>
        <time>2020-02-14T05:01:45.728Z</time>
      </trkpt>
      <trkpt lat="42.60823" lon="1.8668">
        <ele>2119</ele>
        <time>2020-02-14T05:01:48.275Z</time>
      </trkpt>
      <trkpt lat="42.60828" lon="1.86685">
        <ele>2120.8</ele>
        <time>2020-02-14T05:01:50.807Z</time>
      </trkpt>
      <trkpt lat="42.60833" lon="1.86688">
        <ele>2122.3</ele>
        <time>2020-02-14T05:01:52.955Z</time>
      </trkpt>
      <trkpt lat="42.60836" lon="1.86694">
        <ele>2125.1</ele>
        <time>2020-02-14T05:01:55.378Z</time>
      </trkpt>
      <trkpt lat="42.60839" lon="1.86694">
        <ele>2125.7</ele>
        <time>2020-02-14T05:01:56.327Z</time>
      </trkpt>
      <trkpt lat="42.60844" lon="1.86698">
        <ele>2127.1</ele>
        <time>2020-02-14T05:01:58.531Z</time>
      </trkpt>
      <trkpt lat="42.60852" lon="1.86697">
        <ele>2129.6</ele>
        <time>2020-02-14T05:02:01.772Z</time>
      </trkpt>
      <trkpt lat="42.6086" lon="1.86698">
        <ele>2132</ele>
        <time>2020-02-14T05:02:04.988Z</time>
      </trkpt>
      <trkpt lat="42.60866" lon="1.86701">
        <ele>2133.3</ele>
        <time>2020-02-14T05:02:07.360Z</time>
      </trkpt>
      <trkpt lat="42.60866" lon="1.86704">
        <ele>2134.3</ele>
        <time>2020-02-14T05:02:08.307Z</time>
      </trkpt>
      <trkpt lat="42.60874" lon="1.86707">
        <ele>2136.2</ele>
        <time>2020-02-14T05:02:11.343Z</time>
      </trkpt>
      <trkpt lat="42.60878" lon="1.8671">
        <ele>2139.1</ele>
        <time>2020-02-14T05:02:13.496Z</time>
      </trkpt>
      <trkpt lat="42.60883" lon="1.86716">
        <ele>2141</ele>
        <time>2020-02-14T05:02:16.048Z</time>
      </trkpt>
      <trkpt lat="42.60884" lon="1.86716">
        <ele>2141.5</ele>
        <time>2020-02-14T05:02:16.371Z</time>
      </trkpt>
      <trkpt lat="42.6089" lon="1.86719">
        <ele>2143.4</ele>
        <time>2020-02-14T05:02:19.106Z</time>
      </trkpt>
      <trkpt lat="42.60896" lon="1.86724">
        <ele>2145.4</ele>
        <time>2020-02-14T05:02:21.782Z</time>
      </trkpt>
      <trkpt lat="42.60903" lon="1.86728">
        <ele>2146.9</ele>
        <time>2020-02-14T05:02:24.874Z</time>
      </trkpt>
      <trkpt lat="42.60912" lon="1.86729">
        <ele>2149.7</ele>
        <time>2020-02-14T05:02:28.646Z</time>
      </trkpt>
      <trkpt lat="42.60921" lon="1.8673">
        <ele>2151.2</ele>
        <time>2020-02-14T05:02:31.916Z</time>
      </trkpt>
      <trkpt lat="42.60928" lon="1.86733">
        <ele>2152.5</ele>
        <time>2020-02-14T05:02:35.042Z</time>
      </trkpt>
      <trkpt lat="42.60935" lon="1.86735">
        <ele>2154.1</ele>
        <time>2020-02-14T05:02:37.505Z</time>
      </trkpt>
      <trkpt lat="42.60941" lon="1.86736">
        <ele>2156</ele>
        <time>2020-02-14T05:02:40.174Z</time>
      </trkpt>
      <trkpt lat="42.60943" lon="1.86737">
        <ele>2156.5</ele>
        <time>2020-02-14T05:02:40.821Z</time>
      </trkpt>
      <trkpt lat="42.60952" lon="1.86741">
        <ele>2157.9</ele>
        <time>2020-02-14T05:02:44.473Z</time>
      </trkpt>
      <trkpt lat="42.60954" lon="1.86742">
        <ele>2158.3</ele>
        <time>2020-02-14T05:02:45.553Z</time>
      </trkpt>
      <trkpt lat="42.60964" lon="1.86747">
        <ele>2160.2</ele>
        <time>2020-02-14T05:02:49.706Z</time>
      </trkpt>
      <trkpt lat="42.60969" lon="1.8675">
        <ele>2160.8</ele>
        <time>2020-02-14T05:02:51.679Z</time>
      </trkpt>
      <trkpt lat="42.60977" lon="1.86753">
        <ele>2162.2</ele>
        <time>2020-02-14T05:02:55.105Z</time>
      </trkpt>
      <trkpt lat="42.60981" lon="1.86754">
        <ele>2162.7</ele>
        <time>2020-02-14T05:02:56.582Z</time>
      </trkpt>
      <trkpt lat="42.60988" lon="1.86752">
        <ele>2164.6</ele>
        <time>2020-02-14T05:02:59.286Z</time>
      </trkpt>
      <trkpt lat="42.61" lon="1.86755">
        <ele>2165.1</ele>
        <time>2020-02-14T05:03:03.968Z</time>
      </trkpt>
      <trkpt lat="42.61011" lon="1.86754">
        <ele>2167</ele>
        <time>2020-02-14T05:03:08.468Z</time>
      </trkpt>
      <trkpt lat="42.61015" lon="1.86755">
        <ele>2167.1</ele>
        <time>2020-02-14T05:03:10.102Z</time>
      </trkpt>
      <trkpt lat="42.61022" lon="1.86756">
        <ele>2167.4</ele>
        <time>2020-02-14T05:03:12.636Z</time>
      </trkpt>
      <trkpt lat="42.61033" lon="1.86762">
        <ele>2169</ele>
        <time>2020-02-14T05:03:17.343Z</time>
      </trkpt>
      <trkpt lat="42.61035" lon="1.86763">
        <ele>2168.4</ele>
        <time>2020-02-14T05:03:18.211Z</time>
      </trkpt>
      <trkpt lat="42.61039" lon="1.86767">
        <ele>2168.4</ele>
        <time>2020-02-14T05:03:20.096Z</time>
      </trkpt>
      <trkpt lat="42.6105" lon="1.8677">
        <ele>2169.8</ele>
        <time>2020-02-14T05:03:24.530Z</time>
      </trkpt>
      <trkpt lat="42.61063" lon="1.86782">
        <ele>2170.4</ele>
        <time>2020-02-14T05:03:30.670Z</time>
      </trkpt>
      <trkpt lat="42.6107" lon="1.86788">
        <ele>2171.3</ele>
        <time>2020-02-14T05:03:33.815Z</time>
      </trkpt>
      <trkpt lat="42.61079" lon="1.86798">
        <ele>2173.2</ele>
        <time>2020-02-14T05:03:38.260Z</time>
      </trkpt>
      <trkpt lat="42.6109" lon="1.86803">
        <ele>2175.2</ele>
        <time>2020-02-14T05:03:42.782Z</time>
      </trkpt>
      <trkpt lat="42.61093" lon="1.86804">
        <ele>2176.1</ele>
        <time>2020-02-14T05:03:44.217Z</time>
      </trkpt>
      <trkpt lat="42.61104" lon="1.86812">
        <ele>2178.6</ele>
        <time>2020-02-14T05:03:48.899Z</time>
      </trkpt>
      <trkpt lat="42.61105" lon="1.86813">
        <ele>2178.6</ele>
        <time>2020-02-14T05:03:49.668Z</time>
      </trkpt>
      <trkpt lat="42.61113" lon="1.8682">
        <ele>2179.5</ele>
        <time>2020-02-14T05:03:53.195Z</time>
      </trkpt>
      <trkpt lat="42.61117" lon="1.86823">
        <ele>2179.9</ele>
        <time>2020-02-14T05:03:54.919Z</time>
      </trkpt>
      <trkpt lat="42.61127" lon="1.86835">
        <ele>2181.4</ele>
        <time>2020-02-14T05:04:00.146Z</time>
      </trkpt>
      <trkpt lat="42.61129" lon="1.8684">
        <ele>2181.9</ele>
        <time>2020-02-14T05:04:01.574Z</time>
      </trkpt>
      <trkpt lat="42.6114" lon="1.86849">
        <ele>2183.4</ele>
        <time>2020-02-14T05:04:06.789Z</time>
      </trkpt>
      <trkpt lat="42.61154" lon="1.86859">
        <ele>2183.8</ele>
        <time>2020-02-14T05:04:12.716Z</time>
      </trkpt>
      <trkpt lat="42.61165" lon="1.86866">
        <ele>2184.8</ele>
        <time>2020-02-14T05:04:17.357Z</time>
      </trkpt>
      <trkpt lat="42.6117" lon="1.8687">
        <ele>2184.8</ele>
        <time>2020-02-14T05:04:19.680Z</time>
      </trkpt>
      <trkpt lat="42.61181" lon="1.86879">
        <ele>2185.8</ele>
        <time>2020-02-14T05:04:24.663Z</time>
      </trkpt>
      <trkpt lat="42.61187" lon="1.86884">
        <ele>2186.8</ele>
        <time>2020-02-14T05:04:27.321Z</time>
      </trkpt>
      <trkpt lat="42.612" lon="1.86894">
        <ele>2188.6</ele>
        <time>2020-02-14T05:04:33.249Z</time>
      </trkpt>
      <trkpt lat="42.61207" lon="1.86899">
        <ele>2189.5</ele>
        <time>2020-02-14T05:04:36.077Z</time>
      </trkpt>
      <trkpt lat="42.61218" lon="1.86905">
        <ele>2190.5</ele>
        <time>2020-02-14T05:04:40.919Z</time>
      </trkpt>
      <trkpt lat="42.61221" lon="1.86908">
        <ele>2191.5</ele>
        <time>2020-02-14T05:04:42.279Z</time>
      </trkpt>
      <trkpt lat="42.61232" lon="1.86915">
        <ele>2192.4</ele>
        <time>2020-02-14T05:04:46.863Z</time>
      </trkpt>
      <trkpt lat="42.6124" lon="1.86923">
        <ele>2193.5</ele>
        <time>2020-02-14T05:04:51.097Z</time>
      </trkpt>
      <trkpt lat="42.61247" lon="1.86931">
        <ele>2194.8</ele>
        <time>2020-02-14T05:04:54.644Z</time>
      </trkpt>
      <trkpt lat="42.61254" lon="1.86937">
        <ele>2197.3</ele>
        <time>2020-02-14T05:04:57.992Z</time>
      </trkpt>
      <trkpt lat="42.61258" lon="1.86946">
        <ele>2198.3</ele>
        <time>2020-02-14T05:05:00.635Z</time>
      </trkpt>
      <trkpt lat="42.61262" lon="1.86953">
        <ele>2199.7</ele>
        <time>2020-02-14T05:05:03.402Z</time>
      </trkpt>
      <trkpt lat="42.61263" lon="1.86955">
        <ele>2200.2</ele>
        <time>2020-02-14T05:05:04.187Z</time>
      </trkpt>
      <trkpt lat="42.61269" lon="1.86963">
        <ele>2202.1</ele>
        <time>2020-02-14T05:05:07.583Z</time>
      </trkpt>
      <trkpt lat="42.61271" lon="1.86965">
        <ele>2202</ele>
        <time>2020-02-14T05:05:08.548Z</time>
      </trkpt>
      <trkpt lat="42.61278" lon="1.86973">
        <ele>2202.5</ele>
        <time>2020-02-14T05:05:12.227Z</time>
      </trkpt>
      <trkpt lat="42.61282" lon="1.86977">
        <ele>2204</ele>
        <time>2020-02-14T05:05:14.045Z</time>
      </trkpt>
      <trkpt lat="42.61282" lon="1.8698">
        <ele>2204.4</ele>
        <time>2020-02-14T05:05:15.115Z</time>
      </trkpt>
      <trkpt lat="42.61291" lon="1.86987">
        <ele>2205.4</ele>
        <time>2020-02-14T05:05:19.048Z</time>
      </trkpt>
      <trkpt lat="42.613" lon="1.86993">
        <ele>2207.9</ele>
        <time>2020-02-14T05:05:22.828Z</time>
      </trkpt>
      <trkpt lat="42.61308" lon="1.86997">
        <ele>2209.3</ele>
        <time>2020-02-14T05:05:26.188Z</time>
      </trkpt>
      <trkpt lat="42.61317" lon="1.87003">
        <ele>2211.8</ele>
        <time>2020-02-14T05:05:30.131Z</time>
      </trkpt>
      <trkpt lat="42.61323" lon="1.87009">
        <ele>2213.1</ele>
        <time>2020-02-14T05:05:33.031Z</time>
      </trkpt>
      <trkpt lat="42.6133" lon="1.87015">
        <ele>2214.1</ele>
        <time>2020-02-14T05:05:36.432Z</time>
      </trkpt>
      <trkpt lat="42.61335" lon="1.87019">
        <ele>2215.6</ele>
        <time>2020-02-14T05:05:38.679Z</time>
      </trkpt>
      <trkpt lat="42.6134" lon="1.8703">
        <ele>2216.9</ele>
        <time>2020-02-14T05:05:42.233Z</time>
      </trkpt>
      <trkpt lat="42.61345" lon="1.87037">
        <ele>2219.8</ele>
        <time>2020-02-14T05:05:45.322Z</time>
      </trkpt>
      <trkpt lat="42.61349" lon="1.87044">
        <ele>2221.3</ele>
        <time>2020-02-14T05:05:47.918Z</time>
      </trkpt>
      <trkpt lat="42.61349" lon="1.87045">
        <ele>2222.3</ele>
        <time>2020-02-14T05:05:48.389Z</time>
      </trkpt>
      <trkpt lat="42.6135" lon="1.87046">
        <ele>2223.8</ele>
        <time>2020-02-14T05:05:49.031Z</time>
      </trkpt>
      <trkpt lat="42.61353" lon="1.87042">
        <ele>2224.3</ele>
        <time>2020-02-14T05:05:50.672Z</time>
      </trkpt>
      <trkpt lat="42.61362" lon="1.87038">
        <ele>2225.7</ele>
        <time>2020-02-14T05:05:54.410Z</time>
      </trkpt>
      <trkpt lat="42.61366" lon="1.87036">
        <ele>2228.6</ele>
        <time>2020-02-14T05:05:56.348Z</time>
      </trkpt>
      <trkpt lat="42.61372" lon="1.87037">
        <ele>2230</ele>
        <time>2020-02-14T05:05:58.771Z</time>
      </trkpt>
      <trkpt lat="42.61378" lon="1.87037">
        <ele>2232.4</ele>
        <time>2020-02-14T05:06:01.128Z</time>
      </trkpt>
      <trkpt lat="42.61384" lon="1.87039">
        <ele>2234.8</ele>
        <time>2020-02-14T05:06:03.633Z</time>
      </trkpt>
      <trkpt lat="42.61382" lon="1.87045">
        <ele>2236.2</ele>
        <time>2020-02-14T05:06:05.580Z</time>
      </trkpt>
      <trkpt lat="42.6138" lon="1.87051">
        <ele>2238.6</ele>
        <time>2020-02-14T05:06:07.541Z</time>
      </trkpt>
      <trkpt lat="42.61375" lon="1.8706">
        <ele>2240</ele>
        <time>2020-02-14T05:06:10.947Z</time>
      </trkpt>
      <trkpt lat="42.61378" lon="1.87066">
        <ele>2241.6</ele>
        <time>2020-02-14T05:06:13.170Z</time>
      </trkpt>
      <trkpt lat="42.61382" lon="1.87066">
        <ele>2244.4</ele>
        <time>2020-02-14T05:06:14.865Z</time>
      </trkpt>
      <trkpt lat="42.61384" lon="1.87067">
        <ele>2247.7</ele>
        <time>2020-02-14T05:06:16.362Z</time>
      </trkpt>
      <trkpt lat="42.61388" lon="1.87066">
        <ele>2250.6</ele>
        <time>2020-02-14T05:06:18.246Z</time>
      </trkpt>
      <trkpt lat="42.61394" lon="1.87072">
        <ele>2252.6</ele>
        <time>2020-02-14T05:06:21.016Z</time>
      </trkpt>
      <trkpt lat="42.614" lon="1.87075">
        <ele>2256</ele>
        <time>2020-02-14T05:06:24.018Z</time>
      </trkpt>
      <trkpt lat="42.61404" lon="1.87082">
        <ele>2258.9</ele>
        <time>2020-02-14T05:06:26.643Z</time>
      </trkpt>
      <trkpt lat="42.61409" lon="1.87084">
        <ele>2261.6</ele>
        <time>2020-02-14T05:06:28.921Z</time>
      </trkpt>
      <trkpt lat="42.61414" lon="1.87087">
        <ele>2262.7</ele>
        <time>2020-02-14T05:06:30.959Z</time>
      </trkpt>
      <trkpt lat="42.6142" lon="1.87092">
        <ele>2264</ele>
        <time>2020-02-14T05:06:33.634Z</time>
      </trkpt>
      <trkpt lat="42.61425" lon="1.87094">
        <ele>2265.5</ele>
        <time>2020-02-14T05:06:35.725Z</time>
      </trkpt>
      <trkpt lat="42.6143" lon="1.87098">
        <ele>2267.5</ele>
        <time>2020-02-14T05:06:38.016Z</time>
      </trkpt>
      <trkpt lat="42.61435" lon="1.87101">
        <ele>2269.3</ele>
        <time>2020-02-14T05:06:40.435Z</time>
      </trkpt>
      <trkpt lat="42.61442" lon="1.87105">
        <ele>2271.8</ele>
        <time>2020-02-14T05:06:43.551Z</time>
      </trkpt>
      <trkpt lat="42.61448" lon="1.87112">
        <ele>2274.1</ele>
        <time>2020-02-14T05:06:46.416Z</time>
      </trkpt>
      <trkpt lat="42.61455" lon="1.87115">
        <ele>2277.1</ele>
        <time>2020-02-14T05:06:49.526Z</time>
      </trkpt>
      <trkpt lat="42.61459" lon="1.87121">
        <ele>2279</ele>
        <time>2020-02-14T05:06:52.144Z</time>
      </trkpt>
      <trkpt lat="42.61468" lon="1.87128">
        <ele>2280.9</ele>
        <time>2020-02-14T05:06:56.006Z</time>
      </trkpt>
      <trkpt lat="42.6147" lon="1.87136">
        <ele>2282.4</ele>
        <time>2020-02-14T05:06:58.486Z</time>
      </trkpt>
      <trkpt lat="42.61478" lon="1.87139">
        <ele>2284.2</ele>
        <time>2020-02-14T05:07:01.948Z</time>
      </trkpt>
      <trkpt lat="42.61486" lon="1.87136">
        <ele>2285.2</ele>
        <time>2020-02-14T05:07:04.945Z</time>
      </trkpt>
      <trkpt lat="42.61492" lon="1.87139">
        <ele>2288.1</ele>
        <time>2020-02-14T05:07:07.875Z</time>
      </trkpt>
      <trkpt lat="42.61498" lon="1.87141">
        <ele>2289.6</ele>
        <time>2020-02-14T05:07:10.042Z</time>
      </trkpt>
      <trkpt lat="42.61506" lon="1.87145">
        <ele>2291.4</ele>
        <time>2020-02-14T05:07:13.412Z</time>
      </trkpt>
      <trkpt lat="42.61509" lon="1.87147">
        <ele>2293.8</ele>
        <time>2020-02-14T05:07:15.146Z</time>
      </trkpt>
      <trkpt lat="42.61517" lon="1.87151">
        <ele>2297.2</ele>
        <time>2020-02-14T05:07:18.736Z</time>
      </trkpt>
      <trkpt lat="42.61521" lon="1.87157">
        <ele>2298.2</ele>
        <time>2020-02-14T05:07:20.897Z</time>
      </trkpt>
      <trkpt lat="42.61528" lon="1.87161">
        <ele>2300.7</ele>
        <time>2020-02-14T05:07:23.862Z</time>
      </trkpt>
      <trkpt lat="42.61531" lon="1.87165">
        <ele>2302</ele>
        <time>2020-02-14T05:07:25.519Z</time>
      </trkpt>
      <trkpt lat="42.61535" lon="1.87175">
        <ele>2303.6</ele>
        <time>2020-02-14T05:07:28.848Z</time>
      </trkpt>
      <trkpt lat="42.6154" lon="1.87176">
        <ele>2305.5</ele>
        <time>2020-02-14T05:07:31.026Z</time>
      </trkpt>
      <trkpt lat="42.61544" lon="1.87178">
        <ele>2306.8</ele>
        <time>2020-02-14T05:07:32.378Z</time>
      </trkpt>
      <trkpt lat="42.61544" lon="1.87177">
        <ele>2306.8</ele>
        <time>2020-02-14T05:07:32.759Z</time>
      </trkpt>
      <trkpt lat="42.61549" lon="1.87173">
        <ele>2309.2</ele>
        <time>2020-02-14T05:07:35.112Z</time>
      </trkpt>
      <trkpt lat="42.61552" lon="1.87176">
        <ele>2310.8</ele>
        <time>2020-02-14T05:07:36.643Z</time>
      </trkpt>
      <trkpt lat="42.61554" lon="1.87183">
        <ele>2313.1</ele>
        <time>2020-02-14T05:07:38.958Z</time>
      </trkpt>
      <trkpt lat="42.61555" lon="1.87185">
        <ele>2314.1</ele>
        <time>2020-02-14T05:07:39.719Z</time>
      </trkpt>
      <trkpt lat="42.61556" lon="1.87187">
        <ele>2314.5</ele>
        <time>2020-02-14T05:07:40.536Z</time>
      </trkpt>
      <trkpt lat="42.61559" lon="1.87186">
        <ele>2316.1</ele>
        <time>2020-02-14T05:07:41.775Z</time>
      </trkpt>
      <trkpt lat="42.61564" lon="1.87185">
        <ele>2317.9</ele>
        <time>2020-02-14T05:07:43.703Z</time>
      </trkpt>
      <trkpt lat="42.61566" lon="1.87183">
        <ele>2321.2</ele>
        <time>2020-02-14T05:07:45.075Z</time>
      </trkpt>
      <trkpt lat="42.61568" lon="1.8719">
        <ele>2324.1</ele>
        <time>2020-02-14T05:07:47.325Z</time>
      </trkpt>
      <trkpt lat="42.61566" lon="1.87195">
        <ele>2324.6</ele>
        <time>2020-02-14T05:07:49.142Z</time>
      </trkpt>
      <trkpt lat="42.61568" lon="1.87207">
        <ele>2325.6</ele>
        <time>2020-02-14T05:07:52.553Z</time>
      </trkpt>
      <trkpt lat="42.61567" lon="1.87213">
        <ele>2325.7</ele>
        <time>2020-02-14T05:07:54.297Z</time>
      </trkpt>
      <trkpt lat="42.61565" lon="1.87219">
        <ele>2324.6</ele>
        <time>2020-02-14T05:07:56.288Z</time>
      </trkpt>
      <trkpt lat="42.61565" lon="1.8722">
        <ele>2316.5</ele>
        <time>2020-02-14T05:07:59.136Z</time>
      </trkpt>
      <trkpt lat="42.61565" lon="1.8722">
        <ele>2326.1</ele>
        <time>2020-02-14T05:08:02.484Z</time>
      </trkpt>
      <trkpt lat="42.61565" lon="1.8722">
        <ele>2321.7</ele>
        <time>2020-02-14T05:08:04.011Z</time>
      </trkpt>
      <trkpt lat="42.61565" lon="1.8722">
        <ele>2326.1</ele>
        <time>2020-02-14T05:08:05.538Z</time>
      </trkpt>
      <trkpt lat="42.61565" lon="1.8722">
        <ele>2311.2</ele>
        <time>2020-02-14T05:08:10.715Z</time>
      </trkpt>
      <trkpt lat="42.61565" lon="1.8722">
        <ele>2331.9</ele>
        <time>2020-02-14T05:08:17.889Z</time>
      </trkpt>
      <trkpt lat="42.61565" lon="1.8722">
        <ele>2325.7</ele>
        <time>2020-02-14T05:08:20.048Z</time>
      </trkpt>
      <trkpt lat="42.61565" lon="1.8722">
        <ele>2331.3</ele>
        <time>2020-02-14T05:08:22.012Z</time>
      </trkpt>
      <trkpt lat="42.61565" lon="1.8722">
        <ele>2330.4</ele>
        <time>2020-02-14T05:08:22.328Z</time>
      </trkpt>
      <trkpt lat="42.61565" lon="1.8722">
        <ele>2327</ele>
        <time>2020-02-14T05:08:23.497Z</time>
      </trkpt>
      <trkpt lat="42.61565" lon="1.8722">
        <ele>2322.8</ele>
        <time>2020-02-14T05:08:24.981Z</time>
      </trkpt>
      <trkpt lat="42.61565" lon="1.8722">
        <ele>2328.9</ele>
        <time>2020-02-14T05:08:27.124Z</time>
      </trkpt>
      <trkpt lat="42.61565" lon="1.8722">
        <ele>2327.1</ele>
        <time>2020-02-14T05:08:27.769Z</time>
      </trkpt>
      <trkpt lat="42.61565" lon="1.8722">
        <ele>2323.6</ele>
        <time>2020-02-14T05:08:28.960Z</time>
      </trkpt>
      <trkpt lat="42.61565" lon="1.8722">
        <ele>2325.2</ele>
        <time>2020-02-14T05:08:29.490Z</time>
      </trkpt>
      <trkpt lat="42.61565" lon="1.8722">
        <ele>2314.5</ele>
        <time>2020-02-14T05:08:33.193Z</time>
      </trkpt>
      <trkpt lat="42.61565" lon="1.8722">
        <ele>2323.7</ele>
        <time>2020-02-14T05:08:36.361Z</time>
      </trkpt>
      <trkpt lat="42.61565" lon="1.8722">
        <ele>2317.4</ele>
        <time>2020-02-14T05:08:38.534Z</time>
      </trkpt>
      <trkpt lat="42.61565" lon="1.8722">
        <ele>2326.1</ele>
        <time>2020-02-14T05:08:41.561Z</time>
      </trkpt>
      <trkpt lat="42.61565" lon="1.8722">
        <ele>2320.3</ele>
        <time>2020-02-14T05:08:43.579Z</time>
      </trkpt>
      <trkpt lat="42.61565" lon="1.8722">
        <ele>2325.7</ele>
        <time>2020-02-14T05:08:45.447Z</time>
      </trkpt>
      <trkpt lat="42.61565" lon="1.8722">
        <ele>2330.5</ele>
        <time>2020-02-14T05:08:47.115Z</time>
      </trkpt>
      <trkpt lat="42.61565" lon="1.8722">
        <ele>2324.1</ele>
        <time>2020-02-14T05:08:49.325Z</time>
      </trkpt>
      <trkpt lat="42.61565" lon="1.8722">
        <ele>2320.3</ele>
        <time>2020-02-14T05:08:50.648Z</time>
      </trkpt>
      <trkpt lat="42.61565" lon="1.8722">
        <ele>2322.2</ele>
        <time>2020-02-14T05:08:51.315Z</time>
      </trkpt>
      <trkpt lat="42.61565" lon="1.8722">
        <ele>2328.1</ele>
        <time>2020-02-14T05:08:53.334Z</time>
      </trkpt>
      <trkpt lat="42.61565" lon="1.8722">
        <ele>2318.8</ele>
        <time>2020-02-14T05:08:56.532Z</time>
      </trkpt>
      <trkpt lat="42.61565" lon="1.8722">
        <ele>2327.6</ele>
        <time>2020-02-14T05:08:59.568Z</time>
      </trkpt>
      <trkpt lat="42.61565" lon="1.8722">
        <ele>2323.7</ele>
        <time>2020-02-14T05:09:00.920Z</time>
      </trkpt>
      <trkpt lat="42.61565" lon="1.8722">
        <ele>2324.1</ele>
        <time>2020-02-14T05:09:01.069Z</time>
      </trkpt>
      <trkpt lat="42.61565" lon="1.8722">
        <ele>2318.8</ele>
        <time>2020-02-14T05:09:02.912Z</time>
      </trkpt>
      <trkpt lat="42.61565" lon="1.8722">
        <ele>2325.7</ele>
        <time>2020-02-14T05:09:05.305Z</time>
      </trkpt>
      <trkpt lat="42.61565" lon="1.8722">
        <ele>2330.5</ele>
        <time>2020-02-14T05:09:06.956Z</time>
      </trkpt>
      <trkpt lat="42.61565" lon="1.8722">
        <ele>2328.5</ele>
        <time>2020-02-14T05:09:07.629Z</time>
      </trkpt>
      <trkpt lat="42.61565" lon="1.8722">
        <ele>2325.1</ele>
        <time>2020-02-14T05:09:08.809Z</time>
      </trkpt>
      <trkpt lat="42.61565" lon="1.8722">
        <ele>2325.2</ele>
        <time>2020-02-14T05:09:08.838Z</time>
      </trkpt>
      <trkpt lat="42.61565" lon="1.87219">
        <ele>2321.7</ele>
        <time>2020-02-14T05:09:10.068Z</time>
      </trkpt>
      <trkpt lat="42.61565" lon="1.87219">
        <ele>2326.1</ele>
        <time>2020-02-14T05:09:11.602Z</time>
      </trkpt>
      <trkpt lat="42.61565" lon="1.87219">
        <ele>2319.3</ele>
        <time>2020-02-14T05:09:13.967Z</time>
      </trkpt>
      <trkpt lat="42.61565" lon="1.87219">
        <ele>2325.7</ele>
        <time>2020-02-14T05:09:16.175Z</time>
      </trkpt>
      <trkpt lat="42.61565" lon="1.87219">
        <ele>2321.2</ele>
        <time>2020-02-14T05:09:17.728Z</time>
      </trkpt>
      <trkpt lat="42.61565" lon="1.87219">
        <ele>2325.6</ele>
        <time>2020-02-14T05:09:19.253Z</time>
      </trkpt>
      <trkpt lat="42.61565" lon="1.87219">
        <ele>2336.2</ele>
        <time>2020-02-14T05:09:22.926Z</time>
      </trkpt>
      <trkpt lat="42.61565" lon="1.87219">
        <ele>2307.4</ele>
        <time>2020-02-14T05:09:32.923Z</time>
      </trkpt>
      <trkpt lat="42.61565" lon="1.87219">
        <ele>2327.6</ele>
        <time>2020-02-14T05:09:39.927Z</time>
      </trkpt>
      <trkpt lat="42.61565" lon="1.87219">
        <ele>2321.3</ele>
        <time>2020-02-14T05:09:42.110Z</time>
      </trkpt>
      <trkpt lat="42.61565" lon="1.87219">
        <ele>2325.7</ele>
        <time>2020-02-14T05:09:43.634Z</time>
      </trkpt>
      <trkpt lat="42.61565" lon="1.87219">
        <ele>2330</ele>
        <time>2020-02-14T05:09:45.133Z</time>
      </trkpt>
      <trkpt lat="42.61565" lon="1.87219">
        <ele>2324.6</ele>
        <time>2020-02-14T05:09:46.988Z</time>
      </trkpt>
      <trkpt lat="42.61565" lon="1.87219">
        <ele>2320.4</ele>
        <time>2020-02-14T05:09:48.474Z</time>
      </trkpt>
      <trkpt lat="42.61565" lon="1.87219">
        <ele>2332.8</ele>
        <time>2020-02-14T05:09:52.800Z</time>
      </trkpt>
      <trkpt lat="42.61565" lon="1.87219">
        <ele>2332.8</ele>
        <time>2020-02-14T05:09:52.803Z</time>
      </trkpt>
      <trkpt lat="42.61565" lon="1.87219">
        <ele>2336.1</ele>
        <time>2020-02-14T05:09:53.946Z</time>
      </trkpt>
      <trkpt lat="42.61565" lon="1.87219">
        <ele>2331</ele>
        <time>2020-02-14T05:09:55.724Z</time>
      </trkpt>
      <trkpt lat="42.61565" lon="1.87219">
        <ele>2332.8</ele>
        <time>2020-02-14T05:09:56.357Z</time>
      </trkpt>
      <trkpt lat="42.61565" lon="1.87219">
        <ele>2337.1</ele>
        <time>2020-02-14T05:09:57.857Z</time>
      </trkpt>
      <trkpt lat="42.61565" lon="1.87219">
        <ele>2332.9</ele>
        <time>2020-02-14T05:09:59.333Z</time>
      </trkpt>
      <trkpt lat="42.61565" lon="1.8722">
        <ele>2331.9</ele>
        <time>2020-02-14T05:09:59.707Z</time>
      </trkpt>
      <trkpt lat="42.61566" lon="1.87219">
        <ele>2335.8</ele>
        <time>2020-02-14T05:10:01.070Z</time>
      </trkpt>
      <trkpt lat="42.61566" lon="1.87219">
        <ele>2333.8</ele>
        <time>2020-02-14T05:10:01.766Z</time>
      </trkpt>
      <trkpt lat="42.61565" lon="1.8722">
        <ele>2333.4</ele>
        <time>2020-02-14T05:10:02.163Z</time>
      </trkpt>
      <trkpt lat="42.61563" lon="1.87222">
        <ele>2333.7</ele>
        <time>2020-02-14T05:10:03.056Z</time>
      </trkpt>
      <trkpt lat="42.61568" lon="1.87229">
        <ele>2337.1</ele>
        <time>2020-02-14T05:10:06.022Z</time>
      </trkpt>
      <trkpt lat="42.61569" lon="1.8723">
        <ele>2332.8</ele>
        <time>2020-02-14T05:10:07.606Z</time>
      </trkpt>
      <trkpt lat="42.61578" lon="1.8724">
        <ele>2331.4</ele>
        <time>2020-02-14T05:10:11.962Z</time>
      </trkpt>
      <trkpt lat="42.61582" lon="1.87251">
        <ele>2331.3</ele>
        <time>2020-02-14T05:10:15.387Z</time>
      </trkpt>
      <trkpt lat="42.61586" lon="1.8726">
        <ele>2331</ele>
        <time>2020-02-14T05:10:18.438Z</time>
      </trkpt>
      <trkpt lat="42.6159" lon="1.87265">
        <ele>2330.5</ele>
        <time>2020-02-14T05:10:20.470Z</time>
      </trkpt>
      <trkpt lat="42.61599" lon="1.8727">
        <ele>2329.5</ele>
        <time>2020-02-14T05:10:24.183Z</time>
      </trkpt>
      <trkpt lat="42.61603" lon="1.87277">
        <ele>2326.6</ele>
        <time>2020-02-14T05:10:27.111Z</time>
      </trkpt>
      <trkpt lat="42.61611" lon="1.87282">
        <ele>2323.2</ele>
        <time>2020-02-14T05:10:30.807Z</time>
      </trkpt>
      <trkpt lat="42.61615" lon="1.8729">
        <ele>2322.3</ele>
        <time>2020-02-14T05:10:33.395Z</time>
      </trkpt>
      <trkpt lat="42.6162" lon="1.87299">
        <ele>2321.2</ele>
        <time>2020-02-14T05:10:36.526Z</time>
      </trkpt>
      <trkpt lat="42.61627" lon="1.8731">
        <ele>2320.3</ele>
        <time>2020-02-14T05:10:40.732Z</time>
      </trkpt>
      <trkpt lat="42.61629" lon="1.87318">
        <ele>2319.8</ele>
        <time>2020-02-14T05:10:43.191Z</time>
      </trkpt>
      <trkpt lat="42.61641" lon="1.87329">
        <ele>2318</ele>
        <time>2020-02-14T05:10:48.689Z</time>
      </trkpt>
      <trkpt lat="42.61648" lon="1.87339">
        <ele>2315</ele>
        <time>2020-02-14T05:10:52.705Z</time>
      </trkpt>
      <trkpt lat="42.61655" lon="1.87354">
        <ele>2313.2</ele>
        <time>2020-02-14T05:10:57.966Z</time>
      </trkpt>
      <trkpt lat="42.61656" lon="1.87364">
        <ele>2310.8</ele>
        <time>2020-02-14T05:11:00.842Z</time>
      </trkpt>
      <trkpt lat="42.61654" lon="1.87368">
        <ele>2307.3</ele>
        <time>2020-02-14T05:11:02.703Z</time>
      </trkpt>
      <trkpt lat="42.61662" lon="1.87376">
        <ele>2304.4</ele>
        <time>2020-02-14T05:11:06.681Z</time>
      </trkpt>
      <trkpt lat="42.61666" lon="1.87385">
        <ele>2300.6</ele>
        <time>2020-02-14T05:11:09.887Z</time>
      </trkpt>
      <trkpt lat="42.61668" lon="1.87395">
        <ele>2298.2</ele>
        <time>2020-02-14T05:11:12.880Z</time>
      </trkpt>
      <trkpt lat="42.61669" lon="1.87397">
        <ele>2296.8</ele>
        <time>2020-02-14T05:11:13.748Z</time>
      </trkpt>
      <trkpt lat="42.61672" lon="1.87402">
        <ele>2293.8</ele>
        <time>2020-02-14T05:11:15.997Z</time>
      </trkpt>
      <trkpt lat="42.61678" lon="1.87406">
        <ele>2291.4</ele>
        <time>2020-02-14T05:11:18.561Z</time>
      </trkpt>
      <trkpt lat="42.61679" lon="1.87405">
        <ele>2291.1</ele>
        <time>2020-02-14T05:11:19.157Z</time>
      </trkpt>
      <trkpt lat="42.61683" lon="1.87405">
        <ele>2290.1</ele>
        <time>2020-02-14T05:11:20.742Z</time>
      </trkpt>
      <trkpt lat="42.61686" lon="1.87406">
        <ele>2289.1</ele>
        <time>2020-02-14T05:11:21.835Z</time>
      </trkpt>
      <trkpt lat="42.61696" lon="1.87408">
        <ele>2287.6</ele>
        <time>2020-02-14T05:11:25.808Z</time>
      </trkpt>
      <trkpt lat="42.61701" lon="1.87415">
        <ele>2285.3</ele>
        <time>2020-02-14T05:11:28.745Z</time>
      </trkpt>
      <trkpt lat="42.61704" lon="1.87415">
        <ele>2284.2</ele>
        <time>2020-02-14T05:11:30.107Z</time>
      </trkpt>
      <trkpt lat="42.61713" lon="1.87415">
        <ele>2282.9</ele>
        <time>2020-02-14T05:11:33.620Z</time>
      </trkpt>
      <trkpt lat="42.61714" lon="1.87415">
        <ele>2282.3</ele>
        <time>2020-02-14T05:11:34.172Z</time>
      </trkpt>
      <trkpt lat="42.61725" lon="1.87415">
        <ele>2278.9</ele>
        <time>2020-02-14T05:11:38.512Z</time>
      </trkpt>
      <trkpt lat="42.61731" lon="1.87411">
        <ele>2277.5</ele>
        <time>2020-02-14T05:11:41.000Z</time>
      </trkpt>
      <trkpt lat="42.61734" lon="1.87413">
        <ele>2274.6</ele>
        <time>2020-02-14T05:11:42.708Z</time>
      </trkpt>
      <trkpt lat="42.6174" lon="1.8741">
        <ele>2271.7</ele>
        <time>2020-02-14T05:11:45.594Z</time>
      </trkpt>
      <trkpt lat="42.61741" lon="1.87409">
        <ele>2271.4</ele>
        <time>2020-02-14T05:11:46.080Z</time>
      </trkpt>
      <trkpt lat="42.61749" lon="1.87401">
        <ele>2268.4</ele>
        <time>2020-02-14T05:11:49.908Z</time>
      </trkpt>
      <trkpt lat="42.61755" lon="1.87396">
        <ele>2265.6</ele>
        <time>2020-02-14T05:11:52.786Z</time>
      </trkpt>
      <trkpt lat="42.61761" lon="1.87391">
        <ele>2262.6</ele>
        <time>2020-02-14T05:11:55.728Z</time>
      </trkpt>
      <trkpt lat="42.61769" lon="1.8739">
        <ele>2260.2</ele>
        <time>2020-02-14T05:11:58.712Z</time>
      </trkpt>
      <trkpt lat="42.61777" lon="1.87397">
        <ele>2258.3</ele>
        <time>2020-02-14T05:12:02.400Z</time>
      </trkpt>
      <trkpt lat="42.61779" lon="1.87401">
        <ele>2256.9</ele>
        <time>2020-02-14T05:12:03.963Z</time>
      </trkpt>
      <trkpt lat="42.61785" lon="1.87403">
        <ele>2254.5</ele>
        <time>2020-02-14T05:12:06.559Z</time>
      </trkpt>
      <trkpt lat="42.61795" lon="1.87401">
        <ele>2252.5</ele>
        <time>2020-02-14T05:12:10.406Z</time>
      </trkpt>
      <trkpt lat="42.61799" lon="1.87399">
        <ele>2249.1</ele>
        <time>2020-02-14T05:12:12.384Z</time>
      </trkpt>
      <trkpt lat="42.61801" lon="1.87398">
        <ele>2247.3</ele>
        <time>2020-02-14T05:12:13.326Z</time>
      </trkpt>
      <trkpt lat="42.6181" lon="1.87398">
        <ele>2243.9</ele>
        <time>2020-02-14T05:12:17.063Z</time>
      </trkpt>
      <trkpt lat="42.61818" lon="1.87403">
        <ele>2242.4</ele>
        <time>2020-02-14T05:12:20.281Z</time>
      </trkpt>
      <trkpt lat="42.61822" lon="1.87408">
        <ele>2239.6</ele>
        <time>2020-02-14T05:12:22.603Z</time>
      </trkpt>
      <trkpt lat="42.61828" lon="1.87411">
        <ele>2237.7</ele>
        <time>2020-02-14T05:12:25.428Z</time>
      </trkpt>
      <trkpt lat="42.61835" lon="1.8741">
        <ele>2235.2</ele>
        <time>2020-02-14T05:12:28.077Z</time>
      </trkpt>
      <trkpt lat="42.61842" lon="1.87414">
        <ele>2234.3</ele>
        <time>2020-02-14T05:12:31.003Z</time>
      </trkpt>
      <trkpt lat="42.61848" lon="1.87413">
        <ele>2232.8</ele>
        <time>2020-02-14T05:12:33.492Z</time>
      </trkpt>
      <trkpt lat="42.61852" lon="1.87412">
        <ele>2230.4</ele>
        <time>2020-02-14T05:12:35.476Z</time>
      </trkpt>
      <trkpt lat="42.61854" lon="1.8741">
        <ele>2229</ele>
        <time>2020-02-14T05:12:36.327Z</time>
      </trkpt>
      <trkpt lat="42.61858" lon="1.87406">
        <ele>2228</ele>
        <time>2020-02-14T05:12:38.295Z</time>
      </trkpt>
      <trkpt lat="42.61862" lon="1.87403">
        <ele>2225.2</ele>
        <time>2020-02-14T05:12:40.404Z</time>
      </trkpt>
      <trkpt lat="42.61867" lon="1.87399">
        <ele>2222.8</ele>
        <time>2020-02-14T05:12:42.831Z</time>
      </trkpt>
      <trkpt lat="42.61871" lon="1.87396">
        <ele>2219.8</ele>
        <time>2020-02-14T05:12:44.746Z</time>
      </trkpt>
      <trkpt lat="42.61873" lon="1.87394">
        <ele>2219.9</ele>
        <time>2020-02-14T05:12:45.663Z</time>
      </trkpt>
      <trkpt lat="42.61879" lon="1.87393">
        <ele>2216.9</ele>
        <time>2020-02-14T05:12:48.247Z</time>
      </trkpt>
      <trkpt lat="42.61885" lon="1.87399">
        <ele>2214.2</ele>
        <time>2020-02-14T05:12:51.244Z</time>
      </trkpt>
      <trkpt lat="42.61892" lon="1.87401">
        <ele>2212.1</ele>
        <time>2020-02-14T05:12:53.969Z</time>
      </trkpt>
      <trkpt lat="42.61898" lon="1.87396">
        <ele>2210.7</ele>
        <time>2020-02-14T05:12:56.746Z</time>
      </trkpt>
      <trkpt lat="42.61899" lon="1.87395">
        <ele>2210.3</ele>
        <time>2020-02-14T05:12:57.179Z</time>
      </trkpt>
      <trkpt lat="42.61904" lon="1.87394">
        <ele>2207.8</ele>
        <time>2020-02-14T05:12:59.380Z</time>
      </trkpt>
      <trkpt lat="42.6191" lon="1.87397">
        <ele>2204.9</ele>
        <time>2020-02-14T05:13:02.186Z</time>
      </trkpt>
      <trkpt lat="42.61917" lon="1.87403">
        <ele>2202.1</ele>
        <time>2020-02-14T05:13:05.574Z</time>
      </trkpt>
      <trkpt lat="42.61924" lon="1.87404">
        <ele>2200.1</ele>
        <time>2020-02-14T05:13:08.468Z</time>
      </trkpt>
      <trkpt lat="42.61929" lon="1.87406">
        <ele>2198.3</ele>
        <time>2020-02-14T05:13:10.418Z</time>
      </trkpt>
      <trkpt lat="42.61934" lon="1.87398">
        <ele>2196.8</ele>
        <time>2020-02-14T05:13:13.401Z</time>
      </trkpt>
      <trkpt lat="42.61938" lon="1.87391">
        <ele>2195.3</ele>
        <time>2020-02-14T05:13:15.910Z</time>
      </trkpt>
      <trkpt lat="42.61939" lon="1.87384">
        <ele>2193.4</ele>
        <time>2020-02-14T05:13:18.249Z</time>
      </trkpt>
      <trkpt lat="42.61942" lon="1.87376">
        <ele>2192</ele>
        <time>2020-02-14T05:13:20.727Z</time>
      </trkpt>
      <trkpt lat="42.61948" lon="1.87375">
        <ele>2189.2</ele>
        <time>2020-02-14T05:13:23.502Z</time>
      </trkpt>
      <trkpt lat="42.61953" lon="1.87367">
        <ele>2187.6</ele>
        <time>2020-02-14T05:13:26.392Z</time>
      </trkpt>
      <trkpt lat="42.61958" lon="1.87366">
        <ele>2184.3</ele>
        <time>2020-02-14T05:13:28.802Z</time>
      </trkpt>
      <trkpt lat="42.61964" lon="1.87372">
        <ele>2180.9</ele>
        <time>2020-02-14T05:13:31.755Z</time>
      </trkpt>
      <trkpt lat="42.6197" lon="1.8738">
        <ele>2178</ele>
        <time>2020-02-14T05:13:35.219Z</time>
      </trkpt>
      <trkpt lat="42.61976" lon="1.87381">
        <ele>2176.1</ele>
        <time>2020-02-14T05:13:37.528Z</time>
      </trkpt>
      <trkpt lat="42.61983" lon="1.8738">
        <ele>2173.7</ele>
        <time>2020-02-14T05:13:40.516Z</time>
      </trkpt>
      <trkpt lat="42.6199" lon="1.87383">
        <ele>2171.4</ele>
        <time>2020-02-14T05:13:43.614Z</time>
      </trkpt>
      <trkpt lat="42.61995" lon="1.87386">
        <ele>2168</ele>
        <time>2020-02-14T05:13:45.862Z</time>
      </trkpt>
      <trkpt lat="42.61999" lon="1.87395">
        <ele>2165.5</ele>
        <time>2020-02-14T05:13:48.845Z</time>
      </trkpt>
      <trkpt lat="42.62" lon="1.87397">
        <ele>2164.7</ele>
        <time>2020-02-14T05:13:49.786Z</time>
      </trkpt>
      <trkpt lat="42.62008" lon="1.87401">
        <ele>2162.2</ele>
        <time>2020-02-14T05:13:53.231Z</time>
      </trkpt>
      <trkpt lat="42.62011" lon="1.87408">
        <ele>2159.7</ele>
        <time>2020-02-14T05:13:55.432Z</time>
      </trkpt>
      <trkpt lat="42.62016" lon="1.87415">
        <ele>2156.9</ele>
        <time>2020-02-14T05:13:58.361Z</time>
      </trkpt>
      <trkpt lat="42.62019" lon="1.87408">
        <ele>2154</ele>
        <time>2020-02-14T05:14:01.052Z</time>
      </trkpt>
      <trkpt lat="42.62025" lon="1.87417">
        <ele>2151.2</ele>
        <time>2020-02-14T05:14:04.700Z</time>
      </trkpt>
      <trkpt lat="42.62031" lon="1.8742">
        <ele>2148.3</ele>
        <time>2020-02-14T05:14:07.426Z</time>
      </trkpt>
      <trkpt lat="42.62037" lon="1.87418">
        <ele>2146.3</ele>
        <time>2020-02-14T05:14:09.611Z</time>
      </trkpt>
      <trkpt lat="42.62042" lon="1.87421">
        <ele>2143.4</ele>
        <time>2020-02-14T05:14:12.133Z</time>
      </trkpt>
      <trkpt lat="42.62051" lon="1.87419">
        <ele>2141.1</ele>
        <time>2020-02-14T05:14:15.641Z</time>
      </trkpt>
      <trkpt lat="42.62061" lon="1.87423">
        <ele>2139.7</ele>
        <time>2020-02-14T05:14:19.652Z</time>
      </trkpt>
      <trkpt lat="42.62064" lon="1.87425">
        <ele>2138.7</ele>
        <time>2020-02-14T05:14:20.930Z</time>
      </trkpt>
      <trkpt lat="42.62073" lon="1.87429">
        <ele>2137.3</ele>
        <time>2020-02-14T05:14:24.756Z</time>
      </trkpt>
      <trkpt lat="42.62079" lon="1.87432">
        <ele>2134.7</ele>
        <time>2020-02-14T05:14:27.492Z</time>
      </trkpt>
      <trkpt lat="42.62082" lon="1.87431">
        <ele>2133.8</ele>
        <time>2020-02-14T05:14:28.702Z</time>
      </trkpt>
      <trkpt lat="42.6209" lon="1.87434">
        <ele>2131.4</ele>
        <time>2020-02-14T05:14:31.839Z</time>
      </trkpt>
      <trkpt lat="42.62094" lon="1.87432">
        <ele>2129</ele>
        <time>2020-02-14T05:14:33.590Z</time>
      </trkpt>
      <trkpt lat="42.62098" lon="1.87436">
        <ele>2127.6</ele>
        <time>2020-02-14T05:14:35.777Z</time>
      </trkpt>
      <trkpt lat="42.62105" lon="1.87434">
        <ele>2125.1</ele>
        <time>2020-02-14T05:14:38.724Z</time>
      </trkpt>
      <trkpt lat="42.62113" lon="1.87438">
        <ele>2122.3</ele>
        <time>2020-02-14T05:14:42.259Z</time>
      </trkpt>
      <trkpt lat="42.62121" lon="1.87447">
        <ele>2119.4</ele>
        <time>2020-02-14T05:14:46.101Z</time>
      </trkpt>
      <trkpt lat="42.62122" lon="1.87455">
        <ele>2116.5</ele>
        <time>2020-02-14T05:14:48.640Z</time>
      </trkpt>
      <trkpt lat="42.62126" lon="1.87458">
        <ele>2113.2</ele>
        <time>2020-02-14T05:14:50.608Z</time>
      </trkpt>
      <trkpt lat="42.62137" lon="1.87466">
        <ele>2110.2</ele>
        <time>2020-02-14T05:14:55.692Z</time>
      </trkpt>
      <trkpt lat="42.62143" lon="1.87468">
        <ele>2108.3</ele>
        <time>2020-02-14T05:14:58.106Z</time>
      </trkpt>
      <trkpt lat="42.62147" lon="1.87473">
        <ele>2107.4</ele>
        <time>2020-02-14T05:15:00.259Z</time>
      </trkpt>
      <trkpt lat="42.62153" lon="1.87483">
        <ele>2105.4</ele>
        <time>2020-02-14T05:15:03.853Z</time>
      </trkpt>
      <trkpt lat="42.62159" lon="1.87491">
        <ele>2104</ele>
        <time>2020-02-14T05:15:06.999Z</time>
      </trkpt>
      <trkpt lat="42.62165" lon="1.87497">
        <ele>2100.7</ele>
        <time>2020-02-14T05:15:10.296Z</time>
      </trkpt>
      <trkpt lat="42.6217" lon="1.87501">
        <ele>2097.4</ele>
        <time>2020-02-14T05:15:12.884Z</time>
      </trkpt>
      <trkpt lat="42.62175" lon="1.87504">
        <ele>2094</ele>
        <time>2020-02-14T05:15:15.217Z</time>
      </trkpt>
      <trkpt lat="42.62182" lon="1.87505">
        <ele>2090.5</ele>
        <time>2020-02-14T05:15:18.093Z</time>
      </trkpt>
      <trkpt lat="42.62191" lon="1.8751">
        <ele>2087.3</ele>
        <time>2020-02-14T05:15:22.177Z</time>
      </trkpt>
      <trkpt lat="42.62195" lon="1.87512">
        <ele>2084.4</ele>
        <time>2020-02-14T05:15:24.189Z</time>
      </trkpt>
      <trkpt lat="42.62196" lon="1.87515">
        <ele>2081.5</ele>
        <time>2020-02-14T05:15:25.472Z</time>
      </trkpt>
      <trkpt lat="42.62205" lon="1.87518">
        <ele>2079</ele>
        <time>2020-02-14T05:15:29.121Z</time>
      </trkpt>
      <trkpt lat="42.62213" lon="1.87519">
        <ele>2075.6</ele>
        <time>2020-02-14T05:15:32.510Z</time>
      </trkpt>
      <trkpt lat="42.62224" lon="1.87518">
        <ele>2072.3</ele>
        <time>2020-02-14T05:15:36.737Z</time>
      </trkpt>
      <trkpt lat="42.6223" lon="1.8752">
        <ele>2071.4</ele>
        <time>2020-02-14T05:15:39.250Z</time>
      </trkpt>
      <trkpt lat="42.62235" lon="1.87525">
        <ele>2068</ele>
        <time>2020-02-14T05:15:41.820Z</time>
      </trkpt>
      <trkpt lat="42.62239" lon="1.87532">
        <ele>2064.6</ele>
        <time>2020-02-14T05:15:44.664Z</time>
      </trkpt>
      <trkpt lat="42.62245" lon="1.87537">
        <ele>2062.8</ele>
        <time>2020-02-14T05:15:47.580Z</time>
      </trkpt>
      <trkpt lat="42.62259" lon="1.87541">
        <ele>2059.8</ele>
        <time>2020-02-14T05:15:53.108Z</time>
      </trkpt>
      <trkpt lat="42.62269" lon="1.87548">
        <ele>2059.4</ele>
        <time>2020-02-14T05:15:57.362Z</time>
      </trkpt>
      <trkpt lat="42.62273" lon="1.87551">
        <ele>2059.9</ele>
        <time>2020-02-14T05:15:59.266Z</time>
      </trkpt>
      <trkpt lat="42.62283" lon="1.87557">
        <ele>2060.3</ele>
        <time>2020-02-14T05:16:03.543Z</time>
      </trkpt>
      <trkpt lat="42.62289" lon="1.87561">
        <ele>2059.9</ele>
        <time>2020-02-14T05:16:06.021Z</time>
      </trkpt>
      <trkpt lat="42.62295" lon="1.8757">
        <ele>2059.3</ele>
        <time>2020-02-14T05:16:09.389Z</time>
      </trkpt>
      <trkpt lat="42.62304" lon="1.87574">
        <ele>2061.2</ele>
        <time>2020-02-14T05:16:13.122Z</time>
      </trkpt>
      <trkpt lat="42.6231" lon="1.87576">
        <ele>2064.1</ele>
        <time>2020-02-14T05:16:15.668Z</time>
      </trkpt>
      <trkpt lat="42.62315" lon="1.87581">
        <ele>2066</ele>
        <time>2020-02-14T05:16:17.986Z</time>
      </trkpt>
      <trkpt lat="42.62318" lon="1.87585">
        <ele>2066.6</ele>
        <time>2020-02-14T05:16:19.927Z</time>
      </trkpt>
      <trkpt lat="42.62321" lon="1.87585">
        <ele>2067</ele>
        <time>2020-02-14T05:16:20.837Z</time>
      </trkpt>
      <trkpt lat="42.62323" lon="1.87588">
        <ele>2067.6</ele>
        <time>2020-02-14T05:16:22.262Z</time>
      </trkpt>
      <trkpt lat="42.62326" lon="1.8759">
        <ele>2064.2</ele>
        <time>2020-02-14T05:16:23.928Z</time>
      </trkpt>
      <trkpt lat="42.62332" lon="1.87604">
        <ele>2062.2</ele>
        <time>2020-02-14T05:16:28.546Z</time>
      </trkpt>
      <trkpt lat="42.62339" lon="1.87604">
        <ele>2059.8</ele>
        <time>2020-02-14T05:16:31.266Z</time>
      </trkpt>
      <trkpt lat="42.62344" lon="1.87613">
        <ele>2056.4</ele>
        <time>2020-02-14T05:16:34.592Z</time>
      </trkpt>
      <trkpt lat="42.62348" lon="1.87624">
        <ele>2054</ele>
        <time>2020-02-14T05:16:38.167Z</time>
      </trkpt>
      <trkpt lat="42.62354" lon="1.87635">
        <ele>2051.1</ele>
        <time>2020-02-14T05:16:42.029Z</time>
      </trkpt>
      <trkpt lat="42.62357" lon="1.87647">
        <ele>2048.2</ele>
        <time>2020-02-14T05:16:45.996Z</time>
      </trkpt>
      <trkpt lat="42.62364" lon="1.87652">
        <ele>2045.3</ele>
        <time>2020-02-14T05:16:49.406Z</time>
      </trkpt>
      <trkpt lat="42.62367" lon="1.8766">
        <ele>2043.5</ele>
        <time>2020-02-14T05:16:52.060Z</time>
      </trkpt>
      <trkpt lat="42.62378" lon="1.87659">
        <ele>2042.1</ele>
        <time>2020-02-14T05:16:56.036Z</time>
      </trkpt>
      <trkpt lat="42.6238" lon="1.8766">
        <ele>2042</ele>
        <time>2020-02-14T05:16:56.892Z</time>
      </trkpt>
      <trkpt lat="42.62393" lon="1.87661">
        <ele>2042.6</ele>
        <time>2020-02-14T05:17:01.928Z</time>
      </trkpt>
      <trkpt lat="42.62408" lon="1.87669">
        <ele>2042.6</ele>
        <time>2020-02-14T05:17:08.196Z</time>
      </trkpt>
      <trkpt lat="42.62422" lon="1.87671">
        <ele>2042.1</ele>
        <time>2020-02-14T05:17:13.503Z</time>
      </trkpt>
      <trkpt lat="42.62434" lon="1.87673">
        <ele>2041.5</ele>
        <time>2020-02-14T05:17:18.498Z</time>
      </trkpt>
      <trkpt lat="42.62445" lon="1.87678">
        <ele>2038.6</ele>
        <time>2020-02-14T05:17:22.945Z</time>
      </trkpt>
      <trkpt lat="42.6245" lon="1.87681">
        <ele>2037.2</ele>
        <time>2020-02-14T05:17:24.984Z</time>
      </trkpt>
      <trkpt lat="42.62457" lon="1.87678">
        <ele>2036.2</ele>
        <time>2020-02-14T05:17:28.003Z</time>
      </trkpt>
      <trkpt lat="42.62461" lon="1.87679">
        <ele>2035.7</ele>
        <time>2020-02-14T05:17:29.386Z</time>
      </trkpt>
      <trkpt lat="42.62472" lon="1.87684">
        <ele>2033.9</ele>
        <time>2020-02-14T05:17:33.919Z</time>
      </trkpt>
      <trkpt lat="42.62474" lon="1.87685">
        <ele>2033.9</ele>
        <time>2020-02-14T05:17:34.813Z</time>
      </trkpt>
      <trkpt lat="42.62476" lon="1.87682">
        <ele>2032.9</ele>
        <time>2020-02-14T05:17:36.151Z</time>
      </trkpt>
      <trkpt lat="42.62478" lon="1.8768">
        <ele>2031</ele>
        <time>2020-02-14T05:17:37.330Z</time>
      </trkpt>
      <trkpt lat="42.62484" lon="1.87679">
        <ele>2029</ele>
        <time>2020-02-14T05:17:39.535Z</time>
      </trkpt>
      <trkpt lat="42.62491" lon="1.87682">
        <ele>2025.6</ele>
        <time>2020-02-14T05:17:42.850Z</time>
      </trkpt>
      <trkpt lat="42.62492" lon="1.87683">
        <ele>2025.3</ele>
        <time>2020-02-14T05:17:43.392Z</time>
      </trkpt>
      <trkpt lat="42.62495" lon="1.87687">
        <ele>2022.8</ele>
        <time>2020-02-14T05:17:45.033Z</time>
      </trkpt>
      <trkpt lat="42.62499" lon="1.87692">
        <ele>2019.9</ele>
        <time>2020-02-14T05:17:47.453Z</time>
      </trkpt>
      <trkpt lat="42.62502" lon="1.87693">
        <ele>2018.9</ele>
        <time>2020-02-14T05:17:48.851Z</time>
      </trkpt>
      <trkpt lat="42.62513" lon="1.87702">
        <ele>2015.5</ele>
        <time>2020-02-14T05:17:53.712Z</time>
      </trkpt>
      <trkpt lat="42.62519" lon="1.87705">
        <ele>2013.6</ele>
        <time>2020-02-14T05:17:56.457Z</time>
      </trkpt>
      <trkpt lat="42.6253" lon="1.87706">
        <ele>2012.8</ele>
        <time>2020-02-14T05:18:00.506Z</time>
      </trkpt>
      <trkpt lat="42.62537" lon="1.87706">
        <ele>2011.3</ele>
        <time>2020-02-14T05:18:03.219Z</time>
      </trkpt>
      <trkpt lat="42.62542" lon="1.87713">
        <ele>2008.3</ele>
        <time>2020-02-14T05:18:06.234Z</time>
      </trkpt>
      <trkpt lat="42.62548" lon="1.87719">
        <ele>2005.5</ele>
        <time>2020-02-14T05:18:09.262Z</time>
      </trkpt>
      <trkpt lat="42.62556" lon="1.87731">
        <ele>2002.7</ele>
        <time>2020-02-14T05:18:13.954Z</time>
      </trkpt>
      <trkpt lat="42.62557" lon="1.87732">
        <ele>2001.7</ele>
        <time>2020-02-14T05:18:14.721Z</time>
      </trkpt>
      <trkpt lat="42.62562" lon="1.87738">
        <ele>1998.2</ele>
        <time>2020-02-14T05:18:17.367Z</time>
      </trkpt>
      <trkpt lat="42.62566" lon="1.87739">
        <ele>1996.8</ele>
        <time>2020-02-14T05:18:18.852Z</time>
      </trkpt>
      <trkpt lat="42.62568" lon="1.87743">
        <ele>1994</ele>
        <time>2020-02-14T05:18:20.778Z</time>
      </trkpt>
      <trkpt lat="42.62568" lon="1.87744">
        <ele>1993.4</ele>
        <time>2020-02-14T05:18:21.029Z</time>
      </trkpt>
      <trkpt lat="42.62569" lon="1.87746">
        <ele>1993.4</ele>
        <time>2020-02-14T05:18:21.719Z</time>
      </trkpt>
      <trkpt lat="42.62574" lon="1.87756">
        <ele>1990.6</ele>
        <time>2020-02-14T05:18:25.222Z</time>
      </trkpt>
      <trkpt lat="42.6258" lon="1.87762">
        <ele>1987.2</ele>
        <time>2020-02-14T05:18:28.265Z</time>
      </trkpt>
      <trkpt lat="42.62584" lon="1.87763">
        <ele>1984.9</ele>
        <time>2020-02-14T05:18:30.258Z</time>
      </trkpt>
      <trkpt lat="42.62592" lon="1.87764">
        <ele>1981.4</ele>
        <time>2020-02-14T05:18:33.506Z</time>
      </trkpt>
      <trkpt lat="42.62598" lon="1.87766">
        <ele>1978.5</ele>
        <time>2020-02-14T05:18:36.197Z</time>
      </trkpt>
      <trkpt lat="42.62605" lon="1.87772">
        <ele>1975.7</ele>
        <time>2020-02-14T05:18:39.341Z</time>
      </trkpt>
      <trkpt lat="42.6261" lon="1.87776">
        <ele>1972.8</ele>
        <time>2020-02-14T05:18:42.076Z</time>
      </trkpt>
      <trkpt lat="42.62612" lon="1.87777">
        <ele>1971.8</ele>
        <time>2020-02-14T05:18:42.953Z</time>
      </trkpt>
      <trkpt lat="42.62621" lon="1.87783">
        <ele>1968.9</ele>
        <time>2020-02-14T05:18:46.698Z</time>
      </trkpt>
      <trkpt lat="42.62624" lon="1.87785">
        <ele>1968.1</ele>
        <time>2020-02-14T05:18:47.971Z</time>
      </trkpt>
      <trkpt lat="42.62628" lon="1.87794">
        <ele>1964.2</ele>
        <time>2020-02-14T05:18:51.188Z</time>
      </trkpt>
      <trkpt lat="42.62628" lon="1.87799">
        <ele>1961.2</ele>
        <time>2020-02-14T05:18:52.966Z</time>
      </trkpt>
      <trkpt lat="42.62628" lon="1.87799">
        <ele>1961.2</ele>
        <time>2020-02-14T05:18:53.085Z</time>
      </trkpt>
      <trkpt lat="42.62633" lon="1.87799">
        <ele>1958.4</ele>
        <time>2020-02-14T05:18:55.020Z</time>
      </trkpt>
      <trkpt lat="42.6264" lon="1.87809">
        <ele>1955</ele>
        <time>2020-02-14T05:18:59.373Z</time>
      </trkpt>
      <trkpt lat="42.62644" lon="1.87809">
        <ele>1954.1</ele>
        <time>2020-02-14T05:19:00.921Z</time>
      </trkpt>
      <trkpt lat="42.62647" lon="1.87817">
        <ele>1952.6</ele>
        <time>2020-02-14T05:19:03.445Z</time>
      </trkpt>
      <trkpt lat="42.6265" lon="1.87816">
        <ele>1951.6</ele>
        <time>2020-02-14T05:19:04.327Z</time>
      </trkpt>
      <trkpt lat="42.62657" lon="1.87818">
        <ele>1948.3</ele>
        <time>2020-02-14T05:19:07.321Z</time>
      </trkpt>
      <trkpt lat="42.62662" lon="1.87827">
        <ele>1946</ele>
        <time>2020-02-14T05:19:10.604Z</time>
      </trkpt>
      <trkpt lat="42.62669" lon="1.87833">
        <ele>1943</ele>
        <time>2020-02-14T05:19:13.953Z</time>
      </trkpt>
      <trkpt lat="42.62676" lon="1.87836">
        <ele>1940.7</ele>
        <time>2020-02-14T05:19:17.062Z</time>
      </trkpt>
      <trkpt lat="42.62683" lon="1.87833">
        <ele>1938.2</ele>
        <time>2020-02-14T05:19:19.829Z</time>
      </trkpt>
      <trkpt lat="42.6269" lon="1.87833">
        <ele>1934.9</ele>
        <time>2020-02-14T05:19:22.949Z</time>
      </trkpt>
      <trkpt lat="42.62691" lon="1.87835">
        <ele>1931.4</ele>
        <time>2020-02-14T05:19:24.380Z</time>
      </trkpt>
      <trkpt lat="42.62695" lon="1.87837">
        <ele>1928.6</ele>
        <time>2020-02-14T05:19:26.208Z</time>
      </trkpt>
      <trkpt lat="42.62701" lon="1.87836">
        <ele>1925.2</ele>
        <time>2020-02-14T05:19:28.700Z</time>
      </trkpt>
      <trkpt lat="42.62701" lon="1.87839">
        <ele>1921.3</ele>
        <time>2020-02-14T05:19:30.238Z</time>
      </trkpt>
      <trkpt lat="42.62704" lon="1.87842">
        <ele>1918.9</ele>
        <time>2020-02-14T05:19:31.837Z</time>
      </trkpt>
      <trkpt lat="42.6271" lon="1.87845">
        <ele>1915.6</ele>
        <time>2020-02-14T05:19:34.776Z</time>
      </trkpt>
      <trkpt lat="42.62718" lon="1.87848">
        <ele>1913.2</ele>
        <time>2020-02-14T05:19:38.164Z</time>
      </trkpt>
      <trkpt lat="42.62723" lon="1.87849">
        <ele>1909.8</ele>
        <time>2020-02-14T05:19:40.252Z</time>
      </trkpt>
      <trkpt lat="42.62729" lon="1.8785">
        <ele>1909.8</ele>
        <time>2020-02-14T05:19:42.542Z</time>
      </trkpt>
      <trkpt lat="42.62731" lon="1.8785">
        <ele>1910.8</ele>
        <time>2020-02-14T05:19:43.601Z</time>
      </trkpt>
      <trkpt lat="42.62735" lon="1.87855">
        <ele>1907.5</ele>
        <time>2020-02-14T05:19:45.858Z</time>
      </trkpt>
      <trkpt lat="42.62735" lon="1.87856">
        <ele>1901.7</ele>
        <time>2020-02-14T05:19:47.880Z</time>
      </trkpt>
      <trkpt lat="42.62735" lon="1.87856">
        <ele>1908</ele>
        <time>2020-02-14T05:19:50.066Z</time>
      </trkpt>
      <trkpt lat="42.62735" lon="1.87856">
        <ele>1915.7</ele>
        <time>2020-02-14T05:19:52.730Z</time>
      </trkpt>
      <trkpt lat="42.62735" lon="1.87856">
        <ele>1904.1</ele>
        <time>2020-02-14T05:19:56.752Z</time>
      </trkpt>
      <trkpt lat="42.62735" lon="1.87856">
        <ele>1907.4</ele>
        <time>2020-02-14T05:19:57.910Z</time>
      </trkpt>
      <trkpt lat="42.62734" lon="1.87863">
        <ele>1904.5</ele>
        <time>2020-02-14T05:20:00.295Z</time>
      </trkpt>
      <trkpt lat="42.62734" lon="1.8789">
        <ele>1906</ele>
        <time>2020-02-14T05:20:07.731Z</time>
      </trkpt>
      <trkpt lat="42.62739" lon="1.87895">
        <ele>1902.7</ele>
        <time>2020-02-14T05:20:10.480Z</time>
      </trkpt>
      <trkpt lat="42.6274" lon="1.87903">
        <ele>1902.1</ele>
        <time>2020-02-14T05:20:12.871Z</time>
      </trkpt>
      <trkpt lat="42.62741" lon="1.87907">
        <ele>1902.1</ele>
        <time>2020-02-14T05:20:13.961Z</time>
      </trkpt>
      <trkpt lat="42.62752" lon="1.8791">
        <ele>1900.8</ele>
        <time>2020-02-14T05:20:18.247Z</time>
      </trkpt>
      <trkpt lat="42.62756" lon="1.87915">
        <ele>1900.3</ele>
        <time>2020-02-14T05:20:20.401Z</time>
      </trkpt>
      <trkpt lat="42.62759" lon="1.87922">
        <ele>1899.2</ele>
        <time>2020-02-14T05:20:22.721Z</time>
      </trkpt>
      <trkpt lat="42.62766" lon="1.87926">
        <ele>1899.3</ele>
        <time>2020-02-14T05:20:25.530Z</time>
      </trkpt>
      <trkpt lat="42.62765" lon="1.87926">
        <ele>1894.9</ele>
        <time>2020-02-14T05:20:27.052Z</time>
      </trkpt>
      <trkpt lat="42.62765" lon="1.87926">
        <ele>1896.8</ele>
        <time>2020-02-14T05:20:27.708Z</time>
      </trkpt>
      <trkpt lat="42.62765" lon="1.87926">
        <ele>1900.7</ele>
        <time>2020-02-14T05:20:29.058Z</time>
      </trkpt>
      <trkpt lat="42.62765" lon="1.87926">
        <ele>1895.5</ele>
        <time>2020-02-14T05:20:30.874Z</time>
      </trkpt>
      <trkpt lat="42.62765" lon="1.87926">
        <ele>1900.2</ele>
        <time>2020-02-14T05:20:32.517Z</time>
      </trkpt>
      <trkpt lat="42.62765" lon="1.87926">
        <ele>1899.3</ele>
        <time>2020-02-14T05:20:32.847Z</time>
      </trkpt>
      <trkpt lat="42.62765" lon="1.87928">
        <ele>1894.5</ele>
        <time>2020-02-14T05:20:34.548Z</time>
      </trkpt>
      <trkpt lat="42.62765" lon="1.8793">
        <ele>1894.4</ele>
        <time>2020-02-14T05:20:35.230Z</time>
      </trkpt>
      <trkpt lat="42.62766" lon="1.87932">
        <ele>1903.1</ele>
        <time>2020-02-14T05:20:38.326Z</time>
      </trkpt>
      <trkpt lat="42.62766" lon="1.87934">
        <ele>1899.2</ele>
        <time>2020-02-14T05:20:39.834Z</time>
      </trkpt>
      <trkpt lat="42.62768" lon="1.87937">
        <ele>1899.2</ele>
        <time>2020-02-14T05:20:40.818Z</time>
      </trkpt>
      <trkpt lat="42.62769" lon="1.8794">
        <ele>1898.8</ele>
        <time>2020-02-14T05:20:41.709Z</time>
      </trkpt>
      <trkpt lat="42.62768" lon="1.87952">
        <ele>1899.2</ele>
        <time>2020-02-14T05:20:45.154Z</time>
      </trkpt>
      <trkpt lat="42.62767" lon="1.87963">
        <ele>1899.7</ele>
        <time>2020-02-14T05:20:48.189Z</time>
      </trkpt>
      <trkpt lat="42.62767" lon="1.87977">
        <ele>1900.2</ele>
        <time>2020-02-14T05:20:52.430Z</time>
      </trkpt>
      <trkpt lat="42.62765" lon="1.87995">
        <ele>1899.8</ele>
        <time>2020-02-14T05:20:57.566Z</time>
      </trkpt>
      <trkpt lat="42.62765" lon="1.88012">
        <ele>1899.8</ele>
        <time>2020-02-14T05:21:02.256Z</time>
      </trkpt>
      <trkpt lat="42.62764" lon="1.88022">
        <ele>1899.8</ele>
        <time>2020-02-14T05:21:05.139Z</time>
      </trkpt>
      <trkpt lat="42.62763" lon="1.88023">
        <ele>1899.3</ele>
        <time>2020-02-14T05:21:05.673Z</time>
      </trkpt>
      <trkpt lat="42.62766" lon="1.88046">
        <ele>1899.2</ele>
        <time>2020-02-14T05:21:12.073Z</time>
      </trkpt>
      <trkpt lat="42.62767" lon="1.88047">
        <ele>1898.7</ele>
        <time>2020-02-14T05:21:12.890Z</time>
      </trkpt>
      <trkpt lat="42.62768" lon="1.88064">
        <ele>1899.2</ele>
        <time>2020-02-14T05:21:17.585Z</time>
      </trkpt>
      <trkpt lat="42.62769" lon="1.88081">
        <ele>1899.3</ele>
        <time>2020-02-14T05:21:22.351Z</time>
      </trkpt>
      <trkpt lat="42.62769" lon="1.88099">
        <ele>1898.7</ele>
        <time>2020-02-14T05:21:27.581Z</time>
      </trkpt>
      <trkpt lat="42.62769" lon="1.88109">
        <ele>1898.3</ele>
        <time>2020-02-14T05:21:30.431Z</time>
      </trkpt>
      <trkpt lat="42.62769" lon="1.88124">
        <ele>1897.8</ele>
        <time>2020-02-14T05:21:34.554Z</time>
      </trkpt>
      <trkpt lat="42.62769" lon="1.88138">
        <ele>1897.8</ele>
        <time>2020-02-14T05:21:38.732Z</time>
      </trkpt>
      <trkpt lat="42.62772" lon="1.88153">
        <ele>1896.8</ele>
        <time>2020-02-14T05:21:43.115Z</time>
      </trkpt>
      <trkpt lat="42.62773" lon="1.88172">
        <ele>1897.4</ele>
        <time>2020-02-14T05:21:48.486Z</time>
      </trkpt>
      <trkpt lat="42.62774" lon="1.88183">
        <ele>1896.9</ele>
        <time>2020-02-14T05:21:51.739Z</time>
      </trkpt>
      <trkpt lat="42.62775" lon="1.88189">
        <ele>1896.9</ele>
        <time>2020-02-14T05:21:53.360Z</time>
      </trkpt>
      <trkpt lat="42.62783" lon="1.88202">
        <ele>1896.3</ele>
        <time>2020-02-14T05:21:58.294Z</time>
      </trkpt>
      <trkpt lat="42.62794" lon="1.88212">
        <ele>1895.9</ele>
        <time>2020-02-14T05:22:03.354Z</time>
      </trkpt>
      <trkpt lat="42.62797" lon="1.88214">
        <ele>1895.9</ele>
        <time>2020-02-14T05:22:04.834Z</time>
      </trkpt>
      <trkpt lat="42.62804" lon="1.88226">
        <ele>1895.4</ele>
        <time>2020-02-14T05:22:08.888Z</time>
      </trkpt>
      <trkpt lat="42.62808" lon="1.88231">
        <ele>1894.4</ele>
        <time>2020-02-14T05:22:11.133Z</time>
      </trkpt>
      <trkpt lat="42.62813" lon="1.88235">
        <ele>1894.9</ele>
        <time>2020-02-14T05:22:13.510Z</time>
      </trkpt>
      <trkpt lat="42.62823" lon="1.88239">
        <ele>1894.5</ele>
        <time>2020-02-14T05:22:17.330Z</time>
      </trkpt>
      <trkpt lat="42.62832" lon="1.88241">
        <ele>1894</ele>
        <time>2020-02-14T05:22:20.708Z</time>
      </trkpt>
      <trkpt lat="42.62835" lon="1.8824">
        <ele>1894.4</ele>
        <time>2020-02-14T05:22:22.116Z</time>
      </trkpt>
      <trkpt lat="42.62843" lon="1.88247">
        <ele>1893.9</ele>
        <time>2020-02-14T05:22:25.771Z</time>
      </trkpt>
      <trkpt lat="42.62845" lon="1.8825">
        <ele>1893.5</ele>
        <time>2020-02-14T05:22:26.972Z</time>
      </trkpt>
      <trkpt lat="42.62851" lon="1.88255">
        <ele>1894</ele>
        <time>2020-02-14T05:22:29.740Z</time>
      </trkpt>
      <trkpt lat="42.62859" lon="1.88271">
        <ele>1893</ele>
        <time>2020-02-14T05:22:35.219Z</time>
      </trkpt>
      <trkpt lat="42.62862" lon="1.88282">
        <ele>1893.9</ele>
        <time>2020-02-14T05:22:38.417Z</time>
      </trkpt>
      <trkpt lat="42.62861" lon="1.88289">
        <ele>1893.9</ele>
        <time>2020-02-14T05:22:40.694Z</time>
      </trkpt>
      <trkpt lat="42.6286" lon="1.88291">
        <ele>1895.4</ele>
        <time>2020-02-14T05:22:41.467Z</time>
      </trkpt>
      <trkpt lat="42.6286" lon="1.88291">
        <ele>1901.7</ele>
        <time>2020-02-14T05:22:43.637Z</time>
      </trkpt>
      <trkpt lat="42.6286" lon="1.88291">
        <ele>1892.1</ele>
        <time>2020-02-14T05:22:46.961Z</time>
      </trkpt>
      <trkpt lat="42.6286" lon="1.88291">
        <ele>1897.8</ele>
        <time>2020-02-14T05:22:48.959Z</time>
      </trkpt>
      <trkpt lat="42.6286" lon="1.88291">
        <ele>1889.1</ele>
        <time>2020-02-14T05:22:51.979Z</time>
      </trkpt>
      <trkpt lat="42.6286" lon="1.88291">
        <ele>1894.5</ele>
        <time>2020-02-14T05:22:53.837Z</time>
      </trkpt>
      <trkpt lat="42.6285" lon="1.88312">
        <ele>1895.4</ele>
        <time>2020-02-14T05:23:00.834Z</time>
      </trkpt>
      <trkpt lat="42.62847" lon="1.88319">
        <ele>1897.8</ele>
        <time>2020-02-14T05:23:03.401Z</time>
      </trkpt>
      <trkpt lat="42.62855" lon="1.88321">
        <ele>1887.3</ele>
        <time>2020-02-14T05:23:08.230Z</time>
      </trkpt>
      <trkpt lat="42.6286" lon="1.88319">
        <ele>1887.2</ele>
        <time>2020-02-14T05:23:10.202Z</time>
      </trkpt>
      <trkpt lat="42.62876" lon="1.88317">
        <ele>1886.7</ele>
        <time>2020-02-14T05:23:16.436Z</time>
      </trkpt>
      <trkpt lat="42.62901" lon="1.88311">
        <ele>1887.7</ele>
        <time>2020-02-14T05:23:26.345Z</time>
      </trkpt>
      <trkpt lat="42.62911" lon="1.88314">
        <ele>1888.3</ele>
        <time>2020-02-14T05:23:30.306Z</time>
      </trkpt>
      <trkpt lat="42.62912" lon="1.88314">
        <ele>1889.1</ele>
        <time>2020-02-14T05:23:30.696Z</time>
      </trkpt>
      <trkpt lat="42.62915" lon="1.88319">
        <ele>1889.7</ele>
        <time>2020-02-14T05:23:32.558Z</time>
      </trkpt>
      <trkpt lat="42.62917" lon="1.88323">
        <ele>1890.2</ele>
        <time>2020-02-14T05:23:34.023Z</time>
      </trkpt>
      <trkpt lat="42.62927" lon="1.88328">
        <ele>1889.1</ele>
        <time>2020-02-14T05:23:38.113Z</time>
      </trkpt>
      <trkpt lat="42.62938" lon="1.8833">
        <ele>1889.1</ele>
        <time>2020-02-14T05:23:42.494Z</time>
      </trkpt>
      <trkpt lat="42.62944" lon="1.88337">
        <ele>1892.5</ele>
        <time>2020-02-14T05:23:45.683Z</time>
      </trkpt>
      <trkpt lat="42.62948" lon="1.88336">
        <ele>1894.4</ele>
        <time>2020-02-14T05:23:47.190Z</time>
      </trkpt>
      <trkpt lat="42.62955" lon="1.88336">
        <ele>1896.4</ele>
        <time>2020-02-14T05:23:50.094Z</time>
      </trkpt>
      <trkpt lat="42.62969" lon="1.88339">
        <ele>1896.8</ele>
        <time>2020-02-14T05:23:55.686Z</time>
      </trkpt>
      <trkpt lat="42.62979" lon="1.88337">
        <ele>1896.3</ele>
        <time>2020-02-14T05:23:59.716Z</time>
      </trkpt>
      <trkpt lat="42.6298" lon="1.88335">
        <ele>1896.4</ele>
        <time>2020-02-14T05:24:00.160Z</time>
      </trkpt>
      <trkpt lat="42.62988" lon="1.88323">
        <ele>1896.9</ele>
        <time>2020-02-14T05:24:04.922Z</time>
      </trkpt>
      <trkpt lat="42.62993" lon="1.88321">
        <ele>1899.2</ele>
        <time>2020-02-14T05:24:07.178Z</time>
      </trkpt>
      <trkpt lat="42.62995" lon="1.8832">
        <ele>1900.7</ele>
        <time>2020-02-14T05:24:08.027Z</time>
      </trkpt>
      <trkpt lat="42.63008" lon="1.88321">
        <ele>1899.2</ele>
        <time>2020-02-14T05:24:13.121Z</time>
      </trkpt>
      <trkpt lat="42.63017" lon="1.88319">
        <ele>1899.8</ele>
        <time>2020-02-14T05:24:16.660Z</time>
      </trkpt>
      <trkpt lat="42.63028" lon="1.88323">
        <ele>1900.8</ele>
        <time>2020-02-14T05:24:21.023Z</time>
      </trkpt>
      <trkpt lat="42.63032" lon="1.88329">
        <ele>1904.1</ele>
        <time>2020-02-14T05:24:23.715Z</time>
      </trkpt>
      <trkpt lat="42.63035" lon="1.88331">
        <ele>1907</ele>
        <time>2020-02-14T05:24:25.413Z</time>
      </trkpt>
      <trkpt lat="42.63041" lon="1.88339">
        <ele>1908.8</ele>
        <time>2020-02-14T05:24:28.478Z</time>
      </trkpt>
      <trkpt lat="42.63042" lon="1.88342">
        <ele>1912.2</ele>
        <time>2020-02-14T05:24:30.141Z</time>
      </trkpt>
      <trkpt lat="42.63047" lon="1.88349">
        <ele>1914.7</ele>
        <time>2020-02-14T05:24:32.966Z</time>
      </trkpt>
      <trkpt lat="42.63052" lon="1.88353">
        <ele>1916.5</ele>
        <time>2020-02-14T05:24:35.064Z</time>
      </trkpt>
      <trkpt lat="42.63065" lon="1.88359">
        <ele>1919.9</ele>
        <time>2020-02-14T05:24:40.865Z</time>
      </trkpt>
      <trkpt lat="42.6308" lon="1.88365">
        <ele>1921.8</ele>
        <time>2020-02-14T05:24:46.762Z</time>
      </trkpt>
      <trkpt lat="42.63088" lon="1.88369">
        <ele>1923.4</ele>
        <time>2020-02-14T05:24:50.215Z</time>
      </trkpt>
      <trkpt lat="42.63096" lon="1.88377">
        <ele>1925.3</ele>
        <time>2020-02-14T05:24:53.985Z</time>
      </trkpt>
      <trkpt lat="42.63101" lon="1.88384">
        <ele>1928.2</ele>
        <time>2020-02-14T05:24:56.776Z</time>
      </trkpt>
      <trkpt lat="42.63104" lon="1.88383">
        <ele>1930.5</ele>
        <time>2020-02-14T05:24:58.261Z</time>
      </trkpt>
      <trkpt lat="42.63109" lon="1.8838">
        <ele>1933.4</ele>
        <time>2020-02-14T05:25:00.822Z</time>
      </trkpt>
      <trkpt lat="42.63116" lon="1.88373">
        <ele>1934.8</ele>
        <time>2020-02-14T05:25:04.230Z</time>
      </trkpt>
      <trkpt lat="42.63122" lon="1.88372">
        <ele>1936.7</ele>
        <time>2020-02-14T05:25:06.478Z</time>
      </trkpt>
      <trkpt lat="42.63125" lon="1.88382">
        <ele>1939.7</ele>
        <time>2020-02-14T05:25:09.847Z</time>
      </trkpt>
      <trkpt lat="42.63128" lon="1.88391">
        <ele>1943.1</ele>
        <time>2020-02-14T05:25:12.797Z</time>
      </trkpt>
      <trkpt lat="42.63135" lon="1.88396">
        <ele>1945.9</ele>
        <time>2020-02-14T05:25:15.908Z</time>
      </trkpt>
      <trkpt lat="42.63139" lon="1.88392">
        <ele>1948.8</ele>
        <time>2020-02-14T05:25:18.085Z</time>
      </trkpt>
      <trkpt lat="42.63144" lon="1.88391">
        <ele>1951.6</ele>
        <time>2020-02-14T05:25:20.204Z</time>
      </trkpt>
      <trkpt lat="42.63152" lon="1.88393">
        <ele>1954</ele>
        <time>2020-02-14T05:25:23.374Z</time>
      </trkpt>
      <trkpt lat="42.63157" lon="1.88396">
        <ele>1957.4</ele>
        <time>2020-02-14T05:25:25.661Z</time>
      </trkpt>
      <trkpt lat="42.63163" lon="1.88403">
        <ele>1960.4</ele>
        <time>2020-02-14T05:25:28.863Z</time>
      </trkpt>
      <trkpt lat="42.63166" lon="1.88406">
        <ele>1962.2</ele>
        <time>2020-02-14T05:25:30.615Z</time>
      </trkpt>
      <trkpt lat="42.63173" lon="1.88409">
        <ele>1965.1</ele>
        <time>2020-02-14T05:25:33.560Z</time>
      </trkpt>
      <trkpt lat="42.6318" lon="1.88412">
        <ele>1967.5</ele>
        <time>2020-02-14T05:25:36.550Z</time>
      </trkpt>
      <trkpt lat="42.63184" lon="1.88411">
        <ele>1970.8</ele>
        <time>2020-02-14T05:25:38.563Z</time>
      </trkpt>
      <trkpt lat="42.63189" lon="1.8841">
        <ele>1973.8</ele>
        <time>2020-02-14T05:25:40.688Z</time>
      </trkpt>
      <trkpt lat="42.63192" lon="1.88411">
        <ele>1977.1</ele>
        <time>2020-02-14T05:25:42.325Z</time>
      </trkpt>
      <trkpt lat="42.632" lon="1.88413">
        <ele>1979.6</ele>
        <time>2020-02-14T05:25:45.611Z</time>
      </trkpt>
      <trkpt lat="42.63207" lon="1.88413">
        <ele>1982.9</ele>
        <time>2020-02-14T05:25:48.659Z</time>
      </trkpt>
      <trkpt lat="42.63219" lon="1.88412">
        <ele>1984.4</ele>
        <time>2020-02-14T05:25:53.205Z</time>
      </trkpt>
      <trkpt lat="42.63226" lon="1.88411">
        <ele>1987.3</ele>
        <time>2020-02-14T05:25:56.209Z</time>
      </trkpt>
      <trkpt lat="42.63233" lon="1.88414">
        <ele>1990.7</ele>
        <time>2020-02-14T05:25:59.334Z</time>
      </trkpt>
      <trkpt lat="42.63242" lon="1.88419">
        <ele>1992.6</ele>
        <time>2020-02-14T05:26:03.086Z</time>
      </trkpt>
      <trkpt lat="42.6325" lon="1.88423">
        <ele>1994.4</ele>
        <time>2020-02-14T05:26:06.432Z</time>
      </trkpt>
      <trkpt lat="42.63255" lon="1.88428">
        <ele>1996.3</ele>
        <time>2020-02-14T05:26:08.873Z</time>
      </trkpt>
      <trkpt lat="42.63262" lon="1.88435">
        <ele>1998.7</ele>
        <time>2020-02-14T05:26:12.482Z</time>
      </trkpt>
      <trkpt lat="42.63268" lon="1.88438">
        <ele>2000.6</ele>
        <time>2020-02-14T05:26:14.852Z</time>
      </trkpt>
      <trkpt lat="42.63277" lon="1.88443">
        <ele>2002.7</ele>
        <time>2020-02-14T05:26:18.885Z</time>
      </trkpt>
      <trkpt lat="42.63286" lon="1.88448">
        <ele>2005.1</ele>
        <time>2020-02-14T05:26:22.369Z</time>
      </trkpt>
      <trkpt lat="42.63292" lon="1.88452">
        <ele>2006.5</ele>
        <time>2020-02-14T05:26:25.101Z</time>
      </trkpt>
      <trkpt lat="42.63297" lon="1.88462">
        <ele>2009.4</ele>
        <time>2020-02-14T05:26:28.833Z</time>
      </trkpt>
      <trkpt lat="42.63307" lon="1.8847">
        <ele>2011.3</ele>
        <time>2020-02-14T05:26:33.329Z</time>
      </trkpt>
      <trkpt lat="42.63312" lon="1.88476">
        <ele>2013.2</ele>
        <time>2020-02-14T05:26:35.868Z</time>
      </trkpt>
      <trkpt lat="42.63316" lon="1.88484">
        <ele>2014.6</ele>
        <time>2020-02-14T05:26:38.681Z</time>
      </trkpt>
      <trkpt lat="42.63322" lon="1.88495">
        <ele>2017.5</ele>
        <time>2020-02-14T05:26:42.726Z</time>
      </trkpt>
      <trkpt lat="42.63326" lon="1.88504">
        <ele>2018.9</ele>
        <time>2020-02-14T05:26:45.880Z</time>
      </trkpt>
      <trkpt lat="42.63332" lon="1.88512">
        <ele>2020.9</ele>
        <time>2020-02-14T05:26:49.208Z</time>
      </trkpt>
      <trkpt lat="42.63341" lon="1.88524">
        <ele>2022.9</ele>
        <time>2020-02-14T05:26:53.971Z</time>
      </trkpt>
      <trkpt lat="42.63345" lon="1.88533">
        <ele>2025.3</ele>
        <time>2020-02-14T05:26:57.100Z</time>
      </trkpt>
      <trkpt lat="42.63346" lon="1.88535">
        <ele>2026.2</ele>
        <time>2020-02-14T05:26:57.916Z</time>
      </trkpt>
      <trkpt lat="42.63351" lon="1.88543">
        <ele>2028.1</ele>
        <time>2020-02-14T05:27:00.962Z</time>
      </trkpt>
      <trkpt lat="42.63352" lon="1.8855">
        <ele>2030.5</ele>
        <time>2020-02-14T05:27:03.107Z</time>
      </trkpt>
      <trkpt lat="42.63356" lon="1.88558">
        <ele>2033.8</ele>
        <time>2020-02-14T05:27:06.089Z</time>
      </trkpt>
      <trkpt lat="42.63359" lon="1.88569">
        <ele>2036.7</ele>
        <time>2020-02-14T05:27:09.722Z</time>
      </trkpt>
      <trkpt lat="42.63362" lon="1.88578">
        <ele>2039.6</ele>
        <time>2020-02-14T05:27:12.584Z</time>
      </trkpt>
      <trkpt lat="42.63366" lon="1.88587">
        <ele>2041</ele>
        <time>2020-02-14T05:27:15.462Z</time>
      </trkpt>
      <trkpt lat="42.63369" lon="1.88593">
        <ele>2042.9</ele>
        <time>2020-02-14T05:27:17.778Z</time>
      </trkpt>
      <trkpt lat="42.63369" lon="1.88602">
        <ele>2045.8</ele>
        <time>2020-02-14T05:27:20.633Z</time>
      </trkpt>
      <trkpt lat="42.6337" lon="1.88612">
        <ele>2048.7</ele>
        <time>2020-02-14T05:27:23.654Z</time>
      </trkpt>
      <trkpt lat="42.63371" lon="1.88621">
        <ele>2051.6</ele>
        <time>2020-02-14T05:27:26.405Z</time>
      </trkpt>
      <trkpt lat="42.63372" lon="1.88634">
        <ele>2053.6</ele>
        <time>2020-02-14T05:27:30.033Z</time>
      </trkpt>
      <trkpt lat="42.63374" lon="1.88648">
        <ele>2055.4</ele>
        <time>2020-02-14T05:27:34.250Z</time>
      </trkpt>
      <trkpt lat="42.63377" lon="1.88658">
        <ele>2056.9</ele>
        <time>2020-02-14T05:27:37.284Z</time>
      </trkpt>
      <trkpt lat="42.63378" lon="1.88672">
        <ele>2058.8</ele>
        <time>2020-02-14T05:27:41.224Z</time>
      </trkpt>
      <trkpt lat="42.63378" lon="1.88681">
        <ele>2059.8</ele>
        <time>2020-02-14T05:27:43.783Z</time>
      </trkpt>
      <trkpt lat="42.63378" lon="1.8869">
        <ele>2062.3</ele>
        <time>2020-02-14T05:27:46.565Z</time>
      </trkpt>
      <trkpt lat="42.63379" lon="1.88693">
        <ele>2061.7</ele>
        <time>2020-02-14T05:27:47.481Z</time>
      </trkpt>
      <trkpt lat="42.63387" lon="1.88703">
        <ele>2062.2</ele>
        <time>2020-02-14T05:27:51.843Z</time>
      </trkpt>
      <trkpt lat="42.63392" lon="1.88711">
        <ele>2063.2</ele>
        <time>2020-02-14T05:27:54.566Z</time>
      </trkpt>
      <trkpt lat="42.63399" lon="1.88722">
        <ele>2063.7</ele>
        <time>2020-02-14T05:27:58.811Z</time>
      </trkpt>
      <trkpt lat="42.63403" lon="1.88728">
        <ele>2064.1</ele>
        <time>2020-02-14T05:28:01.080Z</time>
      </trkpt>
      <trkpt lat="42.63411" lon="1.88732">
        <ele>2064.7</ele>
        <time>2020-02-14T05:28:04.349Z</time>
      </trkpt>
      <trkpt lat="42.63424" lon="1.88728">
        <ele>2067.1</ele>
        <time>2020-02-14T05:28:09.798Z</time>
      </trkpt>
      <trkpt lat="42.63436" lon="1.88721">
        <ele>2067</ele>
        <time>2020-02-14T05:28:14.906Z</time>
      </trkpt>
      <trkpt lat="42.63446" lon="1.88715">
        <ele>2069.4</ele>
        <time>2020-02-14T05:28:19.067Z</time>
      </trkpt>
      <trkpt lat="42.63453" lon="1.88707">
        <ele>2071.8</ele>
        <time>2020-02-14T05:28:22.772Z</time>
      </trkpt>
      <trkpt lat="42.63461" lon="1.88697">
        <ele>2073.7</ele>
        <time>2020-02-14T05:28:26.908Z</time>
      </trkpt>
      <trkpt lat="42.63464" lon="1.88694">
        <ele>2074.7</ele>
        <time>2020-02-14T05:28:28.343Z</time>
      </trkpt>
      <trkpt lat="42.63472" lon="1.88682">
        <ele>2075.6</ele>
        <time>2020-02-14T05:28:32.937Z</time>
      </trkpt>
      <trkpt lat="42.63488" lon="1.88675">
        <ele>2078</ele>
        <time>2020-02-14T05:28:39.585Z</time>
      </trkpt>
      <trkpt lat="42.63494" lon="1.88663">
        <ele>2079</ele>
        <time>2020-02-14T05:28:43.898Z</time>
      </trkpt>
      <trkpt lat="42.63495" lon="1.88661">
        <ele>2079.6</ele>
        <time>2020-02-14T05:28:44.540Z</time>
      </trkpt>
      <trkpt lat="42.63498" lon="1.8867">
        <ele>2079</ele>
        <time>2020-02-14T05:28:47.279Z</time>
      </trkpt>
      <trkpt lat="42.63495" lon="1.88681">
        <ele>2079.1</ele>
        <time>2020-02-14T05:28:50.636Z</time>
      </trkpt>
      <trkpt lat="42.63494" lon="1.88686">
        <ele>2080.1</ele>
        <time>2020-02-14T05:28:52.235Z</time>
      </trkpt>
      <trkpt lat="42.63494" lon="1.88687">
        <ele>2079.6</ele>
        <time>2020-02-14T05:28:52.520Z</time>
      </trkpt>
      <trkpt lat="42.63501" lon="1.88689">
        <ele>2080</ele>
        <time>2020-02-14T05:28:55.149Z</time>
      </trkpt>
      <trkpt lat="42.63511" lon="1.88694">
        <ele>2080.4</ele>
        <time>2020-02-14T05:28:59.461Z</time>
      </trkpt>
      <trkpt lat="42.63523" lon="1.88694">
        <ele>2082.4</ele>
        <time>2020-02-14T05:29:03.916Z</time>
      </trkpt>
      <trkpt lat="42.63526" lon="1.88693">
        <ele>2082.4</ele>
        <time>2020-02-14T05:29:05.283Z</time>
      </trkpt>
      <trkpt lat="42.63538" lon="1.88686">
        <ele>2083.9</ele>
        <time>2020-02-14T05:29:10.273Z</time>
      </trkpt>
      <trkpt lat="42.63552" lon="1.8868">
        <ele>2086.3</ele>
        <time>2020-02-14T05:29:15.797Z</time>
      </trkpt>
      <trkpt lat="42.6356" lon="1.88676">
        <ele>2088.2</ele>
        <time>2020-02-14T05:29:19.141Z</time>
      </trkpt>
      <trkpt lat="42.6357" lon="1.88672">
        <ele>2089.7</ele>
        <time>2020-02-14T05:29:23.435Z</time>
      </trkpt>
      <trkpt lat="42.63576" lon="1.88667">
        <ele>2092</ele>
        <time>2020-02-14T05:29:26.093Z</time>
      </trkpt>
      <trkpt lat="42.63587" lon="1.88666">
        <ele>2095</ele>
        <time>2020-02-14T05:29:30.588Z</time>
      </trkpt>
      <trkpt lat="42.63593" lon="1.88669">
        <ele>2096.9</ele>
        <time>2020-02-14T05:29:32.945Z</time>
      </trkpt>
      <trkpt lat="42.63605" lon="1.88669">
        <ele>2099.3</ele>
        <time>2020-02-14T05:29:37.690Z</time>
      </trkpt>
      <trkpt lat="42.63614" lon="1.8867">
        <ele>2102.2</ele>
        <time>2020-02-14T05:29:41.504Z</time>
      </trkpt>
      <trkpt lat="42.63624" lon="1.88671">
        <ele>2105.4</ele>
        <time>2020-02-14T05:29:45.641Z</time>
      </trkpt>
      <trkpt lat="42.63634" lon="1.88673">
        <ele>2108.8</ele>
        <time>2020-02-14T05:29:49.426Z</time>
      </trkpt>
      <trkpt lat="42.63633" lon="1.88674">
        <ele>2105</ele>
        <time>2020-02-14T05:29:50.758Z</time>
      </trkpt>
      <trkpt lat="42.63633" lon="1.88674">
        <ele>2109.3</ele>
        <time>2020-02-14T05:29:52.274Z</time>
      </trkpt>
      <trkpt lat="42.63633" lon="1.88674">
        <ele>2109.4</ele>
        <time>2020-02-14T05:29:52.285Z</time>
      </trkpt>
      <trkpt lat="42.63634" lon="1.88675">
        <ele>2108.9</ele>
        <time>2020-02-14T05:29:52.779Z</time>
      </trkpt>
      <trkpt lat="42.63634" lon="1.88677">
        <ele>2109.9</ele>
        <time>2020-02-14T05:29:53.600Z</time>
      </trkpt>
      <trkpt lat="42.63633" lon="1.88677">
        <ele>2110.2</ele>
        <time>2020-02-14T05:29:53.811Z</time>
      </trkpt>
      <trkpt lat="42.63634" lon="1.88676">
        <ele>2110.8</ele>
        <time>2020-02-14T05:29:54.157Z</time>
      </trkpt>
      <trkpt lat="42.63634" lon="1.88675">
        <ele>2111.8</ele>
        <time>2020-02-14T05:29:54.600Z</time>
      </trkpt>
      <trkpt lat="42.63634" lon="1.88675">
        <ele>2112.2</ele>
        <time>2020-02-14T05:29:54.765Z</time>
      </trkpt>
      <trkpt lat="42.63634" lon="1.88674">
        <ele>2112.6</ele>
        <time>2020-02-14T05:29:55.081Z</time>
      </trkpt>
      <trkpt lat="42.63638" lon="1.88664">
        <ele>2114.6</ele>
        <time>2020-02-14T05:29:58.468Z</time>
      </trkpt>
      <trkpt lat="42.63639" lon="1.8865">
        <ele>2116.6</ele>
        <time>2020-02-14T05:30:02.461Z</time>
      </trkpt>
      <trkpt lat="42.63645" lon="1.88636">
        <ele>2118.9</ele>
        <time>2020-02-14T05:30:07.407Z</time>
      </trkpt>
      <trkpt lat="42.63649" lon="1.88634">
        <ele>2122.4</ele>
        <time>2020-02-14T05:30:09.211Z</time>
      </trkpt>
      <trkpt lat="42.63653" lon="1.88635">
        <ele>2125.7</ele>
        <time>2020-02-14T05:30:11.227Z</time>
      </trkpt>
      <trkpt lat="42.63654" lon="1.88638">
        <ele>2128</ele>
        <time>2020-02-14T05:30:12.401Z</time>
      </trkpt>
      <trkpt lat="42.63656" lon="1.88637">
        <ele>2131.4</ele>
        <time>2020-02-14T05:30:13.707Z</time>
      </trkpt>
      <trkpt lat="42.63664" lon="1.8864">
        <ele>2134.4</ele>
        <time>2020-02-14T05:30:17.241Z</time>
      </trkpt>
      <trkpt lat="42.63665" lon="1.88645">
        <ele>2136.2</ele>
        <time>2020-02-14T05:30:18.873Z</time>
      </trkpt>
      <trkpt lat="42.63671" lon="1.8864">
        <ele>2139.1</ele>
        <time>2020-02-14T05:30:21.906Z</time>
      </trkpt>
      <trkpt lat="42.63673" lon="1.88638">
        <ele>2139.6</ele>
        <time>2020-02-14T05:30:22.758Z</time>
      </trkpt>
      <trkpt lat="42.63678" lon="1.88638">
        <ele>2142.4</ele>
        <time>2020-02-14T05:30:25.029Z</time>
      </trkpt>
      <trkpt lat="42.63685" lon="1.88634">
        <ele>2145.8</ele>
        <time>2020-02-14T05:30:28.145Z</time>
      </trkpt>
      <trkpt lat="42.63698" lon="1.88636">
        <ele>2147.3</ele>
        <time>2020-02-14T05:30:33.311Z</time>
      </trkpt>
      <trkpt lat="42.63707" lon="1.88641">
        <ele>2149.2</ele>
        <time>2020-02-14T05:30:37.100Z</time>
      </trkpt>
      <trkpt lat="42.63713" lon="1.88648">
        <ele>2150.7</ele>
        <time>2020-02-14T05:30:40.254Z</time>
      </trkpt>
      <trkpt lat="42.63718" lon="1.88654">
        <ele>2151.7</ele>
        <time>2020-02-14T05:30:42.703Z</time>
      </trkpt>
      <trkpt lat="42.63725" lon="1.88664">
        <ele>2152.6</ele>
        <time>2020-02-14T05:30:46.540Z</time>
      </trkpt>
      <trkpt lat="42.63731" lon="1.88665">
        <ele>2153.5</ele>
        <time>2020-02-14T05:30:48.856Z</time>
      </trkpt>
      <trkpt lat="42.63734" lon="1.88662">
        <ele>2154.1</ele>
        <time>2020-02-14T05:30:50.434Z</time>
      </trkpt>
      <trkpt lat="42.63745" lon="1.88653">
        <ele>2156</ele>
        <time>2020-02-14T05:30:55.336Z</time>
      </trkpt>
      <trkpt lat="42.63757" lon="1.88649">
        <ele>2159.3</ele>
        <time>2020-02-14T05:31:00.232Z</time>
      </trkpt>
      <trkpt lat="42.63761" lon="1.88644">
        <ele>2160.7</ele>
        <time>2020-02-14T05:31:02.368Z</time>
      </trkpt>
      <trkpt lat="42.63769" lon="1.8864">
        <ele>2162.1</ele>
        <time>2020-02-14T05:31:05.752Z</time>
      </trkpt>
      <trkpt lat="42.63776" lon="1.88637">
        <ele>2165.5</ele>
        <time>2020-02-14T05:31:08.740Z</time>
      </trkpt>
      <trkpt lat="42.6378" lon="1.88637">
        <ele>2168.5</ele>
        <time>2020-02-14T05:31:10.795Z</time>
      </trkpt>
      <trkpt lat="42.63784" lon="1.88643">
        <ele>2170.3</ele>
        <time>2020-02-14T05:31:13.001Z</time>
      </trkpt>
      <trkpt lat="42.63789" lon="1.88647">
        <ele>2173.7</ele>
        <time>2020-02-14T05:31:15.502Z</time>
      </trkpt>
      <trkpt lat="42.63795" lon="1.88643">
        <ele>2176.2</ele>
        <time>2020-02-14T05:31:18.251Z</time>
      </trkpt>
      <trkpt lat="42.63803" lon="1.88635">
        <ele>2178.6</ele>
        <time>2020-02-14T05:31:22.324Z</time>
      </trkpt>
      <trkpt lat="42.63807" lon="1.88623">
        <ele>2180.9</ele>
        <time>2020-02-14T05:31:25.997Z</time>
      </trkpt>
      <trkpt lat="42.63809" lon="1.8862">
        <ele>2183.4</ele>
        <time>2020-02-14T05:31:27.467Z</time>
      </trkpt>
      <trkpt lat="42.63811" lon="1.88619">
        <ele>2186.7</ele>
        <time>2020-02-14T05:31:28.890Z</time>
      </trkpt>
      <trkpt lat="42.63813" lon="1.88613">
        <ele>2187.6</ele>
        <time>2020-02-14T05:31:30.748Z</time>
      </trkpt>
      <trkpt lat="42.63812" lon="1.88602">
        <ele>2189.6</ele>
        <time>2020-02-14T05:31:34.043Z</time>
      </trkpt>
      <trkpt lat="42.63816" lon="1.88597">
        <ele>2193</ele>
        <time>2020-02-14T05:31:36.541Z</time>
      </trkpt>
      <trkpt lat="42.63821" lon="1.88592">
        <ele>2194.8</ele>
        <time>2020-02-14T05:31:38.956Z</time>
      </trkpt>
      <trkpt lat="42.63824" lon="1.88589">
        <ele>2197.2</ele>
        <time>2020-02-14T05:31:40.594Z</time>
      </trkpt>
      <trkpt lat="42.63827" lon="1.88592">
        <ele>2198.8</ele>
        <time>2020-02-14T05:31:42.234Z</time>
      </trkpt>
      <trkpt lat="42.63834" lon="1.88595">
        <ele>2202</ele>
        <time>2020-02-14T05:31:45.304Z</time>
      </trkpt>
      <trkpt lat="42.63835" lon="1.88584">
        <ele>2203.6</ele>
        <time>2020-02-14T05:31:48.232Z</time>
      </trkpt>
      <trkpt lat="42.63831" lon="1.88571">
        <ele>2206</ele>
        <time>2020-02-14T05:31:52.465Z</time>
      </trkpt>
      <trkpt lat="42.63829" lon="1.88564">
        <ele>2207.8</ele>
        <time>2020-02-14T05:31:54.715Z</time>
      </trkpt>
      <trkpt lat="42.63832" lon="1.88556">
        <ele>2209.7</ele>
        <time>2020-02-14T05:31:57.375Z</time>
      </trkpt>
      <trkpt lat="42.63836" lon="1.88554">
        <ele>2211.7</ele>
        <time>2020-02-14T05:31:59.226Z</time>
      </trkpt>
      <trkpt lat="42.63839" lon="1.88552">
        <ele>2214.2</ele>
        <time>2020-02-14T05:32:00.626Z</time>
      </trkpt>
      <trkpt lat="42.63841" lon="1.88547">
        <ele>2216.1</ele>
        <time>2020-02-14T05:32:02.720Z</time>
      </trkpt>
      <trkpt lat="42.63844" lon="1.88535">
        <ele>2219.3</ele>
        <time>2020-02-14T05:32:06.220Z</time>
      </trkpt>
      <trkpt lat="42.63847" lon="1.88536">
        <ele>2222.3</ele>
        <time>2020-02-14T05:32:07.828Z</time>
      </trkpt>
      <trkpt lat="42.63854" lon="1.8853">
        <ele>2225.1</ele>
        <time>2020-02-14T05:32:11.206Z</time>
      </trkpt>
      <trkpt lat="42.63855" lon="1.8853">
        <ele>2222.3</ele>
        <time>2020-02-14T05:32:12.210Z</time>
      </trkpt>
      <trkpt lat="42.63855" lon="1.8853">
        <ele>2226.2</ele>
        <time>2020-02-14T05:32:13.560Z</time>
      </trkpt>
      <trkpt lat="42.63853" lon="1.88529">
        <ele>2226.2</ele>
        <time>2020-02-14T05:32:14.155Z</time>
      </trkpt>
      <trkpt lat="42.63853" lon="1.8853">
        <ele>2231</ele>
        <time>2020-02-14T05:32:15.823Z</time>
      </trkpt>
      <trkpt lat="42.63853" lon="1.8853">
        <ele>2227</ele>
        <time>2020-02-14T05:32:17.189Z</time>
      </trkpt>
      <trkpt lat="42.63853" lon="1.8853">
        <ele>2226.6</ele>
        <time>2020-02-14T05:32:17.334Z</time>
      </trkpt>
      <trkpt lat="42.63853" lon="1.8853">
        <ele>2221.4</ele>
        <time>2020-02-14T05:32:19.149Z</time>
      </trkpt>
      <trkpt lat="42.63853" lon="1.8853">
        <ele>2228</ele>
        <time>2020-02-14T05:32:21.456Z</time>
      </trkpt>
      <trkpt lat="42.63853" lon="1.8853">
        <ele>2231.5</ele>
        <time>2020-02-14T05:32:22.658Z</time>
      </trkpt>
      <trkpt lat="42.63853" lon="1.8853">
        <ele>2230.5</ele>
        <time>2020-02-14T05:32:23.005Z</time>
      </trkpt>
      <trkpt lat="42.63853" lon="1.8853">
        <ele>2225.1</ele>
        <time>2020-02-14T05:32:24.861Z</time>
      </trkpt>
      <trkpt lat="42.63853" lon="1.8853">
        <ele>2230.5</ele>
        <time>2020-02-14T05:32:26.711Z</time>
      </trkpt>
      <trkpt lat="42.63853" lon="1.8853">
        <ele>2226.7</ele>
        <time>2020-02-14T05:32:28.031Z</time>
      </trkpt>
      <trkpt lat="42.63853" lon="1.8853">
        <ele>2228</ele>
        <time>2020-02-14T05:32:28.508Z</time>
      </trkpt>
      <trkpt lat="42.63853" lon="1.8853">
        <ele>2220.8</ele>
        <time>2020-02-14T05:32:31.021Z</time>
      </trkpt>
      <trkpt lat="42.63853" lon="1.8853">
        <ele>2228</ele>
        <time>2020-02-14T05:32:33.528Z</time>
      </trkpt>
      <trkpt lat="42.63853" lon="1.8853">
        <ele>2224.2</ele>
        <time>2020-02-14T05:32:34.851Z</time>
      </trkpt>
      <trkpt lat="42.63853" lon="1.8853">
        <ele>2227.5</ele>
        <time>2020-02-14T05:32:36.010Z</time>
      </trkpt>
      <trkpt lat="42.63853" lon="1.8853">
        <ele>2226.6</ele>
        <time>2020-02-14T05:32:36.331Z</time>
      </trkpt>
      <trkpt lat="42.63853" lon="1.8853">
        <ele>2230.9</ele>
        <time>2020-02-14T05:32:37.824Z</time>
      </trkpt>
      <trkpt lat="42.63853" lon="1.8853">
        <ele>2227</ele>
        <time>2020-02-14T05:32:39.182Z</time>
      </trkpt>
      <trkpt lat="42.63854" lon="1.88531">
        <ele>2226.6</ele>
        <time>2020-02-14T05:32:39.814Z</time>
      </trkpt>
      <trkpt lat="42.63853" lon="1.88529">
        <ele>2227</ele>
        <time>2020-02-14T05:32:40.648Z</time>
      </trkpt>
      <trkpt lat="42.63853" lon="1.88532">
        <ele>2227.1</ele>
        <time>2020-02-14T05:32:41.587Z</time>
      </trkpt>
      <trkpt lat="42.63855" lon="1.88532">
        <ele>2227.1</ele>
        <time>2020-02-14T05:32:42.130Z</time>
      </trkpt>
      <trkpt lat="42.63855" lon="1.88532">
        <ele>2218.4</ele>
        <time>2020-02-14T05:32:45.129Z</time>
      </trkpt>
      <trkpt lat="42.63855" lon="1.88532">
        <ele>2229.9</ele>
        <time>2020-02-14T05:32:49.119Z</time>
      </trkpt>
      <trkpt lat="42.63855" lon="1.88532">
        <ele>2228</ele>
        <time>2020-02-14T05:32:49.784Z</time>
      </trkpt>
      <trkpt lat="42.63858" lon="1.88537">
        <ele>2229.5</ele>
        <time>2020-02-14T05:32:51.803Z</time>
      </trkpt>
      <trkpt lat="42.6386" lon="1.88542">
        <ele>2231</ele>
        <time>2020-02-14T05:32:53.397Z</time>
      </trkpt>
      <trkpt lat="42.63864" lon="1.88561">
        <ele>2229.9</ele>
        <time>2020-02-14T05:32:59.307Z</time>
      </trkpt>
      <trkpt lat="42.63866" lon="1.88575">
        <ele>2229.5</ele>
        <time>2020-02-14T05:33:03.107Z</time>
      </trkpt>
      <trkpt lat="42.6387" lon="1.88588">
        <ele>2229.4</ele>
        <time>2020-02-14T05:33:07.252Z</time>
      </trkpt>
      <trkpt lat="42.63872" lon="1.88591">
        <ele>2231</ele>
        <time>2020-02-14T05:33:08.489Z</time>
      </trkpt>
      <trkpt lat="42.63874" lon="1.886">
        <ele>2230.4</ele>
        <time>2020-02-14T05:33:11.108Z</time>
      </trkpt>
      <trkpt lat="42.63875" lon="1.88602">
        <ele>2230.5</ele>
        <time>2020-02-14T05:33:11.878Z</time>
      </trkpt>
      <trkpt lat="42.63874" lon="1.88605">
        <ele>2229.5</ele>
        <time>2020-02-14T05:33:12.761Z</time>
      </trkpt>
      <trkpt lat="42.63878" lon="1.88612">
        <ele>2231.8</ele>
        <time>2020-02-14T05:33:15.338Z</time>
      </trkpt>
      <trkpt lat="42.63881" lon="1.88619">
        <ele>2232.3</ele>
        <time>2020-02-14T05:33:17.653Z</time>
      </trkpt>
      <trkpt lat="42.63882" lon="1.8863">
        <ele>2232.9</ele>
        <time>2020-02-14T05:33:20.972Z</time>
      </trkpt>
      <trkpt lat="42.63884" lon="1.88636">
        <ele>2233.9</ele>
        <time>2020-02-14T05:33:22.609Z</time>
      </trkpt>
      <trkpt lat="42.63886" lon="1.88649">
        <ele>2236.7</ele>
        <time>2020-02-14T05:33:26.570Z</time>
      </trkpt>
      <trkpt lat="42.6389" lon="1.88658">
        <ele>2239.6</ele>
        <time>2020-02-14T05:33:29.657Z</time>
      </trkpt>
      <trkpt lat="42.63891" lon="1.88668">
        <ele>2241.9</ele>
        <time>2020-02-14T05:33:32.749Z</time>
      </trkpt>
      <trkpt lat="42.63889" lon="1.88677">
        <ele>2242.9</ele>
        <time>2020-02-14T05:33:35.418Z</time>
      </trkpt>
      <trkpt lat="42.63886" lon="1.8868">
        <ele>2244.3</ele>
        <time>2020-02-14T05:33:36.812Z</time>
      </trkpt>
      <trkpt lat="42.63888" lon="1.88684">
        <ele>2243.9</ele>
        <time>2020-02-14T05:33:38.216Z</time>
      </trkpt>
      <trkpt lat="42.63894" lon="1.88694">
        <ele>2243.5</ele>
        <time>2020-02-14T05:33:41.790Z</time>
      </trkpt>
      <trkpt lat="42.63895" lon="1.887">
        <ele>2241.9</ele>
        <time>2020-02-14T05:33:43.729Z</time>
      </trkpt>
      <trkpt lat="42.63902" lon="1.88695">
        <ele>2245.3</ele>
        <time>2020-02-14T05:33:46.820Z</time>
      </trkpt>
      <trkpt lat="42.63902" lon="1.88694">
        <ele>2245.3</ele>
        <time>2020-02-14T05:33:47.102Z</time>
      </trkpt>
      <trkpt lat="42.63903" lon="1.88692">
        <ele>2246.4</ele>
        <time>2020-02-14T05:33:47.958Z</time>
      </trkpt>
      <trkpt lat="42.6391" lon="1.8869">
        <ele>2249.2</ele>
        <time>2020-02-14T05:33:51.096Z</time>
      </trkpt>
      <trkpt lat="42.63918" lon="1.88689">
        <ele>2252.6</ele>
        <time>2020-02-14T05:33:54.330Z</time>
      </trkpt>
      <trkpt lat="42.63925" lon="1.8869">
        <ele>2254.5</ele>
        <time>2020-02-14T05:33:57.050Z</time>
      </trkpt>
      <trkpt lat="42.6393" lon="1.887">
        <ele>2255</ele>
        <time>2020-02-14T05:34:00.510Z</time>
      </trkpt>
      <trkpt lat="42.63942" lon="1.88715">
        <ele>2253</ele>
        <time>2020-02-14T05:34:06.736Z</time>
      </trkpt>
      <trkpt lat="42.63948" lon="1.88722">
        <ele>2254</ele>
        <time>2020-02-14T05:34:09.726Z</time>
      </trkpt>
      <trkpt lat="42.63952" lon="1.88724">
        <ele>2254.4</ele>
        <time>2020-02-14T05:34:11.627Z</time>
      </trkpt>
      <trkpt lat="42.63959" lon="1.88734">
        <ele>2256.4</ele>
        <time>2020-02-14T05:34:15.423Z</time>
      </trkpt>
      <trkpt lat="42.63959" lon="1.88735">
        <ele>2256.4</ele>
        <time>2020-02-14T05:34:15.826Z</time>
      </trkpt>
      <trkpt lat="42.63961" lon="1.88739">
        <ele>2255</ele>
        <time>2020-02-14T05:34:17.265Z</time>
      </trkpt>
      <trkpt lat="42.63963" lon="1.88749">
        <ele>2258.8</ele>
        <time>2020-02-14T05:34:20.459Z</time>
      </trkpt>
      <trkpt lat="42.63964" lon="1.8875">
        <ele>2258.4</ele>
        <time>2020-02-14T05:34:20.801Z</time>
      </trkpt>
      <trkpt lat="42.63967" lon="1.88759">
        <ele>2259.3</ele>
        <time>2020-02-14T05:34:23.736Z</time>
      </trkpt>
      <trkpt lat="42.63968" lon="1.88769">
        <ele>2260.2</ele>
        <time>2020-02-14T05:34:26.651Z</time>
      </trkpt>
      <trkpt lat="42.63968" lon="1.88771">
        <ele>2261.3</ele>
        <time>2020-02-14T05:34:27.214Z</time>
      </trkpt>
      <trkpt lat="42.63971" lon="1.88779">
        <ele>2264</ele>
        <time>2020-02-14T05:34:29.990Z</time>
      </trkpt>
      <trkpt lat="42.63971" lon="1.88779">
        <ele>2263.7</ele>
        <time>2020-02-14T05:34:30.259Z</time>
      </trkpt>
      <trkpt lat="42.63976" lon="1.88789">
        <ele>2266.1</ele>
        <time>2020-02-14T05:34:33.688Z</time>
      </trkpt>
      <trkpt lat="42.63979" lon="1.88794">
        <ele>2267.4</ele>
        <time>2020-02-14T05:34:35.479Z</time>
      </trkpt>
      <trkpt lat="42.63983" lon="1.888">
        <ele>2269.8</ele>
        <time>2020-02-14T05:34:38.007Z</time>
      </trkpt>
      <trkpt lat="42.63988" lon="1.8881">
        <ele>2271.4</ele>
        <time>2020-02-14T05:34:41.592Z</time>
      </trkpt>
      <trkpt lat="42.63991" lon="1.8882">
        <ele>2273.8</ele>
        <time>2020-02-14T05:34:44.506Z</time>
      </trkpt>
      <trkpt lat="42.63995" lon="1.88827">
        <ele>2275.7</ele>
        <time>2020-02-14T05:34:47.399Z</time>
      </trkpt>
      <trkpt lat="42.63998" lon="1.88831">
        <ele>2277.6</ele>
        <time>2020-02-14T05:34:49.078Z</time>
      </trkpt>
      <trkpt lat="42.64001" lon="1.88843">
        <ele>2277.5</ele>
        <time>2020-02-14T05:34:52.698Z</time>
      </trkpt>
      <trkpt lat="42.64" lon="1.88846">
        <ele>2278.5</ele>
        <time>2020-02-14T05:34:53.430Z</time>
      </trkpt>
      <trkpt lat="42.64002" lon="1.88855">
        <ele>2277.1</ele>
        <time>2020-02-14T05:34:56.113Z</time>
      </trkpt>
      <trkpt lat="42.64001" lon="1.88864">
        <ele>2276.6</ele>
        <time>2020-02-14T05:34:58.694Z</time>
      </trkpt>
      <trkpt lat="42.64003" lon="1.88878">
        <ele>2278</ele>
        <time>2020-02-14T05:35:03.050Z</time>
      </trkpt>
      <trkpt lat="42.64004" lon="1.88892">
        <ele>2279.9</ele>
        <time>2020-02-14T05:35:06.944Z</time>
      </trkpt>
      <trkpt lat="42.64003" lon="1.88901">
        <ele>2282.8</ele>
        <time>2020-02-14T05:35:09.702Z</time>
      </trkpt>
      <trkpt lat="42.64003" lon="1.88902">
        <ele>2282.9</ele>
        <time>2020-02-14T05:35:09.959Z</time>
      </trkpt>
      <trkpt lat="42.64006" lon="1.8891">
        <ele>2286.6</ele>
        <time>2020-02-14T05:35:12.886Z</time>
      </trkpt>
      <trkpt lat="42.64011" lon="1.88916">
        <ele>2289</ele>
        <time>2020-02-14T05:35:15.580Z</time>
      </trkpt>
      <trkpt lat="42.64014" lon="1.88923">
        <ele>2291.1</ele>
        <time>2020-02-14T05:35:18.003Z</time>
      </trkpt>
      <trkpt lat="42.64021" lon="1.88926">
        <ele>2293.5</ele>
        <time>2020-02-14T05:35:20.741Z</time>
      </trkpt>
      <trkpt lat="42.64027" lon="1.88929">
        <ele>2295.4</ele>
        <time>2020-02-14T05:35:23.291Z</time>
      </trkpt>
      <trkpt lat="42.64031" lon="1.88939">
        <ele>2297.8</ele>
        <time>2020-02-14T05:35:26.562Z</time>
      </trkpt>
      <trkpt lat="42.64034" lon="1.88948">
        <ele>2299.1</ele>
        <time>2020-02-14T05:35:29.434Z</time>
      </trkpt>
      <trkpt lat="42.64035" lon="1.88949">
        <ele>2299.7</ele>
        <time>2020-02-14T05:35:30.039Z</time>
      </trkpt>
      <trkpt lat="42.64038" lon="1.88961">
        <ele>2301.1</ele>
        <time>2020-02-14T05:35:33.728Z</time>
      </trkpt>
      <trkpt lat="42.64043" lon="1.88969">
        <ele>2303.5</ele>
        <time>2020-02-14T05:35:36.648Z</time>
      </trkpt>
      <trkpt lat="42.64047" lon="1.88971">
        <ele>2304.4</ele>
        <time>2020-02-14T05:35:38.529Z</time>
      </trkpt>
      <trkpt lat="42.64054" lon="1.88979">
        <ele>2306.3</ele>
        <time>2020-02-14T05:35:42.080Z</time>
      </trkpt>
      <trkpt lat="42.6406" lon="1.88986">
        <ele>2307.9</ele>
        <time>2020-02-14T05:35:45.103Z</time>
      </trkpt>
      <trkpt lat="42.64065" lon="1.8899">
        <ele>2308.4</ele>
        <time>2020-02-14T05:35:47.305Z</time>
      </trkpt>
      <trkpt lat="42.6407" lon="1.88998">
        <ele>2310.2</ele>
        <time>2020-02-14T05:35:50.461Z</time>
      </trkpt>
      <trkpt lat="42.64073" lon="1.89004">
        <ele>2310.7</ele>
        <time>2020-02-14T05:35:52.597Z</time>
      </trkpt>
      <trkpt lat="42.64076" lon="1.89013">
        <ele>2313.1</ele>
        <time>2020-02-14T05:35:55.475Z</time>
      </trkpt>
      <trkpt lat="42.64081" lon="1.89024">
        <ele>2316.1</ele>
        <time>2020-02-14T05:35:59.356Z</time>
      </trkpt>
      <trkpt lat="42.64085" lon="1.89034">
        <ele>2318.9</ele>
        <time>2020-02-14T05:36:02.617Z</time>
      </trkpt>
      <trkpt lat="42.64086" lon="1.89049">
        <ele>2320.8</ele>
        <time>2020-02-14T05:36:07.138Z</time>
      </trkpt>
      <trkpt lat="42.64085" lon="1.89057">
        <ele>2324.1</ele>
        <time>2020-02-14T05:36:09.656Z</time>
      </trkpt>
      <trkpt lat="42.64089" lon="1.8906">
        <ele>2326.5</ele>
        <time>2020-02-14T05:36:11.517Z</time>
      </trkpt>
      <trkpt lat="42.64094" lon="1.89065">
        <ele>2330.5</ele>
        <time>2020-02-14T05:36:14.460Z</time>
      </trkpt>
      <trkpt lat="42.64096" lon="1.89068">
        <ele>2332.3</ele>
        <time>2020-02-14T05:36:15.774Z</time>
      </trkpt>
      <trkpt lat="42.64098" lon="1.89072">
        <ele>2333.4</ele>
        <time>2020-02-14T05:36:17.246Z</time>
      </trkpt>
      <trkpt lat="42.64099" lon="1.89075">
        <ele>2336.2</ele>
        <time>2020-02-14T05:36:18.614Z</time>
      </trkpt>
      <trkpt lat="42.64103" lon="1.89076">
        <ele>2339</ele>
        <time>2020-02-14T05:36:20.271Z</time>
      </trkpt>
      <trkpt lat="42.64105" lon="1.89081">
        <ele>2341.9</ele>
        <time>2020-02-14T05:36:22.249Z</time>
      </trkpt>
      <trkpt lat="42.64109" lon="1.89089">
        <ele>2345.3</ele>
        <time>2020-02-14T05:36:25.216Z</time>
      </trkpt>
      <trkpt lat="42.64109" lon="1.89089">
        <ele>2345.3</ele>
        <time>2020-02-14T05:36:25.216Z</time>
      </trkpt>
      <trkpt lat="42.64112" lon="1.8909">
        <ele>2348.6</ele>
        <time>2020-02-14T05:36:26.813Z</time>
      </trkpt>
      <trkpt lat="42.64114" lon="1.89093">
        <ele>2350.1</ele>
        <time>2020-02-14T05:36:27.927Z</time>
      </trkpt>
      <trkpt lat="42.64118" lon="1.89097">
        <ele>2353.9</ele>
        <time>2020-02-14T05:36:30.422Z</time>
      </trkpt>
      <trkpt lat="42.64122" lon="1.891">
        <ele>2352.5</ele>
        <time>2020-02-14T05:36:32.164Z</time>
      </trkpt>
      <trkpt lat="42.64122" lon="1.89104">
        <ele>2353.4</ele>
        <time>2020-02-14T05:36:33.260Z</time>
      </trkpt>
      <trkpt lat="42.64127" lon="1.89118">
        <ele>2353.9</ele>
        <time>2020-02-14T05:36:37.743Z</time>
      </trkpt>
      <trkpt lat="42.64131" lon="1.89125">
        <ele>2355.5</ele>
        <time>2020-02-14T05:36:40.387Z</time>
      </trkpt>
      <trkpt lat="42.64134" lon="1.89129">
        <ele>2356.3</ele>
        <time>2020-02-14T05:36:41.684Z</time>
      </trkpt>
      <trkpt lat="42.64132" lon="1.89146">
        <ele>2355</ele>
        <time>2020-02-14T05:36:46.729Z</time>
      </trkpt>
      <trkpt lat="42.64133" lon="1.89151">
        <ele>2357.4</ele>
        <time>2020-02-14T05:36:48.310Z</time>
      </trkpt>
      <trkpt lat="42.64134" lon="1.89159">
        <ele>2359.2</ele>
        <time>2020-02-14T05:36:50.852Z</time>
      </trkpt>
      <trkpt lat="42.64134" lon="1.8916">
        <ele>2361.1</ele>
        <time>2020-02-14T05:36:51.602Z</time>
      </trkpt>
      <trkpt lat="42.64134" lon="1.89171">
        <ele>2358.7</ele>
        <time>2020-02-14T05:36:54.621Z</time>
      </trkpt>
      <trkpt lat="42.64133" lon="1.89172">
        <ele>2359.3</ele>
        <time>2020-02-14T05:36:55.189Z</time>
      </trkpt>
      <trkpt lat="42.64133" lon="1.89172">
        <ele>2358.7</ele>
        <time>2020-02-14T05:36:55.393Z</time>
      </trkpt>
      <trkpt lat="42.64132" lon="1.89174">
        <ele>2362.2</ele>
        <time>2020-02-14T05:36:56.779Z</time>
      </trkpt>
      <trkpt lat="42.64132" lon="1.89174">
        <ele>2359.8</ele>
        <time>2020-02-14T05:36:57.602Z</time>
      </trkpt>
      <trkpt lat="42.64131" lon="1.89174">
        <ele>2359.8</ele>
        <time>2020-02-14T05:36:57.804Z</time>
      </trkpt>
      <trkpt lat="42.64131" lon="1.89175">
        <ele>2359.2</ele>
        <time>2020-02-14T05:36:58.132Z</time>
      </trkpt>
      <trkpt lat="42.64132" lon="1.89177">
        <ele>2359.2</ele>
        <time>2020-02-14T05:36:58.927Z</time>
      </trkpt>
      <trkpt lat="42.64132" lon="1.89176">
        <ele>2359.3</ele>
        <time>2020-02-14T05:36:59.213Z</time>
      </trkpt>
      <trkpt lat="42.6413" lon="1.89174">
        <ele>2357.8</ele>
        <time>2020-02-14T05:37:00.295Z</time>
      </trkpt>
      <trkpt lat="42.6413" lon="1.89173">
        <ele>2358.7</ele>
        <time>2020-02-14T05:37:00.763Z</time>
      </trkpt>
      <trkpt lat="42.6413" lon="1.89173">
        <ele>2359.7</ele>
        <time>2020-02-14T05:37:01.106Z</time>
      </trkpt>
      <trkpt lat="42.64131" lon="1.89171">
        <ele>2360.2</ele>
        <time>2020-02-14T05:37:01.812Z</time>
      </trkpt>
      <trkpt lat="42.64132" lon="1.89164">
        <ele>2357.3</ele>
        <time>2020-02-14T05:37:03.967Z</time>
      </trkpt>
      <trkpt lat="42.64132" lon="1.89164">
        <ele>2357.3</ele>
        <time>2020-02-14T05:37:03.973Z</time>
      </trkpt>
      <trkpt lat="42.64132" lon="1.89164">
        <ele>2356.4</ele>
        <time>2020-02-14T05:37:04.356Z</time>
      </trkpt>
      <trkpt lat="42.64132" lon="1.89164">
        <ele>2360.8</ele>
        <time>2020-02-14T05:37:05.880Z</time>
      </trkpt>
      <trkpt lat="42.64132" lon="1.89164">
        <ele>2360.3</ele>
        <time>2020-02-14T05:37:06.062Z</time>
      </trkpt>
      <trkpt lat="42.6413" lon="1.89174">
        <ele>2360.3</ele>
        <time>2020-02-14T05:37:09.030Z</time>
      </trkpt>
      <trkpt lat="42.6413" lon="1.8918">
        <ele>2359.2</ele>
        <time>2020-02-14T05:37:10.886Z</time>
      </trkpt>
      <trkpt lat="42.64131" lon="1.89179">
        <ele>2361.6</ele>
        <time>2020-02-14T05:37:11.929Z</time>
      </trkpt>
      <trkpt lat="42.64132" lon="1.89174">
        <ele>2360.7</ele>
        <time>2020-02-14T05:37:13.180Z</time>
      </trkpt>
      <trkpt lat="42.64132" lon="1.89175">
        <ele>2360.7</ele>
        <time>2020-02-14T05:37:13.226Z</time>
      </trkpt>
      <trkpt lat="42.64131" lon="1.89175">
        <ele>2361.2</ele>
        <time>2020-02-14T05:37:13.431Z</time>
      </trkpt>
      <trkpt lat="42.6413" lon="1.89175">
        <ele>2360.7</ele>
        <time>2020-02-14T05:37:14.030Z</time>
      </trkpt>
      <trkpt lat="42.64131" lon="1.89175">
        <ele>2362.2</ele>
        <time>2020-02-14T05:37:14.652Z</time>
      </trkpt>
      <trkpt lat="42.6413" lon="1.89176">
        <ele>2361.1</ele>
        <time>2020-02-14T05:37:15.048Z</time>
      </trkpt>
      <trkpt lat="42.6413" lon="1.89176">
        <ele>2364.5</ele>
        <time>2020-02-14T05:37:16.237Z</time>
      </trkpt>
      <trkpt lat="42.6413" lon="1.89176">
        <ele>2368</ele>
        <time>2020-02-14T05:37:17.430Z</time>
      </trkpt>
      <trkpt lat="42.6413" lon="1.89176">
        <ele>2366</ele>
        <time>2020-02-14T05:37:18.133Z</time>
      </trkpt>
      <trkpt lat="42.6413" lon="1.89176">
        <ele>2363.1</ele>
        <time>2020-02-14T05:37:19.110Z</time>
      </trkpt>
      <trkpt lat="42.6413" lon="1.89176">
        <ele>2366</ele>
        <time>2020-02-14T05:37:20.090Z</time>
      </trkpt>
      <trkpt lat="42.6413" lon="1.89176">
        <ele>2359.2</ele>
        <time>2020-02-14T05:37:22.435Z</time>
      </trkpt>
      <trkpt lat="42.6413" lon="1.89176">
        <ele>2365.9</ele>
        <time>2020-02-14T05:37:24.759Z</time>
      </trkpt>
      <trkpt lat="42.6413" lon="1.89176">
        <ele>2355</ele>
        <time>2020-02-14T05:37:28.551Z</time>
      </trkpt>
      <trkpt lat="42.6413" lon="1.89176">
        <ele>2362.7</ele>
        <time>2020-02-14T05:37:31.220Z</time>
      </trkpt>
      <trkpt lat="42.6413" lon="1.89176">
        <ele>2358.8</ele>
        <time>2020-02-14T05:37:32.567Z</time>
      </trkpt>
      <trkpt lat="42.6413" lon="1.89176">
        <ele>2357.9</ele>
        <time>2020-02-14T05:37:32.883Z</time>
      </trkpt>
      <trkpt lat="42.6413" lon="1.89176">
        <ele>2366</ele>
        <time>2020-02-14T05:37:35.689Z</time>
      </trkpt>
      <trkpt lat="42.6413" lon="1.89176">
        <ele>2365.9</ele>
        <time>2020-02-14T05:37:35.697Z</time>
      </trkpt>
      <trkpt lat="42.6413" lon="1.89176">
        <ele>2361.1</ele>
        <time>2020-02-14T05:37:37.375Z</time>
      </trkpt>
      <trkpt lat="42.6413" lon="1.89176">
        <ele>2365.5</ele>
        <time>2020-02-14T05:37:38.905Z</time>
      </trkpt>
      <trkpt lat="42.6413" lon="1.89176">
        <ele>2363.2</ele>
        <time>2020-02-14T05:37:39.718Z</time>
      </trkpt>
      <trkpt lat="42.64131" lon="1.89175">
        <ele>2361.1</ele>
        <time>2020-02-14T05:37:40.576Z</time>
      </trkpt>
      <trkpt lat="42.64131" lon="1.89175">
        <ele>2365</ele>
        <time>2020-02-14T05:37:41.926Z</time>
      </trkpt>
      <trkpt lat="42.64131" lon="1.89175">
        <ele>2361.7</ele>
        <time>2020-02-14T05:37:43.078Z</time>
      </trkpt>
      <trkpt lat="42.64131" lon="1.89175">
        <ele>2361.1</ele>
        <time>2020-02-14T05:37:43.279Z</time>
      </trkpt>
      <trkpt lat="42.64129" lon="1.89178">
        <ele>2360.3</ele>
        <time>2020-02-14T05:37:44.427Z</time>
      </trkpt>
      <trkpt lat="42.64123" lon="1.89192">
        <ele>2357.3</ele>
        <time>2020-02-14T05:37:49.169Z</time>
      </trkpt>
      <trkpt lat="42.64123" lon="1.89204">
        <ele>2354.5</ele>
        <time>2020-02-14T05:37:52.824Z</time>
      </trkpt>
      <trkpt lat="42.64122" lon="1.8921">
        <ele>2352.5</ele>
        <time>2020-02-14T05:37:54.747Z</time>
      </trkpt>
      <trkpt lat="42.64122" lon="1.89211">
        <ele>2356</ele>
        <time>2020-02-14T05:37:55.984Z</time>
      </trkpt>
      <trkpt lat="42.64122" lon="1.89212">
        <ele>2352.5</ele>
        <time>2020-02-14T05:37:57.208Z</time>
      </trkpt>
      <trkpt lat="42.64123" lon="1.89213">
        <ele>2351.5</ele>
        <time>2020-02-14T05:37:57.687Z</time>
      </trkpt>
      <trkpt lat="42.64124" lon="1.89213">
        <ele>2350.6</ele>
        <time>2020-02-14T05:37:58.250Z</time>
      </trkpt>
      <trkpt lat="42.64128" lon="1.89224">
        <ele>2347.2</ele>
        <time>2020-02-14T05:38:01.951Z</time>
      </trkpt>
      <trkpt lat="42.64127" lon="1.89225">
        <ele>2346.7</ele>
        <time>2020-02-14T05:38:02.235Z</time>
      </trkpt>
      <trkpt lat="42.64126" lon="1.89228">
        <ele>2343.9</ele>
        <time>2020-02-14T05:38:03.732Z</time>
      </trkpt>
      <trkpt lat="42.64127" lon="1.89232">
        <ele>2346.8</ele>
        <time>2020-02-14T05:38:05.138Z</time>
      </trkpt>
      <trkpt lat="42.64127" lon="1.89233">
        <ele>2342.4</ele>
        <time>2020-02-14T05:38:06.732Z</time>
      </trkpt>
      <trkpt lat="42.64128" lon="1.89234">
        <ele>2342.5</ele>
        <time>2020-02-14T05:38:07.015Z</time>
      </trkpt>
      <trkpt lat="42.64127" lon="1.89235">
        <ele>2343.5</ele>
        <time>2020-02-14T05:38:07.586Z</time>
      </trkpt>
      <trkpt lat="42.64127" lon="1.8924">
        <ele>2343</ele>
        <time>2020-02-14T05:38:08.826Z</time>
      </trkpt>
      <trkpt lat="42.64129" lon="1.8924">
        <ele>2341.1</ele>
        <time>2020-02-14T05:38:09.868Z</time>
      </trkpt>
      <trkpt lat="42.64134" lon="1.89246">
        <ele>2337.7</ele>
        <time>2020-02-14T05:38:12.615Z</time>
      </trkpt>
      <trkpt lat="42.64135" lon="1.89245">
        <ele>2337.1</ele>
        <time>2020-02-14T05:38:12.919Z</time>
      </trkpt>
      <trkpt lat="42.64139" lon="1.89247">
        <ele>2337.1</ele>
        <time>2020-02-14T05:38:14.742Z</time>
      </trkpt>
      <trkpt lat="42.64141" lon="1.89247">
        <ele>2336.2</ele>
        <time>2020-02-14T05:38:15.387Z</time>
      </trkpt>
      <trkpt lat="42.64143" lon="1.89248">
        <ele>2335.2</ele>
        <time>2020-02-14T05:38:16.266Z</time>
      </trkpt>
      <trkpt lat="42.64145" lon="1.89251">
        <ele>2334.7</ele>
        <time>2020-02-14T05:38:17.425Z</time>
      </trkpt>
      <trkpt lat="42.64149" lon="1.89253">
        <ele>2333.8</ele>
        <time>2020-02-14T05:38:19.148Z</time>
      </trkpt>
      <trkpt lat="42.64152" lon="1.89259">
        <ele>2331.4</ele>
        <time>2020-02-14T05:38:21.344Z</time>
      </trkpt>
      <trkpt lat="42.64156" lon="1.89261">
        <ele>2330.5</ele>
        <time>2020-02-14T05:38:23.004Z</time>
      </trkpt>
      <trkpt lat="42.64162" lon="1.89265">
        <ele>2329.5</ele>
        <time>2020-02-14T05:38:25.375Z</time>
      </trkpt>
      <trkpt lat="42.64163" lon="1.89268">
        <ele>2328</ele>
        <time>2020-02-14T05:38:26.631Z</time>
      </trkpt>
      <trkpt lat="42.64165" lon="1.89272">
        <ele>2327.1</ele>
        <time>2020-02-14T05:38:27.888Z</time>
      </trkpt>
      <trkpt lat="42.64169" lon="1.89274">
        <ele>2323.6</ele>
        <time>2020-02-14T05:38:30.215Z</time>
      </trkpt>
      <trkpt lat="42.6417" lon="1.89275">
        <ele>2323.6</ele>
        <time>2020-02-14T05:38:30.354Z</time>
      </trkpt>
      <trkpt lat="42.6417" lon="1.89276">
        <ele>2324.2</ele>
        <time>2020-02-14T05:38:30.760Z</time>
      </trkpt>
      <trkpt lat="42.64172" lon="1.89278">
        <ele>2323.2</ele>
        <time>2020-02-14T05:38:31.719Z</time>
      </trkpt>
      <trkpt lat="42.64172" lon="1.89284">
        <ele>2321.8</ele>
        <time>2020-02-14T05:38:33.552Z</time>
      </trkpt>
      <trkpt lat="42.64172" lon="1.8929">
        <ele>2323.6</ele>
        <time>2020-02-14T05:38:35.294Z</time>
      </trkpt>
      <trkpt lat="42.64175" lon="1.89307">
        <ele>2322.2</ele>
        <time>2020-02-14T05:38:40.189Z</time>
      </trkpt>
      <trkpt lat="42.64173" lon="1.89311">
        <ele>2320.4</ele>
        <time>2020-02-14T05:38:41.827Z</time>
      </trkpt>
      <trkpt lat="42.64172" lon="1.89317">
        <ele>2319.9</ele>
        <time>2020-02-14T05:38:43.514Z</time>
      </trkpt>
      <trkpt lat="42.64178" lon="1.89316">
        <ele>2318.4</ele>
        <time>2020-02-14T05:38:46.078Z</time>
      </trkpt>
      <trkpt lat="42.64184" lon="1.89318">
        <ele>2315</ele>
        <time>2020-02-14T05:38:48.749Z</time>
      </trkpt>
      <trkpt lat="42.64186" lon="1.89328">
        <ele>2313.6</ele>
        <time>2020-02-14T05:38:51.798Z</time>
      </trkpt>
      <trkpt lat="42.64184" lon="1.89336">
        <ele>2313.1</ele>
        <time>2020-02-14T05:38:54.143Z</time>
      </trkpt>
      <trkpt lat="42.64184" lon="1.89336">
        <ele>2313.7</ele>
        <time>2020-02-14T05:38:54.390Z</time>
      </trkpt>
      <trkpt lat="42.64185" lon="1.89337">
        <ele>2313.2</ele>
        <time>2020-02-14T05:38:54.683Z</time>
      </trkpt>
      <trkpt lat="42.64185" lon="1.89337">
        <ele>2312.7</ele>
        <time>2020-02-14T05:38:54.876Z</time>
      </trkpt>
      <trkpt lat="42.64185" lon="1.89337">
        <ele>2313.6</ele>
        <time>2020-02-14T05:38:55.221Z</time>
      </trkpt>
      <trkpt lat="42.64185" lon="1.89337">
        <ele>2309.2</ele>
        <time>2020-02-14T05:38:56.755Z</time>
      </trkpt>
      <trkpt lat="42.64185" lon="1.89337">
        <ele>2309.3</ele>
        <time>2020-02-14T05:38:56.778Z</time>
      </trkpt>
      <trkpt lat="42.64185" lon="1.89337">
        <ele>2315</ele>
        <time>2020-02-14T05:38:58.764Z</time>
      </trkpt>
      <trkpt lat="42.64185" lon="1.89337">
        <ele>2320.8</ele>
        <time>2020-02-14T05:39:00.783Z</time>
      </trkpt>
      <trkpt lat="42.64185" lon="1.89337">
        <ele>2316</ele>
        <time>2020-02-14T05:39:02.450Z</time>
      </trkpt>
      <trkpt lat="42.64185" lon="1.89337">
        <ele>2311.6</ele>
        <time>2020-02-14T05:39:03.984Z</time>
      </trkpt>
      <trkpt lat="42.64185" lon="1.89337">
        <ele>2315.5</ele>
        <time>2020-02-14T05:39:05.338Z</time>
      </trkpt>
      <trkpt lat="42.64184" lon="1.89337">
        <ele>2312.1</ele>
        <time>2020-02-14T05:39:06.509Z</time>
      </trkpt>
      <trkpt lat="42.64184" lon="1.89337">
        <ele>2312.7</ele>
        <time>2020-02-14T05:39:06.756Z</time>
      </trkpt>
      <trkpt lat="42.64184" lon="1.89336">
        <ele>2311.3</ele>
        <time>2020-02-14T05:39:07.268Z</time>
      </trkpt>
      <trkpt lat="42.64184" lon="1.89335">
        <ele>2310.2</ele>
        <time>2020-02-14T05:39:07.856Z</time>
      </trkpt>
      <trkpt lat="42.64184" lon="1.89335">
        <ele>2310.3</ele>
        <time>2020-02-14T05:39:07.881Z</time>
      </trkpt>
      <trkpt lat="42.64184" lon="1.89335">
        <ele>2306.3</ele>
        <time>2020-02-14T05:39:09.260Z</time>
      </trkpt>
      <trkpt lat="42.64184" lon="1.89335">
        <ele>2315.1</ele>
        <time>2020-02-14T05:39:12.301Z</time>
      </trkpt>
      <trkpt lat="42.64184" lon="1.89335">
        <ele>2312.7</ele>
        <time>2020-02-14T05:39:13.140Z</time>
      </trkpt>
      <trkpt lat="42.64184" lon="1.89335">
        <ele>2310.3</ele>
        <time>2020-02-14T05:39:13.980Z</time>
      </trkpt>
      <trkpt lat="42.64184" lon="1.89335">
        <ele>2314</ele>
        <time>2020-02-14T05:39:15.284Z</time>
      </trkpt>
      <trkpt lat="42.64184" lon="1.89335">
        <ele>2313.6</ele>
        <time>2020-02-14T05:39:15.537Z</time>
      </trkpt>
      <trkpt lat="42.64184" lon="1.89335">
        <ele>2313.6</ele>
        <time>2020-02-14T05:39:15.551Z</time>
      </trkpt>
      <trkpt lat="42.64184" lon="1.89336">
        <ele>2313.7</ele>
        <time>2020-02-14T05:39:15.779Z</time>
      </trkpt>
      <trkpt lat="42.64184" lon="1.89336">
        <ele>2313.2</ele>
        <time>2020-02-14T05:39:15.952Z</time>
      </trkpt>
      <trkpt lat="42.64184" lon="1.89336">
        <ele>2313.6</ele>
        <time>2020-02-14T05:39:16.137Z</time>
      </trkpt>
      <trkpt lat="42.64185" lon="1.89336">
        <ele>2314.1</ele>
        <time>2020-02-14T05:39:16.388Z</time>
      </trkpt>
      <trkpt lat="42.64185" lon="1.89336">
        <ele>2310.8</ele>
        <time>2020-02-14T05:39:17.525Z</time>
      </trkpt>
      <trkpt lat="42.64184" lon="1.89336">
        <ele>2314</ele>
        <time>2020-02-14T05:39:18.657Z</time>
      </trkpt>
      <trkpt lat="42.64185" lon="1.89336">
        <ele>2312.2</ele>
        <time>2020-02-14T05:39:19.312Z</time>
      </trkpt>
      <trkpt lat="42.64185" lon="1.89336">
        <ele>2310.7</ele>
        <time>2020-02-14T05:39:19.818Z</time>
      </trkpt>
      <trkpt lat="42.64185" lon="1.89336">
        <ele>2315</ele>
        <time>2020-02-14T05:39:21.315Z</time>
      </trkpt>
      <trkpt lat="42.64185" lon="1.89336">
        <ele>2311.6</ele>
        <time>2020-02-14T05:39:22.499Z</time>
      </trkpt>
      <trkpt lat="42.64185" lon="1.89336">
        <ele>2315</ele>
        <time>2020-02-14T05:39:23.690Z</time>
      </trkpt>
      <trkpt lat="42.64185" lon="1.89336">
        <ele>2309.3</ele>
        <time>2020-02-14T05:39:25.684Z</time>
      </trkpt>
      <trkpt lat="42.64185" lon="1.89336">
        <ele>2315.1</ele>
        <time>2020-02-14T05:39:27.684Z</time>
      </trkpt>
      <trkpt lat="42.64185" lon="1.89336">
        <ele>2312.1</ele>
        <time>2020-02-14T05:39:28.697Z</time>
      </trkpt>
      <trkpt lat="42.64185" lon="1.89336">
        <ele>2309.2</ele>
        <time>2020-02-14T05:39:29.701Z</time>
      </trkpt>
      <trkpt lat="42.64185" lon="1.89336">
        <ele>2312.2</ele>
        <time>2020-02-14T05:39:30.726Z</time>
      </trkpt>
      <trkpt lat="42.64184" lon="1.89335">
        <ele>2312.7</ele>
        <time>2020-02-14T05:39:31.057Z</time>
      </trkpt>
      <trkpt lat="42.64184" lon="1.89335">
        <ele>2304.9</ele>
        <time>2020-02-14T05:39:33.737Z</time>
      </trkpt>
      <trkpt lat="42.64184" lon="1.89335">
        <ele>2312.2</ele>
        <time>2020-02-14T05:39:36.245Z</time>
      </trkpt>
      <trkpt lat="42.64184" lon="1.89335">
        <ele>2322.2</ele>
        <time>2020-02-14T05:39:39.736Z</time>
      </trkpt>
      <trkpt lat="42.64184" lon="1.89335">
        <ele>2313.6</ele>
        <time>2020-02-14T05:39:42.722Z</time>
      </trkpt>
      <trkpt lat="42.64184" lon="1.89335">
        <ele>2312.7</ele>
        <time>2020-02-14T05:39:43.053Z</time>
      </trkpt>
      <trkpt lat="42.64184" lon="1.89335">
        <ele>2314</ele>
        <time>2020-02-14T05:39:43.573Z</time>
      </trkpt>
      <trkpt lat="42.64185" lon="1.8934">
        <ele>2314.6</ele>
        <time>2020-02-14T05:39:45.102Z</time>
      </trkpt>
      <trkpt lat="42.64184" lon="1.8934">
        <ele>2314.1</ele>
        <time>2020-02-14T05:39:45.576Z</time>
      </trkpt>
      <trkpt lat="42.64184" lon="1.8934">
        <ele>2315.1</ele>
        <time>2020-02-14T05:39:45.930Z</time>
      </trkpt>
      <trkpt lat="42.64185" lon="1.89342">
        <ele>2316.1</ele>
        <time>2020-02-14T05:39:46.802Z</time>
      </trkpt>
      <trkpt lat="42.64184" lon="1.89345">
        <ele>2315.5</ele>
        <time>2020-02-14T05:39:47.847Z</time>
      </trkpt>
      <trkpt lat="42.64185" lon="1.89348">
        <ele>2315</ele>
        <time>2020-02-14T05:39:48.680Z</time>
      </trkpt>
      <trkpt lat="42.64188" lon="1.89359">
        <ele>2316.4</ele>
        <time>2020-02-14T05:39:52.006Z</time>
      </trkpt>
      <trkpt lat="42.64188" lon="1.89357">
        <ele>2315</ele>
        <time>2020-02-14T05:39:52.631Z</time>
      </trkpt>
      <trkpt lat="42.64189" lon="1.89357">
        <ele>2316.9</ele>
        <time>2020-02-14T05:39:53.437Z</time>
      </trkpt>
      <trkpt lat="42.64197" lon="1.89363">
        <ele>2314.6</ele>
        <time>2020-02-14T05:39:57.102Z</time>
      </trkpt>
      <trkpt lat="42.64204" lon="1.8937">
        <ele>2313.2</ele>
        <time>2020-02-14T05:40:00.391Z</time>
      </trkpt>
      <trkpt lat="42.64207" lon="1.89372">
        <ele>2310.3</ele>
        <time>2020-02-14T05:40:02.076Z</time>
      </trkpt>
      <trkpt lat="42.64208" lon="1.89372">
        <ele>2309.7</ele>
        <time>2020-02-14T05:40:02.354Z</time>
      </trkpt>
      <trkpt lat="42.64209" lon="1.89374">
        <ele>2308.7</ele>
        <time>2020-02-14T05:40:03.207Z</time>
      </trkpt>
      <trkpt lat="42.64222" lon="1.89378">
        <ele>2308.3</ele>
        <time>2020-02-14T05:40:08.226Z</time>
      </trkpt>
      <trkpt lat="42.64226" lon="1.8938">
        <ele>2307.4</ele>
        <time>2020-02-14T05:40:09.828Z</time>
      </trkpt>
      <trkpt lat="42.6423" lon="1.89388">
        <ele>2305</ele>
        <time>2020-02-14T05:40:12.721Z</time>
      </trkpt>
      <trkpt lat="42.6423" lon="1.8939">
        <ele>2304</ele>
        <time>2020-02-14T05:40:13.469Z</time>
      </trkpt>
      <trkpt lat="42.64231" lon="1.894">
        <ele>2301.1</ele>
        <time>2020-02-14T05:40:16.678Z</time>
      </trkpt>
      <trkpt lat="42.64238" lon="1.894">
        <ele>2299.6</ele>
        <time>2020-02-14T05:40:19.284Z</time>
      </trkpt>
      <trkpt lat="42.64245" lon="1.89404">
        <ele>2298.3</ele>
        <time>2020-02-14T05:40:22.106Z</time>
      </trkpt>
      <trkpt lat="42.64252" lon="1.89412">
        <ele>2295.3</ele>
        <time>2020-02-14T05:40:25.802Z</time>
      </trkpt>
      <trkpt lat="42.64257" lon="1.89414">
        <ele>2293.5</ele>
        <time>2020-02-14T05:40:27.892Z</time>
      </trkpt>
      <trkpt lat="42.64263" lon="1.89419">
        <ele>2293.4</ele>
        <time>2020-02-14T05:40:30.851Z</time>
      </trkpt>
      <trkpt lat="42.64266" lon="1.89422">
        <ele>2293.5</ele>
        <time>2020-02-14T05:40:32.195Z</time>
      </trkpt>
      <trkpt lat="42.64273" lon="1.89435">
        <ele>2291.9</ele>
        <time>2020-02-14T05:40:36.894Z</time>
      </trkpt>
      <trkpt lat="42.64274" lon="1.89437">
        <ele>2290</ele>
        <time>2020-02-14T05:40:37.794Z</time>
      </trkpt>
      <trkpt lat="42.64275" lon="1.89444">
        <ele>2289.1</ele>
        <time>2020-02-14T05:40:39.850Z</time>
      </trkpt>
      <trkpt lat="42.64282" lon="1.89451">
        <ele>2288.1</ele>
        <time>2020-02-14T05:40:42.924Z</time>
      </trkpt>
      <trkpt lat="42.64285" lon="1.89458">
        <ele>2288.6</ele>
        <time>2020-02-14T05:40:45.515Z</time>
      </trkpt>
      <trkpt lat="42.64289" lon="1.89466">
        <ele>2288.6</ele>
        <time>2020-02-14T05:40:48.055Z</time>
      </trkpt>
      <trkpt lat="42.64294" lon="1.89476">
        <ele>2288.2</ele>
        <time>2020-02-14T05:40:51.639Z</time>
      </trkpt>
      <trkpt lat="42.64295" lon="1.89481">
        <ele>2287.2</ele>
        <time>2020-02-14T05:40:53.061Z</time>
      </trkpt>
      <trkpt lat="42.64296" lon="1.89486">
        <ele>2286.7</ele>
        <time>2020-02-14T05:40:54.429Z</time>
      </trkpt>
      <trkpt lat="42.64302" lon="1.89498">
        <ele>2283.8</ele>
        <time>2020-02-14T05:40:58.667Z</time>
      </trkpt>
      <trkpt lat="42.64304" lon="1.895">
        <ele>2283.9</ele>
        <time>2020-02-14T05:40:59.651Z</time>
      </trkpt>
      <trkpt lat="42.64305" lon="1.89502">
        <ele>2283.9</ele>
        <time>2020-02-14T05:41:00.399Z</time>
      </trkpt>
      <trkpt lat="42.64307" lon="1.89511">
        <ele>2282.4</ele>
        <time>2020-02-14T05:41:03.006Z</time>
      </trkpt>
      <trkpt lat="42.6431" lon="1.89522">
        <ele>2280.9</ele>
        <time>2020-02-14T05:41:06.473Z</time>
      </trkpt>
      <trkpt lat="42.64312" lon="1.89529">
        <ele>2280.4</ele>
        <time>2020-02-14T05:41:08.602Z</time>
      </trkpt>
      <trkpt lat="42.64316" lon="1.89538">
        <ele>2280.9</ele>
        <time>2020-02-14T05:41:11.649Z</time>
      </trkpt>
      <trkpt lat="42.64317" lon="1.89538">
        <ele>2280.4</ele>
        <time>2020-02-14T05:41:12.120Z</time>
      </trkpt>
      <trkpt lat="42.64319" lon="1.89537">
        <ele>2280.5</ele>
        <time>2020-02-14T05:41:12.765Z</time>
      </trkpt>
      <trkpt lat="42.64319" lon="1.89538">
        <ele>2280.5</ele>
        <time>2020-02-14T05:41:12.950Z</time>
      </trkpt>
      <trkpt lat="42.64319" lon="1.89537">
        <ele>2280</ele>
        <time>2020-02-14T05:41:13.178Z</time>
      </trkpt>
      <trkpt lat="42.64319" lon="1.89538">
        <ele>2280.4</ele>
        <time>2020-02-14T05:41:13.502Z</time>
      </trkpt>
      <trkpt lat="42.64318" lon="1.89539">
        <ele>2281.4</ele>
        <time>2020-02-14T05:41:13.954Z</time>
      </trkpt>
      <trkpt lat="42.64322" lon="1.89546">
        <ele>2278.1</ele>
        <time>2020-02-14T05:41:16.796Z</time>
      </trkpt>
      <trkpt lat="42.64325" lon="1.8955">
        <ele>2277.6</ele>
        <time>2020-02-14T05:41:18.318Z</time>
      </trkpt>
      <trkpt lat="42.64325" lon="1.89552">
        <ele>2275.7</ele>
        <time>2020-02-14T05:41:19.305Z</time>
      </trkpt>
      <trkpt lat="42.64324" lon="1.89556">
        <ele>2275.1</ele>
        <time>2020-02-14T05:41:20.336Z</time>
      </trkpt>
      <trkpt lat="42.64327" lon="1.89564">
        <ele>2273.7</ele>
        <time>2020-02-14T05:41:22.815Z</time>
      </trkpt>
      <trkpt lat="42.64325" lon="1.89572">
        <ele>2270.8</ele>
        <time>2020-02-14T05:41:25.385Z</time>
      </trkpt>
      <trkpt lat="42.64326" lon="1.89574">
        <ele>2269.9</ele>
        <time>2020-02-14T05:41:26.219Z</time>
      </trkpt>
      <trkpt lat="42.64324" lon="1.8958">
        <ele>2268</ele>
        <time>2020-02-14T05:41:28.204Z</time>
      </trkpt>
      <trkpt lat="42.64325" lon="1.89584">
        <ele>2267.5</ele>
        <time>2020-02-14T05:41:29.501Z</time>
      </trkpt>
      <trkpt lat="42.64328" lon="1.8959">
        <ele>2266.1</ele>
        <time>2020-02-14T05:41:31.454Z</time>
      </trkpt>
      <trkpt lat="42.64329" lon="1.89591">
        <ele>2266.1</ele>
        <time>2020-02-14T05:41:32.063Z</time>
      </trkpt>
      <trkpt lat="42.64329" lon="1.89603">
        <ele>2263.7</ele>
        <time>2020-02-14T05:41:35.653Z</time>
      </trkpt>
      <trkpt lat="42.6433" lon="1.89605">
        <ele>2263.2</ele>
        <time>2020-02-14T05:41:36.352Z</time>
      </trkpt>
      <trkpt lat="42.64331" lon="1.89615">
        <ele>2259.8</ele>
        <time>2020-02-14T05:41:39.509Z</time>
      </trkpt>
      <trkpt lat="42.64328" lon="1.89624">
        <ele>2257.8</ele>
        <time>2020-02-14T05:41:42.303Z</time>
      </trkpt>
      <trkpt lat="42.6433" lon="1.89628">
        <ele>2255.9</ele>
        <time>2020-02-14T05:41:43.834Z</time>
      </trkpt>
      <trkpt lat="42.6433" lon="1.89632">
        <ele>2255.4</ele>
        <time>2020-02-14T05:41:45.013Z</time>
      </trkpt>
      <trkpt lat="42.64326" lon="1.89645">
        <ele>2252.6</ele>
        <time>2020-02-14T05:41:48.944Z</time>
      </trkpt>
      <trkpt lat="42.64327" lon="1.89651">
        <ele>2251.6</ele>
        <time>2020-02-14T05:41:50.820Z</time>
      </trkpt>
      <trkpt lat="42.64323" lon="1.89656">
        <ele>2249.2</ele>
        <time>2020-02-14T05:41:52.863Z</time>
      </trkpt>
      <trkpt lat="42.64324" lon="1.89675">
        <ele>2246.7</ele>
        <time>2020-02-14T05:41:58.358Z</time>
      </trkpt>
      <trkpt lat="42.64324" lon="1.89677">
        <ele>2245.3</ele>
        <time>2020-02-14T05:41:59.176Z</time>
      </trkpt>
      <trkpt lat="42.64321" lon="1.89681">
        <ele>2244</ele>
        <time>2020-02-14T05:42:00.816Z</time>
      </trkpt>
      <trkpt lat="42.64314" lon="1.8969">
        <ele>2241</ele>
        <time>2020-02-14T05:42:04.677Z</time>
      </trkpt>
      <trkpt lat="42.64316" lon="1.89699">
        <ele>2237.6</ele>
        <time>2020-02-14T05:42:07.628Z</time>
      </trkpt>
      <trkpt lat="42.64314" lon="1.89708">
        <ele>2235.2</ele>
        <time>2020-02-14T05:42:10.513Z</time>
      </trkpt>
      <trkpt lat="42.64313" lon="1.89717">
        <ele>2234.7</ele>
        <time>2020-02-14T05:42:12.948Z</time>
      </trkpt>
      <trkpt lat="42.64312" lon="1.89719">
        <ele>2232.8</ele>
        <time>2020-02-14T05:42:14.059Z</time>
      </trkpt>
      <trkpt lat="42.6431" lon="1.89724">
        <ele>2231</ele>
        <time>2020-02-14T05:42:15.594Z</time>
      </trkpt>
      <trkpt lat="42.6431" lon="1.89732">
        <ele>2229.5</ele>
        <time>2020-02-14T05:42:17.880Z</time>
      </trkpt>
      <trkpt lat="42.64308" lon="1.89732">
        <ele>2229.1</ele>
        <time>2020-02-14T05:42:18.661Z</time>
      </trkpt>
      <trkpt lat="42.64302" lon="1.89732">
        <ele>2225.6</ele>
        <time>2020-02-14T05:42:21.017Z</time>
      </trkpt>
      <trkpt lat="42.643" lon="1.8974">
        <ele>2223.7</ele>
        <time>2020-02-14T05:42:23.415Z</time>
      </trkpt>
      <trkpt lat="42.643" lon="1.89742">
        <ele>2223.3</ele>
        <time>2020-02-14T05:42:23.945Z</time>
      </trkpt>
      <trkpt lat="42.64298" lon="1.89744">
        <ele>2222.3</ele>
        <time>2020-02-14T05:42:24.977Z</time>
      </trkpt>
      <trkpt lat="42.64292" lon="1.8975">
        <ele>2221.8</ele>
        <time>2020-02-14T05:42:27.934Z</time>
      </trkpt>
      <trkpt lat="42.64291" lon="1.89754">
        <ele>2220.9</ele>
        <time>2020-02-14T05:42:29.185Z</time>
      </trkpt>
      <trkpt lat="42.64291" lon="1.89755">
        <ele>2220.8</ele>
        <time>2020-02-14T05:42:29.588Z</time>
      </trkpt>
      <trkpt lat="42.6429" lon="1.89763">
        <ele>2219.8</ele>
        <time>2020-02-14T05:42:31.667Z</time>
      </trkpt>
      <trkpt lat="42.64287" lon="1.89766">
        <ele>2217.5</ele>
        <time>2020-02-14T05:42:33.354Z</time>
      </trkpt>
      <trkpt lat="42.64285" lon="1.89771">
        <ele>2218.4</ele>
        <time>2020-02-14T05:42:35.010Z</time>
      </trkpt>
      <trkpt lat="42.64285" lon="1.89774">
        <ele>2222.8</ele>
        <time>2020-02-14T05:42:36.830Z</time>
      </trkpt>
      <trkpt lat="42.64285" lon="1.89774">
        <ele>2222.7</ele>
        <time>2020-02-14T05:42:36.840Z</time>
      </trkpt>
      <trkpt lat="42.64285" lon="1.89774">
        <ele>2219.8</ele>
        <time>2020-02-14T05:42:37.844Z</time>
      </trkpt>
      <trkpt lat="42.64285" lon="1.89774">
        <ele>2219.8</ele>
        <time>2020-02-14T05:42:37.845Z</time>
      </trkpt>
      <trkpt lat="42.64285" lon="1.89774">
        <ele>2228.5</ele>
        <time>2020-02-14T05:42:40.865Z</time>
      </trkpt>
      <trkpt lat="42.64285" lon="1.89774">
        <ele>2225.7</ele>
        <time>2020-02-14T05:42:41.857Z</time>
      </trkpt>
      <trkpt lat="42.64285" lon="1.89774">
        <ele>2215</ele>
        <time>2020-02-14T05:42:45.563Z</time>
      </trkpt>
      <trkpt lat="42.64285" lon="1.89774">
        <ele>2218.4</ele>
        <time>2020-02-14T05:42:46.751Z</time>
      </trkpt>
      <trkpt lat="42.64285" lon="1.89774">
        <ele>2229.4</ele>
        <time>2020-02-14T05:42:50.564Z</time>
      </trkpt>
      <trkpt lat="42.64285" lon="1.89774">
        <ele>2221.4</ele>
        <time>2020-02-14T05:42:53.348Z</time>
      </trkpt>
      <trkpt lat="42.64285" lon="1.89774">
        <ele>2226.6</ele>
        <time>2020-02-14T05:42:55.165Z</time>
      </trkpt>
      <trkpt lat="42.64285" lon="1.89774">
        <ele>2222.3</ele>
        <time>2020-02-14T05:42:56.675Z</time>
      </trkpt>
      <trkpt lat="42.64285" lon="1.89774">
        <ele>2226.2</ele>
        <time>2020-02-14T05:42:58.032Z</time>
      </trkpt>
      <trkpt lat="42.64285" lon="1.89774">
        <ele>2218</ele>
        <time>2020-02-14T05:43:00.883Z</time>
      </trkpt>
      <trkpt lat="42.64285" lon="1.89774">
        <ele>2216</ele>
        <time>2020-02-14T05:43:01.561Z</time>
      </trkpt>
      <trkpt lat="42.64285" lon="1.89774">
        <ele>2219.8</ele>
        <time>2020-02-14T05:43:02.877Z</time>
      </trkpt>
      <trkpt lat="42.64285" lon="1.89774">
        <ele>2223.7</ele>
        <time>2020-02-14T05:43:04.232Z</time>
      </trkpt>
      <trkpt lat="42.64285" lon="1.89775">
        <ele>2218.5</ele>
        <time>2020-02-14T05:43:06.059Z</time>
      </trkpt>
      <trkpt lat="42.64285" lon="1.89778">
        <ele>2223.2</ele>
        <time>2020-02-14T05:43:07.904Z</time>
      </trkpt>
      <trkpt lat="42.64285" lon="1.89778">
        <ele>2218.4</ele>
        <time>2020-02-14T05:43:09.574Z</time>
      </trkpt>
      <trkpt lat="42.64285" lon="1.89778">
        <ele>2222.7</ele>
        <time>2020-02-14T05:43:11.079Z</time>
      </trkpt>
      <trkpt lat="42.64285" lon="1.89778">
        <ele>2217.9</ele>
        <time>2020-02-14T05:43:12.754Z</time>
      </trkpt>
      <trkpt lat="42.64285" lon="1.89778">
        <ele>2214.6</ele>
        <time>2020-02-14T05:43:13.914Z</time>
      </trkpt>
      <trkpt lat="42.64285" lon="1.89778">
        <ele>2218.4</ele>
        <time>2020-02-14T05:43:15.244Z</time>
      </trkpt>
      <trkpt lat="42.64285" lon="1.89778">
        <ele>2222.7</ele>
        <time>2020-02-14T05:43:16.738Z</time>
      </trkpt>
      <trkpt lat="42.64285" lon="1.89778">
        <ele>2219.9</ele>
        <time>2020-02-14T05:43:17.725Z</time>
      </trkpt>
      <trkpt lat="42.64285" lon="1.89778">
        <ele>2210.3</ele>
        <time>2020-02-14T05:43:21.063Z</time>
      </trkpt>
      <trkpt lat="42.64285" lon="1.89778">
        <ele>2205.5</ele>
        <time>2020-02-14T05:43:22.721Z</time>
      </trkpt>
      <trkpt lat="42.64285" lon="1.89778">
        <ele>2221.3</ele>
        <time>2020-02-14T05:43:28.215Z</time>
      </trkpt>
      <trkpt lat="42.64285" lon="1.89778">
        <ele>2215.5</ele>
        <time>2020-02-14T05:43:30.223Z</time>
      </trkpt>
      <trkpt lat="42.64285" lon="1.89778">
        <ele>2220.3</ele>
        <time>2020-02-14T05:43:31.883Z</time>
      </trkpt>
      <trkpt lat="42.64285" lon="1.89778">
        <ele>2217</ele>
        <time>2020-02-14T05:43:33.038Z</time>
      </trkpt>
      <trkpt lat="42.64285" lon="1.89778">
        <ele>2222.8</ele>
        <time>2020-02-14T05:43:35.054Z</time>
      </trkpt>
      <trkpt lat="42.64285" lon="1.89778">
        <ele>2222.3</ele>
        <time>2020-02-14T05:43:35.237Z</time>
      </trkpt>
      <trkpt lat="42.64285" lon="1.89778">
        <ele>2221.3</ele>
        <time>2020-02-14T05:43:35.553Z</time>
      </trkpt>
      <trkpt lat="42.64285" lon="1.89778">
        <ele>2222.3</ele>
        <time>2020-02-14T05:43:35.873Z</time>
      </trkpt>
      <trkpt lat="42.64285" lon="1.89782">
        <ele>2217.4</ele>
        <time>2020-02-14T05:43:37.972Z</time>
      </trkpt>
      <trkpt lat="42.64288" lon="1.89788">
        <ele>2218</ele>
        <time>2020-02-14T05:43:40.047Z</time>
      </trkpt>
      <trkpt lat="42.64291" lon="1.89792">
        <ele>2216.5</ele>
        <time>2020-02-14T05:43:41.734Z</time>
      </trkpt>
      <trkpt lat="42.64289" lon="1.898">
        <ele>2215.6</ele>
        <time>2020-02-14T05:43:43.872Z</time>
      </trkpt>
      <trkpt lat="42.64289" lon="1.89803">
        <ele>2215.5</ele>
        <time>2020-02-14T05:43:44.753Z</time>
      </trkpt>
      <trkpt lat="42.6429" lon="1.89808">
        <ele>2214.5</ele>
        <time>2020-02-14T05:43:46.355Z</time>
      </trkpt>
      <trkpt lat="42.64288" lon="1.89811">
        <ele>2214.1</ele>
        <time>2020-02-14T05:43:47.302Z</time>
      </trkpt>
      <trkpt lat="42.64287" lon="1.8983">
        <ele>2214.1</ele>
        <time>2020-02-14T05:43:52.736Z</time>
      </trkpt>
      <trkpt lat="42.64288" lon="1.89841">
        <ele>2215.1</ele>
        <time>2020-02-14T05:43:55.961Z</time>
      </trkpt>
      <trkpt lat="42.64289" lon="1.89853">
        <ele>2215</ele>
        <time>2020-02-14T05:43:59.429Z</time>
      </trkpt>
      <trkpt lat="42.64292" lon="1.89863">
        <ele>2216</ele>
        <time>2020-02-14T05:44:02.526Z</time>
      </trkpt>
      <trkpt lat="42.64293" lon="1.89868">
        <ele>2214.6</ele>
        <time>2020-02-14T05:44:04.127Z</time>
      </trkpt>
      <trkpt lat="42.64295" lon="1.89877">
        <ele>2214.5</ele>
        <time>2020-02-14T05:44:06.798Z</time>
      </trkpt>
      <trkpt lat="42.64298" lon="1.89886">
        <ele>2214.1</ele>
        <time>2020-02-14T05:44:09.627Z</time>
      </trkpt>
      <trkpt lat="42.64296" lon="1.89897">
        <ele>2212.7</ele>
        <time>2020-02-14T05:44:12.727Z</time>
      </trkpt>
      <trkpt lat="42.64292" lon="1.89904">
        <ele>2210.7</ele>
        <time>2020-02-14T05:44:15.404Z</time>
      </trkpt>
      <trkpt lat="42.64288" lon="1.89906">
        <ele>2211.2</ele>
        <time>2020-02-14T05:44:17.078Z</time>
      </trkpt>
      <trkpt lat="42.64289" lon="1.89912">
        <ele>2211.8</ele>
        <time>2020-02-14T05:44:18.891Z</time>
      </trkpt>
      <trkpt lat="42.64289" lon="1.89912">
        <ele>2212.2</ele>
        <time>2020-02-14T05:44:19.035Z</time>
      </trkpt>
      <trkpt lat="42.64292" lon="1.89918">
        <ele>2211.8</ele>
        <time>2020-02-14T05:44:21.200Z</time>
      </trkpt>
      <trkpt lat="42.64297" lon="1.89926">
        <ele>2211.3</ele>
        <time>2020-02-14T05:44:24.149Z</time>
      </trkpt>
      <trkpt lat="42.64298" lon="1.8993">
        <ele>2211.2</ele>
        <time>2020-02-14T05:44:25.419Z</time>
      </trkpt>
      <trkpt lat="42.64301" lon="1.89934">
        <ele>2210.8</ele>
        <time>2020-02-14T05:44:26.878Z</time>
      </trkpt>
      <trkpt lat="42.64304" lon="1.89943">
        <ele>2210.2</ele>
        <time>2020-02-14T05:44:29.942Z</time>
      </trkpt>
      <trkpt lat="42.64306" lon="1.89949">
        <ele>2209.7</ele>
        <time>2020-02-14T05:44:31.685Z</time>
      </trkpt>
      <trkpt lat="42.64309" lon="1.8995">
        <ele>2209.4</ele>
        <time>2020-02-14T05:44:32.690Z</time>
      </trkpt>
      <trkpt lat="42.6431" lon="1.89953">
        <ele>2208.8</ele>
        <time>2020-02-14T05:44:33.798Z</time>
      </trkpt>
      <trkpt lat="42.6431" lon="1.89958">
        <ele>2208.8</ele>
        <time>2020-02-14T05:44:35.336Z</time>
      </trkpt>
      <trkpt lat="42.64313" lon="1.89966">
        <ele>2208.4</ele>
        <time>2020-02-14T05:44:37.904Z</time>
      </trkpt>
      <trkpt lat="42.64319" lon="1.89971">
        <ele>2204.4</ele>
        <time>2020-02-14T05:44:40.874Z</time>
      </trkpt>
      <trkpt lat="42.64319" lon="1.89972">
        <ele>2212.2</ele>
        <time>2020-02-14T05:44:43.582Z</time>
      </trkpt>
      <trkpt lat="42.6432" lon="1.89973">
        <ele>2207.8</ele>
        <time>2020-02-14T05:44:45.137Z</time>
      </trkpt>
      <trkpt lat="42.6432" lon="1.89975">
        <ele>2207.8</ele>
        <time>2020-02-14T05:44:45.549Z</time>
      </trkpt>
      <trkpt lat="42.64323" lon="1.89978">
        <ele>2208.4</ele>
        <time>2020-02-14T05:44:46.975Z</time>
      </trkpt>
      <trkpt lat="42.64326" lon="1.89981">
        <ele>2207.4</ele>
        <time>2020-02-14T05:44:48.517Z</time>
      </trkpt>
      <trkpt lat="42.64326" lon="1.89985">
        <ele>2207.9</ele>
        <time>2020-02-14T05:44:49.697Z</time>
      </trkpt>
      <trkpt lat="42.64333" lon="1.89998">
        <ele>2207.3</ele>
        <time>2020-02-14T05:44:54.461Z</time>
      </trkpt>
      <trkpt lat="42.64336" lon="1.90003">
        <ele>2207.3</ele>
        <time>2020-02-14T05:44:56.245Z</time>
      </trkpt>
      <trkpt lat="42.64339" lon="1.90007">
        <ele>2207.3</ele>
        <time>2020-02-14T05:44:57.678Z</time>
      </trkpt>
      <trkpt lat="42.64344" lon="1.90029">
        <ele>2207.9</ele>
        <time>2020-02-14T05:45:04.147Z</time>
      </trkpt>
      <trkpt lat="42.64347" lon="1.90032">
        <ele>2207.9</ele>
        <time>2020-02-14T05:45:05.614Z</time>
      </trkpt>
      <trkpt lat="42.64355" lon="1.90046">
        <ele>2206.9</ele>
        <time>2020-02-14T05:45:10.765Z</time>
      </trkpt>
      <trkpt lat="42.6436" lon="1.90056">
        <ele>2206.8</ele>
        <time>2020-02-14T05:45:14.090Z</time>
      </trkpt>
      <trkpt lat="42.6437" lon="1.90074">
        <ele>2205.4</ele>
        <time>2020-02-14T05:45:20.428Z</time>
      </trkpt>
      <trkpt lat="42.64376" lon="1.90082">
        <ele>2205</ele>
        <time>2020-02-14T05:45:23.744Z</time>
      </trkpt>
      <trkpt lat="42.64385" lon="1.90088">
        <ele>2204.4</ele>
        <time>2020-02-14T05:45:27.547Z</time>
      </trkpt>
      <trkpt lat="42.64384" lon="1.90095">
        <ele>2203.6</ele>
        <time>2020-02-14T05:45:29.573Z</time>
      </trkpt>
      <trkpt lat="42.64388" lon="1.90102">
        <ele>2204</ele>
        <time>2020-02-14T05:45:31.845Z</time>
      </trkpt>
      <trkpt lat="42.64389" lon="1.90107">
        <ele>2204.4</ele>
        <time>2020-02-14T05:45:33.515Z</time>
      </trkpt>
      <trkpt lat="42.64395" lon="1.90122">
        <ele>2205.9</ele>
        <time>2020-02-14T05:45:38.418Z</time>
      </trkpt>
      <trkpt lat="42.64397" lon="1.90124">
        <ele>2206.9</ele>
        <time>2020-02-14T05:45:39.336Z</time>
      </trkpt>
      <trkpt lat="42.644" lon="1.90134">
        <ele>2206.5</ele>
        <time>2020-02-14T05:45:42.500Z</time>
      </trkpt>
      <trkpt lat="42.64404" lon="1.90141">
        <ele>2204.5</ele>
        <time>2020-02-14T05:45:45.138Z</time>
      </trkpt>
      <trkpt lat="42.64413" lon="1.90149">
        <ele>2204.4</ele>
        <time>2020-02-14T05:45:49.168Z</time>
      </trkpt>
      <trkpt lat="42.64419" lon="1.90153">
        <ele>2205</ele>
        <time>2020-02-14T05:45:51.871Z</time>
      </trkpt>
      <trkpt lat="42.64425" lon="1.90158">
        <ele>2204.5</ele>
        <time>2020-02-14T05:45:54.480Z</time>
      </trkpt>
      <trkpt lat="42.64431" lon="1.90166">
        <ele>2202.6</ele>
        <time>2020-02-14T05:45:57.933Z</time>
      </trkpt>
      <trkpt lat="42.64441" lon="1.90177">
        <ele>2202</ele>
        <time>2020-02-14T05:46:02.870Z</time>
      </trkpt>
      <trkpt lat="42.64443" lon="1.90178">
        <ele>2202</ele>
        <time>2020-02-14T05:46:03.532Z</time>
      </trkpt>
      <trkpt lat="42.64443" lon="1.90181">
        <ele>2200.6</ele>
        <time>2020-02-14T05:46:04.501Z</time>
      </trkpt>
      <trkpt lat="42.64448" lon="1.90184">
        <ele>2199.6</ele>
        <time>2020-02-14T05:46:06.499Z</time>
      </trkpt>
      <trkpt lat="42.64457" lon="1.90193">
        <ele>2199.6</ele>
        <time>2020-02-14T05:46:10.873Z</time>
      </trkpt>
      <trkpt lat="42.64465" lon="1.90212">
        <ele>2197.7</ele>
        <time>2020-02-14T05:46:17.064Z</time>
      </trkpt>
      <trkpt lat="42.64466" lon="1.90215">
        <ele>2198.3</ele>
        <time>2020-02-14T05:46:17.981Z</time>
      </trkpt>
      <trkpt lat="42.6448" lon="1.90228">
        <ele>2197.7</ele>
        <time>2020-02-14T05:46:24.673Z</time>
      </trkpt>
      <trkpt lat="42.64489" lon="1.90231">
        <ele>2195.9</ele>
        <time>2020-02-14T05:46:28.315Z</time>
      </trkpt>
      <trkpt lat="42.64497" lon="1.90238">
        <ele>2195.9</ele>
        <time>2020-02-14T05:46:31.987Z</time>
      </trkpt>
      <trkpt lat="42.64503" lon="1.90249">
        <ele>2194.5</ele>
        <time>2020-02-14T05:46:35.790Z</time>
      </trkpt>
      <trkpt lat="42.64503" lon="1.90251">
        <ele>2194.4</ele>
        <time>2020-02-14T05:46:36.461Z</time>
      </trkpt>
      <trkpt lat="42.64506" lon="1.90258">
        <ele>2194.5</ele>
        <time>2020-02-14T05:46:38.759Z</time>
      </trkpt>
      <trkpt lat="42.64512" lon="1.90264">
        <ele>2194.4</ele>
        <time>2020-02-14T05:46:41.917Z</time>
      </trkpt>
      <trkpt lat="42.64512" lon="1.90268">
        <ele>2193.9</ele>
        <time>2020-02-14T05:46:42.873Z</time>
      </trkpt>
      <trkpt lat="42.64513" lon="1.90271">
        <ele>2194</ele>
        <time>2020-02-14T05:46:44.090Z</time>
      </trkpt>
      <trkpt lat="42.64519" lon="1.90277">
        <ele>2192.5</ele>
        <time>2020-02-14T05:46:46.759Z</time>
      </trkpt>
      <trkpt lat="42.64526" lon="1.90279">
        <ele>2191.1</ele>
        <time>2020-02-14T05:46:49.622Z</time>
      </trkpt>
      <trkpt lat="42.64531" lon="1.90279">
        <ele>2189.6</ele>
        <time>2020-02-14T05:46:51.476Z</time>
      </trkpt>
      <trkpt lat="42.64537" lon="1.90293">
        <ele>2186.7</ele>
        <time>2020-02-14T05:46:56.151Z</time>
      </trkpt>
      <trkpt lat="42.64542" lon="1.90298">
        <ele>2184.7</ele>
        <time>2020-02-14T05:46:58.706Z</time>
      </trkpt>
      <trkpt lat="42.64547" lon="1.90304">
        <ele>2183.8</ele>
        <time>2020-02-14T05:47:01.351Z</time>
      </trkpt>
      <trkpt lat="42.64553" lon="1.90308">
        <ele>2181.5</ele>
        <time>2020-02-14T05:47:04.003Z</time>
      </trkpt>
      <trkpt lat="42.64561" lon="1.9031">
        <ele>2181.5</ele>
        <time>2020-02-14T05:47:06.919Z</time>
      </trkpt>
      <trkpt lat="42.64563" lon="1.90312">
        <ele>2180.9</ele>
        <time>2020-02-14T05:47:07.833Z</time>
      </trkpt>
      <trkpt lat="42.64569" lon="1.90315">
        <ele>2180.9</ele>
        <time>2020-02-14T05:47:10.329Z</time>
      </trkpt>
      <trkpt lat="42.64571" lon="1.90324">
        <ele>2179</ele>
        <time>2020-02-14T05:47:13.166Z</time>
      </trkpt>
      <trkpt lat="42.64572" lon="1.90326">
        <ele>2177.6</ele>
        <time>2020-02-14T05:47:14.059Z</time>
      </trkpt>
      <trkpt lat="42.64576" lon="1.90331">
        <ele>2176.6</ele>
        <time>2020-02-14T05:47:16.229Z</time>
      </trkpt>
      <trkpt lat="42.64573" lon="1.90331">
        <ele>2174.6</ele>
        <time>2020-02-14T05:47:17.513Z</time>
      </trkpt>
      <trkpt lat="42.64574" lon="1.90342">
        <ele>2171.3</ele>
        <time>2020-02-14T05:47:20.771Z</time>
      </trkpt>
      <trkpt lat="42.64572" lon="1.90345">
        <ele>2169.9</ele>
        <time>2020-02-14T05:47:21.959Z</time>
      </trkpt>
      <trkpt lat="42.64573" lon="1.90353">
        <ele>2168</ele>
        <time>2020-02-14T05:47:24.446Z</time>
      </trkpt>
      <trkpt lat="42.64576" lon="1.90363">
        <ele>2165</ele>
        <time>2020-02-14T05:47:27.823Z</time>
      </trkpt>
      <trkpt lat="42.6458" lon="1.90373">
        <ele>2162.6</ele>
        <time>2020-02-14T05:47:30.968Z</time>
      </trkpt>
      <trkpt lat="42.64592" lon="1.90387">
        <ele>2160.7</ele>
        <time>2020-02-14T05:47:37.079Z</time>
      </trkpt>
      <trkpt lat="42.64598" lon="1.90389">
        <ele>2159.3</ele>
        <time>2020-02-14T05:47:39.727Z</time>
      </trkpt>
      <trkpt lat="42.64602" lon="1.90395">
        <ele>2157.9</ele>
        <time>2020-02-14T05:47:41.738Z</time>
      </trkpt>
      <trkpt lat="42.64604" lon="1.90401">
        <ele>2157</ele>
        <time>2020-02-14T05:47:43.907Z</time>
      </trkpt>
      <trkpt lat="42.64619" lon="1.90401">
        <ele>2153</ele>
        <time>2020-02-14T05:47:49.781Z</time>
      </trkpt>
      <trkpt lat="42.6462" lon="1.90401">
        <ele>2152.5</ele>
        <time>2020-02-14T05:47:50.276Z</time>
      </trkpt>
      <trkpt lat="42.64627" lon="1.90406">
        <ele>2150.7</ele>
        <time>2020-02-14T05:47:53.437Z</time>
      </trkpt>
      <trkpt lat="42.64631" lon="1.90417">
        <ele>2147.8</ele>
        <time>2020-02-14T05:47:57.202Z</time>
      </trkpt>
      <trkpt lat="42.64631" lon="1.90419">
        <ele>2140.6</ele>
        <time>2020-02-14T05:47:59.750Z</time>
      </trkpt>
      <trkpt lat="42.64631" lon="1.90419">
        <ele>2148.7</ele>
        <time>2020-02-14T05:48:02.586Z</time>
      </trkpt>
      <trkpt lat="42.64635" lon="1.90427">
        <ele>2145.8</ele>
        <time>2020-02-14T05:48:05.628Z</time>
      </trkpt>
      <trkpt lat="42.64636" lon="1.90433">
        <ele>2142.9</ele>
        <time>2020-02-14T05:48:07.635Z</time>
      </trkpt>
      <trkpt lat="42.64637" lon="1.90441">
        <ele>2140</ele>
        <time>2020-02-14T05:48:09.978Z</time>
      </trkpt>
      <trkpt lat="42.64637" lon="1.90442">
        <ele>2139.6</ele>
        <time>2020-02-14T05:48:10.549Z</time>
      </trkpt>
      <trkpt lat="42.64641" lon="1.90457">
        <ele>2136.3</ele>
        <time>2020-02-14T05:48:15.023Z</time>
      </trkpt>
      <trkpt lat="42.64643" lon="1.90462">
        <ele>2135.3</ele>
        <time>2020-02-14T05:48:16.851Z</time>
      </trkpt>
      <trkpt lat="42.64647" lon="1.90472">
        <ele>2133.8</ele>
        <time>2020-02-14T05:48:19.983Z</time>
      </trkpt>
      <trkpt lat="42.64649" lon="1.90481">
        <ele>2132.8</ele>
        <time>2020-02-14T05:48:22.829Z</time>
      </trkpt>
      <trkpt lat="42.64654" lon="1.90495">
        <ele>2132.4</ele>
        <time>2020-02-14T05:48:27.177Z</time>
      </trkpt>
      <trkpt lat="42.64659" lon="1.90507">
        <ele>2131.4</ele>
        <time>2020-02-14T05:48:31.045Z</time>
      </trkpt>
      <trkpt lat="42.6466" lon="1.9051">
        <ele>2130.9</ele>
        <time>2020-02-14T05:48:32.128Z</time>
      </trkpt>
      <trkpt lat="42.64664" lon="1.90524">
        <ele>2131.9</ele>
        <time>2020-02-14T05:48:36.341Z</time>
      </trkpt>
      <trkpt lat="42.64669" lon="1.90537">
        <ele>2133.8</ele>
        <time>2020-02-14T05:48:40.349Z</time>
      </trkpt>
      <trkpt lat="42.64669" lon="1.90539">
        <ele>2133.8</ele>
        <time>2020-02-14T05:48:41.030Z</time>
      </trkpt>
      <trkpt lat="42.64668" lon="1.90542">
        <ele>2134.8</ele>
        <time>2020-02-14T05:48:42.054Z</time>
      </trkpt>
      <trkpt lat="42.64669" lon="1.90546">
        <ele>2134.7</ele>
        <time>2020-02-14T05:48:43.033Z</time>
      </trkpt>
      <trkpt lat="42.64674" lon="1.90557">
        <ele>2135.8</ele>
        <time>2020-02-14T05:48:46.900Z</time>
      </trkpt>
      <trkpt lat="42.64677" lon="1.90558">
        <ele>2135.2</ele>
        <time>2020-02-14T05:48:47.967Z</time>
      </trkpt>
      <trkpt lat="42.64679" lon="1.90564">
        <ele>2135.7</ele>
        <time>2020-02-14T05:48:49.889Z</time>
      </trkpt>
      <trkpt lat="42.64688" lon="1.90569">
        <ele>2133.8</ele>
        <time>2020-02-14T05:48:53.642Z</time>
      </trkpt>
      <trkpt lat="42.6469" lon="1.90571">
        <ele>2132.8</ele>
        <time>2020-02-14T05:48:54.606Z</time>
      </trkpt>
      <trkpt lat="42.64693" lon="1.90578">
        <ele>2131</ele>
        <time>2020-02-14T05:48:56.985Z</time>
      </trkpt>
      <trkpt lat="42.64699" lon="1.90585">
        <ele>2129.1</ele>
        <time>2020-02-14T05:48:59.882Z</time>
      </trkpt>
      <trkpt lat="42.64699" lon="1.90586">
        <ele>2128</ele>
        <time>2020-02-14T05:49:00.373Z</time>
      </trkpt>
      <trkpt lat="42.64701" lon="1.90586">
        <ele>2127.5</ele>
        <time>2020-02-14T05:49:01.114Z</time>
      </trkpt>
      <trkpt lat="42.64705" lon="1.90585">
        <ele>2126.6</ele>
        <time>2020-02-14T05:49:02.779Z</time>
      </trkpt>
      <trkpt lat="42.6471" lon="1.90587">
        <ele>2123.8</ele>
        <time>2020-02-14T05:49:05.174Z</time>
      </trkpt>
      <trkpt lat="42.64714" lon="1.9059">
        <ele>2120.3</ele>
        <time>2020-02-14T05:49:07.204Z</time>
      </trkpt>
      <trkpt lat="42.64714" lon="1.9059">
        <ele>2120.3</ele>
        <time>2020-02-14T05:49:07.382Z</time>
      </trkpt>
      <trkpt lat="42.64716" lon="1.90589">
        <ele>2118.4</ele>
        <time>2020-02-14T05:49:08.434Z</time>
      </trkpt>
      <trkpt lat="42.64721" lon="1.90587">
        <ele>2117.5</ele>
        <time>2020-02-14T05:49:10.510Z</time>
      </trkpt>
      <trkpt lat="42.64722" lon="1.90583">
        <ele>2116.6</ele>
        <time>2020-02-14T05:49:11.551Z</time>
      </trkpt>
      <trkpt lat="42.64723" lon="1.90579">
        <ele>2116.5</ele>
        <time>2020-02-14T05:49:12.674Z</time>
      </trkpt>
      <trkpt lat="42.64729" lon="1.90573">
        <ele>2114.6</ele>
        <time>2020-02-14T05:49:15.896Z</time>
      </trkpt>
      <trkpt lat="42.6473" lon="1.90568">
        <ele>2113.6</ele>
        <time>2020-02-14T05:49:17.178Z</time>
      </trkpt>
      <trkpt lat="42.64737" lon="1.90566">
        <ele>2112.2</ele>
        <time>2020-02-14T05:49:20.048Z</time>
      </trkpt>
      <trkpt lat="42.6474" lon="1.90564">
        <ele>2110.3</ele>
        <time>2020-02-14T05:49:21.484Z</time>
      </trkpt>
      <trkpt lat="42.64742" lon="1.90559">
        <ele>2109.3</ele>
        <time>2020-02-14T05:49:23.214Z</time>
      </trkpt>
      <trkpt lat="42.64744" lon="1.90556">
        <ele>2108.9</ele>
        <time>2020-02-14T05:49:24.207Z</time>
      </trkpt>
      <trkpt lat="42.64744" lon="1.90551">
        <ele>2108.4</ele>
        <time>2020-02-14T05:49:25.642Z</time>
      </trkpt>
      <trkpt lat="42.64752" lon="1.90542">
        <ele>2105</ele>
        <time>2020-02-14T05:49:29.924Z</time>
      </trkpt>
      <trkpt lat="42.64758" lon="1.90537">
        <ele>2103.1</ele>
        <time>2020-02-14T05:49:32.810Z</time>
      </trkpt>
      <trkpt lat="42.64762" lon="1.90537">
        <ele>2102.5</ele>
        <time>2020-02-14T05:49:34.175Z</time>
      </trkpt>
      <trkpt lat="42.64766" lon="1.9054">
        <ele>2099.3</ele>
        <time>2020-02-14T05:49:36.381Z</time>
      </trkpt>
      <trkpt lat="42.64772" lon="1.90541">
        <ele>2096.4</ele>
        <time>2020-02-14T05:49:38.846Z</time>
      </trkpt>
      <trkpt lat="42.64776" lon="1.90543">
        <ele>2093.4</ele>
        <time>2020-02-14T05:49:40.794Z</time>
      </trkpt>
      <trkpt lat="42.64779" lon="1.90549">
        <ele>2090</ele>
        <time>2020-02-14T05:49:43.220Z</time>
      </trkpt>
      <trkpt lat="42.64781" lon="1.90549">
        <ele>2088.1</ele>
        <time>2020-02-14T05:49:44.174Z</time>
      </trkpt>
      <trkpt lat="42.6479" lon="1.9054">
        <ele>2085.3</ele>
        <time>2020-02-14T05:49:48.534Z</time>
      </trkpt>
      <trkpt lat="42.64796" lon="1.90543">
        <ele>2083.9</ele>
        <time>2020-02-14T05:49:50.814Z</time>
      </trkpt>
      <trkpt lat="42.64799" lon="1.90541">
        <ele>2081.9</ele>
        <time>2020-02-14T05:49:52.383Z</time>
      </trkpt>
      <trkpt lat="42.64804" lon="1.90542">
        <ele>2079.6</ele>
        <time>2020-02-14T05:49:54.523Z</time>
      </trkpt>
      <trkpt lat="42.64809" lon="1.90542">
        <ele>2077.2</ele>
        <time>2020-02-14T05:49:56.490Z</time>
      </trkpt>
      <trkpt lat="42.64817" lon="1.90543">
        <ele>2077.6</ele>
        <time>2020-02-14T05:49:59.712Z</time>
      </trkpt>
      <trkpt lat="42.64826" lon="1.90551">
        <ele>2075.6</ele>
        <time>2020-02-14T05:50:03.794Z</time>
      </trkpt>
      <trkpt lat="42.64833" lon="1.90565">
        <ele>2072.3</ele>
        <time>2020-02-14T05:50:08.736Z</time>
      </trkpt>
      <trkpt lat="42.64841" lon="1.90567">
        <ele>2073.2</ele>
        <time>2020-02-14T05:50:12.009Z</time>
      </trkpt>
      <trkpt lat="42.64844" lon="1.90571">
        <ele>2072.3</ele>
        <time>2020-02-14T05:50:13.636Z</time>
      </trkpt>
      <trkpt lat="42.64849" lon="1.90571">
        <ele>2070.9</ele>
        <time>2020-02-14T05:50:15.602Z</time>
      </trkpt>
      <trkpt lat="42.64853" lon="1.9058">
        <ele>2069.4</ele>
        <time>2020-02-14T05:50:18.504Z</time>
      </trkpt>
      <trkpt lat="42.64854" lon="1.90579">
        <ele>2066.6</ele>
        <time>2020-02-14T05:50:19.582Z</time>
      </trkpt>
      <trkpt lat="42.64857" lon="1.90578">
        <ele>2063.2</ele>
        <time>2020-02-14T05:50:21.128Z</time>
      </trkpt>
      <trkpt lat="42.64858" lon="1.9058">
        <ele>2059.8</ele>
        <time>2020-02-14T05:50:22.542Z</time>
      </trkpt>
      <trkpt lat="42.64864" lon="1.90594">
        <ele>2057</ele>
        <time>2020-02-14T05:50:27.223Z</time>
      </trkpt>
      <trkpt lat="42.64868" lon="1.90599">
        <ele>2054.6</ele>
        <time>2020-02-14T05:50:29.404Z</time>
      </trkpt>
      <trkpt lat="42.64871" lon="1.90603">
        <ele>2052.6</ele>
        <time>2020-02-14T05:50:31.137Z</time>
      </trkpt>
      <trkpt lat="42.64875" lon="1.90607">
        <ele>2049.2</ele>
        <time>2020-02-14T05:50:33.446Z</time>
      </trkpt>
      <trkpt lat="42.64879" lon="1.90613">
        <ele>2047.8</ele>
        <time>2020-02-14T05:50:35.869Z</time>
      </trkpt>
      <trkpt lat="42.64881" lon="1.9061">
        <ele>2045.8</ele>
        <time>2020-02-14T05:50:37.053Z</time>
      </trkpt>
      <trkpt lat="42.64886" lon="1.90609">
        <ele>2045</ele>
        <time>2020-02-14T05:50:39.187Z</time>
      </trkpt>
      <trkpt lat="42.64889" lon="1.90608">
        <ele>2043.9</ele>
        <time>2020-02-14T05:50:40.387Z</time>
      </trkpt>
      <trkpt lat="42.64892" lon="1.90609">
        <ele>2043.4</ele>
        <time>2020-02-14T05:50:41.715Z</time>
      </trkpt>
      <trkpt lat="42.64902" lon="1.9061">
        <ele>2041.6</ele>
        <time>2020-02-14T05:50:45.501Z</time>
      </trkpt>
      <trkpt lat="42.64909" lon="1.90621">
        <ele>2040.5</ele>
        <time>2020-02-14T05:50:49.426Z</time>
      </trkpt>
      <trkpt lat="42.64912" lon="1.90615">
        <ele>2039.7</ele>
        <time>2020-02-14T05:50:51.492Z</time>
      </trkpt>
      <trkpt lat="42.64918" lon="1.90616">
        <ele>2038.1</ele>
        <time>2020-02-14T05:50:53.780Z</time>
      </trkpt>
      <trkpt lat="42.64924" lon="1.90618">
        <ele>2036.2</ele>
        <time>2020-02-14T05:50:56.274Z</time>
      </trkpt>
      <trkpt lat="42.64926" lon="1.90616">
        <ele>2033.9</ele>
        <time>2020-02-14T05:50:57.596Z</time>
      </trkpt>
      <trkpt lat="42.64926" lon="1.90615">
        <ele>2030.9</ele>
        <time>2020-02-14T05:50:58.647Z</time>
      </trkpt>
      <trkpt lat="42.64933" lon="1.90612">
        <ele>2030</ele>
        <time>2020-02-14T05:51:01.285Z</time>
      </trkpt>
      <trkpt lat="42.64939" lon="1.90607">
        <ele>2028.1</ele>
        <time>2020-02-14T05:51:04.144Z</time>
      </trkpt>
      <trkpt lat="42.64939" lon="1.90614">
        <ele>2026.1</ele>
        <time>2020-02-14T05:51:06.197Z</time>
      </trkpt>
      <trkpt lat="42.64936" lon="1.90622">
        <ele>2024.2</ele>
        <time>2020-02-14T05:51:08.880Z</time>
      </trkpt>
      <trkpt lat="42.64934" lon="1.90624">
        <ele>2020.8</ele>
        <time>2020-02-14T05:51:10.457Z</time>
      </trkpt>
      <trkpt lat="42.64934" lon="1.90624">
        <ele>2020.4</ele>
        <time>2020-02-14T05:51:10.593Z</time>
      </trkpt>
      <trkpt lat="42.64934" lon="1.90624">
        <ele>2019.4</ele>
        <time>2020-02-14T05:51:10.935Z</time>
      </trkpt>
      <trkpt lat="42.64935" lon="1.90639">
        <ele>2016.6</ele>
        <time>2020-02-14T05:51:15.176Z</time>
      </trkpt>
      <trkpt lat="42.64935" lon="1.90642">
        <ele>2015.1</ele>
        <time>2020-02-14T05:51:16.163Z</time>
      </trkpt>
      <trkpt lat="42.64938" lon="1.90647">
        <ele>2011.7</ele>
        <time>2020-02-14T05:51:18.500Z</time>
      </trkpt>
      <trkpt lat="42.64944" lon="1.90646">
        <ele>2008.8</ele>
        <time>2020-02-14T05:51:20.892Z</time>
      </trkpt>
      <trkpt lat="42.64949" lon="1.90649">
        <ele>2006.9</ele>
        <time>2020-02-14T05:51:23.215Z</time>
      </trkpt>
      <trkpt lat="42.6495" lon="1.90649">
        <ele>2007.9</ele>
        <time>2020-02-14T05:51:23.710Z</time>
      </trkpt>
      <trkpt lat="42.64954" lon="1.90646">
        <ele>2006</ele>
        <time>2020-02-14T05:51:25.551Z</time>
      </trkpt>
      <trkpt lat="42.64958" lon="1.90645">
        <ele>2004.5</ele>
        <time>2020-02-14T05:51:27.447Z</time>
      </trkpt>
      <trkpt lat="42.64963" lon="1.90643">
        <ele>2002.1</ele>
        <time>2020-02-14T05:51:29.538Z</time>
      </trkpt>
      <trkpt lat="42.64964" lon="1.90644">
        <ele>2002.1</ele>
        <time>2020-02-14T05:51:29.786Z</time>
      </trkpt>
      <trkpt lat="42.64974" lon="1.90644">
        <ele>1999.3</ele>
        <time>2020-02-14T05:51:33.730Z</time>
      </trkpt>
      <trkpt lat="42.6498" lon="1.90644">
        <ele>1997.3</ele>
        <time>2020-02-14T05:51:36.112Z</time>
      </trkpt>
      <trkpt lat="42.64986" lon="1.90641">
        <ele>1994</ele>
        <time>2020-02-14T05:51:38.971Z</time>
      </trkpt>
      <trkpt lat="42.64992" lon="1.90636">
        <ele>1992</ele>
        <time>2020-02-14T05:51:41.616Z</time>
      </trkpt>
      <trkpt lat="42.64999" lon="1.90628">
        <ele>1988.6</ele>
        <time>2020-02-14T05:51:45.554Z</time>
      </trkpt>
      <trkpt lat="42.65004" lon="1.90621">
        <ele>1986.7</ele>
        <time>2020-02-14T05:51:48.207Z</time>
      </trkpt>
      <trkpt lat="42.65009" lon="1.90619">
        <ele>1986.2</ele>
        <time>2020-02-14T05:51:50.427Z</time>
      </trkpt>
      <trkpt lat="42.65013" lon="1.90621">
        <ele>1986.8</ele>
        <time>2020-02-14T05:51:52.235Z</time>
      </trkpt>
      <trkpt lat="42.65017" lon="1.90632">
        <ele>1985.4</ele>
        <time>2020-02-14T05:51:55.601Z</time>
      </trkpt>
      <trkpt lat="42.65019" lon="1.90641">
        <ele>1983.8</ele>
        <time>2020-02-14T05:51:58.431Z</time>
      </trkpt>
      <trkpt lat="42.65018" lon="1.90646">
        <ele>1981.9</ele>
        <time>2020-02-14T05:51:59.801Z</time>
      </trkpt>
      <trkpt lat="42.65025" lon="1.90659">
        <ele>1980.1</ele>
        <time>2020-02-14T05:52:04.510Z</time>
      </trkpt>
      <trkpt lat="42.6503" lon="1.90668">
        <ele>1978.1</ele>
        <time>2020-02-14T05:52:07.829Z</time>
      </trkpt>
      <trkpt lat="42.65033" lon="1.90677">
        <ele>1976.7</ele>
        <time>2020-02-14T05:52:10.545Z</time>
      </trkpt>
      <trkpt lat="42.65032" lon="1.9068">
        <ele>1974.8</ele>
        <time>2020-02-14T05:52:11.621Z</time>
      </trkpt>
      <trkpt lat="42.65034" lon="1.90689">
        <ele>1973.2</ele>
        <time>2020-02-14T05:52:14.477Z</time>
      </trkpt>
      <trkpt lat="42.65036" lon="1.90695">
        <ele>1971.8</ele>
        <time>2020-02-14T05:52:16.345Z</time>
      </trkpt>
      <trkpt lat="42.65044" lon="1.90709">
        <ele>1968.1</ele>
        <time>2020-02-14T05:52:21.615Z</time>
      </trkpt>
      <trkpt lat="42.65046" lon="1.90711">
        <ele>1967.6</ele>
        <time>2020-02-14T05:52:22.524Z</time>
      </trkpt>
      <trkpt lat="42.65043" lon="1.90728">
        <ele>1964.2</ele>
        <time>2020-02-14T05:52:27.580Z</time>
      </trkpt>
      <trkpt lat="42.65043" lon="1.90737">
        <ele>1963.2</ele>
        <time>2020-02-14T05:52:30.227Z</time>
      </trkpt>
      <trkpt lat="42.65047" lon="1.90743">
        <ele>1960.8</ele>
        <time>2020-02-14T05:52:32.538Z</time>
      </trkpt>
      <trkpt lat="42.65053" lon="1.90746">
        <ele>1958.9</ele>
        <time>2020-02-14T05:52:35.185Z</time>
      </trkpt>
      <trkpt lat="42.65055" lon="1.90749">
        <ele>1958</ele>
        <time>2020-02-14T05:52:36.391Z</time>
      </trkpt>
      <trkpt lat="42.65058" lon="1.90758">
        <ele>1956.4</ele>
        <time>2020-02-14T05:52:39.180Z</time>
      </trkpt>
      <trkpt lat="42.65067" lon="1.90771">
        <ele>1955.1</ele>
        <time>2020-02-14T05:52:44.453Z</time>
      </trkpt>
      <trkpt lat="42.6507" lon="1.90778">
        <ele>1951.1</ele>
        <time>2020-02-14T05:52:47.034Z</time>
      </trkpt>
      <trkpt lat="42.65073" lon="1.90785">
        <ele>1948.7</ele>
        <time>2020-02-14T05:52:49.354Z</time>
      </trkpt>
      <trkpt lat="42.65074" lon="1.90786">
        <ele>1948.4</ele>
        <time>2020-02-14T05:52:49.868Z</time>
      </trkpt>
      <trkpt lat="42.65081" lon="1.90795">
        <ele>1946</ele>
        <time>2020-02-14T05:52:53.891Z</time>
      </trkpt>
      <trkpt lat="42.65082" lon="1.90796">
        <ele>1945</ele>
        <time>2020-02-14T05:52:54.445Z</time>
      </trkpt>
      <trkpt lat="42.65085" lon="1.90801">
        <ele>1943.9</ele>
        <time>2020-02-14T05:52:56.227Z</time>
      </trkpt>
      <trkpt lat="42.65083" lon="1.90804">
        <ele>1942</ele>
        <time>2020-02-14T05:52:57.338Z</time>
      </trkpt>
      <trkpt lat="42.65084" lon="1.90808">
        <ele>1941.1</ele>
        <time>2020-02-14T05:52:58.555Z</time>
      </trkpt>
      <trkpt lat="42.65088" lon="1.90819">
        <ele>1940.7</ele>
        <time>2020-02-14T05:53:02.042Z</time>
      </trkpt>
      <trkpt lat="42.65088" lon="1.90821">
        <ele>1939.1</ele>
        <time>2020-02-14T05:53:02.933Z</time>
      </trkpt>
      <trkpt lat="42.65088" lon="1.90832">
        <ele>1936.2</ele>
        <time>2020-02-14T05:53:06.249Z</time>
      </trkpt>
      <trkpt lat="42.65088" lon="1.90834">
        <ele>1936.2</ele>
        <time>2020-02-14T05:53:06.793Z</time>
      </trkpt>
      <trkpt lat="42.6509" lon="1.9084">
        <ele>1932.4</ele>
        <time>2020-02-14T05:53:08.991Z</time>
      </trkpt>
      <trkpt lat="42.65089" lon="1.90841">
        <ele>1932</ele>
        <time>2020-02-14T05:53:09.418Z</time>
      </trkpt>
      <trkpt lat="42.6509" lon="1.9085">
        <ele>1929</ele>
        <time>2020-02-14T05:53:12.151Z</time>
      </trkpt>
      <trkpt lat="42.65088" lon="1.90865">
        <ele>1925.2</ele>
        <time>2020-02-14T05:53:16.620Z</time>
      </trkpt>
      <trkpt lat="42.65093" lon="1.90876">
        <ele>1921.3</ele>
        <time>2020-02-14T05:53:20.465Z</time>
      </trkpt>
      <trkpt lat="42.65094" lon="1.90877">
        <ele>1921.3</ele>
        <time>2020-02-14T05:53:20.864Z</time>
      </trkpt>
      <trkpt lat="42.65095" lon="1.90877">
        <ele>1921</ele>
        <time>2020-02-14T05:53:21.238Z</time>
      </trkpt>
      <trkpt lat="42.65097" lon="1.90879">
        <ele>1919.9</ele>
        <time>2020-02-14T05:53:22.477Z</time>
      </trkpt>
      <trkpt lat="42.651" lon="1.90881">
        <ele>1919</ele>
        <time>2020-02-14T05:53:23.562Z</time>
      </trkpt>
      <trkpt lat="42.65107" lon="1.90885">
        <ele>1915.6</ele>
        <time>2020-02-14T05:53:27.037Z</time>
      </trkpt>
      <trkpt lat="42.65115" lon="1.90888">
        <ele>1913.6</ele>
        <time>2020-02-14T05:53:30.170Z</time>
      </trkpt>
      <trkpt lat="42.65119" lon="1.90892">
        <ele>1912.2</ele>
        <time>2020-02-14T05:53:32.107Z</time>
      </trkpt>
      <trkpt lat="42.65122" lon="1.90897">
        <ele>1910.3</ele>
        <time>2020-02-14T05:53:34.064Z</time>
      </trkpt>
      <trkpt lat="42.65122" lon="1.90897">
        <ele>1909.8</ele>
        <time>2020-02-14T05:53:34.235Z</time>
      </trkpt>
      <trkpt lat="42.65123" lon="1.90907">
        <ele>1907.5</ele>
        <time>2020-02-14T05:53:37.027Z</time>
      </trkpt>
      <trkpt lat="42.65123" lon="1.90915">
        <ele>1904.6</ele>
        <time>2020-02-14T05:53:39.670Z</time>
      </trkpt>
      <trkpt lat="42.65126" lon="1.90921">
        <ele>1904</ele>
        <time>2020-02-14T05:53:41.594Z</time>
      </trkpt>
      <trkpt lat="42.65129" lon="1.90934">
        <ele>1901.6</ele>
        <time>2020-02-14T05:53:45.654Z</time>
      </trkpt>
      <trkpt lat="42.65133" lon="1.90942">
        <ele>1899.2</ele>
        <time>2020-02-14T05:53:48.278Z</time>
      </trkpt>
      <trkpt lat="42.65136" lon="1.9095">
        <ele>1896</ele>
        <time>2020-02-14T05:53:51.231Z</time>
      </trkpt>
      <trkpt lat="42.65137" lon="1.90952">
        <ele>1895.4</ele>
        <time>2020-02-14T05:53:51.982Z</time>
      </trkpt>
      <trkpt lat="42.65139" lon="1.9096">
        <ele>1893.5</ele>
        <time>2020-02-14T05:53:54.232Z</time>
      </trkpt>
      <trkpt lat="42.65138" lon="1.90961">
        <ele>1888.7</ele>
        <time>2020-02-14T05:53:55.959Z</time>
      </trkpt>
      <trkpt lat="42.65138" lon="1.90961">
        <ele>1893</ele>
        <time>2020-02-14T05:53:57.459Z</time>
      </trkpt>
      <trkpt lat="42.65138" lon="1.90961">
        <ele>1886.3</ele>
        <time>2020-02-14T05:53:59.811Z</time>
      </trkpt>
      <trkpt lat="42.65138" lon="1.90961">
        <ele>1895.4</ele>
        <time>2020-02-14T05:54:02.999Z</time>
      </trkpt>
      <trkpt lat="42.65138" lon="1.90961">
        <ele>1890.1</ele>
        <time>2020-02-14T05:54:04.846Z</time>
      </trkpt>
      <trkpt lat="42.65138" lon="1.90961">
        <ele>1893.1</ele>
        <time>2020-02-14T05:54:05.870Z</time>
      </trkpt>
      <trkpt lat="42.65138" lon="1.90962">
        <ele>1892.5</ele>
        <time>2020-02-14T05:54:06.215Z</time>
      </trkpt>
      <trkpt lat="42.65138" lon="1.90962">
        <ele>1887.7</ele>
        <time>2020-02-14T05:54:07.875Z</time>
      </trkpt>
      <trkpt lat="42.65138" lon="1.90962">
        <ele>1893</ele>
        <time>2020-02-14T05:54:09.710Z</time>
      </trkpt>
      <trkpt lat="42.65138" lon="1.90962">
        <ele>1891.1</ele>
        <time>2020-02-14T05:54:10.373Z</time>
      </trkpt>
      <trkpt lat="42.65138" lon="1.90962">
        <ele>1895.9</ele>
        <time>2020-02-14T05:54:12.042Z</time>
      </trkpt>
      <trkpt lat="42.65138" lon="1.90962">
        <ele>1893.5</ele>
        <time>2020-02-14T05:54:12.879Z</time>
      </trkpt>
      <trkpt lat="42.65137" lon="1.90963">
        <ele>1892.1</ele>
        <time>2020-02-14T05:54:13.758Z</time>
      </trkpt>
      <trkpt lat="42.65125" lon="1.90954">
        <ele>1891.6</ele>
        <time>2020-02-14T05:54:19.156Z</time>
      </trkpt>
      <trkpt lat="42.65117" lon="1.90949">
        <ele>1891.6</ele>
        <time>2020-02-14T05:54:22.479Z</time>
      </trkpt>
      <trkpt lat="42.65102" lon="1.90946">
        <ele>1892.5</ele>
        <time>2020-02-14T05:54:28.391Z</time>
      </trkpt>
      <trkpt lat="42.651" lon="1.90946">
        <ele>1892.6</ele>
        <time>2020-02-14T05:54:28.896Z</time>
      </trkpt>
      <trkpt lat="42.65091" lon="1.90941">
        <ele>1892</ele>
        <time>2020-02-14T05:54:32.781Z</time>
      </trkpt>
      <trkpt lat="42.65077" lon="1.90938">
        <ele>1891.2</ele>
        <time>2020-02-14T05:54:38.063Z</time>
      </trkpt>
      <trkpt lat="42.6507" lon="1.90933">
        <ele>1889.7</ele>
        <time>2020-02-14T05:54:41.439Z</time>
      </trkpt>
      <trkpt lat="42.65067" lon="1.90945">
        <ele>1892.5</ele>
        <time>2020-02-14T05:54:45.224Z</time>
      </trkpt>
      <trkpt lat="42.6507" lon="1.90953">
        <ele>1892</ele>
        <time>2020-02-14T05:54:47.729Z</time>
      </trkpt>
      <trkpt lat="42.65074" lon="1.90961">
        <ele>1892.5</ele>
        <time>2020-02-14T05:54:50.385Z</time>
      </trkpt>
      <trkpt lat="42.65072" lon="1.90963">
        <ele>1891.5</ele>
        <time>2020-02-14T05:54:51.516Z</time>
      </trkpt>
      <trkpt lat="42.65068" lon="1.90968">
        <ele>1892.1</ele>
        <time>2020-02-14T05:54:53.470Z</time>
      </trkpt>
      <trkpt lat="42.65068" lon="1.90974">
        <ele>1892.6</ele>
        <time>2020-02-14T05:54:55.247Z</time>
      </trkpt>
      <trkpt lat="42.65068" lon="1.90976">
        <ele>1889.1</ele>
        <time>2020-02-14T05:54:56.516Z</time>
      </trkpt>
      <trkpt lat="42.65068" lon="1.90976">
        <ele>1893.1</ele>
        <time>2020-02-14T05:54:57.887Z</time>
      </trkpt>
      <trkpt lat="42.65068" lon="1.90976">
        <ele>1898.3</ele>
        <time>2020-02-14T05:54:59.706Z</time>
      </trkpt>
      <trkpt lat="42.65068" lon="1.90976">
        <ele>1892.5</ele>
        <time>2020-02-14T05:55:01.720Z</time>
      </trkpt>
      <trkpt lat="42.65068" lon="1.90976">
        <ele>1899.8</ele>
        <time>2020-02-14T05:55:04.229Z</time>
      </trkpt>
      <trkpt lat="42.65068" lon="1.90976">
        <ele>1898.7</ele>
        <time>2020-02-14T05:55:04.595Z</time>
      </trkpt>
      <trkpt lat="42.65068" lon="1.90976">
        <ele>1893</ele>
        <time>2020-02-14T05:55:06.567Z</time>
      </trkpt>
      <trkpt lat="42.65068" lon="1.90976">
        <ele>1897.3</ele>
        <time>2020-02-14T05:55:08.055Z</time>
      </trkpt>
      <trkpt lat="42.65068" lon="1.90976">
        <ele>1884.8</ele>
        <time>2020-02-14T05:55:12.392Z</time>
      </trkpt>
      <trkpt lat="42.65068" lon="1.90976">
        <ele>1895.4</ele>
        <time>2020-02-14T05:55:16.081Z</time>
      </trkpt>
      <trkpt lat="42.65068" lon="1.90976">
        <ele>1885.8</ele>
        <time>2020-02-14T05:55:19.418Z</time>
      </trkpt>
      <trkpt lat="42.65068" lon="1.90976">
        <ele>1894</ele>
        <time>2020-02-14T05:55:22.244Z</time>
      </trkpt>
      <trkpt lat="42.65068" lon="1.90976">
        <ele>1893</ele>
        <time>2020-02-14T05:55:22.573Z</time>
      </trkpt>
      <trkpt lat="42.65068" lon="1.90976">
        <ele>1887.8</ele>
        <time>2020-02-14T05:55:24.398Z</time>
      </trkpt>
      <trkpt lat="42.65068" lon="1.90976">
        <ele>1893.5</ele>
        <time>2020-02-14T05:55:26.394Z</time>
      </trkpt>
      <trkpt lat="42.65068" lon="1.90976">
        <ele>1893.1</ele>
        <time>2020-02-14T05:55:26.553Z</time>
      </trkpt>
      <trkpt lat="42.65068" lon="1.90976">
        <ele>1893.6</ele>
        <time>2020-02-14T05:55:26.733Z</time>
      </trkpt>
      <trkpt lat="42.65068" lon="1.90976">
        <ele>1890.1</ele>
        <time>2020-02-14T05:55:27.939Z</time>
      </trkpt>
      <trkpt lat="42.65068" lon="1.90976">
        <ele>1893</ele>
        <time>2020-02-14T05:55:28.944Z</time>
      </trkpt>
      <trkpt lat="42.65068" lon="1.90976">
        <ele>1884.3</ele>
        <time>2020-02-14T05:55:31.951Z</time>
      </trkpt>
      <trkpt lat="42.65068" lon="1.90976">
        <ele>1896.9</ele>
        <time>2020-02-14T05:55:36.300Z</time>
      </trkpt>
      <trkpt lat="42.65068" lon="1.90976">
        <ele>1886.3</ele>
        <time>2020-02-14T05:55:39.979Z</time>
      </trkpt>
      <trkpt lat="42.65068" lon="1.90976">
        <ele>1894.5</ele>
        <time>2020-02-14T05:55:42.826Z</time>
      </trkpt>
      <trkpt lat="42.65068" lon="1.90976">
        <ele>1892.1</ele>
        <time>2020-02-14T05:55:43.666Z</time>
      </trkpt>
      <trkpt lat="42.65068" lon="1.90976">
        <ele>1896.4</ele>
        <time>2020-02-14T05:55:45.168Z</time>
      </trkpt>
      <trkpt lat="42.65068" lon="1.90976">
        <ele>1893</ele>
        <time>2020-02-14T05:55:46.339Z</time>
      </trkpt>
      <trkpt lat="42.65068" lon="1.90976">
        <ele>1893</ele>
        <time>2020-02-14T05:55:46.339Z</time>
      </trkpt>
      <trkpt lat="42.65066" lon="1.9098">
        <ele>1891.5</ele>
        <time>2020-02-14T05:55:47.828Z</time>
      </trkpt>
      <trkpt lat="42.65065" lon="1.90994">
        <ele>1892.5</ele>
        <time>2020-02-14T05:55:51.886Z</time>
      </trkpt>
      <trkpt lat="42.65065" lon="1.90995">
        <ele>1892</ele>
        <time>2020-02-14T05:55:52.318Z</time>
      </trkpt>
      <trkpt lat="42.65062" lon="1.9101">
        <ele>1894</ele>
        <time>2020-02-14T05:55:56.668Z</time>
      </trkpt>
      <trkpt lat="42.65056" lon="1.91024">
        <ele>1894</ele>
        <time>2020-02-14T05:56:01.318Z</time>
      </trkpt>
      <trkpt lat="42.65052" lon="1.91036">
        <ele>1893.6</ele>
        <time>2020-02-14T05:56:04.889Z</time>
      </trkpt>
      <trkpt lat="42.65055" lon="1.91053">
        <ele>1894.9</ele>
        <time>2020-02-14T05:56:09.875Z</time>
      </trkpt>
      <trkpt lat="42.6505" lon="1.91066">
        <ele>1894.9</ele>
        <time>2020-02-14T05:56:14.072Z</time>
      </trkpt>
      <trkpt lat="42.65045" lon="1.9107">
        <ele>1894.4</ele>
        <time>2020-02-14T05:56:16.382Z</time>
      </trkpt>
      <trkpt lat="42.65034" lon="1.91084">
        <ele>1893.9</ele>
        <time>2020-02-14T05:56:21.963Z</time>
      </trkpt>
      <trkpt lat="42.65019" lon="1.91092">
        <ele>1894</ele>
        <time>2020-02-14T05:56:28.506Z</time>
      </trkpt>
      <trkpt lat="42.65014" lon="1.91095">
        <ele>1894.4</ele>
        <time>2020-02-14T05:56:30.446Z</time>
      </trkpt>
      <trkpt lat="42.65013" lon="1.91101">
        <ele>1891.1</ele>
        <time>2020-02-14T05:56:32.433Z</time>
      </trkpt>
      <trkpt lat="42.65013" lon="1.91101">
        <ele>1895.4</ele>
        <time>2020-02-14T05:56:33.922Z</time>
      </trkpt>
      <trkpt lat="42.65012" lon="1.91103">
        <ele>1893.1</ele>
        <time>2020-02-14T05:56:34.904Z</time>
      </trkpt>
      <trkpt lat="42.6501" lon="1.91103">
        <ele>1894</ele>
        <time>2020-02-14T05:56:35.751Z</time>
      </trkpt>
      <trkpt lat="42.65011" lon="1.91104">
        <ele>1885.9</ele>
        <time>2020-02-14T05:56:38.585Z</time>
      </trkpt>
      <trkpt lat="42.65011" lon="1.91104">
        <ele>1887.7</ele>
        <time>2020-02-14T05:56:39.224Z</time>
      </trkpt>
      <trkpt lat="42.65011" lon="1.91104">
        <ele>1892.6</ele>
        <time>2020-02-14T05:56:40.914Z</time>
      </trkpt>
      <trkpt lat="42.65012" lon="1.91105">
        <ele>1891.6</ele>
        <time>2020-02-14T05:56:41.338Z</time>
      </trkpt>
      <trkpt lat="42.65011" lon="1.91106">
        <ele>1892.1</ele>
        <time>2020-02-14T05:56:41.588Z</time>
      </trkpt>
      <trkpt lat="42.65011" lon="1.91106">
        <ele>1892</ele>
        <time>2020-02-14T05:56:41.867Z</time>
      </trkpt>
      <trkpt lat="42.65012" lon="1.91107">
        <ele>1893.1</ele>
        <time>2020-02-14T05:56:42.449Z</time>
      </trkpt>
      <trkpt lat="42.65012" lon="1.91107">
        <ele>1893</ele>
        <time>2020-02-14T05:56:42.536Z</time>
      </trkpt>
      <trkpt lat="42.65011" lon="1.91107">
        <ele>1892</ele>
        <time>2020-02-14T05:56:43.016Z</time>
      </trkpt>
      <trkpt lat="42.65011" lon="1.91106">
        <ele>1894.4</ele>
        <time>2020-02-14T05:56:43.887Z</time>
      </trkpt>
      <trkpt lat="42.65012" lon="1.91105">
        <ele>1894</ele>
        <time>2020-02-14T05:56:44.224Z</time>
      </trkpt>
      <trkpt lat="42.65012" lon="1.91105">
        <ele>1894.4</ele>
        <time>2020-02-14T05:56:44.440Z</time>
      </trkpt>
      <trkpt lat="42.65011" lon="1.91107">
        <ele>1893.9</ele>
        <time>2020-02-14T05:56:45.022Z</time>
      </trkpt>
      <trkpt lat="42.65011" lon="1.91106">
        <ele>1894.5</ele>
        <time>2020-02-14T05:56:45.334Z</time>
      </trkpt>
      <trkpt lat="42.65011" lon="1.91106">
        <ele>1898.8</ele>
        <time>2020-02-14T05:56:46.836Z</time>
      </trkpt>
      <trkpt lat="42.65011" lon="1.91106">
        <ele>1897.3</ele>
        <time>2020-02-14T05:56:47.334Z</time>
      </trkpt>
      <trkpt lat="42.65011" lon="1.91106">
        <ele>1894.4</ele>
        <time>2020-02-14T05:56:48.342Z</time>
      </trkpt>
      <trkpt lat="42.65011" lon="1.91106">
        <ele>1895</ele>
        <time>2020-02-14T05:56:48.520Z</time>
      </trkpt>
      <trkpt lat="42.65011" lon="1.91106">
        <ele>1891.5</ele>
        <time>2020-02-14T05:56:49.716Z</time>
      </trkpt>
      <trkpt lat="42.65011" lon="1.91106">
        <ele>1898.3</ele>
        <time>2020-02-14T05:56:52.073Z</time>
      </trkpt>
      <trkpt lat="42.65011" lon="1.91106">
        <ele>1894.5</ele>
        <time>2020-02-14T05:56:53.407Z</time>
      </trkpt>
      <trkpt lat="42.65011" lon="1.91106">
        <ele>1890.1</ele>
        <time>2020-02-14T05:56:54.911Z</time>
      </trkpt>
      <trkpt lat="42.65011" lon="1.91106">
        <ele>1891.6</ele>
        <time>2020-02-14T05:56:55.405Z</time>
      </trkpt>
      <trkpt lat="42.65011" lon="1.91106">
        <ele>1894.9</ele>
        <time>2020-02-14T05:56:56.571Z</time>
      </trkpt>
      <trkpt lat="42.65011" lon="1.91106">
        <ele>1894</ele>
        <time>2020-02-14T05:56:56.894Z</time>
      </trkpt>
      <trkpt lat="42.65011" lon="1.91106">
        <ele>1894.5</ele>
        <time>2020-02-14T05:56:57.134Z</time>
      </trkpt>
      <trkpt lat="42.65009" lon="1.91107">
        <ele>1895.5</ele>
        <time>2020-02-14T05:56:57.876Z</time>
      </trkpt>
      <trkpt lat="42.65009" lon="1.91106">
        <ele>1889.6</ele>
        <time>2020-02-14T05:56:59.904Z</time>
      </trkpt>
      <trkpt lat="42.65009" lon="1.91106">
        <ele>1902.2</ele>
        <time>2020-02-14T05:57:04.251Z</time>
      </trkpt>
      <trkpt lat="42.65009" lon="1.91106">
        <ele>1894.9</ele>
        <time>2020-02-14T05:57:06.769Z</time>
      </trkpt>
      <trkpt lat="42.65009" lon="1.91106">
        <ele>1891.1</ele>
        <time>2020-02-14T05:57:08.090Z</time>
      </trkpt>
      <trkpt lat="42.65009" lon="1.91106">
        <ele>1897.4</ele>
        <time>2020-02-14T05:57:10.274Z</time>
      </trkpt>
      <trkpt lat="42.65009" lon="1.91106">
        <ele>1896.3</ele>
        <time>2020-02-14T05:57:10.642Z</time>
      </trkpt>
      <trkpt lat="42.65009" lon="1.91106">
        <ele>1894.9</ele>
        <time>2020-02-14T05:57:11.136Z</time>
      </trkpt>
      <trkpt lat="42.65009" lon="1.91107">
        <ele>1894.5</ele>
        <time>2020-02-14T05:57:11.420Z</time>
      </trkpt>
      <trkpt lat="42.65006" lon="1.91114">
        <ele>1893.6</ele>
        <time>2020-02-14T05:57:13.827Z</time>
      </trkpt>
      <trkpt lat="42.65002" lon="1.91126">
        <ele>1893.1</ele>
        <time>2020-02-14T05:57:17.506Z</time>
      </trkpt>
      <trkpt lat="42.64988" lon="1.91146">
        <ele>1894</ele>
        <time>2020-02-14T05:57:25.120Z</time>
      </trkpt>
      <trkpt lat="42.64977" lon="1.91167">
        <ele>1896.3</ele>
        <time>2020-02-14T05:57:32.533Z</time>
      </trkpt>
      <trkpt lat="42.6497" lon="1.91179">
        <ele>1898.7</ele>
        <time>2020-02-14T05:57:37.299Z</time>
      </trkpt>
      <trkpt lat="42.64965" lon="1.9119">
        <ele>1898.7</ele>
        <time>2020-02-14T05:57:40.748Z</time>
      </trkpt>
      <trkpt lat="42.64948" lon="1.91208">
        <ele>1898.3</ele>
        <time>2020-02-14T05:57:49.217Z</time>
      </trkpt>
      <trkpt lat="42.64944" lon="1.91213">
        <ele>1899.7</ele>
        <time>2020-02-14T05:57:51.209Z</time>
      </trkpt>
      <trkpt lat="42.64944" lon="1.91214">
        <ele>1899.7</ele>
        <time>2020-02-14T05:57:51.549Z</time>
      </trkpt>
      <trkpt lat="42.64942" lon="1.91223">
        <ele>1899.7</ele>
        <time>2020-02-14T05:57:54.281Z</time>
      </trkpt>
      <trkpt lat="42.64934" lon="1.91237">
        <ele>1901.7</ele>
        <time>2020-02-14T05:57:59.133Z</time>
      </trkpt>
      <trkpt lat="42.6493" lon="1.91247">
        <ele>1902.2</ele>
        <time>2020-02-14T05:58:02.594Z</time>
      </trkpt>
      <trkpt lat="42.64917" lon="1.91267">
        <ele>1902.6</ele>
        <time>2020-02-14T05:58:10.096Z</time>
      </trkpt>
      <trkpt lat="42.64905" lon="1.91266">
        <ele>1904</ele>
        <time>2020-02-14T05:58:14.851Z</time>
      </trkpt>
      <trkpt lat="42.64892" lon="1.9126">
        <ele>1904</ele>
        <time>2020-02-14T05:58:20.167Z</time>
      </trkpt>
      <trkpt lat="42.6487" lon="1.91279">
        <ele>1907.5</ele>
        <time>2020-02-14T05:58:30.302Z</time>
      </trkpt>
      <trkpt lat="42.64843" lon="1.91288">
        <ele>1909.8</ele>
        <time>2020-02-14T05:58:41.010Z</time>
      </trkpt>
      <trkpt lat="42.6483" lon="1.91284">
        <ele>1911.7</ele>
        <time>2020-02-14T05:58:46.229Z</time>
      </trkpt>
      <trkpt lat="42.64817" lon="1.91287">
        <ele>1912.8</ele>
        <time>2020-02-14T05:58:51.622Z</time>
      </trkpt>
      <trkpt lat="42.64808" lon="1.91278">
        <ele>1912.8</ele>
        <time>2020-02-14T05:58:55.889Z</time>
      </trkpt>
      <trkpt lat="42.64804" lon="1.91277">
        <ele>1913.2</ele>
        <time>2020-02-14T05:58:57.470Z</time>
      </trkpt>
      <trkpt lat="42.64799" lon="1.91275">
        <ele>1912.7</ele>
        <time>2020-02-14T05:58:59.415Z</time>
      </trkpt>
      <trkpt lat="42.64788" lon="1.91271">
        <ele>1910.9</ele>
        <time>2020-02-14T05:59:03.873Z</time>
      </trkpt>
      <trkpt lat="42.64779" lon="1.91267">
        <ele>1910.8</ele>
        <time>2020-02-14T05:59:07.547Z</time>
      </trkpt>
      <trkpt lat="42.64766" lon="1.91261">
        <ele>1910.4</ele>
        <time>2020-02-14T05:59:12.771Z</time>
      </trkpt>
      <trkpt lat="42.64751" lon="1.91278">
        <ele>1910.3</ele>
        <time>2020-02-14T05:59:20.391Z</time>
      </trkpt>
      <trkpt lat="42.64731" lon="1.91294">
        <ele>1909.4</ele>
        <time>2020-02-14T05:59:29.111Z</time>
      </trkpt>
      <trkpt lat="42.6472" lon="1.91294">
        <ele>1908.4</ele>
        <time>2020-02-14T05:59:33.450Z</time>
      </trkpt>
      <trkpt lat="42.64718" lon="1.91294">
        <ele>1907.9</ele>
        <time>2020-02-14T05:59:34.279Z</time>
      </trkpt>
      <trkpt lat="42.64707" lon="1.91295">
        <ele>1906.9</ele>
        <time>2020-02-14T05:59:38.659Z</time>
      </trkpt>
      <trkpt lat="42.64698" lon="1.91293">
        <ele>1906.4</ele>
        <time>2020-02-14T05:59:42.108Z</time>
      </trkpt>
      <trkpt lat="42.64687" lon="1.913">
        <ele>1905.5</ele>
        <time>2020-02-14T05:59:46.643Z</time>
      </trkpt>
      <trkpt lat="42.64676" lon="1.9131">
        <ele>1905.1</ele>
        <time>2020-02-14T05:59:51.978Z</time>
      </trkpt>
      <trkpt lat="42.6466" lon="1.91321">
        <ele>1904.1</ele>
        <time>2020-02-14T05:59:58.841Z</time>
      </trkpt>
      <trkpt lat="42.6465" lon="1.91327">
        <ele>1903.6</ele>
        <time>2020-02-14T06:00:03.146Z</time>
      </trkpt>
      <trkpt lat="42.64643" lon="1.9133">
        <ele>1903.2</ele>
        <time>2020-02-14T06:00:05.760Z</time>
      </trkpt>
      <trkpt lat="42.64632" lon="1.91336">
        <ele>1902.6</ele>
        <time>2020-02-14T06:00:10.535Z</time>
      </trkpt>
      <trkpt lat="42.64625" lon="1.91339">
        <ele>1902.1</ele>
        <time>2020-02-14T06:00:13.474Z</time>
      </trkpt>
      <trkpt lat="42.64615" lon="1.91338">
        <ele>1901.1</ele>
        <time>2020-02-14T06:00:17.119Z</time>
      </trkpt>
      <trkpt lat="42.64608" lon="1.91344">
        <ele>1900.7</ele>
        <time>2020-02-14T06:00:20.525Z</time>
      </trkpt>
      <trkpt lat="42.64601" lon="1.91352">
        <ele>1901.2</ele>
        <time>2020-02-14T06:00:23.920Z</time>
      </trkpt>
      <trkpt lat="42.64597" lon="1.91365">
        <ele>1900.3</ele>
        <time>2020-02-14T06:00:28.013Z</time>
      </trkpt>
      <trkpt lat="42.6459" lon="1.91388">
        <ele>1901.7</ele>
        <time>2020-02-14T06:00:35.262Z</time>
      </trkpt>
      <trkpt lat="42.64585" lon="1.91398">
        <ele>1902.6</ele>
        <time>2020-02-14T06:00:38.712Z</time>
      </trkpt>
      <trkpt lat="42.6458" lon="1.91408">
        <ele>1902.2</ele>
        <time>2020-02-14T06:00:42.034Z</time>
      </trkpt>
      <trkpt lat="42.6457" lon="1.91427">
        <ele>1903.2</ele>
        <time>2020-02-14T06:00:48.674Z</time>
      </trkpt>
      <trkpt lat="42.6455" lon="1.91442">
        <ele>1903.1</ele>
        <time>2020-02-14T06:00:57.397Z</time>
      </trkpt>
      <trkpt lat="42.64535" lon="1.91463">
        <ele>1903.7</ele>
        <time>2020-02-14T06:01:05.673Z</time>
      </trkpt>
      <trkpt lat="42.6453" lon="1.91475">
        <ele>1903.1</ele>
        <time>2020-02-14T06:01:09.496Z</time>
      </trkpt>
      <trkpt lat="42.64523" lon="1.91493">
        <ele>1903.1</ele>
        <time>2020-02-14T06:01:15.298Z</time>
      </trkpt>
      <trkpt lat="42.64524" lon="1.91498">
        <ele>1903.1</ele>
        <time>2020-02-14T06:01:16.693Z</time>
      </trkpt>
      <trkpt lat="42.64515" lon="1.9152">
        <ele>1903.6</ele>
        <time>2020-02-14T06:01:23.947Z</time>
      </trkpt>
      <trkpt lat="42.64511" lon="1.91535">
        <ele>1905.1</ele>
        <time>2020-02-14T06:01:28.430Z</time>
      </trkpt>
      <trkpt lat="42.64511" lon="1.91545">
        <ele>1906.1</ele>
        <time>2020-02-14T06:01:31.402Z</time>
      </trkpt>
      <trkpt lat="42.64508" lon="1.91551">
        <ele>1906.4</ele>
        <time>2020-02-14T06:01:33.295Z</time>
      </trkpt>
      <trkpt lat="42.64508" lon="1.91552">
        <ele>1906.1</ele>
        <time>2020-02-14T06:01:33.668Z</time>
      </trkpt>
      <trkpt lat="42.64507" lon="1.91555">
        <ele>1905.1</ele>
        <time>2020-02-14T06:01:34.744Z</time>
      </trkpt>
      <trkpt lat="42.64506" lon="1.91557">
        <ele>1905.6</ele>
        <time>2020-02-14T06:01:35.212Z</time>
      </trkpt>
      <trkpt lat="42.64497" lon="1.91566">
        <ele>1905</ele>
        <time>2020-02-14T06:01:39.736Z</time>
      </trkpt>
      <trkpt lat="42.64492" lon="1.91572">
        <ele>1904.5</ele>
        <time>2020-02-14T06:01:42.162Z</time>
      </trkpt>
      <trkpt lat="42.64484" lon="1.9159">
        <ele>1904</ele>
        <time>2020-02-14T06:01:48.077Z</time>
      </trkpt>
      <trkpt lat="42.64483" lon="1.91596">
        <ele>1904</ele>
        <time>2020-02-14T06:01:49.897Z</time>
      </trkpt>
      <trkpt lat="42.64482" lon="1.91608">
        <ele>1904.1</ele>
        <time>2020-02-14T06:01:53.355Z</time>
      </trkpt>
      <trkpt lat="42.64478" lon="1.91635">
        <ele>1903.6</ele>
        <time>2020-02-14T06:02:01.194Z</time>
      </trkpt>
      <trkpt lat="42.64475" lon="1.91643">
        <ele>1904.1</ele>
        <time>2020-02-14T06:02:03.867Z</time>
      </trkpt>
      <trkpt lat="42.64475" lon="1.91646">
        <ele>1904.1</ele>
        <time>2020-02-14T06:02:04.712Z</time>
      </trkpt>
      <trkpt lat="42.64476" lon="1.91648">
        <ele>1904.1</ele>
        <time>2020-02-14T06:02:05.340Z</time>
      </trkpt>
      <trkpt lat="42.6448" lon="1.91658">
        <ele>1902.2</ele>
        <time>2020-02-14T06:02:08.644Z</time>
      </trkpt>
      <trkpt lat="42.6448" lon="1.91661">
        <ele>1902.7</ele>
        <time>2020-02-14T06:02:09.439Z</time>
      </trkpt>
      <trkpt lat="42.6448" lon="1.91671">
        <ele>1903.2</ele>
        <time>2020-02-14T06:02:12.424Z</time>
      </trkpt>
      <trkpt lat="42.64481" lon="1.91673">
        <ele>1910.4</ele>
        <time>2020-02-14T06:02:14.985Z</time>
      </trkpt>
      <trkpt lat="42.64481" lon="1.91673">
        <ele>1904.5</ele>
        <time>2020-02-14T06:02:17.013Z</time>
      </trkpt>
      <trkpt lat="42.64481" lon="1.91673">
        <ele>1909.8</ele>
        <time>2020-02-14T06:02:18.851Z</time>
      </trkpt>
      <trkpt lat="42.64481" lon="1.91673">
        <ele>1904.6</ele>
        <time>2020-02-14T06:02:20.664Z</time>
      </trkpt>
      <trkpt lat="42.64481" lon="1.91673">
        <ele>1903.2</ele>
        <time>2020-02-14T06:02:21.159Z</time>
      </trkpt>
      <trkpt lat="42.64481" lon="1.91673">
        <ele>1898.4</ele>
        <time>2020-02-14T06:02:22.815Z</time>
      </trkpt>
      <trkpt lat="42.64481" lon="1.91673">
        <ele>1904.5</ele>
        <time>2020-02-14T06:02:24.947Z</time>
      </trkpt>
      <trkpt lat="42.64481" lon="1.91673">
        <ele>1908.4</ele>
        <time>2020-02-14T06:02:26.305Z</time>
      </trkpt>
      <trkpt lat="42.64481" lon="1.91673">
        <ele>1903.7</ele>
        <time>2020-02-14T06:02:27.956Z</time>
      </trkpt>
      <trkpt lat="42.64481" lon="1.91673">
        <ele>1909.9</ele>
        <time>2020-02-14T06:02:30.104Z</time>
      </trkpt>
      <trkpt lat="42.64481" lon="1.91673">
        <ele>1907.5</ele>
        <time>2020-02-14T06:02:30.933Z</time>
      </trkpt>
      <trkpt lat="42.64481" lon="1.91673">
        <ele>1903.1</ele>
        <time>2020-02-14T06:02:32.442Z</time>
      </trkpt>
      <trkpt lat="42.64481" lon="1.91674">
        <ele>1903.6</ele>
        <time>2020-02-14T06:02:32.805Z</time>
      </trkpt>
      <trkpt lat="42.64479" lon="1.91689">
        <ele>1906.4</ele>
        <time>2020-02-14T06:02:37.319Z</time>
      </trkpt>
      <trkpt lat="42.64477" lon="1.91698">
        <ele>1909.8</ele>
        <time>2020-02-14T06:02:40.354Z</time>
      </trkpt>
      <trkpt lat="42.6447" lon="1.91701">
        <ele>1911.7</ele>
        <time>2020-02-14T06:02:43.396Z</time>
      </trkpt>
      <trkpt lat="42.64456" lon="1.91706">
        <ele>1913.6</ele>
        <time>2020-02-14T06:02:48.740Z</time>
      </trkpt>
      <trkpt lat="42.64445" lon="1.91709">
        <ele>1915.7</ele>
        <time>2020-02-14T06:02:53.085Z</time>
      </trkpt>
      <trkpt lat="42.64434" lon="1.91716">
        <ele>1918.5</ele>
        <time>2020-02-14T06:02:57.889Z</time>
      </trkpt>
      <trkpt lat="42.64433" lon="1.91717">
        <ele>1918.5</ele>
        <time>2020-02-14T06:02:58.448Z</time>
      </trkpt>
      <trkpt lat="42.64423" lon="1.91722">
        <ele>1920.5</ele>
        <time>2020-02-14T06:03:02.568Z</time>
      </trkpt>
      <trkpt lat="42.64411" lon="1.91727">
        <ele>1921.4</ele>
        <time>2020-02-14T06:03:07.559Z</time>
      </trkpt>
      <trkpt lat="42.64404" lon="1.91728">
        <ele>1922.4</ele>
        <time>2020-02-14T06:03:10.225Z</time>
      </trkpt>
      <trkpt lat="42.64392" lon="1.91739">
        <ele>1924.2</ele>
        <time>2020-02-14T06:03:15.808Z</time>
      </trkpt>
      <trkpt lat="42.64383" lon="1.91749">
        <ele>1927.6</ele>
        <time>2020-02-14T06:03:20.457Z</time>
      </trkpt>
      <trkpt lat="42.64372" lon="1.91756">
        <ele>1929.5</ele>
        <time>2020-02-14T06:03:25.083Z</time>
      </trkpt>
      <trkpt lat="42.64365" lon="1.91762">
        <ele>1931.5</ele>
        <time>2020-02-14T06:03:28.644Z</time>
      </trkpt>
      <trkpt lat="42.64357" lon="1.91774">
        <ele>1932.4</ele>
        <time>2020-02-14T06:03:32.956Z</time>
      </trkpt>
      <trkpt lat="42.6435" lon="1.91786">
        <ele>1931.1</ele>
        <time>2020-02-14T06:03:37.579Z</time>
      </trkpt>
      <trkpt lat="42.64347" lon="1.91796">
        <ele>1931.4</ele>
        <time>2020-02-14T06:03:40.457Z</time>
      </trkpt>
      <trkpt lat="42.6434" lon="1.91808">
        <ele>1932.5</ele>
        <time>2020-02-14T06:03:44.978Z</time>
      </trkpt>
      <trkpt lat="42.64331" lon="1.91817">
        <ele>1933</ele>
        <time>2020-02-14T06:03:48.995Z</time>
      </trkpt>
      <trkpt lat="42.64322" lon="1.91827">
        <ele>1933.4</ele>
        <time>2020-02-14T06:03:53.750Z</time>
      </trkpt>
      <trkpt lat="42.64313" lon="1.91836">
        <ele>1933.4</ele>
        <time>2020-02-14T06:03:57.981Z</time>
      </trkpt>
      <trkpt lat="42.64306" lon="1.91845">
        <ele>1932.4</ele>
        <time>2020-02-14T06:04:01.701Z</time>
      </trkpt>
      <trkpt lat="42.64298" lon="1.91856">
        <ele>1932.4</ele>
        <time>2020-02-14T06:04:06.053Z</time>
      </trkpt>
      <trkpt lat="42.64298" lon="1.91858">
        <ele>1932</ele>
        <time>2020-02-14T06:04:06.824Z</time>
      </trkpt>
      <trkpt lat="42.64291" lon="1.91874">
        <ele>1932.4</ele>
        <time>2020-02-14T06:04:11.822Z</time>
      </trkpt>
      <trkpt lat="42.64284" lon="1.91886">
        <ele>1933.4</ele>
        <time>2020-02-14T06:04:16.410Z</time>
      </trkpt>
      <trkpt lat="42.64277" lon="1.91902">
        <ele>1933.5</ele>
        <time>2020-02-14T06:04:21.501Z</time>
      </trkpt>
      <trkpt lat="42.64272" lon="1.91911">
        <ele>1933.5</ele>
        <time>2020-02-14T06:04:24.774Z</time>
      </trkpt>
      <trkpt lat="42.6427" lon="1.91924">
        <ele>1934.4</ele>
        <time>2020-02-14T06:04:28.614Z</time>
      </trkpt>
      <trkpt lat="42.64264" lon="1.91933">
        <ele>1936.3</ele>
        <time>2020-02-14T06:04:32.032Z</time>
      </trkpt>
      <trkpt lat="42.64258" lon="1.91944">
        <ele>1936.7</ele>
        <time>2020-02-14T06:04:35.948Z</time>
      </trkpt>
      <trkpt lat="42.64252" lon="1.91949">
        <ele>1937.7</ele>
        <time>2020-02-14T06:04:38.794Z</time>
      </trkpt>
      <trkpt lat="42.64249" lon="1.91965">
        <ele>1940.1</ele>
        <time>2020-02-14T06:04:43.454Z</time>
      </trkpt>
      <trkpt lat="42.64243" lon="1.91985">
        <ele>1942.5</ele>
        <time>2020-02-14T06:04:49.617Z</time>
      </trkpt>
      <trkpt lat="42.64236" lon="1.92">
        <ele>1943.4</ele>
        <time>2020-02-14T06:04:54.710Z</time>
      </trkpt>
      <trkpt lat="42.64231" lon="1.92015">
        <ele>1945.5</ele>
        <time>2020-02-14T06:04:59.339Z</time>
      </trkpt>
      <trkpt lat="42.64227" lon="1.92028">
        <ele>1946</ele>
        <time>2020-02-14T06:05:03.429Z</time>
      </trkpt>
      <trkpt lat="42.64221" lon="1.92043">
        <ele>1948.4</ele>
        <time>2020-02-14T06:05:08.253Z</time>
      </trkpt>
      <trkpt lat="42.64215" lon="1.92053">
        <ele>1950.3</ele>
        <time>2020-02-14T06:05:11.998Z</time>
      </trkpt>
      <trkpt lat="42.6421" lon="1.92063">
        <ele>1951.7</ele>
        <time>2020-02-14T06:05:15.597Z</time>
      </trkpt>
      <trkpt lat="42.64204" lon="1.92071">
        <ele>1952.7</ele>
        <time>2020-02-14T06:05:18.927Z</time>
      </trkpt>
      <trkpt lat="42.64197" lon="1.92084">
        <ele>1955</ele>
        <time>2020-02-14T06:05:23.313Z</time>
      </trkpt>
      <trkpt lat="42.64195" lon="1.92096">
        <ele>1955.9</ele>
        <time>2020-02-14T06:05:26.960Z</time>
      </trkpt>
      <trkpt lat="42.64187" lon="1.92109">
        <ele>1957.4</ele>
        <time>2020-02-14T06:05:31.750Z</time>
      </trkpt>
      <trkpt lat="42.6418" lon="1.92123">
        <ele>1958.8</ele>
        <time>2020-02-14T06:05:36.554Z</time>
      </trkpt>
      <trkpt lat="42.64178" lon="1.92128">
        <ele>1959.4</ele>
        <time>2020-02-14T06:05:38.222Z</time>
      </trkpt>
      <trkpt lat="42.64171" lon="1.92146">
        <ele>1960.3</ele>
        <time>2020-02-14T06:05:43.974Z</time>
      </trkpt>
      <trkpt lat="42.64167" lon="1.92161">
        <ele>1961.8</ele>
        <time>2020-02-14T06:05:48.497Z</time>
      </trkpt>
      <trkpt lat="42.64168" lon="1.92171">
        <ele>1961.8</ele>
        <time>2020-02-14T06:05:51.460Z</time>
      </trkpt>
      <trkpt lat="42.64168" lon="1.92173">
        <ele>1962.8</ele>
        <time>2020-02-14T06:05:52.049Z</time>
      </trkpt>
      <trkpt lat="42.64163" lon="1.92179">
        <ele>1963.3</ele>
        <time>2020-02-14T06:05:54.731Z</time>
      </trkpt>
      <trkpt lat="42.64159" lon="1.92186">
        <ele>1966.6</ele>
        <time>2020-02-14T06:05:57.521Z</time>
      </trkpt>
      <trkpt lat="42.64156" lon="1.92195">
        <ele>1968.5</ele>
        <time>2020-02-14T06:06:00.486Z</time>
      </trkpt>
      <trkpt lat="42.64153" lon="1.92207">
        <ele>1971.3</ele>
        <time>2020-02-14T06:06:04.081Z</time>
      </trkpt>
      <trkpt lat="42.6415" lon="1.92212">
        <ele>1973.2</ele>
        <time>2020-02-14T06:06:06.034Z</time>
      </trkpt>
      <trkpt lat="42.64146" lon="1.92224">
        <ele>1975.2</ele>
        <time>2020-02-14T06:06:09.838Z</time>
      </trkpt>
      <trkpt lat="42.64144" lon="1.92228">
        <ele>1975.3</ele>
        <time>2020-02-14T06:06:11.193Z</time>
      </trkpt>
      <trkpt lat="42.64141" lon="1.92232">
        <ele>1976.2</ele>
        <time>2020-02-14T06:06:12.803Z</time>
      </trkpt>
      <trkpt lat="42.64135" lon="1.92238">
        <ele>1976.1</ele>
        <time>2020-02-14T06:06:15.902Z</time>
      </trkpt>
      <trkpt lat="42.64129" lon="1.9224">
        <ele>1977.7</ele>
        <time>2020-02-14T06:06:18.201Z</time>
      </trkpt>
      <trkpt lat="42.64124" lon="1.92245">
        <ele>1979</ele>
        <time>2020-02-14T06:06:20.767Z</time>
      </trkpt>
      <trkpt lat="42.64118" lon="1.92255">
        <ele>1981.5</ele>
        <time>2020-02-14T06:06:24.324Z</time>
      </trkpt>
      <trkpt lat="42.64118" lon="1.92256">
        <ele>1981.9</ele>
        <time>2020-02-14T06:06:24.623Z</time>
      </trkpt>
      <trkpt lat="42.64119" lon="1.92267">
        <ele>1983.3</ele>
        <time>2020-02-14T06:06:28.031Z</time>
      </trkpt>
      <trkpt lat="42.64119" lon="1.92276">
        <ele>1984.4</ele>
        <time>2020-02-14T06:06:30.482Z</time>
      </trkpt>
      <trkpt lat="42.64119" lon="1.92284">
        <ele>1985.7</ele>
        <time>2020-02-14T06:06:32.858Z</time>
      </trkpt>
      <trkpt lat="42.64123" lon="1.92295">
        <ele>1988.1</ele>
        <time>2020-02-14T06:06:36.484Z</time>
      </trkpt>
      <trkpt lat="42.64126" lon="1.92299">
        <ele>1989.7</ele>
        <time>2020-02-14T06:06:38.108Z</time>
      </trkpt>
      <trkpt lat="42.64128" lon="1.92303">
        <ele>1990.6</ele>
        <time>2020-02-14T06:06:39.499Z</time>
      </trkpt>
      <trkpt lat="42.6413" lon="1.9231">
        <ele>1992.6</ele>
        <time>2020-02-14T06:06:41.889Z</time>
      </trkpt>
      <trkpt lat="42.64135" lon="1.92323">
        <ele>1994.9</ele>
        <time>2020-02-14T06:06:46.074Z</time>
      </trkpt>
      <trkpt lat="42.64139" lon="1.9233">
        <ele>1997.8</ele>
        <time>2020-02-14T06:06:48.783Z</time>
      </trkpt>
      <trkpt lat="42.64138" lon="1.9234">
        <ele>2000.2</ele>
        <time>2020-02-14T06:06:51.883Z</time>
      </trkpt>
      <trkpt lat="42.64139" lon="1.92348">
        <ele>2002.6</ele>
        <time>2020-02-14T06:06:54.486Z</time>
      </trkpt>
      <trkpt lat="42.64139" lon="1.92355">
        <ele>2004.5</ele>
        <time>2020-02-14T06:06:56.341Z</time>
      </trkpt>
      <trkpt lat="42.6414" lon="1.92366">
        <ele>2007</ele>
        <time>2020-02-14T06:06:59.776Z</time>
      </trkpt>
      <trkpt lat="42.64141" lon="1.92372">
        <ele>2008.3</ele>
        <time>2020-02-14T06:07:01.588Z</time>
      </trkpt>
      <trkpt lat="42.64145" lon="1.9238">
        <ele>2010.7</ele>
        <time>2020-02-14T06:07:04.415Z</time>
      </trkpt>
      <trkpt lat="42.6415" lon="1.92389">
        <ele>2014.7</ele>
        <time>2020-02-14T06:07:07.698Z</time>
      </trkpt>
      <trkpt lat="42.64156" lon="1.92395">
        <ele>2017.6</ele>
        <time>2020-02-14T06:07:10.862Z</time>
      </trkpt>
      <trkpt lat="42.64158" lon="1.92403">
        <ele>2020.8</ele>
        <time>2020-02-14T06:07:13.602Z</time>
      </trkpt>
      <trkpt lat="42.64157" lon="1.92407">
        <ele>2022.4</ele>
        <time>2020-02-14T06:07:14.882Z</time>
      </trkpt>
      <trkpt lat="42.64157" lon="1.92417">
        <ele>2023.7</ele>
        <time>2020-02-14T06:07:17.646Z</time>
      </trkpt>
      <trkpt lat="42.64158" lon="1.92424">
        <ele>2025.3</ele>
        <time>2020-02-14T06:07:19.746Z</time>
      </trkpt>
      <trkpt lat="42.64158" lon="1.92424">
        <ele>2024.8</ele>
        <time>2020-02-14T06:07:19.933Z</time>
      </trkpt>
      <trkpt lat="42.64155" lon="1.92435">
        <ele>2025.6</ele>
        <time>2020-02-14T06:07:23.422Z</time>
      </trkpt>
      <trkpt lat="42.64153" lon="1.92446">
        <ele>2029.1</ele>
        <time>2020-02-14T06:07:26.763Z</time>
      </trkpt>
      <trkpt lat="42.64154" lon="1.92456">
        <ele>2031.4</ele>
        <time>2020-02-14T06:07:29.643Z</time>
      </trkpt>
      <trkpt lat="42.6415" lon="1.92465">
        <ele>2031.9</ele>
        <time>2020-02-14T06:07:32.595Z</time>
      </trkpt>
      <trkpt lat="42.64143" lon="1.92478">
        <ele>2033.4</ele>
        <time>2020-02-14T06:07:37.267Z</time>
      </trkpt>
      <trkpt lat="42.64135" lon="1.92495">
        <ele>2034.9</ele>
        <time>2020-02-14T06:07:43.130Z</time>
      </trkpt>
      <trkpt lat="42.64134" lon="1.92497">
        <ele>2034.9</ele>
        <time>2020-02-14T06:07:43.784Z</time>
      </trkpt>
      <trkpt lat="42.64132" lon="1.92502">
        <ele>2035.4</ele>
        <time>2020-02-14T06:07:45.336Z</time>
      </trkpt>
      <trkpt lat="42.6413" lon="1.92512">
        <ele>2037.8</ele>
        <time>2020-02-14T06:07:48.274Z</time>
      </trkpt>
      <trkpt lat="42.64126" lon="1.92519">
        <ele>2038.2</ele>
        <time>2020-02-14T06:07:50.955Z</time>
      </trkpt>
      <trkpt lat="42.64122" lon="1.92531">
        <ele>2039.6</ele>
        <time>2020-02-14T06:07:54.803Z</time>
      </trkpt>
      <trkpt lat="42.64116" lon="1.92544">
        <ele>2042.1</ele>
        <time>2020-02-14T06:07:59.186Z</time>
      </trkpt>
      <trkpt lat="42.64115" lon="1.92546">
        <ele>2041.5</ele>
        <time>2020-02-14T06:07:59.740Z</time>
      </trkpt>
      <trkpt lat="42.64111" lon="1.92557">
        <ele>2042.9</ele>
        <time>2020-02-14T06:08:03.266Z</time>
      </trkpt>
      <trkpt lat="42.64106" lon="1.92566">
        <ele>2043.9</ele>
        <time>2020-02-14T06:08:06.555Z</time>
      </trkpt>
      <trkpt lat="42.641" lon="1.92573">
        <ele>2045.4</ele>
        <time>2020-02-14T06:08:09.585Z</time>
      </trkpt>
      <trkpt lat="42.641" lon="1.92574">
        <ele>2045.9</ele>
        <time>2020-02-14T06:08:10.066Z</time>
      </trkpt>
      <trkpt lat="42.64097" lon="1.92586">
        <ele>2047.9</ele>
        <time>2020-02-14T06:08:13.630Z</time>
      </trkpt>
      <trkpt lat="42.64096" lon="1.92587">
        <ele>2047.4</ele>
        <time>2020-02-14T06:08:14.104Z</time>
      </trkpt>
      <trkpt lat="42.64094" lon="1.926">
        <ele>2049.3</ele>
        <time>2020-02-14T06:08:17.928Z</time>
      </trkpt>
      <trkpt lat="42.64089" lon="1.92609">
        <ele>2050.7</ele>
        <time>2020-02-14T06:08:20.988Z</time>
      </trkpt>
      <trkpt lat="42.64084" lon="1.92618">
        <ele>2051.2</ele>
        <time>2020-02-14T06:08:24.090Z</time>
      </trkpt>
      <trkpt lat="42.64084" lon="1.92623">
        <ele>2052.2</ele>
        <time>2020-02-14T06:08:25.803Z</time>
      </trkpt>
      <trkpt lat="42.64081" lon="1.92631">
        <ele>2053.6</ele>
        <time>2020-02-14T06:08:28.329Z</time>
      </trkpt>
      <trkpt lat="42.64076" lon="1.92642">
        <ele>2055.9</ele>
        <time>2020-02-14T06:08:32.104Z</time>
      </trkpt>
      <trkpt lat="42.64074" lon="1.92652">
        <ele>2058.3</ele>
        <time>2020-02-14T06:08:35.371Z</time>
      </trkpt>
      <trkpt lat="42.6407" lon="1.92661">
        <ele>2059.9</ele>
        <time>2020-02-14T06:08:38.340Z</time>
      </trkpt>
      <trkpt lat="42.64062" lon="1.92669">
        <ele>2062.2</ele>
        <time>2020-02-14T06:08:42.194Z</time>
      </trkpt>
      <trkpt lat="42.64052" lon="1.92679">
        <ele>2064.6</ele>
        <time>2020-02-14T06:08:47.089Z</time>
      </trkpt>
      <trkpt lat="42.64049" lon="1.92684">
        <ele>2059.4</ele>
        <time>2020-02-14T06:08:49.580Z</time>
      </trkpt>
      <trkpt lat="42.64049" lon="1.92685">
        <ele>2065.1</ele>
        <time>2020-02-14T06:08:51.617Z</time>
      </trkpt>
      <trkpt lat="42.64042" lon="1.92695">
        <ele>2064.7</ele>
        <time>2020-02-14T06:08:55.579Z</time>
      </trkpt>
      <trkpt lat="42.64036" lon="1.927">
        <ele>2065.5</ele>
        <time>2020-02-14T06:08:58.356Z</time>
      </trkpt>
      <trkpt lat="42.64029" lon="1.92704">
        <ele>2066.6</ele>
        <time>2020-02-14T06:09:01.153Z</time>
      </trkpt>
      <trkpt lat="42.6402" lon="1.92714">
        <ele>2067.6</ele>
        <time>2020-02-14T06:09:05.578Z</time>
      </trkpt>
      <trkpt lat="42.64014" lon="1.92723">
        <ele>2068.4</ele>
        <time>2020-02-14T06:09:09.201Z</time>
      </trkpt>
      <trkpt lat="42.64011" lon="1.92726">
        <ele>2069.9</ele>
        <time>2020-02-14T06:09:10.668Z</time>
      </trkpt>
      <trkpt lat="42.64002" lon="1.92735">
        <ele>2069.5</ele>
        <time>2020-02-14T06:09:14.862Z</time>
      </trkpt>
      <trkpt lat="42.64001" lon="1.92736">
        <ele>2068.4</ele>
        <time>2020-02-14T06:09:15.528Z</time>
      </trkpt>
      <trkpt lat="42.63995" lon="1.92734">
        <ele>2071.3</ele>
        <time>2020-02-14T06:09:18.197Z</time>
      </trkpt>
      <trkpt lat="42.63991" lon="1.92738">
        <ele>2072.7</ele>
        <time>2020-02-14T06:09:20.116Z</time>
      </trkpt>
      <trkpt lat="42.63986" lon="1.92746">
        <ele>2074.3</ele>
        <time>2020-02-14T06:09:23.060Z</time>
      </trkpt>
      <trkpt lat="42.63981" lon="1.92749">
        <ele>2076.1</ele>
        <time>2020-02-14T06:09:25.352Z</time>
      </trkpt>
      <trkpt lat="42.6398" lon="1.92749">
        <ele>2076.1</ele>
        <time>2020-02-14T06:09:25.637Z</time>
      </trkpt>
      <trkpt lat="42.63973" lon="1.92755">
        <ele>2077.2</ele>
        <time>2020-02-14T06:09:28.849Z</time>
      </trkpt>
      <trkpt lat="42.63967" lon="1.9276">
        <ele>2078.6</ele>
        <time>2020-02-14T06:09:31.919Z</time>
      </trkpt>
      <trkpt lat="42.63959" lon="1.92763">
        <ele>2080</ele>
        <time>2020-02-14T06:09:34.926Z</time>
      </trkpt>
      <trkpt lat="42.63949" lon="1.92768">
        <ele>2082.4</ele>
        <time>2020-02-14T06:09:39.168Z</time>
      </trkpt>
      <trkpt lat="42.63947" lon="1.92771">
        <ele>2082</ele>
        <time>2020-02-14T06:09:40.321Z</time>
      </trkpt>
      <trkpt lat="42.6394" lon="1.92776">
        <ele>2083.8</ele>
        <time>2020-02-14T06:09:43.390Z</time>
      </trkpt>
      <trkpt lat="42.63931" lon="1.9278">
        <ele>2084.4</ele>
        <time>2020-02-14T06:09:47.177Z</time>
      </trkpt>
      <trkpt lat="42.63922" lon="1.92785">
        <ele>2085.7</ele>
        <time>2020-02-14T06:09:50.970Z</time>
      </trkpt>
      <trkpt lat="42.63917" lon="1.92787">
        <ele>2086.3</ele>
        <time>2020-02-14T06:09:52.809Z</time>
      </trkpt>
      <trkpt lat="42.63909" lon="1.92787">
        <ele>2086.7</ele>
        <time>2020-02-14T06:09:56.097Z</time>
      </trkpt>
      <trkpt lat="42.639" lon="1.92788">
        <ele>2086.8</ele>
        <time>2020-02-14T06:09:59.470Z</time>
      </trkpt>
      <trkpt lat="42.63894" lon="1.92791">
        <ele>2089.7</ele>
        <time>2020-02-14T06:10:02.230Z</time>
      </trkpt>
      <trkpt lat="42.63885" lon="1.92788">
        <ele>2093</ele>
        <time>2020-02-14T06:10:06.030Z</time>
      </trkpt>
      <trkpt lat="42.63883" lon="1.9279">
        <ele>2092</ele>
        <time>2020-02-14T06:10:07.187Z</time>
      </trkpt>
      <trkpt lat="42.63875" lon="1.92793">
        <ele>2092.9</ele>
        <time>2020-02-14T06:10:10.344Z</time>
      </trkpt>
      <trkpt lat="42.63868" lon="1.92792">
        <ele>2095.8</ele>
        <time>2020-02-14T06:10:12.991Z</time>
      </trkpt>
      <trkpt lat="42.63863" lon="1.92789">
        <ele>2097.4</ele>
        <time>2020-02-14T06:10:15.319Z</time>
      </trkpt>
      <trkpt lat="42.63857" lon="1.92791">
        <ele>2099.2</ele>
        <time>2020-02-14T06:10:17.662Z</time>
      </trkpt>
      <trkpt lat="42.63851" lon="1.92791">
        <ele>2102.6</ele>
        <time>2020-02-14T06:10:20.324Z</time>
      </trkpt>
      <trkpt lat="42.6385" lon="1.92794">
        <ele>2103</ele>
        <time>2020-02-14T06:10:21.206Z</time>
      </trkpt>
      <trkpt lat="42.63849" lon="1.92794">
        <ele>2106</ele>
        <time>2020-02-14T06:10:22.272Z</time>
      </trkpt>
      <trkpt lat="42.63846" lon="1.92795">
        <ele>2105.9</ele>
        <time>2020-02-14T06:10:23.564Z</time>
      </trkpt>
      <trkpt lat="42.63831" lon="1.92797">
        <ele>2107.8</ele>
        <time>2020-02-14T06:10:29.483Z</time>
      </trkpt>
      <trkpt lat="42.63825" lon="1.92801">
        <ele>2110.7</ele>
        <time>2020-02-14T06:10:32.253Z</time>
      </trkpt>
      <trkpt lat="42.63815" lon="1.92813">
        <ele>2113.1</ele>
        <time>2020-02-14T06:10:37.559Z</time>
      </trkpt>
      <trkpt lat="42.63809" lon="1.92817">
        <ele>2114.6</ele>
        <time>2020-02-14T06:10:40.039Z</time>
      </trkpt>
      <trkpt lat="42.63809" lon="1.92819">
        <ele>2115.6</ele>
        <time>2020-02-14T06:10:40.559Z</time>
      </trkpt>
      <trkpt lat="42.638" lon="1.92826">
        <ele>2116.1</ele>
        <time>2020-02-14T06:10:44.697Z</time>
      </trkpt>
      <trkpt lat="42.638" lon="1.92831">
        <ele>2118.9</ele>
        <time>2020-02-14T06:10:46.429Z</time>
      </trkpt>
      <trkpt lat="42.63802" lon="1.92834">
        <ele>2119.8</ele>
        <time>2020-02-14T06:10:47.733Z</time>
      </trkpt>
      <trkpt lat="42.63793" lon="1.92841">
        <ele>2123.8</ele>
        <time>2020-02-14T06:10:51.682Z</time>
      </trkpt>
      <trkpt lat="42.63788" lon="1.92844">
        <ele>2126.1</ele>
        <time>2020-02-14T06:10:54.095Z</time>
      </trkpt>
      <trkpt lat="42.63781" lon="1.92846">
        <ele>2128.1</ele>
        <time>2020-02-14T06:10:56.754Z</time>
      </trkpt>
      <trkpt lat="42.63772" lon="1.92849">
        <ele>2127.2</ele>
        <time>2020-02-14T06:11:00.488Z</time>
      </trkpt>
      <trkpt lat="42.63765" lon="1.92846">
        <ele>2127.1</ele>
        <time>2020-02-14T06:11:03.405Z</time>
      </trkpt>
      <trkpt lat="42.63759" lon="1.92843">
        <ele>2129</ele>
        <time>2020-02-14T06:11:05.730Z</time>
      </trkpt>
      <trkpt lat="42.63755" lon="1.92842">
        <ele>2130.4</ele>
        <time>2020-02-14T06:11:07.608Z</time>
      </trkpt>
      <trkpt lat="42.63748" lon="1.9284">
        <ele>2132.3</ele>
        <time>2020-02-14T06:11:10.360Z</time>
      </trkpt>
      <trkpt lat="42.63743" lon="1.92839">
        <ele>2135.3</ele>
        <time>2020-02-14T06:11:12.571Z</time>
      </trkpt>
      <trkpt lat="42.63735" lon="1.92838">
        <ele>2137.2</ele>
        <time>2020-02-14T06:11:15.633Z</time>
      </trkpt>
      <trkpt lat="42.63728" lon="1.92835">
        <ele>2139.2</ele>
        <time>2020-02-14T06:11:18.615Z</time>
      </trkpt>
      <trkpt lat="42.63721" lon="1.92831">
        <ele>2140.6</ele>
        <time>2020-02-14T06:11:21.455Z</time>
      </trkpt>
      <trkpt lat="42.63718" lon="1.9283">
        <ele>2142.1</ele>
        <time>2020-02-14T06:11:22.953Z</time>
      </trkpt>
      <trkpt lat="42.63708" lon="1.92825">
        <ele>2144.5</ele>
        <time>2020-02-14T06:11:27.206Z</time>
      </trkpt>
      <trkpt lat="42.63703" lon="1.92819">
        <ele>2147.2</ele>
        <time>2020-02-14T06:11:29.898Z</time>
      </trkpt>
      <trkpt lat="42.63694" lon="1.92813">
        <ele>2150.1</ele>
        <time>2020-02-14T06:11:33.933Z</time>
      </trkpt>
      <trkpt lat="42.63691" lon="1.92807">
        <ele>2153.5</ele>
        <time>2020-02-14T06:11:36.279Z</time>
      </trkpt>
      <trkpt lat="42.63688" lon="1.92803">
        <ele>2155.4</ele>
        <time>2020-02-14T06:11:38.152Z</time>
      </trkpt>
      <trkpt lat="42.63684" lon="1.928">
        <ele>2158.9</ele>
        <time>2020-02-14T06:11:40.155Z</time>
      </trkpt>
      <trkpt lat="42.63681" lon="1.92792">
        <ele>2161.7</ele>
        <time>2020-02-14T06:11:42.834Z</time>
      </trkpt>
      <trkpt lat="42.63677" lon="1.92786">
        <ele>2165</ele>
        <time>2020-02-14T06:11:45.545Z</time>
      </trkpt>
      <trkpt lat="42.63671" lon="1.92786">
        <ele>2167.5</ele>
        <time>2020-02-14T06:11:47.937Z</time>
      </trkpt>
      <trkpt lat="42.63667" lon="1.92791">
        <ele>2168.4</ele>
        <time>2020-02-14T06:11:50.094Z</time>
      </trkpt>
      <trkpt lat="42.63652" lon="1.9282">
        <ele>2171.4</ele>
        <time>2020-02-14T06:12:00.169Z</time>
      </trkpt>
      <trkpt lat="42.63641" lon="1.92839">
        <ele>2172.8</ele>
        <time>2020-02-14T06:12:07.216Z</time>
      </trkpt>
      <trkpt lat="42.63641" lon="1.92791">
        <ele>2175.2</ele>
        <time>2020-02-14T06:12:20.902Z</time>
      </trkpt>
      <trkpt lat="42.63636" lon="1.92784">
        <ele>2178</ele>
        <time>2020-02-14T06:12:23.779Z</time>
      </trkpt>
      <trkpt lat="42.6363" lon="1.92773">
        <ele>2181.4</ele>
        <time>2020-02-14T06:12:28.024Z</time>
      </trkpt>
      <trkpt lat="42.63622" lon="1.92769">
        <ele>2184.7</ele>
        <time>2020-02-14T06:12:31.452Z</time>
      </trkpt>
      <trkpt lat="42.63619" lon="1.92767">
        <ele>2186.8</ele>
        <time>2020-02-14T06:12:32.830Z</time>
      </trkpt>
      <trkpt lat="42.63613" lon="1.92762">
        <ele>2190.1</ele>
        <time>2020-02-14T06:12:35.829Z</time>
      </trkpt>
      <trkpt lat="42.63613" lon="1.92759">
        <ele>2193.5</ele>
        <time>2020-02-14T06:12:37.250Z</time>
      </trkpt>
      <trkpt lat="42.63612" lon="1.92759">
        <ele>2194.5</ele>
        <time>2020-02-14T06:12:37.828Z</time>
      </trkpt>
      <trkpt lat="42.63604" lon="1.92755">
        <ele>2196.9</ele>
        <time>2020-02-14T06:12:41.144Z</time>
      </trkpt>
      <trkpt lat="42.63599" lon="1.92752">
        <ele>2198.3</ele>
        <time>2020-02-14T06:12:43.223Z</time>
      </trkpt>
      <trkpt lat="42.63598" lon="1.92751">
        <ele>2201.7</ele>
        <time>2020-02-14T06:12:44.549Z</time>
      </trkpt>
      <trkpt lat="42.6359" lon="1.92744">
        <ele>2204.1</ele>
        <time>2020-02-14T06:12:48.196Z</time>
      </trkpt>
      <trkpt lat="42.63584" lon="1.92741">
        <ele>2205.9</ele>
        <time>2020-02-14T06:12:50.903Z</time>
      </trkpt>
      <trkpt lat="42.63576" lon="1.92735">
        <ele>2208.3</ele>
        <time>2020-02-14T06:12:54.320Z</time>
      </trkpt>
      <trkpt lat="42.63568" lon="1.92728">
        <ele>2209.7</ele>
        <time>2020-02-14T06:12:58.118Z</time>
      </trkpt>
      <trkpt lat="42.63564" lon="1.92721">
        <ele>2211.2</ele>
        <time>2020-02-14T06:13:00.629Z</time>
      </trkpt>
      <trkpt lat="42.63557" lon="1.92711">
        <ele>2212.7</ele>
        <time>2020-02-14T06:13:04.734Z</time>
      </trkpt>
      <trkpt lat="42.63551" lon="1.92708">
        <ele>2214.1</ele>
        <time>2020-02-14T06:13:07.376Z</time>
      </trkpt>
      <trkpt lat="42.63546" lon="1.92703">
        <ele>2215</ele>
        <time>2020-02-14T06:13:09.584Z</time>
      </trkpt>
      <trkpt lat="42.63542" lon="1.92696">
        <ele>2215.6</ele>
        <time>2020-02-14T06:13:12.313Z</time>
      </trkpt>
      <trkpt lat="42.63538" lon="1.92688">
        <ele>2215.5</ele>
        <time>2020-02-14T06:13:15.061Z</time>
      </trkpt>
      <trkpt lat="42.63536" lon="1.92684">
        <ele>2216.1</ele>
        <time>2020-02-14T06:13:16.520Z</time>
      </trkpt>
      <trkpt lat="42.6353" lon="1.92676">
        <ele>2217.9</ele>
        <time>2020-02-14T06:13:19.646Z</time>
      </trkpt>
      <trkpt lat="42.63528" lon="1.92669">
        <ele>2218.9</ele>
        <time>2020-02-14T06:13:21.827Z</time>
      </trkpt>
      <trkpt lat="42.63528" lon="1.92661">
        <ele>2220.3</ele>
        <time>2020-02-14T06:13:24.093Z</time>
      </trkpt>
      <trkpt lat="42.63521" lon="1.92659">
        <ele>2221.7</ele>
        <time>2020-02-14T06:13:27.006Z</time>
      </trkpt>
      <trkpt lat="42.63513" lon="1.92656">
        <ele>2223.3</ele>
        <time>2020-02-14T06:13:30.189Z</time>
      </trkpt>
      <trkpt lat="42.63502" lon="1.92652">
        <ele>2223.2</ele>
        <time>2020-02-14T06:13:34.461Z</time>
      </trkpt>
      <trkpt lat="42.63494" lon="1.92651">
        <ele>2224.6</ele>
        <time>2020-02-14T06:13:37.708Z</time>
      </trkpt>
      <trkpt lat="42.63494" lon="1.92653">
        <ele>2223.2</ele>
        <time>2020-02-14T06:13:38.309Z</time>
      </trkpt>
      <trkpt lat="42.63497" lon="1.92659">
        <ele>2225.2</ele>
        <time>2020-02-14T06:13:40.590Z</time>
      </trkpt>
      <trkpt lat="42.63496" lon="1.92664">
        <ele>2226.7</ele>
        <time>2020-02-14T06:13:42.219Z</time>
      </trkpt>
      <trkpt lat="42.63494" lon="1.92667">
        <ele>2227</ele>
        <time>2020-02-14T06:13:43.318Z</time>
      </trkpt>
      <trkpt lat="42.63485" lon="1.92671">
        <ele>2229.1</ele>
        <time>2020-02-14T06:13:47.073Z</time>
      </trkpt>
      <trkpt lat="42.63476" lon="1.92672">
        <ele>2230</ele>
        <time>2020-02-14T06:13:50.574Z</time>
      </trkpt>
      <trkpt lat="42.63471" lon="1.92674">
        <ele>2231.8</ele>
        <time>2020-02-14T06:13:52.809Z</time>
      </trkpt>
      <trkpt lat="42.63457" lon="1.92672">
        <ele>2232.8</ele>
        <time>2020-02-14T06:13:58.224Z</time>
      </trkpt>
      <trkpt lat="42.63451" lon="1.92671">
        <ele>2233.3</ele>
        <time>2020-02-14T06:14:00.458Z</time>
      </trkpt>
      <trkpt lat="42.63446" lon="1.92668">
        <ele>2233.4</ele>
        <time>2020-02-14T06:14:02.637Z</time>
      </trkpt>
      <trkpt lat="42.63441" lon="1.9267">
        <ele>2233.3</ele>
        <time>2020-02-14T06:14:04.677Z</time>
      </trkpt>
      <trkpt lat="42.63434" lon="1.92676">
        <ele>2235.3</ele>
        <time>2020-02-14T06:14:08.015Z</time>
      </trkpt>
      <trkpt lat="42.63432" lon="1.92675">
        <ele>2236.3</ele>
        <time>2020-02-14T06:14:08.810Z</time>
      </trkpt>
      <trkpt lat="42.63424" lon="1.92676">
        <ele>2238.6</ele>
        <time>2020-02-14T06:14:11.970Z</time>
      </trkpt>
      <trkpt lat="42.63421" lon="1.92667">
        <ele>2239.6</ele>
        <time>2020-02-14T06:14:14.677Z</time>
      </trkpt>
      <trkpt lat="42.63418" lon="1.92659">
        <ele>2240.5</ele>
        <time>2020-02-14T06:14:17.502Z</time>
      </trkpt>
      <trkpt lat="42.63413" lon="1.92657">
        <ele>2241.5</ele>
        <time>2020-02-14T06:14:19.474Z</time>
      </trkpt>
      <trkpt lat="42.63407" lon="1.92651">
        <ele>2243.4</ele>
        <time>2020-02-14T06:14:22.212Z</time>
      </trkpt>
      <trkpt lat="42.63405" lon="1.92648">
        <ele>2244.8</ele>
        <time>2020-02-14T06:14:23.449Z</time>
      </trkpt>
      <trkpt lat="42.63403" lon="1.92645">
        <ele>2245.8</ele>
        <time>2020-02-14T06:14:24.755Z</time>
      </trkpt>
      <trkpt lat="42.63393" lon="1.92635">
        <ele>2244.8</ele>
        <time>2020-02-14T06:14:29.571Z</time>
      </trkpt>
      <trkpt lat="42.63387" lon="1.9263">
        <ele>2245.4</ele>
        <time>2020-02-14T06:14:32.325Z</time>
      </trkpt>
      <trkpt lat="42.63377" lon="1.92627">
        <ele>2246.4</ele>
        <time>2020-02-14T06:14:36.241Z</time>
      </trkpt>
      <trkpt lat="42.63368" lon="1.92625">
        <ele>2246.3</ele>
        <time>2020-02-14T06:14:39.738Z</time>
      </trkpt>
      <trkpt lat="42.6336" lon="1.92621">
        <ele>2246.7</ele>
        <time>2020-02-14T06:14:42.976Z</time>
      </trkpt>
      <trkpt lat="42.63355" lon="1.92611">
        <ele>2247.3</ele>
        <time>2020-02-14T06:14:46.387Z</time>
      </trkpt>
      <trkpt lat="42.63351" lon="1.92603">
        <ele>2246.7</ele>
        <time>2020-02-14T06:14:49.278Z</time>
      </trkpt>
      <trkpt lat="42.63344" lon="1.92593">
        <ele>2247.2</ele>
        <time>2020-02-14T06:14:53.148Z</time>
      </trkpt>
      <trkpt lat="42.6334" lon="1.92588">
        <ele>2247.7</ele>
        <time>2020-02-14T06:14:55.130Z</time>
      </trkpt>
      <trkpt lat="42.63338" lon="1.92585">
        <ele>2247.7</ele>
        <time>2020-02-14T06:14:56.293Z</time>
      </trkpt>
      <trkpt lat="42.63328" lon="1.92584">
        <ele>2248.7</ele>
        <time>2020-02-14T06:15:00.143Z</time>
      </trkpt>
      <trkpt lat="42.63319" lon="1.92583">
        <ele>2250.2</ele>
        <time>2020-02-14T06:15:03.625Z</time>
      </trkpt>
      <trkpt lat="42.63312" lon="1.92587">
        <ele>2252.6</ele>
        <time>2020-02-14T06:15:06.938Z</time>
      </trkpt>
      <trkpt lat="42.6331" lon="1.92587">
        <ele>2256</ele>
        <time>2020-02-14T06:15:08.294Z</time>
      </trkpt>
      <trkpt lat="42.63309" lon="1.92587">
        <ele>2252.6</ele>
        <time>2020-02-14T06:15:09.536Z</time>
      </trkpt>
      <trkpt lat="42.63305" lon="1.92587">
        <ele>2252.1</ele>
        <time>2020-02-14T06:15:11.015Z</time>
      </trkpt>
      <trkpt lat="42.63305" lon="1.92588">
        <ele>2253.6</ele>
        <time>2020-02-14T06:15:11.652Z</time>
      </trkpt>
      <trkpt lat="42.63304" lon="1.92586">
        <ele>2252.6</ele>
        <time>2020-02-14T06:15:12.364Z</time>
      </trkpt>
      <trkpt lat="42.63304" lon="1.92586">
        <ele>2254.4</ele>
        <time>2020-02-14T06:15:13.004Z</time>
      </trkpt>
      <trkpt lat="42.63304" lon="1.92586">
        <ele>2258.8</ele>
        <time>2020-02-14T06:15:14.540Z</time>
      </trkpt>
      <trkpt lat="42.63304" lon="1.92586">
        <ele>2254.9</ele>
        <time>2020-02-14T06:15:15.898Z</time>
      </trkpt>
      <trkpt lat="42.63304" lon="1.92586">
        <ele>2258.4</ele>
        <time>2020-02-14T06:15:17.096Z</time>
      </trkpt>
      <trkpt lat="42.63304" lon="1.92586">
        <ele>2254.4</ele>
        <time>2020-02-14T06:15:18.459Z</time>
      </trkpt>
      <trkpt lat="42.63304" lon="1.92586">
        <ele>2254</ele>
        <time>2020-02-14T06:15:18.661Z</time>
      </trkpt>
      <trkpt lat="42.63304" lon="1.92586">
        <ele>2256</ele>
        <time>2020-02-14T06:15:19.345Z</time>
      </trkpt>
      <trkpt lat="42.63305" lon="1.92585">
        <ele>2256.9</ele>
        <time>2020-02-14T06:15:19.685Z</time>
      </trkpt>
      <trkpt lat="42.63299" lon="1.92584">
        <ele>2256.8</ele>
        <time>2020-02-14T06:15:21.901Z</time>
      </trkpt>
      <trkpt lat="42.63291" lon="1.92576">
        <ele>2256.5</ele>
        <time>2020-02-14T06:15:25.784Z</time>
      </trkpt>
      <trkpt lat="42.63289" lon="1.92575">
        <ele>2256.5</ele>
        <time>2020-02-14T06:15:26.569Z</time>
      </trkpt>
      <trkpt lat="42.63286" lon="1.92575">
        <ele>2256.4</ele>
        <time>2020-02-14T06:15:27.496Z</time>
      </trkpt>
      <trkpt lat="42.63281" lon="1.92572">
        <ele>2255.9</ele>
        <time>2020-02-14T06:15:29.606Z</time>
      </trkpt>
      <trkpt lat="42.63272" lon="1.92565">
        <ele>2254.9</ele>
        <time>2020-02-14T06:15:33.726Z</time>
      </trkpt>
      <trkpt lat="42.63268" lon="1.92565">
        <ele>2254.5</ele>
        <time>2020-02-14T06:15:35.172Z</time>
      </trkpt>
      <trkpt lat="42.6326" lon="1.92565">
        <ele>2253.6</ele>
        <time>2020-02-14T06:15:38.507Z</time>
      </trkpt>
      <trkpt lat="42.63256" lon="1.92565">
        <ele>2254.1</ele>
        <time>2020-02-14T06:15:39.915Z</time>
      </trkpt>
      <trkpt lat="42.63251" lon="1.92562">
        <ele>2253.5</ele>
        <time>2020-02-14T06:15:41.915Z</time>
      </trkpt>
      <trkpt lat="42.63239" lon="1.92559">
        <ele>2254.1</ele>
        <time>2020-02-14T06:15:46.868Z</time>
      </trkpt>
      <trkpt lat="42.63233" lon="1.92557">
        <ele>2254</ele>
        <time>2020-02-14T06:15:49.209Z</time>
      </trkpt>
      <trkpt lat="42.6322" lon="1.92552">
        <ele>2254.5</ele>
        <time>2020-02-14T06:15:54.253Z</time>
      </trkpt>
      <trkpt lat="42.63218" lon="1.92551">
        <ele>2254.5</ele>
        <time>2020-02-14T06:15:55.342Z</time>
      </trkpt>
      <trkpt lat="42.63207" lon="1.9254">
        <ele>2252.5</ele>
        <time>2020-02-14T06:16:00.543Z</time>
      </trkpt>
      <trkpt lat="42.632" lon="1.92534">
        <ele>2251.1</ele>
        <time>2020-02-14T06:16:03.706Z</time>
      </trkpt>
      <trkpt lat="42.63197" lon="1.92533">
        <ele>2249.6</ele>
        <time>2020-02-14T06:16:05.149Z</time>
      </trkpt>
      <trkpt lat="42.63195" lon="1.92533">
        <ele>2249.2</ele>
        <time>2020-02-14T06:16:05.774Z</time>
      </trkpt>
      <trkpt lat="42.63187" lon="1.92541">
        <ele>2247.8</ele>
        <time>2020-02-14T06:16:09.783Z</time>
      </trkpt>
      <trkpt lat="42.63182" lon="1.9254">
        <ele>2247.2</ele>
        <time>2020-02-14T06:16:11.375Z</time>
      </trkpt>
      <trkpt lat="42.63181" lon="1.9254">
        <ele>2246.7</ele>
        <time>2020-02-14T06:16:11.994Z</time>
      </trkpt>
      <trkpt lat="42.63176" lon="1.92544">
        <ele>2247.3</ele>
        <time>2020-02-14T06:16:14.221Z</time>
      </trkpt>
      <trkpt lat="42.63164" lon="1.92551">
        <ele>2247.8</ele>
        <time>2020-02-14T06:16:19.259Z</time>
      </trkpt>
      <trkpt lat="42.63159" lon="1.92554">
        <ele>2246.3</ele>
        <time>2020-02-14T06:16:21.509Z</time>
      </trkpt>
      <trkpt lat="42.63157" lon="1.92555">
        <ele>2245.9</ele>
        <time>2020-02-14T06:16:22.388Z</time>
      </trkpt>
      <trkpt lat="42.63155" lon="1.92557">
        <ele>2245.8</ele>
        <time>2020-02-14T06:16:23.379Z</time>
      </trkpt>
      <trkpt lat="42.63152" lon="1.92563">
        <ele>2244.3</ele>
        <time>2020-02-14T06:16:25.623Z</time>
      </trkpt>
      <trkpt lat="42.63146" lon="1.92569">
        <ele>2242.4</ele>
        <time>2020-02-14T06:16:28.370Z</time>
      </trkpt>
      <trkpt lat="42.6314" lon="1.92576">
        <ele>2244.4</ele>
        <time>2020-02-14T06:16:31.528Z</time>
      </trkpt>
      <trkpt lat="42.63134" lon="1.9258">
        <ele>2245.4</ele>
        <time>2020-02-14T06:16:34.320Z</time>
      </trkpt>
      <trkpt lat="42.63129" lon="1.92578">
        <ele>2246.7</ele>
        <time>2020-02-14T06:16:36.278Z</time>
      </trkpt>
      <trkpt lat="42.63125" lon="1.92578">
        <ele>2248.3</ele>
        <time>2020-02-14T06:16:37.734Z</time>
      </trkpt>
      <trkpt lat="42.63123" lon="1.92579">
        <ele>2247.7</ele>
        <time>2020-02-14T06:16:38.558Z</time>
      </trkpt>
      <trkpt lat="42.63121" lon="1.92581">
        <ele>2247.3</ele>
        <time>2020-02-14T06:16:39.749Z</time>
      </trkpt>
      <trkpt lat="42.63117" lon="1.92584">
        <ele>2247.2</ele>
        <time>2020-02-14T06:16:41.351Z</time>
      </trkpt>
      <trkpt lat="42.63113" lon="1.92594">
        <ele>2247.8</ele>
        <time>2020-02-14T06:16:44.720Z</time>
      </trkpt>
      <trkpt lat="42.63108" lon="1.92601">
        <ele>2245.9</ele>
        <time>2020-02-14T06:16:47.443Z</time>
      </trkpt>
      <trkpt lat="42.631" lon="1.92603">
        <ele>2245.8</ele>
        <time>2020-02-14T06:16:50.774Z</time>
      </trkpt>
      <trkpt lat="42.63094" lon="1.92604">
        <ele>2245.8</ele>
        <time>2020-02-14T06:16:52.815Z</time>
      </trkpt>
      <trkpt lat="42.63084" lon="1.92605">
        <ele>2245.4</ele>
        <time>2020-02-14T06:16:56.769Z</time>
      </trkpt>
      <trkpt lat="42.63077" lon="1.9261">
        <ele>2245.8</ele>
        <time>2020-02-14T06:16:59.754Z</time>
      </trkpt>
      <trkpt lat="42.63062" lon="1.92613">
        <ele>2247.8</ele>
        <time>2020-02-14T06:17:05.645Z</time>
      </trkpt>
      <trkpt lat="42.63051" lon="1.92616">
        <ele>2249.2</ele>
        <time>2020-02-14T06:17:10.290Z</time>
      </trkpt>
      <trkpt lat="42.63044" lon="1.92615">
        <ele>2250.2</ele>
        <time>2020-02-14T06:17:12.716Z</time>
      </trkpt>
      <trkpt lat="42.6304" lon="1.92612">
        <ele>2247.8</ele>
        <time>2020-02-14T06:17:14.850Z</time>
      </trkpt>
      <trkpt lat="42.6303" lon="1.92613">
        <ele>2250.2</ele>
        <time>2020-02-14T06:17:18.847Z</time>
      </trkpt>
      <trkpt lat="42.63025" lon="1.92615">
        <ele>2252.1</ele>
        <time>2020-02-14T06:17:20.744Z</time>
      </trkpt>
      <trkpt lat="42.63018" lon="1.92623">
        <ele>2253.1</ele>
        <time>2020-02-14T06:17:24.183Z</time>
      </trkpt>
      <trkpt lat="42.63014" lon="1.92626">
        <ele>2253</ele>
        <time>2020-02-14T06:17:26.310Z</time>
      </trkpt>
      <trkpt lat="42.63005" lon="1.92625">
        <ele>2254</ele>
        <time>2020-02-14T06:17:29.653Z</time>
      </trkpt>
      <trkpt lat="42.63003" lon="1.92621">
        <ele>2253.6</ele>
        <time>2020-02-14T06:17:30.834Z</time>
      </trkpt>
      <trkpt lat="42.62998" lon="1.92617">
        <ele>2255.4</ele>
        <time>2020-02-14T06:17:33.371Z</time>
      </trkpt>
      <trkpt lat="42.62989" lon="1.92614">
        <ele>2257.8</ele>
        <time>2020-02-14T06:17:36.833Z</time>
      </trkpt>
      <trkpt lat="42.62982" lon="1.92612">
        <ele>2260.7</ele>
        <time>2020-02-14T06:17:39.654Z</time>
      </trkpt>
      <trkpt lat="42.62975" lon="1.9261">
        <ele>2262.7</ele>
        <time>2020-02-14T06:17:42.708Z</time>
      </trkpt>
      <trkpt lat="42.62976" lon="1.92609">
        <ele>2262.7</ele>
        <time>2020-02-14T06:17:43.275Z</time>
      </trkpt>
      <trkpt lat="42.6297" lon="1.92603">
        <ele>2264</ele>
        <time>2020-02-14T06:17:46.140Z</time>
      </trkpt>
      <trkpt lat="42.62962" lon="1.92602">
        <ele>2265.6</ele>
        <time>2020-02-14T06:17:49.564Z</time>
      </trkpt>
      <trkpt lat="42.62959" lon="1.92603">
        <ele>2265.5</ele>
        <time>2020-02-14T06:17:50.494Z</time>
      </trkpt>
      <trkpt lat="42.62953" lon="1.92605">
        <ele>2266.9</ele>
        <time>2020-02-14T06:17:53.016Z</time>
      </trkpt>
      <trkpt lat="42.62944" lon="1.92604">
        <ele>2266.5</ele>
        <time>2020-02-14T06:17:56.622Z</time>
      </trkpt>
      <trkpt lat="42.6294" lon="1.92603">
        <ele>2266.6</ele>
        <time>2020-02-14T06:17:57.905Z</time>
      </trkpt>
      <trkpt lat="42.62936" lon="1.92597">
        <ele>2268.9</ele>
        <time>2020-02-14T06:18:00.746Z</time>
      </trkpt>
      <trkpt lat="42.62929" lon="1.92595">
        <ele>2270.4</ele>
        <time>2020-02-14T06:18:03.213Z</time>
      </trkpt>
      <trkpt lat="42.62919" lon="1.92592">
        <ele>2272.8</ele>
        <time>2020-02-14T06:18:07.481Z</time>
      </trkpt>
      <trkpt lat="42.62908" lon="1.92592">
        <ele>2275.1</ele>
        <time>2020-02-14T06:18:11.926Z</time>
      </trkpt>
      <trkpt lat="42.62903" lon="1.92594">
        <ele>2278.5</ele>
        <time>2020-02-14T06:18:14.268Z</time>
      </trkpt>
      <trkpt lat="42.62899" lon="1.92595">
        <ele>2279.9</ele>
        <time>2020-02-14T06:18:15.706Z</time>
      </trkpt>
      <trkpt lat="42.62893" lon="1.92594">
        <ele>2281.5</ele>
        <time>2020-02-14T06:18:18.307Z</time>
      </trkpt>
      <trkpt lat="42.62892" lon="1.92597">
        <ele>2284.7</ele>
        <time>2020-02-14T06:18:19.822Z</time>
      </trkpt>
      <trkpt lat="42.62891" lon="1.92603">
        <ele>2287.6</ele>
        <time>2020-02-14T06:18:21.868Z</time>
      </trkpt>
      <trkpt lat="42.62888" lon="1.92604">
        <ele>2291</ele>
        <time>2020-02-14T06:18:23.402Z</time>
      </trkpt>
      <trkpt lat="42.62885" lon="1.92606">
        <ele>2293.9</ele>
        <time>2020-02-14T06:18:24.947Z</time>
      </trkpt>
      <trkpt lat="42.62881" lon="1.92606">
        <ele>2293.4</ele>
        <time>2020-02-14T06:18:26.805Z</time>
      </trkpt>
      <trkpt lat="42.62873" lon="1.92605">
        <ele>2293.9</ele>
        <time>2020-02-14T06:18:29.781Z</time>
      </trkpt>
      <trkpt lat="42.62867" lon="1.92602">
        <ele>2296.3</ele>
        <time>2020-02-14T06:18:32.421Z</time>
      </trkpt>
      <trkpt lat="42.62856" lon="1.926">
        <ele>2297.8</ele>
        <time>2020-02-14T06:18:36.746Z</time>
      </trkpt>
      <trkpt lat="42.62851" lon="1.92599">
        <ele>2293.9</ele>
        <time>2020-02-14T06:18:39.080Z</time>
      </trkpt>
      <trkpt lat="42.6285" lon="1.92599">
        <ele>2296.8</ele>
        <time>2020-02-14T06:18:40.175Z</time>
      </trkpt>
      <trkpt lat="42.62847" lon="1.92598">
        <ele>2298.3</ele>
        <time>2020-02-14T06:18:41.260Z</time>
      </trkpt>
      <trkpt lat="42.6284" lon="1.92598">
        <ele>2300.6</ele>
        <time>2020-02-14T06:18:44.117Z</time>
      </trkpt>
      <trkpt lat="42.62832" lon="1.92596">
        <ele>2302.5</ele>
        <time>2020-02-14T06:18:47.663Z</time>
      </trkpt>
      <trkpt lat="42.62822" lon="1.92598">
        <ele>2304.9</ele>
        <time>2020-02-14T06:18:51.617Z</time>
      </trkpt>
      <trkpt lat="42.6282" lon="1.92598">
        <ele>2304.4</ele>
        <time>2020-02-14T06:18:52.424Z</time>
      </trkpt>
      <trkpt lat="42.62811" lon="1.92595">
        <ele>2304.5</ele>
        <time>2020-02-14T06:18:55.742Z</time>
      </trkpt>
      <trkpt lat="42.62806" lon="1.92604">
        <ele>2304.5</ele>
        <time>2020-02-14T06:18:59.018Z</time>
      </trkpt>
      <trkpt lat="42.62802" lon="1.92601">
        <ele>2305.4</ele>
        <time>2020-02-14T06:19:00.829Z</time>
      </trkpt>
      <trkpt lat="42.62796" lon="1.926">
        <ele>2305.4</ele>
        <time>2020-02-14T06:19:03.167Z</time>
      </trkpt>
      <trkpt lat="42.62794" lon="1.926">
        <ele>2305.5</ele>
        <time>2020-02-14T06:19:03.932Z</time>
      </trkpt>
      <trkpt lat="42.62787" lon="1.92599">
        <ele>2307.8</ele>
        <time>2020-02-14T06:19:06.929Z</time>
      </trkpt>
      <trkpt lat="42.62784" lon="1.92598">
        <ele>2309.3</ele>
        <time>2020-02-14T06:19:08.136Z</time>
      </trkpt>
      <trkpt lat="42.62779" lon="1.92592">
        <ele>2308.8</ele>
        <time>2020-02-14T06:19:10.784Z</time>
      </trkpt>
      <trkpt lat="42.62774" lon="1.92589">
        <ele>2308.3</ele>
        <time>2020-02-14T06:19:13.030Z</time>
      </trkpt>
      <trkpt lat="42.62771" lon="1.92582">
        <ele>2307.8</ele>
        <time>2020-02-14T06:19:15.168Z</time>
      </trkpt>
      <trkpt lat="42.62768" lon="1.92577">
        <ele>2307.8</ele>
        <time>2020-02-14T06:19:17.136Z</time>
      </trkpt>
      <trkpt lat="42.62757" lon="1.92569">
        <ele>2308.4</ele>
        <time>2020-02-14T06:19:21.760Z</time>
      </trkpt>
      <trkpt lat="42.62748" lon="1.92564">
        <ele>2310.8</ele>
        <time>2020-02-14T06:19:25.836Z</time>
      </trkpt>
      <trkpt lat="42.62741" lon="1.92558">
        <ele>2313.7</ele>
        <time>2020-02-14T06:19:29.133Z</time>
      </trkpt>
      <trkpt lat="42.62734" lon="1.92555">
        <ele>2315.1</ele>
        <time>2020-02-14T06:19:32.058Z</time>
      </trkpt>
      <trkpt lat="42.62725" lon="1.92554">
        <ele>2317.9</ele>
        <time>2020-02-14T06:19:35.486Z</time>
      </trkpt>
      <trkpt lat="42.6272" lon="1.92549">
        <ele>2320.4</ele>
        <time>2020-02-14T06:19:38.091Z</time>
      </trkpt>
      <trkpt lat="42.62714" lon="1.92546">
        <ele>2322.8</ele>
        <time>2020-02-14T06:19:40.830Z</time>
      </trkpt>
      <trkpt lat="42.6271" lon="1.92545">
        <ele>2325.2</ele>
        <time>2020-02-14T06:19:42.316Z</time>
      </trkpt>
      <trkpt lat="42.62708" lon="1.92543">
        <ele>2326.5</ele>
        <time>2020-02-14T06:19:43.518Z</time>
      </trkpt>
      <trkpt lat="42.62703" lon="1.92546">
        <ele>2328.5</ele>
        <time>2020-02-14T06:19:45.929Z</time>
      </trkpt>
      <trkpt lat="42.62702" lon="1.92547">
        <ele>2330.9</ele>
        <time>2020-02-14T06:19:46.991Z</time>
      </trkpt>
      <trkpt lat="42.62703" lon="1.9255">
        <ele>2333.7</ele>
        <time>2020-02-14T06:19:48.298Z</time>
      </trkpt>
      <trkpt lat="42.62704" lon="1.92554">
        <ele>2336.1</ele>
        <time>2020-02-14T06:19:49.925Z</time>
      </trkpt>
      <trkpt lat="42.62706" lon="1.92559">
        <ele>2337.2</ele>
        <time>2020-02-14T06:19:51.477Z</time>
      </trkpt>
      <trkpt lat="42.62716" lon="1.92573">
        <ele>2340.6</ele>
        <time>2020-02-14T06:19:57.183Z</time>
      </trkpt>
      <trkpt lat="42.62712" lon="1.9258">
        <ele>2343.5</ele>
        <time>2020-02-14T06:19:59.940Z</time>
      </trkpt>
      <trkpt lat="42.62716" lon="1.92587">
        <ele>2346.3</ele>
        <time>2020-02-14T06:20:02.647Z</time>
      </trkpt>
      <trkpt lat="42.62718" lon="1.9259">
        <ele>2349.2</ele>
        <time>2020-02-14T06:20:04.082Z</time>
      </trkpt>
      <trkpt lat="42.62726" lon="1.92595">
        <ele>2351.6</ele>
        <time>2020-02-14T06:20:07.600Z</time>
      </trkpt>
      <trkpt lat="42.62729" lon="1.92601">
        <ele>2353.9</ele>
        <time>2020-02-14T06:20:09.863Z</time>
      </trkpt>
      <trkpt lat="42.6273" lon="1.92603">
        <ele>2356.8</ele>
        <time>2020-02-14T06:20:11.098Z</time>
      </trkpt>
      <trkpt lat="42.62731" lon="1.92611">
        <ele>2360.2</ele>
        <time>2020-02-14T06:20:13.679Z</time>
      </trkpt>
      <trkpt lat="42.6273" lon="1.92618">
        <ele>2362.2</ele>
        <time>2020-02-14T06:20:15.716Z</time>
      </trkpt>
      <trkpt lat="42.62731" lon="1.92624">
        <ele>2363.6</ele>
        <time>2020-02-14T06:20:17.748Z</time>
      </trkpt>
      <trkpt lat="42.62729" lon="1.92629">
        <ele>2363.1</ele>
        <time>2020-02-14T06:20:19.268Z</time>
      </trkpt>
      <trkpt lat="42.62726" lon="1.92636">
        <ele>2363.2</ele>
        <time>2020-02-14T06:20:21.655Z</time>
      </trkpt>
      <trkpt lat="42.62718" lon="1.92643">
        <ele>2362.1</ele>
        <time>2020-02-14T06:20:25.381Z</time>
      </trkpt>
      <trkpt lat="42.62717" lon="1.92647">
        <ele>2365.6</ele>
        <time>2020-02-14T06:20:27.073Z</time>
      </trkpt>
      <trkpt lat="42.62717" lon="1.92647">
        <ele>2361.7</ele>
        <time>2020-02-14T06:20:28.416Z</time>
      </trkpt>
      <trkpt lat="42.62717" lon="1.92647">
        <ele>2365.9</ele>
        <time>2020-02-14T06:20:29.882Z</time>
      </trkpt>
      <trkpt lat="42.62717" lon="1.92647">
        <ele>2363.1</ele>
        <time>2020-02-14T06:20:30.850Z</time>
      </trkpt>
      <trkpt lat="42.62717" lon="1.92647">
        <ele>2369.3</ele>
        <time>2020-02-14T06:20:33.000Z</time>
      </trkpt>
      <trkpt lat="42.62717" lon="1.92647">
        <ele>2363.1</ele>
        <time>2020-02-14T06:20:35.137Z</time>
      </trkpt>
      <trkpt lat="42.62717" lon="1.92647">
        <ele>2356</ele>
        <time>2020-02-14T06:20:37.626Z</time>
      </trkpt>
      <trkpt lat="42.62717" lon="1.92647">
        <ele>2365.5</ele>
        <time>2020-02-14T06:20:40.939Z</time>
      </trkpt>
      <trkpt lat="42.62717" lon="1.92647">
        <ele>2366.5</ele>
        <time>2020-02-14T06:20:41.277Z</time>
      </trkpt>
      <trkpt lat="42.62717" lon="1.92647">
        <ele>2358.8</ele>
        <time>2020-02-14T06:20:43.957Z</time>
      </trkpt>
      <trkpt lat="42.62717" lon="1.92647">
        <ele>2364.5</ele>
        <time>2020-02-14T06:20:45.949Z</time>
      </trkpt>
      <trkpt lat="42.62717" lon="1.92647">
        <ele>2359.8</ele>
        <time>2020-02-14T06:20:47.600Z</time>
      </trkpt>
      <trkpt lat="42.62717" lon="1.92647">
        <ele>2363.6</ele>
        <time>2020-02-14T06:20:48.930Z</time>
      </trkpt>
      <trkpt lat="42.62717" lon="1.92647">
        <ele>2359.7</ele>
        <time>2020-02-14T06:20:50.266Z</time>
      </trkpt>
      <trkpt lat="42.62717" lon="1.92647">
        <ele>2366.4</ele>
        <time>2020-02-14T06:20:52.584Z</time>
      </trkpt>
      <trkpt lat="42.62717" lon="1.92647">
        <ele>2360.2</ele>
        <time>2020-02-14T06:20:54.742Z</time>
      </trkpt>
      <trkpt lat="42.62717" lon="1.92647">
        <ele>2367.4</ele>
        <time>2020-02-14T06:20:57.250Z</time>
      </trkpt>
      <trkpt lat="42.62717" lon="1.92647">
        <ele>2362.7</ele>
        <time>2020-02-14T06:20:58.900Z</time>
      </trkpt>
      <trkpt lat="42.62717" lon="1.92647">
        <ele>2367</ele>
        <time>2020-02-14T06:21:00.400Z</time>
      </trkpt>
      <trkpt lat="42.62717" lon="1.92647">
        <ele>2363.2</ele>
        <time>2020-02-14T06:21:01.729Z</time>
      </trkpt>
      <trkpt lat="42.62717" lon="1.92647">
        <ele>2369.8</ele>
        <time>2020-02-14T06:21:04.032Z</time>
      </trkpt>
      <trkpt lat="42.62717" lon="1.92647">
        <ele>2359.8</ele>
        <time>2020-02-14T06:21:07.512Z</time>
      </trkpt>
      <trkpt lat="42.62717" lon="1.92647">
        <ele>2366.5</ele>
        <time>2020-02-14T06:21:09.827Z</time>
      </trkpt>
      <trkpt lat="42.62717" lon="1.92647">
        <ele>2361.7</ele>
        <time>2020-02-14T06:21:11.487Z</time>
      </trkpt>
      <trkpt lat="42.62717" lon="1.92647">
        <ele>2365.5</ele>
        <time>2020-02-14T06:21:12.822Z</time>
      </trkpt>
      <trkpt lat="42.62717" lon="1.92647">
        <ele>2360.7</ele>
        <time>2020-02-14T06:21:14.491Z</time>
      </trkpt>
      <trkpt lat="42.62717" lon="1.92647">
        <ele>2364</ele>
        <time>2020-02-14T06:21:15.633Z</time>
      </trkpt>
      <trkpt lat="42.62717" lon="1.92647">
        <ele>2368</ele>
        <time>2020-02-14T06:21:17.006Z</time>
      </trkpt>
      <trkpt lat="42.62717" lon="1.92647">
        <ele>2368</ele>
        <time>2020-02-14T06:21:17.009Z</time>
      </trkpt>
      <trkpt lat="42.62717" lon="1.92647">
        <ele>2364</ele>
        <time>2020-02-14T06:21:18.376Z</time>
      </trkpt>
      <trkpt lat="42.62717" lon="1.92647">
        <ele>2365.1</ele>
        <time>2020-02-14T06:21:18.738Z</time>
      </trkpt>
      <trkpt lat="42.62717" lon="1.92647">
        <ele>2361.2</ele>
        <time>2020-02-14T06:21:20.080Z</time>
      </trkpt>
      <trkpt lat="42.62717" lon="1.92647">
        <ele>2355.5</ele>
        <time>2020-02-14T06:21:22.071Z</time>
      </trkpt>
      <trkpt lat="42.62717" lon="1.92647">
        <ele>2362.2</ele>
        <time>2020-02-14T06:21:24.407Z</time>
      </trkpt>
      <trkpt lat="42.62717" lon="1.92647">
        <ele>2362.6</ele>
        <time>2020-02-14T06:21:24.564Z</time>
      </trkpt>
      <trkpt lat="42.62717" lon="1.92647">
        <ele>2364.1</ele>
        <time>2020-02-14T06:21:25.065Z</time>
      </trkpt>
      <trkpt lat="42.62717" lon="1.92646">
        <ele>2366.9</ele>
        <time>2020-02-14T06:21:26.093Z</time>
      </trkpt>
      <trkpt lat="42.62717" lon="1.92646">
        <ele>2363.5</ele>
        <time>2020-02-14T06:21:27.277Z</time>
      </trkpt>
      <trkpt lat="42.62717" lon="1.92646">
        <ele>2360.3</ele>
        <time>2020-02-14T06:21:28.402Z</time>
      </trkpt>
      <trkpt lat="42.62717" lon="1.92646">
        <ele>2365.6</ele>
        <time>2020-02-14T06:21:30.241Z</time>
      </trkpt>
      <trkpt lat="42.62717" lon="1.92646">
        <ele>2355.4</ele>
        <time>2020-02-14T06:21:33.765Z</time>
      </trkpt>
      <trkpt lat="42.62717" lon="1.92646">
        <ele>2368</ele>
        <time>2020-02-14T06:21:38.133Z</time>
      </trkpt>
      <trkpt lat="42.62717" lon="1.92646">
        <ele>2357.8</ele>
        <time>2020-02-14T06:21:41.664Z</time>
      </trkpt>
      <trkpt lat="42.62717" lon="1.92646">
        <ele>2365.5</ele>
        <time>2020-02-14T06:21:44.343Z</time>
      </trkpt>
      <trkpt lat="42.62718" lon="1.92648">
        <ele>2363.6</ele>
        <time>2020-02-14T06:21:45.281Z</time>
      </trkpt>
      <trkpt lat="42.62718" lon="1.92654">
        <ele>2361.7</ele>
        <time>2020-02-14T06:21:47.080Z</time>
      </trkpt>
      <trkpt lat="42.62716" lon="1.92663">
        <ele>2362.1</ele>
        <time>2020-02-14T06:21:49.817Z</time>
      </trkpt>
      <trkpt lat="42.62719" lon="1.92666">
        <ele>2361.6</ele>
        <time>2020-02-14T06:21:51.220Z</time>
      </trkpt>
      <trkpt lat="42.62717" lon="1.92665">
        <ele>2363.1</ele>
        <time>2020-02-14T06:21:52.197Z</time>
      </trkpt>
      <trkpt lat="42.62717" lon="1.92666">
        <ele>2362.6</ele>
        <time>2020-02-14T06:21:52.420Z</time>
      </trkpt>
      <trkpt lat="42.62715" lon="1.92665">
        <ele>2362.2</ele>
        <time>2020-02-14T06:21:53.285Z</time>
      </trkpt>
      <trkpt lat="42.62716" lon="1.92669">
        <ele>2365.5</ele>
        <time>2020-02-14T06:21:54.995Z</time>
      </trkpt>
      <trkpt lat="42.62714" lon="1.92671">
        <ele>2366.5</ele>
        <time>2020-02-14T06:21:55.824Z</time>
      </trkpt>
      <trkpt lat="42.62714" lon="1.9267">
        <ele>2363.1</ele>
        <time>2020-02-14T06:21:57.027Z</time>
      </trkpt>
      <trkpt lat="42.62715" lon="1.92669">
        <ele>2368.8</ele>
        <time>2020-02-14T06:21:59.015Z</time>
      </trkpt>
      <trkpt lat="42.62715" lon="1.92668">
        <ele>2365.6</ele>
        <time>2020-02-14T06:22:00.211Z</time>
      </trkpt>
      <trkpt lat="42.62717" lon="1.9267">
        <ele>2368.4</ele>
        <time>2020-02-14T06:22:01.498Z</time>
      </trkpt>
      <trkpt lat="42.62716" lon="1.9267">
        <ele>2371.2</ele>
        <time>2020-02-14T06:22:02.630Z</time>
      </trkpt>
      <trkpt lat="42.62716" lon="1.9267">
        <ele>2374.1</ele>
        <time>2020-02-14T06:22:03.664Z</time>
      </trkpt>
      <trkpt lat="42.62716" lon="1.9267">
        <ele>2374.1</ele>
        <time>2020-02-14T06:22:03.761Z</time>
      </trkpt>
      <trkpt lat="42.62717" lon="1.92669">
        <ele>2372.7</ele>
        <time>2020-02-14T06:22:04.353Z</time>
      </trkpt>
      <trkpt lat="42.62717" lon="1.92669">
        <ele>2376.1</ele>
        <time>2020-02-14T06:22:05.518Z</time>
      </trkpt>
      <trkpt lat="42.62716" lon="1.9267">
        <ele>2374.6</ele>
        <time>2020-02-14T06:22:06.167Z</time>
      </trkpt>
      <trkpt lat="42.62715" lon="1.92676">
        <ele>2373.6</ele>
        <time>2020-02-14T06:22:07.942Z</time>
      </trkpt>
      <trkpt lat="42.62716" lon="1.92679">
        <ele>2372.8</ele>
        <time>2020-02-14T06:22:09.130Z</time>
      </trkpt>
      <trkpt lat="42.62716" lon="1.92682">
        <ele>2372.7</ele>
        <time>2020-02-14T06:22:09.786Z</time>
      </trkpt>
      <trkpt lat="42.62719" lon="1.92689">
        <ele>2370.8</ele>
        <time>2020-02-14T06:22:12.141Z</time>
      </trkpt>
      <trkpt lat="42.62719" lon="1.92694">
        <ele>2368.5</ele>
        <time>2020-02-14T06:22:13.961Z</time>
      </trkpt>
      <trkpt lat="42.62714" lon="1.92707">
        <ele>2365.1</ele>
        <time>2020-02-14T06:22:18.115Z</time>
      </trkpt>
      <trkpt lat="42.62713" lon="1.92716">
        <ele>2363.1</ele>
        <time>2020-02-14T06:22:20.810Z</time>
      </trkpt>
      <trkpt lat="42.62718" lon="1.92722">
        <ele>2362.1</ele>
        <time>2020-02-14T06:22:23.129Z</time>
      </trkpt>
      <trkpt lat="42.62719" lon="1.92727">
        <ele>2359.7</ele>
        <time>2020-02-14T06:22:25.028Z</time>
      </trkpt>
      <trkpt lat="42.6272" lon="1.92731">
        <ele>2357.9</ele>
        <time>2020-02-14T06:22:26.381Z</time>
      </trkpt>
      <trkpt lat="42.6272" lon="1.92735">
        <ele>2357.8</ele>
        <time>2020-02-14T06:22:27.502Z</time>
      </trkpt>
      <trkpt lat="42.62722" lon="1.92745">
        <ele>2355.4</ele>
        <time>2020-02-14T06:22:30.411Z</time>
      </trkpt>
      <trkpt lat="42.62724" lon="1.9275">
        <ele>2353</ele>
        <time>2020-02-14T06:22:32.215Z</time>
      </trkpt>
      <trkpt lat="42.62728" lon="1.92754">
        <ele>2351.6</ele>
        <time>2020-02-14T06:22:34.021Z</time>
      </trkpt>
      <trkpt lat="42.62726" lon="1.92758">
        <ele>2348.7</ele>
        <time>2020-02-14T06:22:35.643Z</time>
      </trkpt>
      <trkpt lat="42.62727" lon="1.92763">
        <ele>2347.2</ele>
        <time>2020-02-14T06:22:37.300Z</time>
      </trkpt>
      <trkpt lat="42.62728" lon="1.92768">
        <ele>2344.4</ele>
        <time>2020-02-14T06:22:39.077Z</time>
      </trkpt>
      <trkpt lat="42.62733" lon="1.92779">
        <ele>2341.9</ele>
        <time>2020-02-14T06:22:42.818Z</time>
      </trkpt>
      <trkpt lat="42.62731" lon="1.92782">
        <ele>2339.5</ele>
        <time>2020-02-14T06:22:44.252Z</time>
      </trkpt>
      <trkpt lat="42.62727" lon="1.92785">
        <ele>2336.2</ele>
        <time>2020-02-14T06:22:46.500Z</time>
      </trkpt>
      <trkpt lat="42.62721" lon="1.92787">
        <ele>2334.3</ele>
        <time>2020-02-14T06:22:48.679Z</time>
      </trkpt>
      <trkpt lat="42.62716" lon="1.92787">
        <ele>2332.3</ele>
        <time>2020-02-14T06:22:51.020Z</time>
      </trkpt>
      <trkpt lat="42.62714" lon="1.92789">
        <ele>2331</ele>
        <time>2020-02-14T06:22:52.067Z</time>
      </trkpt>
      <trkpt lat="42.62713" lon="1.9279">
        <ele>2329.4</ele>
        <time>2020-02-14T06:22:52.753Z</time>
      </trkpt>
      <trkpt lat="42.62718" lon="1.92799">
        <ele>2326.6</ele>
        <time>2020-02-14T06:22:56.326Z</time>
      </trkpt>
      <trkpt lat="42.62717" lon="1.92804">
        <ele>2324.7</ele>
        <time>2020-02-14T06:22:57.899Z</time>
      </trkpt>
      <trkpt lat="42.62712" lon="1.92803">
        <ele>2321.2</ele>
        <time>2020-02-14T06:23:00.184Z</time>
      </trkpt>
      <trkpt lat="42.62706" lon="1.92805">
        <ele>2318.4</ele>
        <time>2020-02-14T06:23:02.791Z</time>
      </trkpt>
      <trkpt lat="42.62704" lon="1.92807">
        <ele>2317.9</ele>
        <time>2020-02-14T06:23:03.747Z</time>
      </trkpt>
      <trkpt lat="42.62697" lon="1.92804">
        <ele>2316</ele>
        <time>2020-02-14T06:23:06.710Z</time>
      </trkpt>
      <trkpt lat="42.6269" lon="1.92801">
        <ele>2313.6</ele>
        <time>2020-02-14T06:23:09.641Z</time>
      </trkpt>
      <trkpt lat="42.62687" lon="1.92801">
        <ele>2311.3</ele>
        <time>2020-02-14T06:23:11.068Z</time>
      </trkpt>
      <trkpt lat="42.62688" lon="1.92807">
        <ele>2307.9</ele>
        <time>2020-02-14T06:23:13.117Z</time>
      </trkpt>
      <trkpt lat="42.62689" lon="1.92815">
        <ele>2306.4</ele>
        <time>2020-02-14T06:23:15.503Z</time>
      </trkpt>
      <trkpt lat="42.62689" lon="1.92823">
        <ele>2303.1</ele>
        <time>2020-02-14T06:23:18.097Z</time>
      </trkpt>
      <trkpt lat="42.62689" lon="1.92834">
        <ele>2299.7</ele>
        <time>2020-02-14T06:23:21.412Z</time>
      </trkpt>
      <trkpt lat="42.6269" lon="1.92836">
        <ele>2298.7</ele>
        <time>2020-02-14T06:23:22.056Z</time>
      </trkpt>
      <trkpt lat="42.62685" lon="1.92836">
        <ele>2295.8</ele>
        <time>2020-02-14T06:23:24.069Z</time>
      </trkpt>
      <trkpt lat="42.6268" lon="1.92837">
        <ele>2293.9</ele>
        <time>2020-02-14T06:23:26.381Z</time>
      </trkpt>
      <trkpt lat="42.62681" lon="1.92845">
        <ele>2291.9</ele>
        <time>2020-02-14T06:23:28.930Z</time>
      </trkpt>
      <trkpt lat="42.62679" lon="1.9285">
        <ele>2288.6</ele>
        <time>2020-02-14T06:23:31.015Z</time>
      </trkpt>
      <trkpt lat="42.62673" lon="1.92848">
        <ele>2286.6</ele>
        <time>2020-02-14T06:23:33.451Z</time>
      </trkpt>
      <trkpt lat="42.6267" lon="1.92848">
        <ele>2283.8</ele>
        <time>2020-02-14T06:23:34.959Z</time>
      </trkpt>
      <trkpt lat="42.62669" lon="1.92856">
        <ele>2281.5</ele>
        <time>2020-02-14T06:23:37.302Z</time>
      </trkpt>
      <trkpt lat="42.62665" lon="1.92858">
        <ele>2279</ele>
        <time>2020-02-14T06:23:39.345Z</time>
      </trkpt>
      <trkpt lat="42.6266" lon="1.92854">
        <ele>2277</ele>
        <time>2020-02-14T06:23:41.520Z</time>
      </trkpt>
      <trkpt lat="42.62656" lon="1.92857">
        <ele>2274.1</ele>
        <time>2020-02-14T06:23:43.688Z</time>
      </trkpt>
      <trkpt lat="42.62651" lon="1.92859">
        <ele>2270.3</ele>
        <time>2020-02-14T06:23:46.040Z</time>
      </trkpt>
      <trkpt lat="42.62646" lon="1.92855">
        <ele>2268.5</ele>
        <time>2020-02-14T06:23:48.343Z</time>
      </trkpt>
      <trkpt lat="42.62644" lon="1.92852">
        <ele>2267.9</ele>
        <time>2020-02-14T06:23:49.315Z</time>
      </trkpt>
      <trkpt lat="42.62635" lon="1.92849">
        <ele>2266.5</ele>
        <time>2020-02-14T06:23:53.133Z</time>
      </trkpt>
      <trkpt lat="42.62625" lon="1.92854">
        <ele>2264</ele>
        <time>2020-02-14T06:23:57.238Z</time>
      </trkpt>
      <trkpt lat="42.62624" lon="1.92857">
        <ele>2262.6</ele>
        <time>2020-02-14T06:23:58.424Z</time>
      </trkpt>
      <trkpt lat="42.62619" lon="1.92862">
        <ele>2260.8</ele>
        <time>2020-02-14T06:24:00.537Z</time>
      </trkpt>
      <trkpt lat="42.62612" lon="1.92864">
        <ele>2259.8</ele>
        <time>2020-02-14T06:24:03.670Z</time>
      </trkpt>
      <trkpt lat="42.626" lon="1.92865">
        <ele>2257.8</ele>
        <time>2020-02-14T06:24:08.126Z</time>
      </trkpt>
      <trkpt lat="42.62592" lon="1.92862">
        <ele>2256.8</ele>
        <time>2020-02-14T06:24:11.395Z</time>
      </trkpt>
      <trkpt lat="42.62587" lon="1.92864">
        <ele>2254.9</ele>
        <time>2020-02-14T06:24:13.646Z</time>
      </trkpt>
      <trkpt lat="42.62586" lon="1.92866">
        <ele>2254.4</ele>
        <time>2020-02-14T06:24:14.377Z</time>
      </trkpt>
      <trkpt lat="42.62581" lon="1.92873">
        <ele>2254</ele>
        <time>2020-02-14T06:24:17.175Z</time>
      </trkpt>
      <trkpt lat="42.6257" lon="1.92875">
        <ele>2252.6</ele>
        <time>2020-02-14T06:24:21.625Z</time>
      </trkpt>
      <trkpt lat="42.62562" lon="1.92876">
        <ele>2251.5</ele>
        <time>2020-02-14T06:24:24.750Z</time>
      </trkpt>
      <trkpt lat="42.62555" lon="1.92883">
        <ele>2248.7</ele>
        <time>2020-02-14T06:24:28.212Z</time>
      </trkpt>
      <trkpt lat="42.62553" lon="1.92885">
        <ele>2248.2</ele>
        <time>2020-02-14T06:24:29.302Z</time>
      </trkpt>
      <trkpt lat="42.62547" lon="1.92876">
        <ele>2245.4</ele>
        <time>2020-02-14T06:24:32.735Z</time>
      </trkpt>
      <trkpt lat="42.62544" lon="1.92877">
        <ele>2243.5</ele>
        <time>2020-02-14T06:24:33.979Z</time>
      </trkpt>
      <trkpt lat="42.6254" lon="1.92875">
        <ele>2241.6</ele>
        <time>2020-02-14T06:24:35.742Z</time>
      </trkpt>
      <trkpt lat="42.62539" lon="1.92869">
        <ele>2239.6</ele>
        <time>2020-02-14T06:24:37.563Z</time>
      </trkpt>
      <trkpt lat="42.62538" lon="1.92865">
        <ele>2237.1</ele>
        <time>2020-02-14T06:24:39.195Z</time>
      </trkpt>
      <trkpt lat="42.62534" lon="1.92862">
        <ele>2236.2</ele>
        <time>2020-02-14T06:24:40.802Z</time>
      </trkpt>
      <trkpt lat="42.62528" lon="1.92864">
        <ele>2234.3</ele>
        <time>2020-02-14T06:24:43.217Z</time>
      </trkpt>
      <trkpt lat="42.62527" lon="1.9286">
        <ele>2231</ele>
        <time>2020-02-14T06:24:44.943Z</time>
      </trkpt>
      <trkpt lat="42.62525" lon="1.92856">
        <ele>2228</ele>
        <time>2020-02-14T06:24:46.681Z</time>
      </trkpt>
      <trkpt lat="42.62522" lon="1.92853">
        <ele>2226.1</ele>
        <time>2020-02-14T06:24:48.161Z</time>
      </trkpt>
      <trkpt lat="42.62519" lon="1.92852">
        <ele>2224.3</ele>
        <time>2020-02-14T06:24:49.754Z</time>
      </trkpt>
      <trkpt lat="42.62513" lon="1.92852">
        <ele>2220.9</ele>
        <time>2020-02-14T06:24:52.080Z</time>
      </trkpt>
      <trkpt lat="42.62508" lon="1.92865">
        <ele>2219.8</ele>
        <time>2020-02-14T06:24:56.484Z</time>
      </trkpt>
      <trkpt lat="42.62499" lon="1.92863">
        <ele>2216.9</ele>
        <time>2020-02-14T06:25:00.113Z</time>
      </trkpt>
      <trkpt lat="42.62494" lon="1.92862">
        <ele>2214.6</ele>
        <time>2020-02-14T06:25:02.296Z</time>
      </trkpt>
      <trkpt lat="42.6249" lon="1.92862">
        <ele>2212.2</ele>
        <time>2020-02-14T06:25:03.985Z</time>
      </trkpt>
      <trkpt lat="42.6249" lon="1.92861">
        <ele>2212.2</ele>
        <time>2020-02-14T06:25:04.350Z</time>
      </trkpt>
      <trkpt lat="42.62489" lon="1.92861">
        <ele>2211.3</ele>
        <time>2020-02-14T06:25:04.894Z</time>
      </trkpt>
      <trkpt lat="42.62486" lon="1.92862">
        <ele>2209.3</ele>
        <time>2020-02-14T06:25:06.318Z</time>
      </trkpt>
      <trkpt lat="42.62483" lon="1.92858">
        <ele>2207.3</ele>
        <time>2020-02-14T06:25:08.197Z</time>
      </trkpt>
      <trkpt lat="42.6248" lon="1.92858">
        <ele>2205.9</ele>
        <time>2020-02-14T06:25:09.246Z</time>
      </trkpt>
      <trkpt lat="42.62477" lon="1.92859">
        <ele>2204</ele>
        <time>2020-02-14T06:25:10.776Z</time>
      </trkpt>
      <trkpt lat="42.62476" lon="1.92861">
        <ele>2202.6</ele>
        <time>2020-02-14T06:25:11.568Z</time>
      </trkpt>
      <trkpt lat="42.62473" lon="1.92856">
        <ele>2199.3</ele>
        <time>2020-02-14T06:25:13.624Z</time>
      </trkpt>
      <trkpt lat="42.62464" lon="1.92862">
        <ele>2196.9</ele>
        <time>2020-02-14T06:25:17.503Z</time>
      </trkpt>
      <trkpt lat="42.62459" lon="1.92861">
        <ele>2195.3</ele>
        <time>2020-02-14T06:25:19.364Z</time>
      </trkpt>
      <trkpt lat="42.62452" lon="1.92864">
        <ele>2192</ele>
        <time>2020-02-14T06:25:22.489Z</time>
      </trkpt>
      <trkpt lat="42.62451" lon="1.92865">
        <ele>2191.6</ele>
        <time>2020-02-14T06:25:23.191Z</time>
      </trkpt>
      <trkpt lat="42.62449" lon="1.92871">
        <ele>2191.1</ele>
        <time>2020-02-14T06:25:24.904Z</time>
      </trkpt>
      <trkpt lat="42.62442" lon="1.92881">
        <ele>2189.5</ele>
        <time>2020-02-14T06:25:28.944Z</time>
      </trkpt>
      <trkpt lat="42.62441" lon="1.92882">
        <ele>2188.6</ele>
        <time>2020-02-14T06:25:29.678Z</time>
      </trkpt>
      <trkpt lat="42.62437" lon="1.9288">
        <ele>2186.7</ele>
        <time>2020-02-14T06:25:31.246Z</time>
      </trkpt>
      <trkpt lat="42.62433" lon="1.92877">
        <ele>2184.4</ele>
        <time>2020-02-14T06:25:33.269Z</time>
      </trkpt>
      <trkpt lat="42.62426" lon="1.92881">
        <ele>2182.9</ele>
        <time>2020-02-14T06:25:36.256Z</time>
      </trkpt>
      <trkpt lat="42.62421" lon="1.92885">
        <ele>2179.5</ele>
        <time>2020-02-14T06:25:38.918Z</time>
      </trkpt>
      <trkpt lat="42.62416" lon="1.92884">
        <ele>2176.7</ele>
        <time>2020-02-14T06:25:41.027Z</time>
      </trkpt>
      <trkpt lat="42.62413" lon="1.92882">
        <ele>2176.7</ele>
        <time>2020-02-14T06:25:42.263Z</time>
      </trkpt>
      <trkpt lat="42.62414" lon="1.92881">
        <ele>2175.7</ele>
        <time>2020-02-14T06:25:42.923Z</time>
      </trkpt>
      <trkpt lat="42.62413" lon="1.92879">
        <ele>2174.3</ele>
        <time>2020-02-14T06:25:43.677Z</time>
      </trkpt>
      <trkpt lat="42.62407" lon="1.92863">
        <ele>2171.8</ele>
        <time>2020-02-14T06:25:48.965Z</time>
      </trkpt>
      <trkpt lat="42.62402" lon="1.92853">
        <ele>2169</ele>
        <time>2020-02-14T06:25:52.486Z</time>
      </trkpt>
      <trkpt lat="42.62399" lon="1.9285">
        <ele>2165.5</ele>
        <time>2020-02-14T06:25:54.530Z</time>
      </trkpt>
      <trkpt lat="42.62396" lon="1.92847">
        <ele>2162.1</ele>
        <time>2020-02-14T06:25:56.300Z</time>
      </trkpt>
      <trkpt lat="42.62391" lon="1.92841">
        <ele>2162.2</ele>
        <time>2020-02-14T06:25:58.711Z</time>
      </trkpt>
      <trkpt lat="42.62383" lon="1.92842">
        <ele>2159.4</ele>
        <time>2020-02-14T06:26:01.951Z</time>
      </trkpt>
      <trkpt lat="42.62375" lon="1.9284">
        <ele>2156</ele>
        <time>2020-02-14T06:26:05.557Z</time>
      </trkpt>
      <trkpt lat="42.62369" lon="1.92836">
        <ele>2153.5</ele>
        <time>2020-02-14T06:26:08.107Z</time>
      </trkpt>
      <trkpt lat="42.62366" lon="1.92832">
        <ele>2152.5</ele>
        <time>2020-02-14T06:26:09.935Z</time>
      </trkpt>
      <trkpt lat="42.62357" lon="1.9283">
        <ele>2151.2</ele>
        <time>2020-02-14T06:26:13.339Z</time>
      </trkpt>
      <trkpt lat="42.62348" lon="1.92828">
        <ele>2147.8</ele>
        <time>2020-02-14T06:26:17.106Z</time>
      </trkpt>
      <trkpt lat="42.62344" lon="1.92827">
        <ele>2146.3</ele>
        <time>2020-02-14T06:26:18.611Z</time>
      </trkpt>
      <trkpt lat="42.62341" lon="1.92828">
        <ele>2145.9</ele>
        <time>2020-02-14T06:26:19.800Z</time>
      </trkpt>
      <trkpt lat="42.62338" lon="1.92831">
        <ele>2144.4</ele>
        <time>2020-02-14T06:26:21.397Z</time>
      </trkpt>
      <trkpt lat="42.62331" lon="1.92848">
        <ele>2138.1</ele>
        <time>2020-02-14T06:26:27.266Z</time>
      </trkpt>
      <trkpt lat="42.6233" lon="1.92849">
        <ele>2141.5</ele>
        <time>2020-02-14T06:26:28.517Z</time>
      </trkpt>
      <trkpt lat="42.6233" lon="1.9285">
        <ele>2141</ele>
        <time>2020-02-14T06:26:28.933Z</time>
      </trkpt>
      <trkpt lat="42.62329" lon="1.92854">
        <ele>2144</ele>
        <time>2020-02-14T06:26:30.405Z</time>
      </trkpt>
      <trkpt lat="42.62329" lon="1.92857">
        <ele>2140</ele>
        <time>2020-02-14T06:26:32.039Z</time>
      </trkpt>
      <trkpt lat="42.62329" lon="1.92858">
        <ele>2140.1</ele>
        <time>2020-02-14T06:26:32.468Z</time>
      </trkpt>
      <trkpt lat="42.62325" lon="1.92868">
        <ele>2137.2</ele>
        <time>2020-02-14T06:26:35.731Z</time>
      </trkpt>
      <trkpt lat="42.62321" lon="1.92875">
        <ele>2135.7</ele>
        <time>2020-02-14T06:26:38.405Z</time>
      </trkpt>
      <trkpt lat="42.62313" lon="1.92884">
        <ele>2132.4</ele>
        <time>2020-02-14T06:26:42.699Z</time>
      </trkpt>
      <trkpt lat="42.62312" lon="1.92882">
        <ele>2131.9</ele>
        <time>2020-02-14T06:26:43.220Z</time>
      </trkpt>
      <trkpt lat="42.62306" lon="1.9288">
        <ele>2129.5</ele>
        <time>2020-02-14T06:26:45.858Z</time>
      </trkpt>
      <trkpt lat="42.62302" lon="1.92881">
        <ele>2128</ele>
        <time>2020-02-14T06:26:47.577Z</time>
      </trkpt>
      <trkpt lat="42.62295" lon="1.92877">
        <ele>2126.7</ele>
        <time>2020-02-14T06:26:50.588Z</time>
      </trkpt>
      <trkpt lat="42.62291" lon="1.92878">
        <ele>2123.7</ele>
        <time>2020-02-14T06:26:52.498Z</time>
      </trkpt>
      <trkpt lat="42.62291" lon="1.92878">
        <ele>2122.4</ele>
        <time>2020-02-14T06:26:53.089Z</time>
      </trkpt>
      <trkpt lat="42.62287" lon="1.92882">
        <ele>2119</ele>
        <time>2020-02-14T06:26:55.438Z</time>
      </trkpt>
      <trkpt lat="42.62279" lon="1.92883">
        <ele>2116.5</ele>
        <time>2020-02-14T06:26:58.879Z</time>
      </trkpt>
      <trkpt lat="42.62276" lon="1.92885">
        <ele>2114.1</ele>
        <time>2020-02-14T06:27:00.391Z</time>
      </trkpt>
      <trkpt lat="42.62273" lon="1.92888">
        <ele>2111.3</ele>
        <time>2020-02-14T06:27:02.025Z</time>
      </trkpt>
      <trkpt lat="42.62266" lon="1.9289">
        <ele>2108.3</ele>
        <time>2020-02-14T06:27:05.158Z</time>
      </trkpt>
      <trkpt lat="42.62266" lon="1.92899">
        <ele>2105.4</ele>
        <time>2020-02-14T06:27:07.784Z</time>
      </trkpt>
      <trkpt lat="42.62264" lon="1.92904">
        <ele>2103</ele>
        <time>2020-02-14T06:27:09.813Z</time>
      </trkpt>
      <trkpt lat="42.62261" lon="1.92909">
        <ele>2101.1</ele>
        <time>2020-02-14T06:27:11.674Z</time>
      </trkpt>
      <trkpt lat="42.62261" lon="1.92913">
        <ele>2100.1</ele>
        <time>2020-02-14T06:27:12.835Z</time>
      </trkpt>
      <trkpt lat="42.62259" lon="1.92928">
        <ele>2096.9</ele>
        <time>2020-02-14T06:27:17.185Z</time>
      </trkpt>
      <trkpt lat="42.62255" lon="1.92931">
        <ele>2095.4</ele>
        <time>2020-02-14T06:27:19.117Z</time>
      </trkpt>
      <trkpt lat="42.62254" lon="1.92934">
        <ele>2095</ele>
        <time>2020-02-14T06:27:20.077Z</time>
      </trkpt>
      <trkpt lat="42.62252" lon="1.92936">
        <ele>2094</ele>
        <time>2020-02-14T06:27:21.010Z</time>
      </trkpt>
      <trkpt lat="42.62249" lon="1.92935">
        <ele>2092.9</ele>
        <time>2020-02-14T06:27:22.190Z</time>
      </trkpt>
      <trkpt lat="42.62244" lon="1.92938">
        <ele>2092.5</ele>
        <time>2020-02-14T06:27:24.436Z</time>
      </trkpt>
      <trkpt lat="42.62244" lon="1.92942">
        <ele>2092.1</ele>
        <time>2020-02-14T06:27:25.437Z</time>
      </trkpt>
      <trkpt lat="42.62246" lon="1.92953">
        <ele>2090.5</ele>
        <time>2020-02-14T06:27:28.836Z</time>
      </trkpt>
      <trkpt lat="42.62245" lon="1.92962">
        <ele>2089.6</ele>
        <time>2020-02-14T06:27:31.307Z</time>
      </trkpt>
      <trkpt lat="42.62244" lon="1.92974">
        <ele>2088.6</ele>
        <time>2020-02-14T06:27:34.855Z</time>
      </trkpt>
      <trkpt lat="42.62242" lon="1.92979">
        <ele>2086.8</ele>
        <time>2020-02-14T06:27:36.311Z</time>
      </trkpt>
      <trkpt lat="42.62241" lon="1.92988">
        <ele>2085.2</ele>
        <time>2020-02-14T06:27:39.159Z</time>
      </trkpt>
      <trkpt lat="42.6224" lon="1.92996">
        <ele>2083.3</ele>
        <time>2020-02-14T06:27:41.432Z</time>
      </trkpt>
      <trkpt lat="42.62241" lon="1.93004">
        <ele>2082.4</ele>
        <time>2020-02-14T06:27:43.941Z</time>
      </trkpt>
      <trkpt lat="42.62241" lon="1.93006">
        <ele>2081</ele>
        <time>2020-02-14T06:27:44.638Z</time>
      </trkpt>
      <trkpt lat="42.62241" lon="1.93012">
        <ele>2079.6</ele>
        <time>2020-02-14T06:27:46.320Z</time>
      </trkpt>
      <trkpt lat="42.62243" lon="1.93014">
        <ele>2078.6</ele>
        <time>2020-02-14T06:27:47.115Z</time>
      </trkpt>
      <trkpt lat="42.62246" lon="1.93017">
        <ele>2077.1</ele>
        <time>2020-02-14T06:27:48.694Z</time>
      </trkpt>
      <trkpt lat="42.62248" lon="1.93024">
        <ele>2075.1</ele>
        <time>2020-02-14T06:27:50.929Z</time>
      </trkpt>
      <trkpt lat="42.62251" lon="1.93028">
        <ele>2072.3</ele>
        <time>2020-02-14T06:27:52.749Z</time>
      </trkpt>
      <trkpt lat="42.62247" lon="1.93042">
        <ele>2068.9</ele>
        <time>2020-02-14T06:27:57.254Z</time>
      </trkpt>
      <trkpt lat="42.62246" lon="1.93059">
        <ele>2067.9</ele>
        <time>2020-02-14T06:28:01.960Z</time>
      </trkpt>
      <trkpt lat="42.62247" lon="1.93071">
        <ele>2065.6</ele>
        <time>2020-02-14T06:28:05.530Z</time>
      </trkpt>
      <trkpt lat="42.62246" lon="1.9308">
        <ele>2064.1</ele>
        <time>2020-02-14T06:28:08.212Z</time>
      </trkpt>
      <trkpt lat="42.62245" lon="1.93088">
        <ele>2062.3</ele>
        <time>2020-02-14T06:28:10.442Z</time>
      </trkpt>
      <trkpt lat="42.62245" lon="1.93092">
        <ele>2061.7</ele>
        <time>2020-02-14T06:28:11.573Z</time>
      </trkpt>
      <trkpt lat="42.62245" lon="1.93094">
        <ele>2060.7</ele>
        <time>2020-02-14T06:28:12.441Z</time>
      </trkpt>
      <trkpt lat="42.62245" lon="1.93096">
        <ele>2059.9</ele>
        <time>2020-02-14T06:28:12.905Z</time>
      </trkpt>
      <trkpt lat="42.62245" lon="1.93097">
        <ele>2059.4</ele>
        <time>2020-02-14T06:28:13.483Z</time>
      </trkpt>
      <trkpt lat="42.62245" lon="1.93099">
        <ele>2058.8</ele>
        <time>2020-02-14T06:28:13.928Z</time>
      </trkpt>
      <trkpt lat="42.62244" lon="1.93103">
        <ele>2055.9</ele>
        <time>2020-02-14T06:28:15.609Z</time>
      </trkpt>
      <trkpt lat="42.62242" lon="1.9312">
        <ele>2053.5</ele>
        <time>2020-02-14T06:28:20.402Z</time>
      </trkpt>
      <trkpt lat="42.62244" lon="1.93127">
        <ele>2051.6</ele>
        <time>2020-02-14T06:28:22.502Z</time>
      </trkpt>
      <trkpt lat="42.62247" lon="1.93127">
        <ele>2048.8</ele>
        <time>2020-02-14T06:28:24.002Z</time>
      </trkpt>
      <trkpt lat="42.62247" lon="1.93126">
        <ele>2049.3</ele>
        <time>2020-02-14T06:28:24.308Z</time>
      </trkpt>
      <trkpt lat="42.62252" lon="1.93125">
        <ele>2046.8</ele>
        <time>2020-02-14T06:28:26.484Z</time>
      </trkpt>
      <trkpt lat="42.6225" lon="1.93133">
        <ele>2045</ele>
        <time>2020-02-14T06:28:29.047Z</time>
      </trkpt>
      <trkpt lat="42.62252" lon="1.93138">
        <ele>2042.9</ele>
        <time>2020-02-14T06:28:30.745Z</time>
      </trkpt>
      <trkpt lat="42.62252" lon="1.93146">
        <ele>2040.5</ele>
        <time>2020-02-14T06:28:33.118Z</time>
      </trkpt>
      <trkpt lat="42.62254" lon="1.93149">
        <ele>2038.1</ele>
        <time>2020-02-14T06:28:34.635Z</time>
      </trkpt>
      <trkpt lat="42.62252" lon="1.93153">
        <ele>2035.7</ele>
        <time>2020-02-14T06:28:36.352Z</time>
      </trkpt>
      <trkpt lat="42.62252" lon="1.93157">
        <ele>2032.4</ele>
        <time>2020-02-14T06:28:37.985Z</time>
      </trkpt>
      <trkpt lat="42.62249" lon="1.93165">
        <ele>2030</ele>
        <time>2020-02-14T06:28:40.721Z</time>
      </trkpt>
      <trkpt lat="42.62248" lon="1.93171">
        <ele>2027.2</ele>
        <time>2020-02-14T06:28:42.601Z</time>
      </trkpt>
      <trkpt lat="42.62249" lon="1.93182">
        <ele>2023.8</ele>
        <time>2020-02-14T06:28:46.119Z</time>
      </trkpt>
      <trkpt lat="42.62246" lon="1.93192">
        <ele>2020.8</ele>
        <time>2020-02-14T06:28:49.271Z</time>
      </trkpt>
      <trkpt lat="42.62248" lon="1.93198">
        <ele>2017.5</ele>
        <time>2020-02-14T06:28:51.588Z</time>
      </trkpt>
      <trkpt lat="42.62243" lon="1.93201">
        <ele>2015.1</ele>
        <time>2020-02-14T06:28:53.901Z</time>
      </trkpt>
      <trkpt lat="42.62244" lon="1.9321">
        <ele>2012.2</ele>
        <time>2020-02-14T06:28:56.587Z</time>
      </trkpt>
      <trkpt lat="42.62245" lon="1.93219">
        <ele>2010.4</ele>
        <time>2020-02-14T06:28:59.259Z</time>
      </trkpt>
      <trkpt lat="42.62246" lon="1.93223">
        <ele>2008.4</ele>
        <time>2020-02-14T06:29:00.791Z</time>
      </trkpt>
      <trkpt lat="42.62243" lon="1.93228">
        <ele>2007.4</ele>
        <time>2020-02-14T06:29:02.475Z</time>
      </trkpt>
      <trkpt lat="42.6224" lon="1.93229">
        <ele>2006.4</ele>
        <time>2020-02-14T06:29:04.035Z</time>
      </trkpt>
      <trkpt lat="42.62238" lon="1.93235">
        <ele>2003.5</ele>
        <time>2020-02-14T06:29:06.042Z</time>
      </trkpt>
      <trkpt lat="42.62238" lon="1.93237">
        <ele>1999.8</ele>
        <time>2020-02-14T06:29:07.461Z</time>
      </trkpt>
      <trkpt lat="42.62235" lon="1.93249">
        <ele>1996.9</ele>
        <time>2020-02-14T06:29:11.370Z</time>
      </trkpt>
      <trkpt lat="42.62237" lon="1.93261">
        <ele>1993.4</ele>
        <time>2020-02-14T06:29:14.972Z</time>
      </trkpt>
      <trkpt lat="42.62237" lon="1.93262">
        <ele>1993.1</ele>
        <time>2020-02-14T06:29:15.357Z</time>
      </trkpt>
      <trkpt lat="42.62232" lon="1.93275">
        <ele>1992.1</ele>
        <time>2020-02-14T06:29:19.388Z</time>
      </trkpt>
      <trkpt lat="42.62231" lon="1.93277">
        <ele>1992.1</ele>
        <time>2020-02-14T06:29:20.231Z</time>
      </trkpt>
      <trkpt lat="42.62223" lon="1.93295">
        <ele>1989.7</ele>
        <time>2020-02-14T06:29:26.120Z</time>
      </trkpt>
      <trkpt lat="42.62223" lon="1.93303">
        <ele>1987.2</ele>
        <time>2020-02-14T06:29:28.409Z</time>
      </trkpt>
      <trkpt lat="42.62223" lon="1.93303">
        <ele>1986.2</ele>
        <time>2020-02-14T06:29:28.852Z</time>
      </trkpt>
      <trkpt lat="42.62222" lon="1.93316">
        <ele>1983.3</ele>
        <time>2020-02-14T06:29:32.635Z</time>
      </trkpt>
      <trkpt lat="42.62221" lon="1.93324">
        <ele>1980.9</ele>
        <time>2020-02-14T06:29:34.960Z</time>
      </trkpt>
      <trkpt lat="42.6222" lon="1.93334">
        <ele>1978.1</ele>
        <time>2020-02-14T06:29:37.976Z</time>
      </trkpt>
      <trkpt lat="42.62221" lon="1.93351">
        <ele>1975.2</ele>
        <time>2020-02-14T06:29:42.962Z</time>
      </trkpt>
      <trkpt lat="42.62219" lon="1.93354">
        <ele>1974.3</ele>
        <time>2020-02-14T06:29:44.286Z</time>
      </trkpt>
      <trkpt lat="42.62212" lon="1.93368">
        <ele>1973.3</ele>
        <time>2020-02-14T06:29:48.837Z</time>
      </trkpt>
      <trkpt lat="42.62212" lon="1.93371">
        <ele>1973.8</ele>
        <time>2020-02-14T06:29:49.789Z</time>
      </trkpt>
      <trkpt lat="42.6221" lon="1.93376">
        <ele>1972.8</ele>
        <time>2020-02-14T06:29:51.482Z</time>
      </trkpt>
      <trkpt lat="42.62213" lon="1.93388">
        <ele>1971.8</ele>
        <time>2020-02-14T06:29:55.032Z</time>
      </trkpt>
      <trkpt lat="42.62213" lon="1.93394">
        <ele>1971.9</ele>
        <time>2020-02-14T06:29:56.828Z</time>
      </trkpt>
      <trkpt lat="42.62209" lon="1.93406">
        <ele>1970.8</ele>
        <time>2020-02-14T06:30:00.723Z</time>
      </trkpt>
      <trkpt lat="42.62206" lon="1.93411">
        <ele>1970.8</ele>
        <time>2020-02-14T06:30:02.527Z</time>
      </trkpt>
      <trkpt lat="42.62203" lon="1.93431">
        <ele>1969.4</ele>
        <time>2020-02-14T06:30:08.530Z</time>
      </trkpt>
      <trkpt lat="42.62206" lon="1.93439">
        <ele>1968.9</ele>
        <time>2020-02-14T06:30:11.028Z</time>
      </trkpt>
      <trkpt lat="42.62211" lon="1.93455">
        <ele>1969</ele>
        <time>2020-02-14T06:30:15.978Z</time>
      </trkpt>
      <trkpt lat="42.62217" lon="1.93466">
        <ele>1968</ele>
        <time>2020-02-14T06:30:19.979Z</time>
      </trkpt>
      <trkpt lat="42.62221" lon="1.93472">
        <ele>1966.5</ele>
        <time>2020-02-14T06:30:22.306Z</time>
      </trkpt>
      <trkpt lat="42.62221" lon="1.93472">
        <ele>1966.6</ele>
        <time>2020-02-14T06:30:22.331Z</time>
      </trkpt>
      <trkpt lat="42.62234" lon="1.93485">
        <ele>1966.6</ele>
        <time>2020-02-14T06:30:28.675Z</time>
      </trkpt>
      <trkpt lat="42.62239" lon="1.93495">
        <ele>1966.5</ele>
        <time>2020-02-14T06:30:31.944Z</time>
      </trkpt>
      <trkpt lat="42.62246" lon="1.93513">
        <ele>1966.6</ele>
        <time>2020-02-14T06:30:37.868Z</time>
      </trkpt>
      <trkpt lat="42.62246" lon="1.93514">
        <ele>1967</ele>
        <time>2020-02-14T06:30:38.158Z</time>
      </trkpt>
      <trkpt lat="42.62252" lon="1.93525">
        <ele>1966.5</ele>
        <time>2020-02-14T06:30:41.942Z</time>
      </trkpt>
      <trkpt lat="42.62254" lon="1.93538">
        <ele>1966.5</ele>
        <time>2020-02-14T06:30:45.815Z</time>
      </trkpt>
      <trkpt lat="42.62259" lon="1.93553">
        <ele>1966.6</ele>
        <time>2020-02-14T06:30:50.351Z</time>
      </trkpt>
      <trkpt lat="42.62264" lon="1.93561">
        <ele>1966.6</ele>
        <time>2020-02-14T06:30:53.193Z</time>
      </trkpt>
      <trkpt lat="42.6227" lon="1.93567">
        <ele>1967.6</ele>
        <time>2020-02-14T06:30:56.299Z</time>
      </trkpt>
      <trkpt lat="42.62281" lon="1.93575">
        <ele>1969.9</ele>
        <time>2020-02-14T06:31:01.141Z</time>
      </trkpt>
      <trkpt lat="42.62282" lon="1.93577">
        <ele>1970.8</ele>
        <time>2020-02-14T06:31:01.919Z</time>
      </trkpt>
      <trkpt lat="42.62291" lon="1.9358">
        <ele>1970.5</ele>
        <time>2020-02-14T06:31:05.313Z</time>
      </trkpt>
      <trkpt lat="42.62295" lon="1.93583">
        <ele>1970</ele>
        <time>2020-02-14T06:31:07.228Z</time>
      </trkpt>
      <trkpt lat="42.62301" lon="1.93596">
        <ele>1970.5</ele>
        <time>2020-02-14T06:31:11.679Z</time>
      </trkpt>
      <trkpt lat="42.62306" lon="1.936">
        <ele>1969.9</ele>
        <time>2020-02-14T06:31:13.808Z</time>
      </trkpt>
      <trkpt lat="42.62309" lon="1.93602">
        <ele>1968.9</ele>
        <time>2020-02-14T06:31:15.086Z</time>
      </trkpt>
      <trkpt lat="42.6231" lon="1.93603">
        <ele>1968.9</ele>
        <time>2020-02-14T06:31:15.718Z</time>
      </trkpt>
      <trkpt lat="42.62314" lon="1.93611">
        <ele>1967.6</ele>
        <time>2020-02-14T06:31:18.275Z</time>
      </trkpt>
      <trkpt lat="42.6232" lon="1.93621">
        <ele>1966</ele>
        <time>2020-02-14T06:31:22.152Z</time>
      </trkpt>
      <trkpt lat="42.62326" lon="1.93623">
        <ele>1966.6</ele>
        <time>2020-02-14T06:31:24.281Z</time>
      </trkpt>
      <trkpt lat="42.62326" lon="1.93623">
        <ele>1966.5</ele>
        <time>2020-02-14T06:31:24.286Z</time>
      </trkpt>
      <trkpt lat="42.62327" lon="1.93629">
        <ele>1965.6</ele>
        <time>2020-02-14T06:31:26.087Z</time>
      </trkpt>
      <trkpt lat="42.6233" lon="1.93632">
        <ele>1965.7</ele>
        <time>2020-02-14T06:31:27.644Z</time>
      </trkpt>
      <trkpt lat="42.62335" lon="1.93639">
        <ele>1965.1</ele>
        <time>2020-02-14T06:31:30.286Z</time>
      </trkpt>
      <trkpt lat="42.62344" lon="1.93641">
        <ele>1965.7</ele>
        <time>2020-02-14T06:31:34.008Z</time>
      </trkpt>
      <trkpt lat="42.62353" lon="1.93646">
        <ele>1965.1</ele>
        <time>2020-02-14T06:31:37.762Z</time>
      </trkpt>
      <trkpt lat="42.62358" lon="1.93657">
        <ele>1964.6</ele>
        <time>2020-02-14T06:31:41.508Z</time>
      </trkpt>
      <trkpt lat="42.62364" lon="1.93667">
        <ele>1963.2</ele>
        <time>2020-02-14T06:31:45.061Z</time>
      </trkpt>
      <trkpt lat="42.62367" lon="1.93675">
        <ele>1962.2</ele>
        <time>2020-02-14T06:31:47.757Z</time>
      </trkpt>
      <trkpt lat="42.62374" lon="1.93681">
        <ele>1960.9</ele>
        <time>2020-02-14T06:31:51.099Z</time>
      </trkpt>
      <trkpt lat="42.6238" lon="1.93683">
        <ele>1960.8</ele>
        <time>2020-02-14T06:31:53.502Z</time>
      </trkpt>
      <trkpt lat="42.62384" lon="1.93684">
        <ele>1960.8</ele>
        <time>2020-02-14T06:31:54.869Z</time>
      </trkpt>
      <trkpt lat="42.62391" lon="1.93698">
        <ele>1958.9</ele>
        <time>2020-02-14T06:31:59.787Z</time>
      </trkpt>
      <trkpt lat="42.62397" lon="1.93706">
        <ele>1959.3</ele>
        <time>2020-02-14T06:32:03.053Z</time>
      </trkpt>
      <trkpt lat="42.62398" lon="1.93708">
        <ele>1958.9</ele>
        <time>2020-02-14T06:32:03.880Z</time>
      </trkpt>
      <trkpt lat="42.62407" lon="1.93718">
        <ele>1959.4</ele>
        <time>2020-02-14T06:32:08.236Z</time>
      </trkpt>
      <trkpt lat="42.62414" lon="1.93725">
        <ele>1958.3</ele>
        <time>2020-02-14T06:32:11.741Z</time>
      </trkpt>
      <trkpt lat="42.62424" lon="1.93742">
        <ele>1959.3</ele>
        <time>2020-02-14T06:32:18.001Z</time>
      </trkpt>
      <trkpt lat="42.62425" lon="1.93745">
        <ele>1958.8</ele>
        <time>2020-02-14T06:32:18.734Z</time>
      </trkpt>
      <trkpt lat="42.62427" lon="1.93749">
        <ele>1959.4</ele>
        <time>2020-02-14T06:32:20.234Z</time>
      </trkpt>
      <trkpt lat="42.62437" lon="1.93758">
        <ele>1958.9</ele>
        <time>2020-02-14T06:32:24.633Z</time>
      </trkpt>
      <trkpt lat="42.62442" lon="1.93768">
        <ele>1957</ele>
        <time>2020-02-14T06:32:28.146Z</time>
      </trkpt>
      <trkpt lat="42.62444" lon="1.93776">
        <ele>1958.8</ele>
        <time>2020-02-14T06:32:30.612Z</time>
      </trkpt>
      <trkpt lat="42.62447" lon="1.93791">
        <ele>1958.9</ele>
        <time>2020-02-14T06:32:35.019Z</time>
      </trkpt>
      <trkpt lat="42.62448" lon="1.93794">
        <ele>1954.6</ele>
        <time>2020-02-14T06:32:36.845Z</time>
      </trkpt>
      <trkpt lat="42.62448" lon="1.93795">
        <ele>1960.3</ele>
        <time>2020-02-14T06:32:38.863Z</time>
      </trkpt>
      <trkpt lat="42.62448" lon="1.93796">
        <ele>1956.9</ele>
        <time>2020-02-14T06:32:40.130Z</time>
      </trkpt>
      <trkpt lat="42.6245" lon="1.93803">
        <ele>1960.9</ele>
        <time>2020-02-14T06:32:42.546Z</time>
      </trkpt>
      <trkpt lat="42.62454" lon="1.93813">
        <ele>1957.9</ele>
        <time>2020-02-14T06:32:45.972Z</time>
      </trkpt>
      <trkpt lat="42.62459" lon="1.9382">
        <ele>1958.8</ele>
        <time>2020-02-14T06:32:48.701Z</time>
      </trkpt>
      <trkpt lat="42.62465" lon="1.9383">
        <ele>1958.8</ele>
        <time>2020-02-14T06:32:52.298Z</time>
      </trkpt>
      <trkpt lat="42.62467" lon="1.93831">
        <ele>1958.3</ele>
        <time>2020-02-14T06:32:53.074Z</time>
      </trkpt>
      <trkpt lat="42.62471" lon="1.93834">
        <ele>1958.3</ele>
        <time>2020-02-14T06:32:54.980Z</time>
      </trkpt>
      <trkpt lat="42.62475" lon="1.93837">
        <ele>1959.3</ele>
        <time>2020-02-14T06:32:56.952Z</time>
      </trkpt>
      <trkpt lat="42.62479" lon="1.93841">
        <ele>1959.4</ele>
        <time>2020-02-14T06:32:58.645Z</time>
      </trkpt>
      <trkpt lat="42.62484" lon="1.9385">
        <ele>1959.3</ele>
        <time>2020-02-14T06:33:01.808Z</time>
      </trkpt>
      <trkpt lat="42.62484" lon="1.93853">
        <ele>1959.3</ele>
        <time>2020-02-14T06:33:02.830Z</time>
      </trkpt>
      <trkpt lat="42.62485" lon="1.93861">
        <ele>1959.4</ele>
        <time>2020-02-14T06:33:04.884Z</time>
      </trkpt>
      <trkpt lat="42.62486" lon="1.93862">
        <ele>1959.3</ele>
        <time>2020-02-14T06:33:05.697Z</time>
      </trkpt>
      <trkpt lat="42.6249" lon="1.93868">
        <ele>1959.8</ele>
        <time>2020-02-14T06:33:07.721Z</time>
      </trkpt>
      <trkpt lat="42.62496" lon="1.93876">
        <ele>1960.8</ele>
        <time>2020-02-14T06:33:11.158Z</time>
      </trkpt>
      <trkpt lat="42.62496" lon="1.93884">
        <ele>1960.8</ele>
        <time>2020-02-14T06:33:13.458Z</time>
      </trkpt>
      <trkpt lat="42.62497" lon="1.93895">
        <ele>1959.3</ele>
        <time>2020-02-14T06:33:16.629Z</time>
      </trkpt>
      <trkpt lat="42.62502" lon="1.93909">
        <ele>1960.8</ele>
        <time>2020-02-14T06:33:20.971Z</time>
      </trkpt>
      <trkpt lat="42.62507" lon="1.93916">
        <ele>1961.2</ele>
        <time>2020-02-14T06:33:23.885Z</time>
      </trkpt>
      <trkpt lat="42.62508" lon="1.93919">
        <ele>1961.3</ele>
        <time>2020-02-14T06:33:24.628Z</time>
      </trkpt>
      <trkpt lat="42.62511" lon="1.93923">
        <ele>1961.3</ele>
        <time>2020-02-14T06:33:26.185Z</time>
      </trkpt>
      <trkpt lat="42.62516" lon="1.9393">
        <ele>1963.7</ele>
        <time>2020-02-14T06:33:29.155Z</time>
      </trkpt>
      <trkpt lat="42.62516" lon="1.93936">
        <ele>1963.2</ele>
        <time>2020-02-14T06:33:30.799Z</time>
      </trkpt>
      <trkpt lat="42.62521" lon="1.93944">
        <ele>1966.1</ele>
        <time>2020-02-14T06:33:33.910Z</time>
      </trkpt>
      <trkpt lat="42.62527" lon="1.93955">
        <ele>1967</ele>
        <time>2020-02-14T06:33:37.973Z</time>
      </trkpt>
      <trkpt lat="42.62528" lon="1.93958">
        <ele>1968</ele>
        <time>2020-02-14T06:33:38.979Z</time>
      </trkpt>
      <trkpt lat="42.62534" lon="1.93971">
        <ele>1968.1</ele>
        <time>2020-02-14T06:33:43.309Z</time>
      </trkpt>
      <trkpt lat="42.62535" lon="1.93974">
        <ele>1968</ele>
        <time>2020-02-14T06:33:44.304Z</time>
      </trkpt>
      <trkpt lat="42.62536" lon="1.93978">
        <ele>1968.1</ele>
        <time>2020-02-14T06:33:45.384Z</time>
      </trkpt>
      <trkpt lat="42.62537" lon="1.9398">
        <ele>1968.1</ele>
        <time>2020-02-14T06:33:46.200Z</time>
      </trkpt>
      <trkpt lat="42.62541" lon="1.93991">
        <ele>1968.1</ele>
        <time>2020-02-14T06:33:49.629Z</time>
      </trkpt>
      <trkpt lat="42.62544" lon="1.93997">
        <ele>1968</ele>
        <time>2020-02-14T06:33:51.856Z</time>
      </trkpt>
      <trkpt lat="42.62545" lon="1.94">
        <ele>1968</ele>
        <time>2020-02-14T06:33:52.686Z</time>
      </trkpt>
      <trkpt lat="42.62548" lon="1.94018">
        <ele>1967.6</ele>
        <time>2020-02-14T06:33:57.755Z</time>
      </trkpt>
      <trkpt lat="42.62549" lon="1.9402">
        <ele>1968.1</ele>
        <time>2020-02-14T06:33:58.471Z</time>
      </trkpt>
      <trkpt lat="42.62548" lon="1.94033">
        <ele>1968.9</ele>
        <time>2020-02-14T06:34:02.301Z</time>
      </trkpt>
      <trkpt lat="42.62547" lon="1.94039">
        <ele>1968</ele>
        <time>2020-02-14T06:34:04.051Z</time>
      </trkpt>
      <trkpt lat="42.62548" lon="1.94045">
        <ele>1966.5</ele>
        <time>2020-02-14T06:34:05.890Z</time>
      </trkpt>
      <trkpt lat="42.62552" lon="1.94053">
        <ele>1965.2</ele>
        <time>2020-02-14T06:34:08.613Z</time>
      </trkpt>
      <trkpt lat="42.62553" lon="1.94054">
        <ele>1965.2</ele>
        <time>2020-02-14T06:34:09.210Z</time>
      </trkpt>
      <trkpt lat="42.62555" lon="1.94055">
        <ele>1965.2</ele>
        <time>2020-02-14T06:34:10.005Z</time>
      </trkpt>
      <trkpt lat="42.62558" lon="1.94065">
        <ele>1963.6</ele>
        <time>2020-02-14T06:34:13.043Z</time>
      </trkpt>
      <trkpt lat="42.6256" lon="1.94072">
        <ele>1961.8</ele>
        <time>2020-02-14T06:34:15.256Z</time>
      </trkpt>
      <trkpt lat="42.6256" lon="1.94075">
        <ele>1961.3</ele>
        <time>2020-02-14T06:34:16.073Z</time>
      </trkpt>
      <trkpt lat="42.6256" lon="1.94087">
        <ele>1960.3</ele>
        <time>2020-02-14T06:34:19.667Z</time>
      </trkpt>
      <trkpt lat="42.6256" lon="1.94095">
        <ele>1960.9</ele>
        <time>2020-02-14T06:34:21.934Z</time>
      </trkpt>
      <trkpt lat="42.62562" lon="1.94102">
        <ele>1961.7</ele>
        <time>2020-02-14T06:34:24.096Z</time>
      </trkpt>
      <trkpt lat="42.62562" lon="1.94104">
        <ele>1961.2</ele>
        <time>2020-02-14T06:34:24.671Z</time>
      </trkpt>
      <trkpt lat="42.62563" lon="1.94122">
        <ele>1961.2</ele>
        <time>2020-02-14T06:34:29.928Z</time>
      </trkpt>
      <trkpt lat="42.62562" lon="1.94126">
        <ele>1961.8</ele>
        <time>2020-02-14T06:34:30.902Z</time>
      </trkpt>
      <trkpt lat="42.62563" lon="1.94142">
        <ele>1960.4</ele>
        <time>2020-02-14T06:34:35.730Z</time>
      </trkpt>
      <trkpt lat="42.62564" lon="1.94155">
        <ele>1960.8</ele>
        <time>2020-02-14T06:34:39.443Z</time>
      </trkpt>
      <trkpt lat="42.62565" lon="1.9417">
        <ele>1960.4</ele>
        <time>2020-02-14T06:34:43.525Z</time>
      </trkpt>
      <trkpt lat="42.62562" lon="1.94187">
        <ele>1960.4</ele>
        <time>2020-02-14T06:34:48.506Z</time>
      </trkpt>
      <trkpt lat="42.62561" lon="1.94203">
        <ele>1961.2</ele>
        <time>2020-02-14T06:34:52.965Z</time>
      </trkpt>
      <trkpt lat="42.62563" lon="1.94215">
        <ele>1962.7</ele>
        <time>2020-02-14T06:34:56.526Z</time>
      </trkpt>
      <trkpt lat="42.62563" lon="1.9422">
        <ele>1964.1</ele>
        <time>2020-02-14T06:34:58.138Z</time>
      </trkpt>
      <trkpt lat="42.62563" lon="1.94224">
        <ele>1963.6</ele>
        <time>2020-02-14T06:34:59.209Z</time>
      </trkpt>
      <trkpt lat="42.62567" lon="1.94224">
        <ele>1964.1</ele>
        <time>2020-02-14T06:35:00.804Z</time>
      </trkpt>
      <trkpt lat="42.62569" lon="1.94226">
        <ele>1964.2</ele>
        <time>2020-02-14T06:35:01.688Z</time>
      </trkpt>
      <trkpt lat="42.6257" lon="1.94234">
        <ele>1964.2</ele>
        <time>2020-02-14T06:35:04.113Z</time>
      </trkpt>
      <trkpt lat="42.6257" lon="1.94242">
        <ele>1962.8</ele>
        <time>2020-02-14T06:35:06.438Z</time>
      </trkpt>
      <trkpt lat="42.62572" lon="1.94251">
        <ele>1963.3</ele>
        <time>2020-02-14T06:35:09.036Z</time>
      </trkpt>
      <trkpt lat="42.62574" lon="1.94259">
        <ele>1962.8</ele>
        <time>2020-02-14T06:35:11.309Z</time>
      </trkpt>
      <trkpt lat="42.62582" lon="1.94274">
        <ele>1964.1</ele>
        <time>2020-02-14T06:35:16.623Z</time>
      </trkpt>
      <trkpt lat="42.62584" lon="1.94278">
        <ele>1965.2</ele>
        <time>2020-02-14T06:35:18.085Z</time>
      </trkpt>
      <trkpt lat="42.62586" lon="1.94285">
        <ele>1965.2</ele>
        <time>2020-02-14T06:35:20.231Z</time>
      </trkpt>
      <trkpt lat="42.62587" lon="1.94287">
        <ele>1964.7</ele>
        <time>2020-02-14T06:35:21.006Z</time>
      </trkpt>
      <trkpt lat="42.62591" lon="1.94307">
        <ele>1965.1</ele>
        <time>2020-02-14T06:35:26.944Z</time>
      </trkpt>
      <trkpt lat="42.62596" lon="1.94309">
        <ele>1966</ele>
        <time>2020-02-14T06:35:28.843Z</time>
      </trkpt>
      <trkpt lat="42.62598" lon="1.94318">
        <ele>1965.7</ele>
        <time>2020-02-14T06:35:31.593Z</time>
      </trkpt>
      <trkpt lat="42.62604" lon="1.94328">
        <ele>1964.7</ele>
        <time>2020-02-14T06:35:35.372Z</time>
      </trkpt>
      <trkpt lat="42.62605" lon="1.94336">
        <ele>1963.6</ele>
        <time>2020-02-14T06:35:37.683Z</time>
      </trkpt>
      <trkpt lat="42.6261" lon="1.94344">
        <ele>1963.2</ele>
        <time>2020-02-14T06:35:40.618Z</time>
      </trkpt>
      <trkpt lat="42.62615" lon="1.94359">
        <ele>1964.2</ele>
        <time>2020-02-14T06:35:45.408Z</time>
      </trkpt>
      <trkpt lat="42.62619" lon="1.94365">
        <ele>1964.6</ele>
        <time>2020-02-14T06:35:47.711Z</time>
      </trkpt>
      <trkpt lat="42.62625" lon="1.94373">
        <ele>1965.7</ele>
        <time>2020-02-14T06:35:50.890Z</time>
      </trkpt>
      <trkpt lat="42.62629" lon="1.94384">
        <ele>1967.1</ele>
        <time>2020-02-14T06:35:54.432Z</time>
      </trkpt>
      <trkpt lat="42.62632" lon="1.94388">
        <ele>1968.1</ele>
        <time>2020-02-14T06:35:56.035Z</time>
      </trkpt>
      <trkpt lat="42.62633" lon="1.94391">
        <ele>1968</ele>
        <time>2020-02-14T06:35:57.221Z</time>
      </trkpt>
      <trkpt lat="42.62642" lon="1.94391">
        <ele>1966.5</ele>
        <time>2020-02-14T06:36:00.581Z</time>
      </trkpt>
      <trkpt lat="42.62645" lon="1.94389">
        <ele>1966</ele>
        <time>2020-02-14T06:36:01.989Z</time>
      </trkpt>
      <trkpt lat="42.62649" lon="1.94392">
        <ele>1965.7</ele>
        <time>2020-02-14T06:36:03.416Z</time>
      </trkpt>
      <trkpt lat="42.6265" lon="1.94401">
        <ele>1965.6</ele>
        <time>2020-02-14T06:36:06.153Z</time>
      </trkpt>
      <trkpt lat="42.62654" lon="1.94403">
        <ele>1965.6</ele>
        <time>2020-02-14T06:36:07.718Z</time>
      </trkpt>
      <trkpt lat="42.62655" lon="1.94408">
        <ele>1966.1</ele>
        <time>2020-02-14T06:36:09.164Z</time>
      </trkpt>
      <trkpt lat="42.6266" lon="1.94408">
        <ele>1965.6</ele>
        <time>2020-02-14T06:36:10.764Z</time>
      </trkpt>
      <trkpt lat="42.62659" lon="1.94409">
        <ele>1963.6</ele>
        <time>2020-02-14T06:36:11.599Z</time>
      </trkpt>
      <trkpt lat="42.62659" lon="1.94409">
        <ele>1968</ele>
        <time>2020-02-14T06:36:13.132Z</time>
      </trkpt>
      <trkpt lat="42.62659" lon="1.9441">
        <ele>1964.1</ele>
        <time>2020-02-14T06:36:14.523Z</time>
      </trkpt>
      <trkpt lat="42.62659" lon="1.9441">
        <ele>1964.1</ele>
        <time>2020-02-14T06:36:14.526Z</time>
      </trkpt>
      <trkpt lat="42.62659" lon="1.9441">
        <ele>1965.6</ele>
        <time>2020-02-14T06:36:15.044Z</time>
      </trkpt>
      <trkpt lat="42.62659" lon="1.9441">
        <ele>1968.1</ele>
        <time>2020-02-14T06:36:15.907Z</time>
      </trkpt>
      <trkpt lat="42.62659" lon="1.9441">
        <ele>1962.7</ele>
        <time>2020-02-14T06:36:17.773Z</time>
      </trkpt>
      <trkpt lat="42.62659" lon="1.9441">
        <ele>1968</ele>
        <time>2020-02-14T06:36:19.620Z</time>
      </trkpt>
      <trkpt lat="42.62659" lon="1.9441">
        <ele>1966.6</ele>
        <time>2020-02-14T06:36:20.127Z</time>
      </trkpt>
      <trkpt lat="42.62659" lon="1.9441">
        <ele>1965.1</ele>
        <time>2020-02-14T06:36:20.635Z</time>
      </trkpt>
      <trkpt lat="42.62659" lon="1.9441">
        <ele>1969.4</ele>
        <time>2020-02-14T06:36:22.129Z</time>
      </trkpt>
      <trkpt lat="42.62659" lon="1.9441">
        <ele>1961.7</ele>
        <time>2020-02-14T06:36:24.801Z</time>
      </trkpt>
      <trkpt lat="42.6266" lon="1.9441">
        <ele>1970</ele>
        <time>2020-02-14T06:36:27.663Z</time>
      </trkpt>
      <trkpt lat="42.6266" lon="1.9441">
        <ele>1961.3</ele>
        <time>2020-02-14T06:36:30.690Z</time>
      </trkpt>
      <trkpt lat="42.6266" lon="1.9441">
        <ele>1967.5</ele>
        <time>2020-02-14T06:36:32.865Z</time>
      </trkpt>
      <trkpt lat="42.6266" lon="1.9441">
        <ele>1962.7</ele>
        <time>2020-02-14T06:36:34.539Z</time>
      </trkpt>
      <trkpt lat="42.6266" lon="1.9441">
        <ele>1966.5</ele>
        <time>2020-02-14T06:36:35.865Z</time>
      </trkpt>
      <trkpt lat="42.6266" lon="1.9441">
        <ele>1965.7</ele>
        <time>2020-02-14T06:36:36.169Z</time>
      </trkpt>
      <trkpt lat="42.6266" lon="1.9441">
        <ele>1971.9</ele>
        <time>2020-02-14T06:36:38.328Z</time>
      </trkpt>
      <trkpt lat="42.6266" lon="1.9441">
        <ele>1966.5</ele>
        <time>2020-02-14T06:36:40.186Z</time>
      </trkpt>
      <trkpt lat="42.6266" lon="1.9441">
        <ele>1969.4</ele>
        <time>2020-02-14T06:36:41.198Z</time>
      </trkpt>
      <trkpt lat="42.6266" lon="1.9441">
        <ele>1966.1</ele>
        <time>2020-02-14T06:36:42.359Z</time>
      </trkpt>
      <trkpt lat="42.62659" lon="1.9441">
        <ele>1966.5</ele>
        <time>2020-02-14T06:36:42.660Z</time>
      </trkpt>
      <trkpt lat="42.62658" lon="1.94412">
        <ele>1970.4</ele>
        <time>2020-02-14T06:36:44.165Z</time>
      </trkpt>
      <trkpt lat="42.62658" lon="1.94412">
        <ele>1967.6</ele>
        <time>2020-02-14T06:36:45.147Z</time>
      </trkpt>
      <trkpt lat="42.62658" lon="1.94412">
        <ele>1966.5</ele>
        <time>2020-02-14T06:36:45.519Z</time>
      </trkpt>
      <trkpt lat="42.62659" lon="1.94411">
        <ele>1955.5</ele>
        <time>2020-02-14T06:36:49.357Z</time>
      </trkpt>
      <trkpt lat="42.62659" lon="1.94411">
        <ele>1968</ele>
        <time>2020-02-14T06:36:53.705Z</time>
      </trkpt>
      <trkpt lat="42.62659" lon="1.94411">
        <ele>1968.1</ele>
        <time>2020-02-14T06:36:53.721Z</time>
      </trkpt>
      <trkpt lat="42.62659" lon="1.94411">
        <ele>1971.3</ele>
        <time>2020-02-14T06:36:54.858Z</time>
      </trkpt>
      <trkpt lat="42.62659" lon="1.94411">
        <ele>1975.3</ele>
        <time>2020-02-14T06:36:56.225Z</time>
      </trkpt>
      <trkpt lat="42.62663" lon="1.94417">
        <ele>1970.8</ele>
        <time>2020-02-14T06:36:59.049Z</time>
      </trkpt>
      <trkpt lat="42.62663" lon="1.94417">
        <ele>1988.6</ele>
        <time>2020-02-14T06:37:05.230Z</time>
      </trkpt>
      <trkpt lat="42.62663" lon="1.94417">
        <ele>1971.9</ele>
        <time>2020-02-14T06:37:11.046Z</time>
      </trkpt>
      <trkpt lat="42.62664" lon="1.94415">
        <ele>1964.6</ele>
        <time>2020-02-14T06:37:13.636Z</time>
      </trkpt>
      <trkpt lat="42.62664" lon="1.94415">
        <ele>1971.9</ele>
        <time>2020-02-14T06:37:16.151Z</time>
      </trkpt>
      <trkpt lat="42.62664" lon="1.94415">
        <ele>1981.9</ele>
        <time>2020-02-14T06:37:19.634Z</time>
      </trkpt>
      <trkpt lat="42.62664" lon="1.94415">
        <ele>1970.8</ele>
        <time>2020-02-14T06:37:23.488Z</time>
      </trkpt>
      <trkpt lat="42.62664" lon="1.94415">
        <ele>1970.4</ele>
        <time>2020-02-14T06:37:23.751Z</time>
      </trkpt>
      <trkpt lat="42.62671" lon="1.9442">
        <ele>1969.5</ele>
        <time>2020-02-14T06:37:26.906Z</time>
      </trkpt>
      <trkpt lat="42.62671" lon="1.94422">
        <ele>1968.9</ele>
        <time>2020-02-14T06:37:27.451Z</time>
      </trkpt>
      <trkpt lat="42.62673" lon="1.94431">
        <ele>1968.1</ele>
        <time>2020-02-14T06:37:29.922Z</time>
      </trkpt>
      <trkpt lat="42.62671" lon="1.94438">
        <ele>1968.1</ele>
        <time>2020-02-14T06:37:32.214Z</time>
      </trkpt>
      <trkpt lat="42.62671" lon="1.94446">
        <ele>1967.6</ele>
        <time>2020-02-14T06:37:34.476Z</time>
      </trkpt>
      <trkpt lat="42.62673" lon="1.94457">
        <ele>1966.5</ele>
        <time>2020-02-14T06:37:37.577Z</time>
      </trkpt>
      <trkpt lat="42.62671" lon="1.94459">
        <ele>1967.6</ele>
        <time>2020-02-14T06:37:38.762Z</time>
      </trkpt>
      <trkpt lat="42.62666" lon="1.94465">
        <ele>1968</ele>
        <time>2020-02-14T06:37:41.328Z</time>
      </trkpt>
      <trkpt lat="42.62665" lon="1.94468">
        <ele>1967.5</ele>
        <time>2020-02-14T06:37:42.188Z</time>
      </trkpt>
      <trkpt lat="42.62663" lon="1.94477">
        <ele>1967.5</ele>
        <time>2020-02-14T06:37:44.998Z</time>
      </trkpt>
      <trkpt lat="42.62665" lon="1.94484">
        <ele>1966.6</ele>
        <time>2020-02-14T06:37:46.978Z</time>
      </trkpt>
      <trkpt lat="42.62669" lon="1.94497">
        <ele>1966</ele>
        <time>2020-02-14T06:37:50.900Z</time>
      </trkpt>
      <trkpt lat="42.62672" lon="1.94508">
        <ele>1967.1</ele>
        <time>2020-02-14T06:37:54.226Z</time>
      </trkpt>
      <trkpt lat="42.62673" lon="1.94514">
        <ele>1967.6</ele>
        <time>2020-02-14T06:37:56.073Z</time>
      </trkpt>
      <trkpt lat="42.6268" lon="1.94521">
        <ele>1964.7</ele>
        <time>2020-02-14T06:37:59.637Z</time>
      </trkpt>
      <trkpt lat="42.6269" lon="1.94524">
        <ele>1961.8</ele>
        <time>2020-02-14T06:38:03.646Z</time>
      </trkpt>
      <trkpt lat="42.62693" lon="1.94526">
        <ele>1961.8</ele>
        <time>2020-02-14T06:38:04.832Z</time>
      </trkpt>
      <trkpt lat="42.62697" lon="1.9454">
        <ele>1962.8</ele>
        <time>2020-02-14T06:38:09.134Z</time>
      </trkpt>
      <trkpt lat="42.62692" lon="1.94549">
        <ele>1963.6</ele>
        <time>2020-02-14T06:38:12.261Z</time>
      </trkpt>
      <trkpt lat="42.62687" lon="1.94555">
        <ele>1964.6</ele>
        <time>2020-02-14T06:38:15.060Z</time>
      </trkpt>
      <trkpt lat="42.62687" lon="1.94559">
        <ele>1967</ele>
        <time>2020-02-14T06:38:16.422Z</time>
      </trkpt>
      <trkpt lat="42.62683" lon="1.94565">
        <ele>1967</ele>
        <time>2020-02-14T06:38:18.730Z</time>
      </trkpt>
      <trkpt lat="42.62682" lon="1.94581">
        <ele>1968</ele>
        <time>2020-02-14T06:38:23.336Z</time>
      </trkpt>
      <trkpt lat="42.6268" lon="1.94594">
        <ele>1966.5</ele>
        <time>2020-02-14T06:38:27.093Z</time>
      </trkpt>
      <trkpt lat="42.6268" lon="1.94603">
        <ele>1965.2</ele>
        <time>2020-02-14T06:38:29.583Z</time>
      </trkpt>
      <trkpt lat="42.62679" lon="1.94614">
        <ele>1964.7</ele>
        <time>2020-02-14T06:38:32.805Z</time>
      </trkpt>
      <trkpt lat="42.62679" lon="1.94615">
        <ele>1965.1</ele>
        <time>2020-02-14T06:38:33.153Z</time>
      </trkpt>
      <trkpt lat="42.62684" lon="1.94626">
        <ele>1962.7</ele>
        <time>2020-02-14T06:38:36.961Z</time>
      </trkpt>
      <trkpt lat="42.62687" lon="1.94633">
        <ele>1962.3</ele>
        <time>2020-02-14T06:38:39.220Z</time>
      </trkpt>
      <trkpt lat="42.62691" lon="1.9464">
        <ele>1959.9</ele>
        <time>2020-02-14T06:38:41.857Z</time>
      </trkpt>
      <trkpt lat="42.62691" lon="1.94643">
        <ele>1959.8</ele>
        <time>2020-02-14T06:38:42.703Z</time>
      </trkpt>
      <trkpt lat="42.62699" lon="1.94653">
        <ele>1959.3</ele>
        <time>2020-02-14T06:38:46.913Z</time>
      </trkpt>
      <trkpt lat="42.62701" lon="1.94661">
        <ele>1958.3</ele>
        <time>2020-02-14T06:38:49.490Z</time>
      </trkpt>
      <trkpt lat="42.62702" lon="1.94669">
        <ele>1958.4</ele>
        <time>2020-02-14T06:38:51.633Z</time>
      </trkpt>
      <trkpt lat="42.62701" lon="1.94672">
        <ele>1958.8</ele>
        <time>2020-02-14T06:38:52.479Z</time>
      </trkpt>
      <trkpt lat="42.62702" lon="1.94673">
        <ele>1958.9</ele>
        <time>2020-02-14T06:38:53.035Z</time>
      </trkpt>
      <trkpt lat="42.62706" lon="1.94686">
        <ele>1958.3</ele>
        <time>2020-02-14T06:38:57.052Z</time>
      </trkpt>
      <trkpt lat="42.62705" lon="1.94693">
        <ele>1958</ele>
        <time>2020-02-14T06:38:58.932Z</time>
      </trkpt>
      <trkpt lat="42.62706" lon="1.94695">
        <ele>1957.5</ele>
        <time>2020-02-14T06:38:59.667Z</time>
      </trkpt>
      <trkpt lat="42.62712" lon="1.94705">
        <ele>1957.5</ele>
        <time>2020-02-14T06:39:03.456Z</time>
      </trkpt>
      <trkpt lat="42.62715" lon="1.9471">
        <ele>1958.4</ele>
        <time>2020-02-14T06:39:05.317Z</time>
      </trkpt>
      <trkpt lat="42.62717" lon="1.94713">
        <ele>1958.3</ele>
        <time>2020-02-14T06:39:06.348Z</time>
      </trkpt>
      <trkpt lat="42.62721" lon="1.9472">
        <ele>1958.3</ele>
        <time>2020-02-14T06:39:09.003Z</time>
      </trkpt>
      <trkpt lat="42.62725" lon="1.94722">
        <ele>1958.8</ele>
        <time>2020-02-14T06:39:10.590Z</time>
      </trkpt>
      <trkpt lat="42.62724" lon="1.94727">
        <ele>1958.8</ele>
        <time>2020-02-14T06:39:11.963Z</time>
      </trkpt>
      <trkpt lat="42.62731" lon="1.94739">
        <ele>1959.4</ele>
        <time>2020-02-14T06:39:16.403Z</time>
      </trkpt>
      <trkpt lat="42.62729" lon="1.94757">
        <ele>1962.2</ele>
        <time>2020-02-14T06:39:21.825Z</time>
      </trkpt>
      <trkpt lat="42.62734" lon="1.94765">
        <ele>1965.6</ele>
        <time>2020-02-14T06:39:24.934Z</time>
      </trkpt>
      <trkpt lat="42.62743" lon="1.94771">
        <ele>1967.6</ele>
        <time>2020-02-14T06:39:28.701Z</time>
      </trkpt>
      <trkpt lat="42.62751" lon="1.94779">
        <ele>1969.5</ele>
        <time>2020-02-14T06:39:32.661Z</time>
      </trkpt>
      <trkpt lat="42.62758" lon="1.94789">
        <ele>1969.4</ele>
        <time>2020-02-14T06:39:36.567Z</time>
      </trkpt>
      <trkpt lat="42.62755" lon="1.948">
        <ele>1970.4</ele>
        <time>2020-02-14T06:39:39.833Z</time>
      </trkpt>
      <trkpt lat="42.62758" lon="1.94807">
        <ele>1969.9</ele>
        <time>2020-02-14T06:39:42.109Z</time>
      </trkpt>
      <trkpt lat="42.62756" lon="1.94816">
        <ele>1970.4</ele>
        <time>2020-02-14T06:39:44.721Z</time>
      </trkpt>
      <trkpt lat="42.62757" lon="1.94821">
        <ele>1971.8</ele>
        <time>2020-02-14T06:39:46.267Z</time>
      </trkpt>
      <trkpt lat="42.62761" lon="1.94825">
        <ele>1971.8</ele>
        <time>2020-02-14T06:39:47.952Z</time>
      </trkpt>
      <trkpt lat="42.6277" lon="1.9484">
        <ele>1972.4</ele>
        <time>2020-02-14T06:39:53.659Z</time>
      </trkpt>
      <trkpt lat="42.62775" lon="1.94848">
        <ele>1971.3</ele>
        <time>2020-02-14T06:39:56.778Z</time>
      </trkpt>
      <trkpt lat="42.62777" lon="1.94861">
        <ele>1970.4</ele>
        <time>2020-02-14T06:40:00.318Z</time>
      </trkpt>
      <trkpt lat="42.62777" lon="1.94872">
        <ele>1969.9</ele>
        <time>2020-02-14T06:40:03.657Z</time>
      </trkpt>
      <trkpt lat="42.62779" lon="1.94883">
        <ele>1970.4</ele>
        <time>2020-02-14T06:40:06.695Z</time>
      </trkpt>
      <trkpt lat="42.62781" lon="1.94895">
        <ele>1969.9</ele>
        <time>2020-02-14T06:40:10.197Z</time>
      </trkpt>
      <trkpt lat="42.62782" lon="1.94904">
        <ele>1969.9</ele>
        <time>2020-02-14T06:40:12.920Z</time>
      </trkpt>
      <trkpt lat="42.62782" lon="1.9491">
        <ele>1969.9</ele>
        <time>2020-02-14T06:40:14.515Z</time>
      </trkpt>
      <trkpt lat="42.6279" lon="1.94931">
        <ele>1969.4</ele>
        <time>2020-02-14T06:40:21.320Z</time>
      </trkpt>
      <trkpt lat="42.62794" lon="1.9494">
        <ele>1969.5</ele>
        <time>2020-02-14T06:40:24.296Z</time>
      </trkpt>
      <trkpt lat="42.62794" lon="1.9494">
        <ele>1968.9</ele>
        <time>2020-02-14T06:40:24.491Z</time>
      </trkpt>
      <trkpt lat="42.62796" lon="1.94948">
        <ele>1968.4</ele>
        <time>2020-02-14T06:40:26.897Z</time>
      </trkpt>
      <trkpt lat="42.62797" lon="1.9495">
        <ele>1969</ele>
        <time>2020-02-14T06:40:27.863Z</time>
      </trkpt>
      <trkpt lat="42.62801" lon="1.94959">
        <ele>1968.9</ele>
        <time>2020-02-14T06:40:30.651Z</time>
      </trkpt>
      <trkpt lat="42.62804" lon="1.94981">
        <ele>1969</ele>
        <time>2020-02-14T06:40:36.858Z</time>
      </trkpt>
      <trkpt lat="42.62804" lon="1.94999">
        <ele>1969.5</ele>
        <time>2020-02-14T06:40:42.141Z</time>
      </trkpt>
      <trkpt lat="42.62804" lon="1.95">
        <ele>1972.9</ele>
        <time>2020-02-14T06:40:43.332Z</time>
      </trkpt>
      <trkpt lat="42.62804" lon="1.95">
        <ele>1969.9</ele>
        <time>2020-02-14T06:40:44.357Z</time>
      </trkpt>
      <trkpt lat="42.62804" lon="1.95">
        <ele>1966.5</ele>
        <time>2020-02-14T06:40:45.535Z</time>
      </trkpt>
      <trkpt lat="42.62804" lon="1.95">
        <ele>1970.4</ele>
        <time>2020-02-14T06:40:46.888Z</time>
      </trkpt>
      <trkpt lat="42.62804" lon="1.94999">
        <ele>1962.7</ele>
        <time>2020-02-14T06:40:49.560Z</time>
      </trkpt>
      <trkpt lat="42.62804" lon="1.94999">
        <ele>1970.8</ele>
        <time>2020-02-14T06:40:52.381Z</time>
      </trkpt>
      <trkpt lat="42.62804" lon="1.95001">
        <ele>1969</ele>
        <time>2020-02-14T06:40:53.195Z</time>
      </trkpt>
      <trkpt lat="42.62804" lon="1.95001">
        <ele>1969</ele>
        <time>2020-02-14T06:40:53.206Z</time>
      </trkpt>
      <trkpt lat="42.62804" lon="1.95001">
        <ele>1961.3</ele>
        <time>2020-02-14T06:40:55.872Z</time>
      </trkpt>
      <trkpt lat="42.62804" lon="1.95001">
        <ele>1968.5</ele>
        <time>2020-02-14T06:40:58.370Z</time>
      </trkpt>
      <trkpt lat="42.62804" lon="1.95001">
        <ele>1968.4</ele>
        <time>2020-02-14T06:40:58.384Z</time>
      </trkpt>
      <trkpt lat="42.62815" lon="1.94981">
        <ele>1968.4</ele>
        <time>2020-02-14T06:41:05.461Z</time>
      </trkpt>
      <trkpt lat="42.6281" lon="1.94987">
        <ele>1973.8</ele>
        <time>2020-02-14T06:41:08.734Z</time>
      </trkpt>
      <trkpt lat="42.62809" lon="1.9499">
        <ele>1969.4</ele>
        <time>2020-02-14T06:41:10.451Z</time>
      </trkpt>
      <trkpt lat="42.62809" lon="1.94991">
        <ele>1958.8</ele>
        <time>2020-02-14T06:41:14.154Z</time>
      </trkpt>
      <trkpt lat="42.62809" lon="1.94992">
        <ele>1969.5</ele>
        <time>2020-02-14T06:41:17.859Z</time>
      </trkpt>
      <trkpt lat="42.62808" lon="1.94993">
        <ele>1963.2</ele>
        <time>2020-02-14T06:41:20.054Z</time>
      </trkpt>
      <trkpt lat="42.62808" lon="1.94993">
        <ele>1968.4</ele>
        <time>2020-02-14T06:41:21.876Z</time>
      </trkpt>
      <trkpt lat="42.62807" lon="1.94996">
        <ele>1968.5</ele>
        <time>2020-02-14T06:41:22.959Z</time>
      </trkpt>
      <trkpt lat="42.62806" lon="1.95">
        <ele>1969.5</ele>
        <time>2020-02-14T06:41:23.916Z</time>
      </trkpt>
      <trkpt lat="42.6281" lon="1.95007">
        <ele>1968.4</ele>
        <time>2020-02-14T06:41:26.493Z</time>
      </trkpt>
      <trkpt lat="42.62811" lon="1.95012">
        <ele>1966.5</ele>
        <time>2020-02-14T06:41:28.156Z</time>
      </trkpt>
      <trkpt lat="42.62811" lon="1.95012">
        <ele>1963.3</ele>
        <time>2020-02-14T06:41:29.287Z</time>
      </trkpt>
      <trkpt lat="42.62811" lon="1.95012">
        <ele>1967.1</ele>
        <time>2020-02-14T06:41:30.600Z</time>
      </trkpt>
      <trkpt lat="42.62811" lon="1.95012">
        <ele>1959.8</ele>
        <time>2020-02-14T06:41:33.114Z</time>
      </trkpt>
      <trkpt lat="42.62811" lon="1.95012">
        <ele>1968.4</ele>
        <time>2020-02-14T06:41:36.098Z</time>
      </trkpt>
      <trkpt lat="42.62811" lon="1.95012">
        <ele>1963.7</ele>
        <time>2020-02-14T06:41:37.739Z</time>
      </trkpt>
      <trkpt lat="42.62811" lon="1.95012">
        <ele>1969.5</ele>
        <time>2020-02-14T06:41:39.754Z</time>
      </trkpt>
      <trkpt lat="42.62811" lon="1.95013">
        <ele>1964.7</ele>
        <time>2020-02-14T06:41:41.433Z</time>
      </trkpt>
      <trkpt lat="42.62811" lon="1.95013">
        <ele>1968.5</ele>
        <time>2020-02-14T06:41:42.757Z</time>
      </trkpt>
      <trkpt lat="42.62811" lon="1.95013">
        <ele>1967.5</ele>
        <time>2020-02-14T06:41:43.085Z</time>
      </trkpt>
      <trkpt lat="42.62811" lon="1.95013">
        <ele>1961.8</ele>
        <time>2020-02-14T06:41:45.109Z</time>
      </trkpt>
      <trkpt lat="42.62811" lon="1.95013">
        <ele>1968.4</ele>
        <time>2020-02-14T06:41:47.414Z</time>
      </trkpt>
      <trkpt lat="42.62811" lon="1.95013">
        <ele>1972.8</ele>
        <time>2020-02-14T06:41:48.947Z</time>
      </trkpt>
      <trkpt lat="42.62811" lon="1.95013">
        <ele>1967.6</ele>
        <time>2020-02-14T06:41:50.778Z</time>
      </trkpt>
      <trkpt lat="42.62811" lon="1.95013">
        <ele>1968</ele>
        <time>2020-02-14T06:41:50.970Z</time>
      </trkpt>
      <trkpt lat="42.62814" lon="1.95015">
        <ele>1967</ele>
        <time>2020-02-14T06:41:52.272Z</time>
      </trkpt>
      <trkpt lat="42.62822" lon="1.95018">
        <ele>1963.7</ele>
        <time>2020-02-14T06:41:55.788Z</time>
      </trkpt>
      <trkpt lat="42.62821" lon="1.95008">
        <ele>1962.2</ele>
        <time>2020-02-14T06:41:58.758Z</time>
      </trkpt>
      <trkpt lat="42.62824" lon="1.95012">
        <ele>1959.3</ele>
        <time>2020-02-14T06:42:00.841Z</time>
      </trkpt>
      <trkpt lat="42.6283" lon="1.95017">
        <ele>1957</ele>
        <time>2020-02-14T06:42:03.464Z</time>
      </trkpt>
      <trkpt lat="42.62835" lon="1.95024">
        <ele>1954.1</ele>
        <time>2020-02-14T06:42:06.564Z</time>
      </trkpt>
      <trkpt lat="42.62842" lon="1.95035">
        <ele>1952.1</ele>
        <time>2020-02-14T06:42:10.731Z</time>
      </trkpt>
      <trkpt lat="42.62847" lon="1.95038">
        <ele>1949.7</ele>
        <time>2020-02-14T06:42:12.779Z</time>
      </trkpt>
      <trkpt lat="42.62852" lon="1.95046">
        <ele>1949.8</ele>
        <time>2020-02-14T06:42:15.819Z</time>
      </trkpt>
      <trkpt lat="42.62859" lon="1.95056">
        <ele>1951.6</ele>
        <time>2020-02-14T06:42:19.885Z</time>
      </trkpt>
      <trkpt lat="42.62871" lon="1.95063">
        <ele>1951.6</ele>
        <time>2020-02-14T06:42:24.863Z</time>
      </trkpt>
      <trkpt lat="42.62879" lon="1.95063">
        <ele>1949.2</ele>
        <time>2020-02-14T06:42:27.914Z</time>
      </trkpt>
      <trkpt lat="42.62881" lon="1.95063">
        <ele>1948.7</ele>
        <time>2020-02-14T06:42:28.864Z</time>
      </trkpt>
      <trkpt lat="42.6289" lon="1.95066">
        <ele>1947.4</ele>
        <time>2020-02-14T06:42:32.238Z</time>
      </trkpt>
      <trkpt lat="42.62897" lon="1.95067">
        <ele>1949.7</ele>
        <time>2020-02-14T06:42:35.146Z</time>
      </trkpt>
      <trkpt lat="42.62904" lon="1.95067">
        <ele>1939.6</ele>
        <time>2020-02-14T06:42:39.570Z</time>
      </trkpt>
      <trkpt lat="42.62905" lon="1.95067">
        <ele>1953.1</ele>
        <time>2020-02-14T06:42:44.284Z</time>
      </trkpt>
      <trkpt lat="42.62906" lon="1.95068">
        <ele>1933.8</ele>
        <time>2020-02-14T06:42:51.000Z</time>
      </trkpt>
      <trkpt lat="42.62906" lon="1.95068">
        <ele>1949.3</ele>
        <time>2020-02-14T06:42:56.357Z</time>
      </trkpt>
      <trkpt lat="42.62906" lon="1.95068">
        <ele>1944.5</ele>
        <time>2020-02-14T06:42:58.015Z</time>
      </trkpt>
      <trkpt lat="42.62906" lon="1.95068">
        <ele>1952.2</ele>
        <time>2020-02-14T06:43:00.675Z</time>
      </trkpt>
      <trkpt lat="42.62906" lon="1.95068">
        <ele>1946.8</ele>
        <time>2020-02-14T06:43:02.528Z</time>
      </trkpt>
      <trkpt lat="42.62915" lon="1.95066">
        <ele>1953.5</ele>
        <time>2020-02-14T06:43:06.602Z</time>
      </trkpt>
      <trkpt lat="42.62916" lon="1.95066">
        <ele>1945.5</ele>
        <time>2020-02-14T06:43:09.412Z</time>
      </trkpt>
      <trkpt lat="42.62917" lon="1.95066">
        <ele>1950.3</ele>
        <time>2020-02-14T06:43:11.224Z</time>
      </trkpt>
      <trkpt lat="42.62917" lon="1.95066">
        <ele>1945.5</ele>
        <time>2020-02-14T06:43:12.903Z</time>
      </trkpt>
      <trkpt lat="42.62918" lon="1.95066">
        <ele>1944.5</ele>
        <time>2020-02-14T06:43:13.400Z</time>
      </trkpt>
      <trkpt lat="42.62934" lon="1.95066">
        <ele>1941.6</ele>
        <time>2020-02-14T06:43:19.619Z</time>
      </trkpt>
      <trkpt lat="42.62937" lon="1.95069">
        <ele>1941.1</ele>
        <time>2020-02-14T06:43:20.973Z</time>
      </trkpt>
      <trkpt lat="42.6294" lon="1.9507">
        <ele>1940.1</ele>
        <time>2020-02-14T06:43:22.310Z</time>
      </trkpt>
      <trkpt lat="42.6295" lon="1.9507">
        <ele>1938.2</ele>
        <time>2020-02-14T06:43:26.156Z</time>
      </trkpt>
      <trkpt lat="42.6296" lon="1.95075">
        <ele>1937.8</ele>
        <time>2020-02-14T06:43:30.263Z</time>
      </trkpt>
      <trkpt lat="42.62963" lon="1.95075">
        <ele>1938.2</ele>
        <time>2020-02-14T06:43:31.394Z</time>
      </trkpt>
      <trkpt lat="42.62967" lon="1.95077">
        <ele>1935.3</ele>
        <time>2020-02-14T06:43:33.342Z</time>
      </trkpt>
      <trkpt lat="42.62977" lon="1.9508">
        <ele>1934.4</ele>
        <time>2020-02-14T06:43:37.204Z</time>
      </trkpt>
      <trkpt lat="42.62977" lon="1.9508">
        <ele>1938.3</ele>
        <time>2020-02-14T06:43:38.561Z</time>
      </trkpt>
      <trkpt lat="42.62977" lon="1.9508">
        <ele>1933.9</ele>
        <time>2020-02-14T06:43:40.099Z</time>
      </trkpt>
      <trkpt lat="42.62978" lon="1.95081">
        <ele>1934.4</ele>
        <time>2020-02-14T06:43:40.573Z</time>
      </trkpt>
      <trkpt lat="42.62981" lon="1.9508">
        <ele>1944.5</ele>
        <time>2020-02-14T06:43:44.254Z</time>
      </trkpt>
      <trkpt lat="42.62981" lon="1.9508">
        <ele>1933.9</ele>
        <time>2020-02-14T06:43:47.924Z</time>
      </trkpt>
      <trkpt lat="42.62981" lon="1.9508">
        <ele>1938.6</ele>
        <time>2020-02-14T06:43:49.579Z</time>
      </trkpt>
      <trkpt lat="42.62981" lon="1.9508">
        <ele>1934.3</ele>
        <time>2020-02-14T06:43:51.076Z</time>
      </trkpt>
      <trkpt lat="42.62981" lon="1.9508">
        <ele>1926.7</ele>
        <time>2020-02-14T06:43:53.729Z</time>
      </trkpt>
      <trkpt lat="42.62981" lon="1.9508">
        <ele>1938.2</ele>
        <time>2020-02-14T06:43:57.727Z</time>
      </trkpt>
      <trkpt lat="42.62981" lon="1.9508">
        <ele>1933.8</ele>
        <time>2020-02-14T06:43:59.257Z</time>
      </trkpt>
      <trkpt lat="42.62981" lon="1.9508">
        <ele>1933.4</ele>
        <time>2020-02-14T06:43:59.382Z</time>
      </trkpt>
      <trkpt lat="42.6298" lon="1.95077">
        <ele>1933</ele>
        <time>2020-02-14T06:44:00.315Z</time>
      </trkpt>
      <trkpt lat="42.62984" lon="1.95072">
        <ele>1929.6</ele>
        <time>2020-02-14T06:44:02.859Z</time>
      </trkpt>
      <trkpt lat="42.62986" lon="1.95074">
        <ele>1928.6</ele>
        <time>2020-02-14T06:44:04.047Z</time>
      </trkpt>
      <trkpt lat="42.62992" lon="1.95075">
        <ele>1924.3</ele>
        <time>2020-02-14T06:44:06.732Z</time>
      </trkpt>
      <trkpt lat="42.63003" lon="1.95078">
        <ele>1922.9</ele>
        <time>2020-02-14T06:44:11.102Z</time>
      </trkpt>
      <trkpt lat="42.63006" lon="1.9508">
        <ele>1921.3</ele>
        <time>2020-02-14T06:44:12.325Z</time>
      </trkpt>
      <trkpt lat="42.63012" lon="1.95088">
        <ele>1921</ele>
        <time>2020-02-14T06:44:15.825Z</time>
      </trkpt>
      <trkpt lat="42.63014" lon="1.95092">
        <ele>1921</ele>
        <time>2020-02-14T06:44:17.221Z</time>
      </trkpt>
      <trkpt lat="42.63024" lon="1.95101">
        <ele>1915.1</ele>
        <time>2020-02-14T06:44:22.001Z</time>
      </trkpt>
      <trkpt lat="42.63024" lon="1.95101">
        <ele>1919.9</ele>
        <time>2020-02-14T06:44:23.669Z</time>
      </trkpt>
      <trkpt lat="42.63024" lon="1.95101">
        <ele>1914.1</ele>
        <time>2020-02-14T06:44:25.674Z</time>
      </trkpt>
      <trkpt lat="42.63024" lon="1.95101">
        <ele>1919.9</ele>
        <time>2020-02-14T06:44:27.689Z</time>
      </trkpt>
      <trkpt lat="42.63034" lon="1.9511">
        <ele>1916</ele>
        <time>2020-02-14T06:44:32.620Z</time>
      </trkpt>
      <trkpt lat="42.63035" lon="1.9511">
        <ele>1916.6</ele>
        <time>2020-02-14T06:44:32.905Z</time>
      </trkpt>
      <trkpt lat="42.63039" lon="1.95111">
        <ele>1915.1</ele>
        <time>2020-02-14T06:44:34.779Z</time>
      </trkpt>
      <trkpt lat="42.63043" lon="1.95115">
        <ele>1914.7</ele>
        <time>2020-02-14T06:44:36.637Z</time>
      </trkpt>
      <trkpt lat="42.63053" lon="1.95118">
        <ele>1912.2</ele>
        <time>2020-02-14T06:44:40.614Z</time>
      </trkpt>
      <trkpt lat="42.63062" lon="1.9512">
        <ele>1909.9</ele>
        <time>2020-02-14T06:44:44.278Z</time>
      </trkpt>
      <trkpt lat="42.63068" lon="1.95124">
        <ele>1898.3</ele>
        <time>2020-02-14T06:44:48.960Z</time>
      </trkpt>
      <trkpt lat="42.63068" lon="1.95124">
        <ele>1893</ele>
        <time>2020-02-14T06:44:50.802Z</time>
      </trkpt>
      <trkpt lat="42.63068" lon="1.95124">
        <ele>1904.5</ele>
        <time>2020-02-14T06:44:54.789Z</time>
      </trkpt>
      <trkpt lat="42.63068" lon="1.95124">
        <ele>1908</ele>
        <time>2020-02-14T06:44:55.988Z</time>
      </trkpt>
      <trkpt lat="42.63068" lon="1.95124">
        <ele>1907.5</ele>
        <time>2020-02-14T06:44:56.154Z</time>
      </trkpt>
      <trkpt lat="42.63072" lon="1.95132">
        <ele>1908</ele>
        <time>2020-02-14T06:44:58.787Z</time>
      </trkpt>
      <trkpt lat="42.63077" lon="1.9514">
        <ele>1909.4</ele>
        <time>2020-02-14T06:45:01.899Z</time>
      </trkpt>
      <trkpt lat="42.63078" lon="1.95152">
        <ele>1910.3</ele>
        <time>2020-02-14T06:45:05.192Z</time>
      </trkpt>
      <trkpt lat="42.63084" lon="1.95163">
        <ele>1909.8</ele>
        <time>2020-02-14T06:45:09.068Z</time>
      </trkpt>
      <trkpt lat="42.63098" lon="1.95179">
        <ele>1912.8</ele>
        <time>2020-02-14T06:45:16.413Z</time>
      </trkpt>
      <trkpt lat="42.63108" lon="1.95186">
        <ele>1911.8</ele>
        <time>2020-02-14T06:45:20.647Z</time>
      </trkpt>
      <trkpt lat="42.63134" lon="1.95209">
        <ele>1908.5</ele>
        <time>2020-02-14T06:45:32.653Z</time>
      </trkpt>
      <trkpt lat="42.63147" lon="1.95223">
        <ele>1906.4</ele>
        <time>2020-02-14T06:45:39.244Z</time>
      </trkpt>
      <trkpt lat="42.63169" lon="1.95236">
        <ele>1905.5</ele>
        <time>2020-02-14T06:45:48.407Z</time>
      </trkpt>
      <trkpt lat="42.63182" lon="1.95249">
        <ele>1904.6</ele>
        <time>2020-02-14T06:45:54.529Z</time>
      </trkpt>
      <trkpt lat="42.63202" lon="1.9526">
        <ele>1902.7</ele>
        <time>2020-02-14T06:46:02.905Z</time>
      </trkpt>
      <trkpt lat="42.63217" lon="1.95268">
        <ele>1900.3</ele>
        <time>2020-02-14T06:46:09.360Z</time>
      </trkpt>
      <trkpt lat="42.63226" lon="1.95269">
        <ele>1900.3</ele>
        <time>2020-02-14T06:46:12.895Z</time>
      </trkpt>
      <trkpt lat="42.63235" lon="1.95272">
        <ele>1900.3</ele>
        <time>2020-02-14T06:46:16.196Z</time>
      </trkpt>
      <trkpt lat="42.6324" lon="1.95268">
        <ele>1898.7</ele>
        <time>2020-02-14T06:46:18.409Z</time>
      </trkpt>
      <trkpt lat="42.63254" lon="1.9527">
        <ele>1896.8</ele>
        <time>2020-02-14T06:46:23.888Z</time>
      </trkpt>
      <trkpt lat="42.6326" lon="1.9527">
        <ele>1894.9</ele>
        <time>2020-02-14T06:46:26.560Z</time>
      </trkpt>
      <trkpt lat="42.63265" lon="1.95268">
        <ele>1892</ele>
        <time>2020-02-14T06:46:28.798Z</time>
      </trkpt>
      <trkpt lat="42.63274" lon="1.95268">
        <ele>1889.1</ele>
        <time>2020-02-14T06:46:32.384Z</time>
      </trkpt>
      <trkpt lat="42.63289" lon="1.95271">
        <ele>1886.2</ele>
        <time>2020-02-14T06:46:38.161Z</time>
      </trkpt>
      <trkpt lat="42.63313" lon="1.95286">
        <ele>1887.3</ele>
        <time>2020-02-14T06:46:48.645Z</time>
      </trkpt>
      <trkpt lat="42.63324" lon="1.95293">
        <ele>1889.2</ele>
        <time>2020-02-14T06:46:53.094Z</time>
      </trkpt>
      <trkpt lat="42.63329" lon="1.95296">
        <ele>1892.6</ele>
        <time>2020-02-14T06:46:55.524Z</time>
      </trkpt>
      <trkpt lat="42.6333" lon="1.95302">
        <ele>1893.9</ele>
        <time>2020-02-14T06:46:57.385Z</time>
      </trkpt>
      <trkpt lat="42.63342" lon="1.95311">
        <ele>1895.4</ele>
        <time>2020-02-14T06:47:02.623Z</time>
      </trkpt>
      <trkpt lat="42.63349" lon="1.95315">
        <ele>1896.9</ele>
        <time>2020-02-14T06:47:05.438Z</time>
      </trkpt>
      <trkpt lat="42.63352" lon="1.95324">
        <ele>1897.8</ele>
        <time>2020-02-14T06:47:08.435Z</time>
      </trkpt>
      <trkpt lat="42.63361" lon="1.95331">
        <ele>1899.8</ele>
        <time>2020-02-14T06:47:12.222Z</time>
      </trkpt>
      <trkpt lat="42.63376" lon="1.95335">
        <ele>1900.3</ele>
        <time>2020-02-14T06:47:18.442Z</time>
      </trkpt>
      <trkpt lat="42.63382" lon="1.95344">
        <ele>1900.2</ele>
        <time>2020-02-14T06:47:21.933Z</time>
      </trkpt>
      <trkpt lat="42.63399" lon="1.95352">
        <ele>1897.3</ele>
        <time>2020-02-14T06:47:28.708Z</time>
      </trkpt>
      <trkpt lat="42.63401" lon="1.95354">
        <ele>1894.4</ele>
        <time>2020-02-14T06:47:30.054Z</time>
      </trkpt>
      <trkpt lat="42.63418" lon="1.9536">
        <ele>1892.6</ele>
        <time>2020-02-14T06:47:36.908Z</time>
      </trkpt>
      <trkpt lat="42.63422" lon="1.95368">
        <ele>1893.5</ele>
        <time>2020-02-14T06:47:39.908Z</time>
      </trkpt>
      <trkpt lat="42.6343" lon="1.95381">
        <ele>1892.5</ele>
        <time>2020-02-14T06:47:44.682Z</time>
      </trkpt>
      <trkpt lat="42.6344" lon="1.95385">
        <ele>1889.7</ele>
        <time>2020-02-14T06:47:48.688Z</time>
      </trkpt>
      <trkpt lat="42.63449" lon="1.95386">
        <ele>1887.3</ele>
        <time>2020-02-14T06:47:52.125Z</time>
      </trkpt>
      <trkpt lat="42.63454" lon="1.95394">
        <ele>1886.2</ele>
        <time>2020-02-14T06:47:55.150Z</time>
      </trkpt>
      <trkpt lat="42.6346" lon="1.954">
        <ele>1888.2</ele>
        <time>2020-02-14T06:47:58.120Z</time>
      </trkpt>
      <trkpt lat="42.63471" lon="1.95407">
        <ele>1888.7</ele>
        <time>2020-02-14T06:48:02.926Z</time>
      </trkpt>
      <trkpt lat="42.63477" lon="1.95413">
        <ele>1887.7</ele>
        <time>2020-02-14T06:48:05.663Z</time>
      </trkpt>
      <trkpt lat="42.63479" lon="1.95413">
        <ele>1887.2</ele>
        <time>2020-02-14T06:48:06.645Z</time>
      </trkpt>
      <trkpt lat="42.63489" lon="1.95423">
        <ele>1887.8</ele>
        <time>2020-02-14T06:48:11.175Z</time>
      </trkpt>
      <trkpt lat="42.63491" lon="1.95428">
        <ele>1889.6</ele>
        <time>2020-02-14T06:48:13.120Z</time>
      </trkpt>
      <trkpt lat="42.63492" lon="1.95431">
        <ele>1890.6</ele>
        <time>2020-02-14T06:48:14.099Z</time>
      </trkpt>
      <trkpt lat="42.63493" lon="1.95432">
        <ele>1890.1</ele>
        <time>2020-02-14T06:48:14.614Z</time>
      </trkpt>
      <trkpt lat="42.63495" lon="1.95432">
        <ele>1890.1</ele>
        <time>2020-02-14T06:48:15.200Z</time>
      </trkpt>
      <trkpt lat="42.63494" lon="1.95433">
        <ele>1890.6</ele>
        <time>2020-02-14T06:48:15.631Z</time>
      </trkpt>
      <trkpt lat="42.63497" lon="1.95439">
        <ele>1891.6</ele>
        <time>2020-02-14T06:48:17.853Z</time>
      </trkpt>
      <trkpt lat="42.63501" lon="1.95448">
        <ele>1893.1</ele>
        <time>2020-02-14T06:48:21.029Z</time>
      </trkpt>
      <trkpt lat="42.63509" lon="1.95456">
        <ele>1894.5</ele>
        <time>2020-02-14T06:48:24.629Z</time>
      </trkpt>
      <trkpt lat="42.63512" lon="1.95465">
        <ele>1895.9</ele>
        <time>2020-02-14T06:48:27.357Z</time>
      </trkpt>
      <trkpt lat="42.63516" lon="1.95473">
        <ele>1897.8</ele>
        <time>2020-02-14T06:48:30.406Z</time>
      </trkpt>
      <trkpt lat="42.6352" lon="1.95481">
        <ele>1899.2</ele>
        <time>2020-02-14T06:48:33.311Z</time>
      </trkpt>
      <trkpt lat="42.63528" lon="1.95486">
        <ele>1900.3</ele>
        <time>2020-02-14T06:48:36.371Z</time>
      </trkpt>
      <trkpt lat="42.63535" lon="1.95495">
        <ele>1902.1</ele>
        <time>2020-02-14T06:48:40.315Z</time>
      </trkpt>
      <trkpt lat="42.63541" lon="1.95504">
        <ele>1903.2</ele>
        <time>2020-02-14T06:48:43.556Z</time>
      </trkpt>
      <trkpt lat="42.63548" lon="1.95512">
        <ele>1905.1</ele>
        <time>2020-02-14T06:48:47.362Z</time>
      </trkpt>
      <trkpt lat="42.63551" lon="1.9552">
        <ele>1907.5</ele>
        <time>2020-02-14T06:48:50.007Z</time>
      </trkpt>
      <trkpt lat="42.63559" lon="1.9553">
        <ele>1908.4</ele>
        <time>2020-02-14T06:48:54.314Z</time>
      </trkpt>
      <trkpt lat="42.63572" lon="1.95541">
        <ele>1906.4</ele>
        <time>2020-02-14T06:49:00.127Z</time>
      </trkpt>
      <trkpt lat="42.63579" lon="1.95548">
        <ele>1905</ele>
        <time>2020-02-14T06:49:03.507Z</time>
      </trkpt>
      <trkpt lat="42.63587" lon="1.95558">
        <ele>1904</ele>
        <time>2020-02-14T06:49:07.838Z</time>
      </trkpt>
      <trkpt lat="42.63593" lon="1.95565">
        <ele>1904.5</ele>
        <time>2020-02-14T06:49:10.784Z</time>
      </trkpt>
      <trkpt lat="42.63595" lon="1.95571">
        <ele>1904.5</ele>
        <time>2020-02-14T06:49:12.631Z</time>
      </trkpt>
      <trkpt lat="42.63598" lon="1.9558">
        <ele>1905.5</ele>
        <time>2020-02-14T06:49:15.534Z</time>
      </trkpt>
      <trkpt lat="42.636" lon="1.95581">
        <ele>1906.1</ele>
        <time>2020-02-14T06:49:16.187Z</time>
      </trkpt>
      <trkpt lat="42.63605" lon="1.95591">
        <ele>1905.5</ele>
        <time>2020-02-14T06:49:19.581Z</time>
      </trkpt>
      <trkpt lat="42.63613" lon="1.95603">
        <ele>1905.1</ele>
        <time>2020-02-14T06:49:24.186Z</time>
      </trkpt>
      <trkpt lat="42.63618" lon="1.9561">
        <ele>1906.4</ele>
        <time>2020-02-14T06:49:27.089Z</time>
      </trkpt>
      <trkpt lat="42.63621" lon="1.95615">
        <ele>1905</ele>
        <time>2020-02-14T06:49:29.004Z</time>
      </trkpt>
      <trkpt lat="42.63621" lon="1.95617">
        <ele>1905.6</ele>
        <time>2020-02-14T06:49:29.424Z</time>
      </trkpt>
      <trkpt lat="42.63622" lon="1.95623">
        <ele>1905</ele>
        <time>2020-02-14T06:49:31.261Z</time>
      </trkpt>
      <trkpt lat="42.63629" lon="1.95636">
        <ele>1904</ele>
        <time>2020-02-14T06:49:35.988Z</time>
      </trkpt>
      <trkpt lat="42.63632" lon="1.9565">
        <ele>1905</ele>
        <time>2020-02-14T06:49:40.019Z</time>
      </trkpt>
      <trkpt lat="42.63634" lon="1.95672">
        <ele>1905.5</ele>
        <time>2020-02-14T06:49:46.364Z</time>
      </trkpt>
      <trkpt lat="42.63634" lon="1.95674">
        <ele>1905.6</ele>
        <time>2020-02-14T06:49:46.909Z</time>
      </trkpt>
      <trkpt lat="42.63637" lon="1.95691">
        <ele>1907</ele>
        <time>2020-02-14T06:49:51.935Z</time>
      </trkpt>
      <trkpt lat="42.63635" lon="1.95697">
        <ele>1909.9</ele>
        <time>2020-02-14T06:49:53.921Z</time>
      </trkpt>
      <trkpt lat="42.63642" lon="1.95708">
        <ele>1912.2</ele>
        <time>2020-02-14T06:49:58.011Z</time>
      </trkpt>
      <trkpt lat="42.63654" lon="1.95716">
        <ele>1914.2</ele>
        <time>2020-02-14T06:50:03.412Z</time>
      </trkpt>
      <trkpt lat="42.63659" lon="1.95729">
        <ele>1915.7</ele>
        <time>2020-02-14T06:50:07.502Z</time>
      </trkpt>
      <trkpt lat="42.63664" lon="1.95744">
        <ele>1918.6</ele>
        <time>2020-02-14T06:50:12.368Z</time>
      </trkpt>
      <trkpt lat="42.63662" lon="1.9575">
        <ele>1920.4</ele>
        <time>2020-02-14T06:50:14.131Z</time>
      </trkpt>
      <trkpt lat="42.63661" lon="1.95757">
        <ele>1923.3</ele>
        <time>2020-02-14T06:50:16.440Z</time>
      </trkpt>
      <trkpt lat="42.63663" lon="1.95763">
        <ele>1922.8</ele>
        <time>2020-02-14T06:50:18.382Z</time>
      </trkpt>
      <trkpt lat="42.63673" lon="1.95766">
        <ele>1921</ele>
        <time>2020-02-14T06:50:22.646Z</time>
      </trkpt>
      <trkpt lat="42.63677" lon="1.95767">
        <ele>1920.5</ele>
        <time>2020-02-14T06:50:24.037Z</time>
      </trkpt>
      <trkpt lat="42.63684" lon="1.95775">
        <ele>1922.3</ele>
        <time>2020-02-14T06:50:27.658Z</time>
      </trkpt>
      <trkpt lat="42.6369" lon="1.9578">
        <ele>1921.4</ele>
        <time>2020-02-14T06:50:30.523Z</time>
      </trkpt>
      <trkpt lat="42.63695" lon="1.95789">
        <ele>1921.8</ele>
        <time>2020-02-14T06:50:33.710Z</time>
      </trkpt>
      <trkpt lat="42.63695" lon="1.95791">
        <ele>1926.6</ele>
        <time>2020-02-14T06:50:35.508Z</time>
      </trkpt>
      <trkpt lat="42.63695" lon="1.95791">
        <ele>1917.5</ele>
        <time>2020-02-14T06:50:38.660Z</time>
      </trkpt>
      <trkpt lat="42.63695" lon="1.95791">
        <ele>1914.2</ele>
        <time>2020-02-14T06:50:39.829Z</time>
      </trkpt>
      <trkpt lat="42.63695" lon="1.95791">
        <ele>1924.8</ele>
        <time>2020-02-14T06:50:43.510Z</time>
      </trkpt>
      <trkpt lat="42.63695" lon="1.95791">
        <ele>1924.2</ele>
        <time>2020-02-14T06:50:43.703Z</time>
      </trkpt>
      <trkpt lat="42.63695" lon="1.95791">
        <ele>1915.1</ele>
        <time>2020-02-14T06:50:46.865Z</time>
      </trkpt>
      <trkpt lat="42.63695" lon="1.95791">
        <ele>1923.8</ele>
        <time>2020-02-14T06:50:49.882Z</time>
      </trkpt>
      <trkpt lat="42.63695" lon="1.95791">
        <ele>1918.5</ele>
        <time>2020-02-14T06:50:51.710Z</time>
      </trkpt>
      <trkpt lat="42.63695" lon="1.95791">
        <ele>1925.8</ele>
        <time>2020-02-14T06:50:54.232Z</time>
      </trkpt>
      <trkpt lat="42.63695" lon="1.95791">
        <ele>1922.8</ele>
        <time>2020-02-14T06:50:55.260Z</time>
      </trkpt>
      <trkpt lat="42.63695" lon="1.95791">
        <ele>1922.9</ele>
        <time>2020-02-14T06:50:55.274Z</time>
      </trkpt>
      <trkpt lat="42.63695" lon="1.95791">
        <ele>1921</ele>
        <time>2020-02-14T06:50:55.930Z</time>
      </trkpt>
      <trkpt lat="42.63695" lon="1.95791">
        <ele>1925.7</ele>
        <time>2020-02-14T06:50:57.580Z</time>
      </trkpt>
      <trkpt lat="42.63695" lon="1.95791">
        <ele>1919.5</ele>
        <time>2020-02-14T06:50:59.752Z</time>
      </trkpt>
      <trkpt lat="42.63695" lon="1.95791">
        <ele>1923.8</ele>
        <time>2020-02-14T06:51:01.250Z</time>
      </trkpt>
      <trkpt lat="42.63698" lon="1.95812">
        <ele>1920.9</ele>
        <time>2020-02-14T06:51:07.241Z</time>
      </trkpt>
      <trkpt lat="42.63698" lon="1.95821">
        <ele>1920.9</ele>
        <time>2020-02-14T06:51:09.688Z</time>
      </trkpt>
      <trkpt lat="42.63695" lon="1.95825">
        <ele>1921</ele>
        <time>2020-02-14T06:51:11.223Z</time>
      </trkpt>
      <trkpt lat="42.63695" lon="1.95826">
        <ele>1921</ele>
        <time>2020-02-14T06:51:11.568Z</time>
      </trkpt>
      <trkpt lat="42.63697" lon="1.9583">
        <ele>1920</ele>
        <time>2020-02-14T06:51:12.737Z</time>
      </trkpt>
      <trkpt lat="42.63692" lon="1.95843">
        <ele>1917.6</ele>
        <time>2020-02-14T06:51:17.253Z</time>
      </trkpt>
      <trkpt lat="42.63692" lon="1.95854">
        <ele>1917.1</ele>
        <time>2020-02-14T06:51:20.267Z</time>
      </trkpt>
      <trkpt lat="42.63696" lon="1.95866">
        <ele>1917</ele>
        <time>2020-02-14T06:51:23.980Z</time>
      </trkpt>
      <trkpt lat="42.63698" lon="1.95872">
        <ele>1920</ele>
        <time>2020-02-14T06:51:26.218Z</time>
      </trkpt>
      <trkpt lat="42.63698" lon="1.95875">
        <ele>1923.4</ele>
        <time>2020-02-14T06:51:27.780Z</time>
      </trkpt>
      <trkpt lat="42.63698" lon="1.9588">
        <ele>1926.7</ele>
        <time>2020-02-14T06:51:29.579Z</time>
      </trkpt>
      <trkpt lat="42.63702" lon="1.95888">
        <ele>1930</ele>
        <time>2020-02-14T06:51:32.397Z</time>
      </trkpt>
      <trkpt lat="42.63708" lon="1.95894">
        <ele>1933.4</ele>
        <time>2020-02-14T06:51:35.728Z</time>
      </trkpt>
      <trkpt lat="42.63714" lon="1.95908">
        <ele>1933.4</ele>
        <time>2020-02-14T06:51:40.027Z</time>
      </trkpt>
      <trkpt lat="42.6372" lon="1.95926">
        <ele>1932</ele>
        <time>2020-02-14T06:51:45.634Z</time>
      </trkpt>
      <trkpt lat="42.6372" lon="1.9593">
        <ele>1931.4</ele>
        <time>2020-02-14T06:51:47.028Z</time>
      </trkpt>
      <trkpt lat="42.63718" lon="1.9594">
        <ele>1930.5</ele>
        <time>2020-02-14T06:51:49.949Z</time>
      </trkpt>
      <trkpt lat="42.63715" lon="1.95949">
        <ele>1930</ele>
        <time>2020-02-14T06:51:52.759Z</time>
      </trkpt>
      <trkpt lat="42.63713" lon="1.95955">
        <ele>1929.6</ele>
        <time>2020-02-14T06:51:54.493Z</time>
      </trkpt>
      <trkpt lat="42.63714" lon="1.95962">
        <ele>1933.8</ele>
        <time>2020-02-14T06:51:57.156Z</time>
      </trkpt>
      <trkpt lat="42.63714" lon="1.95962">
        <ele>1930.5</ele>
        <time>2020-02-14T06:51:58.304Z</time>
      </trkpt>
      <trkpt lat="42.63714" lon="1.95962">
        <ele>1934.9</ele>
        <time>2020-02-14T06:51:59.817Z</time>
      </trkpt>
      <trkpt lat="42.63714" lon="1.95962">
        <ele>1930</ele>
        <time>2020-02-14T06:52:01.504Z</time>
      </trkpt>
      <trkpt lat="42.63714" lon="1.95962">
        <ele>1937.7</ele>
        <time>2020-02-14T06:52:04.176Z</time>
      </trkpt>
      <trkpt lat="42.63714" lon="1.95962">
        <ele>1930.6</ele>
        <time>2020-02-14T06:52:06.661Z</time>
      </trkpt>
      <trkpt lat="42.63714" lon="1.95962">
        <ele>1938.2</ele>
        <time>2020-02-14T06:52:09.327Z</time>
      </trkpt>
      <trkpt lat="42.63714" lon="1.95962">
        <ele>1925.2</ele>
        <time>2020-02-14T06:52:13.835Z</time>
      </trkpt>
      <trkpt lat="42.63714" lon="1.95962">
        <ele>1932</ele>
        <time>2020-02-14T06:52:16.179Z</time>
      </trkpt>
      <trkpt lat="42.63714" lon="1.95962">
        <ele>1934.9</ele>
        <time>2020-02-14T06:52:17.177Z</time>
      </trkpt>
      <trkpt lat="42.63714" lon="1.95962">
        <ele>1931</ele>
        <time>2020-02-14T06:52:18.501Z</time>
      </trkpt>
      <trkpt lat="42.63714" lon="1.95962">
        <ele>1929.6</ele>
        <time>2020-02-14T06:52:19.019Z</time>
      </trkpt>
      <trkpt lat="42.63714" lon="1.95962">
        <ele>1919.5</ele>
        <time>2020-02-14T06:52:22.513Z</time>
      </trkpt>
      <trkpt lat="42.63714" lon="1.95962">
        <ele>1930.6</ele>
        <time>2020-02-14T06:52:26.353Z</time>
      </trkpt>
      <trkpt lat="42.63714" lon="1.95962">
        <ele>1933.8</ele>
        <time>2020-02-14T06:52:27.487Z</time>
      </trkpt>
      <trkpt lat="42.63714" lon="1.95962">
        <ele>1923.7</ele>
        <time>2020-02-14T06:52:31.000Z</time>
      </trkpt>
      <trkpt lat="42.63714" lon="1.95962">
        <ele>1930.6</ele>
        <time>2020-02-14T06:52:33.379Z</time>
      </trkpt>
      <trkpt lat="42.63713" lon="1.95962">
        <ele>1924.3</ele>
        <time>2020-02-14T06:52:35.554Z</time>
      </trkpt>
      <trkpt lat="42.63713" lon="1.95962">
        <ele>1929.5</ele>
        <time>2020-02-14T06:52:37.371Z</time>
      </trkpt>
      <trkpt lat="42.63713" lon="1.95962">
        <ele>1933.4</ele>
        <time>2020-02-14T06:52:38.722Z</time>
      </trkpt>
      <trkpt lat="42.63713" lon="1.95962">
        <ele>1930.6</ele>
        <time>2020-02-14T06:52:39.704Z</time>
      </trkpt>
      <trkpt lat="42.63713" lon="1.95962">
        <ele>1936.8</ele>
        <time>2020-02-14T06:52:41.855Z</time>
      </trkpt>
      <trkpt lat="42.63713" lon="1.95962">
        <ele>1929.5</ele>
        <time>2020-02-14T06:52:44.372Z</time>
      </trkpt>
      <trkpt lat="42.63713" lon="1.95962">
        <ele>1923.7</ele>
        <time>2020-02-14T06:52:46.385Z</time>
      </trkpt>
      <trkpt lat="42.63713" lon="1.95962">
        <ele>1930</ele>
        <time>2020-02-14T06:52:48.566Z</time>
      </trkpt>
      <trkpt lat="42.63714" lon="1.95963">
        <ele>1927.1</ele>
        <time>2020-02-14T06:52:49.675Z</time>
      </trkpt>
      <trkpt lat="42.63714" lon="1.95972">
        <ele>1929.5</ele>
        <time>2020-02-14T06:52:52.312Z</time>
      </trkpt>
      <trkpt lat="42.63711" lon="1.95984">
        <ele>1928.2</ele>
        <time>2020-02-14T06:52:55.857Z</time>
      </trkpt>
      <trkpt lat="42.63707" lon="1.95995">
        <ele>1928.5</ele>
        <time>2020-02-14T06:52:59.296Z</time>
      </trkpt>
      <trkpt lat="42.63701" lon="1.96004">
        <ele>1928.5</ele>
        <time>2020-02-14T06:53:02.814Z</time>
      </trkpt>
      <trkpt lat="42.63697" lon="1.96014">
        <ele>1929</ele>
        <time>2020-02-14T06:53:05.958Z</time>
      </trkpt>
      <trkpt lat="42.63693" lon="1.96021">
        <ele>1929</ele>
        <time>2020-02-14T06:53:08.638Z</time>
      </trkpt>
      <trkpt lat="42.63692" lon="1.96029">
        <ele>1930.1</ele>
        <time>2020-02-14T06:53:10.892Z</time>
      </trkpt>
      <trkpt lat="42.63693" lon="1.96036">
        <ele>1929.5</ele>
        <time>2020-02-14T06:53:13.059Z</time>
      </trkpt>
      <trkpt lat="42.63692" lon="1.96044">
        <ele>1930</ele>
        <time>2020-02-14T06:53:15.389Z</time>
      </trkpt>
      <trkpt lat="42.63691" lon="1.96052">
        <ele>1929.5</ele>
        <time>2020-02-14T06:53:17.492Z</time>
      </trkpt>
      <trkpt lat="42.63691" lon="1.96062">
        <ele>1929</ele>
        <time>2020-02-14T06:53:20.370Z</time>
      </trkpt>
      <trkpt lat="42.63687" lon="1.96068">
        <ele>1930</ele>
        <time>2020-02-14T06:53:22.458Z</time>
      </trkpt>
      <trkpt lat="42.63686" lon="1.96076">
        <ele>1931.5</ele>
        <time>2020-02-14T06:53:24.897Z</time>
      </trkpt>
      <trkpt lat="42.63687" lon="1.96083">
        <ele>1931.9</ele>
        <time>2020-02-14T06:53:26.907Z</time>
      </trkpt>
      <trkpt lat="42.63686" lon="1.96089">
        <ele>1933.9</ele>
        <time>2020-02-14T06:53:28.884Z</time>
      </trkpt>
      <trkpt lat="42.63683" lon="1.96095">
        <ele>1935.8</ele>
        <time>2020-02-14T06:53:30.783Z</time>
      </trkpt>
      <trkpt lat="42.63679" lon="1.96098">
        <ele>1938.7</ele>
        <time>2020-02-14T06:53:33.007Z</time>
      </trkpt>
      <trkpt lat="42.63681" lon="1.96105">
        <ele>1940.7</ele>
        <time>2020-02-14T06:53:35.204Z</time>
      </trkpt>
      <trkpt lat="42.63682" lon="1.96111">
        <ele>1942.1</ele>
        <time>2020-02-14T06:53:36.926Z</time>
      </trkpt>
      <trkpt lat="42.63686" lon="1.9612">
        <ele>1943</ele>
        <time>2020-02-14T06:53:39.940Z</time>
      </trkpt>
      <trkpt lat="42.63685" lon="1.96128">
        <ele>1943.4</ele>
        <time>2020-02-14T06:53:42.251Z</time>
      </trkpt>
      <trkpt lat="42.63683" lon="1.96137">
        <ele>1946.3</ele>
        <time>2020-02-14T06:53:44.926Z</time>
      </trkpt>
      <trkpt lat="42.63681" lon="1.96145">
        <ele>1947.3</ele>
        <time>2020-02-14T06:53:47.389Z</time>
      </trkpt>
      <trkpt lat="42.63682" lon="1.96149">
        <ele>1948.4</ele>
        <time>2020-02-14T06:53:48.634Z</time>
      </trkpt>
      <trkpt lat="42.63674" lon="1.96156">
        <ele>1949.3</ele>
        <time>2020-02-14T06:53:52.317Z</time>
      </trkpt>
      <trkpt lat="42.63667" lon="1.96162">
        <ele>1950.3</ele>
        <time>2020-02-14T06:53:55.360Z</time>
      </trkpt>
      <trkpt lat="42.63662" lon="1.96175">
        <ele>1952.1</ele>
        <time>2020-02-14T06:53:59.687Z</time>
      </trkpt>
      <trkpt lat="42.63656" lon="1.96181">
        <ele>1953.1</ele>
        <time>2020-02-14T06:54:02.559Z</time>
      </trkpt>
      <trkpt lat="42.63654" lon="1.96189">
        <ele>1953.1</ele>
        <time>2020-02-14T06:54:04.827Z</time>
      </trkpt>
      <trkpt lat="42.63647" lon="1.96194">
        <ele>1954.5</ele>
        <time>2020-02-14T06:54:08.036Z</time>
      </trkpt>
      <trkpt lat="42.63642" lon="1.96202">
        <ele>1955.9</ele>
        <time>2020-02-14T06:54:11.079Z</time>
      </trkpt>
      <trkpt lat="42.63638" lon="1.96205">
        <ele>1959.4</ele>
        <time>2020-02-14T06:54:13.176Z</time>
      </trkpt>
      <trkpt lat="42.63633" lon="1.96208">
        <ele>1962.2</ele>
        <time>2020-02-14T06:54:15.574Z</time>
      </trkpt>
      <trkpt lat="42.63637" lon="1.96222">
        <ele>1965.6</ele>
        <time>2020-02-14T06:54:20.063Z</time>
      </trkpt>
      <trkpt lat="42.63635" lon="1.96225">
        <ele>1967</ele>
        <time>2020-02-14T06:54:21.419Z</time>
      </trkpt>
      <trkpt lat="42.63635" lon="1.9623">
        <ele>1970.5</ele>
        <time>2020-02-14T06:54:23.253Z</time>
      </trkpt>
      <trkpt lat="42.63635" lon="1.96237">
        <ele>1971.8</ele>
        <time>2020-02-14T06:54:25.265Z</time>
      </trkpt>
      <trkpt lat="42.63634" lon="1.96238">
        <ele>1974.2</ele>
        <time>2020-02-14T06:54:26.209Z</time>
      </trkpt>
      <trkpt lat="42.63637" lon="1.96241">
        <ele>1975.2</ele>
        <time>2020-02-14T06:54:27.739Z</time>
      </trkpt>
      <trkpt lat="42.63642" lon="1.96248">
        <ele>1977.1</ele>
        <time>2020-02-14T06:54:30.560Z</time>
      </trkpt>
      <trkpt lat="42.63642" lon="1.9626">
        <ele>1978.5</ele>
        <time>2020-02-14T06:54:34.059Z</time>
      </trkpt>
      <trkpt lat="42.63642" lon="1.9626">
        <ele>1978.5</ele>
        <time>2020-02-14T06:54:34.222Z</time>
      </trkpt>
      <trkpt lat="42.63637" lon="1.96264">
        <ele>1978.5</ele>
        <time>2020-02-14T06:54:36.265Z</time>
      </trkpt>
      <trkpt lat="42.63632" lon="1.96269">
        <ele>1977.1</ele>
        <time>2020-02-14T06:54:38.679Z</time>
      </trkpt>
      <trkpt lat="42.63631" lon="1.9627">
        <ele>1977.1</ele>
        <time>2020-02-14T06:54:39.140Z</time>
      </trkpt>
      <trkpt lat="42.63628" lon="1.9628">
        <ele>1976.2</ele>
        <time>2020-02-14T06:54:42.444Z</time>
      </trkpt>
      <trkpt lat="42.63624" lon="1.96288">
        <ele>1974.7</ele>
        <time>2020-02-14T06:54:45.197Z</time>
      </trkpt>
      <trkpt lat="42.63619" lon="1.96296">
        <ele>1975.3</ele>
        <time>2020-02-14T06:54:48.208Z</time>
      </trkpt>
      <trkpt lat="42.63615" lon="1.96307">
        <ele>1976.2</ele>
        <time>2020-02-14T06:54:51.514Z</time>
      </trkpt>
      <trkpt lat="42.6361" lon="1.96314">
        <ele>1975.7</ele>
        <time>2020-02-14T06:54:54.490Z</time>
      </trkpt>
      <trkpt lat="42.6361" lon="1.96315">
        <ele>1975.7</ele>
        <time>2020-02-14T06:54:54.720Z</time>
      </trkpt>
      <trkpt lat="42.63612" lon="1.9633">
        <ele>1975.2</ele>
        <time>2020-02-14T06:54:58.895Z</time>
      </trkpt>
      <trkpt lat="42.63617" lon="1.96343">
        <ele>1976.2</ele>
        <time>2020-02-14T06:55:03.053Z</time>
      </trkpt>
      <trkpt lat="42.63617" lon="1.96347">
        <ele>1975.3</ele>
        <time>2020-02-14T06:55:04.244Z</time>
      </trkpt>
      <trkpt lat="42.63611" lon="1.96355">
        <ele>1973.7</ele>
        <time>2020-02-14T06:55:07.699Z</time>
      </trkpt>
      <trkpt lat="42.63603" lon="1.96368">
        <ele>1973.2</ele>
        <time>2020-02-14T06:55:12.427Z</time>
      </trkpt>
      <trkpt lat="42.63594" lon="1.96381">
        <ele>1971.9</ele>
        <time>2020-02-14T06:55:17.380Z</time>
      </trkpt>
      <trkpt lat="42.63592" lon="1.96396">
        <ele>1971.4</ele>
        <time>2020-02-14T06:55:21.793Z</time>
      </trkpt>
      <trkpt lat="42.63588" lon="1.9641">
        <ele>1972.4</ele>
        <time>2020-02-14T06:55:26.250Z</time>
      </trkpt>
      <trkpt lat="42.63587" lon="1.96412">
        <ele>1973.3</ele>
        <time>2020-02-14T06:55:27.091Z</time>
      </trkpt>
      <trkpt lat="42.63581" lon="1.96425">
        <ele>1975.7</ele>
        <time>2020-02-14T06:55:31.420Z</time>
      </trkpt>
      <trkpt lat="42.63574" lon="1.96442">
        <ele>1976.2</ele>
        <time>2020-02-14T06:55:36.761Z</time>
      </trkpt>
      <trkpt lat="42.63569" lon="1.96458">
        <ele>1974.8</ele>
        <time>2020-02-14T06:55:41.744Z</time>
      </trkpt>
      <trkpt lat="42.63571" lon="1.96465">
        <ele>1972.8</ele>
        <time>2020-02-14T06:55:44.014Z</time>
      </trkpt>
      <trkpt lat="42.63571" lon="1.96466">
        <ele>1972.9</ele>
        <time>2020-02-14T06:55:44.565Z</time>
      </trkpt>
      <trkpt lat="42.63569" lon="1.96491">
        <ele>1969.4</ele>
        <time>2020-02-14T06:55:51.674Z</time>
      </trkpt>
      <trkpt lat="42.63567" lon="1.96513">
        <ele>1966.5</ele>
        <time>2020-02-14T06:55:57.951Z</time>
      </trkpt>
      <trkpt lat="42.63565" lon="1.96521">
        <ele>1964.7</ele>
        <time>2020-02-14T06:56:00.704Z</time>
      </trkpt>
      <trkpt lat="42.63562" lon="1.96527">
        <ele>1963.7</ele>
        <time>2020-02-14T06:56:02.681Z</time>
      </trkpt>
      <trkpt lat="42.63558" lon="1.96543">
        <ele>1962.8</ele>
        <time>2020-02-14T06:56:07.496Z</time>
      </trkpt>
      <trkpt lat="42.63558" lon="1.96554">
        <ele>1962.3</ele>
        <time>2020-02-14T06:56:10.482Z</time>
      </trkpt>
      <trkpt lat="42.63559" lon="1.9657">
        <ele>1961.2</ele>
        <time>2020-02-14T06:56:15.183Z</time>
      </trkpt>
      <trkpt lat="42.63557" lon="1.96582">
        <ele>1961.7</ele>
        <time>2020-02-14T06:56:18.696Z</time>
      </trkpt>
      <trkpt lat="42.63564" lon="1.96592">
        <ele>1961.8</ele>
        <time>2020-02-14T06:56:22.640Z</time>
      </trkpt>
      <trkpt lat="42.63571" lon="1.96613">
        <ele>1958.9</ele>
        <time>2020-02-14T06:56:29.112Z</time>
      </trkpt>
      <trkpt lat="42.63575" lon="1.96629">
        <ele>1957.5</ele>
        <time>2020-02-14T06:56:33.777Z</time>
      </trkpt>
      <trkpt lat="42.63574" lon="1.96642">
        <ele>1955.9</ele>
        <time>2020-02-14T06:56:37.751Z</time>
      </trkpt>
      <trkpt lat="42.63568" lon="1.96652">
        <ele>1956.9</ele>
        <time>2020-02-14T06:56:41.296Z</time>
      </trkpt>
      <trkpt lat="42.63564" lon="1.96664">
        <ele>1957.5</ele>
        <time>2020-02-14T06:56:45.045Z</time>
      </trkpt>
      <trkpt lat="42.6356" lon="1.96669">
        <ele>1959.4</ele>
        <time>2020-02-14T06:56:47.209Z</time>
      </trkpt>
      <trkpt lat="42.63556" lon="1.96677">
        <ele>1956</ele>
        <time>2020-02-14T06:56:50.372Z</time>
      </trkpt>
      <trkpt lat="42.63551" lon="1.96683">
        <ele>1955.5</ele>
        <time>2020-02-14T06:56:52.683Z</time>
      </trkpt>
      <trkpt lat="42.63549" lon="1.96694">
        <ele>1955.6</ele>
        <time>2020-02-14T06:56:56.060Z</time>
      </trkpt>
      <trkpt lat="42.63552" lon="1.96705">
        <ele>1956</ele>
        <time>2020-02-14T06:56:59.326Z</time>
      </trkpt>
      <trkpt lat="42.63557" lon="1.96712">
        <ele>1956.4</ele>
        <time>2020-02-14T06:57:02.082Z</time>
      </trkpt>
      <trkpt lat="42.63561" lon="1.96718">
        <ele>1956</ele>
        <time>2020-02-14T06:57:04.306Z</time>
      </trkpt>
      <trkpt lat="42.63563" lon="1.96718">
        <ele>1957.4</ele>
        <time>2020-02-14T06:57:05.342Z</time>
      </trkpt>
      <trkpt lat="42.6357" lon="1.96719">
        <ele>1956.9</ele>
        <time>2020-02-14T06:57:07.932Z</time>
      </trkpt>
      <trkpt lat="42.63578" lon="1.96723">
        <ele>1958.3</ele>
        <time>2020-02-14T06:57:11.429Z</time>
      </trkpt>
      <trkpt lat="42.63582" lon="1.96723">
        <ele>1958.3</ele>
        <time>2020-02-14T06:57:12.744Z</time>
      </trkpt>
      <trkpt lat="42.63595" lon="1.96723">
        <ele>1960.9</ele>
        <time>2020-02-14T06:57:17.882Z</time>
      </trkpt>
      <trkpt lat="42.63605" lon="1.96722">
        <ele>1961.8</ele>
        <time>2020-02-14T06:57:21.910Z</time>
      </trkpt>
      <trkpt lat="42.63616" lon="1.96723">
        <ele>1961.7</ele>
        <time>2020-02-14T06:57:26.274Z</time>
      </trkpt>
      <trkpt lat="42.63636" lon="1.96727">
        <ele>1960.9</ele>
        <time>2020-02-14T06:57:34.073Z</time>
      </trkpt>
      <trkpt lat="42.63655" lon="1.96732">
        <ele>1959.4</ele>
        <time>2020-02-14T06:57:41.269Z</time>
      </trkpt>
      <trkpt lat="42.63656" lon="1.96733">
        <ele>1960.4</ele>
        <time>2020-02-14T06:57:41.903Z</time>
      </trkpt>
      <trkpt lat="42.63658" lon="1.96737">
        <ele>1960.8</ele>
        <time>2020-02-14T06:57:43.477Z</time>
      </trkpt>
      <trkpt lat="42.6366" lon="1.96739">
        <ele>1960.3</ele>
        <time>2020-02-14T06:57:44.440Z</time>
      </trkpt>
      <trkpt lat="42.63665" lon="1.9675">
        <ele>1961.2</ele>
        <time>2020-02-14T06:57:47.939Z</time>
      </trkpt>
      <trkpt lat="42.63672" lon="1.96767">
        <ele>1961.2</ele>
        <time>2020-02-14T06:57:53.648Z</time>
      </trkpt>
      <trkpt lat="42.63675" lon="1.96778">
        <ele>1959.8</ele>
        <time>2020-02-14T06:57:57.001Z</time>
      </trkpt>
      <trkpt lat="42.63682" lon="1.96791">
        <ele>1959.9</ele>
        <time>2020-02-14T06:58:01.322Z</time>
      </trkpt>
      <trkpt lat="42.63682" lon="1.96792">
        <ele>1959.8</ele>
        <time>2020-02-14T06:58:01.694Z</time>
      </trkpt>
      <trkpt lat="42.63688" lon="1.96802">
        <ele>1960.4</ele>
        <time>2020-02-14T06:58:05.521Z</time>
      </trkpt>
      <trkpt lat="42.63697" lon="1.96817">
        <ele>1960.8</ele>
        <time>2020-02-14T06:58:10.810Z</time>
      </trkpt>
      <trkpt lat="42.63697" lon="1.96827">
        <ele>1961.2</ele>
        <time>2020-02-14T06:58:13.656Z</time>
      </trkpt>
      <trkpt lat="42.63699" lon="1.96838">
        <ele>1963.2</ele>
        <time>2020-02-14T06:58:16.995Z</time>
      </trkpt>
      <trkpt lat="42.63697" lon="1.96847">
        <ele>1963.3</ele>
        <time>2020-02-14T06:58:19.596Z</time>
      </trkpt>
      <trkpt lat="42.63698" lon="1.96845">
        <ele>1966</ele>
        <time>2020-02-14T06:58:20.798Z</time>
      </trkpt>
      <trkpt lat="42.63698" lon="1.96845">
        <ele>1955</ele>
        <time>2020-02-14T06:58:24.617Z</time>
      </trkpt>
      <trkpt lat="42.63698" lon="1.96845">
        <ele>1957.4</ele>
        <time>2020-02-14T06:58:25.447Z</time>
      </trkpt>
      <trkpt lat="42.63698" lon="1.96845">
        <ele>1962.8</ele>
        <time>2020-02-14T06:58:27.318Z</time>
      </trkpt>
      <trkpt lat="42.63698" lon="1.96845">
        <ele>1966.6</ele>
        <time>2020-02-14T06:58:28.628Z</time>
      </trkpt>
      <trkpt lat="42.63698" lon="1.96845">
        <ele>1970.5</ele>
        <time>2020-02-14T06:58:29.982Z</time>
      </trkpt>
      <trkpt lat="42.63698" lon="1.96845">
        <ele>1965.2</ele>
        <time>2020-02-14T06:58:31.829Z</time>
      </trkpt>
      <trkpt lat="42.63698" lon="1.96845">
        <ele>1966</ele>
        <time>2020-02-14T06:58:32.136Z</time>
      </trkpt>
      <trkpt lat="42.63698" lon="1.96845">
        <ele>1960.8</ele>
        <time>2020-02-14T06:58:33.942Z</time>
      </trkpt>
      <trkpt lat="42.63698" lon="1.96845">
        <ele>1961.3</ele>
        <time>2020-02-14T06:58:34.102Z</time>
      </trkpt>
      <trkpt lat="42.63698" lon="1.96845">
        <ele>1963.3</ele>
        <time>2020-02-14T06:58:34.802Z</time>
      </trkpt>
      <trkpt lat="42.637" lon="1.96851">
        <ele>1963.3</ele>
        <time>2020-02-14T06:58:36.785Z</time>
      </trkpt>
      <trkpt lat="42.63701" lon="1.96856">
        <ele>1963.6</ele>
        <time>2020-02-14T06:58:38.307Z</time>
      </trkpt>
      <trkpt lat="42.63707" lon="1.96873">
        <ele>1962.7</ele>
        <time>2020-02-14T06:58:43.713Z</time>
      </trkpt>
      <trkpt lat="42.63708" lon="1.9688">
        <ele>1961.8</ele>
        <time>2020-02-14T06:58:45.668Z</time>
      </trkpt>
      <trkpt lat="42.63707" lon="1.96881">
        <ele>1968.1</ele>
        <time>2020-02-14T06:58:47.873Z</time>
      </trkpt>
      <trkpt lat="42.63707" lon="1.96881">
        <ele>1961.2</ele>
        <time>2020-02-14T06:58:50.236Z</time>
      </trkpt>
      <trkpt lat="42.63707" lon="1.96881">
        <ele>1963.6</ele>
        <time>2020-02-14T06:58:51.066Z</time>
      </trkpt>
      <trkpt lat="42.63707" lon="1.96881">
        <ele>1954.6</ele>
        <time>2020-02-14T06:58:54.204Z</time>
      </trkpt>
      <trkpt lat="42.63707" lon="1.96881">
        <ele>1963.7</ele>
        <time>2020-02-14T06:58:57.356Z</time>
      </trkpt>
      <trkpt lat="42.6371" lon="1.96888">
        <ele>1960.8</ele>
        <time>2020-02-14T06:58:59.871Z</time>
      </trkpt>
      <trkpt lat="42.63709" lon="1.96901">
        <ele>1960.8</ele>
        <time>2020-02-14T06:59:03.489Z</time>
      </trkpt>
      <trkpt lat="42.63709" lon="1.96902">
        <ele>1960.8</ele>
        <time>2020-02-14T06:59:03.695Z</time>
      </trkpt>
      <trkpt lat="42.63714" lon="1.96917">
        <ele>1959.3</ele>
        <time>2020-02-14T06:59:08.353Z</time>
      </trkpt>
      <trkpt lat="42.63716" lon="1.96924">
        <ele>1958.3</ele>
        <time>2020-02-14T06:59:10.474Z</time>
      </trkpt>
      <trkpt lat="42.63723" lon="1.96945">
        <ele>1956.5</ele>
        <time>2020-02-14T06:59:17.103Z</time>
      </trkpt>
      <trkpt lat="42.63727" lon="1.96948">
        <ele>1956.4</ele>
        <time>2020-02-14T06:59:18.847Z</time>
      </trkpt>
      <trkpt lat="42.63738" lon="1.96955">
        <ele>1956.5</ele>
        <time>2020-02-14T06:59:23.475Z</time>
      </trkpt>
      <trkpt lat="42.63746" lon="1.96961">
        <ele>1956.9</ele>
        <time>2020-02-14T06:59:26.930Z</time>
      </trkpt>
      <trkpt lat="42.63757" lon="1.96975">
        <ele>1956.9</ele>
        <time>2020-02-14T06:59:32.721Z</time>
      </trkpt>
      <trkpt lat="42.6376" lon="1.96979">
        <ele>1957.5</ele>
        <time>2020-02-14T06:59:34.604Z</time>
      </trkpt>
      <trkpt lat="42.63765" lon="1.96986">
        <ele>1958.9</ele>
        <time>2020-02-14T06:59:37.376Z</time>
      </trkpt>
      <trkpt lat="42.63777" lon="1.96989">
        <ele>1958.8</ele>
        <time>2020-02-14T06:59:41.909Z</time>
      </trkpt>
      <trkpt lat="42.63783" lon="1.96995">
        <ele>1959.8</ele>
        <time>2020-02-14T06:59:44.993Z</time>
      </trkpt>
      <trkpt lat="42.63789" lon="1.96998">
        <ele>1959.8</ele>
        <time>2020-02-14T06:59:47.461Z</time>
      </trkpt>
      <trkpt lat="42.63796" lon="1.97002">
        <ele>1960.3</ele>
        <time>2020-02-14T06:59:50.141Z</time>
      </trkpt>
      <trkpt lat="42.63805" lon="1.97006">
        <ele>1961.3</ele>
        <time>2020-02-14T06:59:53.884Z</time>
      </trkpt>
      <trkpt lat="42.63815" lon="1.97005">
        <ele>1960.8</ele>
        <time>2020-02-14T06:59:57.912Z</time>
      </trkpt>
      <trkpt lat="42.63824" lon="1.97007">
        <ele>1960.8</ele>
        <time>2020-02-14T07:00:01.208Z</time>
      </trkpt>
      <trkpt lat="42.63836" lon="1.97005">
        <ele>1959.9</ele>
        <time>2020-02-14T07:00:06.071Z</time>
      </trkpt>
      <trkpt lat="42.63849" lon="1.97008">
        <ele>1960.9</ele>
        <time>2020-02-14T07:00:11.236Z</time>
      </trkpt>
      <trkpt lat="42.63856" lon="1.97012">
        <ele>1962.3</ele>
        <time>2020-02-14T07:00:14.098Z</time>
      </trkpt>
      <trkpt lat="42.63861" lon="1.97016">
        <ele>1962.2</ele>
        <time>2020-02-14T07:00:16.346Z</time>
      </trkpt>
      <trkpt lat="42.63871" lon="1.97021">
        <ele>1964.2</ele>
        <time>2020-02-14T07:00:20.483Z</time>
      </trkpt>
      <trkpt lat="42.6388" lon="1.97028">
        <ele>1966</ele>
        <time>2020-02-14T07:00:24.635Z</time>
      </trkpt>
      <trkpt lat="42.63886" lon="1.97036">
        <ele>1966.5</ele>
        <time>2020-02-14T07:00:27.904Z</time>
      </trkpt>
      <trkpt lat="42.63897" lon="1.97043">
        <ele>1968.4</ele>
        <time>2020-02-14T07:00:32.602Z</time>
      </trkpt>
      <trkpt lat="42.639" lon="1.97045">
        <ele>1959.9</ele>
        <time>2020-02-14T07:00:35.729Z</time>
      </trkpt>
      <trkpt lat="42.639" lon="1.97045">
        <ele>1969.5</ele>
        <time>2020-02-14T07:00:39.066Z</time>
      </trkpt>
      <trkpt lat="42.63901" lon="1.97046">
        <ele>1960.9</ele>
        <time>2020-02-14T07:00:42.066Z</time>
      </trkpt>
      <trkpt lat="42.63902" lon="1.97046">
        <ele>1972.3</ele>
        <time>2020-02-14T07:00:46.067Z</time>
      </trkpt>
      <trkpt lat="42.63903" lon="1.97047">
        <ele>1968</ele>
        <time>2020-02-14T07:00:47.616Z</time>
      </trkpt>
      <trkpt lat="42.63905" lon="1.97048">
        <ele>1973.2</ele>
        <time>2020-02-14T07:00:49.585Z</time>
      </trkpt>
      <trkpt lat="42.63906" lon="1.97048">
        <ele>1967</ele>
        <time>2020-02-14T07:00:51.771Z</time>
      </trkpt>
      <trkpt lat="42.63907" lon="1.97048">
        <ele>1971.3</ele>
        <time>2020-02-14T07:00:53.304Z</time>
      </trkpt>
      <trkpt lat="42.63909" lon="1.97049">
        <ele>1961.7</ele>
        <time>2020-02-14T07:00:56.743Z</time>
      </trkpt>
      <trkpt lat="42.6391" lon="1.97049">
        <ele>1969.9</ele>
        <time>2020-02-14T07:00:59.583Z</time>
      </trkpt>
      <trkpt lat="42.6391" lon="1.97049">
        <ele>1965.6</ele>
        <time>2020-02-14T07:01:01.115Z</time>
      </trkpt>
      <trkpt lat="42.63911" lon="1.97049">
        <ele>1969.9</ele>
        <time>2020-02-14T07:01:02.637Z</time>
      </trkpt>
      <trkpt lat="42.63916" lon="1.97049">
        <ele>1969.9</ele>
        <time>2020-02-14T07:01:04.606Z</time>
      </trkpt>
      <trkpt lat="42.63918" lon="1.97048">
        <ele>1970.5</ele>
        <time>2020-02-14T07:01:05.485Z</time>
      </trkpt>
      <trkpt lat="42.63928" lon="1.97046">
        <ele>1970.9</ele>
        <time>2020-02-14T07:01:09.380Z</time>
      </trkpt>
      <trkpt lat="42.63934" lon="1.97048">
        <ele>1973.7</ele>
        <time>2020-02-14T07:01:11.824Z</time>
      </trkpt>
      <trkpt lat="42.63935" lon="1.97049">
        <ele>1975.3</ele>
        <time>2020-02-14T07:01:12.619Z</time>
      </trkpt>
      <trkpt lat="42.63942" lon="1.9705">
        <ele>1977.6</ele>
        <time>2020-02-14T07:01:15.242Z</time>
      </trkpt>
      <trkpt lat="42.63948" lon="1.97053">
        <ele>1981</ele>
        <time>2020-02-14T07:01:18.106Z</time>
      </trkpt>
      <trkpt lat="42.63957" lon="1.97054">
        <ele>1983</ele>
        <time>2020-02-14T07:01:21.611Z</time>
      </trkpt>
      <trkpt lat="42.63963" lon="1.97059">
        <ele>1985.3</ele>
        <time>2020-02-14T07:01:24.334Z</time>
      </trkpt>
      <trkpt lat="42.63969" lon="1.97064">
        <ele>1986.7</ele>
        <time>2020-02-14T07:01:27.044Z</time>
      </trkpt>
      <trkpt lat="42.63972" lon="1.97066">
        <ele>1987.3</ele>
        <time>2020-02-14T07:01:28.338Z</time>
      </trkpt>
      <trkpt lat="42.63979" lon="1.97069">
        <ele>1986.3</ele>
        <time>2020-02-14T07:01:31.175Z</time>
      </trkpt>
      <trkpt lat="42.63994" lon="1.97081">
        <ele>1986.3</ele>
        <time>2020-02-14T07:01:38.116Z</time>
      </trkpt>
      <trkpt lat="42.64001" lon="1.97097">
        <ele>1986.3</ele>
        <time>2020-02-14T07:01:43.113Z</time>
      </trkpt>
      <trkpt lat="42.64008" lon="1.97101">
        <ele>1984.4</ele>
        <time>2020-02-14T07:01:46.121Z</time>
      </trkpt>
      <trkpt lat="42.64011" lon="1.97102">
        <ele>1984.9</ele>
        <time>2020-02-14T07:01:47.577Z</time>
      </trkpt>
      <trkpt lat="42.64021" lon="1.97106">
        <ele>1986.8</ele>
        <time>2020-02-14T07:01:51.676Z</time>
      </trkpt>
      <trkpt lat="42.64027" lon="1.9711">
        <ele>1987.3</ele>
        <time>2020-02-14T07:01:54.256Z</time>
      </trkpt>
      <trkpt lat="42.6403" lon="1.97119">
        <ele>1988.6</ele>
        <time>2020-02-14T07:01:56.998Z</time>
      </trkpt>
      <trkpt lat="42.64035" lon="1.97135">
        <ele>1989.6</ele>
        <time>2020-02-14T07:02:02.021Z</time>
      </trkpt>
      <trkpt lat="42.64041" lon="1.97147">
        <ele>1989.6</ele>
        <time>2020-02-14T07:02:06.114Z</time>
      </trkpt>
      <trkpt lat="42.64045" lon="1.97159">
        <ele>1988.1</ele>
        <time>2020-02-14T07:02:09.841Z</time>
      </trkpt>
      <trkpt lat="42.64053" lon="1.97168">
        <ele>1989.1</ele>
        <time>2020-02-14T07:02:14.032Z</time>
      </trkpt>
      <trkpt lat="42.64059" lon="1.97179">
        <ele>1990.2</ele>
        <time>2020-02-14T07:02:17.784Z</time>
      </trkpt>
      <trkpt lat="42.64059" lon="1.97179">
        <ele>1985.4</ele>
        <time>2020-02-14T07:02:19.454Z</time>
      </trkpt>
      <trkpt lat="42.64059" lon="1.97179">
        <ele>1991.6</ele>
        <time>2020-02-14T07:02:21.619Z</time>
      </trkpt>
      <trkpt lat="42.64059" lon="1.97179">
        <ele>1994</ele>
        <time>2020-02-14T07:02:22.449Z</time>
      </trkpt>
      <trkpt lat="42.64059" lon="1.97179">
        <ele>1989.7</ele>
        <time>2020-02-14T07:02:23.938Z</time>
      </trkpt>
      <trkpt lat="42.64059" lon="1.97179">
        <ele>1991</ele>
        <time>2020-02-14T07:02:24.399Z</time>
      </trkpt>
      <trkpt lat="42.64059" lon="1.97179">
        <ele>1982.4</ele>
        <time>2020-02-14T07:02:27.391Z</time>
      </trkpt>
      <trkpt lat="42.64059" lon="1.97179">
        <ele>1991.5</ele>
        <time>2020-02-14T07:02:30.554Z</time>
      </trkpt>
      <trkpt lat="42.64059" lon="1.97179">
        <ele>1988.1</ele>
        <time>2020-02-14T07:02:31.736Z</time>
      </trkpt>
      <trkpt lat="42.64059" lon="1.97179">
        <ele>1983</ele>
        <time>2020-02-14T07:02:33.527Z</time>
      </trkpt>
      <trkpt lat="42.64059" lon="1.97179">
        <ele>1992</ele>
        <time>2020-02-14T07:02:36.684Z</time>
      </trkpt>
      <trkpt lat="42.64059" lon="1.97179">
        <ele>1984.9</ele>
        <time>2020-02-14T07:02:39.182Z</time>
      </trkpt>
      <trkpt lat="42.64059" lon="1.97179">
        <ele>1990.6</ele>
        <time>2020-02-14T07:02:41.181Z</time>
      </trkpt>
      <trkpt lat="42.64059" lon="1.97179">
        <ele>1983.9</ele>
        <time>2020-02-14T07:02:43.517Z</time>
      </trkpt>
      <trkpt lat="42.64059" lon="1.97179">
        <ele>1991.1</ele>
        <time>2020-02-14T07:02:46.015Z</time>
      </trkpt>
      <trkpt lat="42.64059" lon="1.97179">
        <ele>1984.9</ele>
        <time>2020-02-14T07:02:48.160Z</time>
      </trkpt>
      <trkpt lat="42.64059" lon="1.97179">
        <ele>1992.1</ele>
        <time>2020-02-14T07:02:50.648Z</time>
      </trkpt>
      <trkpt lat="42.64059" lon="1.97179">
        <ele>1992</ele>
        <time>2020-02-14T07:02:50.667Z</time>
      </trkpt>
      <trkpt lat="42.64059" lon="1.97179">
        <ele>1981.9</ele>
        <time>2020-02-14T07:02:54.171Z</time>
      </trkpt>
      <trkpt lat="42.64059" lon="1.97179">
        <ele>1984.3</ele>
        <time>2020-02-14T07:02:55.001Z</time>
      </trkpt>
      <trkpt lat="42.64059" lon="1.97179">
        <ele>1993.1</ele>
        <time>2020-02-14T07:02:58.042Z</time>
      </trkpt>
      <trkpt lat="42.64059" lon="1.97179">
        <ele>1986.3</ele>
        <time>2020-02-14T07:03:00.407Z</time>
      </trkpt>
      <trkpt lat="42.64059" lon="1.97179">
        <ele>1990.7</ele>
        <time>2020-02-14T07:03:01.940Z</time>
      </trkpt>
      <trkpt lat="42.64059" lon="1.97179">
        <ele>1989.1</ele>
        <time>2020-02-14T07:03:02.480Z</time>
      </trkpt>
      <trkpt lat="42.64059" lon="1.97189">
        <ele>1987.8</ele>
        <time>2020-02-14T07:03:05.453Z</time>
      </trkpt>
      <trkpt lat="42.6406" lon="1.97202">
        <ele>1984.8</ele>
        <time>2020-02-14T07:03:09.274Z</time>
      </trkpt>
      <trkpt lat="42.64061" lon="1.97207">
        <ele>1983.4</ele>
        <time>2020-02-14T07:03:10.582Z</time>
      </trkpt>
      <trkpt lat="42.64063" lon="1.97216">
        <ele>1981.5</ele>
        <time>2020-02-14T07:03:13.476Z</time>
      </trkpt>
      <trkpt lat="42.64081" lon="1.97227">
        <ele>1980.9</ele>
        <time>2020-02-14T07:03:21.117Z</time>
      </trkpt>
      <trkpt lat="42.64088" lon="1.97228">
        <ele>1981.9</ele>
        <time>2020-02-14T07:03:23.973Z</time>
      </trkpt>
      <trkpt lat="42.64093" lon="1.9723">
        <ele>1980.9</ele>
        <time>2020-02-14T07:03:26.078Z</time>
      </trkpt>
      <trkpt lat="42.64102" lon="1.97234">
        <ele>1977.6</ele>
        <time>2020-02-14T07:03:29.602Z</time>
      </trkpt>
      <trkpt lat="42.64102" lon="1.97235">
        <ele>1983.3</ele>
        <time>2020-02-14T07:03:31.606Z</time>
      </trkpt>
      <trkpt lat="42.64106" lon="1.97236">
        <ele>1980</ele>
        <time>2020-02-14T07:03:33.369Z</time>
      </trkpt>
      <trkpt lat="42.64122" lon="1.97242">
        <ele>1979.1</ele>
        <time>2020-02-14T07:03:39.925Z</time>
      </trkpt>
      <trkpt lat="42.64125" lon="1.97242">
        <ele>1975.8</ele>
        <time>2020-02-14T07:03:41.417Z</time>
      </trkpt>
      <trkpt lat="42.64126" lon="1.97242">
        <ele>1979</ele>
        <time>2020-02-14T07:03:42.640Z</time>
      </trkpt>
      <trkpt lat="42.64131" lon="1.97245">
        <ele>1978.1</ele>
        <time>2020-02-14T07:03:44.740Z</time>
      </trkpt>
      <trkpt lat="42.64153" lon="1.97254">
        <ele>1977.2</ele>
        <time>2020-02-14T07:03:53.694Z</time>
      </trkpt>
      <trkpt lat="42.64156" lon="1.97256">
        <ele>1977.1</ele>
        <time>2020-02-14T07:03:54.904Z</time>
      </trkpt>
      <trkpt lat="42.64161" lon="1.97263">
        <ele>1976.1</ele>
        <time>2020-02-14T07:03:57.868Z</time>
      </trkpt>
      <trkpt lat="42.64165" lon="1.97268">
        <ele>1975.7</ele>
        <time>2020-02-14T07:03:59.949Z</time>
      </trkpt>
      <trkpt lat="42.64174" lon="1.97271">
        <ele>1976.7</ele>
        <time>2020-02-14T07:04:03.318Z</time>
      </trkpt>
      <trkpt lat="42.64175" lon="1.97272">
        <ele>1977.2</ele>
        <time>2020-02-14T07:04:03.765Z</time>
      </trkpt>
      <trkpt lat="42.64177" lon="1.97275">
        <ele>1977.6</ele>
        <time>2020-02-14T07:04:05.027Z</time>
      </trkpt>
      <trkpt lat="42.64194" lon="1.97276">
        <ele>1977.6</ele>
        <time>2020-02-14T07:04:11.439Z</time>
      </trkpt>
      <trkpt lat="42.64208" lon="1.97279">
        <ele>1978.2</ele>
        <time>2020-02-14T07:04:17.075Z</time>
      </trkpt>
      <trkpt lat="42.64223" lon="1.97276">
        <ele>1978.6</ele>
        <time>2020-02-14T07:04:22.763Z</time>
      </trkpt>
      <trkpt lat="42.64229" lon="1.97279">
        <ele>1979.6</ele>
        <time>2020-02-14T07:04:25.536Z</time>
      </trkpt>
      <trkpt lat="42.64234" lon="1.9728">
        <ele>1978.6</ele>
        <time>2020-02-14T07:04:27.499Z</time>
      </trkpt>
      <trkpt lat="42.64245" lon="1.97282">
        <ele>1980</ele>
        <time>2020-02-14T07:04:31.693Z</time>
      </trkpt>
      <trkpt lat="42.64256" lon="1.9728">
        <ele>1980.9</ele>
        <time>2020-02-14T07:04:35.791Z</time>
      </trkpt>
      <trkpt lat="42.6426" lon="1.97279">
        <ele>1981.4</ele>
        <time>2020-02-14T07:04:37.508Z</time>
      </trkpt>
      <trkpt lat="42.64274" lon="1.97278">
        <ele>1981.9</ele>
        <time>2020-02-14T07:04:42.917Z</time>
      </trkpt>
      <trkpt lat="42.64292" lon="1.97278">
        <ele>1984.9</ele>
        <time>2020-02-14T07:04:50.097Z</time>
      </trkpt>
      <trkpt lat="42.6431" lon="1.97283">
        <ele>1987.3</ele>
        <time>2020-02-14T07:04:57.019Z</time>
      </trkpt>
      <trkpt lat="42.64318" lon="1.97282">
        <ele>1988.2</ele>
        <time>2020-02-14T07:05:00.282Z</time>
      </trkpt>
      <trkpt lat="42.64323" lon="1.97283">
        <ele>1987.8</ele>
        <time>2020-02-14T07:05:02.317Z</time>
      </trkpt>
      <trkpt lat="42.64335" lon="1.97287">
        <ele>1988.7</ele>
        <time>2020-02-14T07:05:07.099Z</time>
      </trkpt>
      <trkpt lat="42.6434" lon="1.97287">
        <ele>1989.7</ele>
        <time>2020-02-14T07:05:09.063Z</time>
      </trkpt>
      <trkpt lat="42.64351" lon="1.97289">
        <ele>1991</ele>
        <time>2020-02-14T07:05:13.061Z</time>
      </trkpt>
      <trkpt lat="42.64358" lon="1.97295">
        <ele>1992.6</ele>
        <time>2020-02-14T07:05:16.392Z</time>
      </trkpt>
      <trkpt lat="42.64365" lon="1.973">
        <ele>1993.4</ele>
        <time>2020-02-14T07:05:19.587Z</time>
      </trkpt>
      <trkpt lat="42.64372" lon="1.97307">
        <ele>1995.4</ele>
        <time>2020-02-14T07:05:22.969Z</time>
      </trkpt>
      <trkpt lat="42.64376" lon="1.97314">
        <ele>1998.3</ele>
        <time>2020-02-14T07:05:25.636Z</time>
      </trkpt>
      <trkpt lat="42.64385" lon="1.97322">
        <ele>2000.2</ele>
        <time>2020-02-14T07:05:29.797Z</time>
      </trkpt>
      <trkpt lat="42.64387" lon="1.97327">
        <ele>2001.6</ele>
        <time>2020-02-14T07:05:31.579Z</time>
      </trkpt>
      <trkpt lat="42.6439" lon="1.97341">
        <ele>2001.6</ele>
        <time>2020-02-14T07:05:35.715Z</time>
      </trkpt>
      <trkpt lat="42.6439" lon="1.97348">
        <ele>2002.1</ele>
        <time>2020-02-14T07:05:37.687Z</time>
      </trkpt>
      <trkpt lat="42.6439" lon="1.97348">
        <ele>1998.7</ele>
        <time>2020-02-14T07:05:38.873Z</time>
      </trkpt>
      <trkpt lat="42.6439" lon="1.97348">
        <ele>2005.5</ele>
        <time>2020-02-14T07:05:41.232Z</time>
      </trkpt>
      <trkpt lat="42.6439" lon="1.97348">
        <ele>2001.2</ele>
        <time>2020-02-14T07:05:42.741Z</time>
      </trkpt>
      <trkpt lat="42.6439" lon="1.97348">
        <ele>2005.5</ele>
        <time>2020-02-14T07:05:44.243Z</time>
      </trkpt>
      <trkpt lat="42.6439" lon="1.97348">
        <ele>2000.2</ele>
        <time>2020-02-14T07:05:46.082Z</time>
      </trkpt>
      <trkpt lat="42.6439" lon="1.97348">
        <ele>2005</ele>
        <time>2020-02-14T07:05:47.742Z</time>
      </trkpt>
      <trkpt lat="42.6439" lon="1.97348">
        <ele>1998.7</ele>
        <time>2020-02-14T07:05:49.915Z</time>
      </trkpt>
      <trkpt lat="42.6439" lon="1.97348">
        <ele>1991.1</ele>
        <time>2020-02-14T07:05:52.579Z</time>
      </trkpt>
      <trkpt lat="42.6439" lon="1.97348">
        <ele>2009.3</ele>
        <time>2020-02-14T07:05:58.915Z</time>
      </trkpt>
      <trkpt lat="42.6439" lon="1.97348">
        <ele>1995.5</ele>
        <time>2020-02-14T07:06:03.719Z</time>
      </trkpt>
      <trkpt lat="42.6439" lon="1.97348">
        <ele>2010.4</ele>
        <time>2020-02-14T07:06:08.881Z</time>
      </trkpt>
      <trkpt lat="42.6439" lon="1.97348">
        <ele>2000.7</ele>
        <time>2020-02-14T07:06:12.250Z</time>
      </trkpt>
      <trkpt lat="42.6439" lon="1.97361">
        <ele>2002.1</ele>
        <time>2020-02-14T07:06:15.920Z</time>
      </trkpt>
      <trkpt lat="42.6439" lon="1.97367">
        <ele>2002.1</ele>
        <time>2020-02-14T07:06:17.628Z</time>
      </trkpt>
      <trkpt lat="42.64384" lon="1.97383">
        <ele>2000.7</ele>
        <time>2020-02-14T07:06:22.774Z</time>
      </trkpt>
      <trkpt lat="42.64383" lon="1.9739">
        <ele>2000.6</ele>
        <time>2020-02-14T07:06:24.776Z</time>
      </trkpt>
      <trkpt lat="42.6438" lon="1.97412">
        <ele>1999.2</ele>
        <time>2020-02-14T07:06:30.979Z</time>
      </trkpt>
      <trkpt lat="42.64372" lon="1.97431">
        <ele>1997.9</ele>
        <time>2020-02-14T07:06:37.337Z</time>
      </trkpt>
      <trkpt lat="42.64364" lon="1.97447">
        <ele>1997.8</ele>
        <time>2020-02-14T07:06:42.949Z</time>
      </trkpt>
      <trkpt lat="42.64365" lon="1.97459">
        <ele>1997.9</ele>
        <time>2020-02-14T07:06:46.226Z</time>
      </trkpt>
      <trkpt lat="42.6437" lon="1.97466">
        <ele>2000.2</ele>
        <time>2020-02-14T07:06:49.218Z</time>
      </trkpt>
      <trkpt lat="42.64377" lon="1.97475">
        <ele>2002.7</ele>
        <time>2020-02-14T07:06:52.877Z</time>
      </trkpt>
      <trkpt lat="42.64382" lon="1.97482">
        <ele>2004.6</ele>
        <time>2020-02-14T07:06:55.901Z</time>
      </trkpt>
      <trkpt lat="42.64385" lon="1.97482">
        <ele>2009.4</ele>
        <time>2020-02-14T07:06:57.979Z</time>
      </trkpt>
      <trkpt lat="42.64386" lon="1.97483">
        <ele>2001.2</ele>
        <time>2020-02-14T07:07:00.844Z</time>
      </trkpt>
      <trkpt lat="42.64386" lon="1.97483">
        <ele>2005.5</ele>
        <time>2020-02-14T07:07:02.382Z</time>
      </trkpt>
      <trkpt lat="42.64387" lon="1.97484">
        <ele>2000.2</ele>
        <time>2020-02-14T07:07:04.226Z</time>
      </trkpt>
      <trkpt lat="42.64387" lon="1.97484">
        <ele>2005.9</ele>
        <time>2020-02-14T07:07:06.201Z</time>
      </trkpt>
      <trkpt lat="42.64387" lon="1.97484">
        <ele>2000.7</ele>
        <time>2020-02-14T07:07:08.013Z</time>
      </trkpt>
      <trkpt lat="42.64387" lon="1.97484">
        <ele>2006.9</ele>
        <time>2020-02-14T07:07:10.174Z</time>
      </trkpt>
      <trkpt lat="42.64387" lon="1.97484">
        <ele>1999.2</ele>
        <time>2020-02-14T07:07:12.841Z</time>
      </trkpt>
      <trkpt lat="42.64387" lon="1.97484">
        <ele>2003.1</ele>
        <time>2020-02-14T07:07:14.170Z</time>
      </trkpt>
      <trkpt lat="42.64387" lon="1.97484">
        <ele>2007</ele>
        <time>2020-02-14T07:07:15.521Z</time>
      </trkpt>
      <trkpt lat="42.64387" lon="1.97484">
        <ele>2000.7</ele>
        <time>2020-02-14T07:07:17.710Z</time>
      </trkpt>
      <trkpt lat="42.64387" lon="1.97484">
        <ele>2007.4</ele>
        <time>2020-02-14T07:07:20.059Z</time>
      </trkpt>
      <trkpt lat="42.64387" lon="1.97484">
        <ele>2007</ele>
        <time>2020-02-14T07:07:20.211Z</time>
      </trkpt>
      <trkpt lat="42.64387" lon="1.97484">
        <ele>2001.1</ele>
        <time>2020-02-14T07:07:22.240Z</time>
      </trkpt>
      <trkpt lat="42.64387" lon="1.97484">
        <ele>2005.5</ele>
        <time>2020-02-14T07:07:23.761Z</time>
      </trkpt>
      <trkpt lat="42.64387" lon="1.97484">
        <ele>2010.7</ele>
        <time>2020-02-14T07:07:25.560Z</time>
      </trkpt>
      <trkpt lat="42.64387" lon="1.97484">
        <ele>2005.6</ele>
        <time>2020-02-14T07:07:27.344Z</time>
      </trkpt>
      <trkpt lat="42.64387" lon="1.97484">
        <ele>1995.5</ele>
        <time>2020-02-14T07:07:30.849Z</time>
      </trkpt>
      <trkpt lat="42.64387" lon="1.97484">
        <ele>2009.4</ele>
        <time>2020-02-14T07:07:35.680Z</time>
      </trkpt>
      <trkpt lat="42.64387" lon="1.97484">
        <ele>2012.8</ele>
        <time>2020-02-14T07:07:36.860Z</time>
      </trkpt>
      <trkpt lat="42.64387" lon="1.97484">
        <ele>2002.2</ele>
        <time>2020-02-14T07:07:40.543Z</time>
      </trkpt>
      <trkpt lat="42.64387" lon="1.97484">
        <ele>2008.4</ele>
        <time>2020-02-14T07:07:42.694Z</time>
      </trkpt>
      <trkpt lat="42.64391" lon="1.97484">
        <ele>2004.6</ele>
        <time>2020-02-14T07:07:44.495Z</time>
      </trkpt>
      <trkpt lat="42.64392" lon="1.97484">
        <ele>2004.5</ele>
        <time>2020-02-14T07:07:45.133Z</time>
      </trkpt>
      <trkpt lat="42.64387" lon="1.9749">
        <ele>2003.5</ele>
        <time>2020-02-14T07:07:47.753Z</time>
      </trkpt>
      <trkpt lat="42.64387" lon="1.97491">
        <ele>2003.5</ele>
        <time>2020-02-14T07:07:48.230Z</time>
      </trkpt>
      <trkpt lat="42.64389" lon="1.97494">
        <ele>2003</ele>
        <time>2020-02-14T07:07:49.150Z</time>
      </trkpt>
      <trkpt lat="42.64393" lon="1.97507">
        <ele>2002.6</ele>
        <time>2020-02-14T07:07:53.232Z</time>
      </trkpt>
      <trkpt lat="42.64392" lon="1.97515">
        <ele>2002.1</ele>
        <time>2020-02-14T07:07:55.549Z</time>
      </trkpt>
      <trkpt lat="42.64389" lon="1.97525">
        <ele>2002.2</ele>
        <time>2020-02-14T07:07:58.657Z</time>
      </trkpt>
      <trkpt lat="42.64383" lon="1.97539">
        <ele>2002.7</ele>
        <time>2020-02-14T07:08:03.192Z</time>
      </trkpt>
      <trkpt lat="42.64387" lon="1.97551">
        <ele>2002.2</ele>
        <time>2020-02-14T07:08:06.890Z</time>
      </trkpt>
      <trkpt lat="42.64387" lon="1.97554">
        <ele>2002.2</ele>
        <time>2020-02-14T07:08:07.771Z</time>
      </trkpt>
      <trkpt lat="42.64389" lon="1.97562">
        <ele>2001.7</ele>
        <time>2020-02-14T07:08:10.163Z</time>
      </trkpt>
      <trkpt lat="42.64388" lon="1.97579">
        <ele>2000.6</ele>
        <time>2020-02-14T07:08:15.049Z</time>
      </trkpt>
      <trkpt lat="42.64388" lon="1.97583">
        <ele>2000.6</ele>
        <time>2020-02-14T07:08:16.169Z</time>
      </trkpt>
      <trkpt lat="42.64391" lon="1.97586">
        <ele>2000.6</ele>
        <time>2020-02-14T07:08:17.590Z</time>
      </trkpt>
      <trkpt lat="42.64396" lon="1.97601">
        <ele>2001.1</ele>
        <time>2020-02-14T07:08:22.361Z</time>
      </trkpt>
      <trkpt lat="42.644" lon="1.97608">
        <ele>2000.6</ele>
        <time>2020-02-14T07:08:24.770Z</time>
      </trkpt>
      <trkpt lat="42.64403" lon="1.97619">
        <ele>2002.6</ele>
        <time>2020-02-14T07:08:28.047Z</time>
      </trkpt>
      <trkpt lat="42.64404" lon="1.9763">
        <ele>2002.6</ele>
        <time>2020-02-14T07:08:31.188Z</time>
      </trkpt>
      <trkpt lat="42.64403" lon="1.97633">
        <ele>2003.6</ele>
        <time>2020-02-14T07:08:32.270Z</time>
      </trkpt>
      <trkpt lat="42.64406" lon="1.97647">
        <ele>2002.7</ele>
        <time>2020-02-14T07:08:36.344Z</time>
      </trkpt>
      <trkpt lat="42.64406" lon="1.97649">
        <ele>2002.6</ele>
        <time>2020-02-14T07:08:37.144Z</time>
      </trkpt>
      <trkpt lat="42.6441" lon="1.9766">
        <ele>2003.1</ele>
        <time>2020-02-14T07:08:40.443Z</time>
      </trkpt>
      <trkpt lat="42.64415" lon="1.97672">
        <ele>2002.2</ele>
        <time>2020-02-14T07:08:44.484Z</time>
      </trkpt>
      <trkpt lat="42.64418" lon="1.97685">
        <ele>2003</ele>
        <time>2020-02-14T07:08:48.309Z</time>
      </trkpt>
      <trkpt lat="42.64422" lon="1.97693">
        <ele>2003</ele>
        <time>2020-02-14T07:08:51.062Z</time>
      </trkpt>
      <trkpt lat="42.64421" lon="1.97706">
        <ele>2004.5</ele>
        <time>2020-02-14T07:08:54.624Z</time>
      </trkpt>
      <trkpt lat="42.64424" lon="1.97717">
        <ele>2007.5</ele>
        <time>2020-02-14T07:08:58.136Z</time>
      </trkpt>
      <trkpt lat="42.64427" lon="1.97725">
        <ele>2009.8</ele>
        <time>2020-02-14T07:09:00.925Z</time>
      </trkpt>
      <trkpt lat="42.64428" lon="1.97736">
        <ele>2012.2</ele>
        <time>2020-02-14T07:09:04.220Z</time>
      </trkpt>
      <trkpt lat="42.64429" lon="1.97747">
        <ele>2014.7</ele>
        <time>2020-02-14T07:09:07.299Z</time>
      </trkpt>
      <trkpt lat="42.64428" lon="1.97749">
        <ele>2015.6</ele>
        <time>2020-02-14T07:09:07.942Z</time>
      </trkpt>
      <trkpt lat="42.64427" lon="1.97758">
        <ele>2017.6</ele>
        <time>2020-02-14T07:09:10.858Z</time>
      </trkpt>
      <trkpt lat="42.64425" lon="1.97768">
        <ele>2019.9</ele>
        <time>2020-02-14T07:09:13.744Z</time>
      </trkpt>
      <trkpt lat="42.64425" lon="1.97771">
        <ele>2019.9</ele>
        <time>2020-02-14T07:09:14.539Z</time>
      </trkpt>
      <trkpt lat="42.64427" lon="1.97783">
        <ele>2022.3</ele>
        <time>2020-02-14T07:09:18.190Z</time>
      </trkpt>
      <trkpt lat="42.6443" lon="1.97798">
        <ele>2025.6</ele>
        <time>2020-02-14T07:09:22.592Z</time>
      </trkpt>
      <trkpt lat="42.64432" lon="1.97808">
        <ele>2027.1</ele>
        <time>2020-02-14T07:09:25.776Z</time>
      </trkpt>
      <trkpt lat="42.64435" lon="1.97816">
        <ele>2029.5</ele>
        <time>2020-02-14T07:09:28.294Z</time>
      </trkpt>
      <trkpt lat="42.64438" lon="1.97824">
        <ele>2031.5</ele>
        <time>2020-02-14T07:09:31.115Z</time>
      </trkpt>
      <trkpt lat="42.64442" lon="1.97834">
        <ele>2032.9</ele>
        <time>2020-02-14T07:09:34.277Z</time>
      </trkpt>
      <trkpt lat="42.64443" lon="1.97839">
        <ele>2035.4</ele>
        <time>2020-02-14T07:09:36.054Z</time>
      </trkpt>
      <trkpt lat="42.64449" lon="1.97854">
        <ele>2038.7</ele>
        <time>2020-02-14T07:09:41.161Z</time>
      </trkpt>
      <trkpt lat="42.64452" lon="1.97863">
        <ele>2041.6</ele>
        <time>2020-02-14T07:09:43.917Z</time>
      </trkpt>
      <trkpt lat="42.64453" lon="1.97866">
        <ele>2042.1</ele>
        <time>2020-02-14T07:09:45.168Z</time>
      </trkpt>
      <trkpt lat="42.64457" lon="1.97879">
        <ele>2043.9</ele>
        <time>2020-02-14T07:09:49.136Z</time>
      </trkpt>
      <trkpt lat="42.64459" lon="1.97883">
        <ele>2045.8</ele>
        <time>2020-02-14T07:09:50.533Z</time>
      </trkpt>
      <trkpt lat="42.64459" lon="1.97883">
        <ele>2045.3</ele>
        <time>2020-02-14T07:09:50.810Z</time>
      </trkpt>
      <trkpt lat="42.64459" lon="1.97883">
        <ele>2045.8</ele>
        <time>2020-02-14T07:09:51.138Z</time>
      </trkpt>
      <trkpt lat="42.64459" lon="1.97882">
        <ele>2038.7</ele>
        <time>2020-02-14T07:09:53.623Z</time>
      </trkpt>
      <trkpt lat="42.64459" lon="1.97882">
        <ele>2051.2</ele>
        <time>2020-02-14T07:09:57.968Z</time>
      </trkpt>
      <trkpt lat="42.64459" lon="1.97882">
        <ele>2039.6</ele>
        <time>2020-02-14T07:10:01.980Z</time>
      </trkpt>
      <trkpt lat="42.64459" lon="1.97882">
        <ele>2046.9</ele>
        <time>2020-02-14T07:10:04.491Z</time>
      </trkpt>
      <trkpt lat="42.64459" lon="1.97882">
        <ele>2047.4</ele>
        <time>2020-02-14T07:10:04.679Z</time>
      </trkpt>
      <trkpt lat="42.64459" lon="1.97882">
        <ele>2039.6</ele>
        <time>2020-02-14T07:10:07.369Z</time>
      </trkpt>
      <trkpt lat="42.64459" lon="1.97882">
        <ele>2047.3</ele>
        <time>2020-02-14T07:10:10.033Z</time>
      </trkpt>
      <trkpt lat="42.64459" lon="1.97882">
        <ele>2052.2</ele>
        <time>2020-02-14T07:10:11.723Z</time>
      </trkpt>
      <trkpt lat="42.64459" lon="1.97882">
        <ele>2046.9</ele>
        <time>2020-02-14T07:10:13.559Z</time>
      </trkpt>
      <trkpt lat="42.64459" lon="1.97882">
        <ele>2041.5</ele>
        <time>2020-02-14T07:10:15.425Z</time>
      </trkpt>
      <trkpt lat="42.64459" lon="1.97882">
        <ele>2047.3</ele>
        <time>2020-02-14T07:10:17.435Z</time>
      </trkpt>
      <trkpt lat="42.64459" lon="1.97882">
        <ele>2043.4</ele>
        <time>2020-02-14T07:10:18.778Z</time>
      </trkpt>
      <trkpt lat="42.64459" lon="1.97882">
        <ele>2051.1</ele>
        <time>2020-02-14T07:10:21.453Z</time>
      </trkpt>
      <trkpt lat="42.64459" lon="1.97882">
        <ele>2047.3</ele>
        <time>2020-02-14T07:10:22.782Z</time>
      </trkpt>
      <trkpt lat="42.64459" lon="1.97882">
        <ele>2046.4</ele>
        <time>2020-02-14T07:10:23.115Z</time>
      </trkpt>
      <trkpt lat="42.64462" lon="1.97891">
        <ele>2045.9</ele>
        <time>2020-02-14T07:10:25.822Z</time>
      </trkpt>
      <trkpt lat="42.64465" lon="1.97901">
        <ele>2048.3</ele>
        <time>2020-02-14T07:10:29.137Z</time>
      </trkpt>
      <trkpt lat="42.6447" lon="1.97917">
        <ele>2048.3</ele>
        <time>2020-02-14T07:10:34.011Z</time>
      </trkpt>
      <trkpt lat="42.64476" lon="1.97926">
        <ele>2049.2</ele>
        <time>2020-02-14T07:10:37.426Z</time>
      </trkpt>
      <trkpt lat="42.64485" lon="1.97927">
        <ele>2049.8</ele>
        <time>2020-02-14T07:10:41.140Z</time>
      </trkpt>
      <trkpt lat="42.64491" lon="1.9793">
        <ele>2050.2</ele>
        <time>2020-02-14T07:10:43.521Z</time>
      </trkpt>
      <trkpt lat="42.64496" lon="1.9793">
        <ele>2051.1</ele>
        <time>2020-02-14T07:10:45.292Z</time>
      </trkpt>
      <trkpt lat="42.64507" lon="1.97933">
        <ele>2054.6</ele>
        <time>2020-02-14T07:10:49.860Z</time>
      </trkpt>
      <trkpt lat="42.64515" lon="1.97937">
        <ele>2056.9</ele>
        <time>2020-02-14T07:10:53.142Z</time>
      </trkpt>
      <trkpt lat="42.64524" lon="1.9794">
        <ele>2060.2</ele>
        <time>2020-02-14T07:10:56.891Z</time>
      </trkpt>
      <trkpt lat="42.64525" lon="1.9794">
        <ele>2060.2</ele>
        <time>2020-02-14T07:10:57.238Z</time>
      </trkpt>
      <trkpt lat="42.64525" lon="1.9794">
        <ele>2060.8</ele>
        <time>2020-02-14T07:10:57.577Z</time>
      </trkpt>
      <trkpt lat="42.64532" lon="1.97945">
        <ele>2062.3</ele>
        <time>2020-02-14T07:11:00.688Z</time>
      </trkpt>
      <trkpt lat="42.64538" lon="1.97947">
        <ele>2063.7</ele>
        <time>2020-02-14T07:11:03.048Z</time>
      </trkpt>
      <trkpt lat="42.64544" lon="1.97946">
        <ele>2065.2</ele>
        <time>2020-02-14T07:11:05.205Z</time>
      </trkpt>
      <trkpt lat="42.6455" lon="1.97944">
        <ele>2066.6</ele>
        <time>2020-02-14T07:11:07.578Z</time>
      </trkpt>
      <trkpt lat="42.64557" lon="1.97947">
        <ele>2069.9</ele>
        <time>2020-02-14T07:11:10.925Z</time>
      </trkpt>
      <trkpt lat="42.64566" lon="1.97947">
        <ele>2072.3</ele>
        <time>2020-02-14T07:11:14.354Z</time>
      </trkpt>
      <trkpt lat="42.64572" lon="1.97949">
        <ele>2075.1</ele>
        <time>2020-02-14T07:11:17.018Z</time>
      </trkpt>
      <trkpt lat="42.64579" lon="1.97951">
        <ele>2078.6</ele>
        <time>2020-02-14T07:11:19.822Z</time>
      </trkpt>
      <trkpt lat="42.64586" lon="1.97955">
        <ele>2079</ele>
        <time>2020-02-14T07:11:23.131Z</time>
      </trkpt>
      <trkpt lat="42.6459" lon="1.97952">
        <ele>2081.9</ele>
        <time>2020-02-14T07:11:25.027Z</time>
      </trkpt>
      <trkpt lat="42.64596" lon="1.97959">
        <ele>2083.9</ele>
        <time>2020-02-14T07:11:28.144Z</time>
      </trkpt>
      <trkpt lat="42.64602" lon="1.97965">
        <ele>2086.3</ele>
        <time>2020-02-14T07:11:30.886Z</time>
      </trkpt>
      <trkpt lat="42.64606" lon="1.97972">
        <ele>2086.7</ele>
        <time>2020-02-14T07:11:33.526Z</time>
      </trkpt>
      <trkpt lat="42.64607" lon="1.97976">
        <ele>2084.8</ele>
        <time>2020-02-14T07:11:34.898Z</time>
      </trkpt>
      <trkpt lat="42.64608" lon="1.97977">
        <ele>2084.3</ele>
        <time>2020-02-14T07:11:35.316Z</time>
      </trkpt>
      <trkpt lat="42.64607" lon="1.97983">
        <ele>2086.2</ele>
        <time>2020-02-14T07:11:37.166Z</time>
      </trkpt>
      <trkpt lat="42.64611" lon="1.97996">
        <ele>2085.2</ele>
        <time>2020-02-14T07:11:41.034Z</time>
      </trkpt>
      <trkpt lat="42.64614" lon="1.98004">
        <ele>2085.2</ele>
        <time>2020-02-14T07:11:43.860Z</time>
      </trkpt>
      <trkpt lat="42.6462" lon="1.98019">
        <ele>2085.8</ele>
        <time>2020-02-14T07:11:48.520Z</time>
      </trkpt>
      <trkpt lat="42.64621" lon="1.98019">
        <ele>2089.1</ele>
        <time>2020-02-14T07:11:49.706Z</time>
      </trkpt>
      <trkpt lat="42.64622" lon="1.98022">
        <ele>2087.2</ele>
        <time>2020-02-14T07:11:50.847Z</time>
      </trkpt>
      <trkpt lat="42.64625" lon="1.98036">
        <ele>2088.6</ele>
        <time>2020-02-14T07:11:54.819Z</time>
      </trkpt>
      <trkpt lat="42.64626" lon="1.98049">
        <ele>2090.5</ele>
        <time>2020-02-14T07:11:58.673Z</time>
      </trkpt>
      <trkpt lat="42.64625" lon="1.98059">
        <ele>2091.6</ele>
        <time>2020-02-14T07:12:01.548Z</time>
      </trkpt>
      <trkpt lat="42.64628" lon="1.98067">
        <ele>2090.6</ele>
        <time>2020-02-14T07:12:04.223Z</time>
      </trkpt>
      <trkpt lat="42.64635" lon="1.98077">
        <ele>2090</ele>
        <time>2020-02-14T07:12:08.012Z</time>
      </trkpt>
      <trkpt lat="42.64637" lon="1.98083">
        <ele>2090</ele>
        <time>2020-02-14T07:12:10.038Z</time>
      </trkpt>
      <trkpt lat="42.6464" lon="1.98087">
        <ele>2091</ele>
        <time>2020-02-14T07:12:11.565Z</time>
      </trkpt>
      <trkpt lat="42.64643" lon="1.98095">
        <ele>2088.7</ele>
        <time>2020-02-14T07:12:14.202Z</time>
      </trkpt>
      <trkpt lat="42.64644" lon="1.98104">
        <ele>2089.2</ele>
        <time>2020-02-14T07:12:16.979Z</time>
      </trkpt>
      <trkpt lat="42.64645" lon="1.98113">
        <ele>2091.1</ele>
        <time>2020-02-14T07:12:19.505Z</time>
      </trkpt>
      <trkpt lat="42.64645" lon="1.98123">
        <ele>2091.1</ele>
        <time>2020-02-14T07:12:22.497Z</time>
      </trkpt>
      <trkpt lat="42.64646" lon="1.98133">
        <ele>2092.6</ele>
        <time>2020-02-14T07:12:25.250Z</time>
      </trkpt>
      <trkpt lat="42.6465" lon="1.98144">
        <ele>2093.9</ele>
        <time>2020-02-14T07:12:28.819Z</time>
      </trkpt>
      <trkpt lat="42.64659" lon="1.98154">
        <ele>2096.9</ele>
        <time>2020-02-14T07:12:33.639Z</time>
      </trkpt>
      <trkpt lat="42.64666" lon="1.98162">
        <ele>2100.7</ele>
        <time>2020-02-14T07:12:37.315Z</time>
      </trkpt>
      <trkpt lat="42.64673" lon="1.98166">
        <ele>2102.1</ele>
        <time>2020-02-14T07:12:40.014Z</time>
      </trkpt>
      <trkpt lat="42.6468" lon="1.98174">
        <ele>2104</ele>
        <time>2020-02-14T07:12:44.026Z</time>
      </trkpt>
      <trkpt lat="42.64687" lon="1.98181">
        <ele>2106.9</ele>
        <time>2020-02-14T07:12:47.422Z</time>
      </trkpt>
      <trkpt lat="42.64688" lon="1.98182">
        <ele>2107</ele>
        <time>2020-02-14T07:12:47.758Z</time>
      </trkpt>
      <trkpt lat="42.64697" lon="1.98188">
        <ele>2109.4</ele>
        <time>2020-02-14T07:12:51.764Z</time>
      </trkpt>
      <trkpt lat="42.64709" lon="1.98195">
        <ele>2110.7</ele>
        <time>2020-02-14T07:12:56.709Z</time>
      </trkpt>
      <trkpt lat="42.6471" lon="1.98196">
        <ele>2110.8</ele>
        <time>2020-02-14T07:12:57.368Z</time>
      </trkpt>
      <trkpt lat="42.64719" lon="1.98206">
        <ele>2112.6</ele>
        <time>2020-02-14T07:13:01.803Z</time>
      </trkpt>
      <trkpt lat="42.64723" lon="1.98213">
        <ele>2115.5</ele>
        <time>2020-02-14T07:13:04.746Z</time>
      </trkpt>
      <trkpt lat="42.64728" lon="1.98224">
        <ele>2114.2</ele>
        <time>2020-02-14T07:13:08.256Z</time>
      </trkpt>
      <trkpt lat="42.64728" lon="1.98236">
        <ele>2112.7</ele>
        <time>2020-02-14T07:13:11.628Z</time>
      </trkpt>
      <trkpt lat="42.6473" lon="1.9825">
        <ele>2114.6</ele>
        <time>2020-02-14T07:13:15.756Z</time>
      </trkpt>
      <trkpt lat="42.64731" lon="1.98253">
        <ele>2115.5</ele>
        <time>2020-02-14T07:13:16.613Z</time>
      </trkpt>
      <trkpt lat="42.64732" lon="1.98256">
        <ele>2116</ele>
        <time>2020-02-14T07:13:17.565Z</time>
      </trkpt>
      <trkpt lat="42.64733" lon="1.98261">
        <ele>2116.6</ele>
        <time>2020-02-14T07:13:19.095Z</time>
      </trkpt>
      <trkpt lat="42.64735" lon="1.98273">
        <ele>2118.4</ele>
        <time>2020-02-14T07:13:22.800Z</time>
      </trkpt>
      <trkpt lat="42.64737" lon="1.98277">
        <ele>2119</ele>
        <time>2020-02-14T07:13:24.162Z</time>
      </trkpt>
      <trkpt lat="42.64741" lon="1.98287">
        <ele>2118.9</ele>
        <time>2020-02-14T07:13:27.550Z</time>
      </trkpt>
      <trkpt lat="42.64755" lon="1.98303">
        <ele>2120.4</ele>
        <time>2020-02-14T07:13:34.388Z</time>
      </trkpt>
      <trkpt lat="42.64764" lon="1.98313">
        <ele>2122.8</ele>
        <time>2020-02-14T07:13:39.040Z</time>
      </trkpt>
      <trkpt lat="42.64766" lon="1.98315">
        <ele>2123.2</ele>
        <time>2020-02-14T07:13:39.949Z</time>
      </trkpt>
      <trkpt lat="42.64781" lon="1.98325">
        <ele>2125.1</ele>
        <time>2020-02-14T07:13:46.494Z</time>
      </trkpt>
      <trkpt lat="42.64795" lon="1.9833">
        <ele>2126.2</ele>
        <time>2020-02-14T07:13:51.957Z</time>
      </trkpt>
      <trkpt lat="42.64808" lon="1.98341">
        <ele>2126.1</ele>
        <time>2020-02-14T07:13:58.068Z</time>
      </trkpt>
      <trkpt lat="42.64819" lon="1.98348">
        <ele>2129.5</ele>
        <time>2020-02-14T07:14:02.752Z</time>
      </trkpt>
      <trkpt lat="42.64822" lon="1.9835">
        <ele>2130</ele>
        <time>2020-02-14T07:14:04.119Z</time>
      </trkpt>
      <trkpt lat="42.64829" lon="1.98356">
        <ele>2132.4</ele>
        <time>2020-02-14T07:14:07.236Z</time>
      </trkpt>
      <trkpt lat="42.64838" lon="1.98371">
        <ele>2131.5</ele>
        <time>2020-02-14T07:14:12.908Z</time>
      </trkpt>
      <trkpt lat="42.64843" lon="1.98382">
        <ele>2132</ele>
        <time>2020-02-14T07:14:16.464Z</time>
      </trkpt>
      <trkpt lat="42.64848" lon="1.98394">
        <ele>2133.9</ele>
        <time>2020-02-14T07:14:20.573Z</time>
      </trkpt>
      <trkpt lat="42.64849" lon="1.984">
        <ele>2133.4</ele>
        <time>2020-02-14T07:14:22.195Z</time>
      </trkpt>
      <trkpt lat="42.64848" lon="1.98402">
        <ele>2134.3</ele>
        <time>2020-02-14T07:14:23.071Z</time>
      </trkpt>
      <trkpt lat="42.64851" lon="1.98413">
        <ele>2134.3</ele>
        <time>2020-02-14T07:14:26.234Z</time>
      </trkpt>
      <trkpt lat="42.64848" lon="1.98414">
        <ele>2136.3</ele>
        <time>2020-02-14T07:14:27.428Z</time>
      </trkpt>
      <trkpt lat="42.64851" lon="1.9842">
        <ele>2138.1</ele>
        <time>2020-02-14T07:14:29.565Z</time>
      </trkpt>
      <trkpt lat="42.64854" lon="1.98433">
        <ele>2139.6</ele>
        <time>2020-02-14T07:14:33.490Z</time>
      </trkpt>
      <trkpt lat="42.64857" lon="1.98442">
        <ele>2140.5</ele>
        <time>2020-02-14T07:14:36.075Z</time>
      </trkpt>
      <trkpt lat="42.6486" lon="1.98452">
        <ele>2143.5</ele>
        <time>2020-02-14T07:14:39.330Z</time>
      </trkpt>
      <trkpt lat="42.64864" lon="1.9846">
        <ele>2145.4</ele>
        <time>2020-02-14T07:14:42.118Z</time>
      </trkpt>
      <trkpt lat="42.64868" lon="1.98469">
        <ele>2146.9</ele>
        <time>2020-02-14T07:14:45.259Z</time>
      </trkpt>
      <trkpt lat="42.6487" lon="1.98473">
        <ele>2146.8</ele>
        <time>2020-02-14T07:14:46.621Z</time>
      </trkpt>
      <trkpt lat="42.64871" lon="1.98478">
        <ele>2148.7</ele>
        <time>2020-02-14T07:14:48.257Z</time>
      </trkpt>
      <trkpt lat="42.64874" lon="1.98489">
        <ele>2152.6</ele>
        <time>2020-02-14T07:14:51.750Z</time>
      </trkpt>
      <trkpt lat="42.64879" lon="1.98499">
        <ele>2154.6</ele>
        <time>2020-02-14T07:14:55.309Z</time>
      </trkpt>
      <trkpt lat="42.64884" lon="1.98504">
        <ele>2155.9</ele>
        <time>2020-02-14T07:14:57.642Z</time>
      </trkpt>
      <trkpt lat="42.64887" lon="1.98509">
        <ele>2158.8</ele>
        <time>2020-02-14T07:14:59.939Z</time>
      </trkpt>
      <trkpt lat="42.6489" lon="1.98511">
        <ele>2161.7</ele>
        <time>2020-02-14T07:15:01.488Z</time>
      </trkpt>
      <trkpt lat="42.64893" lon="1.98521">
        <ele>2164.6</ele>
        <time>2020-02-14T07:15:04.730Z</time>
      </trkpt>
      <trkpt lat="42.64896" lon="1.98527">
        <ele>2166.6</ele>
        <time>2020-02-14T07:15:06.986Z</time>
      </trkpt>
      <trkpt lat="42.64898" lon="1.9854">
        <ele>2168.5</ele>
        <time>2020-02-14T07:15:10.597Z</time>
      </trkpt>
      <trkpt lat="42.649" lon="1.98548">
        <ele>2170.8</ele>
        <time>2020-02-14T07:15:13.117Z</time>
      </trkpt>
      <trkpt lat="42.64901" lon="1.9856">
        <ele>2174.3</ele>
        <time>2020-02-14T07:15:16.762Z</time>
      </trkpt>
      <trkpt lat="42.64901" lon="1.98566">
        <ele>2176.2</ele>
        <time>2020-02-14T07:15:18.522Z</time>
      </trkpt>
      <trkpt lat="42.64901" lon="1.98566">
        <ele>2176.7</ele>
        <time>2020-02-14T07:15:18.753Z</time>
      </trkpt>
      <trkpt lat="42.649" lon="1.98567">
        <ele>2178.6</ele>
        <time>2020-02-14T07:15:19.648Z</time>
      </trkpt>
      <trkpt lat="42.649" lon="1.98571">
        <ele>2179.6</ele>
        <time>2020-02-14T07:15:20.899Z</time>
      </trkpt>
      <trkpt lat="42.64902" lon="1.9858">
        <ele>2181.4</ele>
        <time>2020-02-14T07:15:23.500Z</time>
      </trkpt>
      <trkpt lat="42.64904" lon="1.98587">
        <ele>2183.3</ele>
        <time>2020-02-14T07:15:25.843Z</time>
      </trkpt>
      <trkpt lat="42.64908" lon="1.98596">
        <ele>2184.8</ele>
        <time>2020-02-14T07:15:28.708Z</time>
      </trkpt>
      <trkpt lat="42.64912" lon="1.98598">
        <ele>2188.1</ele>
        <time>2020-02-14T07:15:30.745Z</time>
      </trkpt>
      <trkpt lat="42.64919" lon="1.98607">
        <ele>2192</ele>
        <time>2020-02-14T07:15:34.900Z</time>
      </trkpt>
      <trkpt lat="42.64922" lon="1.98615">
        <ele>2194.4</ele>
        <time>2020-02-14T07:15:37.651Z</time>
      </trkpt>
      <trkpt lat="42.64923" lon="1.98618">
        <ele>2196.9</ele>
        <time>2020-02-14T07:15:38.988Z</time>
      </trkpt>
      <trkpt lat="42.64929" lon="1.98622">
        <ele>2197.7</ele>
        <time>2020-02-14T07:15:41.245Z</time>
      </trkpt>
      <trkpt lat="42.64933" lon="1.98629">
        <ele>2201.1</ele>
        <time>2020-02-14T07:15:44.155Z</time>
      </trkpt>
      <trkpt lat="42.64936" lon="1.9863">
        <ele>2202</ele>
        <time>2020-02-14T07:15:45.259Z</time>
      </trkpt>
      <trkpt lat="42.6494" lon="1.98637">
        <ele>2205.4</ele>
        <time>2020-02-14T07:15:47.923Z</time>
      </trkpt>
      <trkpt lat="42.64941" lon="1.98644">
        <ele>2208.3</ele>
        <time>2020-02-14T07:15:50.310Z</time>
      </trkpt>
      <trkpt lat="42.64943" lon="1.98647">
        <ele>2209.7</ele>
        <time>2020-02-14T07:15:51.566Z</time>
      </trkpt>
      <trkpt lat="42.64941" lon="1.98652">
        <ele>2210.8</ele>
        <time>2020-02-14T07:15:53.142Z</time>
      </trkpt>
      <trkpt lat="42.64941" lon="1.98651">
        <ele>2211.8</ele>
        <time>2020-02-14T07:15:53.543Z</time>
      </trkpt>
      <trkpt lat="42.64938" lon="1.98652">
        <ele>2214.1</ele>
        <time>2020-02-14T07:15:54.940Z</time>
      </trkpt>
      <trkpt lat="42.64935" lon="1.98654">
        <ele>2215.6</ele>
        <time>2020-02-14T07:15:56.058Z</time>
      </trkpt>
      <trkpt lat="42.64933" lon="1.98654">
        <ele>2216.1</ele>
        <time>2020-02-14T07:15:57.113Z</time>
      </trkpt>
      <trkpt lat="42.64932" lon="1.98655">
        <ele>2217</ele>
        <time>2020-02-14T07:15:57.742Z</time>
      </trkpt>
      <trkpt lat="42.64933" lon="1.98661">
        <ele>2219</ele>
        <time>2020-02-14T07:15:59.568Z</time>
      </trkpt>
      <trkpt lat="42.64935" lon="1.98668">
        <ele>2221.4</ele>
        <time>2020-02-14T07:16:02.090Z</time>
      </trkpt>
      <trkpt lat="42.64937" lon="1.98675">
        <ele>2224.7</ele>
        <time>2020-02-14T07:16:04.260Z</time>
      </trkpt>
      <trkpt lat="42.64937" lon="1.98682">
        <ele>2227.5</ele>
        <time>2020-02-14T07:16:06.655Z</time>
      </trkpt>
      <trkpt lat="42.64939" lon="1.9869">
        <ele>2230.9</ele>
        <time>2020-02-14T07:16:09.333Z</time>
      </trkpt>
      <trkpt lat="42.64938" lon="1.9869">
        <ele>2231.5</ele>
        <time>2020-02-14T07:16:09.956Z</time>
      </trkpt>
      <trkpt lat="42.64939" lon="1.98697">
        <ele>2234.8</ele>
        <time>2020-02-14T07:16:12.229Z</time>
      </trkpt>
      <trkpt lat="42.64941" lon="1.98704">
        <ele>2238.2</ele>
        <time>2020-02-14T07:16:14.652Z</time>
      </trkpt>
      <trkpt lat="42.64944" lon="1.98713">
        <ele>2238.6</ele>
        <time>2020-02-14T07:16:17.313Z</time>
      </trkpt>
      <trkpt lat="42.64946" lon="1.98715">
        <ele>2239.6</ele>
        <time>2020-02-14T07:16:18.449Z</time>
      </trkpt>
      <trkpt lat="42.64947" lon="1.98718">
        <ele>2240.1</ele>
        <time>2020-02-14T07:16:19.491Z</time>
      </trkpt>
      <trkpt lat="42.64952" lon="1.98728">
        <ele>2241.5</ele>
        <time>2020-02-14T07:16:22.898Z</time>
      </trkpt>
      <trkpt lat="42.64953" lon="1.9873">
        <ele>2242.5</ele>
        <time>2020-02-14T07:16:23.668Z</time>
      </trkpt>
      <trkpt lat="42.64951" lon="1.98734">
        <ele>2245.3</ele>
        <time>2020-02-14T07:16:25.244Z</time>
      </trkpt>
      <trkpt lat="42.64953" lon="1.98739">
        <ele>2246.7</ele>
        <time>2020-02-14T07:16:26.950Z</time>
      </trkpt>
      <trkpt lat="42.64955" lon="1.98744">
        <ele>2248.2</ele>
        <time>2020-02-14T07:16:28.518Z</time>
      </trkpt>
      <trkpt lat="42.64954" lon="1.98746">
        <ele>2250.1</ele>
        <time>2020-02-14T07:16:29.399Z</time>
      </trkpt>
      <trkpt lat="42.64955" lon="1.98747">
        <ele>2251.5</ele>
        <time>2020-02-14T07:16:29.969Z</time>
      </trkpt>
      <trkpt lat="42.64948" lon="1.98745">
        <ele>2253.6</ele>
        <time>2020-02-14T07:16:32.559Z</time>
      </trkpt>
      <trkpt lat="42.64947" lon="1.98745">
        <ele>2256.8</ele>
        <time>2020-02-14T07:16:33.872Z</time>
      </trkpt>
      <trkpt lat="42.64944" lon="1.98744">
        <ele>2257.3</ele>
        <time>2020-02-14T07:16:35.134Z</time>
      </trkpt>
      <trkpt lat="42.64944" lon="1.98742">
        <ele>2256.8</ele>
        <time>2020-02-14T07:16:35.888Z</time>
      </trkpt>
      <trkpt lat="42.64944" lon="1.98741">
        <ele>2256.9</ele>
        <time>2020-02-14T07:16:36.270Z</time>
      </trkpt>
      <trkpt lat="42.64939" lon="1.98745">
        <ele>2259.2</ele>
        <time>2020-02-14T07:16:38.353Z</time>
      </trkpt>
      <trkpt lat="42.64937" lon="1.98746">
        <ele>2262.1</ele>
        <time>2020-02-14T07:16:39.661Z</time>
      </trkpt>
      <trkpt lat="42.64935" lon="1.98746">
        <ele>2263.1</ele>
        <time>2020-02-14T07:16:40.651Z</time>
      </trkpt>
      <trkpt lat="42.64932" lon="1.98753">
        <ele>2265.5</ele>
        <time>2020-02-14T07:16:42.973Z</time>
      </trkpt>
      <trkpt lat="42.64933" lon="1.98757">
        <ele>2267.4</ele>
        <time>2020-02-14T07:16:44.367Z</time>
      </trkpt>
      <trkpt lat="42.64926" lon="1.98757">
        <ele>2270.3</ele>
        <time>2020-02-14T07:16:46.995Z</time>
      </trkpt>
      <trkpt lat="42.64929" lon="1.98762">
        <ele>2271.3</ele>
        <time>2020-02-14T07:16:48.682Z</time>
      </trkpt>
      <trkpt lat="42.64932" lon="1.9877">
        <ele>2274.1</ele>
        <time>2020-02-14T07:16:51.463Z</time>
      </trkpt>
      <trkpt lat="42.64928" lon="1.9877">
        <ele>2275.6</ele>
        <time>2020-02-14T07:16:53.060Z</time>
      </trkpt>
      <trkpt lat="42.64926" lon="1.98774">
        <ele>2278.1</ele>
        <time>2020-02-14T07:16:54.775Z</time>
      </trkpt>
      <trkpt lat="42.64926" lon="1.98775">
        <ele>2278.6</ele>
        <time>2020-02-14T07:16:55.274Z</time>
      </trkpt>
      <trkpt lat="42.64927" lon="1.98782">
        <ele>2281.5</ele>
        <time>2020-02-14T07:16:57.430Z</time>
      </trkpt>
      <trkpt lat="42.64927" lon="1.98791">
        <ele>2282.8</ele>
        <time>2020-02-14T07:16:59.977Z</time>
      </trkpt>
      <trkpt lat="42.64929" lon="1.98801">
        <ele>2283.8</ele>
        <time>2020-02-14T07:17:02.964Z</time>
      </trkpt>
      <trkpt lat="42.64926" lon="1.98799">
        <ele>2287.1</ele>
        <time>2020-02-14T07:17:04.813Z</time>
      </trkpt>
      <trkpt lat="42.64922" lon="1.98799">
        <ele>2288.7</ele>
        <time>2020-02-14T07:17:06.343Z</time>
      </trkpt>
      <trkpt lat="42.64918" lon="1.98799">
        <ele>2290.6</ele>
        <time>2020-02-14T07:17:07.992Z</time>
      </trkpt>
      <trkpt lat="42.64914" lon="1.98799">
        <ele>2291.9</ele>
        <time>2020-02-14T07:17:09.601Z</time>
      </trkpt>
      <trkpt lat="42.64916" lon="1.98805">
        <ele>2292.4</ele>
        <time>2020-02-14T07:17:11.266Z</time>
      </trkpt>
      <trkpt lat="42.64917" lon="1.98812">
        <ele>2295.3</ele>
        <time>2020-02-14T07:17:13.602Z</time>
      </trkpt>
      <trkpt lat="42.64919" lon="1.9882">
        <ele>2297.2</ele>
        <time>2020-02-14T07:17:16.219Z</time>
      </trkpt>
      <trkpt lat="42.64921" lon="1.98829">
        <ele>2300.6</ele>
        <time>2020-02-14T07:17:19.190Z</time>
      </trkpt>
      <trkpt lat="42.64923" lon="1.98836">
        <ele>2302.6</ele>
        <time>2020-02-14T07:17:21.251Z</time>
      </trkpt>
      <trkpt lat="42.64924" lon="1.98843">
        <ele>2305.9</ele>
        <time>2020-02-14T07:17:23.592Z</time>
      </trkpt>
      <trkpt lat="42.64924" lon="1.9885">
        <ele>2309.2</ele>
        <time>2020-02-14T07:17:25.854Z</time>
      </trkpt>
      <trkpt lat="42.64926" lon="1.98855">
        <ele>2310.2</ele>
        <time>2020-02-14T07:17:27.568Z</time>
      </trkpt>
      <trkpt lat="42.64927" lon="1.98863">
        <ele>2312.7</ele>
        <time>2020-02-14T07:17:29.999Z</time>
      </trkpt>
      <trkpt lat="42.64925" lon="1.98872">
        <ele>2316.1</ele>
        <time>2020-02-14T07:17:32.917Z</time>
      </trkpt>
      <trkpt lat="42.64926" lon="1.98878">
        <ele>2318.4</ele>
        <time>2020-02-14T07:17:34.824Z</time>
      </trkpt>
      <trkpt lat="42.64927" lon="1.98884">
        <ele>2320.3</ele>
        <time>2020-02-14T07:17:36.631Z</time>
      </trkpt>
      <trkpt lat="42.64929" lon="1.9889">
        <ele>2321.8</ele>
        <time>2020-02-14T07:17:38.546Z</time>
      </trkpt>
      <trkpt lat="42.64931" lon="1.98896">
        <ele>2325.2</ele>
        <time>2020-02-14T07:17:40.683Z</time>
      </trkpt>
      <trkpt lat="42.64932" lon="1.989">
        <ele>2325.6</ele>
        <time>2020-02-14T07:17:42.029Z</time>
      </trkpt>
      <trkpt lat="42.64934" lon="1.98909">
        <ele>2328.1</ele>
        <time>2020-02-14T07:17:44.901Z</time>
      </trkpt>
      <trkpt lat="42.64934" lon="1.98916">
        <ele>2330</ele>
        <time>2020-02-14T07:17:46.889Z</time>
      </trkpt>
      <trkpt lat="42.64934" lon="1.98923">
        <ele>2333.3</ele>
        <time>2020-02-14T07:17:49.133Z</time>
      </trkpt>
      <trkpt lat="42.64934" lon="1.98925">
        <ele>2333.7</ele>
        <time>2020-02-14T07:17:49.878Z</time>
      </trkpt>
      <trkpt lat="42.64935" lon="1.98929">
        <ele>2335.2</ele>
        <time>2020-02-14T07:17:51.183Z</time>
      </trkpt>
      <trkpt lat="42.64939" lon="1.98937">
        <ele>2335.8</ele>
        <time>2020-02-14T07:17:53.931Z</time>
      </trkpt>
      <trkpt lat="42.6494" lon="1.98941">
        <ele>2336.1</ele>
        <time>2020-02-14T07:17:55.290Z</time>
      </trkpt>
      <trkpt lat="42.64945" lon="1.98955">
        <ele>2339</ele>
        <time>2020-02-14T07:17:59.698Z</time>
      </trkpt>
      <trkpt lat="42.64948" lon="1.98966">
        <ele>2341.5</ele>
        <time>2020-02-14T07:18:03.037Z</time>
      </trkpt>
      <trkpt lat="42.64948" lon="1.98969">
        <ele>2342</ele>
        <time>2020-02-14T07:18:03.910Z</time>
      </trkpt>
      <trkpt lat="42.64953" lon="1.98978">
        <ele>2343.8</ele>
        <time>2020-02-14T07:18:07.092Z</time>
      </trkpt>
      <trkpt lat="42.64958" lon="1.98985">
        <ele>2345.9</ele>
        <time>2020-02-14T07:18:09.883Z</time>
      </trkpt>
      <trkpt lat="42.64957" lon="1.98987">
        <ele>2347.2</ele>
        <time>2020-02-14T07:18:10.786Z</time>
      </trkpt>
      <trkpt lat="42.64959" lon="1.98987">
        <ele>2347.2</ele>
        <time>2020-02-14T07:18:11.231Z</time>
      </trkpt>
      <trkpt lat="42.64959" lon="1.98986">
        <ele>2342.9</ele>
        <time>2020-02-14T07:18:12.747Z</time>
      </trkpt>
      <trkpt lat="42.64959" lon="1.98986">
        <ele>2348.3</ele>
        <time>2020-02-14T07:18:14.616Z</time>
      </trkpt>
      <trkpt lat="42.64959" lon="1.98986">
        <ele>2343.9</ele>
        <time>2020-02-14T07:18:16.151Z</time>
      </trkpt>
      <trkpt lat="42.64959" lon="1.98986">
        <ele>2347.7</ele>
        <time>2020-02-14T07:18:17.489Z</time>
      </trkpt>
      <trkpt lat="42.64959" lon="1.98986">
        <ele>2334.7</ele>
        <time>2020-02-14T07:18:21.991Z</time>
      </trkpt>
      <trkpt lat="42.64959" lon="1.98986">
        <ele>2349.7</ele>
        <time>2020-02-14T07:18:27.183Z</time>
      </trkpt>
      <trkpt lat="42.64959" lon="1.98986">
        <ele>2345.4</ele>
        <time>2020-02-14T07:18:28.680Z</time>
      </trkpt>
      <trkpt lat="42.64959" lon="1.98986">
        <ele>2349.2</ele>
        <time>2020-02-14T07:18:29.993Z</time>
      </trkpt>
      <trkpt lat="42.64959" lon="1.98986">
        <ele>2344.3</ele>
        <time>2020-02-14T07:18:31.669Z</time>
      </trkpt>
      <trkpt lat="42.64959" lon="1.98986">
        <ele>2347.7</ele>
        <time>2020-02-14T07:18:32.847Z</time>
      </trkpt>
      <trkpt lat="42.64961" lon="1.98996">
        <ele>2348.6</ele>
        <time>2020-02-14T07:18:35.698Z</time>
      </trkpt>
      <trkpt lat="42.64964" lon="1.99006">
        <ele>2350.6</ele>
        <time>2020-02-14T07:18:38.798Z</time>
      </trkpt>
      <trkpt lat="42.64966" lon="1.99017">
        <ele>2352.6</ele>
        <time>2020-02-14T07:18:42.289Z</time>
      </trkpt>
      <trkpt lat="42.64966" lon="1.99027">
        <ele>2354.5</ele>
        <time>2020-02-14T07:18:45.126Z</time>
      </trkpt>
      <trkpt lat="42.64966" lon="1.99028">
        <ele>2354</ele>
        <time>2020-02-14T07:18:45.622Z</time>
      </trkpt>
      <trkpt lat="42.64966" lon="1.99037">
        <ele>2356</ele>
        <time>2020-02-14T07:18:48.026Z</time>
      </trkpt>
      <trkpt lat="42.64969" lon="1.99048">
        <ele>2358.4</ele>
        <time>2020-02-14T07:18:51.536Z</time>
      </trkpt>
      <trkpt lat="42.64972" lon="1.9906">
        <ele>2361.1</ele>
        <time>2020-02-14T07:18:55.409Z</time>
      </trkpt>
      <trkpt lat="42.64979" lon="1.99069">
        <ele>2363.2</ele>
        <time>2020-02-14T07:18:58.946Z</time>
      </trkpt>
      <trkpt lat="42.6498" lon="1.99075">
        <ele>2366.5</ele>
        <time>2020-02-14T07:19:01.062Z</time>
      </trkpt>
      <trkpt lat="42.64982" lon="1.99079">
        <ele>2368.5</ele>
        <time>2020-02-14T07:19:02.727Z</time>
      </trkpt>
      <trkpt lat="42.64985" lon="1.99086">
        <ele>2369.8</ele>
        <time>2020-02-14T07:19:04.962Z</time>
      </trkpt>
      <trkpt lat="42.64989" lon="1.99097">
        <ele>2372.2</ele>
        <time>2020-02-14T07:19:08.459Z</time>
      </trkpt>
      <trkpt lat="42.64992" lon="1.99105">
        <ele>2374.6</ele>
        <time>2020-02-14T07:19:11.038Z</time>
      </trkpt>
      <trkpt lat="42.64993" lon="1.99111">
        <ele>2376.1</ele>
        <time>2020-02-14T07:19:12.875Z</time>
      </trkpt>
      <trkpt lat="42.64992" lon="1.99119">
        <ele>2379</ele>
        <time>2020-02-14T07:19:15.555Z</time>
      </trkpt>
      <trkpt lat="42.64993" lon="1.99127">
        <ele>2380.8</ele>
        <time>2020-02-14T07:19:17.947Z</time>
      </trkpt>
      <trkpt lat="42.64993" lon="1.99137">
        <ele>2383.3</ele>
        <time>2020-02-14T07:19:20.844Z</time>
      </trkpt>
      <trkpt lat="42.64994" lon="1.99144">
        <ele>2384.3</ele>
        <time>2020-02-14T07:19:22.876Z</time>
      </trkpt>
      <trkpt lat="42.64995" lon="1.99156">
        <ele>2385.7</ele>
        <time>2020-02-14T07:19:26.190Z</time>
      </trkpt>
      <trkpt lat="42.64995" lon="1.99157">
        <ele>2386.2</ele>
        <time>2020-02-14T07:19:26.771Z</time>
      </trkpt>
      <trkpt lat="42.64996" lon="1.99169">
        <ele>2388.2</ele>
        <time>2020-02-14T07:19:30.093Z</time>
      </trkpt>
      <trkpt lat="42.65" lon="1.9918">
        <ele>2388.5</ele>
        <time>2020-02-14T07:19:33.457Z</time>
      </trkpt>
      <trkpt lat="42.65004" lon="1.99187">
        <ele>2389.5</ele>
        <time>2020-02-14T07:19:36.248Z</time>
      </trkpt>
      <trkpt lat="42.65004" lon="1.99187">
        <ele>2388.6</ele>
        <time>2020-02-14T07:19:36.606Z</time>
      </trkpt>
      <trkpt lat="42.65003" lon="1.99186">
        <ele>2389.1</ele>
        <time>2020-02-14T07:19:36.940Z</time>
      </trkpt>
      <trkpt lat="42.65003" lon="1.99192">
        <ele>2390.1</ele>
        <time>2020-02-14T07:19:38.470Z</time>
      </trkpt>
      <trkpt lat="42.65003" lon="1.99194">
        <ele>2390.1</ele>
        <time>2020-02-14T07:19:39.240Z</time>
      </trkpt>
      <trkpt lat="42.65003" lon="1.992">
        <ele>2390.6</ele>
        <time>2020-02-14T07:19:40.924Z</time>
      </trkpt>
      <trkpt lat="42.65006" lon="1.99207">
        <ele>2390.9</ele>
        <time>2020-02-14T07:19:43.143Z</time>
      </trkpt>
      <trkpt lat="42.65006" lon="1.9921">
        <ele>2391.5</ele>
        <time>2020-02-14T07:19:43.998Z</time>
      </trkpt>
      <trkpt lat="42.65007" lon="1.99213">
        <ele>2391.5</ele>
        <time>2020-02-14T07:19:44.912Z</time>
      </trkpt>
      <trkpt lat="42.65009" lon="1.99217">
        <ele>2391.4</ele>
        <time>2020-02-14T07:19:46.203Z</time>
      </trkpt>
      <trkpt lat="42.6501" lon="1.99227">
        <ele>2392.4</ele>
        <time>2020-02-14T07:19:49.089Z</time>
      </trkpt>
      <trkpt lat="42.6501" lon="1.99231">
        <ele>2391.9</ele>
        <time>2020-02-14T07:19:50.478Z</time>
      </trkpt>
      <trkpt lat="42.65011" lon="1.99242">
        <ele>2390.9</ele>
        <time>2020-02-14T07:19:53.445Z</time>
      </trkpt>
      <trkpt lat="42.65009" lon="1.99246">
        <ele>2385.3</ele>
        <time>2020-02-14T07:19:55.859Z</time>
      </trkpt>
      <trkpt lat="42.65009" lon="1.99246">
        <ele>2392</ele>
        <time>2020-02-14T07:19:58.197Z</time>
      </trkpt>
      <trkpt lat="42.65009" lon="1.99246">
        <ele>2388.2</ele>
        <time>2020-02-14T07:19:59.524Z</time>
      </trkpt>
      <trkpt lat="42.65009" lon="1.99246">
        <ele>2393.9</ele>
        <time>2020-02-14T07:20:01.496Z</time>
      </trkpt>
      <trkpt lat="42.65009" lon="1.99246">
        <ele>2393.8</ele>
        <time>2020-02-14T07:20:01.501Z</time>
      </trkpt>
      <trkpt lat="42.65009" lon="1.99246">
        <ele>2390</ele>
        <time>2020-02-14T07:20:02.825Z</time>
      </trkpt>
      <trkpt lat="42.65009" lon="1.99246">
        <ele>2395.3</ele>
        <time>2020-02-14T07:20:04.658Z</time>
      </trkpt>
      <trkpt lat="42.65009" lon="1.99246">
        <ele>2390.6</ele>
        <time>2020-02-14T07:20:06.308Z</time>
      </trkpt>
      <trkpt lat="42.65009" lon="1.99246">
        <ele>2393.8</ele>
        <time>2020-02-14T07:20:07.436Z</time>
      </trkpt>
      <trkpt lat="42.65009" lon="1.99246">
        <ele>2397.2</ele>
        <time>2020-02-14T07:20:08.616Z</time>
      </trkpt>
      <trkpt lat="42.65009" lon="1.99246">
        <ele>2390.1</ele>
        <time>2020-02-14T07:20:11.092Z</time>
      </trkpt>
      <trkpt lat="42.65009" lon="1.99246">
        <ele>2394.8</ele>
        <time>2020-02-14T07:20:12.742Z</time>
      </trkpt>
      <trkpt lat="42.65009" lon="1.99246">
        <ele>2386.6</ele>
        <time>2020-02-14T07:20:15.579Z</time>
      </trkpt>
      <trkpt lat="42.65009" lon="1.99246">
        <ele>2395.8</ele>
        <time>2020-02-14T07:20:18.752Z</time>
      </trkpt>
      <trkpt lat="42.65009" lon="1.99246">
        <ele>2389.6</ele>
        <time>2020-02-14T07:20:20.920Z</time>
      </trkpt>
      <trkpt lat="42.65009" lon="1.99246">
        <ele>2393</ele>
        <time>2020-02-14T07:20:22.111Z</time>
      </trkpt>
      <trkpt lat="42.6501" lon="1.99254">
        <ele>2386.1</ele>
        <time>2020-02-14T07:20:25.406Z</time>
      </trkpt>
      <trkpt lat="42.6501" lon="1.99255">
        <ele>2393.4</ele>
        <time>2020-02-14T07:20:27.953Z</time>
      </trkpt>
      <trkpt lat="42.65009" lon="1.99256">
        <ele>2390</ele>
        <time>2020-02-14T07:20:29.160Z</time>
      </trkpt>
      <trkpt lat="42.65009" lon="1.99257">
        <ele>2390.9</ele>
        <time>2020-02-14T07:20:29.624Z</time>
      </trkpt>
      <trkpt lat="42.65008" lon="1.99261">
        <ele>2390.5</ele>
        <time>2020-02-14T07:20:30.820Z</time>
      </trkpt>
      <trkpt lat="42.65006" lon="1.99265">
        <ele>2390.6</ele>
        <time>2020-02-14T07:20:32.120Z</time>
      </trkpt>
      <trkpt lat="42.65004" lon="1.99272">
        <ele>2390</ele>
        <time>2020-02-14T07:20:34.252Z</time>
      </trkpt>
      <trkpt lat="42.65001" lon="1.99279">
        <ele>2390.1</ele>
        <time>2020-02-14T07:20:36.611Z</time>
      </trkpt>
      <trkpt lat="42.64999" lon="1.99283">
        <ele>2389.1</ele>
        <time>2020-02-14T07:20:37.924Z</time>
      </trkpt>
      <trkpt lat="42.64999" lon="1.99286">
        <ele>2388.6</ele>
        <time>2020-02-14T07:20:38.657Z</time>
      </trkpt>
      <trkpt lat="42.64991" lon="1.99299">
        <ele>2389</ele>
        <time>2020-02-14T07:20:43.420Z</time>
      </trkpt>
      <trkpt lat="42.64984" lon="1.99312">
        <ele>2388.2</ele>
        <time>2020-02-14T07:20:48.096Z</time>
      </trkpt>
      <trkpt lat="42.6498" lon="1.99316">
        <ele>2389.1</ele>
        <time>2020-02-14T07:20:49.932Z</time>
      </trkpt>
      <trkpt lat="42.6498" lon="1.99316">
        <ele>2389</ele>
        <time>2020-02-14T07:20:50.049Z</time>
      </trkpt>
      <trkpt lat="42.6498" lon="1.99315">
        <ele>2389</ele>
        <time>2020-02-14T07:20:50.374Z</time>
      </trkpt>
      <trkpt lat="42.6498" lon="1.99316">
        <ele>2389</ele>
        <time>2020-02-14T07:20:50.657Z</time>
      </trkpt>
      <trkpt lat="42.64981" lon="1.99315">
        <ele>2388.6</ele>
        <time>2020-02-14T07:20:51.077Z</time>
      </trkpt>
      <trkpt lat="42.64981" lon="1.99315">
        <ele>2392</ele>
        <time>2020-02-14T07:20:52.249Z</time>
      </trkpt>
      <trkpt lat="42.64981" lon="1.99315">
        <ele>2388.5</ele>
        <time>2020-02-14T07:20:53.450Z</time>
      </trkpt>
      <trkpt lat="42.64981" lon="1.99315">
        <ele>2389.6</ele>
        <time>2020-02-14T07:20:53.827Z</time>
      </trkpt>
      <trkpt lat="42.64981" lon="1.99315">
        <ele>2391.5</ele>
        <time>2020-02-14T07:20:54.500Z</time>
      </trkpt>
      <trkpt lat="42.64982" lon="1.99315">
        <ele>2379.5</ele>
        <time>2020-02-14T07:20:58.704Z</time>
      </trkpt>
      <trkpt lat="42.64982" lon="1.99315">
        <ele>2396.8</ele>
        <time>2020-02-14T07:21:04.699Z</time>
      </trkpt>
      <trkpt lat="42.64982" lon="1.99315">
        <ele>2392.9</ele>
        <time>2020-02-14T07:21:06.025Z</time>
      </trkpt>
      <trkpt lat="42.64982" lon="1.99315">
        <ele>2384.3</ele>
        <time>2020-02-14T07:21:09.036Z</time>
      </trkpt>
      <trkpt lat="42.64982" lon="1.99315">
        <ele>2393.8</ele>
        <time>2020-02-14T07:21:12.351Z</time>
      </trkpt>
      <trkpt lat="42.64982" lon="1.99315">
        <ele>2384.7</ele>
        <time>2020-02-14T07:21:15.514Z</time>
      </trkpt>
      <trkpt lat="42.64982" lon="1.99315">
        <ele>2393.9</ele>
        <time>2020-02-14T07:21:18.693Z</time>
      </trkpt>
      <trkpt lat="42.64982" lon="1.99315">
        <ele>2387.7</ele>
        <time>2020-02-14T07:21:20.846Z</time>
      </trkpt>
      <trkpt lat="42.64982" lon="1.99315">
        <ele>2394.3</ele>
        <time>2020-02-14T07:21:23.155Z</time>
      </trkpt>
      <trkpt lat="42.64982" lon="1.99315">
        <ele>2390.5</ele>
        <time>2020-02-14T07:21:24.462Z</time>
      </trkpt>
      <trkpt lat="42.64982" lon="1.99315">
        <ele>2393.9</ele>
        <time>2020-02-14T07:21:25.615Z</time>
      </trkpt>
      <trkpt lat="42.64982" lon="1.99315">
        <ele>2387.1</ele>
        <time>2020-02-14T07:21:27.958Z</time>
      </trkpt>
      <trkpt lat="42.64982" lon="1.99315">
        <ele>2393.8</ele>
        <time>2020-02-14T07:21:30.291Z</time>
      </trkpt>
      <trkpt lat="42.64982" lon="1.99315">
        <ele>2390.1</ele>
        <time>2020-02-14T07:21:31.599Z</time>
      </trkpt>
      <trkpt lat="42.64982" lon="1.99315">
        <ele>2393.8</ele>
        <time>2020-02-14T07:21:32.906Z</time>
      </trkpt>
      <trkpt lat="42.64982" lon="1.99315">
        <ele>2390</ele>
        <time>2020-02-14T07:21:34.227Z</time>
      </trkpt>
      <trkpt lat="42.64982" lon="1.99315">
        <ele>2393.3</ele>
        <time>2020-02-14T07:21:35.369Z</time>
      </trkpt>
      <trkpt lat="42.64982" lon="1.99315">
        <ele>2393.4</ele>
        <time>2020-02-14T07:21:35.396Z</time>
      </trkpt>
      <trkpt lat="42.64982" lon="1.99315">
        <ele>2407.4</ele>
        <time>2020-02-14T07:21:40.260Z</time>
      </trkpt>
      <trkpt lat="42.64982" lon="1.99315">
        <ele>2393.8</ele>
        <time>2020-02-14T07:21:44.971Z</time>
      </trkpt>
      <trkpt lat="42.64982" lon="1.99314">
        <ele>2397.7</ele>
        <time>2020-02-14T07:21:46.325Z</time>
      </trkpt>
      <trkpt lat="42.64982" lon="1.99314">
        <ele>2386.1</ele>
        <time>2020-02-14T07:21:50.345Z</time>
      </trkpt>
      <trkpt lat="42.64982" lon="1.99314">
        <ele>2393.3</ele>
        <time>2020-02-14T07:21:52.837Z</time>
      </trkpt>
      <trkpt lat="42.64982" lon="1.99314">
        <ele>2385.2</ele>
        <time>2020-02-14T07:21:55.647Z</time>
      </trkpt>
      <trkpt lat="42.64982" lon="1.99314">
        <ele>2396.8</ele>
        <time>2020-02-14T07:21:59.667Z</time>
      </trkpt>
      <trkpt lat="42.64982" lon="1.99314">
        <ele>2389.5</ele>
        <time>2020-02-14T07:22:02.195Z</time>
      </trkpt>
      <trkpt lat="42.64982" lon="1.99314">
        <ele>2394.3</ele>
        <time>2020-02-14T07:22:03.866Z</time>
      </trkpt>
      <trkpt lat="42.64982" lon="1.99314">
        <ele>2382.3</ele>
        <time>2020-02-14T07:22:08.038Z</time>
      </trkpt>
      <trkpt lat="42.64982" lon="1.99314">
        <ele>2394.9</ele>
        <time>2020-02-14T07:22:12.400Z</time>
      </trkpt>
      <trkpt lat="42.64982" lon="1.99314">
        <ele>2383.3</ele>
        <time>2020-02-14T07:22:16.409Z</time>
      </trkpt>
      <trkpt lat="42.64982" lon="1.99314">
        <ele>2394.4</ele>
        <time>2020-02-14T07:22:20.250Z</time>
      </trkpt>
      <trkpt lat="42.64982" lon="1.99314">
        <ele>2382.9</ele>
        <time>2020-02-14T07:22:24.240Z</time>
      </trkpt>
      <trkpt lat="42.64982" lon="1.99314">
        <ele>2394.8</ele>
        <time>2020-02-14T07:22:28.379Z</time>
      </trkpt>
      <trkpt lat="42.64982" lon="1.99314">
        <ele>2401.5</ele>
        <time>2020-02-14T07:22:30.712Z</time>
      </trkpt>
      <trkpt lat="42.64982" lon="1.99314">
        <ele>2393.9</ele>
        <time>2020-02-14T07:22:33.367Z</time>
      </trkpt>
      <trkpt lat="42.64982" lon="1.99314">
        <ele>2383.3</ele>
        <time>2020-02-14T07:22:37.026Z</time>
      </trkpt>
      <trkpt lat="42.64982" lon="1.99314">
        <ele>2394.9</ele>
        <time>2020-02-14T07:22:41.032Z</time>
      </trkpt>
      <trkpt lat="42.64982" lon="1.99314">
        <ele>2392.9</ele>
        <time>2020-02-14T07:22:41.716Z</time>
      </trkpt>
      <trkpt lat="42.64982" lon="1.99314">
        <ele>2383.3</ele>
        <time>2020-02-14T07:22:45.052Z</time>
      </trkpt>
      <trkpt lat="42.64982" lon="1.99314">
        <ele>2394.4</ele>
        <time>2020-02-14T07:22:48.896Z</time>
      </trkpt>
      <trkpt lat="42.64982" lon="1.99314">
        <ele>2389.1</ele>
        <time>2020-02-14T07:22:50.730Z</time>
      </trkpt>
      <trkpt lat="42.64982" lon="1.99314">
        <ele>2392.5</ele>
        <time>2020-02-14T07:22:51.904Z</time>
      </trkpt>
      <trkpt lat="42.64982" lon="1.99314">
        <ele>2395.7</ele>
        <time>2020-02-14T07:22:53.035Z</time>
      </trkpt>
      <trkpt lat="42.64982" lon="1.99314">
        <ele>2399.1</ele>
        <time>2020-02-14T07:22:54.212Z</time>
      </trkpt>
      <trkpt lat="42.64982" lon="1.99314">
        <ele>2384.7</ele>
        <time>2020-02-14T07:22:59.209Z</time>
      </trkpt>
      <trkpt lat="42.64982" lon="1.99314">
        <ele>2394.9</ele>
        <time>2020-02-14T07:23:02.721Z</time>
      </trkpt>
      <trkpt lat="42.64982" lon="1.99314">
        <ele>2398.7</ele>
        <time>2020-02-14T07:23:04.048Z</time>
      </trkpt>
      <trkpt lat="42.64982" lon="1.99314">
        <ele>2393</ele>
        <time>2020-02-14T07:23:06.022Z</time>
      </trkpt>
      <trkpt lat="42.64982" lon="1.99314">
        <ele>2399.6</ele>
        <time>2020-02-14T07:23:08.323Z</time>
      </trkpt>
      <trkpt lat="42.64982" lon="1.99314">
        <ele>2393.8</ele>
        <time>2020-02-14T07:23:10.338Z</time>
      </trkpt>
      <trkpt lat="42.64982" lon="1.99314">
        <ele>2393.4</ele>
        <time>2020-02-14T07:23:10.487Z</time>
      </trkpt>
      <trkpt lat="42.64982" lon="1.99314">
        <ele>2393.3</ele>
        <time>2020-02-14T07:23:10.503Z</time>
      </trkpt>
      <trkpt lat="42.6498" lon="1.99315">
        <ele>2403</ele>
        <time>2020-02-14T07:23:14.016Z</time>
      </trkpt>
      <trkpt lat="42.6498" lon="1.99315">
        <ele>2397.2</ele>
        <time>2020-02-14T07:23:16.029Z</time>
      </trkpt>
      <trkpt lat="42.6498" lon="1.99315">
        <ele>2393.9</ele>
        <time>2020-02-14T07:23:17.182Z</time>
      </trkpt>
      <trkpt lat="42.6498" lon="1.99315">
        <ele>2392.4</ele>
        <time>2020-02-14T07:23:17.735Z</time>
      </trkpt>
      <trkpt lat="42.6498" lon="1.99315">
        <ele>2393.4</ele>
        <time>2020-02-14T07:23:18.077Z</time>
      </trkpt>
      <trkpt lat="42.6498" lon="1.99315">
        <ele>2398.2</ele>
        <time>2020-02-14T07:23:19.753Z</time>
      </trkpt>
      <trkpt lat="42.6498" lon="1.99315">
        <ele>2392.9</ele>
        <time>2020-02-14T07:23:21.589Z</time>
      </trkpt>
      <trkpt lat="42.6498" lon="1.99315">
        <ele>2392.9</ele>
        <time>2020-02-14T07:23:21.595Z</time>
      </trkpt>
      <trkpt lat="42.6498" lon="1.99315">
        <ele>2396.7</ele>
        <time>2020-02-14T07:23:22.916Z</time>
      </trkpt>
      <trkpt lat="42.6498" lon="1.99315">
        <ele>2393</ele>
        <time>2020-02-14T07:23:24.210Z</time>
      </trkpt>
      <trkpt lat="42.6498" lon="1.99315">
        <ele>2393.9</ele>
        <time>2020-02-14T07:23:24.522Z</time>
      </trkpt>
      <trkpt lat="42.64978" lon="1.99315">
        <ele>2394.9</ele>
        <time>2020-02-14T07:23:25.368Z</time>
      </trkpt>
      <trkpt lat="42.6497" lon="1.99316">
        <ele>2395.4</ele>
        <time>2020-02-14T07:23:28.783Z</time>
      </trkpt>
      <trkpt lat="42.64958" lon="1.99314">
        <ele>2395.4</ele>
        <time>2020-02-14T07:23:33.332Z</time>
      </trkpt>
      <trkpt lat="42.64946" lon="1.99316">
        <ele>2396.8</ele>
        <time>2020-02-14T07:23:38.022Z</time>
      </trkpt>
      <trkpt lat="42.64934" lon="1.99321">
        <ele>2398.2</ele>
        <time>2020-02-14T07:23:42.969Z</time>
      </trkpt>
      <trkpt lat="42.64932" lon="1.99322">
        <ele>2397.8</ele>
        <time>2020-02-14T07:23:43.750Z</time>
      </trkpt>
      <trkpt lat="42.64922" lon="1.99328">
        <ele>2398.3</ele>
        <time>2020-02-14T07:23:47.827Z</time>
      </trkpt>
      <trkpt lat="42.64912" lon="1.99332">
        <ele>2400.1</ele>
        <time>2020-02-14T07:23:52.170Z</time>
      </trkpt>
      <trkpt lat="42.64905" lon="1.99335">
        <ele>2401.5</ele>
        <time>2020-02-14T07:23:54.974Z</time>
      </trkpt>
      <trkpt lat="42.64899" lon="1.99333">
        <ele>2403</ele>
        <time>2020-02-14T07:23:57.185Z</time>
      </trkpt>
      <trkpt lat="42.64894" lon="1.99335">
        <ele>2404</ele>
        <time>2020-02-14T07:23:59.211Z</time>
      </trkpt>
      <trkpt lat="42.64892" lon="1.99337">
        <ele>2405</ele>
        <time>2020-02-14T07:24:00.535Z</time>
      </trkpt>
      <trkpt lat="42.64889" lon="1.99338">
        <ele>2405.5</ele>
        <time>2020-02-14T07:24:01.772Z</time>
      </trkpt>
      <trkpt lat="42.64881" lon="1.99343">
        <ele>2406.8</ele>
        <time>2020-02-14T07:24:05.043Z</time>
      </trkpt>
      <trkpt lat="42.64875" lon="1.99348">
        <ele>2407.8</ele>
        <time>2020-02-14T07:24:07.842Z</time>
      </trkpt>
      <trkpt lat="42.6487" lon="1.99355">
        <ele>2407.4</ele>
        <time>2020-02-14T07:24:10.419Z</time>
      </trkpt>
      <trkpt lat="42.64867" lon="1.99362">
        <ele>2406.3</ele>
        <time>2020-02-14T07:24:12.850Z</time>
      </trkpt>
      <trkpt lat="42.64864" lon="1.99368">
        <ele>2405.9</ele>
        <time>2020-02-14T07:24:15.017Z</time>
      </trkpt>
      <trkpt lat="42.64863" lon="1.99373">
        <ele>2405.4</ele>
        <time>2020-02-14T07:24:16.370Z</time>
      </trkpt>
      <trkpt lat="42.64861" lon="1.99383">
        <ele>2403.9</ele>
        <time>2020-02-14T07:24:19.552Z</time>
      </trkpt>
      <trkpt lat="42.64857" lon="1.99385">
        <ele>2403.9</ele>
        <time>2020-02-14T07:24:21.055Z</time>
      </trkpt>
      <trkpt lat="42.64856" lon="1.99386">
        <ele>2404</ele>
        <time>2020-02-14T07:24:21.516Z</time>
      </trkpt>
      <trkpt lat="42.64855" lon="1.99386">
        <ele>2404.5</ele>
        <time>2020-02-14T07:24:22.048Z</time>
      </trkpt>
      <trkpt lat="42.64855" lon="1.99386">
        <ele>2404.5</ele>
        <time>2020-02-14T07:24:22.327Z</time>
      </trkpt>
      <trkpt lat="42.64856" lon="1.99387">
        <ele>2403.9</ele>
        <time>2020-02-14T07:24:22.577Z</time>
      </trkpt>
      <trkpt lat="42.64856" lon="1.99386">
        <ele>2404.4</ele>
        <time>2020-02-14T07:24:22.832Z</time>
      </trkpt>
      <trkpt lat="42.64854" lon="1.99388">
        <ele>2405.5</ele>
        <time>2020-02-14T07:24:23.870Z</time>
      </trkpt>
      <trkpt lat="42.64853" lon="1.99388">
        <ele>2405.4</ele>
        <time>2020-02-14T07:24:24.266Z</time>
      </trkpt>
      <trkpt lat="42.64853" lon="1.99388">
        <ele>2406.3</ele>
        <time>2020-02-14T07:24:24.589Z</time>
      </trkpt>
      <trkpt lat="42.64853" lon="1.99388">
        <ele>2405.4</ele>
        <time>2020-02-14T07:24:24.920Z</time>
      </trkpt>
      <trkpt lat="42.64854" lon="1.99393">
        <ele>2405.4</ele>
        <time>2020-02-14T07:24:26.285Z</time>
      </trkpt>
      <trkpt lat="42.64856" lon="1.99397">
        <ele>2403.9</ele>
        <time>2020-02-14T07:24:27.736Z</time>
      </trkpt>
      <trkpt lat="42.64859" lon="1.99411">
        <ele>2400.6</ele>
        <time>2020-02-14T07:24:32.168Z</time>
      </trkpt>
      <trkpt lat="42.64863" lon="1.9942">
        <ele>2397.8</ele>
        <time>2020-02-14T07:24:35.143Z</time>
      </trkpt>
      <trkpt lat="42.64862" lon="1.99425">
        <ele>2396.7</ele>
        <time>2020-02-14T07:24:36.766Z</time>
      </trkpt>
      <trkpt lat="42.64862" lon="1.99431">
        <ele>2395.3</ele>
        <time>2020-02-14T07:24:38.377Z</time>
      </trkpt>
      <trkpt lat="42.64864" lon="1.99438">
        <ele>2393.4</ele>
        <time>2020-02-14T07:24:40.625Z</time>
      </trkpt>
      <trkpt lat="42.64863" lon="1.99448">
        <ele>2392</ele>
        <time>2020-02-14T07:24:43.558Z</time>
      </trkpt>
      <trkpt lat="42.64864" lon="1.99453">
        <ele>2390</ele>
        <time>2020-02-14T07:24:45.256Z</time>
      </trkpt>
      <trkpt lat="42.64867" lon="1.99461">
        <ele>2387.2</ele>
        <time>2020-02-14T07:24:47.949Z</time>
      </trkpt>
      <trkpt lat="42.64867" lon="1.99467">
        <ele>2386.6</ele>
        <time>2020-02-14T07:24:49.750Z</time>
      </trkpt>
      <trkpt lat="42.64872" lon="1.99474">
        <ele>2384.7</ele>
        <time>2020-02-14T07:24:52.574Z</time>
      </trkpt>
      <trkpt lat="42.64875" lon="1.99487">
        <ele>2380.8</ele>
        <time>2020-02-14T07:24:56.550Z</time>
      </trkpt>
      <trkpt lat="42.64875" lon="1.99488">
        <ele>2380.9</ele>
        <time>2020-02-14T07:24:56.938Z</time>
      </trkpt>
      <trkpt lat="42.64878" lon="1.99497">
        <ele>2377</ele>
        <time>2020-02-14T07:24:59.992Z</time>
      </trkpt>
      <trkpt lat="42.64879" lon="1.995">
        <ele>2376</ele>
        <time>2020-02-14T07:25:00.907Z</time>
      </trkpt>
      <trkpt lat="42.64879" lon="1.99503">
        <ele>2376</ele>
        <time>2020-02-14T07:25:01.951Z</time>
      </trkpt>
      <trkpt lat="42.6488" lon="1.99505">
        <ele>2375.7</ele>
        <time>2020-02-14T07:25:02.637Z</time>
      </trkpt>
      <trkpt lat="42.6488" lon="1.99517">
        <ele>2373.6</ele>
        <time>2020-02-14T07:25:06.041Z</time>
      </trkpt>
      <trkpt lat="42.64879" lon="1.99519">
        <ele>2373.7</ele>
        <time>2020-02-14T07:25:06.481Z</time>
      </trkpt>
      <trkpt lat="42.6488" lon="1.99534">
        <ele>2370.4</ele>
        <time>2020-02-14T07:25:10.910Z</time>
      </trkpt>
      <trkpt lat="42.6488" lon="1.99543">
        <ele>2368.8</ele>
        <time>2020-02-14T07:25:13.495Z</time>
      </trkpt>
      <trkpt lat="42.64881" lon="1.99571">
        <ele>2365.5</ele>
        <time>2020-02-14T07:25:21.619Z</time>
      </trkpt>
      <trkpt lat="42.64881" lon="1.99578">
        <ele>2365.1</ele>
        <time>2020-02-14T07:25:23.534Z</time>
      </trkpt>
      <trkpt lat="42.64879" lon="1.99584">
        <ele>2364.1</ele>
        <time>2020-02-14T07:25:25.606Z</time>
      </trkpt>
      <trkpt lat="42.64876" lon="1.99591">
        <ele>2362.6</ele>
        <time>2020-02-14T07:25:27.893Z</time>
      </trkpt>
      <trkpt lat="42.64876" lon="1.9959">
        <ele>2362.6</ele>
        <time>2020-02-14T07:25:28.080Z</time>
      </trkpt>
      <trkpt lat="42.64876" lon="1.9959">
        <ele>2363.1</ele>
        <time>2020-02-14T07:25:28.262Z</time>
      </trkpt>
      <trkpt lat="42.64876" lon="1.9959">
        <ele>2359.8</ele>
        <time>2020-02-14T07:25:29.434Z</time>
      </trkpt>
      <trkpt lat="42.64876" lon="1.9959">
        <ele>2364.1</ele>
        <time>2020-02-14T07:25:30.934Z</time>
      </trkpt>
      <trkpt lat="42.64876" lon="1.9959">
        <ele>2360.8</ele>
        <time>2020-02-14T07:25:32.078Z</time>
      </trkpt>
      <trkpt lat="42.64877" lon="1.99592">
        <ele>2362.1</ele>
        <time>2020-02-14T07:25:32.835Z</time>
      </trkpt>
      <trkpt lat="42.64877" lon="1.99598">
        <ele>2362.1</ele>
        <time>2020-02-14T07:25:34.595Z</time>
      </trkpt>
      <trkpt lat="42.64876" lon="1.99606">
        <ele>2360.7</ele>
        <time>2020-02-14T07:25:36.896Z</time>
      </trkpt>
      <trkpt lat="42.6487" lon="1.99619">
        <ele>2358.4</ele>
        <time>2020-02-14T07:25:41.149Z</time>
      </trkpt>
      <trkpt lat="42.64874" lon="1.99629">
        <ele>2356.3</ele>
        <time>2020-02-14T07:25:44.398Z</time>
      </trkpt>
      <trkpt lat="42.64876" lon="1.99643">
        <ele>2354.4</ele>
        <time>2020-02-14T07:25:48.497Z</time>
      </trkpt>
      <trkpt lat="42.64878" lon="1.99653">
        <ele>2353.1</ele>
        <time>2020-02-14T07:25:51.386Z</time>
      </trkpt>
      <trkpt lat="42.64878" lon="1.99654">
        <ele>2353</ele>
        <time>2020-02-14T07:25:51.613Z</time>
      </trkpt>
      <trkpt lat="42.64875" lon="1.99659">
        <ele>2351.6</ele>
        <time>2020-02-14T07:25:53.645Z</time>
      </trkpt>
      <trkpt lat="42.64874" lon="1.99665">
        <ele>2350.7</ele>
        <time>2020-02-14T07:25:55.495Z</time>
      </trkpt>
      <trkpt lat="42.64872" lon="1.9967">
        <ele>2349.1</ele>
        <time>2020-02-14T07:25:57.106Z</time>
      </trkpt>
      <trkpt lat="42.6487" lon="1.99682">
        <ele>2348.2</ele>
        <time>2020-02-14T07:26:00.603Z</time>
      </trkpt>
      <trkpt lat="42.64867" lon="1.99686">
        <ele>2347.7</ele>
        <time>2020-02-14T07:26:01.896Z</time>
      </trkpt>
      <trkpt lat="42.64861" lon="1.99699">
        <ele>2345.3</ele>
        <time>2020-02-14T07:26:06.356Z</time>
      </trkpt>
      <trkpt lat="42.64861" lon="1.99709">
        <ele>2343.5</ele>
        <time>2020-02-14T07:26:09.283Z</time>
      </trkpt>
      <trkpt lat="42.6486" lon="1.99712">
        <ele>2341.9</ele>
        <time>2020-02-14T07:26:10.462Z</time>
      </trkpt>
      <trkpt lat="42.64856" lon="1.99725">
        <ele>2338.5</ele>
        <time>2020-02-14T07:26:14.566Z</time>
      </trkpt>
      <trkpt lat="42.64855" lon="1.99732">
        <ele>2336.7</ele>
        <time>2020-02-14T07:26:16.747Z</time>
      </trkpt>
      <trkpt lat="42.64858" lon="1.99734">
        <ele>2335.8</ele>
        <time>2020-02-14T07:26:17.987Z</time>
      </trkpt>
      <trkpt lat="42.64866" lon="1.99748">
        <ele>2332.3</ele>
        <time>2020-02-14T07:26:23.257Z</time>
      </trkpt>
      <trkpt lat="42.64873" lon="1.9976">
        <ele>2329</ele>
        <time>2020-02-14T07:26:27.581Z</time>
      </trkpt>
      <trkpt lat="42.64873" lon="1.9976">
        <ele>2336.2</ele>
        <time>2020-02-14T07:26:30.093Z</time>
      </trkpt>
      <trkpt lat="42.64873" lon="1.9976">
        <ele>2330.5</ele>
        <time>2020-02-14T07:26:32.078Z</time>
      </trkpt>
      <trkpt lat="42.64873" lon="1.9976">
        <ele>2334.2</ele>
        <time>2020-02-14T07:26:33.386Z</time>
      </trkpt>
      <trkpt lat="42.64873" lon="1.9976">
        <ele>2330.4</ele>
        <time>2020-02-14T07:26:34.709Z</time>
      </trkpt>
      <trkpt lat="42.64873" lon="1.99761">
        <ele>2327.1</ele>
        <time>2020-02-14T07:26:35.870Z</time>
      </trkpt>
      <trkpt lat="42.64873" lon="1.99761">
        <ele>2330</ele>
        <time>2020-02-14T07:26:36.863Z</time>
      </trkpt>
      <trkpt lat="42.64873" lon="1.99761">
        <ele>2333.3</ele>
        <time>2020-02-14T07:26:38.037Z</time>
      </trkpt>
      <trkpt lat="42.64873" lon="1.99761">
        <ele>2329.9</ele>
        <time>2020-02-14T07:26:39.217Z</time>
      </trkpt>
      <trkpt lat="42.64873" lon="1.99761">
        <ele>2326.5</ele>
        <time>2020-02-14T07:26:40.395Z</time>
      </trkpt>
      <trkpt lat="42.64873" lon="1.99762">
        <ele>2330</ele>
        <time>2020-02-14T07:26:41.607Z</time>
      </trkpt>
      <trkpt lat="42.64866" lon="1.99761">
        <ele>2327.6</ele>
        <time>2020-02-14T07:26:44.360Z</time>
      </trkpt>
      <trkpt lat="42.64862" lon="1.99767">
        <ele>2323.6</ele>
        <time>2020-02-14T07:26:47.092Z</time>
      </trkpt>
      <trkpt lat="42.64861" lon="1.99768">
        <ele>2323.6</ele>
        <time>2020-02-14T07:26:47.347Z</time>
      </trkpt>
      <trkpt lat="42.64863" lon="1.99773">
        <ele>2323.6</ele>
        <time>2020-02-14T07:26:48.752Z</time>
      </trkpt>
      <trkpt lat="42.64862" lon="1.99776">
        <ele>2322.2</ele>
        <time>2020-02-14T07:26:49.736Z</time>
      </trkpt>
      <trkpt lat="42.64861" lon="1.99782">
        <ele>2320.4</ele>
        <time>2020-02-14T07:26:51.586Z</time>
      </trkpt>
      <trkpt lat="42.64858" lon="1.9979">
        <ele>2316.5</ele>
        <time>2020-02-14T07:26:54.586Z</time>
      </trkpt>
      <trkpt lat="42.64857" lon="1.99796">
        <ele>2313.6</ele>
        <time>2020-02-14T07:26:56.493Z</time>
      </trkpt>
      <trkpt lat="42.64854" lon="1.99804">
        <ele>2310.2</ele>
        <time>2020-02-14T07:26:59.301Z</time>
      </trkpt>
      <trkpt lat="42.64856" lon="1.99812">
        <ele>2307.4</ele>
        <time>2020-02-14T07:27:01.942Z</time>
      </trkpt>
      <trkpt lat="42.64859" lon="1.99817">
        <ele>2306.8</ele>
        <time>2020-02-14T07:27:03.782Z</time>
      </trkpt>
      <trkpt lat="42.64859" lon="1.99826">
        <ele>2305.5</ele>
        <time>2020-02-14T07:27:06.383Z</time>
      </trkpt>
      <trkpt lat="42.64858" lon="1.99832">
        <ele>2303</ele>
        <time>2020-02-14T07:27:08.230Z</time>
      </trkpt>
      <trkpt lat="42.64856" lon="1.99837">
        <ele>2300.6</ele>
        <time>2020-02-14T07:27:10.115Z</time>
      </trkpt>
      <trkpt lat="42.64857" lon="1.99841">
        <ele>2299.1</ele>
        <time>2020-02-14T07:27:11.355Z</time>
      </trkpt>
      <trkpt lat="42.64855" lon="1.99849">
        <ele>2296.7</ele>
        <time>2020-02-14T07:27:13.945Z</time>
      </trkpt>
      <trkpt lat="42.6485" lon="1.99862">
        <ele>2293.5</ele>
        <time>2020-02-14T07:27:18.236Z</time>
      </trkpt>
      <trkpt lat="42.6485" lon="1.99863">
        <ele>2293.8</ele>
        <time>2020-02-14T07:27:18.453Z</time>
      </trkpt>
      <trkpt lat="42.64847" lon="1.99872">
        <ele>2290</ele>
        <time>2020-02-14T07:27:21.768Z</time>
      </trkpt>
      <trkpt lat="42.64844" lon="1.99877">
        <ele>2288.2</ele>
        <time>2020-02-14T07:27:23.707Z</time>
      </trkpt>
      <trkpt lat="42.64839" lon="1.99891">
        <ele>2285.2</ele>
        <time>2020-02-14T07:27:28.099Z</time>
      </trkpt>
      <trkpt lat="42.64833" lon="1.99902">
        <ele>2283.4</ele>
        <time>2020-02-14T07:27:32.021Z</time>
      </trkpt>
      <trkpt lat="42.64831" lon="1.9991">
        <ele>2279.9</ele>
        <time>2020-02-14T07:27:34.563Z</time>
      </trkpt>
      <trkpt lat="42.64828" lon="1.99917">
        <ele>2277</ele>
        <time>2020-02-14T07:27:37.384Z</time>
      </trkpt>
      <trkpt lat="42.64822" lon="1.9993">
        <ele>2274.2</ele>
        <time>2020-02-14T07:27:41.767Z</time>
      </trkpt>
      <trkpt lat="42.6482" lon="1.99938">
        <ele>2272.2</ele>
        <time>2020-02-14T07:27:44.078Z</time>
      </trkpt>
      <trkpt lat="42.64818" lon="1.99943">
        <ele>2270.8</ele>
        <time>2020-02-14T07:27:46.042Z</time>
      </trkpt>
      <trkpt lat="42.64815" lon="1.99956">
        <ele>2267.5</ele>
        <time>2020-02-14T07:27:50.007Z</time>
      </trkpt>
      <trkpt lat="42.64813" lon="1.9996">
        <ele>2265.6</ele>
        <time>2020-02-14T07:27:51.502Z</time>
      </trkpt>
      <trkpt lat="42.64811" lon="1.99962">
        <ele>2265.1</ele>
        <time>2020-02-14T07:27:52.503Z</time>
      </trkpt>
      <trkpt lat="42.64809" lon="1.99963">
        <ele>2264</ele>
        <time>2020-02-14T07:27:53.357Z</time>
      </trkpt>
      <trkpt lat="42.64809" lon="1.99973">
        <ele>2261.3</ele>
        <time>2020-02-14T07:27:56.325Z</time>
      </trkpt>
      <trkpt lat="42.6481" lon="1.99979">
        <ele>2257.8</ele>
        <time>2020-02-14T07:27:58.525Z</time>
      </trkpt>
      <trkpt lat="42.64811" lon="1.99981">
        <ele>2257.8</ele>
        <time>2020-02-14T07:27:59.230Z</time>
      </trkpt>
      <trkpt lat="42.64816" lon="1.9999">
        <ele>2254.1</ele>
        <time>2020-02-14T07:28:02.875Z</time>
      </trkpt>
      <trkpt lat="42.6482" lon="1.99995">
        <ele>2253.6</ele>
        <time>2020-02-14T07:28:04.769Z</time>
      </trkpt>
      <trkpt lat="42.64824" lon="2.00005">
        <ele>2250.1</ele>
        <time>2020-02-14T07:28:08.203Z</time>
      </trkpt>
      <trkpt lat="42.64822" lon="2.00009">
        <ele>2254</ele>
        <time>2020-02-14T07:28:10.096Z</time>
      </trkpt>
      <trkpt lat="42.64822" lon="2.00009">
        <ele>2249.6</ele>
        <time>2020-02-14T07:28:11.610Z</time>
      </trkpt>
      <trkpt lat="42.64822" lon="2.00009">
        <ele>2259.7</ele>
        <time>2020-02-14T07:28:15.103Z</time>
      </trkpt>
      <trkpt lat="42.64822" lon="2.00009">
        <ele>2250.7</ele>
        <time>2020-02-14T07:28:18.239Z</time>
      </trkpt>
      <trkpt lat="42.64822" lon="2.00009">
        <ele>2246.4</ele>
        <time>2020-02-14T07:28:19.739Z</time>
      </trkpt>
      <trkpt lat="42.64822" lon="2.00009">
        <ele>2250.7</ele>
        <time>2020-02-14T07:28:21.236Z</time>
      </trkpt>
      <trkpt lat="42.64822" lon="2.00009">
        <ele>2247.3</ele>
        <time>2020-02-14T07:28:22.419Z</time>
      </trkpt>
      <trkpt lat="42.64822" lon="2.00009">
        <ele>2252.5</ele>
        <time>2020-02-14T07:28:24.236Z</time>
      </trkpt>
      <trkpt lat="42.64822" lon="2.00009">
        <ele>2242.5</ele>
        <time>2020-02-14T07:28:27.716Z</time>
      </trkpt>
      <trkpt lat="42.64822" lon="2.00009">
        <ele>2245.4</ele>
        <time>2020-02-14T07:28:28.720Z</time>
      </trkpt>
      <trkpt lat="42.64822" lon="2.00009">
        <ele>2253</ele>
        <time>2020-02-14T07:28:31.373Z</time>
      </trkpt>
      <trkpt lat="42.64822" lon="2.00009">
        <ele>2250.1</ele>
        <time>2020-02-14T07:28:32.384Z</time>
      </trkpt>
      <trkpt lat="42.64821" lon="2.00011">
        <ele>2249.1</ele>
        <time>2020-02-14T07:28:33.084Z</time>
      </trkpt>
      <trkpt lat="42.6482" lon="2.00014">
        <ele>2248.2</ele>
        <time>2020-02-14T07:28:34.137Z</time>
      </trkpt>
      <trkpt lat="42.64818" lon="2.00029">
        <ele>2244.3</ele>
        <time>2020-02-14T07:28:38.648Z</time>
      </trkpt>
      <trkpt lat="42.64817" lon="2.00036">
        <ele>2243</ele>
        <time>2020-02-14T07:28:40.628Z</time>
      </trkpt>
      <trkpt lat="42.64816" lon="2.00043">
        <ele>2239.1</ele>
        <time>2020-02-14T07:28:43.001Z</time>
      </trkpt>
      <trkpt lat="42.64816" lon="2.00043">
        <ele>2240</ele>
        <time>2020-02-14T07:28:43.324Z</time>
      </trkpt>
      <trkpt lat="42.64816" lon="2.00043">
        <ele>2238.7</ele>
        <time>2020-02-14T07:28:43.793Z</time>
      </trkpt>
      <trkpt lat="42.64816" lon="2.00043">
        <ele>2243.5</ele>
        <time>2020-02-14T07:28:45.448Z</time>
      </trkpt>
      <trkpt lat="42.64816" lon="2.00043">
        <ele>2239.6</ele>
        <time>2020-02-14T07:28:46.801Z</time>
      </trkpt>
      <trkpt lat="42.64816" lon="2.00043">
        <ele>2231.4</ele>
        <time>2020-02-14T07:28:49.630Z</time>
      </trkpt>
      <trkpt lat="42.64816" lon="2.00043">
        <ele>2239.5</ele>
        <time>2020-02-14T07:28:52.440Z</time>
      </trkpt>
      <trkpt lat="42.64816" lon="2.00043">
        <ele>2243</ele>
        <time>2020-02-14T07:28:53.637Z</time>
      </trkpt>
      <trkpt lat="42.64816" lon="2.00043">
        <ele>2239.6</ele>
        <time>2020-02-14T07:28:54.806Z</time>
      </trkpt>
      <trkpt lat="42.64816" lon="2.00043">
        <ele>2244.8</ele>
        <time>2020-02-14T07:28:56.623Z</time>
      </trkpt>
      <trkpt lat="42.64816" lon="2.00043">
        <ele>2239.6</ele>
        <time>2020-02-14T07:28:58.451Z</time>
      </trkpt>
      <trkpt lat="42.64816" lon="2.00043">
        <ele>2235.2</ele>
        <time>2020-02-14T07:28:59.949Z</time>
      </trkpt>
      <trkpt lat="42.64816" lon="2.00043">
        <ele>2239.1</ele>
        <time>2020-02-14T07:29:01.291Z</time>
      </trkpt>
      <trkpt lat="42.64816" lon="2.00043">
        <ele>2235.8</ele>
        <time>2020-02-14T07:29:02.458Z</time>
      </trkpt>
      <trkpt lat="42.64816" lon="2.00043">
        <ele>2237.2</ele>
        <time>2020-02-14T07:29:02.954Z</time>
      </trkpt>
      <trkpt lat="42.64816" lon="2.00043">
        <ele>2241</ele>
        <time>2020-02-14T07:29:04.294Z</time>
      </trkpt>
      <trkpt lat="42.64816" lon="2.00043">
        <ele>2232.3</ele>
        <time>2020-02-14T07:29:07.324Z</time>
      </trkpt>
      <trkpt lat="42.64816" lon="2.00043">
        <ele>2239.5</ele>
        <time>2020-02-14T07:29:09.819Z</time>
      </trkpt>
      <trkpt lat="42.64816" lon="2.00043">
        <ele>2233.9</ele>
        <time>2020-02-14T07:29:11.767Z</time>
      </trkpt>
      <trkpt lat="42.64816" lon="2.00043">
        <ele>2239.1</ele>
        <time>2020-02-14T07:29:13.579Z</time>
      </trkpt>
      <trkpt lat="42.64815" lon="2.00043">
        <ele>2239.5</ele>
        <time>2020-02-14T07:29:13.744Z</time>
      </trkpt>
      <trkpt lat="42.64815" lon="2.00043">
        <ele>2239.1</ele>
        <time>2020-02-14T07:29:13.964Z</time>
      </trkpt>
      <trkpt lat="42.64815" lon="2.00048">
        <ele>2237.7</ele>
        <time>2020-02-14T07:29:15.524Z</time>
      </trkpt>
      <trkpt lat="42.64814" lon="2.00057">
        <ele>2234.3</ele>
        <time>2020-02-14T07:29:18.233Z</time>
      </trkpt>
      <trkpt lat="42.64813" lon="2.00062">
        <ele>2232.4</ele>
        <time>2020-02-14T07:29:19.929Z</time>
      </trkpt>
      <trkpt lat="42.64813" lon="2.00063">
        <ele>2231.8</ele>
        <time>2020-02-14T07:29:20.319Z</time>
      </trkpt>
      <trkpt lat="42.64814" lon="2.00072">
        <ele>2229.4</ele>
        <time>2020-02-14T07:29:23.075Z</time>
      </trkpt>
      <trkpt lat="42.6481" lon="2.00084">
        <ele>2226.1</ele>
        <time>2020-02-14T07:29:26.783Z</time>
      </trkpt>
      <trkpt lat="42.64806" lon="2.00097">
        <ele>2222.7</ele>
        <time>2020-02-14T07:29:31.137Z</time>
      </trkpt>
      <trkpt lat="42.64804" lon="2.001">
        <ele>2222.3</ele>
        <time>2020-02-14T07:29:32.178Z</time>
      </trkpt>
      <trkpt lat="42.64798" lon="2.00114">
        <ele>2219.3</ele>
        <time>2020-02-14T07:29:36.939Z</time>
      </trkpt>
      <trkpt lat="42.64797" lon="2.00126">
        <ele>2216.1</ele>
        <time>2020-02-14T07:29:40.622Z</time>
      </trkpt>
      <trkpt lat="42.64797" lon="2.00141">
        <ele>2213.2</ele>
        <time>2020-02-14T07:29:45.027Z</time>
      </trkpt>
      <trkpt lat="42.64798" lon="2.00154">
        <ele>2211.3</ele>
        <time>2020-02-14T07:29:48.632Z</time>
      </trkpt>
      <trkpt lat="42.64798" lon="2.00162">
        <ele>2210.7</ele>
        <time>2020-02-14T07:29:50.910Z</time>
      </trkpt>
      <trkpt lat="42.64798" lon="2.00162">
        <ele>2204</ele>
        <time>2020-02-14T07:29:53.230Z</time>
      </trkpt>
      <trkpt lat="42.64798" lon="2.00162">
        <ele>2211.2</ele>
        <time>2020-02-14T07:29:55.725Z</time>
      </trkpt>
      <trkpt lat="42.64798" lon="2.00162">
        <ele>2201.7</ele>
        <time>2020-02-14T07:29:59.040Z</time>
      </trkpt>
      <trkpt lat="42.64798" lon="2.00162">
        <ele>2211.2</ele>
        <time>2020-02-14T07:30:02.349Z</time>
      </trkpt>
      <trkpt lat="42.64798" lon="2.00162">
        <ele>2209.7</ele>
        <time>2020-02-14T07:30:02.872Z</time>
      </trkpt>
      <trkpt lat="42.64797" lon="2.00179">
        <ele>2207.4</ele>
        <time>2020-02-14T07:30:07.731Z</time>
      </trkpt>
      <trkpt lat="42.64794" lon="2.00199">
        <ele>2204.4</ele>
        <time>2020-02-14T07:30:13.451Z</time>
      </trkpt>
      <trkpt lat="42.64794" lon="2.002">
        <ele>2204.4</ele>
        <time>2020-02-14T07:30:13.983Z</time>
      </trkpt>
      <trkpt lat="42.64787" lon="2.00212">
        <ele>2202.1</ele>
        <time>2020-02-14T07:30:18.249Z</time>
      </trkpt>
      <trkpt lat="42.64783" lon="2.00215">
        <ele>2201.6</ele>
        <time>2020-02-14T07:30:20.200Z</time>
      </trkpt>
      <trkpt lat="42.64778" lon="2.0022">
        <ele>2200.6</ele>
        <time>2020-02-14T07:30:22.451Z</time>
      </trkpt>
      <trkpt lat="42.64779" lon="2.0022">
        <ele>2200.2</ele>
        <time>2020-02-14T07:30:22.834Z</time>
      </trkpt>
      <trkpt lat="42.64786" lon="2.00226">
        <ele>2199.6</ele>
        <time>2020-02-14T07:30:25.969Z</time>
      </trkpt>
      <trkpt lat="42.64785" lon="2.00225">
        <ele>2203</ele>
        <time>2020-02-14T07:30:27.193Z</time>
      </trkpt>
      <trkpt lat="42.64785" lon="2.00225">
        <ele>2199.6</ele>
        <time>2020-02-14T07:30:28.370Z</time>
      </trkpt>
      <trkpt lat="42.64785" lon="2.00225">
        <ele>2187.6</ele>
        <time>2020-02-14T07:30:32.539Z</time>
      </trkpt>
      <trkpt lat="42.64785" lon="2.00225">
        <ele>2200.2</ele>
        <time>2020-02-14T07:30:36.895Z</time>
      </trkpt>
      <trkpt lat="42.64785" lon="2.00225">
        <ele>2192.5</ele>
        <time>2020-02-14T07:30:39.556Z</time>
      </trkpt>
      <trkpt lat="42.64785" lon="2.00225">
        <ele>2200.2</ele>
        <time>2020-02-14T07:30:42.230Z</time>
      </trkpt>
      <trkpt lat="42.64785" lon="2.00225">
        <ele>2203.1</ele>
        <time>2020-02-14T07:30:43.231Z</time>
      </trkpt>
      <trkpt lat="42.64785" lon="2.00225">
        <ele>2199.6</ele>
        <time>2020-02-14T07:30:44.433Z</time>
      </trkpt>
      <trkpt lat="42.64785" lon="2.00225">
        <ele>2187.6</ele>
        <time>2020-02-14T07:30:48.591Z</time>
      </trkpt>
      <trkpt lat="42.64785" lon="2.00225">
        <ele>2201.1</ele>
        <time>2020-02-14T07:30:53.273Z</time>
      </trkpt>
      <trkpt lat="42.64785" lon="2.00225">
        <ele>2193</ele>
        <time>2020-02-14T07:30:56.097Z</time>
      </trkpt>
      <trkpt lat="42.64785" lon="2.00225">
        <ele>2201.1</ele>
        <time>2020-02-14T07:30:58.915Z</time>
      </trkpt>
      <trkpt lat="42.64785" lon="2.00225">
        <ele>2199.6</ele>
        <time>2020-02-14T07:30:59.433Z</time>
      </trkpt>
      <trkpt lat="42.64787" lon="2.00231">
        <ele>2198.2</ele>
        <time>2020-02-14T07:31:01.478Z</time>
      </trkpt>
      <trkpt lat="42.64787" lon="2.00246">
        <ele>2194.5</ele>
        <time>2020-02-14T07:31:05.715Z</time>
      </trkpt>
      <trkpt lat="42.64783" lon="2.00255">
        <ele>2191</ele>
        <time>2020-02-14T07:31:09.106Z</time>
      </trkpt>
      <trkpt lat="42.64782" lon="2.00262">
        <ele>2188.7</ele>
        <time>2020-02-14T07:31:11.129Z</time>
      </trkpt>
      <trkpt lat="42.64778" lon="2.00271">
        <ele>2184.3</ele>
        <time>2020-02-14T07:31:14.487Z</time>
      </trkpt>
      <trkpt lat="42.64778" lon="2.00278">
        <ele>2181.9</ele>
        <time>2020-02-14T07:31:16.489Z</time>
      </trkpt>
      <trkpt lat="42.64778" lon="2.00278">
        <ele>2182</ele>
        <time>2020-02-14T07:31:16.692Z</time>
      </trkpt>
      <trkpt lat="42.64779" lon="2.00285">
        <ele>2179.6</ele>
        <time>2020-02-14T07:31:18.797Z</time>
      </trkpt>
      <trkpt lat="42.64778" lon="2.00292">
        <ele>2176.1</ele>
        <time>2020-02-14T07:31:21.103Z</time>
      </trkpt>
      <trkpt lat="42.64777" lon="2.00295">
        <ele>2175.7</ele>
        <time>2020-02-14T07:31:21.895Z</time>
      </trkpt>
      <trkpt lat="42.64771" lon="2.00305">
        <ele>2171.3</ele>
        <time>2020-02-14T07:31:25.882Z</time>
      </trkpt>
      <trkpt lat="42.64765" lon="2.00313">
        <ele>2169.4</ele>
        <time>2020-02-14T07:31:29.270Z</time>
      </trkpt>
      <trkpt lat="42.64762" lon="2.00316">
        <ele>2168</ele>
        <time>2020-02-14T07:31:30.879Z</time>
      </trkpt>
      <trkpt lat="42.64755" lon="2.00329">
        <ele>2164.1</ele>
        <time>2020-02-14T07:31:35.625Z</time>
      </trkpt>
      <trkpt lat="42.64752" lon="2.00333">
        <ele>2157.9</ele>
        <time>2020-02-14T07:31:38.221Z</time>
      </trkpt>
      <trkpt lat="42.64752" lon="2.00333">
        <ele>2163.6</ele>
        <time>2020-02-14T07:31:40.253Z</time>
      </trkpt>
      <trkpt lat="42.6475" lon="2.00336">
        <ele>2158.4</ele>
        <time>2020-02-14T07:31:42.247Z</time>
      </trkpt>
      <trkpt lat="42.6475" lon="2.00337">
        <ele>2163.2</ele>
        <time>2020-02-14T07:31:43.953Z</time>
      </trkpt>
      <trkpt lat="42.64745" lon="2.00346">
        <ele>2159.7</ele>
        <time>2020-02-14T07:31:47.389Z</time>
      </trkpt>
      <trkpt lat="42.64741" lon="2.00365">
        <ele>2157.3</ele>
        <time>2020-02-14T07:31:53.002Z</time>
      </trkpt>
      <trkpt lat="42.64737" lon="2.00379">
        <ele>2155.5</ele>
        <time>2020-02-14T07:31:57.379Z</time>
      </trkpt>
      <trkpt lat="42.6473" lon="2.00395">
        <ele>2152.1</ele>
        <time>2020-02-14T07:32:02.745Z</time>
      </trkpt>
      <trkpt lat="42.64725" lon="2.00408">
        <ele>2150.6</ele>
        <time>2020-02-14T07:32:07.020Z</time>
      </trkpt>
      <trkpt lat="42.64727" lon="2.00413">
        <ele>2148.7</ele>
        <time>2020-02-14T07:32:08.739Z</time>
      </trkpt>
      <trkpt lat="42.64728" lon="2.00429">
        <ele>2146.4</ele>
        <time>2020-02-14T07:32:13.413Z</time>
      </trkpt>
      <trkpt lat="42.64724" lon="2.00446">
        <ele>2143.5</ele>
        <time>2020-02-14T07:32:18.344Z</time>
      </trkpt>
      <trkpt lat="42.6472" lon="2.00448">
        <ele>2142.1</ele>
        <time>2020-02-14T07:32:20.262Z</time>
      </trkpt>
      <trkpt lat="42.64718" lon="2.0045">
        <ele>2142</ele>
        <time>2020-02-14T07:32:21.320Z</time>
      </trkpt>
      <trkpt lat="42.64708" lon="2.00465">
        <ele>2138.1</ele>
        <time>2020-02-14T07:32:27.089Z</time>
      </trkpt>
      <trkpt lat="42.64707" lon="2.00466">
        <ele>2138.2</ele>
        <time>2020-02-14T07:32:27.732Z</time>
      </trkpt>
      <trkpt lat="42.64705" lon="2.00476">
        <ele>2134.8</ele>
        <time>2020-02-14T07:32:30.746Z</time>
      </trkpt>
      <trkpt lat="42.64704" lon="2.00483">
        <ele>2132.9</ele>
        <time>2020-02-14T07:32:32.769Z</time>
      </trkpt>
      <trkpt lat="42.64704" lon="2.00483">
        <ele>2131.9</ele>
        <time>2020-02-14T07:32:33.176Z</time>
      </trkpt>
      <trkpt lat="42.64705" lon="2.00487">
        <ele>2131.4</ele>
        <time>2020-02-14T07:32:34.193Z</time>
      </trkpt>
      <trkpt lat="42.64701" lon="2.00503">
        <ele>2128</ele>
        <time>2020-02-14T07:32:38.994Z</time>
      </trkpt>
      <trkpt lat="42.647" lon="2.00517">
        <ele>2125.7</ele>
        <time>2020-02-14T07:32:43.139Z</time>
      </trkpt>
      <trkpt lat="42.64698" lon="2.00524">
        <ele>2126.2</ele>
        <time>2020-02-14T07:32:45.187Z</time>
      </trkpt>
      <trkpt lat="42.64698" lon="2.00524">
        <ele>2122.3</ele>
        <time>2020-02-14T07:32:46.511Z</time>
      </trkpt>
      <trkpt lat="42.64698" lon="2.00524">
        <ele>2127.1</ele>
        <time>2020-02-14T07:32:48.171Z</time>
      </trkpt>
      <trkpt lat="42.64697" lon="2.00524">
        <ele>2120.8</ele>
        <time>2020-02-14T07:32:50.395Z</time>
      </trkpt>
      <trkpt lat="42.64697" lon="2.00524">
        <ele>2129.6</ele>
        <time>2020-02-14T07:32:53.427Z</time>
      </trkpt>
      <trkpt lat="42.64697" lon="2.00524">
        <ele>2125.2</ele>
        <time>2020-02-14T07:32:54.941Z</time>
      </trkpt>
      <trkpt lat="42.64697" lon="2.00524">
        <ele>2124.2</ele>
        <time>2020-02-14T07:32:55.285Z</time>
      </trkpt>
      <trkpt lat="42.64695" lon="2.00534">
        <ele>2120.3</ele>
        <time>2020-02-14T07:32:58.500Z</time>
      </trkpt>
      <trkpt lat="42.64695" lon="2.00543">
        <ele>2119.4</ele>
        <time>2020-02-14T07:33:00.971Z</time>
      </trkpt>
      <trkpt lat="42.64696" lon="2.00556">
        <ele>2117.4</ele>
        <time>2020-02-14T07:33:04.801Z</time>
      </trkpt>
      <trkpt lat="42.64701" lon="2.00571">
        <ele>2115</ele>
        <time>2020-02-14T07:33:09.599Z</time>
      </trkpt>
      <trkpt lat="42.64701" lon="2.00572">
        <ele>2115.1</ele>
        <time>2020-02-14T07:33:09.922Z</time>
      </trkpt>
      <trkpt lat="42.64702" lon="2.00588">
        <ele>2111.7</ele>
        <time>2020-02-14T07:33:14.528Z</time>
      </trkpt>
      <trkpt lat="42.64704" lon="2.00597">
        <ele>2110.3</ele>
        <time>2020-02-14T07:33:17.240Z</time>
      </trkpt>
      <trkpt lat="42.64705" lon="2.00605">
        <ele>2107.8</ele>
        <time>2020-02-14T07:33:19.833Z</time>
      </trkpt>
      <trkpt lat="42.64707" lon="2.00618">
        <ele>2105.5</ele>
        <time>2020-02-14T07:33:23.454Z</time>
      </trkpt>
      <trkpt lat="42.64707" lon="2.00618">
        <ele>2097.4</ele>
        <time>2020-02-14T07:33:26.281Z</time>
      </trkpt>
      <trkpt lat="42.64707" lon="2.00618">
        <ele>2107</ele>
        <time>2020-02-14T07:33:29.614Z</time>
      </trkpt>
      <trkpt lat="42.64707" lon="2.00618">
        <ele>2096.3</ele>
        <time>2020-02-14T07:33:33.311Z</time>
      </trkpt>
      <trkpt lat="42.64707" lon="2.00618">
        <ele>2107.8</ele>
        <time>2020-02-14T07:33:37.304Z</time>
      </trkpt>
      <trkpt lat="42.64707" lon="2.00618">
        <ele>2110.8</ele>
        <time>2020-02-14T07:33:38.332Z</time>
      </trkpt>
      <trkpt lat="42.64707" lon="2.00618">
        <ele>2099.7</ele>
        <time>2020-02-14T07:33:42.162Z</time>
      </trkpt>
      <trkpt lat="42.64707" lon="2.00618">
        <ele>2106</ele>
        <time>2020-02-14T07:33:44.330Z</time>
      </trkpt>
      <trkpt lat="42.64707" lon="2.00618">
        <ele>2112.7</ele>
        <time>2020-02-14T07:33:46.662Z</time>
      </trkpt>
      <trkpt lat="42.64707" lon="2.00618">
        <ele>2105.4</ele>
        <time>2020-02-14T07:33:49.185Z</time>
      </trkpt>
      <trkpt lat="42.64707" lon="2.00618">
        <ele>2110.2</ele>
        <time>2020-02-14T07:33:50.853Z</time>
      </trkpt>
      <trkpt lat="42.64707" lon="2.00618">
        <ele>2098.2</ele>
        <time>2020-02-14T07:33:55.025Z</time>
      </trkpt>
      <trkpt lat="42.64707" lon="2.00618">
        <ele>2106.5</ele>
        <time>2020-02-14T07:33:57.889Z</time>
      </trkpt>
      <trkpt lat="42.64707" lon="2.00618">
        <ele>2101.7</ele>
        <time>2020-02-14T07:33:59.552Z</time>
      </trkpt>
      <trkpt lat="42.64707" lon="2.00618">
        <ele>2106.9</ele>
        <time>2020-02-14T07:34:01.367Z</time>
      </trkpt>
      <trkpt lat="42.64707" lon="2.00618">
        <ele>2102.5</ele>
        <time>2020-02-14T07:34:02.896Z</time>
      </trkpt>
      <trkpt lat="42.64707" lon="2.00618">
        <ele>2106.9</ele>
        <time>2020-02-14T07:34:04.432Z</time>
      </trkpt>
      <trkpt lat="42.64707" lon="2.00618">
        <ele>2110.3</ele>
        <time>2020-02-14T07:34:05.587Z</time>
      </trkpt>
      <trkpt lat="42.64707" lon="2.00618">
        <ele>2105.4</ele>
        <time>2020-02-14T07:34:07.264Z</time>
      </trkpt>
      <trkpt lat="42.64707" lon="2.00618">
        <ele>2110.8</ele>
        <time>2020-02-14T07:34:09.113Z</time>
      </trkpt>
      <trkpt lat="42.64707" lon="2.00618">
        <ele>2105.5</ele>
        <time>2020-02-14T07:34:10.939Z</time>
      </trkpt>
      <trkpt lat="42.64707" lon="2.00618">
        <ele>2108.9</ele>
        <time>2020-02-14T07:34:12.108Z</time>
      </trkpt>
      <trkpt lat="42.64707" lon="2.00618">
        <ele>2108.4</ele>
        <time>2020-02-14T07:34:12.276Z</time>
      </trkpt>
      <trkpt lat="42.64707" lon="2.00617">
        <ele>2104</ele>
        <time>2020-02-14T07:34:13.798Z</time>
      </trkpt>
      <trkpt lat="42.64707" lon="2.00617">
        <ele>2104.9</ele>
        <time>2020-02-14T07:34:14.110Z</time>
      </trkpt>
      <trkpt lat="42.64707" lon="2.00617">
        <ele>2092.9</ele>
        <time>2020-02-14T07:34:18.282Z</time>
      </trkpt>
      <trkpt lat="42.64707" lon="2.00617">
        <ele>2109.3</ele>
        <time>2020-02-14T07:34:23.975Z</time>
      </trkpt>
      <trkpt lat="42.64707" lon="2.00617">
        <ele>2096.4</ele>
        <time>2020-02-14T07:34:28.461Z</time>
      </trkpt>
      <trkpt lat="42.64707" lon="2.00617">
        <ele>2110.3</ele>
        <time>2020-02-14T07:34:33.279Z</time>
      </trkpt>
      <trkpt lat="42.64707" lon="2.00617">
        <ele>2104.9</ele>
        <time>2020-02-14T07:34:35.137Z</time>
      </trkpt>
      <trkpt lat="42.64707" lon="2.00617">
        <ele>2111.8</ele>
        <time>2020-02-14T07:34:37.516Z</time>
      </trkpt>
      <trkpt lat="42.64707" lon="2.00617">
        <ele>2105</ele>
        <time>2020-02-14T07:34:39.876Z</time>
      </trkpt>
      <trkpt lat="42.64707" lon="2.00617">
        <ele>2095.8</ele>
        <time>2020-02-14T07:34:43.046Z</time>
      </trkpt>
      <trkpt lat="42.64707" lon="2.00617">
        <ele>2106.4</ele>
        <time>2020-02-14T07:34:46.727Z</time>
      </trkpt>
      <trkpt lat="42.64706" lon="2.00613">
        <ele>2105.9</ele>
        <time>2020-02-14T07:34:47.989Z</time>
      </trkpt>
      <trkpt lat="42.64706" lon="2.00613">
        <ele>2111.2</ele>
        <time>2020-02-14T07:34:49.819Z</time>
      </trkpt>
      <trkpt lat="42.64706" lon="2.00613">
        <ele>2104.5</ele>
        <time>2020-02-14T07:34:52.139Z</time>
      </trkpt>
      <trkpt lat="42.64706" lon="2.00613">
        <ele>2107.8</ele>
        <time>2020-02-14T07:34:53.291Z</time>
      </trkpt>
      <trkpt lat="42.64706" lon="2.00614">
        <ele>2106.5</ele>
        <time>2020-02-14T07:34:53.864Z</time>
      </trkpt>
      <trkpt lat="42.64707" lon="2.0062">
        <ele>2104.5</ele>
        <time>2020-02-14T07:34:55.692Z</time>
      </trkpt>
      <trkpt lat="42.6471" lon="2.00633">
        <ele>2101.7</ele>
        <time>2020-02-14T07:34:59.715Z</time>
      </trkpt>
      <trkpt lat="42.6471" lon="2.00635">
        <ele>2100.6</ele>
        <time>2020-02-14T07:35:00.433Z</time>
      </trkpt>
      <trkpt lat="42.64709" lon="2.00647">
        <ele>2098.8</ele>
        <time>2020-02-14T07:35:03.775Z</time>
      </trkpt>
      <trkpt lat="42.64709" lon="2.00657">
        <ele>2096.4</ele>
        <time>2020-02-14T07:35:06.702Z</time>
      </trkpt>
      <trkpt lat="42.64709" lon="2.00659">
        <ele>2095.8</ele>
        <time>2020-02-14T07:35:07.464Z</time>
      </trkpt>
      <trkpt lat="42.64711" lon="2.00671">
        <ele>2094.4</ele>
        <time>2020-02-14T07:35:10.901Z</time>
      </trkpt>
      <trkpt lat="42.64712" lon="2.00677">
        <ele>2093.5</ele>
        <time>2020-02-14T07:35:12.691Z</time>
      </trkpt>
      <trkpt lat="42.64713" lon="2.00684">
        <ele>2091</ele>
        <time>2020-02-14T07:35:14.815Z</time>
      </trkpt>
      <trkpt lat="42.64707" lon="2.00705">
        <ele>2089.6</ele>
        <time>2020-02-14T07:35:21.178Z</time>
      </trkpt>
      <trkpt lat="42.64703" lon="2.00714">
        <ele>2087.3</ele>
        <time>2020-02-14T07:35:24.317Z</time>
      </trkpt>
      <trkpt lat="42.64696" lon="2.00724">
        <ele>2083.9</ele>
        <time>2020-02-14T07:35:28.608Z</time>
      </trkpt>
      <trkpt lat="42.64694" lon="2.00727">
        <ele>2082.8</ele>
        <time>2020-02-14T07:35:29.883Z</time>
      </trkpt>
      <trkpt lat="42.64692" lon="2.00729">
        <ele>2082</ele>
        <time>2020-02-14T07:35:30.653Z</time>
      </trkpt>
      <trkpt lat="42.64689" lon="2.00734">
        <ele>2078.6</ele>
        <time>2020-02-14T07:35:32.907Z</time>
      </trkpt>
      <trkpt lat="42.64687" lon="2.00735">
        <ele>2078.1</ele>
        <time>2020-02-14T07:35:33.922Z</time>
      </trkpt>
      <trkpt lat="42.64679" lon="2.00738">
        <ele>2071.9</ele>
        <time>2020-02-14T07:35:37.567Z</time>
      </trkpt>
      <trkpt lat="42.64675" lon="2.00742">
        <ele>2071.8</ele>
        <time>2020-02-14T07:35:39.740Z</time>
      </trkpt>
      <trkpt lat="42.64672" lon="2.00742">
        <ele>2070.9</ele>
        <time>2020-02-14T07:35:40.876Z</time>
      </trkpt>
      <trkpt lat="42.64668" lon="2.00741">
        <ele>2069.9</ele>
        <time>2020-02-14T07:35:42.260Z</time>
      </trkpt>
      <trkpt lat="42.64661" lon="2.00745">
        <ele>2067.9</ele>
        <time>2020-02-14T07:35:45.436Z</time>
      </trkpt>
      <trkpt lat="42.64659" lon="2.00747">
        <ele>2065.2</ele>
        <time>2020-02-14T07:35:46.678Z</time>
      </trkpt>
      <trkpt lat="42.64658" lon="2.00753">
        <ele>2066.1</ele>
        <time>2020-02-14T07:35:48.425Z</time>
      </trkpt>
      <trkpt lat="42.64656" lon="2.00759">
        <ele>2063.6</ele>
        <time>2020-02-14T07:35:50.630Z</time>
      </trkpt>
      <trkpt lat="42.64653" lon="2.00764">
        <ele>2062.2</ele>
        <time>2020-02-14T07:35:52.507Z</time>
      </trkpt>
      <trkpt lat="42.64641" lon="2.00774">
        <ele>2058.9</ele>
        <time>2020-02-14T07:35:58.233Z</time>
      </trkpt>
      <trkpt lat="42.64639" lon="2.00778">
        <ele>2056</ele>
        <time>2020-02-14T07:35:59.978Z</time>
      </trkpt>
      <trkpt lat="42.64636" lon="2.00775">
        <ele>2054.6</ele>
        <time>2020-02-14T07:36:01.339Z</time>
      </trkpt>
      <trkpt lat="42.64636" lon="2.00775">
        <ele>2054.6</ele>
        <time>2020-02-14T07:36:01.559Z</time>
      </trkpt>
      <trkpt lat="42.64629" lon="2.0078">
        <ele>2051.1</ele>
        <time>2020-02-14T07:36:04.741Z</time>
      </trkpt>
      <trkpt lat="42.64623" lon="2.00788">
        <ele>2048.2</ele>
        <time>2020-02-14T07:36:08.112Z</time>
      </trkpt>
      <trkpt lat="42.64619" lon="2.00793">
        <ele>2048.2</ele>
        <time>2020-02-14T07:36:10.214Z</time>
      </trkpt>
      <trkpt lat="42.64617" lon="2.00794">
        <ele>2047.9</ele>
        <time>2020-02-14T07:36:10.977Z</time>
      </trkpt>
      <trkpt lat="42.64615" lon="2.008">
        <ele>2047.4</ele>
        <time>2020-02-14T07:36:12.987Z</time>
      </trkpt>
      <trkpt lat="42.64611" lon="2.00803">
        <ele>2045.8</ele>
        <time>2020-02-14T07:36:14.647Z</time>
      </trkpt>
      <trkpt lat="42.64606" lon="2.0081">
        <ele>2051.7</ele>
        <time>2020-02-14T07:36:18.053Z</time>
      </trkpt>
      <trkpt lat="42.64605" lon="2.00811">
        <ele>2045.8</ele>
        <time>2020-02-14T07:36:20.139Z</time>
      </trkpt>
      <trkpt lat="42.64603" lon="2.00814">
        <ele>2044</ele>
        <time>2020-02-14T07:36:21.553Z</time>
      </trkpt>
      <trkpt lat="42.64598" lon="2.00819">
        <ele>2045</ele>
        <time>2020-02-14T07:36:23.883Z</time>
      </trkpt>
      <trkpt lat="42.64593" lon="2.00823">
        <ele>2035.8</ele>
        <time>2020-02-14T07:36:27.783Z</time>
      </trkpt>
      <trkpt lat="42.64592" lon="2.00824">
        <ele>2047.3</ele>
        <time>2020-02-14T07:36:31.811Z</time>
      </trkpt>
      <trkpt lat="42.64591" lon="2.00824">
        <ele>2054.5</ele>
        <time>2020-02-14T07:36:34.347Z</time>
      </trkpt>
      <trkpt lat="42.6459" lon="2.00824">
        <ele>2046.8</ele>
        <time>2020-02-14T07:36:37.049Z</time>
      </trkpt>
      <trkpt lat="42.64588" lon="2.00823">
        <ele>2045.9</ele>
        <time>2020-02-14T07:36:38.226Z</time>
      </trkpt>
      <trkpt lat="42.64584" lon="2.00822">
        <ele>2044.5</ele>
        <time>2020-02-14T07:36:39.572Z</time>
      </trkpt>
      <trkpt lat="42.64582" lon="2.00824">
        <ele>2043</ele>
        <time>2020-02-14T07:36:40.657Z</time>
      </trkpt>
      <trkpt lat="42.64576" lon="2.00829">
        <ele>2040.6</ele>
        <time>2020-02-14T07:36:43.770Z</time>
      </trkpt>
      <trkpt lat="42.64575" lon="2.00839">
        <ele>2038.1</ele>
        <time>2020-02-14T07:36:46.548Z</time>
      </trkpt>
      <trkpt lat="42.64575" lon="2.0084">
        <ele>2037.2</ele>
        <time>2020-02-14T07:36:47.112Z</time>
      </trkpt>
      <trkpt lat="42.64573" lon="2.00852">
        <ele>2034.9</ele>
        <time>2020-02-14T07:36:50.652Z</time>
      </trkpt>
      <trkpt lat="42.64568" lon="2.0086">
        <ele>2031.9</ele>
        <time>2020-02-14T07:36:53.750Z</time>
      </trkpt>
      <trkpt lat="42.64565" lon="2.00865">
        <ele>2028.6</ele>
        <time>2020-02-14T07:36:55.966Z</time>
      </trkpt>
      <trkpt lat="42.64563" lon="2.00864">
        <ele>2028.5</ele>
        <time>2020-02-14T07:36:56.598Z</time>
      </trkpt>
      <trkpt lat="42.64558" lon="2.00869">
        <ele>2029</ele>
        <time>2020-02-14T07:36:59.348Z</time>
      </trkpt>
      <trkpt lat="42.64557" lon="2.0088">
        <ele>2026.7</ele>
        <time>2020-02-14T07:37:02.481Z</time>
      </trkpt>
      <trkpt lat="42.64556" lon="2.00895">
        <ele>2027.6</ele>
        <time>2020-02-14T07:37:06.675Z</time>
      </trkpt>
      <trkpt lat="42.64554" lon="2.00904">
        <ele>2027.2</ele>
        <time>2020-02-14T07:37:09.498Z</time>
      </trkpt>
      <trkpt lat="42.64555" lon="2.0091">
        <ele>2027.7</ele>
        <time>2020-02-14T07:37:11.175Z</time>
      </trkpt>
      <trkpt lat="42.64551" lon="2.00918">
        <ele>2027.2</ele>
        <time>2020-02-14T07:37:13.955Z</time>
      </trkpt>
      <trkpt lat="42.64551" lon="2.00921">
        <ele>2026.7</ele>
        <time>2020-02-14T07:37:14.999Z</time>
      </trkpt>
      <trkpt lat="42.64552" lon="2.00931">
        <ele>2021.4</ele>
        <time>2020-02-14T07:37:18.289Z</time>
      </trkpt>
      <trkpt lat="42.64552" lon="2.00932">
        <ele>2026.1</ele>
        <time>2020-02-14T07:37:19.979Z</time>
      </trkpt>
      <trkpt lat="42.64554" lon="2.00938">
        <ele>2031.5</ele>
        <time>2020-02-14T07:37:22.705Z</time>
      </trkpt>
      <trkpt lat="42.64554" lon="2.00941">
        <ele>2027.6</ele>
        <time>2020-02-14T07:37:24.292Z</time>
      </trkpt>
      <trkpt lat="42.64554" lon="2.00943">
        <ele>2022.8</ele>
        <time>2020-02-14T07:37:25.998Z</time>
      </trkpt>
      <trkpt lat="42.64555" lon="2.00963">
        <ele>2022.8</ele>
        <time>2020-02-14T07:37:31.873Z</time>
      </trkpt>
      <trkpt lat="42.64556" lon="2.00973">
        <ele>2022.3</ele>
        <time>2020-02-14T07:37:34.803Z</time>
      </trkpt>
      <trkpt lat="42.6455" lon="2.00986">
        <ele>2024.3</ele>
        <time>2020-02-14T07:37:39.072Z</time>
      </trkpt>
      <trkpt lat="42.6455" lon="2.00986">
        <ele>2030</ele>
        <time>2020-02-14T07:37:41.069Z</time>
      </trkpt>
      <trkpt lat="42.6455" lon="2.00986">
        <ele>2025.6</ele>
        <time>2020-02-14T07:37:42.596Z</time>
      </trkpt>
      <trkpt lat="42.6455" lon="2.00986">
        <ele>2022.4</ele>
        <time>2020-02-14T07:37:43.716Z</time>
      </trkpt>
      <trkpt lat="42.64549" lon="2.00984">
        <ele>2021.3</ele>
        <time>2020-02-14T07:37:44.576Z</time>
      </trkpt>
      <trkpt lat="42.64545" lon="2.00981">
        <ele>2022.9</ele>
        <time>2020-02-14T07:37:46.461Z</time>
      </trkpt>
      <trkpt lat="42.64536" lon="2.00974">
        <ele>2025.2</ele>
        <time>2020-02-14T07:37:50.476Z</time>
      </trkpt>
      <trkpt lat="42.64524" lon="2.00968">
        <ele>2027.6</ele>
        <time>2020-02-14T07:37:55.526Z</time>
      </trkpt>
      <trkpt lat="42.6452" lon="2.00963">
        <ele>2027.6</ele>
        <time>2020-02-14T07:37:57.647Z</time>
      </trkpt>
      <trkpt lat="42.64509" lon="2.00956">
        <ele>2030.1</ele>
        <time>2020-02-14T07:38:02.343Z</time>
      </trkpt>
      <trkpt lat="42.64506" lon="2.00952">
        <ele>2029.6</ele>
        <time>2020-02-14T07:38:04.049Z</time>
      </trkpt>
      <trkpt lat="42.64489" lon="2.00946">
        <ele>2030.9</ele>
        <time>2020-02-14T07:38:10.830Z</time>
      </trkpt>
      <trkpt lat="42.64478" lon="2.00937">
        <ele>2032.5</ele>
        <time>2020-02-14T07:38:15.577Z</time>
      </trkpt>
      <trkpt lat="42.64472" lon="2.00929">
        <ele>2034.4</ele>
        <time>2020-02-14T07:38:19.013Z</time>
      </trkpt>
      <trkpt lat="42.64463" lon="2.0092">
        <ele>2037.3</ele>
        <time>2020-02-14T07:38:23.541Z</time>
      </trkpt>
      <trkpt lat="42.6446" lon="2.00916">
        <ele>2039.1</ele>
        <time>2020-02-14T07:38:25.241Z</time>
      </trkpt>
      <trkpt lat="42.64452" lon="2.00915">
        <ele>2042.1</ele>
        <time>2020-02-14T07:38:28.496Z</time>
      </trkpt>
      <trkpt lat="42.64449" lon="2.00915">
        <ele>2042.9</ele>
        <time>2020-02-14T07:38:29.654Z</time>
      </trkpt>
      <trkpt lat="42.64439" lon="2.0092">
        <ele>2044.4</ele>
        <time>2020-02-14T07:38:33.666Z</time>
      </trkpt>
      <trkpt lat="42.6443" lon="2.00923">
        <ele>2045.8</ele>
        <time>2020-02-14T07:38:37.447Z</time>
      </trkpt>
      <trkpt lat="42.64421" lon="2.00921">
        <ele>2048.3</ele>
        <time>2020-02-14T07:38:41.107Z</time>
      </trkpt>
      <trkpt lat="42.64411" lon="2.00921">
        <ele>2050.7</ele>
        <time>2020-02-14T07:38:44.831Z</time>
      </trkpt>
      <trkpt lat="42.64406" lon="2.00921">
        <ele>2051.1</ele>
        <time>2020-02-14T07:38:46.659Z</time>
      </trkpt>
      <trkpt lat="42.64406" lon="2.0092">
        <ele>2052.1</ele>
        <time>2020-02-14T07:38:47.182Z</time>
      </trkpt>
      <trkpt lat="42.64397" lon="2.00909">
        <ele>2054.6</ele>
        <time>2020-02-14T07:38:52.060Z</time>
      </trkpt>
      <trkpt lat="42.64396" lon="2.00904">
        <ele>2055.9</ele>
        <time>2020-02-14T07:38:53.440Z</time>
      </trkpt>
      <trkpt lat="42.64396" lon="2.00904">
        <ele>2048.2</ele>
        <time>2020-02-14T07:38:56.117Z</time>
      </trkpt>
      <trkpt lat="42.64396" lon="2.00904">
        <ele>2057.5</ele>
        <time>2020-02-14T07:38:59.326Z</time>
      </trkpt>
      <trkpt lat="42.64397" lon="2.00904">
        <ele>2054</ele>
        <time>2020-02-14T07:39:00.539Z</time>
      </trkpt>
      <trkpt lat="42.64397" lon="2.00904">
        <ele>2050.6</ele>
        <time>2020-02-14T07:39:01.729Z</time>
      </trkpt>
      <trkpt lat="42.64397" lon="2.00904">
        <ele>2057.8</ele>
        <time>2020-02-14T07:39:04.228Z</time>
      </trkpt>
      <trkpt lat="42.64398" lon="2.00904">
        <ele>2053.5</ele>
        <time>2020-02-14T07:39:05.757Z</time>
      </trkpt>
      <trkpt lat="42.64398" lon="2.00904">
        <ele>2055.1</ele>
        <time>2020-02-14T07:39:06.286Z</time>
      </trkpt>
      <trkpt lat="42.64398" lon="2.00904">
        <ele>2058.3</ele>
        <time>2020-02-14T07:39:07.415Z</time>
      </trkpt>
      <trkpt lat="42.64398" lon="2.00904">
        <ele>2057.4</ele>
        <time>2020-02-14T07:39:07.729Z</time>
      </trkpt>
      <trkpt lat="42.64398" lon="2.00904">
        <ele>2053.1</ele>
        <time>2020-02-14T07:39:09.232Z</time>
      </trkpt>
      <trkpt lat="42.64398" lon="2.00904">
        <ele>2055.5</ele>
        <time>2020-02-14T07:39:10.062Z</time>
      </trkpt>
      <trkpt lat="42.64398" lon="2.00904">
        <ele>2050.6</ele>
        <time>2020-02-14T07:39:11.747Z</time>
      </trkpt>
      <trkpt lat="42.64398" lon="2.00904">
        <ele>2052.6</ele>
        <time>2020-02-14T07:39:12.441Z</time>
      </trkpt>
      <trkpt lat="42.64398" lon="2.00904">
        <ele>2055.9</ele>
        <time>2020-02-14T07:39:13.594Z</time>
      </trkpt>
      <trkpt lat="42.64398" lon="2.00904">
        <ele>2052.1</ele>
        <time>2020-02-14T07:39:14.926Z</time>
      </trkpt>
      <trkpt lat="42.64398" lon="2.00904">
        <ele>2056.4</ele>
        <time>2020-02-14T07:39:16.418Z</time>
      </trkpt>
      <trkpt lat="42.64398" lon="2.00904">
        <ele>2051.7</ele>
        <time>2020-02-14T07:39:18.059Z</time>
      </trkpt>
      <trkpt lat="42.64398" lon="2.00904">
        <ele>2058.8</ele>
        <time>2020-02-14T07:39:20.546Z</time>
      </trkpt>
      <trkpt lat="42.64398" lon="2.00904">
        <ele>2057.8</ele>
        <time>2020-02-14T07:39:20.896Z</time>
      </trkpt>
      <trkpt lat="42.64398" lon="2.00904">
        <ele>2051.2</ele>
        <time>2020-02-14T07:39:23.204Z</time>
      </trkpt>
      <trkpt lat="42.64398" lon="2.00904">
        <ele>2056.5</ele>
        <time>2020-02-14T07:39:25.046Z</time>
      </trkpt>
      <trkpt lat="42.64398" lon="2.00904">
        <ele>2053.5</ele>
        <time>2020-02-14T07:39:26.071Z</time>
      </trkpt>
      <trkpt lat="42.64398" lon="2.00904">
        <ele>2060.2</ele>
        <time>2020-02-14T07:39:28.393Z</time>
      </trkpt>
      <trkpt lat="42.64398" lon="2.00904">
        <ele>2054.6</ele>
        <time>2020-02-14T07:39:30.362Z</time>
      </trkpt>
      <trkpt lat="42.64398" lon="2.00904">
        <ele>2058.3</ele>
        <time>2020-02-14T07:39:31.664Z</time>
      </trkpt>
      <trkpt lat="42.64398" lon="2.00904">
        <ele>2052.6</ele>
        <time>2020-02-14T07:39:33.639Z</time>
      </trkpt>
      <trkpt lat="42.64398" lon="2.00903">
        <ele>2055.9</ele>
        <time>2020-02-14T07:39:34.789Z</time>
      </trkpt>
      <trkpt lat="42.64398" lon="2.00903">
        <ele>2062.3</ele>
        <time>2020-02-14T07:39:36.997Z</time>
      </trkpt>
      <trkpt lat="42.64398" lon="2.00903">
        <ele>2055.1</ele>
        <time>2020-02-14T07:39:39.503Z</time>
      </trkpt>
      <trkpt lat="42.64396" lon="2.00903">
        <ele>2055.1</ele>
        <time>2020-02-14T07:39:39.964Z</time>
      </trkpt>
      <trkpt lat="42.64398" lon="2.00904">
        <ele>2054</ele>
        <time>2020-02-14T07:39:40.626Z</time>
      </trkpt>
      <trkpt lat="42.64399" lon="2.00902">
        <ele>2058.9</ele>
        <time>2020-02-14T07:39:42.392Z</time>
      </trkpt>
      <trkpt lat="42.64399" lon="2.00902">
        <ele>2056.4</ele>
        <time>2020-02-14T07:39:43.244Z</time>
      </trkpt>
      <trkpt lat="42.64399" lon="2.00902">
        <ele>2056</ele>
        <time>2020-02-14T07:39:43.401Z</time>
      </trkpt>
      <trkpt lat="42.64398" lon="2.00904">
        <ele>2056</ele>
        <time>2020-02-14T07:39:43.911Z</time>
      </trkpt>
      <trkpt lat="42.64399" lon="2.00904">
        <ele>2056.4</ele>
        <time>2020-02-14T07:39:44.193Z</time>
      </trkpt>
      <trkpt lat="42.64393" lon="2.00906">
        <ele>2056.9</ele>
        <time>2020-02-14T07:39:46.670Z</time>
      </trkpt>
      <trkpt lat="42.64386" lon="2.00907">
        <ele>2057.4</ele>
        <time>2020-02-14T07:39:49.046Z</time>
      </trkpt>
      <trkpt lat="42.64383" lon="2.00897">
        <ele>2060.3</ele>
        <time>2020-02-14T07:39:52.529Z</time>
      </trkpt>
      <trkpt lat="42.64379" lon="2.00889">
        <ele>2062.8</ele>
        <time>2020-02-14T07:39:55.135Z</time>
      </trkpt>
      <trkpt lat="42.64375" lon="2.00885">
        <ele>2065.2</ele>
        <time>2020-02-14T07:39:57.275Z</time>
      </trkpt>
      <trkpt lat="42.64371" lon="2.0087">
        <ele>2067.5</ele>
        <time>2020-02-14T07:40:02.039Z</time>
      </trkpt>
      <trkpt lat="42.64369" lon="2.00865">
        <ele>2069</ele>
        <time>2020-02-14T07:40:03.747Z</time>
      </trkpt>
      <trkpt lat="42.64368" lon="2.00864">
        <ele>2069.5</ele>
        <time>2020-02-14T07:40:04.076Z</time>
      </trkpt>
      <trkpt lat="42.64364" lon="2.00853">
        <ele>2071.9</ele>
        <time>2020-02-14T07:40:07.813Z</time>
      </trkpt>
      <trkpt lat="42.6436" lon="2.00843">
        <ele>2072.7</ele>
        <time>2020-02-14T07:40:11.044Z</time>
      </trkpt>
      <trkpt lat="42.64359" lon="2.00842">
        <ele>2072.8</ele>
        <time>2020-02-14T07:40:11.231Z</time>
      </trkpt>
      <trkpt lat="42.64349" lon="2.00839">
        <ele>2076.6</ele>
        <time>2020-02-14T07:40:15.419Z</time>
      </trkpt>
      <trkpt lat="42.64343" lon="2.00827">
        <ele>2079</ele>
        <time>2020-02-14T07:40:19.778Z</time>
      </trkpt>
      <trkpt lat="42.64335" lon="2.00827">
        <ele>2081</ele>
        <time>2020-02-14T07:40:22.865Z</time>
      </trkpt>
      <trkpt lat="42.6433" lon="2.00833">
        <ele>2082.9</ele>
        <time>2020-02-14T07:40:25.442Z</time>
      </trkpt>
      <trkpt lat="42.64328" lon="2.00836">
        <ele>2083.4</ele>
        <time>2020-02-14T07:40:26.608Z</time>
      </trkpt>
      <trkpt lat="42.64324" lon="2.00845">
        <ele>2084.4</ele>
        <time>2020-02-14T07:40:29.719Z</time>
      </trkpt>
      <trkpt lat="42.64318" lon="2.00853">
        <ele>2086.3</ele>
        <time>2020-02-14T07:40:33.137Z</time>
      </trkpt>
      <trkpt lat="42.64312" lon="2.00849">
        <ele>2088.7</ele>
        <time>2020-02-14T07:40:35.841Z</time>
      </trkpt>
      <trkpt lat="42.64304" lon="2.00844">
        <ele>2090.6</ele>
        <time>2020-02-14T07:40:39.536Z</time>
      </trkpt>
      <trkpt lat="42.64296" lon="2.00839">
        <ele>2091.5</ele>
        <time>2020-02-14T07:40:42.587Z</time>
      </trkpt>
      <trkpt lat="42.64293" lon="2.00835">
        <ele>2092</ele>
        <time>2020-02-14T07:40:44.483Z</time>
      </trkpt>
      <trkpt lat="42.64284" lon="2.00831">
        <ele>2094.4</ele>
        <time>2020-02-14T07:40:48.072Z</time>
      </trkpt>
      <trkpt lat="42.64275" lon="2.00821">
        <ele>2097.3</ele>
        <time>2020-02-14T07:40:52.778Z</time>
      </trkpt>
      <trkpt lat="42.64268" lon="2.00818">
        <ele>2099.3</ele>
        <time>2020-02-14T07:40:55.740Z</time>
      </trkpt>
      <trkpt lat="42.64261" lon="2.00815">
        <ele>2099.7</ele>
        <time>2020-02-14T07:40:58.287Z</time>
      </trkpt>
      <trkpt lat="42.64256" lon="2.00812">
        <ele>2100.2</ele>
        <time>2020-02-14T07:41:00.650Z</time>
      </trkpt>
      <trkpt lat="42.64249" lon="2.00802">
        <ele>2101.6</ele>
        <time>2020-02-14T07:41:04.493Z</time>
      </trkpt>
      <trkpt lat="42.64244" lon="2.00792">
        <ele>2101.7</ele>
        <time>2020-02-14T07:41:07.995Z</time>
      </trkpt>
      <trkpt lat="42.64231" lon="2.00777">
        <ele>2101.1</ele>
        <time>2020-02-14T07:41:14.510Z</time>
      </trkpt>
      <trkpt lat="42.64224" lon="2.00758">
        <ele>2101.2</ele>
        <time>2020-02-14T07:41:20.603Z</time>
      </trkpt>
      <trkpt lat="42.64223" lon="2.00757">
        <ele>2101.1</ele>
        <time>2020-02-14T07:41:21.053Z</time>
      </trkpt>
      <trkpt lat="42.64221" lon="2.00748">
        <ele>2101.6</ele>
        <time>2020-02-14T07:41:23.630Z</time>
      </trkpt>
      <trkpt lat="42.64211" lon="2.00732">
        <ele>2099.2</ele>
        <time>2020-02-14T07:41:29.782Z</time>
      </trkpt>
      <trkpt lat="42.64198" lon="2.00718">
        <ele>2097.3</ele>
        <time>2020-02-14T07:41:36.270Z</time>
      </trkpt>
      <trkpt lat="42.64181" lon="2.0071">
        <ele>2098.2</ele>
        <time>2020-02-14T07:41:43.314Z</time>
      </trkpt>
      <trkpt lat="42.64169" lon="2.00705">
        <ele>2098.3</ele>
        <time>2020-02-14T07:41:47.931Z</time>
      </trkpt>
      <trkpt lat="42.64153" lon="2.00697">
        <ele>2098.3</ele>
        <time>2020-02-14T07:41:54.525Z</time>
      </trkpt>
      <trkpt lat="42.64151" lon="2.00685">
        <ele>2098.8</ele>
        <time>2020-02-14T07:41:57.905Z</time>
      </trkpt>
      <trkpt lat="42.6415" lon="2.00682">
        <ele>2098.8</ele>
        <time>2020-02-14T07:41:58.838Z</time>
      </trkpt>
      <trkpt lat="42.64154" lon="2.00667">
        <ele>2098.8</ele>
        <time>2020-02-14T07:42:03.121Z</time>
      </trkpt>
      <trkpt lat="42.6415" lon="2.00657">
        <ele>2099.2</ele>
        <time>2020-02-14T07:42:06.319Z</time>
      </trkpt>
      <trkpt lat="42.64147" lon="2.00659">
        <ele>2099.7</ele>
        <time>2020-02-14T07:42:07.575Z</time>
      </trkpt>
      <trkpt lat="42.64147" lon="2.0068">
        <ele>2098.8</ele>
        <time>2020-02-14T07:42:13.572Z</time>
      </trkpt>
      <trkpt lat="42.6415" lon="2.00689">
        <ele>2098.7</ele>
        <time>2020-02-14T07:42:16.482Z</time>
      </trkpt>
      <trkpt lat="42.64151" lon="2.00702">
        <ele>2098.2</ele>
        <time>2020-02-14T07:42:20.095Z</time>
      </trkpt>
      <trkpt lat="42.64145" lon="2.00707">
        <ele>2100.1</ele>
        <time>2020-02-14T07:42:22.827Z</time>
      </trkpt>
      <trkpt lat="42.64142" lon="2.00709">
        <ele>2100.7</ele>
        <time>2020-02-14T07:42:24.050Z</time>
      </trkpt>
      <trkpt lat="42.64131" lon="2.00709">
        <ele>2103.6</ele>
        <time>2020-02-14T07:42:28.493Z</time>
      </trkpt>
      <trkpt lat="42.64124" lon="2.00711">
        <ele>2105.4</ele>
        <time>2020-02-14T07:42:31.219Z</time>
      </trkpt>
      <trkpt lat="42.64116" lon="2.00711">
        <ele>2107.8</ele>
        <time>2020-02-14T07:42:34.393Z</time>
      </trkpt>
      <trkpt lat="42.64112" lon="2.00711">
        <ele>2108.4</ele>
        <time>2020-02-14T07:42:35.955Z</time>
      </trkpt>
      <trkpt lat="42.64102" lon="2.00711">
        <ele>2109.9</ele>
        <time>2020-02-14T07:42:40.051Z</time>
      </trkpt>
      <trkpt lat="42.64092" lon="2.00711">
        <ele>2111.3</ele>
        <time>2020-02-14T07:42:43.751Z</time>
      </trkpt>
      <trkpt lat="42.64086" lon="2.00709">
        <ele>2112.6</ele>
        <time>2020-02-14T07:42:46.216Z</time>
      </trkpt>
      <trkpt lat="42.64073" lon="2.00704">
        <ele>2112.2</ele>
        <time>2020-02-14T07:42:51.652Z</time>
      </trkpt>
      <trkpt lat="42.64065" lon="2.007">
        <ele>2112.6</ele>
        <time>2020-02-14T07:42:54.625Z</time>
      </trkpt>
      <trkpt lat="42.64058" lon="2.00697">
        <ele>2113.7</ele>
        <time>2020-02-14T07:42:57.571Z</time>
      </trkpt>
      <trkpt lat="42.64054" lon="2.00697">
        <ele>2113.7</ele>
        <time>2020-02-14T07:42:59.266Z</time>
      </trkpt>
      <trkpt lat="42.64045" lon="2.00695">
        <ele>2116</ele>
        <time>2020-02-14T07:43:02.885Z</time>
      </trkpt>
      <trkpt lat="42.64036" lon="2.00691">
        <ele>2118.5</ele>
        <time>2020-02-14T07:43:06.495Z</time>
      </trkpt>
      <trkpt lat="42.64033" lon="2.00688">
        <ele>2120.3</ele>
        <time>2020-02-14T07:43:08.217Z</time>
      </trkpt>
      <trkpt lat="42.64023" lon="2.00686">
        <ele>2121.3</ele>
        <time>2020-02-14T07:43:11.955Z</time>
      </trkpt>
      <trkpt lat="42.64019" lon="2.00684">
        <ele>2122.4</ele>
        <time>2020-02-14T07:43:13.791Z</time>
      </trkpt>
      <trkpt lat="42.64009" lon="2.0068">
        <ele>2123.3</ele>
        <time>2020-02-14T07:43:17.868Z</time>
      </trkpt>
      <trkpt lat="42.63999" lon="2.00672">
        <ele>2123.8</ele>
        <time>2020-02-14T07:43:21.969Z</time>
      </trkpt>
      <trkpt lat="42.63991" lon="2.0067">
        <ele>2123.7</ele>
        <time>2020-02-14T07:43:25.262Z</time>
      </trkpt>
      <trkpt lat="42.6398" lon="2.00664">
        <ele>2124.2</ele>
        <time>2020-02-14T07:43:30.001Z</time>
      </trkpt>
      <trkpt lat="42.63968" lon="2.00654">
        <ele>2124.7</ele>
        <time>2020-02-14T07:43:35.258Z</time>
      </trkpt>
      <trkpt lat="42.63964" lon="2.00643">
        <ele>2127.6</ele>
        <time>2020-02-14T07:43:38.846Z</time>
      </trkpt>
      <trkpt lat="42.63963" lon="2.00635">
        <ele>2128.5</ele>
        <time>2020-02-14T07:43:41.217Z</time>
      </trkpt>
      <trkpt lat="42.63962" lon="2.00621">
        <ele>2131</ele>
        <time>2020-02-14T07:43:45.373Z</time>
      </trkpt>
      <trkpt lat="42.63957" lon="2.00616">
        <ele>2132.8</ele>
        <time>2020-02-14T07:43:47.803Z</time>
      </trkpt>
      <trkpt lat="42.63957" lon="2.00611">
        <ele>2135.2</ele>
        <time>2020-02-14T07:43:49.387Z</time>
      </trkpt>
      <trkpt lat="42.63953" lon="2.00606">
        <ele>2136.3</ele>
        <time>2020-02-14T07:43:51.622Z</time>
      </trkpt>
      <trkpt lat="42.63951" lon="2.00603">
        <ele>2137.7</ele>
        <time>2020-02-14T07:43:52.905Z</time>
      </trkpt>
      <trkpt lat="42.63948" lon="2.00595">
        <ele>2141</ele>
        <time>2020-02-14T07:43:55.672Z</time>
      </trkpt>
      <trkpt lat="42.63939" lon="2.00583">
        <ele>2144.4</ele>
        <time>2020-02-14T07:44:00.560Z</time>
      </trkpt>
      <trkpt lat="42.63927" lon="2.00577">
        <ele>2145.3</ele>
        <time>2020-02-14T07:44:05.307Z</time>
      </trkpt>
      <trkpt lat="42.63915" lon="2.00573">
        <ele>2145.4</ele>
        <time>2020-02-14T07:44:10.395Z</time>
      </trkpt>
      <trkpt lat="42.63912" lon="2.00576">
        <ele>2145.4</ele>
        <time>2020-02-14T07:44:11.421Z</time>
      </trkpt>
      <trkpt lat="42.63907" lon="2.00579">
        <ele>2145.9</ele>
        <time>2020-02-14T07:44:13.688Z</time>
      </trkpt>
      <trkpt lat="42.63904" lon="2.00578">
        <ele>2146.9</ele>
        <time>2020-02-14T07:44:14.882Z</time>
      </trkpt>
      <trkpt lat="42.63898" lon="2.00583">
        <ele>2148.7</ele>
        <time>2020-02-14T07:44:17.694Z</time>
      </trkpt>
      <trkpt lat="42.63895" lon="2.00586">
        <ele>2148.8</ele>
        <time>2020-02-14T07:44:19.097Z</time>
      </trkpt>
      <trkpt lat="42.63891" lon="2.00586">
        <ele>2148.8</ele>
        <time>2020-02-14T07:44:20.648Z</time>
      </trkpt>
      <trkpt lat="42.63888" lon="2.00585">
        <ele>2148.8</ele>
        <time>2020-02-14T07:44:21.972Z</time>
      </trkpt>
      <trkpt lat="42.63885" lon="2.0059">
        <ele>2147.7</ele>
        <time>2020-02-14T07:44:23.882Z</time>
      </trkpt>
      <trkpt lat="42.63877" lon="2.00601">
        <ele>2147.7</ele>
        <time>2020-02-14T07:44:28.192Z</time>
      </trkpt>
      <trkpt lat="42.63875" lon="2.00608">
        <ele>2147.2</ele>
        <time>2020-02-14T07:44:30.397Z</time>
      </trkpt>
      <trkpt lat="42.63874" lon="2.00611">
        <ele>2147.8</ele>
        <time>2020-02-14T07:44:31.194Z</time>
      </trkpt>
      <trkpt lat="42.63867" lon="2.00618">
        <ele>2148.8</ele>
        <time>2020-02-14T07:44:34.772Z</time>
      </trkpt>
      <trkpt lat="42.63865" lon="2.00618">
        <ele>2149.2</ele>
        <time>2020-02-14T07:44:35.372Z</time>
      </trkpt>
      <trkpt lat="42.63862" lon="2.0062">
        <ele>2148.7</ele>
        <time>2020-02-14T07:44:36.896Z</time>
      </trkpt>
      <trkpt lat="42.63861" lon="2.00632">
        <ele>2148.2</ele>
        <time>2020-02-14T07:44:40.330Z</time>
      </trkpt>
      <trkpt lat="42.63854" lon="2.00639">
        <ele>2148.2</ele>
        <time>2020-02-14T07:44:43.306Z</time>
      </trkpt>
      <trkpt lat="42.63849" lon="2.00643">
        <ele>2150.2</ele>
        <time>2020-02-14T07:44:45.779Z</time>
      </trkpt>
      <trkpt lat="42.63845" lon="2.00646">
        <ele>2151.1</ele>
        <time>2020-02-14T07:44:47.648Z</time>
      </trkpt>
      <trkpt lat="42.63845" lon="2.0066">
        <ele>2149.3</ele>
        <time>2020-02-14T07:44:51.771Z</time>
      </trkpt>
      <trkpt lat="42.63842" lon="2.00667">
        <ele>2151.6</ele>
        <time>2020-02-14T07:44:54.438Z</time>
      </trkpt>
      <trkpt lat="42.63841" lon="2.00669">
        <ele>2151.6</ele>
        <time>2020-02-14T07:44:55.173Z</time>
      </trkpt>
      <trkpt lat="42.63838" lon="2.00674">
        <ele>2152.5</ele>
        <time>2020-02-14T07:44:56.898Z</time>
      </trkpt>
      <trkpt lat="42.63837" lon="2.00677">
        <ele>2151.6</ele>
        <time>2020-02-14T07:44:57.869Z</time>
      </trkpt>
      <trkpt lat="42.63826" lon="2.00679">
        <ele>2152.5</ele>
        <time>2020-02-14T07:45:02.193Z</time>
      </trkpt>
      <trkpt lat="42.6382" lon="2.00686">
        <ele>2153</ele>
        <time>2020-02-14T07:45:05.228Z</time>
      </trkpt>
      <trkpt lat="42.6382" lon="2.00688">
        <ele>2152.2</ele>
        <time>2020-02-14T07:45:05.977Z</time>
      </trkpt>
      <trkpt lat="42.63815" lon="2.00704">
        <ele>2152.6</ele>
        <time>2020-02-14T07:45:10.805Z</time>
      </trkpt>
      <trkpt lat="42.63807" lon="2.00707">
        <ele>2153.6</ele>
        <time>2020-02-14T07:45:14.182Z</time>
      </trkpt>
      <trkpt lat="42.63801" lon="2.0071">
        <ele>2154</ele>
        <time>2020-02-14T07:45:16.764Z</time>
      </trkpt>
      <trkpt lat="42.63798" lon="2.00715">
        <ele>2154.1</ele>
        <time>2020-02-14T07:45:18.617Z</time>
      </trkpt>
      <trkpt lat="42.63793" lon="2.0073">
        <ele>2154</ele>
        <time>2020-02-14T07:45:23.269Z</time>
      </trkpt>
      <trkpt lat="42.63788" lon="2.00734">
        <ele>2155.9</ele>
        <time>2020-02-14T07:45:25.558Z</time>
      </trkpt>
      <trkpt lat="42.63785" lon="2.00735">
        <ele>2158.9</ele>
        <time>2020-02-14T07:45:27.080Z</time>
      </trkpt>
      <trkpt lat="42.63776" lon="2.00737">
        <ele>2160.8</ele>
        <time>2020-02-14T07:45:30.880Z</time>
      </trkpt>
      <trkpt lat="42.63771" lon="2.0074">
        <ele>2163.7</ele>
        <time>2020-02-14T07:45:33.297Z</time>
      </trkpt>
      <trkpt lat="42.63766" lon="2.00739">
        <ele>2165.1</ele>
        <time>2020-02-14T07:45:35.062Z</time>
      </trkpt>
      <trkpt lat="42.63758" lon="2.00732">
        <ele>2167.9</ele>
        <time>2020-02-14T07:45:39.017Z</time>
      </trkpt>
      <trkpt lat="42.63749" lon="2.00724">
        <ele>2170.3</ele>
        <time>2020-02-14T07:45:43.438Z</time>
      </trkpt>
      <trkpt lat="42.63747" lon="2.0072">
        <ele>2172.8</ele>
        <time>2020-02-14T07:45:44.960Z</time>
      </trkpt>
      <trkpt lat="42.63744" lon="2.00717">
        <ele>2176.7</ele>
        <time>2020-02-14T07:45:46.851Z</time>
      </trkpt>
      <trkpt lat="42.63741" lon="2.00707">
        <ele>2179.6</ele>
        <time>2020-02-14T07:45:50.282Z</time>
      </trkpt>
      <trkpt lat="42.63737" lon="2.00695">
        <ele>2181.9</ele>
        <time>2020-02-14T07:45:54.023Z</time>
      </trkpt>
      <trkpt lat="42.63735" lon="2.00687">
        <ele>2183.8</ele>
        <time>2020-02-14T07:45:56.475Z</time>
      </trkpt>
      <trkpt lat="42.6373" lon="2.00683">
        <ele>2187.1</ele>
        <time>2020-02-14T07:45:58.845Z</time>
      </trkpt>
      <trkpt lat="42.63724" lon="2.00685">
        <ele>2189.1</ele>
        <time>2020-02-14T07:46:01.647Z</time>
      </trkpt>
      <trkpt lat="42.63721" lon="2.00676">
        <ele>2192.5</ele>
        <time>2020-02-14T07:46:04.604Z</time>
      </trkpt>
      <trkpt lat="42.63717" lon="2.00667">
        <ele>2194.8</ele>
        <time>2020-02-14T07:46:07.721Z</time>
      </trkpt>
      <trkpt lat="42.63713" lon="2.00658">
        <ele>2198.2</ele>
        <time>2020-02-14T07:46:11.079Z</time>
      </trkpt>
      <trkpt lat="42.63707" lon="2.0065">
        <ele>2200.7</ele>
        <time>2020-02-14T07:46:14.491Z</time>
      </trkpt>
      <trkpt lat="42.637" lon="2.00652">
        <ele>2202.5</ele>
        <time>2020-02-14T07:46:17.282Z</time>
      </trkpt>
      <trkpt lat="42.63695" lon="2.0065">
        <ele>2203.5</ele>
        <time>2020-02-14T07:46:19.335Z</time>
      </trkpt>
      <trkpt lat="42.63685" lon="2.0065">
        <ele>2203.5</ele>
        <time>2020-02-14T07:46:23.279Z</time>
      </trkpt>
      <trkpt lat="42.63682" lon="2.00649">
        <ele>2204.9</ele>
        <time>2020-02-14T07:46:24.508Z</time>
      </trkpt>
      <trkpt lat="42.63675" lon="2.00648">
        <ele>2208.8</ele>
        <time>2020-02-14T07:46:27.454Z</time>
      </trkpt>
      <trkpt lat="42.63675" lon="2.00648">
        <ele>2205.9</ele>
        <time>2020-02-14T07:46:28.479Z</time>
      </trkpt>
      <trkpt lat="42.63674" lon="2.00648">
        <ele>2206</ele>
        <time>2020-02-14T07:46:28.604Z</time>
      </trkpt>
      <trkpt lat="42.63673" lon="2.00648">
        <ele>2206</ele>
        <time>2020-02-14T07:46:29.154Z</time>
      </trkpt>
      <trkpt lat="42.63668" lon="2.00646">
        <ele>2205.4</ele>
        <time>2020-02-14T07:46:31.059Z</time>
      </trkpt>
      <trkpt lat="42.63657" lon="2.00641">
        <ele>2203.1</ele>
        <time>2020-02-14T07:46:35.746Z</time>
      </trkpt>
      <trkpt lat="42.63647" lon="2.00644">
        <ele>2203.1</ele>
        <time>2020-02-14T07:46:39.519Z</time>
      </trkpt>
      <trkpt lat="42.6364" lon="2.00638">
        <ele>2206</ele>
        <time>2020-02-14T07:46:43.086Z</time>
      </trkpt>
      <trkpt lat="42.63634" lon="2.00635">
        <ele>2206.5</ele>
        <time>2020-02-14T07:46:45.568Z</time>
      </trkpt>
      <trkpt lat="42.63621" lon="2.00633">
        <ele>2205</ele>
        <time>2020-02-14T07:46:50.748Z</time>
      </trkpt>
      <trkpt lat="42.63616" lon="2.00632">
        <ele>2206.4</ele>
        <time>2020-02-14T07:46:52.604Z</time>
      </trkpt>
      <trkpt lat="42.63608" lon="2.00639">
        <ele>2206.4</ele>
        <time>2020-02-14T07:46:56.043Z</time>
      </trkpt>
      <trkpt lat="42.63596" lon="2.00632">
        <ele>2208.9</ele>
        <time>2020-02-14T07:47:01.064Z</time>
      </trkpt>
      <trkpt lat="42.63591" lon="2.00621">
        <ele>2212.1</ele>
        <time>2020-02-14T07:47:05.103Z</time>
      </trkpt>
      <trkpt lat="42.63587" lon="2.0062">
        <ele>2213.2</ele>
        <time>2020-02-14T07:47:06.763Z</time>
      </trkpt>
      <trkpt lat="42.6358" lon="2.00615">
        <ele>2215</ele>
        <time>2020-02-14T07:47:09.934Z</time>
      </trkpt>
      <trkpt lat="42.63573" lon="2.00606">
        <ele>2217.9</ele>
        <time>2020-02-14T07:47:13.669Z</time>
      </trkpt>
      <trkpt lat="42.63564" lon="2.00601">
        <ele>2219.9</ele>
        <time>2020-02-14T07:47:17.480Z</time>
      </trkpt>
      <trkpt lat="42.63554" lon="2.00597">
        <ele>2221.8</ele>
        <time>2020-02-14T07:47:21.549Z</time>
      </trkpt>
      <trkpt lat="42.63547" lon="2.00593">
        <ele>2222.3</ele>
        <time>2020-02-14T07:47:24.684Z</time>
      </trkpt>
      <trkpt lat="42.63535" lon="2.0059">
        <ele>2222.8</ele>
        <time>2020-02-14T07:47:29.255Z</time>
      </trkpt>
      <trkpt lat="42.63528" lon="2.00589">
        <ele>2224.6</ele>
        <time>2020-02-14T07:47:31.929Z</time>
      </trkpt>
      <trkpt lat="42.63523" lon="2.00586">
        <ele>2226.6</ele>
        <time>2020-02-14T07:47:34.362Z</time>
      </trkpt>
      <trkpt lat="42.63516" lon="2.00586">
        <ele>2228</ele>
        <time>2020-02-14T07:47:36.896Z</time>
      </trkpt>
      <trkpt lat="42.63509" lon="2.00588">
        <ele>2229.4</ele>
        <time>2020-02-14T07:47:39.888Z</time>
      </trkpt>
      <trkpt lat="42.63508" lon="2.00588">
        <ele>2229.4</ele>
        <time>2020-02-14T07:47:40.167Z</time>
      </trkpt>
      <trkpt lat="42.63502" lon="2.00589">
        <ele>2231.4</ele>
        <time>2020-02-14T07:47:42.562Z</time>
      </trkpt>
      <trkpt lat="42.63492" lon="2.00594">
        <ele>2233.3</ele>
        <time>2020-02-14T07:47:46.699Z</time>
      </trkpt>
      <trkpt lat="42.63489" lon="2.00595">
        <ele>2236.7</ele>
        <time>2020-02-14T07:47:48.407Z</time>
      </trkpt>
      <trkpt lat="42.63483" lon="2.00587">
        <ele>2239.2</ele>
        <time>2020-02-14T07:47:51.896Z</time>
      </trkpt>
      <trkpt lat="42.63481" lon="2.00577">
        <ele>2240</ele>
        <time>2020-02-14T07:47:54.814Z</time>
      </trkpt>
      <trkpt lat="42.6348" lon="2.00569">
        <ele>2241.9</ele>
        <time>2020-02-14T07:47:57.307Z</time>
      </trkpt>
      <trkpt lat="42.63478" lon="2.00557">
        <ele>2244.3</ele>
        <time>2020-02-14T07:48:00.806Z</time>
      </trkpt>
      <trkpt lat="42.63468" lon="2.00545">
        <ele>2247.7</ele>
        <time>2020-02-14T07:48:06.163Z</time>
      </trkpt>
      <trkpt lat="42.63465" lon="2.00542">
        <ele>2251.2</ele>
        <time>2020-02-14T07:48:07.964Z</time>
      </trkpt>
      <trkpt lat="42.63455" lon="2.00528">
        <ele>2252.5</ele>
        <time>2020-02-14T07:48:13.544Z</time>
      </trkpt>
      <trkpt lat="42.6345" lon="2.00523">
        <ele>2255</ele>
        <time>2020-02-14T07:48:16.056Z</time>
      </trkpt>
      <trkpt lat="42.63448" lon="2.00512">
        <ele>2257.8</ele>
        <time>2020-02-14T07:48:19.471Z</time>
      </trkpt>
      <trkpt lat="42.63444" lon="2.00503">
        <ele>2260.8</ele>
        <time>2020-02-14T07:48:22.427Z</time>
      </trkpt>
      <trkpt lat="42.6344" lon="2.00497">
        <ele>2263.7</ele>
        <time>2020-02-14T07:48:24.958Z</time>
      </trkpt>
      <trkpt lat="42.63436" lon="2.00488">
        <ele>2267.4</ele>
        <time>2020-02-14T07:48:28.197Z</time>
      </trkpt>
      <trkpt lat="42.63433" lon="2.00485">
        <ele>2268.9</ele>
        <time>2020-02-14T07:48:29.881Z</time>
      </trkpt>
      <trkpt lat="42.63427" lon="2.00475">
        <ele>2271.7</ele>
        <time>2020-02-14T07:48:33.538Z</time>
      </trkpt>
      <trkpt lat="42.63425" lon="2.00472">
        <ele>2273.7</ele>
        <time>2020-02-14T07:48:34.878Z</time>
      </trkpt>
      <trkpt lat="42.63421" lon="2.00467">
        <ele>2276.1</ele>
        <time>2020-02-14T07:48:37.246Z</time>
      </trkpt>
      <trkpt lat="42.63417" lon="2.0046">
        <ele>2279</ele>
        <time>2020-02-14T07:48:39.906Z</time>
      </trkpt>
      <trkpt lat="42.63412" lon="2.00453">
        <ele>2282.4</ele>
        <time>2020-02-14T07:48:42.974Z</time>
      </trkpt>
      <trkpt lat="42.63408" lon="2.00445">
        <ele>2285.3</ele>
        <time>2020-02-14T07:48:45.746Z</time>
      </trkpt>
      <trkpt lat="42.63404" lon="2.0044">
        <ele>2287.6</ele>
        <time>2020-02-14T07:48:48.106Z</time>
      </trkpt>
      <trkpt lat="42.63403" lon="2.00437">
        <ele>2289</ele>
        <time>2020-02-14T07:48:49.186Z</time>
      </trkpt>
      <trkpt lat="42.63399" lon="2.00428">
        <ele>2291.5</ele>
        <time>2020-02-14T07:48:52.164Z</time>
      </trkpt>
      <trkpt lat="42.63392" lon="2.00417">
        <ele>2293.8</ele>
        <time>2020-02-14T07:48:56.222Z</time>
      </trkpt>
      <trkpt lat="42.63386" lon="2.00412">
        <ele>2297.3</ele>
        <time>2020-02-14T07:48:59.339Z</time>
      </trkpt>
      <trkpt lat="42.63375" lon="2.00403">
        <ele>2300.1</ele>
        <time>2020-02-14T07:49:04.427Z</time>
      </trkpt>
      <trkpt lat="42.6337" lon="2.00396">
        <ele>2303</ele>
        <time>2020-02-14T07:49:07.376Z</time>
      </trkpt>
      <trkpt lat="42.63363" lon="2.00382">
        <ele>2306.3</ele>
        <time>2020-02-14T07:49:12.293Z</time>
      </trkpt>
      <trkpt lat="42.63358" lon="2.00382">
        <ele>2309.8</ele>
        <time>2020-02-14T07:49:14.436Z</time>
      </trkpt>
      <trkpt lat="42.63352" lon="2.00377">
        <ele>2312.7</ele>
        <time>2020-02-14T07:49:17.640Z</time>
      </trkpt>
      <trkpt lat="42.63352" lon="2.00368">
        <ele>2315.6</ele>
        <time>2020-02-14T07:49:20.282Z</time>
      </trkpt>
      <trkpt lat="42.63348" lon="2.00366">
        <ele>2317.5</ele>
        <time>2020-02-14T07:49:21.849Z</time>
      </trkpt>
      <trkpt lat="42.63343" lon="2.00358">
        <ele>2320.9</ele>
        <time>2020-02-14T07:49:25.148Z</time>
      </trkpt>
      <trkpt lat="42.63335" lon="2.00349">
        <ele>2323.3</ele>
        <time>2020-02-14T07:49:29.048Z</time>
      </trkpt>
      <trkpt lat="42.63329" lon="2.00346">
        <ele>2325.1</ele>
        <time>2020-02-14T07:49:31.823Z</time>
      </trkpt>
      <trkpt lat="42.63325" lon="2.00348">
        <ele>2325.1</ele>
        <time>2020-02-14T07:49:33.426Z</time>
      </trkpt>
      <trkpt lat="42.63319" lon="2.00353">
        <ele>2326.6</ele>
        <time>2020-02-14T07:49:36.250Z</time>
      </trkpt>
      <trkpt lat="42.63315" lon="2.00356">
        <ele>2326.1</ele>
        <time>2020-02-14T07:49:37.774Z</time>
      </trkpt>
      <trkpt lat="42.63306" lon="2.00364">
        <ele>2328.5</ele>
        <time>2020-02-14T07:49:42.122Z</time>
      </trkpt>
      <trkpt lat="42.63305" lon="2.00364">
        <ele>2328.6</ele>
        <time>2020-02-14T07:49:42.573Z</time>
      </trkpt>
      <trkpt lat="42.63304" lon="2.00365">
        <ele>2327.1</ele>
        <time>2020-02-14T07:49:43.232Z</time>
      </trkpt>
      <trkpt lat="42.63299" lon="2.00373">
        <ele>2320.9</ele>
        <time>2020-02-14T07:49:46.918Z</time>
      </trkpt>
      <trkpt lat="42.63299" lon="2.00374">
        <ele>2330.5</ele>
        <time>2020-02-14T07:49:50.263Z</time>
      </trkpt>
      <trkpt lat="42.63298" lon="2.00375">
        <ele>2316.9</ele>
        <time>2020-02-14T07:49:54.977Z</time>
      </trkpt>
      <trkpt lat="42.63297" lon="2.00376">
        <ele>2328.9</ele>
        <time>2020-02-14T07:49:59.151Z</time>
      </trkpt>
      <trkpt lat="42.63296" lon="2.00377">
        <ele>2324.1</ele>
        <time>2020-02-14T07:50:00.860Z</time>
      </trkpt>
      <trkpt lat="42.63294" lon="2.00379">
        <ele>2330.5</ele>
        <time>2020-02-14T07:50:03.296Z</time>
      </trkpt>
      <trkpt lat="42.63294" lon="2.0038">
        <ele>2329.4</ele>
        <time>2020-02-14T07:50:03.776Z</time>
      </trkpt>
      <trkpt lat="42.6329" lon="2.00383">
        <ele>2328.5</ele>
        <time>2020-02-14T07:50:05.450Z</time>
      </trkpt>
      <trkpt lat="42.63288" lon="2.00383">
        <ele>2326.5</ele>
        <time>2020-02-14T07:50:06.423Z</time>
      </trkpt>
      <trkpt lat="42.63277" lon="2.00382">
        <ele>2324.6</ele>
        <time>2020-02-14T07:50:10.772Z</time>
      </trkpt>
      <trkpt lat="42.63267" lon="2.00378">
        <ele>2324.2</ele>
        <time>2020-02-14T07:50:14.900Z</time>
      </trkpt>
      <trkpt lat="42.63263" lon="2.00379">
        <ele>2324.2</ele>
        <time>2020-02-14T07:50:16.503Z</time>
      </trkpt>
      <trkpt lat="42.63251" lon="2.00374">
        <ele>2323.3</ele>
        <time>2020-02-14T07:50:21.282Z</time>
      </trkpt>
      <trkpt lat="42.63242" lon="2.00369">
        <ele>2321.3</ele>
        <time>2020-02-14T07:50:25.205Z</time>
      </trkpt>
      <trkpt lat="42.63233" lon="2.0038">
        <ele>2320.4</ele>
        <time>2020-02-14T07:50:29.710Z</time>
      </trkpt>
      <trkpt lat="42.63226" lon="2.00391">
        <ele>2320.4</ele>
        <time>2020-02-14T07:50:34.215Z</time>
      </trkpt>
      <trkpt lat="42.63223" lon="2.00393">
        <ele>2320.4</ele>
        <time>2020-02-14T07:50:35.328Z</time>
      </trkpt>
      <trkpt lat="42.63223" lon="2.00393">
        <ele>2328.6</ele>
        <time>2020-02-14T07:50:38.181Z</time>
      </trkpt>
      <trkpt lat="42.63223" lon="2.00393">
        <ele>2311.2</ele>
        <time>2020-02-14T07:50:44.214Z</time>
      </trkpt>
      <trkpt lat="42.63223" lon="2.00393">
        <ele>2321.2</ele>
        <time>2020-02-14T07:50:47.680Z</time>
      </trkpt>
      <trkpt lat="42.63223" lon="2.00393">
        <ele>2327.6</ele>
        <time>2020-02-14T07:50:49.888Z</time>
      </trkpt>
      <trkpt lat="42.63223" lon="2.00393">
        <ele>2312.6</ele>
        <time>2020-02-14T07:50:55.069Z</time>
      </trkpt>
      <trkpt lat="42.63223" lon="2.00393">
        <ele>2322.3</ele>
        <time>2020-02-14T07:50:58.413Z</time>
      </trkpt>
      <trkpt lat="42.63223" lon="2.00393">
        <ele>2325.2</ele>
        <time>2020-02-14T07:50:59.414Z</time>
      </trkpt>
      <trkpt lat="42.63223" lon="2.00393">
        <ele>2323.2</ele>
        <time>2020-02-14T07:51:00.087Z</time>
      </trkpt>
      <trkpt lat="42.63223" lon="2.00393">
        <ele>2313.7</ele>
        <time>2020-02-14T07:51:03.394Z</time>
      </trkpt>
      <trkpt lat="42.63223" lon="2.00393">
        <ele>2323.7</ele>
        <time>2020-02-14T07:51:06.860Z</time>
      </trkpt>
      <trkpt lat="42.63223" lon="2.00393">
        <ele>2327</ele>
        <time>2020-02-14T07:51:08.026Z</time>
      </trkpt>
      <trkpt lat="42.63223" lon="2.00393">
        <ele>2321.3</ele>
        <time>2020-02-14T07:51:10.034Z</time>
      </trkpt>
      <trkpt lat="42.63223" lon="2.00393">
        <ele>2322.2</ele>
        <time>2020-02-14T07:51:10.362Z</time>
      </trkpt>
      <trkpt lat="42.63223" lon="2.00393">
        <ele>2318.4</ele>
        <time>2020-02-14T07:51:11.683Z</time>
      </trkpt>
      <trkpt lat="42.63223" lon="2.00393">
        <ele>2321.7</ele>
        <time>2020-02-14T07:51:12.830Z</time>
      </trkpt>
      <trkpt lat="42.63223" lon="2.00394">
        <ele>2320.9</ele>
        <time>2020-02-14T07:51:13.153Z</time>
      </trkpt>
      <trkpt lat="42.63213" lon="2.00402">
        <ele>2320.8</ele>
        <time>2020-02-14T07:51:17.553Z</time>
      </trkpt>
      <trkpt lat="42.63204" lon="2.0041">
        <ele>2320.9</ele>
        <time>2020-02-14T07:51:21.817Z</time>
      </trkpt>
      <trkpt lat="42.63198" lon="2.00413">
        <ele>2320.3</ele>
        <time>2020-02-14T07:51:24.293Z</time>
      </trkpt>
      <trkpt lat="42.63195" lon="2.00414">
        <ele>2320.4</ele>
        <time>2020-02-14T07:51:25.576Z</time>
      </trkpt>
      <trkpt lat="42.63194" lon="2.00416">
        <ele>2320.9</ele>
        <time>2020-02-14T07:51:26.227Z</time>
      </trkpt>
      <trkpt lat="42.63191" lon="2.00417">
        <ele>2320.8</ele>
        <time>2020-02-14T07:51:27.187Z</time>
      </trkpt>
      <trkpt lat="42.63183" lon="2.00423">
        <ele>2320.9</ele>
        <time>2020-02-14T07:51:30.727Z</time>
      </trkpt>
      <trkpt lat="42.63179" lon="2.00425">
        <ele>2321.2</ele>
        <time>2020-02-14T07:51:32.485Z</time>
      </trkpt>
      <trkpt lat="42.63172" lon="2.00428">
        <ele>2320.8</ele>
        <time>2020-02-14T07:51:35.349Z</time>
      </trkpt>
      <trkpt lat="42.63169" lon="2.0043">
        <ele>2320.9</ele>
        <time>2020-02-14T07:51:36.662Z</time>
      </trkpt>
      <trkpt lat="42.63165" lon="2.00432">
        <ele>2320.3</ele>
        <time>2020-02-14T07:51:38.341Z</time>
      </trkpt>
      <trkpt lat="42.63162" lon="2.00433">
        <ele>2319.8</ele>
        <time>2020-02-14T07:51:39.562Z</time>
      </trkpt>
      <trkpt lat="42.63159" lon="2.00438">
        <ele>2318.9</ele>
        <time>2020-02-14T07:51:41.219Z</time>
      </trkpt>
      <trkpt lat="42.63153" lon="2.00445">
        <ele>2318.5</ele>
        <time>2020-02-14T07:51:44.181Z</time>
      </trkpt>
      <trkpt lat="42.63154" lon="2.00445">
        <ele>2319.4</ele>
        <time>2020-02-14T07:51:44.498Z</time>
      </trkpt>
      <trkpt lat="42.63154" lon="2.00444">
        <ele>2322.7</ele>
        <time>2020-02-14T07:51:45.662Z</time>
      </trkpt>
      <trkpt lat="42.63153" lon="2.00444">
        <ele>2319.4</ele>
        <time>2020-02-14T07:51:46.861Z</time>
      </trkpt>
      <trkpt lat="42.63154" lon="2.00445">
        <ele>2318.8</ele>
        <time>2020-02-14T07:51:47.363Z</time>
      </trkpt>
      <trkpt lat="42.63146" lon="2.00451">
        <ele>2318.8</ele>
        <time>2020-02-14T07:51:50.943Z</time>
      </trkpt>
      <trkpt lat="42.63141" lon="2.00455">
        <ele>2318.8</ele>
        <time>2020-02-14T07:51:53.132Z</time>
      </trkpt>
      <trkpt lat="42.63136" lon="2.00461">
        <ele>2318</ele>
        <time>2020-02-14T07:51:55.609Z</time>
      </trkpt>
      <trkpt lat="42.63134" lon="2.00466">
        <ele>2318</ele>
        <time>2020-02-14T07:51:57.274Z</time>
      </trkpt>
      <trkpt lat="42.63125" lon="2.0048">
        <ele>2318</ele>
        <time>2020-02-14T07:52:02.612Z</time>
      </trkpt>
      <trkpt lat="42.63117" lon="2.00496">
        <ele>2317</ele>
        <time>2020-02-14T07:52:08.089Z</time>
      </trkpt>
      <trkpt lat="42.63109" lon="2.00505">
        <ele>2316</ele>
        <time>2020-02-14T07:52:12.068Z</time>
      </trkpt>
      <trkpt lat="42.63107" lon="2.00518">
        <ele>2314.5</ele>
        <time>2020-02-14T07:52:15.673Z</time>
      </trkpt>
      <trkpt lat="42.63104" lon="2.00524">
        <ele>2312.6</ele>
        <time>2020-02-14T07:52:17.989Z</time>
      </trkpt>
      <trkpt lat="42.63098" lon="2.0053">
        <ele>2312.6</ele>
        <time>2020-02-14T07:52:20.742Z</time>
      </trkpt>
      <trkpt lat="42.63096" lon="2.00533">
        <ele>2312.6</ele>
        <time>2020-02-14T07:52:22.020Z</time>
      </trkpt>
      <trkpt lat="42.63091" lon="2.00537">
        <ele>2312.1</ele>
        <time>2020-02-14T07:52:24.122Z</time>
      </trkpt>
      <trkpt lat="42.63089" lon="2.0054">
        <ele>2312.6</ele>
        <time>2020-02-14T07:52:25.351Z</time>
      </trkpt>
      <trkpt lat="42.63086" lon="2.00543">
        <ele>2311.6</ele>
        <time>2020-02-14T07:52:26.943Z</time>
      </trkpt>
      <trkpt lat="42.63074" lon="2.00552">
        <ele>2311.3</ele>
        <time>2020-02-14T07:52:32.097Z</time>
      </trkpt>
      <trkpt lat="42.63065" lon="2.00557">
        <ele>2310.2</ele>
        <time>2020-02-14T07:52:36.019Z</time>
      </trkpt>
      <trkpt lat="42.63059" lon="2.00559">
        <ele>2309.7</ele>
        <time>2020-02-14T07:52:38.354Z</time>
      </trkpt>
      <trkpt lat="42.63056" lon="2.0056">
        <ele>2309.3</ele>
        <time>2020-02-14T07:52:39.401Z</time>
      </trkpt>
      <trkpt lat="42.63042" lon="2.0057">
        <ele>2309.2</ele>
        <time>2020-02-14T07:52:45.716Z</time>
      </trkpt>
      <trkpt lat="42.63028" lon="2.00582">
        <ele>2307.9</ele>
        <time>2020-02-14T07:52:52.009Z</time>
      </trkpt>
      <trkpt lat="42.63028" lon="2.00583">
        <ele>2307.9</ele>
        <time>2020-02-14T07:52:52.326Z</time>
      </trkpt>
      <trkpt lat="42.63011" lon="2.00587">
        <ele>2306.3</ele>
        <time>2020-02-14T07:52:59.067Z</time>
      </trkpt>
      <trkpt lat="42.62996" lon="2.0059">
        <ele>2304.9</ele>
        <time>2020-02-14T07:53:04.809Z</time>
      </trkpt>
      <trkpt lat="42.62982" lon="2.00599">
        <ele>2303.5</ele>
        <time>2020-02-14T07:53:10.975Z</time>
      </trkpt>
      <trkpt lat="42.62978" lon="2.00604">
        <ele>2303.1</ele>
        <time>2020-02-14T07:53:12.884Z</time>
      </trkpt>
      <trkpt lat="42.62974" lon="2.00611">
        <ele>2301.5</ele>
        <time>2020-02-14T07:53:15.439Z</time>
      </trkpt>
      <trkpt lat="42.62968" lon="2.00628">
        <ele>2301.5</ele>
        <time>2020-02-14T07:53:20.737Z</time>
      </trkpt>
      <trkpt lat="42.62958" lon="2.00646">
        <ele>2301.1</ele>
        <time>2020-02-14T07:53:27.190Z</time>
      </trkpt>
      <trkpt lat="42.62954" lon="2.0066">
        <ele>2300.6</ele>
        <time>2020-02-14T07:53:31.486Z</time>
      </trkpt>
      <trkpt lat="42.62947" lon="2.00676">
        <ele>2300.7</ele>
        <time>2020-02-14T07:53:36.933Z</time>
      </trkpt>
      <trkpt lat="42.62939" lon="2.00696">
        <ele>2300.7</ele>
        <time>2020-02-14T07:53:43.337Z</time>
      </trkpt>
      <trkpt lat="42.6293" lon="2.00712">
        <ele>2300.2</ele>
        <time>2020-02-14T07:53:48.808Z</time>
      </trkpt>
      <trkpt lat="42.62928" lon="2.00717">
        <ele>2299.6</ele>
        <time>2020-02-14T07:53:50.528Z</time>
      </trkpt>
      <trkpt lat="42.62923" lon="2.00732">
        <ele>2299.6</ele>
        <time>2020-02-14T07:53:55.353Z</time>
      </trkpt>
      <trkpt lat="42.62919" lon="2.0074">
        <ele>2299.1</ele>
        <time>2020-02-14T07:53:57.884Z</time>
      </trkpt>
      <trkpt lat="42.6291" lon="2.00749">
        <ele>2300.2</ele>
        <time>2020-02-14T07:54:02.433Z</time>
      </trkpt>
      <trkpt lat="42.62904" lon="2.00761">
        <ele>2298.7</ele>
        <time>2020-02-14T07:54:06.491Z</time>
      </trkpt>
      <trkpt lat="42.62902" lon="2.00765">
        <ele>2297.8</ele>
        <time>2020-02-14T07:54:07.988Z</time>
      </trkpt>
      <trkpt lat="42.62897" lon="2.00776">
        <ele>2297.8</ele>
        <time>2020-02-14T07:54:11.636Z</time>
      </trkpt>
      <trkpt lat="42.62891" lon="2.00784">
        <ele>2298.7</ele>
        <time>2020-02-14T07:54:14.894Z</time>
      </trkpt>
      <trkpt lat="42.62886" lon="2.0079">
        <ele>2299.1</ele>
        <time>2020-02-14T07:54:17.338Z</time>
      </trkpt>
      <trkpt lat="42.62883" lon="2.00792">
        <ele>2298.8</ele>
        <time>2020-02-14T07:54:18.963Z</time>
      </trkpt>
      <trkpt lat="42.62874" lon="2.00804">
        <ele>2298.8</ele>
        <time>2020-02-14T07:54:23.674Z</time>
      </trkpt>
      <trkpt lat="42.62869" lon="2.00809">
        <ele>2299.1</ele>
        <time>2020-02-14T07:54:26.059Z</time>
      </trkpt>
      <trkpt lat="42.62864" lon="2.00812">
        <ele>2298.7</ele>
        <time>2020-02-14T07:54:28.101Z</time>
      </trkpt>
      <trkpt lat="42.62863" lon="2.00826">
        <ele>2298.7</ele>
        <time>2020-02-14T07:54:32.029Z</time>
      </trkpt>
      <trkpt lat="42.62862" lon="2.00828">
        <ele>2298.7</ele>
        <time>2020-02-14T07:54:32.802Z</time>
      </trkpt>
      <trkpt lat="42.62856" lon="2.00837">
        <ele>2298.3</ele>
        <time>2020-02-14T07:54:36.247Z</time>
      </trkpt>
      <trkpt lat="42.62853" lon="2.00839">
        <ele>2297.7</ele>
        <time>2020-02-14T07:54:37.402Z</time>
      </trkpt>
      <trkpt lat="42.62846" lon="2.00856">
        <ele>2296.8</ele>
        <time>2020-02-14T07:54:42.854Z</time>
      </trkpt>
      <trkpt lat="42.62845" lon="2.00862">
        <ele>2296.4</ele>
        <time>2020-02-14T07:54:44.525Z</time>
      </trkpt>
      <trkpt lat="42.62838" lon="2.00877">
        <ele>2296.3</ele>
        <time>2020-02-14T07:54:49.809Z</time>
      </trkpt>
      <trkpt lat="42.62834" lon="2.00893">
        <ele>2296.8</ele>
        <time>2020-02-14T07:54:54.398Z</time>
      </trkpt>
      <trkpt lat="42.6283" lon="2.00904">
        <ele>2295.9</ele>
        <time>2020-02-14T07:54:58.044Z</time>
      </trkpt>
      <trkpt lat="42.6283" lon="2.00909">
        <ele>2295.3</ele>
        <time>2020-02-14T07:54:59.501Z</time>
      </trkpt>
      <trkpt lat="42.62826" lon="2.00912">
        <ele>2294.3</ele>
        <time>2020-02-14T07:55:01.158Z</time>
      </trkpt>
      <trkpt lat="42.62817" lon="2.00917">
        <ele>2292.9</ele>
        <time>2020-02-14T07:55:04.817Z</time>
      </trkpt>
      <trkpt lat="42.62815" lon="2.0092">
        <ele>2293.5</ele>
        <time>2020-02-14T07:55:06.043Z</time>
      </trkpt>
      <trkpt lat="42.62798" lon="2.0092">
        <ele>2293</ele>
        <time>2020-02-14T07:55:12.531Z</time>
      </trkpt>
      <trkpt lat="42.62794" lon="2.00923">
        <ele>2293.5</ele>
        <time>2020-02-14T07:55:14.455Z</time>
      </trkpt>
      <trkpt lat="42.62787" lon="2.00927">
        <ele>2292.4</ele>
        <time>2020-02-14T07:55:17.341Z</time>
      </trkpt>
      <trkpt lat="42.62783" lon="2.00936">
        <ele>2291.5</ele>
        <time>2020-02-14T07:55:20.175Z</time>
      </trkpt>
      <trkpt lat="42.62778" lon="2.00943">
        <ele>2291.9</ele>
        <time>2020-02-14T07:55:23.026Z</time>
      </trkpt>
      <trkpt lat="42.62772" lon="2.0096">
        <ele>2292.5</ele>
        <time>2020-02-14T07:55:28.353Z</time>
      </trkpt>
      <trkpt lat="42.62771" lon="2.00961">
        <ele>2292.4</ele>
        <time>2020-02-14T07:55:28.795Z</time>
      </trkpt>
      <trkpt lat="42.62767" lon="2.00967">
        <ele>2292.9</ele>
        <time>2020-02-14T07:55:31.215Z</time>
      </trkpt>
      <trkpt lat="42.62763" lon="2.00983">
        <ele>2292.4</ele>
        <time>2020-02-14T07:55:35.935Z</time>
      </trkpt>
      <trkpt lat="42.6276" lon="2.00989">
        <ele>2292.4</ele>
        <time>2020-02-14T07:55:38.202Z</time>
      </trkpt>
      <trkpt lat="42.62758" lon="2.00993">
        <ele>2292</ele>
        <time>2020-02-14T07:55:39.480Z</time>
      </trkpt>
      <trkpt lat="42.62757" lon="2.01001">
        <ele>2292.5</ele>
        <time>2020-02-14T07:55:41.731Z</time>
      </trkpt>
      <trkpt lat="42.62757" lon="2.01004">
        <ele>2292</ele>
        <time>2020-02-14T07:55:42.651Z</time>
      </trkpt>
      <trkpt lat="42.62755" lon="2.01008">
        <ele>2291</ele>
        <time>2020-02-14T07:55:43.947Z</time>
      </trkpt>
      <trkpt lat="42.6275" lon="2.01023">
        <ele>2290.1</ele>
        <time>2020-02-14T07:55:48.520Z</time>
      </trkpt>
      <trkpt lat="42.62738" lon="2.01034">
        <ele>2289.1</ele>
        <time>2020-02-14T07:55:54.265Z</time>
      </trkpt>
      <trkpt lat="42.62734" lon="2.01036">
        <ele>2288.6</ele>
        <time>2020-02-14T07:55:55.888Z</time>
      </trkpt>
      <trkpt lat="42.62721" lon="2.01044">
        <ele>2286.2</ele>
        <time>2020-02-14T07:56:01.245Z</time>
      </trkpt>
      <trkpt lat="42.62716" lon="2.01048">
        <ele>2286.2</ele>
        <time>2020-02-14T07:56:03.640Z</time>
      </trkpt>
      <trkpt lat="42.62708" lon="2.01052">
        <ele>2285.2</ele>
        <time>2020-02-14T07:56:07.139Z</time>
      </trkpt>
      <trkpt lat="42.627" lon="2.01058">
        <ele>2285.2</ele>
        <time>2020-02-14T07:56:10.407Z</time>
      </trkpt>
      <trkpt lat="42.62689" lon="2.01067">
        <ele>2285.3</ele>
        <time>2020-02-14T07:56:15.496Z</time>
      </trkpt>
      <trkpt lat="42.62688" lon="2.01068">
        <ele>2285.3</ele>
        <time>2020-02-14T07:56:15.775Z</time>
      </trkpt>
      <trkpt lat="42.62677" lon="2.01062">
        <ele>2282.4</ele>
        <time>2020-02-14T07:56:20.438Z</time>
      </trkpt>
      <trkpt lat="42.6267" lon="2.0106">
        <ele>2280</ele>
        <time>2020-02-14T07:56:23.582Z</time>
      </trkpt>
      <trkpt lat="42.62662" lon="2.01049">
        <ele>2277.6</ele>
        <time>2020-02-14T07:56:27.919Z</time>
      </trkpt>
      <trkpt lat="42.62661" lon="2.01049">
        <ele>2276.5</ele>
        <time>2020-02-14T07:56:28.622Z</time>
      </trkpt>
      <trkpt lat="42.62649" lon="2.01047">
        <ele>2273.8</ele>
        <time>2020-02-14T07:56:33.108Z</time>
      </trkpt>
      <trkpt lat="42.62636" lon="2.01045">
        <ele>2273.2</ele>
        <time>2020-02-14T07:56:38.419Z</time>
      </trkpt>
      <trkpt lat="42.62625" lon="2.01044">
        <ele>2270.8</ele>
        <time>2020-02-14T07:56:42.778Z</time>
      </trkpt>
      <trkpt lat="42.62622" lon="2.01042">
        <ele>2270.3</ele>
        <time>2020-02-14T07:56:43.999Z</time>
      </trkpt>
      <trkpt lat="42.62607" lon="2.01031">
        <ele>2268.9</ele>
        <time>2020-02-14T07:56:50.335Z</time>
      </trkpt>
      <trkpt lat="42.62595" lon="2.01028">
        <ele>2268.5</ele>
        <time>2020-02-14T07:56:55.076Z</time>
      </trkpt>
      <trkpt lat="42.62588" lon="2.01025">
        <ele>2267.5</ele>
        <time>2020-02-14T07:56:58.038Z</time>
      </trkpt>
      <trkpt lat="42.62583" lon="2.01022">
        <ele>2266.9</ele>
        <time>2020-02-14T07:57:00.046Z</time>
      </trkpt>
      <trkpt lat="42.6258" lon="2.01022">
        <ele>2266.5</ele>
        <time>2020-02-14T07:57:01.386Z</time>
      </trkpt>
      <trkpt lat="42.62575" lon="2.01017">
        <ele>2266.6</ele>
        <time>2020-02-14T07:57:03.702Z</time>
      </trkpt>
      <trkpt lat="42.62572" lon="2.01014">
        <ele>2266.6</ele>
        <time>2020-02-14T07:57:05.018Z</time>
      </trkpt>
      <trkpt lat="42.62559" lon="2.01014">
        <ele>2265</ele>
        <time>2020-02-14T07:57:10.220Z</time>
      </trkpt>
      <trkpt lat="42.62553" lon="2.01019">
        <ele>2265.1</ele>
        <time>2020-02-14T07:57:13.128Z</time>
      </trkpt>
      <trkpt lat="42.62542" lon="2.0103">
        <ele>2263.7</ele>
        <time>2020-02-14T07:57:18.379Z</time>
      </trkpt>
      <trkpt lat="42.62536" lon="2.01036">
        <ele>2263.6</ele>
        <time>2020-02-14T07:57:21.287Z</time>
      </trkpt>
      <trkpt lat="42.62534" lon="2.01041">
        <ele>2262.6</ele>
        <time>2020-02-14T07:57:22.703Z</time>
      </trkpt>
      <trkpt lat="42.62528" lon="2.01052">
        <ele>2261.3</ele>
        <time>2020-02-14T07:57:26.961Z</time>
      </trkpt>
      <trkpt lat="42.62527" lon="2.01055">
        <ele>2261.2</ele>
        <time>2020-02-14T07:57:27.697Z</time>
      </trkpt>
      <trkpt lat="42.62524" lon="2.01057">
        <ele>2261.2</ele>
        <time>2020-02-14T07:57:28.974Z</time>
      </trkpt>
      <trkpt lat="42.62515" lon="2.01062">
        <ele>2260.7</ele>
        <time>2020-02-14T07:57:32.837Z</time>
      </trkpt>
      <trkpt lat="42.62513" lon="2.01064">
        <ele>2261.3</ele>
        <time>2020-02-14T07:57:33.816Z</time>
      </trkpt>
      <trkpt lat="42.62511" lon="2.01066">
        <ele>2260.3</ele>
        <time>2020-02-14T07:57:34.703Z</time>
      </trkpt>
      <trkpt lat="42.62505" lon="2.01075">
        <ele>2261.3</ele>
        <time>2020-02-14T07:57:38.207Z</time>
      </trkpt>
      <trkpt lat="42.62499" lon="2.0108">
        <ele>2261.7</ele>
        <time>2020-02-14T07:57:40.928Z</time>
      </trkpt>
      <trkpt lat="42.62497" lon="2.01082">
        <ele>2261.3</ele>
        <time>2020-02-14T07:57:41.883Z</time>
      </trkpt>
      <trkpt lat="42.6249" lon="2.01088">
        <ele>2262.1</ele>
        <time>2020-02-14T07:57:45.051Z</time>
      </trkpt>
      <trkpt lat="42.62487" lon="2.01102">
        <ele>2262.6</ele>
        <time>2020-02-14T07:57:49.437Z</time>
      </trkpt>
      <trkpt lat="42.62479" lon="2.01109">
        <ele>2263.1</ele>
        <time>2020-02-14T07:57:52.925Z</time>
      </trkpt>
      <trkpt lat="42.62475" lon="2.0111">
        <ele>2263.7</ele>
        <time>2020-02-14T07:57:54.428Z</time>
      </trkpt>
      <trkpt lat="42.62465" lon="2.01114">
        <ele>2264</ele>
        <time>2020-02-14T07:57:58.537Z</time>
      </trkpt>
      <trkpt lat="42.62462" lon="2.0112">
        <ele>2265</ele>
        <time>2020-02-14T07:58:00.469Z</time>
      </trkpt>
      <trkpt lat="42.62453" lon="2.01107">
        <ele>2264.5</ele>
        <time>2020-02-14T07:58:05.541Z</time>
      </trkpt>
      <trkpt lat="42.62451" lon="2.01105">
        <ele>2264.6</ele>
        <time>2020-02-14T07:58:06.371Z</time>
      </trkpt>
      <trkpt lat="42.62449" lon="2.01104">
        <ele>2263.6</ele>
        <time>2020-02-14T07:58:07.505Z</time>
      </trkpt>
      <trkpt lat="42.62438" lon="2.01103">
        <ele>2264.6</ele>
        <time>2020-02-14T07:58:11.774Z</time>
      </trkpt>
      <trkpt lat="42.62434" lon="2.01104">
        <ele>2264.6</ele>
        <time>2020-02-14T07:58:13.201Z</time>
      </trkpt>
      <trkpt lat="42.62431" lon="2.01106">
        <ele>2264.5</ele>
        <time>2020-02-14T07:58:14.677Z</time>
      </trkpt>
      <trkpt lat="42.62429" lon="2.01109">
        <ele>2265</ele>
        <time>2020-02-14T07:58:15.797Z</time>
      </trkpt>
      <trkpt lat="42.62418" lon="2.01112">
        <ele>2264.1</ele>
        <time>2020-02-14T07:58:20.340Z</time>
      </trkpt>
      <trkpt lat="42.62417" lon="2.01112">
        <ele>2264.5</ele>
        <time>2020-02-14T07:58:20.617Z</time>
      </trkpt>
      <trkpt lat="42.62411" lon="2.0111">
        <ele>2263.6</ele>
        <time>2020-02-14T07:58:22.996Z</time>
      </trkpt>
      <trkpt lat="42.6241" lon="2.0111">
        <ele>2263.2</ele>
        <time>2020-02-14T07:58:23.584Z</time>
      </trkpt>
      <trkpt lat="42.62406" lon="2.01114">
        <ele>2262.6</ele>
        <time>2020-02-14T07:58:25.331Z</time>
      </trkpt>
      <trkpt lat="42.62403" lon="2.01118">
        <ele>2263.2</ele>
        <time>2020-02-14T07:58:27.089Z</time>
      </trkpt>
      <trkpt lat="42.62388" lon="2.01113">
        <ele>2262.6</ele>
        <time>2020-02-14T07:58:32.771Z</time>
      </trkpt>
      <trkpt lat="42.62378" lon="2.01101">
        <ele>2261.3</ele>
        <time>2020-02-14T07:58:38.107Z</time>
      </trkpt>
      <trkpt lat="42.62376" lon="2.01098">
        <ele>2260.8</ele>
        <time>2020-02-14T07:58:39.108Z</time>
      </trkpt>
      <trkpt lat="42.62372" lon="2.01093">
        <ele>2260.7</ele>
        <time>2020-02-14T07:58:41.386Z</time>
      </trkpt>
      <trkpt lat="42.62361" lon="2.01082">
        <ele>2259.7</ele>
        <time>2020-02-14T07:58:46.803Z</time>
      </trkpt>
      <trkpt lat="42.62358" lon="2.01076">
        <ele>2258.3</ele>
        <time>2020-02-14T07:58:48.762Z</time>
      </trkpt>
      <trkpt lat="42.62352" lon="2.01075">
        <ele>2258.8</ele>
        <time>2020-02-14T07:58:50.807Z</time>
      </trkpt>
      <trkpt lat="42.62343" lon="2.01079">
        <ele>2257.4</ele>
        <time>2020-02-14T07:58:54.696Z</time>
      </trkpt>
      <trkpt lat="42.62333" lon="2.01079">
        <ele>2254.4</ele>
        <time>2020-02-14T07:58:58.697Z</time>
      </trkpt>
      <trkpt lat="42.62326" lon="2.0108">
        <ele>2252.5</ele>
        <time>2020-02-14T07:59:01.475Z</time>
      </trkpt>
      <trkpt lat="42.62325" lon="2.01082">
        <ele>2250.6</ele>
        <time>2020-02-14T07:59:02.500Z</time>
      </trkpt>
      <trkpt lat="42.62317" lon="2.01084">
        <ele>2249.6</ele>
        <time>2020-02-14T07:59:05.614Z</time>
      </trkpt>
      <trkpt lat="42.62313" lon="2.01087">
        <ele>2248.8</ele>
        <time>2020-02-14T07:59:07.185Z</time>
      </trkpt>
      <trkpt lat="42.6231" lon="2.01088">
        <ele>2248.2</ele>
        <time>2020-02-14T07:59:08.655Z</time>
      </trkpt>
      <trkpt lat="42.62295" lon="2.01086">
        <ele>2248.7</ele>
        <time>2020-02-14T07:59:14.215Z</time>
      </trkpt>
      <trkpt lat="42.62288" lon="2.01087">
        <ele>2249.6</ele>
        <time>2020-02-14T07:59:16.960Z</time>
      </trkpt>
      <trkpt lat="42.62279" lon="2.01091">
        <ele>2250.7</ele>
        <time>2020-02-14T07:59:20.598Z</time>
      </trkpt>
      <trkpt lat="42.62275" lon="2.0109">
        <ele>2249.6</ele>
        <time>2020-02-14T07:59:22.529Z</time>
      </trkpt>
      <trkpt lat="42.6227" lon="2.01087">
        <ele>2247.2</ele>
        <time>2020-02-14T07:59:24.791Z</time>
      </trkpt>
      <trkpt lat="42.6226" lon="2.01086">
        <ele>2244.9</ele>
        <time>2020-02-14T07:59:28.703Z</time>
      </trkpt>
      <trkpt lat="42.6225" lon="2.01089">
        <ele>2245.4</ele>
        <time>2020-02-14T07:59:32.592Z</time>
      </trkpt>
      <trkpt lat="42.62246" lon="2.01088">
        <ele>2244.9</ele>
        <time>2020-02-14T07:59:34.119Z</time>
      </trkpt>
      <trkpt lat="42.62244" lon="2.01088">
        <ele>2245.4</ele>
        <time>2020-02-14T07:59:35.069Z</time>
      </trkpt>
      <trkpt lat="42.62228" lon="2.01086">
        <ele>2246.3</ele>
        <time>2020-02-14T07:59:41.185Z</time>
      </trkpt>
      <trkpt lat="42.62222" lon="2.01087">
        <ele>2247.8</ele>
        <time>2020-02-14T07:59:43.499Z</time>
      </trkpt>
      <trkpt lat="42.62215" lon="2.01091">
        <ele>2249.1</ele>
        <time>2020-02-14T07:59:46.475Z</time>
      </trkpt>
      <trkpt lat="42.62203" lon="2.01094">
        <ele>2249.1</ele>
        <time>2020-02-14T07:59:51.319Z</time>
      </trkpt>
      <trkpt lat="42.62193" lon="2.01097">
        <ele>2248.8</ele>
        <time>2020-02-14T07:59:55.247Z</time>
      </trkpt>
      <trkpt lat="42.62193" lon="2.01102">
        <ele>2258.3</ele>
        <time>2020-02-14T07:59:58.901Z</time>
      </trkpt>
      <trkpt lat="42.62193" lon="2.01102">
        <ele>2248.3</ele>
        <time>2020-02-14T08:00:02.386Z</time>
      </trkpt>
      <trkpt lat="42.62193" lon="2.01102">
        <ele>2238.7</ele>
        <time>2020-02-14T08:00:05.725Z</time>
      </trkpt>
      <trkpt lat="42.62193" lon="2.01102">
        <ele>2244.8</ele>
        <time>2020-02-14T08:00:07.860Z</time>
      </trkpt>
      <trkpt lat="42.62193" lon="2.01102">
        <ele>2248.8</ele>
        <time>2020-02-14T08:00:09.238Z</time>
      </trkpt>
      <trkpt lat="42.62193" lon="2.01102">
        <ele>2256.8</ele>
        <time>2020-02-14T08:00:12.026Z</time>
      </trkpt>
      <trkpt lat="42.62193" lon="2.01102">
        <ele>2250.6</ele>
        <time>2020-02-14T08:00:14.166Z</time>
      </trkpt>
      <trkpt lat="42.62193" lon="2.01102">
        <ele>2253.6</ele>
        <time>2020-02-14T08:00:15.189Z</time>
      </trkpt>
      <trkpt lat="42.62193" lon="2.01102">
        <ele>2245.3</ele>
        <time>2020-02-14T08:00:18.062Z</time>
      </trkpt>
      <trkpt lat="42.62193" lon="2.01102">
        <ele>2250.1</ele>
        <time>2020-02-14T08:00:19.724Z</time>
      </trkpt>
      <trkpt lat="42.62193" lon="2.01102">
        <ele>2243.9</ele>
        <time>2020-02-14T08:00:21.867Z</time>
      </trkpt>
      <trkpt lat="42.62193" lon="2.01102">
        <ele>2250.1</ele>
        <time>2020-02-14T08:00:24.015Z</time>
      </trkpt>
      <trkpt lat="42.62193" lon="2.01102">
        <ele>2243.9</ele>
        <time>2020-02-14T08:00:26.161Z</time>
      </trkpt>
      <trkpt lat="42.62193" lon="2.01102">
        <ele>2260.7</ele>
        <time>2020-02-14T08:00:31.987Z</time>
      </trkpt>
      <trkpt lat="42.62193" lon="2.01102">
        <ele>2254.4</ele>
        <time>2020-02-14T08:00:34.168Z</time>
      </trkpt>
      <trkpt lat="42.62193" lon="2.01102">
        <ele>2240.5</ele>
        <time>2020-02-14T08:00:39.002Z</time>
      </trkpt>
      <trkpt lat="42.62193" lon="2.01102">
        <ele>2252.5</ele>
        <time>2020-02-14T08:00:43.168Z</time>
      </trkpt>
      <trkpt lat="42.62193" lon="2.01102">
        <ele>2238.7</ele>
        <time>2020-02-14T08:00:47.975Z</time>
      </trkpt>
      <trkpt lat="42.62193" lon="2.01102">
        <ele>2250.2</ele>
        <time>2020-02-14T08:00:51.973Z</time>
      </trkpt>
      <trkpt lat="42.62193" lon="2.01102">
        <ele>2250.1</ele>
        <time>2020-02-14T08:00:52.043Z</time>
      </trkpt>
      <trkpt lat="42.62193" lon="2.01102">
        <ele>2256.4</ele>
        <time>2020-02-14T08:00:54.227Z</time>
      </trkpt>
      <trkpt lat="42.62193" lon="2.01102">
        <ele>2245.9</ele>
        <time>2020-02-14T08:00:57.886Z</time>
      </trkpt>
      <trkpt lat="42.62193" lon="2.01102">
        <ele>2246.8</ele>
        <time>2020-02-14T08:00:58.209Z</time>
      </trkpt>
      <trkpt lat="42.62193" lon="2.01102">
        <ele>2253.5</ele>
        <time>2020-02-14T08:01:00.542Z</time>
      </trkpt>
      <trkpt lat="42.62193" lon="2.01102">
        <ele>2254.1</ele>
        <time>2020-02-14T08:01:00.731Z</time>
      </trkpt>
      <trkpt lat="42.62193" lon="2.01102">
        <ele>2231.8</ele>
        <time>2020-02-14T08:01:08.454Z</time>
      </trkpt>
      <trkpt lat="42.62193" lon="2.01102">
        <ele>2254.1</ele>
        <time>2020-02-14T08:01:16.182Z</time>
      </trkpt>
      <trkpt lat="42.62188" lon="2.01112">
        <ele>2239.1</ele>
        <time>2020-02-14T08:01:22.241Z</time>
      </trkpt>
      <trkpt lat="42.62188" lon="2.01112">
        <ele>2239.1</ele>
        <time>2020-02-14T08:01:22.244Z</time>
      </trkpt>
      <trkpt lat="42.62188" lon="2.01112">
        <ele>2251.2</ele>
        <time>2020-02-14T08:01:26.424Z</time>
      </trkpt>
      <trkpt lat="42.62188" lon="2.01112">
        <ele>2247.7</ele>
        <time>2020-02-14T08:01:27.620Z</time>
      </trkpt>
      <trkpt lat="42.62188" lon="2.01112">
        <ele>2243.9</ele>
        <time>2020-02-14T08:01:28.941Z</time>
      </trkpt>
      <trkpt lat="42.62188" lon="2.01112">
        <ele>2245.4</ele>
        <time>2020-02-14T08:01:29.451Z</time>
      </trkpt>
      <trkpt lat="42.62189" lon="2.01111">
        <ele>2250.7</ele>
        <time>2020-02-14T08:01:31.298Z</time>
      </trkpt>
      <trkpt lat="42.62189" lon="2.01111">
        <ele>2246.4</ele>
        <time>2020-02-14T08:01:32.796Z</time>
      </trkpt>
      <trkpt lat="42.62188" lon="2.01112">
        <ele>2245.3</ele>
        <time>2020-02-14T08:01:33.316Z</time>
      </trkpt>
      <trkpt lat="42.62189" lon="2.01112">
        <ele>2245.8</ele>
        <time>2020-02-14T08:01:33.856Z</time>
      </trkpt>
      <trkpt lat="42.62189" lon="2.01112">
        <ele>2246.4</ele>
        <time>2020-02-14T08:01:34.054Z</time>
      </trkpt>
      <trkpt lat="42.62184" lon="2.01116">
        <ele>2245.9</ele>
        <time>2020-02-14T08:01:36.178Z</time>
      </trkpt>
      <trkpt lat="42.62183" lon="2.01124">
        <ele>2245.3</ele>
        <time>2020-02-14T08:01:38.573Z</time>
      </trkpt>
      <trkpt lat="42.62176" lon="2.01131">
        <ele>2244.8</ele>
        <time>2020-02-14T08:01:42.023Z</time>
      </trkpt>
      <trkpt lat="42.62171" lon="2.01138">
        <ele>2249.1</ele>
        <time>2020-02-14T08:01:45.002Z</time>
      </trkpt>
      <trkpt lat="42.62171" lon="2.01138">
        <ele>2246.3</ele>
        <time>2020-02-14T08:01:46.032Z</time>
      </trkpt>
      <trkpt lat="42.62166" lon="2.01144">
        <ele>2245.3</ele>
        <time>2020-02-14T08:01:48.417Z</time>
      </trkpt>
      <trkpt lat="42.62152" lon="2.01157">
        <ele>2244.4</ele>
        <time>2020-02-14T08:01:55.119Z</time>
      </trkpt>
      <trkpt lat="42.6215" lon="2.01157">
        <ele>2244</ele>
        <time>2020-02-14T08:01:55.824Z</time>
      </trkpt>
      <trkpt lat="42.62144" lon="2.01156">
        <ele>2243.5</ele>
        <time>2020-02-14T08:01:58.008Z</time>
      </trkpt>
      <trkpt lat="42.62141" lon="2.01158">
        <ele>2243.5</ele>
        <time>2020-02-14T08:01:59.451Z</time>
      </trkpt>
      <trkpt lat="42.62137" lon="2.01158">
        <ele>2243.9</ele>
        <time>2020-02-14T08:02:00.932Z</time>
      </trkpt>
      <trkpt lat="42.62128" lon="2.01154">
        <ele>2244</ele>
        <time>2020-02-14T08:02:04.635Z</time>
      </trkpt>
      <trkpt lat="42.6212" lon="2.0115">
        <ele>2243.9</ele>
        <time>2020-02-14T08:02:08.117Z</time>
      </trkpt>
      <trkpt lat="42.62119" lon="2.01149">
        <ele>2243.9</ele>
        <time>2020-02-14T08:02:08.649Z</time>
      </trkpt>
      <trkpt lat="42.62101" lon="2.01141">
        <ele>2243.9</ele>
        <time>2020-02-14T08:02:15.650Z</time>
      </trkpt>
      <trkpt lat="42.62093" lon="2.01136">
        <ele>2241.9</ele>
        <time>2020-02-14T08:02:19.095Z</time>
      </trkpt>
      <trkpt lat="42.62079" lon="2.01139">
        <ele>2242.5</ele>
        <time>2020-02-14T08:02:24.685Z</time>
      </trkpt>
      <trkpt lat="42.62073" lon="2.01137">
        <ele>2241.9</ele>
        <time>2020-02-14T08:02:27.105Z</time>
      </trkpt>
      <trkpt lat="42.62063" lon="2.01136">
        <ele>2242</ele>
        <time>2020-02-14T08:02:31.146Z</time>
      </trkpt>
      <trkpt lat="42.6206" lon="2.01134">
        <ele>2242</ele>
        <time>2020-02-14T08:02:32.199Z</time>
      </trkpt>
      <trkpt lat="42.62052" lon="2.01133">
        <ele>2242.5</ele>
        <time>2020-02-14T08:02:35.530Z</time>
      </trkpt>
      <trkpt lat="42.62043" lon="2.01126">
        <ele>2242.9</ele>
        <time>2020-02-14T08:02:39.436Z</time>
      </trkpt>
      <trkpt lat="42.62034" lon="2.01116">
        <ele>2243</ele>
        <time>2020-02-14T08:02:44.022Z</time>
      </trkpt>
      <trkpt lat="42.62034" lon="2.01111">
        <ele>2243.4</ele>
        <time>2020-02-14T08:02:45.316Z</time>
      </trkpt>
      <trkpt lat="42.62033" lon="2.01099">
        <ele>2242.4</ele>
        <time>2020-02-14T08:02:48.799Z</time>
      </trkpt>
      <trkpt lat="42.62028" lon="2.01092">
        <ele>2242.9</ele>
        <time>2020-02-14T08:02:51.639Z</time>
      </trkpt>
      <trkpt lat="42.62026" lon="2.01088">
        <ele>2242.9</ele>
        <time>2020-02-14T08:02:53.017Z</time>
      </trkpt>
      <trkpt lat="42.62021" lon="2.01065">
        <ele>2242.4</ele>
        <time>2020-02-14T08:02:59.926Z</time>
      </trkpt>
      <trkpt lat="42.62021" lon="2.01061">
        <ele>2242.5</ele>
        <time>2020-02-14T08:03:00.840Z</time>
      </trkpt>
      <trkpt lat="42.62022" lon="2.01055">
        <ele>2242.5</ele>
        <time>2020-02-14T08:03:02.565Z</time>
      </trkpt>
      <trkpt lat="42.62022" lon="2.01052">
        <ele>2242.5</ele>
        <time>2020-02-14T08:03:03.392Z</time>
      </trkpt>
      <trkpt lat="42.62018" lon="2.01045">
        <ele>2241.6</ele>
        <time>2020-02-14T08:03:05.885Z</time>
      </trkpt>
      <trkpt lat="42.6202" lon="2.01042">
        <ele>2242</ele>
        <time>2020-02-14T08:03:06.723Z</time>
      </trkpt>
      <trkpt lat="42.62019" lon="2.01043">
        <ele>2242</ele>
        <time>2020-02-14T08:03:06.867Z</time>
      </trkpt>
      <trkpt lat="42.6201" lon="2.01047">
        <ele>2241.6</ele>
        <time>2020-02-14T08:03:10.510Z</time>
      </trkpt>
      <trkpt lat="42.62004" lon="2.01051">
        <ele>2242.4</ele>
        <time>2020-02-14T08:03:13.095Z</time>
      </trkpt>
      <trkpt lat="42.61999" lon="2.01052">
        <ele>2241.9</ele>
        <time>2020-02-14T08:03:15.077Z</time>
      </trkpt>
      <trkpt lat="42.61992" lon="2.01046">
        <ele>2241</ele>
        <time>2020-02-14T08:03:18.435Z</time>
      </trkpt>
      <trkpt lat="42.61989" lon="2.01042">
        <ele>2241.5</ele>
        <time>2020-02-14T08:03:20.098Z</time>
      </trkpt>
      <trkpt lat="42.61983" lon="2.01038">
        <ele>2242.4</ele>
        <time>2020-02-14T08:03:22.615Z</time>
      </trkpt>
      <trkpt lat="42.61982" lon="2.01048">
        <ele>2241.6</ele>
        <time>2020-02-14T08:03:25.371Z</time>
      </trkpt>
      <trkpt lat="42.61983" lon="2.01061">
        <ele>2240.5</ele>
        <time>2020-02-14T08:03:29.318Z</time>
      </trkpt>
      <trkpt lat="42.61983" lon="2.0107">
        <ele>2240.6</ele>
        <time>2020-02-14T08:03:31.773Z</time>
      </trkpt>
      <trkpt lat="42.61976" lon="2.01082">
        <ele>2238.7</ele>
        <time>2020-02-14T08:03:36.267Z</time>
      </trkpt>
      <trkpt lat="42.61974" lon="2.01077">
        <ele>2236.3</ele>
        <time>2020-02-14T08:03:38.283Z</time>
      </trkpt>
      <trkpt lat="42.61972" lon="2.01074">
        <ele>2236.2</ele>
        <time>2020-02-14T08:03:39.159Z</time>
      </trkpt>
      <trkpt lat="42.61966" lon="2.01059">
        <ele>2237.1</ele>
        <time>2020-02-14T08:03:44.204Z</time>
      </trkpt>
      <trkpt lat="42.61959" lon="2.01047">
        <ele>2238.6</ele>
        <time>2020-02-14T08:03:48.506Z</time>
      </trkpt>
      <trkpt lat="42.61948" lon="2.01032">
        <ele>2240</ele>
        <time>2020-02-14T08:03:54.547Z</time>
      </trkpt>
      <trkpt lat="42.61947" lon="2.01031">
        <ele>2240.1</ele>
        <time>2020-02-14T08:03:54.970Z</time>
      </trkpt>
      <trkpt lat="42.61939" lon="2.01021">
        <ele>2239.5</ele>
        <time>2020-02-14T08:03:59.372Z</time>
      </trkpt>
      <trkpt lat="42.61932" lon="2.01002">
        <ele>2239.5</ele>
        <time>2020-02-14T08:04:05.293Z</time>
      </trkpt>
      <trkpt lat="42.61924" lon="2.00989">
        <ele>2241</ele>
        <time>2020-02-14T08:04:10.016Z</time>
      </trkpt>
      <trkpt lat="42.61922" lon="2.00988">
        <ele>2240.5</ele>
        <time>2020-02-14T08:04:11.009Z</time>
      </trkpt>
      <trkpt lat="42.61913" lon="2.00976">
        <ele>2241.5</ele>
        <time>2020-02-14T08:04:15.831Z</time>
      </trkpt>
      <trkpt lat="42.61906" lon="2.0097">
        <ele>2243.4</ele>
        <time>2020-02-14T08:04:19.108Z</time>
      </trkpt>
      <trkpt lat="42.61903" lon="2.00967">
        <ele>2244.9</ele>
        <time>2020-02-14T08:04:20.630Z</time>
      </trkpt>
      <trkpt lat="42.61894" lon="2.00952">
        <ele>2245.4</ele>
        <time>2020-02-14T08:04:26.098Z</time>
      </trkpt>
      <trkpt lat="42.61893" lon="2.00951">
        <ele>2244.8</ele>
        <time>2020-02-14T08:04:26.698Z</time>
      </trkpt>
      <trkpt lat="42.61886" lon="2.00946">
        <ele>2243.9</ele>
        <time>2020-02-14T08:04:29.722Z</time>
      </trkpt>
      <trkpt lat="42.61881" lon="2.00933">
        <ele>2245.4</ele>
        <time>2020-02-14T08:04:33.934Z</time>
      </trkpt>
      <trkpt lat="42.61878" lon="2.00928">
        <ele>2244.8</ele>
        <time>2020-02-14T08:04:35.711Z</time>
      </trkpt>
      <trkpt lat="42.61877" lon="2.00915">
        <ele>2244.8</ele>
        <time>2020-02-14T08:04:39.430Z</time>
      </trkpt>
      <trkpt lat="42.61872" lon="2.00896">
        <ele>2243</ele>
        <time>2020-02-14T08:04:45.218Z</time>
      </trkpt>
      <trkpt lat="42.61871" lon="2.00883">
        <ele>2241.6</ele>
        <time>2020-02-14T08:04:48.967Z</time>
      </trkpt>
      <trkpt lat="42.61866" lon="2.0087">
        <ele>2240.5</ele>
        <time>2020-02-14T08:04:53.120Z</time>
      </trkpt>
      <trkpt lat="42.61866" lon="2.00868">
        <ele>2240</ele>
        <time>2020-02-14T08:04:53.508Z</time>
      </trkpt>
      <trkpt lat="42.61868" lon="2.00853">
        <ele>2241.6</ele>
        <time>2020-02-14T08:04:57.880Z</time>
      </trkpt>
      <trkpt lat="42.61868" lon="2.00844">
        <ele>2241.6</ele>
        <time>2020-02-14T08:05:00.552Z</time>
      </trkpt>
      <trkpt lat="42.61867" lon="2.00841">
        <ele>2241.9</ele>
        <time>2020-02-14T08:05:01.509Z</time>
      </trkpt>
      <trkpt lat="42.61867" lon="2.00834">
        <ele>2242.4</ele>
        <time>2020-02-14T08:05:03.492Z</time>
      </trkpt>
      <trkpt lat="42.61864" lon="2.00826">
        <ele>2243.4</ele>
        <time>2020-02-14T08:05:06.018Z</time>
      </trkpt>
      <trkpt lat="42.61855" lon="2.00809">
        <ele>2244.8</ele>
        <time>2020-02-14T08:05:12.009Z</time>
      </trkpt>
      <trkpt lat="42.61851" lon="2.00801">
        <ele>2244.8</ele>
        <time>2020-02-14T08:05:14.459Z</time>
      </trkpt>
      <trkpt lat="42.61843" lon="2.00789">
        <ele>2247.2</ele>
        <time>2020-02-14T08:05:19.330Z</time>
      </trkpt>
      <trkpt lat="42.6184" lon="2.00782">
        <ele>2248.7</ele>
        <time>2020-02-14T08:05:21.582Z</time>
      </trkpt>
      <trkpt lat="42.6184" lon="2.00777">
        <ele>2250.6</ele>
        <time>2020-02-14T08:05:23.106Z</time>
      </trkpt>
      <trkpt lat="42.61836" lon="2.0076">
        <ele>2253.1</ele>
        <time>2020-02-14T08:05:28.314Z</time>
      </trkpt>
      <trkpt lat="42.61837" lon="2.00752">
        <ele>2255.5</ele>
        <time>2020-02-14T08:05:30.796Z</time>
      </trkpt>
      <trkpt lat="42.61841" lon="2.00749">
        <ele>2255.5</ele>
        <time>2020-02-14T08:05:32.673Z</time>
      </trkpt>
      <trkpt lat="42.61844" lon="2.00746">
        <ele>2256.8</ele>
        <time>2020-02-14T08:05:34.056Z</time>
      </trkpt>
      <trkpt lat="42.61846" lon="2.00744">
        <ele>2257.3</ele>
        <time>2020-02-14T08:05:35.166Z</time>
      </trkpt>
      <trkpt lat="42.61843" lon="2.00732">
        <ele>2259.2</ele>
        <time>2020-02-14T08:05:38.985Z</time>
      </trkpt>
      <trkpt lat="42.61838" lon="2.00725">
        <ele>2261.7</ele>
        <time>2020-02-14T08:05:41.879Z</time>
      </trkpt>
      <trkpt lat="42.61832" lon="2.00715">
        <ele>2263.1</ele>
        <time>2020-02-14T08:05:45.351Z</time>
      </trkpt>
      <trkpt lat="42.61831" lon="2.00706">
        <ele>2264</ele>
        <time>2020-02-14T08:05:48.028Z</time>
      </trkpt>
      <trkpt lat="42.61828" lon="2.007">
        <ele>2265.5</ele>
        <time>2020-02-14T08:05:50.065Z</time>
      </trkpt>
      <trkpt lat="42.61824" lon="2.00692">
        <ele>2267.4</ele>
        <time>2020-02-14T08:05:52.916Z</time>
      </trkpt>
      <trkpt lat="42.61821" lon="2.00685">
        <ele>2268.5</ele>
        <time>2020-02-14T08:05:55.428Z</time>
      </trkpt>
      <trkpt lat="42.61812" lon="2.00673">
        <ele>2267.5</ele>
        <time>2020-02-14T08:06:00.202Z</time>
      </trkpt>
      <trkpt lat="42.61809" lon="2.00664">
        <ele>2268.5</ele>
        <time>2020-02-14T08:06:03.036Z</time>
      </trkpt>
      <trkpt lat="42.61812" lon="2.00656">
        <ele>2273.2</ele>
        <time>2020-02-14T08:06:06.034Z</time>
      </trkpt>
      <trkpt lat="42.61813" lon="2.00652">
        <ele>2265.5</ele>
        <time>2020-02-14T08:06:08.928Z</time>
      </trkpt>
      <trkpt lat="42.61815" lon="2.00646">
        <ele>2274.7</ele>
        <time>2020-02-14T08:06:12.698Z</time>
      </trkpt>
      <trkpt lat="42.61816" lon="2.00645">
        <ele>2270.8</ele>
        <time>2020-02-14T08:06:14.092Z</time>
      </trkpt>
      <trkpt lat="42.61817" lon="2.00643">
        <ele>2278</ele>
        <time>2020-02-14T08:06:16.677Z</time>
      </trkpt>
      <trkpt lat="42.61817" lon="2.00641">
        <ele>2278</ele>
        <time>2020-02-14T08:06:17.247Z</time>
      </trkpt>
      <trkpt lat="42.61818" lon="2.0064">
        <ele>2270.3</ele>
        <time>2020-02-14T08:06:19.930Z</time>
      </trkpt>
      <trkpt lat="42.61818" lon="2.0064">
        <ele>2271.7</ele>
        <time>2020-02-14T08:06:20.404Z</time>
      </trkpt>
      <trkpt lat="42.61818" lon="2.00639">
        <ele>2264.6</ele>
        <time>2020-02-14T08:06:22.943Z</time>
      </trkpt>
      <trkpt lat="42.61818" lon="2.00637">
        <ele>2267.4</ele>
        <time>2020-02-14T08:06:24.091Z</time>
      </trkpt>
      <trkpt lat="42.61818" lon="2.00635">
        <ele>2271.4</ele>
        <time>2020-02-14T08:06:25.550Z</time>
      </trkpt>
      <trkpt lat="42.61814" lon="2.00624">
        <ele>2269.3</ele>
        <time>2020-02-14T08:06:28.946Z</time>
      </trkpt>
      <trkpt lat="42.6181" lon="2.00611">
        <ele>2261.2</ele>
        <time>2020-02-14T08:06:33.799Z</time>
      </trkpt>
      <trkpt lat="42.61811" lon="2.0061">
        <ele>2274.2</ele>
        <time>2020-02-14T08:06:38.315Z</time>
      </trkpt>
      <trkpt lat="42.61811" lon="2.00607">
        <ele>2259.2</ele>
        <time>2020-02-14T08:06:43.585Z</time>
      </trkpt>
      <trkpt lat="42.61812" lon="2.00606">
        <ele>2275.2</ele>
        <time>2020-02-14T08:06:49.146Z</time>
      </trkpt>
      <trkpt lat="42.61813" lon="2.00604">
        <ele>2272.8</ele>
        <time>2020-02-14T08:06:50.304Z</time>
      </trkpt>
      <trkpt lat="42.61813" lon="2.006">
        <ele>2274.7</ele>
        <time>2020-02-14T08:06:51.554Z</time>
      </trkpt>
      <trkpt lat="42.61813" lon="2.00595">
        <ele>2278.6</ele>
        <time>2020-02-14T08:06:53.510Z</time>
      </trkpt>
      <trkpt lat="42.61813" lon="2.00594">
        <ele>2267.9</ele>
        <time>2020-02-14T08:06:57.215Z</time>
      </trkpt>
      <trkpt lat="42.61813" lon="2.00594">
        <ele>2275.2</ele>
        <time>2020-02-14T08:06:59.730Z</time>
      </trkpt>
      <trkpt lat="42.61813" lon="2.00594">
        <ele>2271.3</ele>
        <time>2020-02-14T08:07:01.070Z</time>
      </trkpt>
      <trkpt lat="42.61813" lon="2.00594">
        <ele>2277</ele>
        <time>2020-02-14T08:07:03.050Z</time>
      </trkpt>
      <trkpt lat="42.61813" lon="2.00594">
        <ele>2276.5</ele>
        <time>2020-02-14T08:07:03.226Z</time>
      </trkpt>
      <trkpt lat="42.61813" lon="2.00594">
        <ele>2273.2</ele>
        <time>2020-02-14T08:07:04.360Z</time>
      </trkpt>
      <trkpt lat="42.61813" lon="2.00594">
        <ele>2272.7</ele>
        <time>2020-02-14T08:07:04.539Z</time>
      </trkpt>
      <trkpt lat="42.61816" lon="2.0059">
        <ele>2274.2</ele>
        <time>2020-02-14T08:07:06.335Z</time>
      </trkpt>
      <trkpt lat="42.61816" lon="2.0059">
        <ele>2273.7</ele>
        <time>2020-02-14T08:07:06.481Z</time>
      </trkpt>
      <trkpt lat="42.61818" lon="2.00589">
        <ele>2273.8</ele>
        <time>2020-02-14T08:07:07.167Z</time>
      </trkpt>
      <trkpt lat="42.61821" lon="2.00584">
        <ele>2274.2</ele>
        <time>2020-02-14T08:07:08.949Z</time>
      </trkpt>
      <trkpt lat="42.61819" lon="2.00579">
        <ele>2275.6</ele>
        <time>2020-02-14T08:07:10.900Z</time>
      </trkpt>
      <trkpt lat="42.6182" lon="2.00574">
        <ele>2276.2</ele>
        <time>2020-02-14T08:07:12.476Z</time>
      </trkpt>
      <trkpt lat="42.61821" lon="2.00569">
        <ele>2277</ele>
        <time>2020-02-14T08:07:13.878Z</time>
      </trkpt>
      <trkpt lat="42.61827" lon="2.00555">
        <ele>2277.5</ele>
        <time>2020-02-14T08:07:18.527Z</time>
      </trkpt>
      <trkpt lat="42.6182" lon="2.00545">
        <ele>2279.4</ele>
        <time>2020-02-14T08:07:22.452Z</time>
      </trkpt>
      <trkpt lat="42.61819" lon="2.00537">
        <ele>2281.9</ele>
        <time>2020-02-14T08:07:24.864Z</time>
      </trkpt>
      <trkpt lat="42.61817" lon="2.00531">
        <ele>2282.3</ele>
        <time>2020-02-14T08:07:26.689Z</time>
      </trkpt>
      <trkpt lat="42.61809" lon="2.00514">
        <ele>2284.2</ele>
        <time>2020-02-14T08:07:32.638Z</time>
      </trkpt>
      <trkpt lat="42.61804" lon="2.00503">
        <ele>2286.2</ele>
        <time>2020-02-14T08:07:36.362Z</time>
      </trkpt>
      <trkpt lat="42.61798" lon="2.00498">
        <ele>2286.6</ele>
        <time>2020-02-14T08:07:39.082Z</time>
      </trkpt>
      <trkpt lat="42.61798" lon="2.00496">
        <ele>2287.2</ele>
        <time>2020-02-14T08:07:39.731Z</time>
      </trkpt>
      <trkpt lat="42.61805" lon="2.00496">
        <ele>2287.6</ele>
        <time>2020-02-14T08:07:42.752Z</time>
      </trkpt>
      <trkpt lat="42.61817" lon="2.00495">
        <ele>2289</ele>
        <time>2020-02-14T08:07:47.412Z</time>
      </trkpt>
      <trkpt lat="42.61827" lon="2.00492">
        <ele>2287.6</ele>
        <time>2020-02-14T08:07:51.223Z</time>
      </trkpt>
      <trkpt lat="42.61829" lon="2.00489">
        <ele>2287.6</ele>
        <time>2020-02-14T08:07:52.308Z</time>
      </trkpt>
      <trkpt lat="42.61833" lon="2.00486">
        <ele>2288.6</ele>
        <time>2020-02-14T08:07:54.101Z</time>
      </trkpt>
      <trkpt lat="42.61833" lon="2.00478">
        <ele>2289.6</ele>
        <time>2020-02-14T08:07:56.353Z</time>
      </trkpt>
      <trkpt lat="42.61834" lon="2.00466">
        <ele>2290.6</ele>
        <time>2020-02-14T08:07:59.673Z</time>
      </trkpt>
      <trkpt lat="42.61836" lon="2.0046">
        <ele>2291</ele>
        <time>2020-02-14T08:08:01.772Z</time>
      </trkpt>
      <trkpt lat="42.6184" lon="2.00454">
        <ele>2292.5</ele>
        <time>2020-02-14T08:08:03.999Z</time>
      </trkpt>
      <trkpt lat="42.61831" lon="2.00444">
        <ele>2295.4</ele>
        <time>2020-02-14T08:08:08.654Z</time>
      </trkpt>
      <trkpt lat="42.61834" lon="2.00438">
        <ele>2297.3</ele>
        <time>2020-02-14T08:08:10.533Z</time>
      </trkpt>
      <trkpt lat="42.61835" lon="2.00435">
        <ele>2297.8</ele>
        <time>2020-02-14T08:08:11.434Z</time>
      </trkpt>
      <trkpt lat="42.6184" lon="2.00429">
        <ele>2300.1</ele>
        <time>2020-02-14T08:08:14.396Z</time>
      </trkpt>
      <trkpt lat="42.61842" lon="2.00428">
        <ele>2300.7</ele>
        <time>2020-02-14T08:08:15.297Z</time>
      </trkpt>
      <trkpt lat="42.6185" lon="2.00422">
        <ele>2303.9</ele>
        <time>2020-02-14T08:08:18.855Z</time>
      </trkpt>
      <trkpt lat="42.61852" lon="2.00413">
        <ele>2306.3</ele>
        <time>2020-02-14T08:08:21.560Z</time>
      </trkpt>
      <trkpt lat="42.61858" lon="2.00407">
        <ele>2308.7</ele>
        <time>2020-02-14T08:08:24.408Z</time>
      </trkpt>
      <trkpt lat="42.61857" lon="2.00406">
        <ele>2309.2</ele>
        <time>2020-02-14T08:08:24.923Z</time>
      </trkpt>
      <trkpt lat="42.61857" lon="2.004">
        <ele>2305.4</ele>
        <time>2020-02-14T08:08:26.998Z</time>
      </trkpt>
      <trkpt lat="42.61856" lon="2.00398">
        <ele>2310.7</ele>
        <time>2020-02-14T08:08:28.957Z</time>
      </trkpt>
      <trkpt lat="42.61856" lon="2.00396">
        <ele>2309.8</ele>
        <time>2020-02-14T08:08:29.475Z</time>
      </trkpt>
      <trkpt lat="42.61857" lon="2.00395">
        <ele>2304.4</ele>
        <time>2020-02-14T08:08:31.360Z</time>
      </trkpt>
      <trkpt lat="42.61857" lon="2.00394">
        <ele>2310.8</ele>
        <time>2020-02-14T08:08:33.576Z</time>
      </trkpt>
      <trkpt lat="42.61856" lon="2.0039">
        <ele>2311.3</ele>
        <time>2020-02-14T08:08:34.856Z</time>
      </trkpt>
      <trkpt lat="42.61855" lon="2.00382">
        <ele>2311.3</ele>
        <time>2020-02-14T08:08:37.099Z</time>
      </trkpt>
      <trkpt lat="42.61853" lon="2.00379">
        <ele>2311.2</ele>
        <time>2020-02-14T08:08:38.334Z</time>
      </trkpt>
      <trkpt lat="42.6185" lon="2.00367">
        <ele>2312.6</ele>
        <time>2020-02-14T08:08:41.900Z</time>
      </trkpt>
      <trkpt lat="42.61847" lon="2.00362">
        <ele>2313.1</ele>
        <time>2020-02-14T08:08:43.853Z</time>
      </trkpt>
      <trkpt lat="42.61844" lon="2.00349">
        <ele>2314.5</ele>
        <time>2020-02-14T08:08:47.664Z</time>
      </trkpt>
      <trkpt lat="42.61846" lon="2.00338">
        <ele>2314.6</ele>
        <time>2020-02-14T08:08:50.816Z</time>
      </trkpt>
      <trkpt lat="42.61846" lon="2.00332">
        <ele>2314.5</ele>
        <time>2020-02-14T08:08:52.566Z</time>
      </trkpt>
      <trkpt lat="42.61845" lon="2.00324">
        <ele>2315.1</ele>
        <time>2020-02-14T08:08:54.736Z</time>
      </trkpt>
      <trkpt lat="42.61846" lon="2.00316">
        <ele>2314.6</ele>
        <time>2020-02-14T08:08:57.245Z</time>
      </trkpt>
      <trkpt lat="42.61851" lon="2.00306">
        <ele>2316</ele>
        <time>2020-02-14T08:09:00.809Z</time>
      </trkpt>
      <trkpt lat="42.61856" lon="2.003">
        <ele>2317</ele>
        <time>2020-02-14T08:09:03.302Z</time>
      </trkpt>
      <trkpt lat="42.61857" lon="2.00296">
        <ele>2316.9</ele>
        <time>2020-02-14T08:09:04.523Z</time>
      </trkpt>
      <trkpt lat="42.61858" lon="2.00287">
        <ele>2316.4</ele>
        <time>2020-02-14T08:09:07.078Z</time>
      </trkpt>
      <trkpt lat="42.61861" lon="2.00272">
        <ele>2318.4</ele>
        <time>2020-02-14T08:09:11.632Z</time>
      </trkpt>
      <trkpt lat="42.61862" lon="2.0027">
        <ele>2319.4</ele>
        <time>2020-02-14T08:09:12.307Z</time>
      </trkpt>
      <trkpt lat="42.61866" lon="2.00258">
        <ele>2321.2</ele>
        <time>2020-02-14T08:09:16.200Z</time>
      </trkpt>
      <trkpt lat="42.6187" lon="2.00256">
        <ele>2323.2</ele>
        <time>2020-02-14T08:09:18.066Z</time>
      </trkpt>
      <trkpt lat="42.61874" lon="2.00254">
        <ele>2325.2</ele>
        <time>2020-02-14T08:09:20.041Z</time>
      </trkpt>
      <trkpt lat="42.61877" lon="2.0025">
        <ele>2327.1</ele>
        <time>2020-02-14T08:09:21.644Z</time>
      </trkpt>
      <trkpt lat="42.61879" lon="2.00246">
        <ele>2327.5</ele>
        <time>2020-02-14T08:09:22.940Z</time>
      </trkpt>
      <trkpt lat="42.61881" lon="2.00239">
        <ele>2329.4</ele>
        <time>2020-02-14T08:09:25.316Z</time>
      </trkpt>
      <trkpt lat="42.61885" lon="2.00238">
        <ele>2332.9</ele>
        <time>2020-02-14T08:09:27.291Z</time>
      </trkpt>
      <trkpt lat="42.61889" lon="2.0024">
        <ele>2334.7</ele>
        <time>2020-02-14T08:09:28.986Z</time>
      </trkpt>
      <trkpt lat="42.61894" lon="2.00242">
        <ele>2337.6</ele>
        <time>2020-02-14T08:09:31.124Z</time>
      </trkpt>
      <trkpt lat="42.61899" lon="2.00238">
        <ele>2341</ele>
        <time>2020-02-14T08:09:33.608Z</time>
      </trkpt>
      <trkpt lat="42.61905" lon="2.00229">
        <ele>2342.9</ele>
        <time>2020-02-14T08:09:37.221Z</time>
      </trkpt>
      <trkpt lat="42.61905" lon="2.00227">
        <ele>2343.5</ele>
        <time>2020-02-14T08:09:37.666Z</time>
      </trkpt>
      <trkpt lat="42.61906" lon="2.00215">
        <ele>2345.9</ele>
        <time>2020-02-14T08:09:41.217Z</time>
      </trkpt>
      <trkpt lat="42.61905" lon="2.00205">
        <ele>2346.8</ele>
        <time>2020-02-14T08:09:44.244Z</time>
      </trkpt>
      <trkpt lat="42.61904" lon="2.00196">
        <ele>2347.8</ele>
        <time>2020-02-14T08:09:46.899Z</time>
      </trkpt>
      <trkpt lat="42.61904" lon="2.00193">
        <ele>2348.7</ele>
        <time>2020-02-14T08:09:47.789Z</time>
      </trkpt>
      <trkpt lat="42.61906" lon="2.00182">
        <ele>2351</ele>
        <time>2020-02-14T08:09:50.927Z</time>
      </trkpt>
      <trkpt lat="42.61909" lon="2.00175">
        <ele>2354.5</ele>
        <time>2020-02-14T08:09:53.388Z</time>
      </trkpt>
      <trkpt lat="42.61908" lon="2.00167">
        <ele>2357.4</ele>
        <time>2020-02-14T08:09:56.035Z</time>
      </trkpt>
      <trkpt lat="42.61907" lon="2.00161">
        <ele>2360.2</ele>
        <time>2020-02-14T08:09:57.912Z</time>
      </trkpt>
      <trkpt lat="42.61906" lon="2.00154">
        <ele>2363.1</ele>
        <time>2020-02-14T08:10:00.399Z</time>
      </trkpt>
      <trkpt lat="42.61905" lon="2.00148">
        <ele>2365.6</ele>
        <time>2020-02-14T08:10:02.320Z</time>
      </trkpt>
      <trkpt lat="42.6191" lon="2.00141">
        <ele>2367.9</ele>
        <time>2020-02-14T08:10:05.149Z</time>
      </trkpt>
      <trkpt lat="42.61913" lon="2.00132">
        <ele>2369.9</ele>
        <time>2020-02-14T08:10:07.848Z</time>
      </trkpt>
      <trkpt lat="42.61916" lon="2.00122">
        <ele>2370.9</ele>
        <time>2020-02-14T08:10:10.859Z</time>
      </trkpt>
      <trkpt lat="42.61913" lon="2.00113">
        <ele>2372.2</ele>
        <time>2020-02-14T08:10:13.731Z</time>
      </trkpt>
      <trkpt lat="42.61911" lon="2.00112">
        <ele>2373.3</ele>
        <time>2020-02-14T08:10:14.499Z</time>
      </trkpt>
      <trkpt lat="42.61907" lon="2.00112">
        <ele>2374.2</ele>
        <time>2020-02-14T08:10:16.083Z</time>
      </trkpt>
      <trkpt lat="42.61907" lon="2.00112">
        <ele>2374.2</ele>
        <time>2020-02-14T08:10:16.181Z</time>
      </trkpt>
      <trkpt lat="42.61907" lon="2.00113">
        <ele>2374.2</ele>
        <time>2020-02-14T08:10:16.311Z</time>
      </trkpt>
      <trkpt lat="42.61907" lon="2.00113">
        <ele>2372.7</ele>
        <time>2020-02-14T08:10:16.872Z</time>
      </trkpt>
      <trkpt lat="42.61907" lon="2.00113">
        <ele>2372.2</ele>
        <time>2020-02-14T08:10:17.049Z</time>
      </trkpt>
      <trkpt lat="42.61908" lon="2.00112">
        <ele>2372.7</ele>
        <time>2020-02-14T08:10:17.342Z</time>
      </trkpt>
      <trkpt lat="42.61908" lon="2.00112">
        <ele>2373.3</ele>
        <time>2020-02-14T08:10:17.548Z</time>
      </trkpt>
      <trkpt lat="42.61908" lon="2.00112">
        <ele>2373.6</ele>
        <time>2020-02-14T08:10:17.670Z</time>
      </trkpt>
      <trkpt lat="42.61908" lon="2.00112">
        <ele>2373.3</ele>
        <time>2020-02-14T08:10:17.849Z</time>
      </trkpt>
      <trkpt lat="42.61908" lon="2.00112">
        <ele>2373.2</ele>
        <time>2020-02-14T08:10:17.879Z</time>
      </trkpt>
      <trkpt lat="42.61908" lon="2.00112">
        <ele>2373.6</ele>
        <time>2020-02-14T08:10:18.125Z</time>
      </trkpt>
      <trkpt lat="42.61908" lon="2.00111">
        <ele>2373.7</ele>
        <time>2020-02-14T08:10:18.212Z</time>
      </trkpt>
      <trkpt lat="42.61908" lon="2.00111">
        <ele>2373.7</ele>
        <time>2020-02-14T08:10:18.242Z</time>
      </trkpt>
      <trkpt lat="42.61908" lon="2.00111">
        <ele>2373.6</ele>
        <time>2020-02-14T08:10:18.258Z</time>
      </trkpt>
      <trkpt lat="42.61908" lon="2.00112">
        <ele>2373.6</ele>
        <time>2020-02-14T08:10:18.315Z</time>
      </trkpt>
      <trkpt lat="42.61908" lon="2.00111">
        <ele>2374.1</ele>
        <time>2020-02-14T08:10:18.497Z</time>
      </trkpt>
      <trkpt lat="42.61908" lon="2.00111">
        <ele>2367.5</ele>
        <time>2020-02-14T08:10:20.797Z</time>
      </trkpt>
      <trkpt lat="42.61908" lon="2.00111">
        <ele>2367.4</ele>
        <time>2020-02-14T08:10:20.895Z</time>
      </trkpt>
      <trkpt lat="42.61908" lon="2.00111">
        <ele>2375.6</ele>
        <time>2020-02-14T08:10:23.746Z</time>
      </trkpt>
      <trkpt lat="42.61908" lon="2.00111">
        <ele>2374.7</ele>
        <time>2020-02-14T08:10:24.071Z</time>
      </trkpt>
      <trkpt lat="42.61908" lon="2.00111">
        <ele>2371.3</ele>
        <time>2020-02-14T08:10:25.259Z</time>
      </trkpt>
      <trkpt lat="42.61908" lon="2.00111">
        <ele>2378.1</ele>
        <time>2020-02-14T08:10:27.627Z</time>
      </trkpt>
      <trkpt lat="42.61908" lon="2.00111">
        <ele>2372.3</ele>
        <time>2020-02-14T08:10:29.643Z</time>
      </trkpt>
      <trkpt lat="42.61908" lon="2.00111">
        <ele>2377.5</ele>
        <time>2020-02-14T08:10:31.476Z</time>
      </trkpt>
      <trkpt lat="42.61908" lon="2.00111">
        <ele>2373.6</ele>
        <time>2020-02-14T08:10:32.838Z</time>
      </trkpt>
      <trkpt lat="42.61908" lon="2.00111">
        <ele>2375.1</ele>
        <time>2020-02-14T08:10:33.370Z</time>
      </trkpt>
      <trkpt lat="42.61907" lon="2.00106">
        <ele>2375.1</ele>
        <time>2020-02-14T08:10:34.821Z</time>
      </trkpt>
      <trkpt lat="42.61903" lon="2.001">
        <ele>2375.6</ele>
        <time>2020-02-14T08:10:37.067Z</time>
      </trkpt>
      <trkpt lat="42.61902" lon="2.00098">
        <ele>2375.7</ele>
        <time>2020-02-14T08:10:37.962Z</time>
      </trkpt>
      <trkpt lat="42.61899" lon="2.00085">
        <ele>2377</ele>
        <time>2020-02-14T08:10:41.860Z</time>
      </trkpt>
      <trkpt lat="42.61894" lon="2.0008">
        <ele>2378.5</ele>
        <time>2020-02-14T08:10:44.268Z</time>
      </trkpt>
      <trkpt lat="42.61887" lon="2.00084">
        <ele>2380.5</ele>
        <time>2020-02-14T08:10:47.078Z</time>
      </trkpt>
      <trkpt lat="42.61884" lon="2.0009">
        <ele>2383.7</ele>
        <time>2020-02-14T08:10:49.468Z</time>
      </trkpt>
      <trkpt lat="42.61876" lon="2.0009">
        <ele>2384.8</ele>
        <time>2020-02-14T08:10:52.696Z</time>
      </trkpt>
      <trkpt lat="42.61868" lon="2.00087">
        <ele>2387.2</ele>
        <time>2020-02-14T08:10:55.813Z</time>
      </trkpt>
      <trkpt lat="42.61863" lon="2.00081">
        <ele>2388.1</ele>
        <time>2020-02-14T08:10:58.587Z</time>
      </trkpt>
      <trkpt lat="42.6186" lon="2.00077">
        <ele>2390</ele>
        <time>2020-02-14T08:11:00.369Z</time>
      </trkpt>
      <trkpt lat="42.61858" lon="2.00072">
        <ele>2391.4</ele>
        <time>2020-02-14T08:11:01.891Z</time>
      </trkpt>
      <trkpt lat="42.61855" lon="2.00066">
        <ele>2392.9</ele>
        <time>2020-02-14T08:11:04.004Z</time>
      </trkpt>
      <trkpt lat="42.61853" lon="2.00058">
        <ele>2395.7</ele>
        <time>2020-02-14T08:11:06.728Z</time>
      </trkpt>
      <trkpt lat="42.61848" lon="2.00051">
        <ele>2396.7</ele>
        <time>2020-02-14T08:11:09.345Z</time>
      </trkpt>
      <trkpt lat="42.61845" lon="2.00032">
        <ele>2400.1</ele>
        <time>2020-02-14T08:11:14.965Z</time>
      </trkpt>
      <trkpt lat="42.61841" lon="2.00026">
        <ele>2401</ele>
        <time>2020-02-14T08:11:17.089Z</time>
      </trkpt>
      <trkpt lat="42.61836" lon="2.00016">
        <ele>2403.5</ele>
        <time>2020-02-14T08:11:20.721Z</time>
      </trkpt>
      <trkpt lat="42.61831" lon="2.00008">
        <ele>2405.9</ele>
        <time>2020-02-14T08:11:23.960Z</time>
      </trkpt>
      <trkpt lat="42.61825" lon="2.00002">
        <ele>2408.3</ele>
        <time>2020-02-14T08:11:26.933Z</time>
      </trkpt>
      <trkpt lat="42.61819" lon="1.99993">
        <ele>2411.1</ele>
        <time>2020-02-14T08:11:30.429Z</time>
      </trkpt>
      <trkpt lat="42.61818" lon="1.99987">
        <ele>2414.5</ele>
        <time>2020-02-14T08:11:32.477Z</time>
      </trkpt>
      <trkpt lat="42.61816" lon="1.99984">
        <ele>2415.9</ele>
        <time>2020-02-14T08:11:33.782Z</time>
      </trkpt>
      <trkpt lat="42.6181" lon="1.99978">
        <ele>2419.4</ele>
        <time>2020-02-14T08:11:36.684Z</time>
      </trkpt>
      <trkpt lat="42.61806" lon="1.99977">
        <ele>2421.8</ele>
        <time>2020-02-14T08:11:38.637Z</time>
      </trkpt>
      <trkpt lat="42.61801" lon="1.99975">
        <ele>2425.2</ele>
        <time>2020-02-14T08:11:41.062Z</time>
      </trkpt>
      <trkpt lat="42.61798" lon="1.99975">
        <ele>2427.6</ele>
        <time>2020-02-14T08:11:42.456Z</time>
      </trkpt>
      <trkpt lat="42.61797" lon="1.99971">
        <ele>2430.9</ele>
        <time>2020-02-14T08:11:44.111Z</time>
      </trkpt>
      <trkpt lat="42.61792" lon="1.99971">
        <ele>2433.7</ele>
        <time>2020-02-14T08:11:46.319Z</time>
      </trkpt>
      <trkpt lat="42.61785" lon="1.99966">
        <ele>2437.1</ele>
        <time>2020-02-14T08:11:49.560Z</time>
      </trkpt>
      <trkpt lat="42.61783" lon="1.99964">
        <ele>2438.1</ele>
        <time>2020-02-14T08:11:50.792Z</time>
      </trkpt>
      <trkpt lat="42.61782" lon="1.99964">
        <ele>2441.4</ele>
        <time>2020-02-14T08:11:51.961Z</time>
      </trkpt>
      <trkpt lat="42.61776" lon="1.99958">
        <ele>2444.8</ele>
        <time>2020-02-14T08:11:55.232Z</time>
      </trkpt>
      <trkpt lat="42.61774" lon="1.99949">
        <ele>2446.7</ele>
        <time>2020-02-14T08:11:57.947Z</time>
      </trkpt>
      <trkpt lat="42.6177" lon="1.99951">
        <ele>2449.1</ele>
        <time>2020-02-14T08:11:59.889Z</time>
      </trkpt>
      <trkpt lat="42.61769" lon="1.9995">
        <ele>2450.5</ele>
        <time>2020-02-14T08:12:00.603Z</time>
      </trkpt>
      <trkpt lat="42.61764" lon="1.99948">
        <ele>2452.6</ele>
        <time>2020-02-14T08:12:02.632Z</time>
      </trkpt>
      <trkpt lat="42.61761" lon="1.99946">
        <ele>2455.4</ele>
        <time>2020-02-14T08:12:04.297Z</time>
      </trkpt>
      <trkpt lat="42.61759" lon="1.99945">
        <ele>2456.9</ele>
        <time>2020-02-14T08:12:05.341Z</time>
      </trkpt>
      <trkpt lat="42.61758" lon="1.99945">
        <ele>2456.8</ele>
        <time>2020-02-14T08:12:05.520Z</time>
      </trkpt>
      <trkpt lat="42.61758" lon="1.99945">
        <ele>2458.8</ele>
        <time>2020-02-14T08:12:06.193Z</time>
      </trkpt>
      <trkpt lat="42.61755" lon="1.9994">
        <ele>2460.7</ele>
        <time>2020-02-14T08:12:08.035Z</time>
      </trkpt>
      <trkpt lat="42.6175" lon="1.99938">
        <ele>2463</ele>
        <time>2020-02-14T08:12:10.210Z</time>
      </trkpt>
      <trkpt lat="42.61743" lon="1.99935">
        <ele>2465.4</ele>
        <time>2020-02-14T08:12:13.180Z</time>
      </trkpt>
      <trkpt lat="42.61743" lon="1.99928">
        <ele>2468.3</ele>
        <time>2020-02-14T08:12:15.481Z</time>
      </trkpt>
      <trkpt lat="42.6174" lon="1.99922">
        <ele>2471.7</ele>
        <time>2020-02-14T08:12:17.981Z</time>
      </trkpt>
      <trkpt lat="42.61738" lon="1.99917">
        <ele>2475.2</ele>
        <time>2020-02-14T08:12:19.902Z</time>
      </trkpt>
      <trkpt lat="42.61736" lon="1.99914">
        <ele>2478</ele>
        <time>2020-02-14T08:12:21.358Z</time>
      </trkpt>
      <trkpt lat="42.61733" lon="1.99905">
        <ele>2479.5</ele>
        <time>2020-02-14T08:12:24.424Z</time>
      </trkpt>
      <trkpt lat="42.61732" lon="1.99904">
        <ele>2480.8</ele>
        <time>2020-02-14T08:12:25.034Z</time>
      </trkpt>
      <trkpt lat="42.61729" lon="1.99902">
        <ele>2483.7</ele>
        <time>2020-02-14T08:12:26.610Z</time>
      </trkpt>
      <trkpt lat="42.61728" lon="1.99901">
        <ele>2485.6</ele>
        <time>2020-02-14T08:12:27.559Z</time>
      </trkpt>
      <trkpt lat="42.61725" lon="1.99888">
        <ele>2487.2</ele>
        <time>2020-02-14T08:12:31.302Z</time>
      </trkpt>
      <trkpt lat="42.61722" lon="1.99882">
        <ele>2490.5</ele>
        <time>2020-02-14T08:12:33.719Z</time>
      </trkpt>
      <trkpt lat="42.61718" lon="1.9988">
        <ele>2493.3</ele>
        <time>2020-02-14T08:12:35.648Z</time>
      </trkpt>
      <trkpt lat="42.61716" lon="1.99879">
        <ele>2495.7</ele>
        <time>2020-02-14T08:12:36.719Z</time>
      </trkpt>
      <trkpt lat="42.61715" lon="1.99876">
        <ele>2498.1</ele>
        <time>2020-02-14T08:12:38.203Z</time>
      </trkpt>
      <trkpt lat="42.61712" lon="1.99875">
        <ele>2500.5</ele>
        <time>2020-02-14T08:12:39.616Z</time>
      </trkpt>
      <trkpt lat="42.6171" lon="1.9987">
        <ele>2502.5</ele>
        <time>2020-02-14T08:12:41.382Z</time>
      </trkpt>
      <trkpt lat="42.61707" lon="1.99866">
        <ele>2504.9</ele>
        <time>2020-02-14T08:12:43.175Z</time>
      </trkpt>
      <trkpt lat="42.61705" lon="1.99864">
        <ele>2508.3</ele>
        <time>2020-02-14T08:12:44.556Z</time>
      </trkpt>
      <trkpt lat="42.61703" lon="1.99862">
        <ele>2511.1</ele>
        <time>2020-02-14T08:12:46.039Z</time>
      </trkpt>
      <trkpt lat="42.61699" lon="1.99857">
        <ele>2513.6</ele>
        <time>2020-02-14T08:12:48.527Z</time>
      </trkpt>
      <trkpt lat="42.61695" lon="1.99851">
        <ele>2516</ele>
        <time>2020-02-14T08:12:50.838Z</time>
      </trkpt>
      <trkpt lat="42.61688" lon="1.99846">
        <ele>2519.4</ele>
        <time>2020-02-14T08:12:54.046Z</time>
      </trkpt>
      <trkpt lat="42.61687" lon="1.99844">
        <ele>2520.7</ele>
        <time>2020-02-14T08:12:54.771Z</time>
      </trkpt>
      <trkpt lat="42.61684" lon="1.99841">
        <ele>2523.1</ele>
        <time>2020-02-14T08:12:56.602Z</time>
      </trkpt>
      <trkpt lat="42.61682" lon="1.99838">
        <ele>2525.6</ele>
        <time>2020-02-14T08:12:58.123Z</time>
      </trkpt>
      <trkpt lat="42.61679" lon="1.99833">
        <ele>2527.9</ele>
        <time>2020-02-14T08:12:59.984Z</time>
      </trkpt>
      <trkpt lat="42.61676" lon="1.99834">
        <ele>2529</ele>
        <time>2020-02-14T08:13:01.338Z</time>
      </trkpt>
      <trkpt lat="42.61672" lon="1.99832">
        <ele>2530.9</ele>
        <time>2020-02-14T08:13:03.152Z</time>
      </trkpt>
      <trkpt lat="42.61671" lon="1.99831">
        <ele>2532.4</ele>
        <time>2020-02-14T08:13:03.784Z</time>
      </trkpt>
      <trkpt lat="42.61669" lon="1.99827">
        <ele>2534.7</ele>
        <time>2020-02-14T08:13:05.347Z</time>
      </trkpt>
      <trkpt lat="42.61666" lon="1.99821">
        <ele>2536.1</ele>
        <time>2020-02-14T08:13:07.511Z</time>
      </trkpt>
      <trkpt lat="42.6166" lon="1.99818">
        <ele>2537.5</ele>
        <time>2020-02-14T08:13:09.860Z</time>
      </trkpt>
      <trkpt lat="42.61659" lon="1.99818">
        <ele>2540.4</ele>
        <time>2020-02-14T08:13:10.934Z</time>
      </trkpt>
      <trkpt lat="42.61657" lon="1.99818">
        <ele>2543.8</ele>
        <time>2020-02-14T08:13:12.486Z</time>
      </trkpt>
      <trkpt lat="42.61652" lon="1.99822">
        <ele>2544.8</ele>
        <time>2020-02-14T08:13:14.743Z</time>
      </trkpt>
      <trkpt lat="42.61645" lon="1.99821">
        <ele>2545.8</ele>
        <time>2020-02-14T08:13:17.425Z</time>
      </trkpt>
      <trkpt lat="42.61642" lon="1.99818">
        <ele>2549.2</ele>
        <time>2020-02-14T08:13:19.310Z</time>
      </trkpt>
      <trkpt lat="42.61639" lon="1.99816">
        <ele>2551.6</ele>
        <time>2020-02-14T08:13:20.732Z</time>
      </trkpt>
      <trkpt lat="42.61639" lon="1.99813">
        <ele>2553</ele>
        <time>2020-02-14T08:13:21.556Z</time>
      </trkpt>
      <trkpt lat="42.61632" lon="1.99812">
        <ele>2554.4</ele>
        <time>2020-02-14T08:13:24.527Z</time>
      </trkpt>
      <trkpt lat="42.61626" lon="1.99807">
        <ele>2557.7</ele>
        <time>2020-02-14T08:13:27.282Z</time>
      </trkpt>
      <trkpt lat="42.61626" lon="1.99805">
        <ele>2559.3</ele>
        <time>2020-02-14T08:13:28.020Z</time>
      </trkpt>
      <trkpt lat="42.61627" lon="1.99802">
        <ele>2562.1</ele>
        <time>2020-02-14T08:13:29.328Z</time>
      </trkpt>
      <trkpt lat="42.61627" lon="1.99799">
        <ele>2564</ele>
        <time>2020-02-14T08:13:30.521Z</time>
      </trkpt>
      <trkpt lat="42.61626" lon="1.99796">
        <ele>2564.9</ele>
        <time>2020-02-14T08:13:31.338Z</time>
      </trkpt>
      <trkpt lat="42.61622" lon="1.99795">
        <ele>2567.3</ele>
        <time>2020-02-14T08:13:33.014Z</time>
      </trkpt>
      <trkpt lat="42.61619" lon="1.99791">
        <ele>2570.3</ele>
        <time>2020-02-14T08:13:35.045Z</time>
      </trkpt>
      <trkpt lat="42.61616" lon="1.99783">
        <ele>2573.7</ele>
        <time>2020-02-14T08:13:37.715Z</time>
      </trkpt>
      <trkpt lat="42.61615" lon="1.99783">
        <ele>2575.1</ele>
        <time>2020-02-14T08:13:38.431Z</time>
      </trkpt>
      <trkpt lat="42.61611" lon="1.9978">
        <ele>2576.6</ele>
        <time>2020-02-14T08:13:40.167Z</time>
      </trkpt>
      <trkpt lat="42.61606" lon="1.99776">
        <ele>2578.4</ele>
        <time>2020-02-14T08:13:42.415Z</time>
      </trkpt>
      <trkpt lat="42.61603" lon="1.99777">
        <ele>2579.4</ele>
        <time>2020-02-14T08:13:43.484Z</time>
      </trkpt>
      <trkpt lat="42.61602" lon="1.99776">
        <ele>2580.3</ele>
        <time>2020-02-14T08:13:44.252Z</time>
      </trkpt>
      <trkpt lat="42.61596" lon="1.99778">
        <ele>2582.3</ele>
        <time>2020-02-14T08:13:46.427Z</time>
      </trkpt>
      <trkpt lat="42.61594" lon="1.9978">
        <ele>2583.2</ele>
        <time>2020-02-14T08:13:47.672Z</time>
      </trkpt>
      <trkpt lat="42.61589" lon="1.99783">
        <ele>2585.6</ele>
        <time>2020-02-14T08:13:49.793Z</time>
      </trkpt>
      <trkpt lat="42.61589" lon="1.99781">
        <ele>2585.6</ele>
        <time>2020-02-14T08:13:50.477Z</time>
      </trkpt>
      <trkpt lat="42.61586" lon="1.99776">
        <ele>2588.1</ele>
        <time>2020-02-14T08:13:52.611Z</time>
      </trkpt>
      <trkpt lat="42.61583" lon="1.99773">
        <ele>2591</ele>
        <time>2020-02-14T08:13:54.326Z</time>
      </trkpt>
      <trkpt lat="42.61578" lon="1.99773">
        <ele>2594.4</ele>
        <time>2020-02-14T08:13:56.764Z</time>
      </trkpt>
      <trkpt lat="42.61575" lon="1.99773">
        <ele>2596.7</ele>
        <time>2020-02-14T08:13:58.120Z</time>
      </trkpt>
      <trkpt lat="42.61571" lon="1.99765">
        <ele>2599.5</ele>
        <time>2020-02-14T08:14:00.974Z</time>
      </trkpt>
      <trkpt lat="42.61569" lon="1.99757">
        <ele>2603</ele>
        <time>2020-02-14T08:14:03.559Z</time>
      </trkpt>
      <trkpt lat="42.61566" lon="1.99757">
        <ele>2603.9</ele>
        <time>2020-02-14T08:14:04.717Z</time>
      </trkpt>
      <trkpt lat="42.61564" lon="1.99755">
        <ele>2607.3</ele>
        <time>2020-02-14T08:14:06.082Z</time>
      </trkpt>
      <trkpt lat="42.61562" lon="1.9975">
        <ele>2609.3</ele>
        <time>2020-02-14T08:14:08.070Z</time>
      </trkpt>
      <trkpt lat="42.61555" lon="1.99746">
        <ele>2611.1</ele>
        <time>2020-02-14T08:14:10.866Z</time>
      </trkpt>
      <trkpt lat="42.61553" lon="1.99743">
        <ele>2613</ele>
        <time>2020-02-14T08:14:12.130Z</time>
      </trkpt>
      <trkpt lat="42.6155" lon="1.99742">
        <ele>2614.5</ele>
        <time>2020-02-14T08:14:13.538Z</time>
      </trkpt>
      <trkpt lat="42.61548" lon="1.99739">
        <ele>2617.4</ele>
        <time>2020-02-14T08:14:14.992Z</time>
      </trkpt>
      <trkpt lat="42.61542" lon="1.99736">
        <ele>2618.8</ele>
        <time>2020-02-14T08:14:17.623Z</time>
      </trkpt>
      <trkpt lat="42.61539" lon="1.99728">
        <ele>2621.7</ele>
        <time>2020-02-14T08:14:20.382Z</time>
      </trkpt>
      <trkpt lat="42.61533" lon="1.99719">
        <ele>2623.6</ele>
        <time>2020-02-14T08:14:24.030Z</time>
      </trkpt>
      <trkpt lat="42.61531" lon="1.99717">
        <ele>2625</ele>
        <time>2020-02-14T08:14:25.148Z</time>
      </trkpt>
      <trkpt lat="42.61525" lon="1.99706">
        <ele>2628.4</ele>
        <time>2020-02-14T08:14:29.086Z</time>
      </trkpt>
      <trkpt lat="42.61526" lon="1.99693">
        <ele>2630.3</ele>
        <time>2020-02-14T08:14:33.033Z</time>
      </trkpt>
      <trkpt lat="42.61527" lon="1.99683">
        <ele>2632.7</ele>
        <time>2020-02-14T08:14:36.041Z</time>
      </trkpt>
      <trkpt lat="42.61524" lon="1.99674">
        <ele>2635.1</ele>
        <time>2020-02-14T08:14:38.978Z</time>
      </trkpt>
      <trkpt lat="42.61521" lon="1.99665">
        <ele>2637.5</ele>
        <time>2020-02-14T08:14:41.686Z</time>
      </trkpt>
      <trkpt lat="42.61518" lon="1.99658">
        <ele>2640</ele>
        <time>2020-02-14T08:14:44.195Z</time>
      </trkpt>
      <trkpt lat="42.61517" lon="1.99649">
        <ele>2642.9</ele>
        <time>2020-02-14T08:14:46.967Z</time>
      </trkpt>
      <trkpt lat="42.61518" lon="1.99639">
        <ele>2645.3</ele>
        <time>2020-02-14T08:14:49.885Z</time>
      </trkpt>
      <trkpt lat="42.61515" lon="1.99631">
        <ele>2646.8</ele>
        <time>2020-02-14T08:14:52.666Z</time>
      </trkpt>
      <trkpt lat="42.61512" lon="1.99625">
        <ele>2649.2</ele>
        <time>2020-02-14T08:14:54.743Z</time>
      </trkpt>
      <trkpt lat="42.61509" lon="1.99615">
        <ele>2651.9</ele>
        <time>2020-02-14T08:14:58.061Z</time>
      </trkpt>
      <trkpt lat="42.61506" lon="1.99609">
        <ele>2654.4</ele>
        <time>2020-02-14T08:15:00.109Z</time>
      </trkpt>
      <trkpt lat="42.61504" lon="1.99602">
        <ele>2656.4</ele>
        <time>2020-02-14T08:15:02.550Z</time>
      </trkpt>
      <trkpt lat="42.61502" lon="1.99595">
        <ele>2659.2</ele>
        <time>2020-02-14T08:15:04.831Z</time>
      </trkpt>
      <trkpt lat="42.61499" lon="1.99585">
        <ele>2661.1</ele>
        <time>2020-02-14T08:15:08.081Z</time>
      </trkpt>
      <trkpt lat="42.61497" lon="1.99575">
        <ele>2663.5</ele>
        <time>2020-02-14T08:15:11.040Z</time>
      </trkpt>
      <trkpt lat="42.61495" lon="1.9957">
        <ele>2665.4</ele>
        <time>2020-02-14T08:15:12.909Z</time>
      </trkpt>
      <trkpt lat="42.61492" lon="1.9956">
        <ele>2666.9</ele>
        <time>2020-02-14T08:15:16.047Z</time>
      </trkpt>
      <trkpt lat="42.61492" lon="1.99552">
        <ele>2668.9</ele>
        <time>2020-02-14T08:15:18.290Z</time>
      </trkpt>
      <trkpt lat="42.61489" lon="1.99545">
        <ele>2670.7</ele>
        <time>2020-02-14T08:15:20.661Z</time>
      </trkpt>
      <trkpt lat="42.61489" lon="1.99542">
        <ele>2671.3</ele>
        <time>2020-02-14T08:15:21.534Z</time>
      </trkpt>
      <trkpt lat="42.61483" lon="1.9953">
        <ele>2673.7</ele>
        <time>2020-02-14T08:15:25.628Z</time>
      </trkpt>
      <trkpt lat="42.6148" lon="1.99522">
        <ele>2672.7</ele>
        <time>2020-02-14T08:15:28.164Z</time>
      </trkpt>
      <trkpt lat="42.61475" lon="1.99511">
        <ele>2674.5</ele>
        <time>2020-02-14T08:15:31.991Z</time>
      </trkpt>
      <trkpt lat="42.61469" lon="1.99495">
        <ele>2675.6</ele>
        <time>2020-02-14T08:15:37.023Z</time>
      </trkpt>
      <trkpt lat="42.61465" lon="1.99481">
        <ele>2676.5</ele>
        <time>2020-02-14T08:15:41.428Z</time>
      </trkpt>
      <trkpt lat="42.61464" lon="1.99478">
        <ele>2672.1</ele>
        <time>2020-02-14T08:15:43.156Z</time>
      </trkpt>
      <trkpt lat="42.61464" lon="1.99478">
        <ele>2677.4</ele>
        <time>2020-02-14T08:15:44.997Z</time>
      </trkpt>
      <trkpt lat="42.61464" lon="1.99478">
        <ele>2669.2</ele>
        <time>2020-02-14T08:15:47.835Z</time>
      </trkpt>
      <trkpt lat="42.61464" lon="1.99478">
        <ele>2676.1</ele>
        <time>2020-02-14T08:15:50.211Z</time>
      </trkpt>
      <trkpt lat="42.61464" lon="1.99478">
        <ele>2679.3</ele>
        <time>2020-02-14T08:15:51.339Z</time>
      </trkpt>
      <trkpt lat="42.61464" lon="1.99478">
        <ele>2682.8</ele>
        <time>2020-02-14T08:15:52.527Z</time>
      </trkpt>
      <trkpt lat="42.61464" lon="1.99478">
        <ele>2677</ele>
        <time>2020-02-14T08:15:54.529Z</time>
      </trkpt>
      <trkpt lat="42.61464" lon="1.99478">
        <ele>2677.5</ele>
        <time>2020-02-14T08:15:54.697Z</time>
      </trkpt>
      <trkpt lat="42.61464" lon="1.99478">
        <ele>2674.1</ele>
        <time>2020-02-14T08:15:55.872Z</time>
      </trkpt>
      <trkpt lat="42.61464" lon="1.99478">
        <ele>2678.9</ele>
        <time>2020-02-14T08:15:57.548Z</time>
      </trkpt>
      <trkpt lat="42.61464" lon="1.99478">
        <ele>2674</ele>
        <time>2020-02-14T08:15:59.249Z</time>
      </trkpt>
      <trkpt lat="42.61464" lon="1.99478">
        <ele>2677.4</ele>
        <time>2020-02-14T08:16:00.423Z</time>
      </trkpt>
      <trkpt lat="42.61464" lon="1.99478">
        <ele>2682.2</ele>
        <time>2020-02-14T08:16:02.102Z</time>
      </trkpt>
      <trkpt lat="42.61464" lon="1.99478">
        <ele>2676.9</ele>
        <time>2020-02-14T08:16:03.949Z</time>
      </trkpt>
      <trkpt lat="42.61463" lon="1.99476">
        <ele>2677</ele>
        <time>2020-02-14T08:16:04.519Z</time>
      </trkpt>
      <trkpt lat="42.61463" lon="1.99476">
        <ele>2677.4</ele>
        <time>2020-02-14T08:16:04.801Z</time>
      </trkpt>
      <trkpt lat="42.61464" lon="1.99476">
        <ele>2676.9</ele>
        <time>2020-02-14T08:16:05.184Z</time>
      </trkpt>
      <trkpt lat="42.61461" lon="1.99474">
        <ele>2677.4</ele>
        <time>2020-02-14T08:16:06.193Z</time>
      </trkpt>
      <trkpt lat="42.61464" lon="1.99474">
        <ele>2678</ele>
        <time>2020-02-14T08:16:07.364Z</time>
      </trkpt>
      <trkpt lat="42.61464" lon="1.99475">
        <ele>2677.4</ele>
        <time>2020-02-14T08:16:07.576Z</time>
      </trkpt>
      <trkpt lat="42.61464" lon="1.99474">
        <ele>2679.3</ele>
        <time>2020-02-14T08:16:08.268Z</time>
      </trkpt>
      <trkpt lat="42.61464" lon="1.99473">
        <ele>2677.9</ele>
        <time>2020-02-14T08:16:08.799Z</time>
      </trkpt>
      <trkpt lat="42.61465" lon="1.99475">
        <ele>2679.3</ele>
        <time>2020-02-14T08:16:09.467Z</time>
      </trkpt>
      <trkpt lat="42.61465" lon="1.99475">
        <ele>2677.9</ele>
        <time>2020-02-14T08:16:09.955Z</time>
      </trkpt>
      <trkpt lat="42.61465" lon="1.99475">
        <ele>2679.3</ele>
        <time>2020-02-14T08:16:10.489Z</time>
      </trkpt>
      <trkpt lat="42.61465" lon="1.99475">
        <ele>2680.4</ele>
        <time>2020-02-14T08:16:10.847Z</time>
      </trkpt>
      <trkpt lat="42.61465" lon="1.99475">
        <ele>2684.7</ele>
        <time>2020-02-14T08:16:12.339Z</time>
      </trkpt>
      <trkpt lat="42.61465" lon="1.99475">
        <ele>2681.7</ele>
        <time>2020-02-14T08:16:13.353Z</time>
      </trkpt>
      <trkpt lat="42.61462" lon="1.99472">
        <ele>2681.4</ele>
        <time>2020-02-14T08:16:14.837Z</time>
      </trkpt>
      <trkpt lat="42.61462" lon="1.99472">
        <ele>2680.8</ele>
        <time>2020-02-14T08:16:15.182Z</time>
      </trkpt>
      <trkpt lat="42.6146" lon="1.99464">
        <ele>2679.4</ele>
        <time>2020-02-14T08:16:17.636Z</time>
      </trkpt>
      <trkpt lat="42.61458" lon="1.99444">
        <ele>2677.9</ele>
        <time>2020-02-14T08:16:23.346Z</time>
      </trkpt>
      <trkpt lat="42.61455" lon="1.99433">
        <ele>2674.5</ele>
        <time>2020-02-14T08:16:27.011Z</time>
      </trkpt>
      <trkpt lat="42.61454" lon="1.99426">
        <ele>2671.2</ele>
        <time>2020-02-14T08:16:29.200Z</time>
      </trkpt>
      <trkpt lat="42.61453" lon="1.99415">
        <ele>2670.3</ele>
        <time>2020-02-14T08:16:32.433Z</time>
      </trkpt>
      <trkpt lat="42.61454" lon="1.994">
        <ele>2669.3</ele>
        <time>2020-02-14T08:16:36.740Z</time>
      </trkpt>
      <trkpt lat="42.61455" lon="1.99389">
        <ele>2666.8</ele>
        <time>2020-02-14T08:16:40.088Z</time>
      </trkpt>
      <trkpt lat="42.61456" lon="1.99384">
        <ele>2664.5</ele>
        <time>2020-02-14T08:16:41.509Z</time>
      </trkpt>
      <trkpt lat="42.61456" lon="1.99371">
        <ele>2662.1</ele>
        <time>2020-02-14T08:16:45.439Z</time>
      </trkpt>
      <trkpt lat="42.61456" lon="1.99366">
        <ele>2661.1</ele>
        <time>2020-02-14T08:16:46.785Z</time>
      </trkpt>
      <trkpt lat="42.61458" lon="1.99363">
        <ele>2660.2</ele>
        <time>2020-02-14T08:16:48.000Z</time>
      </trkpt>
      <trkpt lat="42.6146" lon="1.9936">
        <ele>2657.3</ele>
        <time>2020-02-14T08:16:49.516Z</time>
      </trkpt>
      <trkpt lat="42.61461" lon="1.99358">
        <ele>2657.7</ele>
        <time>2020-02-14T08:16:50.314Z</time>
      </trkpt>
      <trkpt lat="42.61461" lon="1.99352">
        <ele>2659.6</ele>
        <time>2020-02-14T08:16:51.917Z</time>
      </trkpt>
      <trkpt lat="42.61463" lon="1.99349">
        <ele>2656.3</ele>
        <time>2020-02-14T08:16:53.485Z</time>
      </trkpt>
      <trkpt lat="42.61464" lon="1.99347">
        <ele>2655.3</ele>
        <time>2020-02-14T08:16:54.268Z</time>
      </trkpt>
      <trkpt lat="42.61467" lon="1.99343">
        <ele>2655.8</ele>
        <time>2020-02-14T08:16:56.070Z</time>
      </trkpt>
      <trkpt lat="42.61468" lon="1.99335">
        <ele>2653.5</ele>
        <time>2020-02-14T08:16:58.663Z</time>
      </trkpt>
      <trkpt lat="42.6147" lon="1.99326">
        <ele>2651.6</ele>
        <time>2020-02-14T08:17:01.348Z</time>
      </trkpt>
      <trkpt lat="42.6147" lon="1.99325">
        <ele>2650.5</ele>
        <time>2020-02-14T08:17:01.885Z</time>
      </trkpt>
      <trkpt lat="42.6147" lon="1.99323">
        <ele>2651.1</ele>
        <time>2020-02-14T08:17:02.463Z</time>
      </trkpt>
      <trkpt lat="42.61471" lon="1.9932">
        <ele>2652.5</ele>
        <time>2020-02-14T08:17:03.480Z</time>
      </trkpt>
      <trkpt lat="42.61471" lon="1.99312">
        <ele>2651.1</ele>
        <time>2020-02-14T08:17:05.639Z</time>
      </trkpt>
      <trkpt lat="42.61472" lon="1.99309">
        <ele>2650</ele>
        <time>2020-02-14T08:17:06.594Z</time>
      </trkpt>
      <trkpt lat="42.61473" lon="1.99292">
        <ele>2647.1</ele>
        <time>2020-02-14T08:17:11.574Z</time>
      </trkpt>
      <trkpt lat="42.61473" lon="1.99286">
        <ele>2645.2</ele>
        <time>2020-02-14T08:17:13.313Z</time>
      </trkpt>
      <trkpt lat="42.61475" lon="1.9927">
        <ele>2642.8</ele>
        <time>2020-02-14T08:17:17.992Z</time>
      </trkpt>
      <trkpt lat="42.61475" lon="1.99261">
        <ele>2639.4</ele>
        <time>2020-02-14T08:17:20.783Z</time>
      </trkpt>
      <trkpt lat="42.61474" lon="1.99258">
        <ele>2638.5</ele>
        <time>2020-02-14T08:17:21.835Z</time>
      </trkpt>
      <trkpt lat="42.61475" lon="1.99248">
        <ele>2635.1</ele>
        <time>2020-02-14T08:17:24.976Z</time>
      </trkpt>
      <trkpt lat="42.61475" lon="1.99246">
        <ele>2635.1</ele>
        <time>2020-02-14T08:17:25.402Z</time>
      </trkpt>
      <trkpt lat="42.61476" lon="1.99241">
        <ele>2634.3</ele>
        <time>2020-02-14T08:17:26.867Z</time>
      </trkpt>
      <trkpt lat="42.61476" lon="1.99233">
        <ele>2631.3</ele>
        <time>2020-02-14T08:17:29.566Z</time>
      </trkpt>
      <trkpt lat="42.61478" lon="1.99227">
        <ele>2630.3</ele>
        <time>2020-02-14T08:17:31.264Z</time>
      </trkpt>
      <trkpt lat="42.61481" lon="1.99217">
        <ele>2629</ele>
        <time>2020-02-14T08:17:34.570Z</time>
      </trkpt>
      <trkpt lat="42.61483" lon="1.9921">
        <ele>2626</ele>
        <time>2020-02-14T08:17:36.879Z</time>
      </trkpt>
      <trkpt lat="42.61487" lon="1.99197">
        <ele>2625</ele>
        <time>2020-02-14T08:17:40.852Z</time>
      </trkpt>
      <trkpt lat="42.61486" lon="1.99191">
        <ele>2623.2</ele>
        <time>2020-02-14T08:17:42.765Z</time>
      </trkpt>
      <trkpt lat="42.61487" lon="1.99185">
        <ele>2620.2</ele>
        <time>2020-02-14T08:17:44.918Z</time>
      </trkpt>
      <trkpt lat="42.61487" lon="1.9918">
        <ele>2619.7</ele>
        <time>2020-02-14T08:17:46.215Z</time>
      </trkpt>
      <trkpt lat="42.61486" lon="1.99173">
        <ele>2619.3</ele>
        <time>2020-02-14T08:17:48.144Z</time>
      </trkpt>
      <trkpt lat="42.61486" lon="1.99168">
        <ele>2619.7</ele>
        <time>2020-02-14T08:17:49.828Z</time>
      </trkpt>
      <trkpt lat="42.61482" lon="1.99159">
        <ele>2616</ele>
        <time>2020-02-14T08:17:53.050Z</time>
      </trkpt>
      <trkpt lat="42.61482" lon="1.99157">
        <ele>2616.5</ele>
        <time>2020-02-14T08:17:53.468Z</time>
      </trkpt>
      <trkpt lat="42.61482" lon="1.99141">
        <ele>2615</ele>
        <time>2020-02-14T08:17:58.060Z</time>
      </trkpt>
      <trkpt lat="42.61481" lon="1.99139">
        <ele>2614</ele>
        <time>2020-02-14T08:17:58.798Z</time>
      </trkpt>
      <trkpt lat="42.61481" lon="1.99137">
        <ele>2611.1</ele>
        <time>2020-02-14T08:18:00.051Z</time>
      </trkpt>
      <trkpt lat="42.61481" lon="1.99134">
        <ele>2614.4</ele>
        <time>2020-02-14T08:18:01.421Z</time>
      </trkpt>
      <trkpt lat="42.6148" lon="1.99132">
        <ele>2613.5</ele>
        <time>2020-02-14T08:18:01.991Z</time>
      </trkpt>
      <trkpt lat="42.61481" lon="1.99126">
        <ele>2611.2</ele>
        <time>2020-02-14T08:18:03.917Z</time>
      </trkpt>
      <trkpt lat="42.61482" lon="1.99123">
        <ele>2610.2</ele>
        <time>2020-02-14T08:18:04.953Z</time>
      </trkpt>
      <trkpt lat="42.61481" lon="1.99112">
        <ele>2608.8</ele>
        <time>2020-02-14T08:18:08.164Z</time>
      </trkpt>
      <trkpt lat="42.61481" lon="1.99107">
        <ele>2606.9</ele>
        <time>2020-02-14T08:18:09.808Z</time>
      </trkpt>
      <trkpt lat="42.6148" lon="1.99094">
        <ele>2608.2</ele>
        <time>2020-02-14T08:18:13.429Z</time>
      </trkpt>
      <trkpt lat="42.6148" lon="1.99091">
        <ele>2607.2</ele>
        <time>2020-02-14T08:18:14.273Z</time>
      </trkpt>
      <trkpt lat="42.61478" lon="1.99081">
        <ele>2608.2</ele>
        <time>2020-02-14T08:18:17.275Z</time>
      </trkpt>
      <trkpt lat="42.61478" lon="1.9907">
        <ele>2609.6</ele>
        <time>2020-02-14T08:18:20.438Z</time>
      </trkpt>
      <trkpt lat="42.61481" lon="1.9906">
        <ele>2610.1</ele>
        <time>2020-02-14T08:18:23.571Z</time>
      </trkpt>
      <trkpt lat="42.6148" lon="1.99051">
        <ele>2611.6</ele>
        <time>2020-02-14T08:18:25.988Z</time>
      </trkpt>
      <trkpt lat="42.61481" lon="1.99039">
        <ele>2612.1</ele>
        <time>2020-02-14T08:18:29.563Z</time>
      </trkpt>
      <trkpt lat="42.61482" lon="1.99038">
        <ele>2611.2</ele>
        <time>2020-02-14T08:18:30.008Z</time>
      </trkpt>
      <trkpt lat="42.61482" lon="1.99032">
        <ele>2611.1</ele>
        <time>2020-02-14T08:18:31.855Z</time>
      </trkpt>
      <trkpt lat="42.61482" lon="1.99028">
        <ele>2611.1</ele>
        <time>2020-02-14T08:18:32.853Z</time>
      </trkpt>
      <trkpt lat="42.61481" lon="1.99025">
        <ele>2611.1</ele>
        <time>2020-02-14T08:18:33.737Z</time>
      </trkpt>
      <trkpt lat="42.61483" lon="1.99021">
        <ele>2610.6</ele>
        <time>2020-02-14T08:18:35.083Z</time>
      </trkpt>
      <trkpt lat="42.61483" lon="1.99">
        <ele>2608.2</ele>
        <time>2020-02-14T08:18:40.942Z</time>
      </trkpt>
      <trkpt lat="42.61483" lon="1.98998">
        <ele>2607.7</ele>
        <time>2020-02-14T08:18:41.593Z</time>
      </trkpt>
      <trkpt lat="42.61483" lon="1.98995">
        <ele>2606.9</ele>
        <time>2020-02-14T08:18:42.499Z</time>
      </trkpt>
      <trkpt lat="42.61479" lon="1.9899">
        <ele>2607.2</ele>
        <time>2020-02-14T08:18:44.541Z</time>
      </trkpt>
      <trkpt lat="42.61479" lon="1.98984">
        <ele>2607.7</ele>
        <time>2020-02-14T08:18:46.101Z</time>
      </trkpt>
      <trkpt lat="42.61476" lon="1.98972">
        <ele>2607.3</ele>
        <time>2020-02-14T08:18:49.709Z</time>
      </trkpt>
      <trkpt lat="42.61471" lon="1.98958">
        <ele>2608.3</ele>
        <time>2020-02-14T08:18:54.133Z</time>
      </trkpt>
      <trkpt lat="42.6147" lon="1.98957">
        <ele>2608.3</ele>
        <time>2020-02-14T08:18:54.434Z</time>
      </trkpt>
      <trkpt lat="42.61465" lon="1.98953">
        <ele>2609.2</ele>
        <time>2020-02-14T08:18:56.775Z</time>
      </trkpt>
      <trkpt lat="42.61467" lon="1.9895">
        <ele>2609.6</ele>
        <time>2020-02-14T08:18:57.965Z</time>
      </trkpt>
      <trkpt lat="42.61468" lon="1.9895">
        <ele>2608.3</ele>
        <time>2020-02-14T08:18:58.576Z</time>
      </trkpt>
      <trkpt lat="42.61467" lon="1.98951">
        <ele>2608.3</ele>
        <time>2020-02-14T08:18:59.199Z</time>
      </trkpt>
      <trkpt lat="42.61467" lon="1.98951">
        <ele>2603</ele>
        <time>2020-02-14T08:19:01.047Z</time>
      </trkpt>
      <trkpt lat="42.61467" lon="1.98951">
        <ele>2607.2</ele>
        <time>2020-02-14T08:19:02.517Z</time>
      </trkpt>
      <trkpt lat="42.61467" lon="1.98951">
        <ele>2609.2</ele>
        <time>2020-02-14T08:19:03.211Z</time>
      </trkpt>
      <trkpt lat="42.61467" lon="1.98951">
        <ele>2605.3</ele>
        <time>2020-02-14T08:19:04.573Z</time>
      </trkpt>
      <trkpt lat="42.61467" lon="1.98951">
        <ele>2606.4</ele>
        <time>2020-02-14T08:19:04.942Z</time>
      </trkpt>
      <trkpt lat="42.61467" lon="1.98951">
        <ele>2611.7</ele>
        <time>2020-02-14T08:19:06.778Z</time>
      </trkpt>
      <trkpt lat="42.61467" lon="1.98951">
        <ele>2604.5</ele>
        <time>2020-02-14T08:19:09.271Z</time>
      </trkpt>
      <trkpt lat="42.61467" lon="1.98951">
        <ele>2610.1</ele>
        <time>2020-02-14T08:19:11.229Z</time>
      </trkpt>
      <trkpt lat="42.61468" lon="1.9895">
        <ele>2609.2</ele>
        <time>2020-02-14T08:19:11.642Z</time>
      </trkpt>
      <trkpt lat="42.61469" lon="1.98953">
        <ele>2609.3</ele>
        <time>2020-02-14T08:19:12.491Z</time>
      </trkpt>
      <trkpt lat="42.61471" lon="1.98952">
        <ele>2608.2</ele>
        <time>2020-02-14T08:19:13.239Z</time>
      </trkpt>
      <trkpt lat="42.61476" lon="1.98949">
        <ele>2608.2</ele>
        <time>2020-02-14T08:19:15.322Z</time>
      </trkpt>
      <trkpt lat="42.61476" lon="1.98948">
        <ele>2610.2</ele>
        <time>2020-02-14T08:19:16.033Z</time>
      </trkpt>
      <trkpt lat="42.61477" lon="1.98948">
        <ele>2608.7</ele>
        <time>2020-02-14T08:19:16.562Z</time>
      </trkpt>
      <trkpt lat="42.61476" lon="1.9895">
        <ele>2610.1</ele>
        <time>2020-02-14T08:19:17.368Z</time>
      </trkpt>
      <trkpt lat="42.61476" lon="1.9895">
        <ele>2609.6</ele>
        <time>2020-02-14T08:19:17.555Z</time>
      </trkpt>
      <trkpt lat="42.61475" lon="1.98949">
        <ele>2610.7</ele>
        <time>2020-02-14T08:19:18.119Z</time>
      </trkpt>
      <trkpt lat="42.61475" lon="1.9895">
        <ele>2608.3</ele>
        <time>2020-02-14T08:19:18.992Z</time>
      </trkpt>
      <trkpt lat="42.61475" lon="1.9895">
        <ele>2611.1</ele>
        <time>2020-02-14T08:19:20.001Z</time>
      </trkpt>
      <trkpt lat="42.61473" lon="1.98949">
        <ele>2609.6</ele>
        <time>2020-02-14T08:19:20.815Z</time>
      </trkpt>
      <trkpt lat="42.61473" lon="1.98949">
        <ele>2609.2</ele>
        <time>2020-02-14T08:19:21.046Z</time>
      </trkpt>
      <trkpt lat="42.61467" lon="1.98946">
        <ele>2609.7</ele>
        <time>2020-02-14T08:19:23.604Z</time>
      </trkpt>
      <trkpt lat="42.61463" lon="1.98942">
        <ele>2608.7</ele>
        <time>2020-02-14T08:19:25.551Z</time>
      </trkpt>
      <trkpt lat="42.61464" lon="1.98942">
        <ele>2608.3</ele>
        <time>2020-02-14T08:19:25.887Z</time>
      </trkpt>
      <trkpt lat="42.61464" lon="1.98944">
        <ele>2608.7</ele>
        <time>2020-02-14T08:19:26.576Z</time>
      </trkpt>
      <trkpt lat="42.61464" lon="1.98944">
        <ele>2608.2</ele>
        <time>2020-02-14T08:19:26.793Z</time>
      </trkpt>
      <trkpt lat="42.61468" lon="1.98936">
        <ele>2610.1</ele>
        <time>2020-02-14T08:19:29.755Z</time>
      </trkpt>
      <trkpt lat="42.6147" lon="1.98931">
        <ele>2612.5</ele>
        <time>2020-02-14T08:19:31.619Z</time>
      </trkpt>
      <trkpt lat="42.6147" lon="1.98924">
        <ele>2611.6</ele>
        <time>2020-02-14T08:19:33.615Z</time>
      </trkpt>
      <trkpt lat="42.61474" lon="1.98915">
        <ele>2612.1</ele>
        <time>2020-02-14T08:19:36.496Z</time>
      </trkpt>
      <trkpt lat="42.61477" lon="1.98904">
        <ele>2613.1</ele>
        <time>2020-02-14T08:19:39.702Z</time>
      </trkpt>
      <trkpt lat="42.61479" lon="1.9889">
        <ele>2614</ele>
        <time>2020-02-14T08:19:43.982Z</time>
      </trkpt>
      <trkpt lat="42.61478" lon="1.98888">
        <ele>2613.1</ele>
        <time>2020-02-14T08:19:44.682Z</time>
      </trkpt>
      <trkpt lat="42.61476" lon="1.98882">
        <ele>2613.6</ele>
        <time>2020-02-14T08:19:46.413Z</time>
      </trkpt>
      <trkpt lat="42.61476" lon="1.98879">
        <ele>2613</ele>
        <time>2020-02-14T08:19:47.270Z</time>
      </trkpt>
      <trkpt lat="42.61476" lon="1.98877">
        <ele>2614.4</ele>
        <time>2020-02-14T08:19:48.173Z</time>
      </trkpt>
      <trkpt lat="42.61477" lon="1.98862">
        <ele>2613.5</ele>
        <time>2020-02-14T08:19:52.361Z</time>
      </trkpt>
      <trkpt lat="42.61476" lon="1.98856">
        <ele>2614.1</ele>
        <time>2020-02-14T08:19:53.967Z</time>
      </trkpt>
      <trkpt lat="42.61476" lon="1.98845">
        <ele>2616</ele>
        <time>2020-02-14T08:19:57.135Z</time>
      </trkpt>
      <trkpt lat="42.61477" lon="1.98835">
        <ele>2617.9</ele>
        <time>2020-02-14T08:20:00.203Z</time>
      </trkpt>
      <trkpt lat="42.61478" lon="1.98827">
        <ele>2621.3</ele>
        <time>2020-02-14T08:20:02.704Z</time>
      </trkpt>
      <trkpt lat="42.6148" lon="1.98823">
        <ele>2622.7</ele>
        <time>2020-02-14T08:20:04.234Z</time>
      </trkpt>
      <trkpt lat="42.61481" lon="1.98819">
        <ele>2625.1</ele>
        <time>2020-02-14T08:20:05.791Z</time>
      </trkpt>
      <trkpt lat="42.61482" lon="1.98814">
        <ele>2627</ele>
        <time>2020-02-14T08:20:07.253Z</time>
      </trkpt>
      <trkpt lat="42.61483" lon="1.98812">
        <ele>2626.5</ele>
        <time>2020-02-14T08:20:08.042Z</time>
      </trkpt>
      <trkpt lat="42.61483" lon="1.98802">
        <ele>2629.3</ele>
        <time>2020-02-14T08:20:10.839Z</time>
      </trkpt>
      <trkpt lat="42.61483" lon="1.988">
        <ele>2629.8</ele>
        <time>2020-02-14T08:20:11.679Z</time>
      </trkpt>
      <trkpt lat="42.61482" lon="1.98792">
        <ele>2633.2</ele>
        <time>2020-02-14T08:20:14.118Z</time>
      </trkpt>
      <trkpt lat="42.61482" lon="1.98787">
        <ele>2633.3</ele>
        <time>2020-02-14T08:20:15.613Z</time>
      </trkpt>
      <trkpt lat="42.61479" lon="1.98777">
        <ele>2635.7</ele>
        <time>2020-02-14T08:20:18.705Z</time>
      </trkpt>
      <trkpt lat="42.61478" lon="1.98768">
        <ele>2637</ele>
        <time>2020-02-14T08:20:21.404Z</time>
      </trkpt>
      <trkpt lat="42.61481" lon="1.98761">
        <ele>2639</ele>
        <time>2020-02-14T08:20:23.761Z</time>
      </trkpt>
      <trkpt lat="42.61482" lon="1.9876">
        <ele>2640.5</ele>
        <time>2020-02-14T08:20:24.360Z</time>
      </trkpt>
      <trkpt lat="42.6148" lon="1.98753">
        <ele>2641.5</ele>
        <time>2020-02-14T08:20:26.582Z</time>
      </trkpt>
      <trkpt lat="42.61477" lon="1.98747">
        <ele>2643.8</ele>
        <time>2020-02-14T08:20:28.719Z</time>
      </trkpt>
      <trkpt lat="42.61478" lon="1.98738">
        <ele>2644.3</ele>
        <time>2020-02-14T08:20:31.234Z</time>
      </trkpt>
      <trkpt lat="42.61479" lon="1.98736">
        <ele>2646.3</ele>
        <time>2020-02-14T08:20:32.186Z</time>
      </trkpt>
      <trkpt lat="42.61477" lon="1.98728">
        <ele>2647.1</ele>
        <time>2020-02-14T08:20:34.681Z</time>
      </trkpt>
      <trkpt lat="42.61476" lon="1.98726">
        <ele>2647.6</ele>
        <time>2020-02-14T08:20:35.327Z</time>
      </trkpt>
      <trkpt lat="42.61475" lon="1.98718">
        <ele>2650</ele>
        <time>2020-02-14T08:20:37.741Z</time>
      </trkpt>
      <trkpt lat="42.61474" lon="1.9871">
        <ele>2652.5</ele>
        <time>2020-02-14T08:20:40.272Z</time>
      </trkpt>
      <trkpt lat="42.61472" lon="1.98707">
        <ele>2655.3</ele>
        <time>2020-02-14T08:20:41.891Z</time>
      </trkpt>
      <trkpt lat="42.61472" lon="1.98698">
        <ele>2657.2</ele>
        <time>2020-02-14T08:20:44.500Z</time>
      </trkpt>
      <trkpt lat="42.61469" lon="1.98691">
        <ele>2659.2</ele>
        <time>2020-02-14T08:20:46.752Z</time>
      </trkpt>
      <trkpt lat="42.61468" lon="1.98687">
        <ele>2661.2</ele>
        <time>2020-02-14T08:20:48.173Z</time>
      </trkpt>
      <trkpt lat="42.61467" lon="1.98685">
        <ele>2664.4</ele>
        <time>2020-02-14T08:20:49.418Z</time>
      </trkpt>
      <trkpt lat="42.6147" lon="1.98679">
        <ele>2667.9</ele>
        <time>2020-02-14T08:20:51.851Z</time>
      </trkpt>
      <trkpt lat="42.6147" lon="1.98678">
        <ele>2668.4</ele>
        <time>2020-02-14T08:20:52.291Z</time>
      </trkpt>
      <trkpt lat="42.61472" lon="1.98675">
        <ele>2670.7</ele>
        <time>2020-02-14T08:20:53.758Z</time>
      </trkpt>
      <trkpt lat="42.61475" lon="1.98672">
        <ele>2672.6</ele>
        <time>2020-02-14T08:20:55.497Z</time>
      </trkpt>
      <trkpt lat="42.61472" lon="1.98661">
        <ele>2675.6</ele>
        <time>2020-02-14T08:20:58.887Z</time>
      </trkpt>
      <trkpt lat="42.61471" lon="1.98657">
        <ele>2677.9</ele>
        <time>2020-02-14T08:21:00.387Z</time>
      </trkpt>
      <trkpt lat="42.61471" lon="1.98654">
        <ele>2681.4</ele>
        <time>2020-02-14T08:21:01.838Z</time>
      </trkpt>
      <trkpt lat="42.61468" lon="1.98645">
        <ele>2684.2</ele>
        <time>2020-02-14T08:21:04.904Z</time>
      </trkpt>
      <trkpt lat="42.61466" lon="1.98638">
        <ele>2686.6</ele>
        <time>2020-02-14T08:21:07.215Z</time>
      </trkpt>
      <trkpt lat="42.61463" lon="1.98629">
        <ele>2688.9</ele>
        <time>2020-02-14T08:21:10.320Z</time>
      </trkpt>
      <trkpt lat="42.61462" lon="1.98627">
        <ele>2690.5</ele>
        <time>2020-02-14T08:21:11.088Z</time>
      </trkpt>
      <trkpt lat="42.61459" lon="1.98622">
        <ele>2691.9</ele>
        <time>2020-02-14T08:21:13.187Z</time>
      </trkpt>
      <trkpt lat="42.61455" lon="1.98617">
        <ele>2694.2</ele>
        <time>2020-02-14T08:21:15.309Z</time>
      </trkpt>
      <trkpt lat="42.61452" lon="1.98613">
        <ele>2695.7</ele>
        <time>2020-02-14T08:21:16.819Z</time>
      </trkpt>
      <trkpt lat="42.61449" lon="1.98606">
        <ele>2698.6</ele>
        <time>2020-02-14T08:21:19.570Z</time>
      </trkpt>
      <trkpt lat="42.61446" lon="1.986">
        <ele>2701.5</ele>
        <time>2020-02-14T08:21:21.664Z</time>
      </trkpt>
      <trkpt lat="42.61444" lon="1.98594">
        <ele>2703.4</ele>
        <time>2020-02-14T08:21:23.834Z</time>
      </trkpt>
      <trkpt lat="42.61443" lon="1.98591">
        <ele>2705.8</ele>
        <time>2020-02-14T08:21:25.179Z</time>
      </trkpt>
      <trkpt lat="42.61442" lon="1.98586">
        <ele>2706.7</ele>
        <time>2020-02-14T08:21:26.557Z</time>
      </trkpt>
      <trkpt lat="42.6144" lon="1.98579">
        <ele>2709.7</ele>
        <time>2020-02-14T08:21:28.876Z</time>
      </trkpt>
      <trkpt lat="42.61443" lon="1.98579">
        <ele>2712.1</ele>
        <time>2020-02-14T08:21:30.214Z</time>
      </trkpt>
      <trkpt lat="42.61446" lon="1.98576">
        <ele>2714.9</ele>
        <time>2020-02-14T08:21:31.931Z</time>
      </trkpt>
      <trkpt lat="42.61449" lon="1.98573">
        <ele>2717.9</ele>
        <time>2020-02-14T08:21:33.748Z</time>
      </trkpt>
      <trkpt lat="42.61444" lon="1.98564">
        <ele>2720.3</ele>
        <time>2020-02-14T08:21:37.109Z</time>
      </trkpt>
      <trkpt lat="42.61443" lon="1.98554">
        <ele>2723.1</ele>
        <time>2020-02-14T08:21:40.025Z</time>
      </trkpt>
      <trkpt lat="42.61449" lon="1.98551">
        <ele>2725.5</ele>
        <time>2020-02-14T08:21:42.401Z</time>
      </trkpt>
      <trkpt lat="42.61448" lon="1.9855">
        <ele>2726.5</ele>
        <time>2020-02-14T08:21:42.805Z</time>
      </trkpt>
      <trkpt lat="42.61449" lon="1.98547">
        <ele>2726.4</ele>
        <time>2020-02-14T08:21:43.743Z</time>
      </trkpt>
      <trkpt lat="42.61448" lon="1.98547">
        <ele>2727.9</ele>
        <time>2020-02-14T08:21:44.522Z</time>
      </trkpt>
      <trkpt lat="42.61445" lon="1.98547">
        <ele>2729.4</ele>
        <time>2020-02-14T08:21:45.724Z</time>
      </trkpt>
      <trkpt lat="42.61442" lon="1.98542">
        <ele>2731.3</ele>
        <time>2020-02-14T08:21:47.476Z</time>
      </trkpt>
      <trkpt lat="42.61444" lon="1.98538">
        <ele>2733.3</ele>
        <time>2020-02-14T08:21:48.892Z</time>
      </trkpt>
      <trkpt lat="42.6144" lon="1.98534">
        <ele>2735.6</ele>
        <time>2020-02-14T08:21:50.891Z</time>
      </trkpt>
      <trkpt lat="42.6144" lon="1.98534">
        <ele>2735.6</ele>
        <time>2020-02-14T08:21:51.073Z</time>
      </trkpt>
      <trkpt lat="42.61438" lon="1.9853">
        <ele>2737.6</ele>
        <time>2020-02-14T08:21:52.488Z</time>
      </trkpt>
      <trkpt lat="42.61432" lon="1.98524">
        <ele>2739.9</ele>
        <time>2020-02-14T08:21:55.456Z</time>
      </trkpt>
      <trkpt lat="42.61426" lon="1.9852">
        <ele>2742.3</ele>
        <time>2020-02-14T08:21:58.095Z</time>
      </trkpt>
      <trkpt lat="42.61421" lon="1.98518">
        <ele>2744.3</ele>
        <time>2020-02-14T08:22:00.265Z</time>
      </trkpt>
      <trkpt lat="42.61418" lon="1.98516">
        <ele>2746.2</ele>
        <time>2020-02-14T08:22:01.811Z</time>
      </trkpt>
      <trkpt lat="42.61423" lon="1.98512">
        <ele>2748.6</ele>
        <time>2020-02-14T08:22:04.193Z</time>
      </trkpt>
      <trkpt lat="42.61424" lon="1.9851">
        <ele>2749</ele>
        <time>2020-02-14T08:22:04.936Z</time>
      </trkpt>
      <trkpt lat="42.61426" lon="1.98506">
        <ele>2750</ele>
        <time>2020-02-14T08:22:06.488Z</time>
      </trkpt>
      <trkpt lat="42.61429" lon="1.98503">
        <ele>2753.8</ele>
        <time>2020-02-14T08:22:08.207Z</time>
      </trkpt>
      <trkpt lat="42.61431" lon="1.985">
        <ele>2755.9</ele>
        <time>2020-02-14T08:22:09.726Z</time>
      </trkpt>
      <trkpt lat="42.61433" lon="1.98494">
        <ele>2758.3</ele>
        <time>2020-02-14T08:22:11.872Z</time>
      </trkpt>
      <trkpt lat="42.61431" lon="1.98489">
        <ele>2760.7</ele>
        <time>2020-02-14T08:22:13.676Z</time>
      </trkpt>
      <trkpt lat="42.61428" lon="1.98486">
        <ele>2763.5</ele>
        <time>2020-02-14T08:22:15.319Z</time>
      </trkpt>
      <trkpt lat="42.61431" lon="1.98484">
        <ele>2766.3</ele>
        <time>2020-02-14T08:22:16.912Z</time>
      </trkpt>
      <trkpt lat="42.61432" lon="1.98478">
        <ele>2769.8</ele>
        <time>2020-02-14T08:22:18.913Z</time>
      </trkpt>
      <trkpt lat="42.61431" lon="1.98472">
        <ele>2770.8</ele>
        <time>2020-02-14T08:22:20.858Z</time>
      </trkpt>
      <trkpt lat="42.6143" lon="1.98467">
        <ele>2773.5</ele>
        <time>2020-02-14T08:22:22.640Z</time>
      </trkpt>
      <trkpt lat="42.61434" lon="1.98462">
        <ele>2776</ele>
        <time>2020-02-14T08:22:24.802Z</time>
      </trkpt>
      <trkpt lat="42.61434" lon="1.98459">
        <ele>2776.5</ele>
        <time>2020-02-14T08:22:25.730Z</time>
      </trkpt>
      <trkpt lat="42.61432" lon="1.98454">
        <ele>2778.9</ele>
        <time>2020-02-14T08:22:27.572Z</time>
      </trkpt>
      <trkpt lat="42.61427" lon="1.9845">
        <ele>2779.3</ele>
        <time>2020-02-14T08:22:29.676Z</time>
      </trkpt>
      <trkpt lat="42.61427" lon="1.98451">
        <ele>2780.3</ele>
        <time>2020-02-14T08:22:30.086Z</time>
      </trkpt>
      <trkpt lat="42.61424" lon="1.98452">
        <ele>2781.2</ele>
        <time>2020-02-14T08:22:31.084Z</time>
      </trkpt>
      <trkpt lat="42.6142" lon="1.98451">
        <ele>2783.6</ele>
        <time>2020-02-14T08:22:33.053Z</time>
      </trkpt>
      <trkpt lat="42.61415" lon="1.98451">
        <ele>2786.5</ele>
        <time>2020-02-14T08:22:35.332Z</time>
      </trkpt>
      <trkpt lat="42.61409" lon="1.9845">
        <ele>2788.5</ele>
        <time>2020-02-14T08:22:37.570Z</time>
      </trkpt>
      <trkpt lat="42.61407" lon="1.98449">
        <ele>2789.5</ele>
        <time>2020-02-14T08:22:38.655Z</time>
      </trkpt>
      <trkpt lat="42.61403" lon="1.98447">
        <ele>2790.9</ele>
        <time>2020-02-14T08:22:40.317Z</time>
      </trkpt>
      <trkpt lat="42.614" lon="1.98446">
        <ele>2792.4</ele>
        <time>2020-02-14T08:22:41.600Z</time>
      </trkpt>
      <trkpt lat="42.61395" lon="1.98445">
        <ele>2794.3</ele>
        <time>2020-02-14T08:22:43.608Z</time>
      </trkpt>
      <trkpt lat="42.61393" lon="1.98445">
        <ele>2796.1</ele>
        <time>2020-02-14T08:22:44.750Z</time>
      </trkpt>
      <trkpt lat="42.61387" lon="1.98444">
        <ele>2798.1</ele>
        <time>2020-02-14T08:22:46.882Z</time>
      </trkpt>
      <trkpt lat="42.61387" lon="1.98443">
        <ele>2797.6</ele>
        <time>2020-02-14T08:22:47.215Z</time>
      </trkpt>
      <trkpt lat="42.61387" lon="1.98438">
        <ele>2797.1</ele>
        <time>2020-02-14T08:22:48.650Z</time>
      </trkpt>
      <trkpt lat="42.61375" lon="1.98432">
        <ele>2797.1</ele>
        <time>2020-02-14T08:22:53.736Z</time>
      </trkpt>
      <trkpt lat="42.61372" lon="1.9843">
        <ele>2798.1</ele>
        <time>2020-02-14T08:22:55.003Z</time>
      </trkpt>
      <trkpt lat="42.61365" lon="1.98433">
        <ele>2800</ele>
        <time>2020-02-14T08:22:57.989Z</time>
      </trkpt>
      <trkpt lat="42.61366" lon="1.98447">
        <ele>2802.5</ele>
        <time>2020-02-14T08:23:02.245Z</time>
      </trkpt>
      <trkpt lat="42.61364" lon="1.98447">
        <ele>2801</ele>
        <time>2020-02-14T08:23:03.005Z</time>
      </trkpt>
      <trkpt lat="42.61364" lon="1.98447">
        <ele>2803.3</ele>
        <time>2020-02-14T08:23:03.832Z</time>
      </trkpt>
      <trkpt lat="42.61364" lon="1.98447">
        <ele>2802</ele>
        <time>2020-02-14T08:23:04.301Z</time>
      </trkpt>
      <trkpt lat="42.61364" lon="1.98447">
        <ele>2805.3</ele>
        <time>2020-02-14T08:23:05.468Z</time>
      </trkpt>
      <trkpt lat="42.61364" lon="1.98447">
        <ele>2800.5</ele>
        <time>2020-02-14T08:23:07.138Z</time>
      </trkpt>
      <trkpt lat="42.61364" lon="1.98447">
        <ele>2803.9</ele>
        <time>2020-02-14T08:23:08.307Z</time>
      </trkpt>
      <trkpt lat="42.61364" lon="1.98447">
        <ele>2799.5</ele>
        <time>2020-02-14T08:23:09.816Z</time>
      </trkpt>
      <trkpt lat="42.61364" lon="1.98447">
        <ele>2802.9</ele>
        <time>2020-02-14T08:23:10.987Z</time>
      </trkpt>
      <trkpt lat="42.61364" lon="1.98447">
        <ele>2797.1</ele>
        <time>2020-02-14T08:23:13.005Z</time>
      </trkpt>
      <trkpt lat="42.61364" lon="1.98447">
        <ele>2800.9</ele>
        <time>2020-02-14T08:23:14.340Z</time>
      </trkpt>
      <trkpt lat="42.61364" lon="1.98447">
        <ele>2793.8</ele>
        <time>2020-02-14T08:23:16.835Z</time>
      </trkpt>
      <trkpt lat="42.61364" lon="1.98447">
        <ele>2795.7</ele>
        <time>2020-02-14T08:23:17.516Z</time>
      </trkpt>
      <trkpt lat="42.61364" lon="1.98447">
        <ele>2803.3</ele>
        <time>2020-02-14T08:23:20.153Z</time>
      </trkpt>
      <trkpt lat="42.61364" lon="1.98447">
        <ele>2796.7</ele>
        <time>2020-02-14T08:23:22.456Z</time>
      </trkpt>
      <trkpt lat="42.61364" lon="1.98447">
        <ele>2803</ele>
        <time>2020-02-14T08:23:24.642Z</time>
      </trkpt>
      <trkpt lat="42.61364" lon="1.98447">
        <ele>2797.2</ele>
        <time>2020-02-14T08:23:26.663Z</time>
      </trkpt>
      <trkpt lat="42.61364" lon="1.98447">
        <ele>2800.6</ele>
        <time>2020-02-14T08:23:27.851Z</time>
      </trkpt>
      <trkpt lat="42.61364" lon="1.98447">
        <ele>2807.7</ele>
        <time>2020-02-14T08:23:30.322Z</time>
      </trkpt>
      <trkpt lat="42.61364" lon="1.98447">
        <ele>2805.8</ele>
        <time>2020-02-14T08:23:30.976Z</time>
      </trkpt>
      <trkpt lat="42.61364" lon="1.98447">
        <ele>2802.4</ele>
        <time>2020-02-14T08:23:32.164Z</time>
      </trkpt>
      <trkpt lat="42.61364" lon="1.98447">
        <ele>2801.9</ele>
        <time>2020-02-14T08:23:32.332Z</time>
      </trkpt>
      <trkpt lat="42.61364" lon="1.98447">
        <ele>2804.8</ele>
        <time>2020-02-14T08:23:33.349Z</time>
      </trkpt>
      <trkpt lat="42.61364" lon="1.98447">
        <ele>2802.5</ele>
        <time>2020-02-14T08:23:34.165Z</time>
      </trkpt>
      <trkpt lat="42.61364" lon="1.98447">
        <ele>2807.3</ele>
        <time>2020-02-14T08:23:35.828Z</time>
      </trkpt>
      <trkpt lat="42.61364" lon="1.98447">
        <ele>2800.1</ele>
        <time>2020-02-14T08:23:38.326Z</time>
      </trkpt>
      <trkpt lat="42.61364" lon="1.98447">
        <ele>2803.9</ele>
        <time>2020-02-14T08:23:39.653Z</time>
      </trkpt>
      <trkpt lat="42.61367" lon="1.98447">
        <ele>2802</ele>
        <time>2020-02-14T08:23:40.993Z</time>
      </trkpt>
      <trkpt lat="42.61365" lon="1.98445">
        <ele>2803</ele>
        <time>2020-02-14T08:23:41.920Z</time>
      </trkpt>
      <trkpt lat="42.61364" lon="1.98445">
        <ele>2798.1</ele>
        <time>2020-02-14T08:23:43.738Z</time>
      </trkpt>
      <trkpt lat="42.61364" lon="1.98445">
        <ele>2807.7</ele>
        <time>2020-02-14T08:23:47.077Z</time>
      </trkpt>
      <trkpt lat="42.61364" lon="1.98445">
        <ele>2802.9</ele>
        <time>2020-02-14T08:23:48.750Z</time>
      </trkpt>
      <trkpt lat="42.61364" lon="1.98446">
        <ele>2802.9</ele>
        <time>2020-02-14T08:23:48.845Z</time>
      </trkpt>
      <trkpt lat="42.61363" lon="1.98445">
        <ele>2804.4</ele>
        <time>2020-02-14T08:23:49.377Z</time>
      </trkpt>
      <trkpt lat="42.61363" lon="1.98445">
        <ele>2804.3</ele>
        <time>2020-02-14T08:23:49.391Z</time>
      </trkpt>
      <trkpt lat="42.61365" lon="1.98439">
        <ele>2801.9</ele>
        <time>2020-02-14T08:23:51.376Z</time>
      </trkpt>
      <trkpt lat="42.61366" lon="1.9843">
        <ele>2802.4</ele>
        <time>2020-02-14T08:23:54.194Z</time>
      </trkpt>
      <trkpt lat="42.61375" lon="1.9843">
        <ele>2799.6</ele>
        <time>2020-02-14T08:23:57.626Z</time>
      </trkpt>
      <trkpt lat="42.61375" lon="1.98429">
        <ele>2799.6</ele>
        <time>2020-02-14T08:23:57.978Z</time>
      </trkpt>
      <trkpt lat="42.61376" lon="1.98425">
        <ele>2798.5</ele>
        <time>2020-02-14T08:23:59.294Z</time>
      </trkpt>
      <trkpt lat="42.61387" lon="1.98415">
        <ele>2798.1</ele>
        <time>2020-02-14T08:24:04.388Z</time>
      </trkpt>
      <trkpt lat="42.61388" lon="1.98414">
        <ele>2797.6</ele>
        <time>2020-02-14T08:24:04.754Z</time>
      </trkpt>
      <trkpt lat="42.61398" lon="1.98399">
        <ele>2798.1</ele>
        <time>2020-02-14T08:24:10.559Z</time>
      </trkpt>
      <trkpt lat="42.61404" lon="1.98386">
        <ele>2798.5</ele>
        <time>2020-02-14T08:24:15.023Z</time>
      </trkpt>
      <trkpt lat="42.61407" lon="1.98378">
        <ele>2802</ele>
        <time>2020-02-14T08:24:17.660Z</time>
      </trkpt>
      <trkpt lat="42.6141" lon="1.98367">
        <ele>2803</ele>
        <time>2020-02-14T08:24:21.135Z</time>
      </trkpt>
      <trkpt lat="42.61412" lon="1.98363">
        <ele>2803.3</ele>
        <time>2020-02-14T08:24:22.475Z</time>
      </trkpt>
      <trkpt lat="42.61412" lon="1.9836">
        <ele>2803</ele>
        <time>2020-02-14T08:24:23.272Z</time>
      </trkpt>
      <trkpt lat="42.61411" lon="1.98346">
        <ele>2801.9</ele>
        <time>2020-02-14T08:24:27.360Z</time>
      </trkpt>
      <trkpt lat="42.61407" lon="1.98335">
        <ele>2801</ele>
        <time>2020-02-14T08:24:30.889Z</time>
      </trkpt>
      <trkpt lat="42.61407" lon="1.98335">
        <ele>2800.5</ele>
        <time>2020-02-14T08:24:31.111Z</time>
      </trkpt>
      <trkpt lat="42.61407" lon="1.98333">
        <ele>2801.4</ele>
        <time>2020-02-14T08:24:31.713Z</time>
      </trkpt>
      <trkpt lat="42.61407" lon="1.98333">
        <ele>2801.9</ele>
        <time>2020-02-14T08:24:31.906Z</time>
      </trkpt>
      <trkpt lat="42.61405" lon="1.98335">
        <ele>2802.4</ele>
        <time>2020-02-14T08:24:32.782Z</time>
      </trkpt>
      <trkpt lat="42.61405" lon="1.98335">
        <ele>2798.2</ele>
        <time>2020-02-14T08:24:34.249Z</time>
      </trkpt>
      <trkpt lat="42.61405" lon="1.98335">
        <ele>2802.5</ele>
        <time>2020-02-14T08:24:35.741Z</time>
      </trkpt>
      <trkpt lat="42.61406" lon="1.98335">
        <ele>2802.4</ele>
        <time>2020-02-14T08:24:35.820Z</time>
      </trkpt>
      <trkpt lat="42.61408" lon="1.98337">
        <ele>2803</ele>
        <time>2020-02-14T08:24:37.111Z</time>
      </trkpt>
      <trkpt lat="42.61408" lon="1.98341">
        <ele>2803</ele>
        <time>2020-02-14T08:24:38.218Z</time>
      </trkpt>
      <trkpt lat="42.61409" lon="1.98353">
        <ele>2803.8</ele>
        <time>2020-02-14T08:24:41.557Z</time>
      </trkpt>
      <trkpt lat="42.61409" lon="1.98355">
        <ele>2803.8</ele>
        <time>2020-02-14T08:24:42.268Z</time>
      </trkpt>
      <trkpt lat="42.61407" lon="1.98368">
        <ele>2803.9</ele>
        <time>2020-02-14T08:24:45.940Z</time>
      </trkpt>
      <trkpt lat="42.61406" lon="1.98372">
        <ele>2803.9</ele>
        <time>2020-02-14T08:24:46.971Z</time>
      </trkpt>
      <trkpt lat="42.61403" lon="1.98382">
        <ele>2803.3</ele>
        <time>2020-02-14T08:24:50.109Z</time>
      </trkpt>
      <trkpt lat="42.61401" lon="1.98387">
        <ele>2802.4</ele>
        <time>2020-02-14T08:24:51.959Z</time>
      </trkpt>
      <trkpt lat="42.614" lon="1.98392">
        <ele>2801.5</ele>
        <time>2020-02-14T08:24:53.378Z</time>
      </trkpt>
      <trkpt lat="42.61397" lon="1.98399">
        <ele>2801</ele>
        <time>2020-02-14T08:24:55.553Z</time>
      </trkpt>
      <trkpt lat="42.61389" lon="1.9841">
        <ele>2800</ele>
        <time>2020-02-14T08:25:00.167Z</time>
      </trkpt>
      <trkpt lat="42.61384" lon="1.98417">
        <ele>2800</ele>
        <time>2020-02-14T08:25:02.812Z</time>
      </trkpt>
      <trkpt lat="42.6138" lon="1.98427">
        <ele>2801.4</ele>
        <time>2020-02-14T08:25:06.072Z</time>
      </trkpt>
      <trkpt lat="42.61383" lon="1.98433">
        <ele>2802</ele>
        <time>2020-02-14T08:25:07.857Z</time>
      </trkpt>
      <trkpt lat="42.61386" lon="1.98443">
        <ele>2801.5</ele>
        <time>2020-02-14T08:25:11.104Z</time>
      </trkpt>
      <trkpt lat="42.6139" lon="1.98445">
        <ele>2800.6</ele>
        <time>2020-02-14T08:25:12.864Z</time>
      </trkpt>
      <trkpt lat="42.61396" lon="1.98447">
        <ele>2797.6</ele>
        <time>2020-02-14T08:25:15.262Z</time>
      </trkpt>
      <trkpt lat="42.61403" lon="1.98448">
        <ele>2795.7</ele>
        <time>2020-02-14T08:25:18.257Z</time>
      </trkpt>
      <trkpt lat="42.61408" lon="1.98449">
        <ele>2793.3</ele>
        <time>2020-02-14T08:25:20.248Z</time>
      </trkpt>
      <trkpt lat="42.61413" lon="1.98452">
        <ele>2790.8</ele>
        <time>2020-02-14T08:25:22.485Z</time>
      </trkpt>
      <trkpt lat="42.61415" lon="1.98452">
        <ele>2789.4</ele>
        <time>2020-02-14T08:25:23.690Z</time>
      </trkpt>
      <trkpt lat="42.61421" lon="1.98452">
        <ele>2787.6</ele>
        <time>2020-02-14T08:25:25.906Z</time>
      </trkpt>
      <trkpt lat="42.61427" lon="1.98452">
        <ele>2784.7</ele>
        <time>2020-02-14T08:25:28.333Z</time>
      </trkpt>
      <trkpt lat="42.6143" lon="1.98456">
        <ele>2783.6</ele>
        <time>2020-02-14T08:25:30.078Z</time>
      </trkpt>
      <trkpt lat="42.61431" lon="1.98463">
        <ele>2782.3</ele>
        <time>2020-02-14T08:25:32.079Z</time>
      </trkpt>
      <trkpt lat="42.61427" lon="1.98469">
        <ele>2780.4</ele>
        <time>2020-02-14T08:25:34.474Z</time>
      </trkpt>
      <trkpt lat="42.61426" lon="1.98471">
        <ele>2776.4</ele>
        <time>2020-02-14T08:25:36.021Z</time>
      </trkpt>
      <trkpt lat="42.61426" lon="1.98471">
        <ele>2780.3</ele>
        <time>2020-02-14T08:25:37.380Z</time>
      </trkpt>
      <trkpt lat="42.61427" lon="1.98473">
        <ele>2776.4</ele>
        <time>2020-02-14T08:25:38.890Z</time>
      </trkpt>
      <trkpt lat="42.61427" lon="1.98474">
        <ele>2776.4</ele>
        <time>2020-02-14T08:25:39.050Z</time>
      </trkpt>
      <trkpt lat="42.61428" lon="1.98476">
        <ele>2773.1</ele>
        <time>2020-02-14T08:25:40.344Z</time>
      </trkpt>
      <trkpt lat="42.61428" lon="1.98481">
        <ele>2771.2</ele>
        <time>2020-02-14T08:25:41.890Z</time>
      </trkpt>
      <trkpt lat="42.61428" lon="1.98486">
        <ele>2767.8</ele>
        <time>2020-02-14T08:25:43.789Z</time>
      </trkpt>
      <trkpt lat="42.61432" lon="1.98493">
        <ele>2765.9</ele>
        <time>2020-02-14T08:25:46.135Z</time>
      </trkpt>
      <trkpt lat="42.6143" lon="1.98497">
        <ele>2763.9</ele>
        <time>2020-02-14T08:25:47.673Z</time>
      </trkpt>
      <trkpt lat="42.61433" lon="1.98502">
        <ele>2762.1</ele>
        <time>2020-02-14T08:25:49.379Z</time>
      </trkpt>
      <trkpt lat="42.61435" lon="1.98507">
        <ele>2760.7</ele>
        <time>2020-02-14T08:25:51.124Z</time>
      </trkpt>
      <trkpt lat="42.61432" lon="1.98508">
        <ele>2758.7</ele>
        <time>2020-02-14T08:25:52.314Z</time>
      </trkpt>
      <trkpt lat="42.6143" lon="1.9851">
        <ele>2756.2</ele>
        <time>2020-02-14T08:25:53.570Z</time>
      </trkpt>
      <trkpt lat="42.61427" lon="1.98512">
        <ele>2754.3</ele>
        <time>2020-02-14T08:25:55.078Z</time>
      </trkpt>
      <trkpt lat="42.61425" lon="1.98517">
        <ele>2751</ele>
        <time>2020-02-14T08:25:57.050Z</time>
      </trkpt>
      <trkpt lat="42.61426" lon="1.98522">
        <ele>2749.1</ele>
        <time>2020-02-14T08:25:58.762Z</time>
      </trkpt>
      <trkpt lat="42.61426" lon="1.98524">
        <ele>2747.6</ele>
        <time>2020-02-14T08:25:59.410Z</time>
      </trkpt>
      <trkpt lat="42.61429" lon="1.98528">
        <ele>2745.3</ele>
        <time>2020-02-14T08:26:01.512Z</time>
      </trkpt>
      <trkpt lat="42.61433" lon="1.98532">
        <ele>2743.8</ele>
        <time>2020-02-14T08:26:03.376Z</time>
      </trkpt>
      <trkpt lat="42.61438" lon="1.98536">
        <ele>2741</ele>
        <time>2020-02-14T08:26:05.795Z</time>
      </trkpt>
      <trkpt lat="42.61441" lon="1.9854">
        <ele>2739.9</ele>
        <time>2020-02-14T08:26:07.464Z</time>
      </trkpt>
      <trkpt lat="42.61445" lon="1.98545">
        <ele>2737</ele>
        <time>2020-02-14T08:26:09.821Z</time>
      </trkpt>
      <trkpt lat="42.61445" lon="1.98545">
        <ele>2736.1</ele>
        <time>2020-02-14T08:26:10.127Z</time>
      </trkpt>
      <trkpt lat="42.61445" lon="1.98549">
        <ele>2734.1</ele>
        <time>2020-02-14T08:26:11.426Z</time>
      </trkpt>
      <trkpt lat="42.61445" lon="1.98555">
        <ele>2731.7</ele>
        <time>2020-02-14T08:26:13.358Z</time>
      </trkpt>
      <trkpt lat="42.61443" lon="1.98556">
        <ele>2730.3</ele>
        <time>2020-02-14T08:26:14.242Z</time>
      </trkpt>
      <trkpt lat="42.6144" lon="1.98559">
        <ele>2728</ele>
        <time>2020-02-14T08:26:15.853Z</time>
      </trkpt>
      <trkpt lat="42.61443" lon="1.98563">
        <ele>2726.4</ele>
        <time>2020-02-14T08:26:17.565Z</time>
      </trkpt>
      <trkpt lat="42.61447" lon="1.98569">
        <ele>2723.6</ele>
        <time>2020-02-14T08:26:19.998Z</time>
      </trkpt>
      <trkpt lat="42.61444" lon="1.98574">
        <ele>2721.7</ele>
        <time>2020-02-14T08:26:22.016Z</time>
      </trkpt>
      <trkpt lat="42.61442" lon="1.98579">
        <ele>2718.4</ele>
        <time>2020-02-14T08:26:24.026Z</time>
      </trkpt>
      <trkpt lat="42.61442" lon="1.98579">
        <ele>2718.4</ele>
        <time>2020-02-14T08:26:24.121Z</time>
      </trkpt>
      <trkpt lat="42.6144" lon="1.98581">
        <ele>2717.9</ele>
        <time>2020-02-14T08:26:25.032Z</time>
      </trkpt>
      <trkpt lat="42.61439" lon="1.98583">
        <ele>2714.4</ele>
        <time>2020-02-14T08:26:26.462Z</time>
      </trkpt>
      <trkpt lat="42.61441" lon="1.98591">
        <ele>2712.6</ele>
        <time>2020-02-14T08:26:28.822Z</time>
      </trkpt>
      <trkpt lat="42.61442" lon="1.98595">
        <ele>2710.1</ele>
        <time>2020-02-14T08:26:30.341Z</time>
      </trkpt>
      <trkpt lat="42.61442" lon="1.986">
        <ele>2708.2</ele>
        <time>2020-02-14T08:26:31.973Z</time>
      </trkpt>
      <trkpt lat="42.61446" lon="1.98603">
        <ele>2705.9</ele>
        <time>2020-02-14T08:26:33.829Z</time>
      </trkpt>
      <trkpt lat="42.61448" lon="1.98605">
        <ele>2704.9</ele>
        <time>2020-02-14T08:26:34.716Z</time>
      </trkpt>
      <trkpt lat="42.61449" lon="1.9861">
        <ele>2703</ele>
        <time>2020-02-14T08:26:36.256Z</time>
      </trkpt>
      <trkpt lat="42.61454" lon="1.98618">
        <ele>2700.5</ele>
        <time>2020-02-14T08:26:39.457Z</time>
      </trkpt>
      <trkpt lat="42.61457" lon="1.98627">
        <ele>2698.1</ele>
        <time>2020-02-14T08:26:42.208Z</time>
      </trkpt>
      <trkpt lat="42.61459" lon="1.98629">
        <ele>2696.2</ele>
        <time>2020-02-14T08:26:43.615Z</time>
      </trkpt>
      <trkpt lat="42.61463" lon="1.98638">
        <ele>2692.8</ele>
        <time>2020-02-14T08:26:46.754Z</time>
      </trkpt>
      <trkpt lat="42.61467" lon="1.98645">
        <ele>2691</ele>
        <time>2020-02-14T08:26:49.352Z</time>
      </trkpt>
      <trkpt lat="42.61468" lon="1.98648">
        <ele>2688.6</ele>
        <time>2020-02-14T08:26:50.584Z</time>
      </trkpt>
      <trkpt lat="42.61471" lon="1.98655">
        <ele>2686.5</ele>
        <time>2020-02-14T08:26:53.001Z</time>
      </trkpt>
      <trkpt lat="42.61472" lon="1.98657">
        <ele>2685.1</ele>
        <time>2020-02-14T08:26:53.866Z</time>
      </trkpt>
      <trkpt lat="42.61471" lon="1.98661">
        <ele>2682.7</ele>
        <time>2020-02-14T08:26:55.217Z</time>
      </trkpt>
      <trkpt lat="42.61473" lon="1.98665">
        <ele>2681.3</ele>
        <time>2020-02-14T08:26:56.657Z</time>
      </trkpt>
      <trkpt lat="42.61474" lon="1.9867">
        <ele>2679</ele>
        <time>2020-02-14T08:26:58.263Z</time>
      </trkpt>
      <trkpt lat="42.61472" lon="1.98673">
        <ele>2676</ele>
        <time>2020-02-14T08:26:59.942Z</time>
      </trkpt>
      <trkpt lat="42.6147" lon="1.98676">
        <ele>2674</ele>
        <time>2020-02-14T08:27:01.170Z</time>
      </trkpt>
      <trkpt lat="42.6147" lon="1.98681">
        <ele>2671.6</ele>
        <time>2020-02-14T08:27:03.020Z</time>
      </trkpt>
      <trkpt lat="42.61472" lon="1.98688">
        <ele>2669.3</ele>
        <time>2020-02-14T08:27:05.085Z</time>
      </trkpt>
      <trkpt lat="42.61472" lon="1.98691">
        <ele>2666.5</ele>
        <time>2020-02-14T08:27:06.482Z</time>
      </trkpt>
      <trkpt lat="42.61472" lon="1.98695">
        <ele>2663.5</ele>
        <time>2020-02-14T08:27:07.900Z</time>
      </trkpt>
      <trkpt lat="42.61472" lon="1.98695">
        <ele>2666.4</ele>
        <time>2020-02-14T08:27:08.915Z</time>
      </trkpt>
      <trkpt lat="42.61471" lon="1.98697">
        <ele>2663.5</ele>
        <time>2020-02-14T08:27:10.255Z</time>
      </trkpt>
      <trkpt lat="42.6147" lon="1.98705">
        <ele>2661.1</ele>
        <time>2020-02-14T08:27:12.631Z</time>
      </trkpt>
      <trkpt lat="42.61472" lon="1.98709">
        <ele>2658.8</ele>
        <time>2020-02-14T08:27:14.388Z</time>
      </trkpt>
      <trkpt lat="42.61473" lon="1.98719">
        <ele>2657.2</ele>
        <time>2020-02-14T08:27:17.158Z</time>
      </trkpt>
      <trkpt lat="42.61474" lon="1.98727">
        <ele>2654.8</ele>
        <time>2020-02-14T08:27:19.732Z</time>
      </trkpt>
      <trkpt lat="42.61476" lon="1.98737">
        <ele>2652.4</ele>
        <time>2020-02-14T08:27:22.607Z</time>
      </trkpt>
      <trkpt lat="42.61477" lon="1.98745">
        <ele>2650.1</ele>
        <time>2020-02-14T08:27:25.306Z</time>
      </trkpt>
      <trkpt lat="42.61479" lon="1.98754">
        <ele>2647.6</ele>
        <time>2020-02-14T08:27:27.886Z</time>
      </trkpt>
      <trkpt lat="42.61482" lon="1.98761">
        <ele>2643.8</ele>
        <time>2020-02-14T08:27:30.688Z</time>
      </trkpt>
      <trkpt lat="42.61482" lon="1.98762">
        <ele>2646.8</ele>
        <time>2020-02-14T08:27:31.748Z</time>
      </trkpt>
      <trkpt lat="42.61482" lon="1.98765">
        <ele>2645.2</ele>
        <time>2020-02-14T08:27:32.725Z</time>
      </trkpt>
      <trkpt lat="42.61483" lon="1.98777">
        <ele>2643.3</ele>
        <time>2020-02-14T08:27:36.221Z</time>
      </trkpt>
      <trkpt lat="42.61483" lon="1.9878">
        <ele>2642.4</ele>
        <time>2020-02-14T08:27:37.195Z</time>
      </trkpt>
      <trkpt lat="42.61487" lon="1.98792">
        <ele>2640.5</ele>
        <time>2020-02-14T08:27:41.155Z</time>
      </trkpt>
      <trkpt lat="42.61488" lon="1.98805">
        <ele>2638.5</ele>
        <time>2020-02-14T08:27:44.917Z</time>
      </trkpt>
      <trkpt lat="42.61487" lon="1.98813">
        <ele>2635.7</ele>
        <time>2020-02-14T08:27:47.361Z</time>
      </trkpt>
      <trkpt lat="42.61489" lon="1.98823">
        <ele>2633.2</ele>
        <time>2020-02-14T08:27:50.516Z</time>
      </trkpt>
      <trkpt lat="42.61486" lon="1.98829">
        <ele>2630.8</ele>
        <time>2020-02-14T08:27:52.805Z</time>
      </trkpt>
      <trkpt lat="42.61489" lon="1.98829">
        <ele>2629.4</ele>
        <time>2020-02-14T08:27:54.145Z</time>
      </trkpt>
      <trkpt lat="42.61489" lon="1.98837">
        <ele>2628</ele>
        <time>2020-02-14T08:27:56.578Z</time>
      </trkpt>
      <trkpt lat="42.61488" lon="1.98843">
        <ele>2626.1</ele>
        <time>2020-02-14T08:27:58.235Z</time>
      </trkpt>
      <trkpt lat="42.61483" lon="1.98843">
        <ele>2623.6</ele>
        <time>2020-02-14T08:28:00.381Z</time>
      </trkpt>
      <trkpt lat="42.61483" lon="1.98844">
        <ele>2622.1</ele>
        <time>2020-02-14T08:28:01.027Z</time>
      </trkpt>
      <trkpt lat="42.61481" lon="1.98858">
        <ele>2619.7</ele>
        <time>2020-02-14T08:28:05.114Z</time>
      </trkpt>
      <trkpt lat="42.61476" lon="1.98875">
        <ele>2620.7</ele>
        <time>2020-02-14T08:28:10.447Z</time>
      </trkpt>
      <trkpt lat="42.61477" lon="1.98882">
        <ele>2620.2</ele>
        <time>2020-02-14T08:28:12.340Z</time>
      </trkpt>
      <trkpt lat="42.61478" lon="1.98893">
        <ele>2619.8</ele>
        <time>2020-02-14T08:28:15.571Z</time>
      </trkpt>
      <trkpt lat="42.61479" lon="1.98907">
        <ele>2618.9</ele>
        <time>2020-02-14T08:28:19.648Z</time>
      </trkpt>
      <trkpt lat="42.61476" lon="1.98914">
        <ele>2617.8</ele>
        <time>2020-02-14T08:28:21.951Z</time>
      </trkpt>
      <trkpt lat="42.6147" lon="1.98922">
        <ele>2617.4</ele>
        <time>2020-02-14T08:28:25.192Z</time>
      </trkpt>
      <trkpt lat="42.61472" lon="1.9893">
        <ele>2616</ele>
        <time>2020-02-14T08:28:27.519Z</time>
      </trkpt>
      <trkpt lat="42.61472" lon="1.98934">
        <ele>2616.5</ele>
        <time>2020-02-14T08:28:28.691Z</time>
      </trkpt>
      <trkpt lat="42.61477" lon="1.98942">
        <ele>2615.4</ele>
        <time>2020-02-14T08:28:31.520Z</time>
      </trkpt>
      <trkpt lat="42.61477" lon="1.98942">
        <ele>2616.4</ele>
        <time>2020-02-14T08:28:31.862Z</time>
      </trkpt>
      <trkpt lat="42.61477" lon="1.98942">
        <ele>2613.1</ele>
        <time>2020-02-14T08:28:33.015Z</time>
      </trkpt>
      <trkpt lat="42.61477" lon="1.98941">
        <ele>2615</ele>
        <time>2020-02-14T08:28:33.671Z</time>
      </trkpt>
      <trkpt lat="42.61477" lon="1.98941">
        <ele>2611.7</ele>
        <time>2020-02-14T08:28:34.821Z</time>
      </trkpt>
      <trkpt lat="42.61478" lon="1.98941">
        <ele>2613.5</ele>
        <time>2020-02-14T08:28:35.540Z</time>
      </trkpt>
      <trkpt lat="42.61478" lon="1.98941">
        <ele>2610.1</ele>
        <time>2020-02-14T08:28:36.725Z</time>
      </trkpt>
      <trkpt lat="42.61478" lon="1.98941">
        <ele>2614.1</ele>
        <time>2020-02-14T08:28:38.093Z</time>
      </trkpt>
      <trkpt lat="42.61479" lon="1.98941">
        <ele>2613</ele>
        <time>2020-02-14T08:28:38.461Z</time>
      </trkpt>
      <trkpt lat="42.61479" lon="1.98941">
        <ele>2609.2</ele>
        <time>2020-02-14T08:28:39.782Z</time>
      </trkpt>
      <trkpt lat="42.61479" lon="1.98941">
        <ele>2613.6</ele>
        <time>2020-02-14T08:28:41.296Z</time>
      </trkpt>
      <trkpt lat="42.61478" lon="1.98941">
        <ele>2610.6</ele>
        <time>2020-02-14T08:28:42.327Z</time>
      </trkpt>
      <trkpt lat="42.61478" lon="1.98941">
        <ele>2611.1</ele>
        <time>2020-02-14T08:28:42.498Z</time>
      </trkpt>
      <trkpt lat="42.61478" lon="1.98941">
        <ele>2614.4</ele>
        <time>2020-02-14T08:28:43.653Z</time>
      </trkpt>
      <trkpt lat="42.61478" lon="1.98941">
        <ele>2613.6</ele>
        <time>2020-02-14T08:28:43.989Z</time>
      </trkpt>
      <trkpt lat="42.61478" lon="1.98941">
        <ele>2612.6</ele>
        <time>2020-02-14T08:28:44.331Z</time>
      </trkpt>
      <trkpt lat="42.61478" lon="1.98942">
        <ele>2612.5</ele>
        <time>2020-02-14T08:28:44.535Z</time>
      </trkpt>
      <trkpt lat="42.61478" lon="1.98942">
        <ele>2617.4</ele>
        <time>2020-02-14T08:28:46.214Z</time>
      </trkpt>
      <trkpt lat="42.61478" lon="1.98941">
        <ele>2612.1</ele>
        <time>2020-02-14T08:28:48.053Z</time>
      </trkpt>
      <trkpt lat="42.61478" lon="1.98941">
        <ele>2611.6</ele>
        <time>2020-02-14T08:28:48.210Z</time>
      </trkpt>
      <trkpt lat="42.61478" lon="1.98941">
        <ele>2608.3</ele>
        <time>2020-02-14T08:28:49.382Z</time>
      </trkpt>
      <trkpt lat="42.61478" lon="1.98941">
        <ele>2613.5</ele>
        <time>2020-02-14T08:28:51.202Z</time>
      </trkpt>
      <trkpt lat="42.61478" lon="1.98941">
        <ele>2613</ele>
        <time>2020-02-14T08:28:51.367Z</time>
      </trkpt>
      <trkpt lat="42.61474" lon="1.98937">
        <ele>2612.5</ele>
        <time>2020-02-14T08:28:53.187Z</time>
      </trkpt>
      <trkpt lat="42.61469" lon="1.98947">
        <ele>2611.7</ele>
        <time>2020-02-14T08:28:56.575Z</time>
      </trkpt>
      <trkpt lat="42.61462" lon="1.98951">
        <ele>2611.6</ele>
        <time>2020-02-14T08:28:59.643Z</time>
      </trkpt>
      <trkpt lat="42.61458" lon="1.98942">
        <ele>2609.2</ele>
        <time>2020-02-14T08:29:02.630Z</time>
      </trkpt>
      <trkpt lat="42.61454" lon="1.98938">
        <ele>2606.9</ele>
        <time>2020-02-14T08:29:04.710Z</time>
      </trkpt>
      <trkpt lat="42.61452" lon="1.98939">
        <ele>2604.4</ele>
        <time>2020-02-14T08:29:05.966Z</time>
      </trkpt>
      <trkpt lat="42.61447" lon="1.98934">
        <ele>2602</ele>
        <time>2020-02-14T08:29:08.499Z</time>
      </trkpt>
      <trkpt lat="42.61441" lon="1.98933">
        <ele>2599.2</ele>
        <time>2020-02-14T08:29:11.139Z</time>
      </trkpt>
      <trkpt lat="42.61439" lon="1.98936">
        <ele>2595.8</ele>
        <time>2020-02-14T08:29:12.899Z</time>
      </trkpt>
      <trkpt lat="42.61432" lon="1.9894">
        <ele>2592.4</ele>
        <time>2020-02-14T08:29:15.888Z</time>
      </trkpt>
      <trkpt lat="42.61425" lon="1.9894">
        <ele>2588.5</ele>
        <time>2020-02-14T08:29:19.111Z</time>
      </trkpt>
      <trkpt lat="42.61418" lon="1.98943">
        <ele>2585.1</ele>
        <time>2020-02-14T08:29:21.940Z</time>
      </trkpt>
      <trkpt lat="42.6141" lon="1.98941">
        <ele>2582.2</ele>
        <time>2020-02-14T08:29:25.208Z</time>
      </trkpt>
      <trkpt lat="42.61406" lon="1.98935">
        <ele>2579.5</ele>
        <time>2020-02-14T08:29:27.701Z</time>
      </trkpt>
      <trkpt lat="42.61401" lon="1.9893">
        <ele>2576</ele>
        <time>2020-02-14T08:29:30.454Z</time>
      </trkpt>
      <trkpt lat="42.61394" lon="1.9893">
        <ele>2573.1</ele>
        <time>2020-02-14T08:29:33.186Z</time>
      </trkpt>
      <trkpt lat="42.61389" lon="1.98933">
        <ele>2570.2</ele>
        <time>2020-02-14T08:29:35.586Z</time>
      </trkpt>
      <trkpt lat="42.6138" lon="1.98923">
        <ele>2568.4</ele>
        <time>2020-02-14T08:29:40.043Z</time>
      </trkpt>
      <trkpt lat="42.61371" lon="1.9892">
        <ele>2565.4</ele>
        <time>2020-02-14T08:29:43.726Z</time>
      </trkpt>
      <trkpt lat="42.61363" lon="1.98921">
        <ele>2564.6</ele>
        <time>2020-02-14T08:29:47.025Z</time>
      </trkpt>
      <trkpt lat="42.61352" lon="1.98919">
        <ele>2561.7</ele>
        <time>2020-02-14T08:29:51.327Z</time>
      </trkpt>
      <trkpt lat="42.61349" lon="1.98919">
        <ele>2561.1</ele>
        <time>2020-02-14T08:29:52.661Z</time>
      </trkpt>
      <trkpt lat="42.61341" lon="1.98915">
        <ele>2558.7</ele>
        <time>2020-02-14T08:29:55.911Z</time>
      </trkpt>
      <trkpt lat="42.6134" lon="1.98917">
        <ele>2558.3</ele>
        <time>2020-02-14T08:29:56.437Z</time>
      </trkpt>
      <trkpt lat="42.6134" lon="1.98927">
        <ele>2555.4</ele>
        <time>2020-02-14T08:29:59.415Z</time>
      </trkpt>
      <trkpt lat="42.61332" lon="1.9893">
        <ele>2553</ele>
        <time>2020-02-14T08:30:02.673Z</time>
      </trkpt>
      <trkpt lat="42.61327" lon="1.98932">
        <ele>2550</ele>
        <time>2020-02-14T08:30:04.927Z</time>
      </trkpt>
      <trkpt lat="42.61331" lon="1.98941">
        <ele>2548.2</ele>
        <time>2020-02-14T08:30:07.797Z</time>
      </trkpt>
      <trkpt lat="42.61331" lon="1.98949">
        <ele>2545.3</ele>
        <time>2020-02-14T08:30:10.357Z</time>
      </trkpt>
      <trkpt lat="42.6133" lon="1.98957">
        <ele>2542</ele>
        <time>2020-02-14T08:30:12.953Z</time>
      </trkpt>
      <trkpt lat="42.61331" lon="1.98966">
        <ele>2540.5</ele>
        <time>2020-02-14T08:30:15.576Z</time>
      </trkpt>
      <trkpt lat="42.61327" lon="1.98971">
        <ele>2538</ele>
        <time>2020-02-14T08:30:17.743Z</time>
      </trkpt>
      <trkpt lat="42.61324" lon="1.98973">
        <ele>2536.1</ele>
        <time>2020-02-14T08:30:19.349Z</time>
      </trkpt>
      <trkpt lat="42.61318" lon="1.98973">
        <ele>2533.7</ele>
        <time>2020-02-14T08:30:21.742Z</time>
      </trkpt>
      <trkpt lat="42.61316" lon="1.98981">
        <ele>2531.4</ele>
        <time>2020-02-14T08:30:24.196Z</time>
      </trkpt>
      <trkpt lat="42.61307" lon="1.98983">
        <ele>2528.9</ele>
        <time>2020-02-14T08:30:27.744Z</time>
      </trkpt>
      <trkpt lat="42.61304" lon="1.98981">
        <ele>2528</ele>
        <time>2020-02-14T08:30:29.084Z</time>
      </trkpt>
      <trkpt lat="42.61293" lon="1.9898">
        <ele>2526.1</ele>
        <time>2020-02-14T08:30:33.166Z</time>
      </trkpt>
      <trkpt lat="42.61286" lon="1.98982">
        <ele>2523.6</ele>
        <time>2020-02-14T08:30:36.063Z</time>
      </trkpt>
      <trkpt lat="42.61284" lon="1.98994">
        <ele>2520.2</ele>
        <time>2020-02-14T08:30:39.606Z</time>
      </trkpt>
      <trkpt lat="42.6128" lon="1.99005">
        <ele>2517</ele>
        <time>2020-02-14T08:30:43.460Z</time>
      </trkpt>
      <trkpt lat="42.6128" lon="1.99006">
        <ele>2517.5</ele>
        <time>2020-02-14T08:30:43.751Z</time>
      </trkpt>
      <trkpt lat="42.61279" lon="1.99016">
        <ele>2516</ele>
        <time>2020-02-14T08:30:46.740Z</time>
      </trkpt>
      <trkpt lat="42.6128" lon="1.99021">
        <ele>2515</ele>
        <time>2020-02-14T08:30:48.356Z</time>
      </trkpt>
      <trkpt lat="42.61277" lon="1.99029">
        <ele>2515</ele>
        <time>2020-02-14T08:30:50.594Z</time>
      </trkpt>
      <trkpt lat="42.6127" lon="1.99033">
        <ele>2512.2</ele>
        <time>2020-02-14T08:30:53.773Z</time>
      </trkpt>
      <trkpt lat="42.61268" lon="1.99033">
        <ele>2511.2</ele>
        <time>2020-02-14T08:30:54.731Z</time>
      </trkpt>
      <trkpt lat="42.61263" lon="1.99034">
        <ele>2510.7</ele>
        <time>2020-02-14T08:30:56.689Z</time>
      </trkpt>
      <trkpt lat="42.61249" lon="1.99039">
        <ele>2508.8</ele>
        <time>2020-02-14T08:31:02.450Z</time>
      </trkpt>
      <trkpt lat="42.61246" lon="1.99039">
        <ele>2508.3</ele>
        <time>2020-02-14T08:31:03.288Z</time>
      </trkpt>
      <trkpt lat="42.61242" lon="1.9904">
        <ele>2507.4</ele>
        <time>2020-02-14T08:31:05.062Z</time>
      </trkpt>
      <trkpt lat="42.61236" lon="1.99043">
        <ele>2506.3</ele>
        <time>2020-02-14T08:31:07.542Z</time>
      </trkpt>
      <trkpt lat="42.61227" lon="1.99048">
        <ele>2504.4</ele>
        <time>2020-02-14T08:31:11.277Z</time>
      </trkpt>
      <trkpt lat="42.61224" lon="1.9905">
        <ele>2503.4</ele>
        <time>2020-02-14T08:31:12.652Z</time>
      </trkpt>
      <trkpt lat="42.61221" lon="1.99054">
        <ele>2502</ele>
        <time>2020-02-14T08:31:14.339Z</time>
      </trkpt>
      <trkpt lat="42.61219" lon="1.99057">
        <ele>2501.5</ele>
        <time>2020-02-14T08:31:15.454Z</time>
      </trkpt>
      <trkpt lat="42.61217" lon="1.99058">
        <ele>2500.2</ele>
        <time>2020-02-14T08:31:16.401Z</time>
      </trkpt>
      <trkpt lat="42.6121" lon="1.99059">
        <ele>2498.1</ele>
        <time>2020-02-14T08:31:19.241Z</time>
      </trkpt>
      <trkpt lat="42.61202" lon="1.99066">
        <ele>2496.3</ele>
        <time>2020-02-14T08:31:23.157Z</time>
      </trkpt>
      <trkpt lat="42.612" lon="1.99069">
        <ele>2495.7</ele>
        <time>2020-02-14T08:31:24.221Z</time>
      </trkpt>
      <trkpt lat="42.61191" lon="1.99075">
        <ele>2494.3</ele>
        <time>2020-02-14T08:31:28.053Z</time>
      </trkpt>
      <trkpt lat="42.61189" lon="1.99075">
        <ele>2493.8</ele>
        <time>2020-02-14T08:31:28.851Z</time>
      </trkpt>
      <trkpt lat="42.61184" lon="1.99078">
        <ele>2492</ele>
        <time>2020-02-14T08:31:31.203Z</time>
      </trkpt>
      <trkpt lat="42.61181" lon="1.99085">
        <ele>2490.5</ele>
        <time>2020-02-14T08:31:33.351Z</time>
      </trkpt>
      <trkpt lat="42.6118" lon="1.99091">
        <ele>2488.5</ele>
        <time>2020-02-14T08:31:35.342Z</time>
      </trkpt>
      <trkpt lat="42.6118" lon="1.99102">
        <ele>2485.6</ele>
        <time>2020-02-14T08:31:38.599Z</time>
      </trkpt>
      <trkpt lat="42.61178" lon="1.99116">
        <ele>2482.3</ele>
        <time>2020-02-14T08:31:42.671Z</time>
      </trkpt>
      <trkpt lat="42.61177" lon="1.9912">
        <ele>2481.9</ele>
        <time>2020-02-14T08:31:43.870Z</time>
      </trkpt>
      <trkpt lat="42.61172" lon="1.99125">
        <ele>2480.3</ele>
        <time>2020-02-14T08:31:46.363Z</time>
      </trkpt>
      <trkpt lat="42.61166" lon="1.99128">
        <ele>2479.4</ele>
        <time>2020-02-14T08:31:49.135Z</time>
      </trkpt>
      <trkpt lat="42.61161" lon="1.99133">
        <ele>2478</ele>
        <time>2020-02-14T08:31:51.332Z</time>
      </trkpt>
      <trkpt lat="42.6116" lon="1.99135">
        <ele>2478</ele>
        <time>2020-02-14T08:31:52.295Z</time>
      </trkpt>
      <trkpt lat="42.61155" lon="1.99138">
        <ele>2476.6</ele>
        <time>2020-02-14T08:31:54.402Z</time>
      </trkpt>
      <trkpt lat="42.6115" lon="1.99144">
        <ele>2474.6</ele>
        <time>2020-02-14T08:31:57.044Z</time>
      </trkpt>
      <trkpt lat="42.61139" lon="1.99147">
        <ele>2472.3</ele>
        <time>2020-02-14T08:32:01.162Z</time>
      </trkpt>
      <trkpt lat="42.61138" lon="1.99148">
        <ele>2472.2</ele>
        <time>2020-02-14T08:32:01.929Z</time>
      </trkpt>
      <trkpt lat="42.61125" lon="1.99152">
        <ele>2470.2</ele>
        <time>2020-02-14T08:32:07.151Z</time>
      </trkpt>
      <trkpt lat="42.61119" lon="1.99159">
        <ele>2468.8</ele>
        <time>2020-02-14T08:32:10.216Z</time>
      </trkpt>
      <trkpt lat="42.61108" lon="1.99176">
        <ele>2467</ele>
        <time>2020-02-14T08:32:16.617Z</time>
      </trkpt>
      <trkpt lat="42.61096" lon="1.99188">
        <ele>2465</ele>
        <time>2020-02-14T08:32:22.476Z</time>
      </trkpt>
      <trkpt lat="42.61088" lon="1.99193">
        <ele>2463.5</ele>
        <time>2020-02-14T08:32:25.753Z</time>
      </trkpt>
      <trkpt lat="42.61085" lon="1.99194">
        <ele>2462.6</ele>
        <time>2020-02-14T08:32:27.082Z</time>
      </trkpt>
      <trkpt lat="42.61076" lon="1.992">
        <ele>2461.7</ele>
        <time>2020-02-14T08:32:30.988Z</time>
      </trkpt>
      <trkpt lat="42.6106" lon="1.99204">
        <ele>2459.3</ele>
        <time>2020-02-14T08:32:37.295Z</time>
      </trkpt>
      <trkpt lat="42.61059" lon="1.99205">
        <ele>2458.8</ele>
        <time>2020-02-14T08:32:37.710Z</time>
      </trkpt>
      <trkpt lat="42.61044" lon="1.99212">
        <ele>2455.4</ele>
        <time>2020-02-14T08:32:43.918Z</time>
      </trkpt>
      <trkpt lat="42.61029" lon="1.99221">
        <ele>2453.9</ele>
        <time>2020-02-14T08:32:50.312Z</time>
      </trkpt>
      <trkpt lat="42.61015" lon="1.99232">
        <ele>2453.9</ele>
        <time>2020-02-14T08:32:56.409Z</time>
      </trkpt>
      <trkpt lat="42.61013" lon="1.99234">
        <ele>2453.4</ele>
        <time>2020-02-14T08:32:57.698Z</time>
      </trkpt>
      <trkpt lat="42.61005" lon="1.99237">
        <ele>2452.5</ele>
        <time>2020-02-14T08:33:00.793Z</time>
      </trkpt>
      <trkpt lat="42.60997" lon="1.9924">
        <ele>2450.2</ele>
        <time>2020-02-14T08:33:03.996Z</time>
      </trkpt>
      <trkpt lat="42.60986" lon="1.99249">
        <ele>2447.2</ele>
        <time>2020-02-14T08:33:09.117Z</time>
      </trkpt>
      <trkpt lat="42.60978" lon="1.99253">
        <ele>2445.8</ele>
        <time>2020-02-14T08:33:12.345Z</time>
      </trkpt>
      <trkpt lat="42.60976" lon="1.99252">
        <ele>2445.4</ele>
        <time>2020-02-14T08:33:13.191Z</time>
      </trkpt>
      <trkpt lat="42.60972" lon="1.99244">
        <ele>2441.9</ele>
        <time>2020-02-14T08:33:16.172Z</time>
      </trkpt>
      <trkpt lat="42.60968" lon="1.99246">
        <ele>2440.4</ele>
        <time>2020-02-14T08:33:17.827Z</time>
      </trkpt>
      <trkpt lat="42.60963" lon="1.99245">
        <ele>2439.1</ele>
        <time>2020-02-14T08:33:19.731Z</time>
      </trkpt>
      <trkpt lat="42.60961" lon="1.99244">
        <ele>2438.1</ele>
        <time>2020-02-14T08:33:20.849Z</time>
      </trkpt>
      <trkpt lat="42.60958" lon="1.99251">
        <ele>2435.2</ele>
        <time>2020-02-14T08:33:23.374Z</time>
      </trkpt>
      <trkpt lat="42.60951" lon="1.99251">
        <ele>2432.3</ele>
        <time>2020-02-14T08:33:26.076Z</time>
      </trkpt>
      <trkpt lat="42.60947" lon="1.99249">
        <ele>2431.4</ele>
        <time>2020-02-14T08:33:27.625Z</time>
      </trkpt>
      <trkpt lat="42.60938" lon="1.9925">
        <ele>2428.9</ele>
        <time>2020-02-14T08:33:31.438Z</time>
      </trkpt>
      <trkpt lat="42.60933" lon="1.99255">
        <ele>2428.5</ele>
        <time>2020-02-14T08:33:33.657Z</time>
      </trkpt>
      <trkpt lat="42.60929" lon="1.99257">
        <ele>2427.6</ele>
        <time>2020-02-14T08:33:35.306Z</time>
      </trkpt>
      <trkpt lat="42.60925" lon="1.99263">
        <ele>2425.6</ele>
        <time>2020-02-14T08:33:37.590Z</time>
      </trkpt>
      <trkpt lat="42.60924" lon="1.99266">
        <ele>2424.2</ele>
        <time>2020-02-14T08:33:38.740Z</time>
      </trkpt>
      <trkpt lat="42.60917" lon="1.99266">
        <ele>2422.8</ele>
        <time>2020-02-14T08:33:41.558Z</time>
      </trkpt>
      <trkpt lat="42.60914" lon="1.99279">
        <ele>2420.4</ele>
        <time>2020-02-14T08:33:45.475Z</time>
      </trkpt>
      <trkpt lat="42.60912" lon="1.99285">
        <ele>2417.9</ele>
        <time>2020-02-14T08:33:47.602Z</time>
      </trkpt>
      <trkpt lat="42.60904" lon="1.99294">
        <ele>2416.4</ele>
        <time>2020-02-14T08:33:51.633Z</time>
      </trkpt>
      <trkpt lat="42.60899" lon="1.99297">
        <ele>2413.5</ele>
        <time>2020-02-14T08:33:54.106Z</time>
      </trkpt>
      <trkpt lat="42.60898" lon="1.99297">
        <ele>2413.5</ele>
        <time>2020-02-14T08:33:54.272Z</time>
      </trkpt>
      <trkpt lat="42.60895" lon="1.99297">
        <ele>2413.1</ele>
        <time>2020-02-14T08:33:55.446Z</time>
      </trkpt>
      <trkpt lat="42.60889" lon="1.99307">
        <ele>2411.7</ele>
        <time>2020-02-14T08:33:59.336Z</time>
      </trkpt>
      <trkpt lat="42.60887" lon="1.99316">
        <ele>2411.1</ele>
        <time>2020-02-14T08:34:01.853Z</time>
      </trkpt>
      <trkpt lat="42.60891" lon="1.99328">
        <ele>2409.8</ele>
        <time>2020-02-14T08:34:05.434Z</time>
      </trkpt>
      <trkpt lat="42.60885" lon="1.99335">
        <ele>2407.9</ele>
        <time>2020-02-14T08:34:08.447Z</time>
      </trkpt>
      <trkpt lat="42.60871" lon="1.9934">
        <ele>2405.9</ele>
        <time>2020-02-14T08:34:14.019Z</time>
      </trkpt>
      <trkpt lat="42.60868" lon="1.99343">
        <ele>2405</ele>
        <time>2020-02-14T08:34:15.437Z</time>
      </trkpt>
      <trkpt lat="42.60861" lon="1.99344">
        <ele>2403.4</ele>
        <time>2020-02-14T08:34:18.315Z</time>
      </trkpt>
      <trkpt lat="42.60851" lon="1.9934">
        <ele>2402.5</ele>
        <time>2020-02-14T08:34:22.124Z</time>
      </trkpt>
      <trkpt lat="42.60841" lon="1.9934">
        <ele>2401</ele>
        <time>2020-02-14T08:34:26.211Z</time>
      </trkpt>
      <trkpt lat="42.60829" lon="1.99345">
        <ele>2399.2</ele>
        <time>2020-02-14T08:34:31.134Z</time>
      </trkpt>
      <trkpt lat="42.60825" lon="1.99346">
        <ele>2398.7</ele>
        <time>2020-02-14T08:34:32.824Z</time>
      </trkpt>
      <trkpt lat="42.60815" lon="1.9935">
        <ele>2396.8</ele>
        <time>2020-02-14T08:34:36.931Z</time>
      </trkpt>
      <trkpt lat="42.60816" lon="1.99352">
        <ele>2396.8</ele>
        <time>2020-02-14T08:34:37.595Z</time>
      </trkpt>
      <trkpt lat="42.60815" lon="1.99362">
        <ele>2396.3</ele>
        <time>2020-02-14T08:34:40.387Z</time>
      </trkpt>
      <trkpt lat="42.60809" lon="1.99369">
        <ele>2395.4</ele>
        <time>2020-02-14T08:34:43.308Z</time>
      </trkpt>
      <trkpt lat="42.60807" lon="1.99377">
        <ele>2395.4</ele>
        <time>2020-02-14T08:34:45.646Z</time>
      </trkpt>
      <trkpt lat="42.60804" lon="1.9938">
        <ele>2394.3</ele>
        <time>2020-02-14T08:34:47.019Z</time>
      </trkpt>
      <trkpt lat="42.60802" lon="1.99393">
        <ele>2393.3</ele>
        <time>2020-02-14T08:34:50.816Z</time>
      </trkpt>
      <trkpt lat="42.608" lon="1.99396">
        <ele>2392.9</ele>
        <time>2020-02-14T08:34:52.020Z</time>
      </trkpt>
      <trkpt lat="42.60797" lon="1.994">
        <ele>2392.4</ele>
        <time>2020-02-14T08:34:53.450Z</time>
      </trkpt>
      <trkpt lat="42.60796" lon="1.99397">
        <ele>2392</ele>
        <time>2020-02-14T08:34:54.329Z</time>
      </trkpt>
      <trkpt lat="42.60784" lon="1.99393">
        <ele>2389</ele>
        <time>2020-02-14T08:34:59.002Z</time>
      </trkpt>
      <trkpt lat="42.60781" lon="1.99395">
        <ele>2388.1</ele>
        <time>2020-02-14T08:35:00.500Z</time>
      </trkpt>
      <trkpt lat="42.60772" lon="1.9939">
        <ele>2385.8</ele>
        <time>2020-02-14T08:35:04.292Z</time>
      </trkpt>
      <trkpt lat="42.6077" lon="1.9939">
        <ele>2385.3</ele>
        <time>2020-02-14T08:35:05.108Z</time>
      </trkpt>
      <trkpt lat="42.60765" lon="1.99387">
        <ele>2384.7</ele>
        <time>2020-02-14T08:35:07.007Z</time>
      </trkpt>
      <trkpt lat="42.60754" lon="1.99378">
        <ele>2383.3</ele>
        <time>2020-02-14T08:35:11.925Z</time>
      </trkpt>
      <trkpt lat="42.60751" lon="1.99372">
        <ele>2382.8</ele>
        <time>2020-02-14T08:35:14.160Z</time>
      </trkpt>
      <trkpt lat="42.60743" lon="1.99374">
        <ele>2380.5</ele>
        <time>2020-02-14T08:35:17.401Z</time>
      </trkpt>
      <trkpt lat="42.60736" lon="1.99366">
        <ele>2379.4</ele>
        <time>2020-02-14T08:35:20.973Z</time>
      </trkpt>
      <trkpt lat="42.60735" lon="1.99366">
        <ele>2379.4</ele>
        <time>2020-02-14T08:35:21.288Z</time>
      </trkpt>
      <trkpt lat="42.60734" lon="1.99361">
        <ele>2380.5</ele>
        <time>2020-02-14T08:35:22.595Z</time>
      </trkpt>
      <trkpt lat="42.60729" lon="1.99361">
        <ele>2379.9</ele>
        <time>2020-02-14T08:35:24.456Z</time>
      </trkpt>
      <trkpt lat="42.60719" lon="1.99381">
        <ele>2378.1</ele>
        <time>2020-02-14T08:35:31.351Z</time>
      </trkpt>
      <trkpt lat="42.60717" lon="1.99386">
        <ele>2377.5</ele>
        <time>2020-02-14T08:35:32.897Z</time>
      </trkpt>
      <trkpt lat="42.60717" lon="1.99389">
        <ele>2377.5</ele>
        <time>2020-02-14T08:35:33.809Z</time>
      </trkpt>
      <trkpt lat="42.60718" lon="1.99394">
        <ele>2377.5</ele>
        <time>2020-02-14T08:35:35.124Z</time>
      </trkpt>
      <trkpt lat="42.60711" lon="1.99417">
        <ele>2374.6</ele>
        <time>2020-02-14T08:35:42.353Z</time>
      </trkpt>
      <trkpt lat="42.60711" lon="1.99418">
        <ele>2374.1</ele>
        <time>2020-02-14T08:35:42.782Z</time>
      </trkpt>
      <trkpt lat="42.60699" lon="1.99432">
        <ele>2371.7</ele>
        <time>2020-02-14T08:35:48.820Z</time>
      </trkpt>
      <trkpt lat="42.60697" lon="1.99436">
        <ele>2371.2</ele>
        <time>2020-02-14T08:35:50.002Z</time>
      </trkpt>
      <trkpt lat="42.60694" lon="1.99439">
        <ele>2369.8</ele>
        <time>2020-02-14T08:35:51.768Z</time>
      </trkpt>
      <trkpt lat="42.60691" lon="1.99443">
        <ele>2368.8</ele>
        <time>2020-02-14T08:35:53.287Z</time>
      </trkpt>
      <trkpt lat="42.60678" lon="1.99452">
        <ele>2365.1</ele>
        <time>2020-02-14T08:35:58.961Z</time>
      </trkpt>
      <trkpt lat="42.60674" lon="1.99455">
        <ele>2364</ele>
        <time>2020-02-14T08:36:00.746Z</time>
      </trkpt>
      <trkpt lat="42.60673" lon="1.99457">
        <ele>2363.6</ele>
        <time>2020-02-14T08:36:01.522Z</time>
      </trkpt>
      <trkpt lat="42.60669" lon="1.99461">
        <ele>2362.6</ele>
        <time>2020-02-14T08:36:03.513Z</time>
      </trkpt>
      <trkpt lat="42.60667" lon="1.99463">
        <ele>2362.2</ele>
        <time>2020-02-14T08:36:04.533Z</time>
      </trkpt>
      <trkpt lat="42.60667" lon="1.99463">
        <ele>2362.2</ele>
        <time>2020-02-14T08:36:04.546Z</time>
      </trkpt>
      <trkpt lat="42.60667" lon="1.9947">
        <ele>2359.7</ele>
        <time>2020-02-14T08:36:06.605Z</time>
      </trkpt>
      <trkpt lat="42.60666" lon="1.9947">
        <ele>2365.1</ele>
        <time>2020-02-14T08:36:08.466Z</time>
      </trkpt>
      <trkpt lat="42.60666" lon="1.9947">
        <ele>2359.7</ele>
        <time>2020-02-14T08:36:10.324Z</time>
      </trkpt>
      <trkpt lat="42.60666" lon="1.9947">
        <ele>2363.1</ele>
        <time>2020-02-14T08:36:11.501Z</time>
      </trkpt>
      <trkpt lat="42.60666" lon="1.9947">
        <ele>2353.9</ele>
        <time>2020-02-14T08:36:14.686Z</time>
      </trkpt>
      <trkpt lat="42.60666" lon="1.9947">
        <ele>2361.1</ele>
        <time>2020-02-14T08:36:17.192Z</time>
      </trkpt>
      <trkpt lat="42.60666" lon="1.9947">
        <ele>2357.8</ele>
        <time>2020-02-14T08:36:18.348Z</time>
      </trkpt>
      <trkpt lat="42.60666" lon="1.9947">
        <ele>2362.6</ele>
        <time>2020-02-14T08:36:20.018Z</time>
      </trkpt>
      <trkpt lat="42.60666" lon="1.9947">
        <ele>2358.3</ele>
        <time>2020-02-14T08:36:21.508Z</time>
      </trkpt>
      <trkpt lat="42.60666" lon="1.9947">
        <ele>2363.6</ele>
        <time>2020-02-14T08:36:23.325Z</time>
      </trkpt>
      <trkpt lat="42.60666" lon="1.9947">
        <ele>2356.8</ele>
        <time>2020-02-14T08:36:25.666Z</time>
      </trkpt>
      <trkpt lat="42.60666" lon="1.9947">
        <ele>2360.8</ele>
        <time>2020-02-14T08:36:27.027Z</time>
      </trkpt>
      <trkpt lat="42.60666" lon="1.9947">
        <ele>2347.8</ele>
        <time>2020-02-14T08:36:31.541Z</time>
      </trkpt>
      <trkpt lat="42.60666" lon="1.9947">
        <ele>2362.1</ele>
        <time>2020-02-14T08:36:36.524Z</time>
      </trkpt>
      <trkpt lat="42.60666" lon="1.9947">
        <ele>2365.5</ele>
        <time>2020-02-14T08:36:37.701Z</time>
      </trkpt>
      <trkpt lat="42.60666" lon="1.9947">
        <ele>2355</ele>
        <time>2020-02-14T08:36:41.355Z</time>
      </trkpt>
      <trkpt lat="42.60666" lon="1.9947">
        <ele>2359.7</ele>
        <time>2020-02-14T08:36:42.998Z</time>
      </trkpt>
      <trkpt lat="42.60666" lon="1.9947">
        <ele>2363.2</ele>
        <time>2020-02-14T08:36:44.200Z</time>
      </trkpt>
      <trkpt lat="42.60666" lon="1.9947">
        <ele>2360.3</ele>
        <time>2020-02-14T08:36:45.215Z</time>
      </trkpt>
      <trkpt lat="42.60666" lon="1.9947">
        <ele>2360.2</ele>
        <time>2020-02-14T08:36:45.345Z</time>
      </trkpt>
      <trkpt lat="42.60662" lon="1.99475">
        <ele>2356.8</ele>
        <time>2020-02-14T08:36:47.770Z</time>
      </trkpt>
      <trkpt lat="42.60657" lon="1.99488">
        <ele>2354</ele>
        <time>2020-02-14T08:36:52.115Z</time>
      </trkpt>
      <trkpt lat="42.60657" lon="1.99501">
        <ele>2350.6</ele>
        <time>2020-02-14T08:36:55.769Z</time>
      </trkpt>
      <trkpt lat="42.60652" lon="1.99502">
        <ele>2349.1</ele>
        <time>2020-02-14T08:36:57.714Z</time>
      </trkpt>
      <trkpt lat="42.60643" lon="1.995">
        <ele>2346.2</ele>
        <time>2020-02-14T08:37:01.541Z</time>
      </trkpt>
      <trkpt lat="42.60641" lon="1.99499">
        <ele>2345.8</ele>
        <time>2020-02-14T08:37:02.138Z</time>
      </trkpt>
      <trkpt lat="42.60639" lon="1.99498">
        <ele>2344.9</ele>
        <time>2020-02-14T08:37:03.090Z</time>
      </trkpt>
      <trkpt lat="42.60628" lon="1.99484">
        <ele>2344.4</ele>
        <time>2020-02-14T08:37:08.775Z</time>
      </trkpt>
      <trkpt lat="42.60625" lon="1.99482">
        <ele>2343.4</ele>
        <time>2020-02-14T08:37:10.348Z</time>
      </trkpt>
      <trkpt lat="42.60615" lon="1.99478">
        <ele>2341.5</ele>
        <time>2020-02-14T08:37:14.249Z</time>
      </trkpt>
      <trkpt lat="42.6061" lon="1.99477">
        <ele>2341.1</ele>
        <time>2020-02-14T08:37:16.462Z</time>
      </trkpt>
      <trkpt lat="42.60604" lon="1.99475">
        <ele>2340.1</ele>
        <time>2020-02-14T08:37:18.830Z</time>
      </trkpt>
      <trkpt lat="42.60589" lon="1.99473">
        <ele>2338.6</ele>
        <time>2020-02-14T08:37:24.689Z</time>
      </trkpt>
      <trkpt lat="42.60583" lon="1.99471">
        <ele>2339</ele>
        <time>2020-02-14T08:37:26.832Z</time>
      </trkpt>
      <trkpt lat="42.60572" lon="1.99466">
        <ele>2338.2</ele>
        <time>2020-02-14T08:37:31.400Z</time>
      </trkpt>
      <trkpt lat="42.60565" lon="1.99466">
        <ele>2339</ele>
        <time>2020-02-14T08:37:34.348Z</time>
      </trkpt>
      <trkpt lat="42.60563" lon="1.99467">
        <ele>2340</ele>
        <time>2020-02-14T08:37:34.972Z</time>
      </trkpt>
      <trkpt lat="42.6056" lon="1.99466">
        <ele>2341.1</ele>
        <time>2020-02-14T08:37:36.236Z</time>
      </trkpt>
      <trkpt lat="42.60558" lon="1.99467">
        <ele>2341.9</ele>
        <time>2020-02-14T08:37:37.107Z</time>
      </trkpt>
      <trkpt lat="42.60556" lon="1.99473">
        <ele>2341.9</ele>
        <time>2020-02-14T08:37:38.992Z</time>
      </trkpt>
      <trkpt lat="42.60546" lon="1.99478">
        <ele>2341</ele>
        <time>2020-02-14T08:37:43.004Z</time>
      </trkpt>
      <trkpt lat="42.60542" lon="1.99483">
        <ele>2339.5</ele>
        <time>2020-02-14T08:37:45.402Z</time>
      </trkpt>
      <trkpt lat="42.60537" lon="1.99493">
        <ele>2338.5</ele>
        <time>2020-02-14T08:37:48.703Z</time>
      </trkpt>
      <trkpt lat="42.60526" lon="1.99497">
        <ele>2339.1</ele>
        <time>2020-02-14T08:37:52.988Z</time>
      </trkpt>
      <trkpt lat="42.60525" lon="1.99496">
        <ele>2338.5</ele>
        <time>2020-02-14T08:37:53.751Z</time>
      </trkpt>
      <trkpt lat="42.60519" lon="1.99486">
        <ele>2337.1</ele>
        <time>2020-02-14T08:37:57.383Z</time>
      </trkpt>
      <trkpt lat="42.60512" lon="1.99477">
        <ele>2334.7</ele>
        <time>2020-02-14T08:38:01.240Z</time>
      </trkpt>
      <trkpt lat="42.6051" lon="1.99476">
        <ele>2334.7</ele>
        <time>2020-02-14T08:38:01.817Z</time>
      </trkpt>
      <trkpt lat="42.60505" lon="1.99463">
        <ele>2333.4</ele>
        <time>2020-02-14T08:38:05.951Z</time>
      </trkpt>
      <trkpt lat="42.60497" lon="1.99455">
        <ele>2333.7</ele>
        <time>2020-02-14T08:38:09.993Z</time>
      </trkpt>
      <trkpt lat="42.60495" lon="1.99453">
        <ele>2333.3</ele>
        <time>2020-02-14T08:38:10.874Z</time>
      </trkpt>
      <trkpt lat="42.6049" lon="1.99444">
        <ele>2330.5</ele>
        <time>2020-02-14T08:38:14.238Z</time>
      </trkpt>
      <trkpt lat="42.60483" lon="1.99439">
        <ele>2327.6</ele>
        <time>2020-02-14T08:38:17.420Z</time>
      </trkpt>
      <trkpt lat="42.60478" lon="1.99436">
        <ele>2327</ele>
        <time>2020-02-14T08:38:19.549Z</time>
      </trkpt>
      <trkpt lat="42.60464" lon="1.99443">
        <ele>2325.1</ele>
        <time>2020-02-14T08:38:25.600Z</time>
      </trkpt>
      <trkpt lat="42.60459" lon="1.99441">
        <ele>2322.8</ele>
        <time>2020-02-14T08:38:27.732Z</time>
      </trkpt>
      <trkpt lat="42.60453" lon="1.99438">
        <ele>2320.3</ele>
        <time>2020-02-14T08:38:30.374Z</time>
      </trkpt>
      <trkpt lat="42.60448" lon="1.99436">
        <ele>2317.9</ele>
        <time>2020-02-14T08:38:32.574Z</time>
      </trkpt>
      <trkpt lat="42.60433" lon="1.99429">
        <ele>2316.4</ele>
        <time>2020-02-14T08:38:38.615Z</time>
      </trkpt>
      <trkpt lat="42.60418" lon="1.99424">
        <ele>2314.5</ele>
        <time>2020-02-14T08:38:44.802Z</time>
      </trkpt>
      <trkpt lat="42.60415" lon="1.99423">
        <ele>2314.1</ele>
        <time>2020-02-14T08:38:45.746Z</time>
      </trkpt>
      <trkpt lat="42.60403" lon="1.99422">
        <ele>2311.3</ele>
        <time>2020-02-14T08:38:50.680Z</time>
      </trkpt>
      <trkpt lat="42.60394" lon="1.99406">
        <ele>2308.3</ele>
        <time>2020-02-14T08:38:56.425Z</time>
      </trkpt>
      <trkpt lat="42.60388" lon="1.99391">
        <ele>2306.4</ele>
        <time>2020-02-14T08:39:01.389Z</time>
      </trkpt>
      <trkpt lat="42.60386" lon="1.99388">
        <ele>2306</ele>
        <time>2020-02-14T08:39:02.563Z</time>
      </trkpt>
      <trkpt lat="42.60384" lon="1.99384">
        <ele>2306</ele>
        <time>2020-02-14T08:39:03.890Z</time>
      </trkpt>
      <trkpt lat="42.6037" lon="1.99373">
        <ele>2305.4</ele>
        <time>2020-02-14T08:39:10.269Z</time>
      </trkpt>
      <trkpt lat="42.60369" lon="1.99373">
        <ele>2305.9</ele>
        <time>2020-02-14T08:39:10.592Z</time>
      </trkpt>
      <trkpt lat="42.60361" lon="1.9937">
        <ele>2305.9</ele>
        <time>2020-02-14T08:39:13.758Z</time>
      </trkpt>
      <trkpt lat="42.60359" lon="1.99367">
        <ele>2306.8</ele>
        <time>2020-02-14T08:39:15.046Z</time>
      </trkpt>
      <trkpt lat="42.60351" lon="1.99351">
        <ele>2307.9</ele>
        <time>2020-02-14T08:39:20.550Z</time>
      </trkpt>
      <trkpt lat="42.60351" lon="1.99349">
        <ele>2307.3</ele>
        <time>2020-02-14T08:39:21.051Z</time>
      </trkpt>
      <trkpt lat="42.60347" lon="1.99344">
        <ele>2307.9</ele>
        <time>2020-02-14T08:39:23.330Z</time>
      </trkpt>
      <trkpt lat="42.60338" lon="1.99343">
        <ele>2308.8</ele>
        <time>2020-02-14T08:39:26.712Z</time>
      </trkpt>
      <trkpt lat="42.60328" lon="1.99345">
        <ele>2308.3</ele>
        <time>2020-02-14T08:39:30.778Z</time>
      </trkpt>
      <trkpt lat="42.60323" lon="1.99346">
        <ele>2307.9</ele>
        <time>2020-02-14T08:39:32.731Z</time>
      </trkpt>
      <trkpt lat="42.60316" lon="1.99346">
        <ele>2307.4</ele>
        <time>2020-02-14T08:39:35.175Z</time>
      </trkpt>
      <trkpt lat="42.60309" lon="1.99348">
        <ele>2305.9</ele>
        <time>2020-02-14T08:39:38.156Z</time>
      </trkpt>
      <trkpt lat="42.603" lon="1.99346">
        <ele>2305.5</ele>
        <time>2020-02-14T08:39:41.664Z</time>
      </trkpt>
      <trkpt lat="42.60296" lon="1.99344">
        <ele>2304.9</ele>
        <time>2020-02-14T08:39:43.389Z</time>
      </trkpt>
      <trkpt lat="42.60282" lon="1.99341">
        <ele>2305.9</ele>
        <time>2020-02-14T08:39:48.618Z</time>
      </trkpt>
      <trkpt lat="42.60271" lon="1.99338">
        <ele>2305.5</ele>
        <time>2020-02-14T08:39:53.140Z</time>
      </trkpt>
      <trkpt lat="42.60267" lon="1.99337">
        <ele>2305.4</ele>
        <time>2020-02-14T08:39:54.507Z</time>
      </trkpt>
      <trkpt lat="42.60262" lon="1.99338">
        <ele>2304.5</ele>
        <time>2020-02-14T08:39:56.436Z</time>
      </trkpt>
      <trkpt lat="42.60247" lon="1.99334">
        <ele>2302</ele>
        <time>2020-02-14T08:40:02.417Z</time>
      </trkpt>
      <trkpt lat="42.60239" lon="1.99336">
        <ele>2302.5</ele>
        <time>2020-02-14T08:40:05.522Z</time>
      </trkpt>
      <trkpt lat="42.60237" lon="1.99337">
        <ele>2302.6</ele>
        <time>2020-02-14T08:40:06.420Z</time>
      </trkpt>
      <trkpt lat="42.60234" lon="1.99338">
        <ele>2307.4</ele>
        <time>2020-02-14T08:40:08.487Z</time>
      </trkpt>
      <trkpt lat="42.60233" lon="1.99339">
        <ele>2302.5</ele>
        <time>2020-02-14T08:40:10.223Z</time>
      </trkpt>
      <trkpt lat="42.60231" lon="1.99341">
        <ele>2293.4</ele>
        <time>2020-02-14T08:40:13.524Z</time>
      </trkpt>
      <trkpt lat="42.60229" lon="1.99343">
        <ele>2296.3</ele>
        <time>2020-02-14T08:40:14.921Z</time>
      </trkpt>
      <trkpt lat="42.60227" lon="1.99345">
        <ele>2293.4</ele>
        <time>2020-02-14T08:40:16.302Z</time>
      </trkpt>
      <trkpt lat="42.60225" lon="1.99346">
        <ele>2302</ele>
        <time>2020-02-14T08:40:19.470Z</time>
      </trkpt>
      <trkpt lat="42.60213" lon="1.99357">
        <ele>2302.1</ele>
        <time>2020-02-14T08:40:24.982Z</time>
      </trkpt>
      <trkpt lat="42.60207" lon="1.99359">
        <ele>2307.9</ele>
        <time>2020-02-14T08:40:27.909Z</time>
      </trkpt>
      <trkpt lat="42.60206" lon="1.9936">
        <ele>2302.1</ele>
        <time>2020-02-14T08:40:30.013Z</time>
      </trkpt>
      <trkpt lat="42.60201" lon="1.99359">
        <ele>2289.5</ele>
        <time>2020-02-14T08:40:34.749Z</time>
      </trkpt>
      <trkpt lat="42.60201" lon="1.99359">
        <ele>2305</ele>
        <time>2020-02-14T08:40:40.106Z</time>
      </trkpt>
      <trkpt lat="42.60201" lon="1.99359">
        <ele>2298.3</ele>
        <time>2020-02-14T08:40:42.426Z</time>
      </trkpt>
      <trkpt lat="42.60201" lon="1.99359">
        <ele>2303.6</ele>
        <time>2020-02-14T08:40:44.273Z</time>
      </trkpt>
      <trkpt lat="42.60201" lon="1.99359">
        <ele>2310.2</ele>
        <time>2020-02-14T08:40:46.584Z</time>
      </trkpt>
      <trkpt lat="42.602" lon="1.99359">
        <ele>2303.5</ele>
        <time>2020-02-14T08:40:48.952Z</time>
      </trkpt>
      <trkpt lat="42.60199" lon="1.99359">
        <ele>2301.5</ele>
        <time>2020-02-14T08:40:49.823Z</time>
      </trkpt>
      <trkpt lat="42.60196" lon="1.99362">
        <ele>2300.6</ele>
        <time>2020-02-14T08:40:51.404Z</time>
      </trkpt>
      <trkpt lat="42.60194" lon="1.99363">
        <ele>2300.6</ele>
        <time>2020-02-14T08:40:51.898Z</time>
      </trkpt>
      <trkpt lat="42.60192" lon="1.99368">
        <ele>2299.6</ele>
        <time>2020-02-14T08:40:53.650Z</time>
      </trkpt>
      <trkpt lat="42.60192" lon="1.99368">
        <ele>2300.2</ele>
        <time>2020-02-14T08:40:53.837Z</time>
      </trkpt>
      <trkpt lat="42.60188" lon="1.99385">
        <ele>2298.2</ele>
        <time>2020-02-14T08:40:58.907Z</time>
      </trkpt>
      <trkpt lat="42.60184" lon="1.99393">
        <ele>2297.2</ele>
        <time>2020-02-14T08:41:01.817Z</time>
      </trkpt>
      <trkpt lat="42.60181" lon="1.99397">
        <ele>2296.8</ele>
        <time>2020-02-14T08:41:03.398Z</time>
      </trkpt>
      <trkpt lat="42.60176" lon="1.99414">
        <ele>2295.4</ele>
        <time>2020-02-14T08:41:08.541Z</time>
      </trkpt>
      <trkpt lat="42.60171" lon="1.99427">
        <ele>2293.4</ele>
        <time>2020-02-14T08:41:12.895Z</time>
      </trkpt>
      <trkpt lat="42.60167" lon="1.99444">
        <ele>2292.4</ele>
        <time>2020-02-14T08:41:17.962Z</time>
      </trkpt>
      <trkpt lat="42.60165" lon="1.99454">
        <ele>2291.9</ele>
        <time>2020-02-14T08:41:20.674Z</time>
      </trkpt>
      <trkpt lat="42.6016" lon="1.99461">
        <ele>2290</ele>
        <time>2020-02-14T08:41:23.704Z</time>
      </trkpt>
      <trkpt lat="42.60159" lon="1.99462">
        <ele>2289.6</ele>
        <time>2020-02-14T08:41:24.078Z</time>
      </trkpt>
      <trkpt lat="42.60153" lon="1.99466">
        <ele>2287.7</ele>
        <time>2020-02-14T08:41:26.764Z</time>
      </trkpt>
      <trkpt lat="42.60152" lon="1.99466">
        <ele>2288.1</ele>
        <time>2020-02-14T08:41:27.331Z</time>
      </trkpt>
      <trkpt lat="42.60143" lon="1.99468">
        <ele>2287.6</ele>
        <time>2020-02-14T08:41:30.713Z</time>
      </trkpt>
      <trkpt lat="42.60137" lon="1.99469">
        <ele>2287.2</ele>
        <time>2020-02-14T08:41:33.049Z</time>
      </trkpt>
      <trkpt lat="42.60131" lon="1.99469">
        <ele>2287.2</ele>
        <time>2020-02-14T08:41:35.642Z</time>
      </trkpt>
      <trkpt lat="42.60114" lon="1.99469">
        <ele>2286.3</ele>
        <time>2020-02-14T08:41:41.940Z</time>
      </trkpt>
      <trkpt lat="42.60097" lon="1.99471">
        <ele>2284.7</ele>
        <time>2020-02-14T08:41:48.705Z</time>
      </trkpt>
      <trkpt lat="42.60093" lon="1.99469">
        <ele>2285.7</ele>
        <time>2020-02-14T08:41:50.221Z</time>
      </trkpt>
      <trkpt lat="42.60101" lon="1.99474">
        <ele>2284.7</ele>
        <time>2020-02-14T08:41:53.522Z</time>
      </trkpt>
      <trkpt lat="42.60102" lon="1.99471">
        <ele>2284.3</ele>
        <time>2020-02-14T08:41:54.214Z</time>
      </trkpt>
      <trkpt lat="42.60101" lon="1.9947">
        <ele>2284.3</ele>
        <time>2020-02-14T08:41:54.800Z</time>
      </trkpt>
      <trkpt lat="42.60104" lon="1.99467">
        <ele>2284.8</ele>
        <time>2020-02-14T08:41:55.993Z</time>
      </trkpt>
      <trkpt lat="42.60108" lon="1.99461">
        <ele>2285.7</ele>
        <time>2020-02-14T08:41:58.299Z</time>
      </trkpt>
      <trkpt lat="42.6011" lon="1.99457">
        <ele>2286.2</ele>
        <time>2020-02-14T08:41:59.685Z</time>
      </trkpt>
      <trkpt lat="42.60114" lon="1.99449">
        <ele>2286.7</ele>
        <time>2020-02-14T08:42:02.715Z</time>
      </trkpt>
      <trkpt lat="42.60114" lon="1.99445">
        <ele>2286.6</ele>
        <time>2020-02-14T08:42:03.678Z</time>
      </trkpt>
      <trkpt lat="42.60117" lon="1.99435">
        <ele>2289.1</ele>
        <time>2020-02-14T08:42:06.876Z</time>
      </trkpt>
      <trkpt lat="42.60119" lon="1.99431">
        <ele>2289.1</ele>
        <time>2020-02-14T08:42:08.172Z</time>
      </trkpt>
      <trkpt lat="42.60118" lon="1.99427">
        <ele>2289</ele>
        <time>2020-02-14T08:42:09.363Z</time>
      </trkpt>
      <trkpt lat="42.60121" lon="1.99418">
        <ele>2290.5</ele>
        <time>2020-02-14T08:42:12.276Z</time>
      </trkpt>
      <trkpt lat="42.60121" lon="1.99415">
        <ele>2291.5</ele>
        <time>2020-02-14T08:42:13.101Z</time>
      </trkpt>
      <trkpt lat="42.60122" lon="1.99411">
        <ele>2291.9</ele>
        <time>2020-02-14T08:42:14.457Z</time>
      </trkpt>
      <trkpt lat="42.60122" lon="1.994">
        <ele>2293.5</ele>
        <time>2020-02-14T08:42:17.549Z</time>
      </trkpt>
      <trkpt lat="42.60124" lon="1.99396">
        <ele>2293</ele>
        <time>2020-02-14T08:42:18.944Z</time>
      </trkpt>
      <trkpt lat="42.60126" lon="1.99378">
        <ele>2294.8</ele>
        <time>2020-02-14T08:42:24.051Z</time>
      </trkpt>
      <trkpt lat="42.6013" lon="1.99369">
        <ele>2296.4</ele>
        <time>2020-02-14T08:42:27.301Z</time>
      </trkpt>
      <trkpt lat="42.60132" lon="1.99365">
        <ele>2296.8</ele>
        <time>2020-02-14T08:42:28.576Z</time>
      </trkpt>
      <trkpt lat="42.60132" lon="1.99356">
        <ele>2297.3</ele>
        <time>2020-02-14T08:42:31.112Z</time>
      </trkpt>
      <trkpt lat="42.60135" lon="1.9934">
        <ele>2298.8</ele>
        <time>2020-02-14T08:42:35.796Z</time>
      </trkpt>
      <trkpt lat="42.60139" lon="1.99335">
        <ele>2299.1</ele>
        <time>2020-02-14T08:42:38.175Z</time>
      </trkpt>
      <trkpt lat="42.60145" lon="1.99329">
        <ele>2299.6</ele>
        <time>2020-02-14T08:42:40.817Z</time>
      </trkpt>
      <trkpt lat="42.6015" lon="1.99313">
        <ele>2301.2</ele>
        <time>2020-02-14T08:42:45.732Z</time>
      </trkpt>
      <trkpt lat="42.60151" lon="1.99301">
        <ele>2301.6</ele>
        <time>2020-02-14T08:42:49.399Z</time>
      </trkpt>
      <trkpt lat="42.60155" lon="1.99292">
        <ele>2303</ele>
        <time>2020-02-14T08:42:52.207Z</time>
      </trkpt>
      <trkpt lat="42.60161" lon="1.99286">
        <ele>2303.9</ele>
        <time>2020-02-14T08:42:55.003Z</time>
      </trkpt>
      <trkpt lat="42.60163" lon="1.99271">
        <ele>2304.9</ele>
        <time>2020-02-14T08:42:59.574Z</time>
      </trkpt>
      <trkpt lat="42.60165" lon="1.99263">
        <ele>2305.9</ele>
        <time>2020-02-14T08:43:01.974Z</time>
      </trkpt>
      <trkpt lat="42.60168" lon="1.99251">
        <ele>2306.3</ele>
        <time>2020-02-14T08:43:05.658Z</time>
      </trkpt>
      <trkpt lat="42.60169" lon="1.9925">
        <ele>2306.8</ele>
        <time>2020-02-14T08:43:06.046Z</time>
      </trkpt>
      <trkpt lat="42.60174" lon="1.99234">
        <ele>2307.4</ele>
        <time>2020-02-14T08:43:10.782Z</time>
      </trkpt>
      <trkpt lat="42.60174" lon="1.9923">
        <ele>2307.8</ele>
        <time>2020-02-14T08:43:11.989Z</time>
      </trkpt>
      <trkpt lat="42.60173" lon="1.99226">
        <ele>2308.3</ele>
        <time>2020-02-14T08:43:13.122Z</time>
      </trkpt>
      <trkpt lat="42.60175" lon="1.99219">
        <ele>2308.4</ele>
        <time>2020-02-14T08:43:15.287Z</time>
      </trkpt>
      <trkpt lat="42.60175" lon="1.99215">
        <ele>2308.7</ele>
        <time>2020-02-14T08:43:16.505Z</time>
      </trkpt>
      <trkpt lat="42.60177" lon="1.99212">
        <ele>2308.8</ele>
        <time>2020-02-14T08:43:17.492Z</time>
      </trkpt>
      <trkpt lat="42.60176" lon="1.992">
        <ele>2308.8</ele>
        <time>2020-02-14T08:43:20.736Z</time>
      </trkpt>
      <trkpt lat="42.60176" lon="1.99188">
        <ele>2308.7</ele>
        <time>2020-02-14T08:43:24.154Z</time>
      </trkpt>
      <trkpt lat="42.60176" lon="1.99186">
        <ele>2309.2</ele>
        <time>2020-02-14T08:43:24.830Z</time>
      </trkpt>
      <trkpt lat="42.60176" lon="1.99183">
        <ele>2309.3</ele>
        <time>2020-02-14T08:43:25.654Z</time>
      </trkpt>
      <trkpt lat="42.60177" lon="1.99178">
        <ele>2309.7</ele>
        <time>2020-02-14T08:43:27.254Z</time>
      </trkpt>
      <trkpt lat="42.60178" lon="1.99161">
        <ele>2310.8</ele>
        <time>2020-02-14T08:43:32.150Z</time>
      </trkpt>
      <trkpt lat="42.60179" lon="1.99151">
        <ele>2311.2</ele>
        <time>2020-02-14T08:43:35.083Z</time>
      </trkpt>
      <trkpt lat="42.60179" lon="1.9914">
        <ele>2312.6</ele>
        <time>2020-02-14T08:43:38.077Z</time>
      </trkpt>
      <trkpt lat="42.60181" lon="1.99132">
        <ele>2313.1</ele>
        <time>2020-02-14T08:43:40.611Z</time>
      </trkpt>
      <trkpt lat="42.60181" lon="1.99131">
        <ele>2313.1</ele>
        <time>2020-02-14T08:43:40.787Z</time>
      </trkpt>
      <trkpt lat="42.60184" lon="1.99125">
        <ele>2318</ele>
        <time>2020-02-14T08:43:43.410Z</time>
      </trkpt>
      <trkpt lat="42.60185" lon="1.99124">
        <ele>2313.1</ele>
        <time>2020-02-14T08:43:45.178Z</time>
      </trkpt>
      <trkpt lat="42.60193" lon="1.99109">
        <ele>2314.1</ele>
        <time>2020-02-14T08:43:50.449Z</time>
      </trkpt>
      <trkpt lat="42.60196" lon="1.99103">
        <ele>2315</ele>
        <time>2020-02-14T08:43:52.581Z</time>
      </trkpt>
      <trkpt lat="42.60197" lon="1.99089">
        <ele>2316</ele>
        <time>2020-02-14T08:43:56.614Z</time>
      </trkpt>
      <trkpt lat="42.60199" lon="1.99084">
        <ele>2316.5</ele>
        <time>2020-02-14T08:43:57.995Z</time>
      </trkpt>
      <trkpt lat="42.602" lon="1.99078">
        <ele>2316.4</ele>
        <time>2020-02-14T08:43:59.864Z</time>
      </trkpt>
      <trkpt lat="42.60198" lon="1.99063">
        <ele>2316.4</ele>
        <time>2020-02-14T08:44:04.334Z</time>
      </trkpt>
      <trkpt lat="42.60192" lon="1.99044">
        <ele>2317.9</ele>
        <time>2020-02-14T08:44:10.331Z</time>
      </trkpt>
      <trkpt lat="42.60182" lon="1.99027">
        <ele>2318</ele>
        <time>2020-02-14T08:44:16.380Z</time>
      </trkpt>
      <trkpt lat="42.60179" lon="1.9902">
        <ele>2317.9</ele>
        <time>2020-02-14T08:44:18.672Z</time>
      </trkpt>
      <trkpt lat="42.60177" lon="1.99013">
        <ele>2317.4</ele>
        <time>2020-02-14T08:44:20.891Z</time>
      </trkpt>
      <trkpt lat="42.60174" lon="1.99007">
        <ele>2318</ele>
        <time>2020-02-14T08:44:22.898Z</time>
      </trkpt>
      <trkpt lat="42.60162" lon="1.98995">
        <ele>2317</ele>
        <time>2020-02-14T08:44:28.844Z</time>
      </trkpt>
      <trkpt lat="42.60159" lon="1.98987">
        <ele>2316.9</ele>
        <time>2020-02-14T08:44:31.261Z</time>
      </trkpt>
      <trkpt lat="42.60154" lon="1.98976">
        <ele>2315.6</ele>
        <time>2020-02-14T08:44:34.811Z</time>
      </trkpt>
      <trkpt lat="42.6015" lon="1.9897">
        <ele>2315</ele>
        <time>2020-02-14T08:44:37.182Z</time>
      </trkpt>
      <trkpt lat="42.60146" lon="1.98957">
        <ele>2309.7</ele>
        <time>2020-02-14T08:44:41.519Z</time>
      </trkpt>
      <trkpt lat="42.60146" lon="1.98956">
        <ele>2314</ele>
        <time>2020-02-14T08:44:43.068Z</time>
      </trkpt>
      <trkpt lat="42.60142" lon="1.98949">
        <ele>2313.1</ele>
        <time>2020-02-14T08:44:45.498Z</time>
      </trkpt>
      <trkpt lat="42.60139" lon="1.98944">
        <ele>2312.7</ele>
        <time>2020-02-14T08:44:47.183Z</time>
      </trkpt>
      <trkpt lat="42.60137" lon="1.98942">
        <ele>2308.7</ele>
        <time>2020-02-14T08:44:48.987Z</time>
      </trkpt>
      <trkpt lat="42.60136" lon="1.98942">
        <ele>2302.6</ele>
        <time>2020-02-14T08:44:51.151Z</time>
      </trkpt>
      <trkpt lat="42.60135" lon="1.98942">
        <ele>2313.1</ele>
        <time>2020-02-14T08:44:54.837Z</time>
      </trkpt>
      <trkpt lat="42.60135" lon="1.98942">
        <ele>2311.7</ele>
        <time>2020-02-14T08:44:55.383Z</time>
      </trkpt>
      <trkpt lat="42.60135" lon="1.98942">
        <ele>2298.2</ele>
        <time>2020-02-14T08:45:00.043Z</time>
      </trkpt>
      <trkpt lat="42.60135" lon="1.98942">
        <ele>2312.6</ele>
        <time>2020-02-14T08:45:05.042Z</time>
      </trkpt>
      <trkpt lat="42.60135" lon="1.98942">
        <ele>2320.8</ele>
        <time>2020-02-14T08:45:07.890Z</time>
      </trkpt>
      <trkpt lat="42.60135" lon="1.98942">
        <ele>2312.1</ele>
        <time>2020-02-14T08:45:10.917Z</time>
      </trkpt>
      <trkpt lat="42.60135" lon="1.98942">
        <ele>2297.2</ele>
        <time>2020-02-14T08:45:16.092Z</time>
      </trkpt>
      <trkpt lat="42.60135" lon="1.98942">
        <ele>2314</ele>
        <time>2020-02-14T08:45:21.921Z</time>
      </trkpt>
      <trkpt lat="42.60135" lon="1.98942">
        <ele>2318</ele>
        <time>2020-02-14T08:45:23.297Z</time>
      </trkpt>
      <trkpt lat="42.60135" lon="1.98942">
        <ele>2312.7</ele>
        <time>2020-02-14T08:45:25.141Z</time>
      </trkpt>
      <trkpt lat="42.60135" lon="1.98942">
        <ele>2317.5</ele>
        <time>2020-02-14T08:45:26.812Z</time>
      </trkpt>
      <trkpt lat="42.60135" lon="1.98942">
        <ele>2308.7</ele>
        <time>2020-02-14T08:45:29.839Z</time>
      </trkpt>
      <trkpt lat="42.60135" lon="1.98942">
        <ele>2315.6</ele>
        <time>2020-02-14T08:45:32.210Z</time>
      </trkpt>
      <trkpt lat="42.60135" lon="1.98942">
        <ele>2311.7</ele>
        <time>2020-02-14T08:45:33.569Z</time>
      </trkpt>
      <trkpt lat="42.60135" lon="1.98941">
        <ele>2305.5</ele>
        <time>2020-02-14T08:45:35.725Z</time>
      </trkpt>
      <trkpt lat="42.60135" lon="1.98941">
        <ele>2314.5</ele>
        <time>2020-02-14T08:45:38.874Z</time>
      </trkpt>
      <trkpt lat="42.60135" lon="1.98941">
        <ele>2309.7</ele>
        <time>2020-02-14T08:45:40.545Z</time>
      </trkpt>
      <trkpt lat="42.60135" lon="1.98941">
        <ele>2317.9</ele>
        <time>2020-02-14T08:45:43.391Z</time>
      </trkpt>
      <trkpt lat="42.60135" lon="1.98941">
        <ele>2311.6</ele>
        <time>2020-02-14T08:45:45.580Z</time>
      </trkpt>
      <trkpt lat="42.60134" lon="1.98941">
        <ele>2311.3</ele>
        <time>2020-02-14T08:45:46.008Z</time>
      </trkpt>
      <trkpt lat="42.60126" lon="1.98936">
        <ele>2309.8</ele>
        <time>2020-02-14T08:45:49.271Z</time>
      </trkpt>
      <trkpt lat="42.60124" lon="1.98934">
        <ele>2308.7</ele>
        <time>2020-02-14T08:45:50.378Z</time>
      </trkpt>
      <trkpt lat="42.60116" lon="1.98932">
        <ele>2304.5</ele>
        <time>2020-02-14T08:45:53.877Z</time>
      </trkpt>
      <trkpt lat="42.60115" lon="1.98931">
        <ele>2307.4</ele>
        <time>2020-02-14T08:45:54.949Z</time>
      </trkpt>
      <trkpt lat="42.60112" lon="1.98931">
        <ele>2306</ele>
        <time>2020-02-14T08:45:56.318Z</time>
      </trkpt>
      <trkpt lat="42.601" lon="1.98931">
        <ele>2303.5</ele>
        <time>2020-02-14T08:46:00.772Z</time>
      </trkpt>
      <trkpt lat="42.60095" lon="1.9893">
        <ele>2302.6</ele>
        <time>2020-02-14T08:46:02.801Z</time>
      </trkpt>
      <trkpt lat="42.60091" lon="1.98929">
        <ele>2305.9</ele>
        <time>2020-02-14T08:46:04.708Z</time>
      </trkpt>
      <trkpt lat="42.6009" lon="1.98927">
        <ele>2301.5</ele>
        <time>2020-02-14T08:46:06.338Z</time>
      </trkpt>
      <trkpt lat="42.60084" lon="1.98921">
        <ele>2298.7</ele>
        <time>2020-02-14T08:46:09.468Z</time>
      </trkpt>
      <trkpt lat="42.60082" lon="1.9892">
        <ele>2298.2</ele>
        <time>2020-02-14T08:46:10.472Z</time>
      </trkpt>
      <trkpt lat="42.60067" lon="1.98916">
        <ele>2296.4</ele>
        <time>2020-02-14T08:46:16.448Z</time>
      </trkpt>
      <trkpt lat="42.60061" lon="1.98914">
        <ele>2295.3</ele>
        <time>2020-02-14T08:46:18.837Z</time>
      </trkpt>
      <trkpt lat="42.60045" lon="1.98904">
        <ele>2292.4</ele>
        <time>2020-02-14T08:46:25.779Z</time>
      </trkpt>
      <trkpt lat="42.60034" lon="1.9889">
        <ele>2292.4</ele>
        <time>2020-02-14T08:46:31.591Z</time>
      </trkpt>
      <trkpt lat="42.60025" lon="1.98876">
        <ele>2292</ele>
        <time>2020-02-14T08:46:36.881Z</time>
      </trkpt>
      <trkpt lat="42.6002" lon="1.98863">
        <ele>2291.1</ele>
        <time>2020-02-14T08:46:40.911Z</time>
      </trkpt>
      <trkpt lat="42.60019" lon="1.9886">
        <ele>2290.6</ele>
        <time>2020-02-14T08:46:41.953Z</time>
      </trkpt>
      <trkpt lat="42.60012" lon="1.9884">
        <ele>2286.6</ele>
        <time>2020-02-14T08:46:48.338Z</time>
      </trkpt>
      <trkpt lat="42.60012" lon="1.98838">
        <ele>2287.6</ele>
        <time>2020-02-14T08:46:48.978Z</time>
      </trkpt>
      <trkpt lat="42.60011" lon="1.98835">
        <ele>2289</ele>
        <time>2020-02-14T08:46:50.044Z</time>
      </trkpt>
      <trkpt lat="42.60009" lon="1.9882">
        <ele>2286.7</ele>
        <time>2020-02-14T08:46:54.455Z</time>
      </trkpt>
      <trkpt lat="42.60006" lon="1.98816">
        <ele>2286.3</ele>
        <time>2020-02-14T08:46:55.909Z</time>
      </trkpt>
      <trkpt lat="42.60004" lon="1.98804">
        <ele>2283.9</ele>
        <time>2020-02-14T08:46:59.617Z</time>
      </trkpt>
      <trkpt lat="42.59999" lon="1.98786">
        <ele>2280.5</ele>
        <time>2020-02-14T08:47:05.039Z</time>
      </trkpt>
      <trkpt lat="42.59996" lon="1.98771">
        <ele>2277</ele>
        <time>2020-02-14T08:47:09.748Z</time>
      </trkpt>
      <trkpt lat="42.59996" lon="1.98763">
        <ele>2281.8</ele>
        <time>2020-02-14T08:47:12.471Z</time>
      </trkpt>
      <trkpt lat="42.59996" lon="1.98763">
        <ele>2264.5</ele>
        <time>2020-02-14T08:47:18.468Z</time>
      </trkpt>
      <trkpt lat="42.59996" lon="1.98763">
        <ele>2274.2</ele>
        <time>2020-02-14T08:47:21.810Z</time>
      </trkpt>
      <trkpt lat="42.59996" lon="1.98763">
        <ele>2282.3</ele>
        <time>2020-02-14T08:47:24.634Z</time>
      </trkpt>
      <trkpt lat="42.59996" lon="1.98763">
        <ele>2278</ele>
        <time>2020-02-14T08:47:26.120Z</time>
      </trkpt>
      <trkpt lat="42.59996" lon="1.98764">
        <ele>2277.5</ele>
        <time>2020-02-14T08:47:26.318Z</time>
      </trkpt>
      <trkpt lat="42.59996" lon="1.98764">
        <ele>2278.1</ele>
        <time>2020-02-14T08:47:26.543Z</time>
      </trkpt>
      <trkpt lat="42.59996" lon="1.98764">
        <ele>2277.1</ele>
        <time>2020-02-14T08:47:26.893Z</time>
      </trkpt>
      <trkpt lat="42.59996" lon="1.98764">
        <ele>2276.5</ele>
        <time>2020-02-14T08:47:27.083Z</time>
      </trkpt>
      <trkpt lat="42.59992" lon="1.98767">
        <ele>2276.5</ele>
        <time>2020-02-14T08:47:28.686Z</time>
      </trkpt>
      <trkpt lat="42.59992" lon="1.9877">
        <ele>2276.2</ele>
        <time>2020-02-14T08:47:29.446Z</time>
      </trkpt>
      <trkpt lat="42.5999" lon="1.98769">
        <ele>2275.7</ele>
        <time>2020-02-14T08:47:30.156Z</time>
      </trkpt>
      <trkpt lat="42.59979" lon="1.98766">
        <ele>2275.1</ele>
        <time>2020-02-14T08:47:34.350Z</time>
      </trkpt>
      <trkpt lat="42.59966" lon="1.98769">
        <ele>2274.7</ele>
        <time>2020-02-14T08:47:39.680Z</time>
      </trkpt>
      <trkpt lat="42.59961" lon="1.98771">
        <ele>2274.7</ele>
        <time>2020-02-14T08:47:41.524Z</time>
      </trkpt>
      <trkpt lat="42.59956" lon="1.98777">
        <ele>2274.6</ele>
        <time>2020-02-14T08:47:44.261Z</time>
      </trkpt>
      <trkpt lat="42.59947" lon="1.98783">
        <ele>2274.1</ele>
        <time>2020-02-14T08:47:47.934Z</time>
      </trkpt>
      <trkpt lat="42.59942" lon="1.98784">
        <ele>2273.8</ele>
        <time>2020-02-14T08:47:50.044Z</time>
      </trkpt>
      <trkpt lat="42.59927" lon="1.98788">
        <ele>2273.3</ele>
        <time>2020-02-14T08:47:55.873Z</time>
      </trkpt>
      <trkpt lat="42.59922" lon="1.98788">
        <ele>2273.2</ele>
        <time>2020-02-14T08:47:57.585Z</time>
      </trkpt>
      <trkpt lat="42.59915" lon="1.98795">
        <ele>2274.6</ele>
        <time>2020-02-14T08:48:01.138Z</time>
      </trkpt>
      <trkpt lat="42.59907" lon="1.98804">
        <ele>2275.6</ele>
        <time>2020-02-14T08:48:05.158Z</time>
      </trkpt>
      <trkpt lat="42.59895" lon="1.98814">
        <ele>2275.6</ele>
        <time>2020-02-14T08:48:10.526Z</time>
      </trkpt>
      <trkpt lat="42.59893" lon="1.98816">
        <ele>2275.1</ele>
        <time>2020-02-14T08:48:11.432Z</time>
      </trkpt>
      <trkpt lat="42.59887" lon="1.98825">
        <ele>2275.6</ele>
        <time>2020-02-14T08:48:15.021Z</time>
      </trkpt>
      <trkpt lat="42.59878" lon="1.98841">
        <ele>2275.7</ele>
        <time>2020-02-14T08:48:20.562Z</time>
      </trkpt>
      <trkpt lat="42.59877" lon="1.98843">
        <ele>2275.6</ele>
        <time>2020-02-14T08:48:21.300Z</time>
      </trkpt>
      <trkpt lat="42.59872" lon="1.98848">
        <ele>2274.6</ele>
        <time>2020-02-14T08:48:23.785Z</time>
      </trkpt>
      <trkpt lat="42.59864" lon="1.98853">
        <ele>2274.6</ele>
        <time>2020-02-14T08:48:27.010Z</time>
      </trkpt>
      <trkpt lat="42.59856" lon="1.98864">
        <ele>2273.8</ele>
        <time>2020-02-14T08:48:31.445Z</time>
      </trkpt>
      <trkpt lat="42.59852" lon="1.98867">
        <ele>2273.3</ele>
        <time>2020-02-14T08:48:33.484Z</time>
      </trkpt>
      <trkpt lat="42.59836" lon="1.98871">
        <ele>2272.8</ele>
        <time>2020-02-14T08:48:39.739Z</time>
      </trkpt>
      <trkpt lat="42.5982" lon="1.98878">
        <ele>2272.7</ele>
        <time>2020-02-14T08:48:46.271Z</time>
      </trkpt>
      <trkpt lat="42.59804" lon="1.98881">
        <ele>2265.5</ele>
        <time>2020-02-14T08:48:52.705Z</time>
      </trkpt>
      <trkpt lat="42.59803" lon="1.98881">
        <ele>2275.2</ele>
        <time>2020-02-14T08:48:56.087Z</time>
      </trkpt>
      <trkpt lat="42.59802" lon="1.98881">
        <ele>2265.6</ele>
        <time>2020-02-14T08:48:59.464Z</time>
      </trkpt>
      <trkpt lat="42.59801" lon="1.98881">
        <ele>2273.3</ele>
        <time>2020-02-14T08:49:02.182Z</time>
      </trkpt>
      <trkpt lat="42.59797" lon="1.98881">
        <ele>2270.3</ele>
        <time>2020-02-14T08:49:04.111Z</time>
      </trkpt>
      <trkpt lat="42.59794" lon="1.98882">
        <ele>2268.4</ele>
        <time>2020-02-14T08:49:05.166Z</time>
      </trkpt>
      <trkpt lat="42.59793" lon="1.98882">
        <ele>2276.6</ele>
        <time>2020-02-14T08:49:08.085Z</time>
      </trkpt>
      <trkpt lat="42.59791" lon="1.98883">
        <ele>2269.8</ele>
        <time>2020-02-14T08:49:10.483Z</time>
      </trkpt>
      <trkpt lat="42.59787" lon="1.98884">
        <ele>2266.1</ele>
        <time>2020-02-14T08:49:12.601Z</time>
      </trkpt>
      <trkpt lat="42.59786" lon="1.98884">
        <ele>2269.4</ele>
        <time>2020-02-14T08:49:13.811Z</time>
      </trkpt>
      <trkpt lat="42.5977" lon="1.98885">
        <ele>2266.1</ele>
        <time>2020-02-14T08:49:20.256Z</time>
      </trkpt>
      <trkpt lat="42.59759" lon="1.98884">
        <ele>2266</ele>
        <time>2020-02-14T08:49:24.273Z</time>
      </trkpt>
      <trkpt lat="42.59754" lon="1.98883">
        <ele>2266.5</ele>
        <time>2020-02-14T08:49:26.502Z</time>
      </trkpt>
      <trkpt lat="42.59745" lon="1.98883">
        <ele>2263.6</ele>
        <time>2020-02-14T08:49:30.007Z</time>
      </trkpt>
      <trkpt lat="42.59744" lon="1.98882">
        <ele>2268</ele>
        <time>2020-02-14T08:49:31.586Z</time>
      </trkpt>
      <trkpt lat="42.59735" lon="1.9888">
        <ele>2264</ele>
        <time>2020-02-14T08:49:35.386Z</time>
      </trkpt>
      <trkpt lat="42.59734" lon="1.98879">
        <ele>2268.4</ele>
        <time>2020-02-14T08:49:36.978Z</time>
      </trkpt>
      <trkpt lat="42.59729" lon="1.98878">
        <ele>2268.5</ele>
        <time>2020-02-14T08:49:38.703Z</time>
      </trkpt>
      <trkpt lat="42.59724" lon="1.98876">
        <ele>2264</ele>
        <time>2020-02-14T08:49:41.489Z</time>
      </trkpt>
      <trkpt lat="42.59723" lon="1.98876">
        <ele>2271.4</ele>
        <time>2020-02-14T08:49:44.082Z</time>
      </trkpt>
      <trkpt lat="42.59721" lon="1.98876">
        <ele>2269.3</ele>
        <time>2020-02-14T08:49:44.917Z</time>
      </trkpt>
      <trkpt lat="42.59715" lon="1.98875">
        <ele>2270.4</ele>
        <time>2020-02-14T08:49:47.356Z</time>
      </trkpt>
      <trkpt lat="42.59708" lon="1.98877">
        <ele>2270.8</ele>
        <time>2020-02-14T08:49:50.196Z</time>
      </trkpt>
      <trkpt lat="42.59695" lon="1.98882">
        <ele>2269.8</ele>
        <time>2020-02-14T08:49:55.575Z</time>
      </trkpt>
      <trkpt lat="42.5968" lon="1.98894">
        <ele>2268.9</ele>
        <time>2020-02-14T08:50:02.180Z</time>
      </trkpt>
      <trkpt lat="42.59674" lon="1.989">
        <ele>2267.4</ele>
        <time>2020-02-14T08:50:05.212Z</time>
      </trkpt>
      <trkpt lat="42.59666" lon="1.98919">
        <ele>2266</ele>
        <time>2020-02-14T08:50:11.231Z</time>
      </trkpt>
      <trkpt lat="42.59663" lon="1.98921">
        <ele>2266</ele>
        <time>2020-02-14T08:50:12.557Z</time>
      </trkpt>
      <trkpt lat="42.59661" lon="1.98923">
        <ele>2266.1</ele>
        <time>2020-02-14T08:50:13.545Z</time>
      </trkpt>
      <trkpt lat="42.59655" lon="1.98932">
        <ele>2265.6</ele>
        <time>2020-02-14T08:50:17.047Z</time>
      </trkpt>
      <trkpt lat="42.5965" lon="1.9893">
        <ele>2264.6</ele>
        <time>2020-02-14T08:50:19.179Z</time>
      </trkpt>
      <trkpt lat="42.5965" lon="1.9893">
        <ele>2265</ele>
        <time>2020-02-14T08:50:19.461Z</time>
      </trkpt>
      <trkpt lat="42.59637" lon="1.98918">
        <ele>2263.1</ele>
        <time>2020-02-14T08:50:25.724Z</time>
      </trkpt>
      <trkpt lat="42.59635" lon="1.98916">
        <ele>2263.2</ele>
        <time>2020-02-14T08:50:26.437Z</time>
      </trkpt>
      <trkpt lat="42.59633" lon="1.98915">
        <ele>2264.1</ele>
        <time>2020-02-14T08:50:27.370Z</time>
      </trkpt>
      <trkpt lat="42.59632" lon="1.98915">
        <ele>2258.4</ele>
        <time>2020-02-14T08:50:29.394Z</time>
      </trkpt>
      <trkpt lat="42.59626" lon="1.98911">
        <ele>2262.1</ele>
        <time>2020-02-14T08:50:32.196Z</time>
      </trkpt>
      <trkpt lat="42.59617" lon="1.98913">
        <ele>2259.7</ele>
        <time>2020-02-14T08:50:35.855Z</time>
      </trkpt>
      <trkpt lat="42.59615" lon="1.98916">
        <ele>2260.2</ele>
        <time>2020-02-14T08:50:37.184Z</time>
      </trkpt>
      <trkpt lat="42.596" lon="1.9892">
        <ele>2258.4</ele>
        <time>2020-02-14T08:50:43.157Z</time>
      </trkpt>
      <trkpt lat="42.59596" lon="1.9892">
        <ele>2255</ele>
        <time>2020-02-14T08:50:45.004Z</time>
      </trkpt>
      <trkpt lat="42.59595" lon="1.98921">
        <ele>2258.8</ele>
        <time>2020-02-14T08:50:46.406Z</time>
      </trkpt>
      <trkpt lat="42.5958" lon="1.98927">
        <ele>2258.4</ele>
        <time>2020-02-14T08:50:52.561Z</time>
      </trkpt>
      <trkpt lat="42.59572" lon="1.98929">
        <ele>2257.8</ele>
        <time>2020-02-14T08:50:55.545Z</time>
      </trkpt>
      <trkpt lat="42.59562" lon="1.98942">
        <ele>2257.9</ele>
        <time>2020-02-14T08:51:00.953Z</time>
      </trkpt>
      <trkpt lat="42.5956" lon="1.98949">
        <ele>2256.8</ele>
        <time>2020-02-14T08:51:03.115Z</time>
      </trkpt>
      <trkpt lat="42.59553" lon="1.9897">
        <ele>2256.9</ele>
        <time>2020-02-14T08:51:09.655Z</time>
      </trkpt>
      <trkpt lat="42.59545" lon="1.98984">
        <ele>2256.9</ele>
        <time>2020-02-14T08:51:14.673Z</time>
      </trkpt>
      <trkpt lat="42.59534" lon="1.98991">
        <ele>2257.3</ele>
        <time>2020-02-14T08:51:19.401Z</time>
      </trkpt>
      <trkpt lat="42.59528" lon="1.98995">
        <ele>2257.8</ele>
        <time>2020-02-14T08:51:21.964Z</time>
      </trkpt>
      <trkpt lat="42.59517" lon="1.98997">
        <ele>2257.3</ele>
        <time>2020-02-14T08:51:26.318Z</time>
      </trkpt>
      <trkpt lat="42.59503" lon="1.98998">
        <ele>2257.8</ele>
        <time>2020-02-14T08:51:31.808Z</time>
      </trkpt>
      <trkpt lat="42.59496" lon="1.98998">
        <ele>2257.4</ele>
        <time>2020-02-14T08:51:34.244Z</time>
      </trkpt>
      <trkpt lat="42.59484" lon="1.99003">
        <ele>2257.3</ele>
        <time>2020-02-14T08:51:39.338Z</time>
      </trkpt>
      <trkpt lat="42.59481" lon="1.99004">
        <ele>2257.4</ele>
        <time>2020-02-14T08:51:40.279Z</time>
      </trkpt>
      <trkpt lat="42.59467" lon="1.99011">
        <ele>2257.9</ele>
        <time>2020-02-14T08:51:46.214Z</time>
      </trkpt>
      <trkpt lat="42.59451" lon="1.99017">
        <ele>2257.8</ele>
        <time>2020-02-14T08:51:52.423Z</time>
      </trkpt>
      <trkpt lat="42.59449" lon="1.99018">
        <ele>2258.3</ele>
        <time>2020-02-14T08:51:53.261Z</time>
      </trkpt>
      <trkpt lat="42.59443" lon="1.9902">
        <ele>2258.3</ele>
        <time>2020-02-14T08:51:55.905Z</time>
      </trkpt>
      <trkpt lat="42.59436" lon="1.99022">
        <ele>2258.3</ele>
        <time>2020-02-14T08:51:58.574Z</time>
      </trkpt>
      <trkpt lat="42.5943" lon="1.99027">
        <ele>2257.8</ele>
        <time>2020-02-14T08:52:01.376Z</time>
      </trkpt>
      <trkpt lat="42.59415" lon="1.99035">
        <ele>2256.8</ele>
        <time>2020-02-14T08:52:07.371Z</time>
      </trkpt>
      <trkpt lat="42.59404" lon="1.99051">
        <ele>2256</ele>
        <time>2020-02-14T08:52:13.564Z</time>
      </trkpt>
      <trkpt lat="42.59402" lon="1.99067">
        <ele>2256.5</ele>
        <time>2020-02-14T08:52:18.286Z</time>
      </trkpt>
      <trkpt lat="42.59401" lon="1.99076">
        <ele>2256.8</ele>
        <time>2020-02-14T08:52:20.939Z</time>
      </trkpt>
      <trkpt lat="42.59398" lon="1.99077">
        <ele>2256.4</ele>
        <time>2020-02-14T08:52:22.054Z</time>
      </trkpt>
      <trkpt lat="42.59383" lon="1.99078">
        <ele>2256.5</ele>
        <time>2020-02-14T08:52:27.771Z</time>
      </trkpt>
      <trkpt lat="42.5937" lon="1.99084">
        <ele>2254.9</ele>
        <time>2020-02-14T08:52:33.180Z</time>
      </trkpt>
      <trkpt lat="42.59362" lon="1.99093">
        <ele>2255.4</ele>
        <time>2020-02-14T08:52:37.051Z</time>
      </trkpt>
      <trkpt lat="42.59352" lon="1.99103">
        <ele>2255.9</ele>
        <time>2020-02-14T08:52:41.800Z</time>
      </trkpt>
      <trkpt lat="42.59351" lon="1.99103">
        <ele>2255.9</ele>
        <time>2020-02-14T08:52:42.107Z</time>
      </trkpt>
      <trkpt lat="42.59348" lon="1.99104">
        <ele>2255.4</ele>
        <time>2020-02-14T08:52:43.357Z</time>
      </trkpt>
      <trkpt lat="42.5934" lon="1.99109">
        <ele>2254.9</ele>
        <time>2020-02-14T08:52:46.764Z</time>
      </trkpt>
      <trkpt lat="42.59338" lon="1.99109">
        <ele>2254.4</ele>
        <time>2020-02-14T08:52:47.665Z</time>
      </trkpt>
      <trkpt lat="42.59326" lon="1.99114">
        <ele>2252</ele>
        <time>2020-02-14T08:52:52.384Z</time>
      </trkpt>
      <trkpt lat="42.5932" lon="1.99117">
        <ele>2250.1</ele>
        <time>2020-02-14T08:52:55.064Z</time>
      </trkpt>
      <trkpt lat="42.59319" lon="1.99118">
        <ele>2249.7</ele>
        <time>2020-02-14T08:52:55.496Z</time>
      </trkpt>
      <trkpt lat="42.59309" lon="1.9912">
        <ele>2247.3</ele>
        <time>2020-02-14T08:52:59.429Z</time>
      </trkpt>
      <trkpt lat="42.59301" lon="1.99121">
        <ele>2245.3</ele>
        <time>2020-02-14T08:53:02.711Z</time>
      </trkpt>
      <trkpt lat="42.59293" lon="1.99127">
        <ele>2241.9</ele>
        <time>2020-02-14T08:53:06.438Z</time>
      </trkpt>
      <trkpt lat="42.59287" lon="1.99137">
        <ele>2240.5</ele>
        <time>2020-02-14T08:53:10.233Z</time>
      </trkpt>
      <trkpt lat="42.59286" lon="1.99139">
        <ele>2240</ele>
        <time>2020-02-14T08:53:11.030Z</time>
      </trkpt>
      <trkpt lat="42.59283" lon="1.99145">
        <ele>2239.5</ele>
        <time>2020-02-14T08:53:13.154Z</time>
      </trkpt>
      <trkpt lat="42.59281" lon="1.99147">
        <ele>2239.6</ele>
        <time>2020-02-14T08:53:13.881Z</time>
      </trkpt>
      <trkpt lat="42.59276" lon="1.99151">
        <ele>2238.6</ele>
        <time>2020-02-14T08:53:16.441Z</time>
      </trkpt>
      <trkpt lat="42.59268" lon="1.99158">
        <ele>2236.6</ele>
        <time>2020-02-14T08:53:19.973Z</time>
      </trkpt>
      <trkpt lat="42.59262" lon="1.99157">
        <ele>2235.3</ele>
        <time>2020-02-14T08:53:22.460Z</time>
      </trkpt>
      <trkpt lat="42.59254" lon="1.99157">
        <ele>2232.3</ele>
        <time>2020-02-14T08:53:25.637Z</time>
      </trkpt>
      <trkpt lat="42.59248" lon="1.99158">
        <ele>2228</ele>
        <time>2020-02-14T08:53:28.306Z</time>
      </trkpt>
      <trkpt lat="42.59248" lon="1.99158">
        <ele>2231.8</ele>
        <time>2020-02-14T08:53:29.646Z</time>
      </trkpt>
      <trkpt lat="42.59244" lon="1.99159">
        <ele>2230.4</ele>
        <time>2020-02-14T08:53:31.121Z</time>
      </trkpt>
      <trkpt lat="42.59241" lon="1.99161">
        <ele>2229.4</ele>
        <time>2020-02-14T08:53:32.640Z</time>
      </trkpt>
      <trkpt lat="42.59239" lon="1.9916">
        <ele>2229</ele>
        <time>2020-02-14T08:53:33.413Z</time>
      </trkpt>
      <trkpt lat="42.59229" lon="1.9916">
        <ele>2227</ele>
        <time>2020-02-14T08:53:37.148Z</time>
      </trkpt>
      <trkpt lat="42.59225" lon="1.9916">
        <ele>2226.2</ele>
        <time>2020-02-14T08:53:38.833Z</time>
      </trkpt>
      <trkpt lat="42.59221" lon="1.9916">
        <ele>2225.7</ele>
        <time>2020-02-14T08:53:40.281Z</time>
      </trkpt>
      <trkpt lat="42.59215" lon="1.99155">
        <ele>2223.2</ele>
        <time>2020-02-14T08:53:43.249Z</time>
      </trkpt>
      <trkpt lat="42.5921" lon="1.99156">
        <ele>2222.3</ele>
        <time>2020-02-14T08:53:45.248Z</time>
      </trkpt>
      <trkpt lat="42.59199" lon="1.99155">
        <ele>2227.1</ele>
        <time>2020-02-14T08:53:49.525Z</time>
      </trkpt>
      <trkpt lat="42.59199" lon="1.99156">
        <ele>2222.3</ele>
        <time>2020-02-14T08:53:51.221Z</time>
      </trkpt>
      <trkpt lat="42.59197" lon="1.99157">
        <ele>2220.9</ele>
        <time>2020-02-14T08:53:52.216Z</time>
      </trkpt>
      <trkpt lat="42.59195" lon="1.99159">
        <ele>2216</ele>
        <time>2020-02-14T08:53:54.207Z</time>
      </trkpt>
      <trkpt lat="42.59193" lon="1.99159">
        <ele>2220.9</ele>
        <time>2020-02-14T08:53:55.959Z</time>
      </trkpt>
      <trkpt lat="42.59187" lon="1.99161">
        <ele>2218.9</ele>
        <time>2020-02-14T08:53:58.477Z</time>
      </trkpt>
      <trkpt lat="42.59185" lon="1.99162">
        <ele>2219.3</ele>
        <time>2020-02-14T08:53:59.418Z</time>
      </trkpt>
      <trkpt lat="42.59183" lon="1.99162">
        <ele>2219</ele>
        <time>2020-02-14T08:54:00.272Z</time>
      </trkpt>
      <trkpt lat="42.59174" lon="1.99163">
        <ele>2220.9</ele>
        <time>2020-02-14T08:54:03.503Z</time>
      </trkpt>
      <trkpt lat="42.5917" lon="1.9916">
        <ele>2217.4</ele>
        <time>2020-02-14T08:54:05.827Z</time>
      </trkpt>
      <trkpt lat="42.59158" lon="1.99158">
        <ele>2216.1</ele>
        <time>2020-02-14T08:54:10.335Z</time>
      </trkpt>
      <trkpt lat="42.59156" lon="1.99158">
        <ele>2216</ele>
        <time>2020-02-14T08:54:11.282Z</time>
      </trkpt>
      <trkpt lat="42.59149" lon="1.9916">
        <ele>2216.1</ele>
        <time>2020-02-14T08:54:14.003Z</time>
      </trkpt>
      <trkpt lat="42.59133" lon="1.99158">
        <ele>2215.1</ele>
        <time>2020-02-14T08:54:20.174Z</time>
      </trkpt>
      <trkpt lat="42.59129" lon="1.99157">
        <ele>2214.5</ele>
        <time>2020-02-14T08:54:22.024Z</time>
      </trkpt>
      <trkpt lat="42.59119" lon="1.9916">
        <ele>2216.1</ele>
        <time>2020-02-14T08:54:25.867Z</time>
      </trkpt>
      <trkpt lat="42.59107" lon="1.99159">
        <ele>2216.5</ele>
        <time>2020-02-14T08:54:30.356Z</time>
      </trkpt>
      <trkpt lat="42.59102" lon="1.9916">
        <ele>2216.5</ele>
        <time>2020-02-14T08:54:32.388Z</time>
      </trkpt>
      <trkpt lat="42.59097" lon="1.99166">
        <ele>2216.5</ele>
        <time>2020-02-14T08:54:35.095Z</time>
      </trkpt>
      <trkpt lat="42.59087" lon="1.99166">
        <ele>2215.5</ele>
        <time>2020-02-14T08:54:38.659Z</time>
      </trkpt>
      <trkpt lat="42.59075" lon="1.9917">
        <ele>2213.6</ele>
        <time>2020-02-14T08:54:43.688Z</time>
      </trkpt>
      <trkpt lat="42.59066" lon="1.99172">
        <ele>2212.6</ele>
        <time>2020-02-14T08:54:47.065Z</time>
      </trkpt>
      <trkpt lat="42.59063" lon="1.99172">
        <ele>2211.7</ele>
        <time>2020-02-14T08:54:48.155Z</time>
      </trkpt>
      <trkpt lat="42.59046" lon="1.99178">
        <ele>2208.8</ele>
        <time>2020-02-14T08:54:55.070Z</time>
      </trkpt>
      <trkpt lat="42.59043" lon="1.99181">
        <ele>2208.8</ele>
        <time>2020-02-14T08:54:56.667Z</time>
      </trkpt>
      <trkpt lat="42.5903" lon="1.99189">
        <ele>2206.5</ele>
        <time>2020-02-14T08:55:02.225Z</time>
      </trkpt>
      <trkpt lat="42.59025" lon="1.99188">
        <ele>2204.9</ele>
        <time>2020-02-14T08:55:04.156Z</time>
      </trkpt>
      <trkpt lat="42.59028" lon="1.99191">
        <ele>2205.4</ele>
        <time>2020-02-14T08:55:05.580Z</time>
      </trkpt>
      <trkpt lat="42.59025" lon="1.99188">
        <ele>2204.9</ele>
        <time>2020-02-14T08:55:07.126Z</time>
      </trkpt>
      <trkpt lat="42.59019" lon="1.99192">
        <ele>2204.1</ele>
        <time>2020-02-14T08:55:09.614Z</time>
      </trkpt>
      <trkpt lat="42.59004" lon="1.99197">
        <ele>2201.2</ele>
        <time>2020-02-14T08:55:15.462Z</time>
      </trkpt>
      <trkpt lat="42.58998" lon="1.99199">
        <ele>2199.6</ele>
        <time>2020-02-14T08:55:17.879Z</time>
      </trkpt>
      <trkpt lat="42.58993" lon="1.99207">
        <ele>2198.3</ele>
        <time>2020-02-14T08:55:20.881Z</time>
      </trkpt>
      <trkpt lat="42.5899" lon="1.9921">
        <ele>2198.2</ele>
        <time>2020-02-14T08:55:22.430Z</time>
      </trkpt>
      <trkpt lat="42.58979" lon="1.99225">
        <ele>2196.9</ele>
        <time>2020-02-14T08:55:28.232Z</time>
      </trkpt>
      <trkpt lat="42.5897" lon="1.99234">
        <ele>2194.8</ele>
        <time>2020-02-14T08:55:32.588Z</time>
      </trkpt>
      <trkpt lat="42.58965" lon="1.99238">
        <ele>2194.8</ele>
        <time>2020-02-14T08:55:35.035Z</time>
      </trkpt>
      <trkpt lat="42.58965" lon="1.99239">
        <ele>2193.9</ele>
        <time>2020-02-14T08:55:35.401Z</time>
      </trkpt>
      <trkpt lat="42.58963" lon="1.99242">
        <ele>2194.4</ele>
        <time>2020-02-14T08:55:36.638Z</time>
      </trkpt>
      <trkpt lat="42.5896" lon="1.99248">
        <ele>2194.4</ele>
        <time>2020-02-14T08:55:38.607Z</time>
      </trkpt>
      <trkpt lat="42.58953" lon="1.99262">
        <ele>2194.5</ele>
        <time>2020-02-14T08:55:43.441Z</time>
      </trkpt>
      <trkpt lat="42.5895" lon="1.99277">
        <ele>2194.8</ele>
        <time>2020-02-14T08:55:47.713Z</time>
      </trkpt>
      <trkpt lat="42.58949" lon="1.99279">
        <ele>2194.4</ele>
        <time>2020-02-14T08:55:48.595Z</time>
      </trkpt>
      <trkpt lat="42.58942" lon="1.99296">
        <ele>2195.4</ele>
        <time>2020-02-14T08:55:54.269Z</time>
      </trkpt>
      <trkpt lat="42.5894" lon="1.99306">
        <ele>2187.6</ele>
        <time>2020-02-14T08:55:58.170Z</time>
      </trkpt>
      <trkpt lat="42.5894" lon="1.99308">
        <ele>2198.8</ele>
        <time>2020-02-14T08:56:02.095Z</time>
      </trkpt>
      <trkpt lat="42.58939" lon="1.9931">
        <ele>2195.4</ele>
        <time>2020-02-14T08:56:03.435Z</time>
      </trkpt>
      <trkpt lat="42.58939" lon="1.99312">
        <ele>2198.2</ele>
        <time>2020-02-14T08:56:04.585Z</time>
      </trkpt>
      <trkpt lat="42.58936" lon="1.99325">
        <ele>2195.4</ele>
        <time>2020-02-14T08:56:08.491Z</time>
      </trkpt>
      <trkpt lat="42.5893" lon="1.99346">
        <ele>2195.3</ele>
        <time>2020-02-14T08:56:15.003Z</time>
      </trkpt>
      <trkpt lat="42.58926" lon="1.99364">
        <ele>2194.4</ele>
        <time>2020-02-14T08:56:20.247Z</time>
      </trkpt>
      <trkpt lat="42.58926" lon="1.99374">
        <ele>2195.3</ele>
        <time>2020-02-14T08:56:23.306Z</time>
      </trkpt>
      <trkpt lat="42.58923" lon="1.99393">
        <ele>2193.5</ele>
        <time>2020-02-14T08:56:28.631Z</time>
      </trkpt>
      <trkpt lat="42.58916" lon="1.9941">
        <ele>2190.1</ele>
        <time>2020-02-14T08:56:34.427Z</time>
      </trkpt>
      <trkpt lat="42.58911" lon="1.99414">
        <ele>2189.2</ele>
        <time>2020-02-14T08:56:36.627Z</time>
      </trkpt>
      <trkpt lat="42.58904" lon="1.99423">
        <ele>2187.6</ele>
        <time>2020-02-14T08:56:40.227Z</time>
      </trkpt>
      <trkpt lat="42.589" lon="1.99426">
        <ele>2186.8</ele>
        <time>2020-02-14T08:56:41.998Z</time>
      </trkpt>
      <trkpt lat="42.58894" lon="1.9943">
        <ele>2185.8</ele>
        <time>2020-02-14T08:56:44.613Z</time>
      </trkpt>
      <trkpt lat="42.58879" lon="1.99443">
        <ele>2183.9</ele>
        <time>2020-02-14T08:56:51.733Z</time>
      </trkpt>
      <trkpt lat="42.58873" lon="1.99446">
        <ele>2183.8</ele>
        <time>2020-02-14T08:56:53.946Z</time>
      </trkpt>
      <trkpt lat="42.58858" lon="1.99451">
        <ele>2182.8</ele>
        <time>2020-02-14T08:57:00.085Z</time>
      </trkpt>
      <trkpt lat="42.58853" lon="1.99452">
        <ele>2181.9</ele>
        <time>2020-02-14T08:57:01.886Z</time>
      </trkpt>
      <trkpt lat="42.58838" lon="1.99463">
        <ele>2180</ele>
        <time>2020-02-14T08:57:08.699Z</time>
      </trkpt>
      <trkpt lat="42.58837" lon="1.99464">
        <ele>2180</ele>
        <time>2020-02-14T08:57:09.212Z</time>
      </trkpt>
      <trkpt lat="42.58828" lon="1.99469">
        <ele>2179.1</ele>
        <time>2020-02-14T08:57:12.741Z</time>
      </trkpt>
      <trkpt lat="42.58815" lon="1.99475">
        <ele>2177</ele>
        <time>2020-02-14T08:57:18.166Z</time>
      </trkpt>
      <trkpt lat="42.58813" lon="1.99475">
        <ele>2175.6</ele>
        <time>2020-02-14T08:57:19.262Z</time>
      </trkpt>
      <trkpt lat="42.58798" lon="1.99472">
        <ele>2173.8</ele>
        <time>2020-02-14T08:57:24.879Z</time>
      </trkpt>
      <trkpt lat="42.58795" lon="1.99471">
        <ele>2172.8</ele>
        <time>2020-02-14T08:57:26.434Z</time>
      </trkpt>
      <trkpt lat="42.58791" lon="1.99469">
        <ele>2173.3</ele>
        <time>2020-02-14T08:57:27.765Z</time>
      </trkpt>
      <trkpt lat="42.58784" lon="1.99467">
        <ele>2170.3</ele>
        <time>2020-02-14T08:57:30.871Z</time>
      </trkpt>
      <trkpt lat="42.58782" lon="1.99466">
        <ele>2170.3</ele>
        <time>2020-02-14T08:57:31.731Z</time>
      </trkpt>
      <trkpt lat="42.58768" lon="1.99473">
        <ele>2167.4</ele>
        <time>2020-02-14T08:57:37.278Z</time>
      </trkpt>
      <trkpt lat="42.58761" lon="1.99478">
        <ele>2166.6</ele>
        <time>2020-02-14T08:57:40.444Z</time>
      </trkpt>
      <trkpt lat="42.58761" lon="1.9948">
        <ele>2166.1</ele>
        <time>2020-02-14T08:57:40.991Z</time>
      </trkpt>
      <trkpt lat="42.58755" lon="1.99484">
        <ele>2164.7</ele>
        <time>2020-02-14T08:57:43.663Z</time>
      </trkpt>
      <trkpt lat="42.5875" lon="1.99486">
        <ele>2163.7</ele>
        <time>2020-02-14T08:57:45.673Z</time>
      </trkpt>
      <trkpt lat="42.5874" lon="1.99496">
        <ele>2161.3</ele>
        <time>2020-02-14T08:57:50.588Z</time>
      </trkpt>
      <trkpt lat="42.58734" lon="1.99503">
        <ele>2159.8</ele>
        <time>2020-02-14T08:57:53.680Z</time>
      </trkpt>
      <trkpt lat="42.58727" lon="1.99506">
        <ele>2157.4</ele>
        <time>2020-02-14T08:57:56.523Z</time>
      </trkpt>
      <trkpt lat="42.58721" lon="1.9951">
        <ele>2155.9</ele>
        <time>2020-02-14T08:57:59.282Z</time>
      </trkpt>
      <trkpt lat="42.58713" lon="1.99514">
        <ele>2153.5</ele>
        <time>2020-02-14T08:58:02.691Z</time>
      </trkpt>
      <trkpt lat="42.58709" lon="1.99514">
        <ele>2151.6</ele>
        <time>2020-02-14T08:58:04.313Z</time>
      </trkpt>
      <trkpt lat="42.58703" lon="1.99519">
        <ele>2150.6</ele>
        <time>2020-02-14T08:58:07.132Z</time>
      </trkpt>
      <trkpt lat="42.58697" lon="1.99521">
        <ele>2149.3</ele>
        <time>2020-02-14T08:58:09.283Z</time>
      </trkpt>
      <trkpt lat="42.58692" lon="1.99524">
        <ele>2147.8</ele>
        <time>2020-02-14T08:58:11.594Z</time>
      </trkpt>
      <trkpt lat="42.58689" lon="1.99526">
        <ele>2147.3</ele>
        <time>2020-02-14T08:58:12.955Z</time>
      </trkpt>
      <trkpt lat="42.58683" lon="1.9953">
        <ele>2145.8</ele>
        <time>2020-02-14T08:58:15.451Z</time>
      </trkpt>
      <trkpt lat="42.58675" lon="1.99539">
        <ele>2143.5</ele>
        <time>2020-02-14T08:58:19.633Z</time>
      </trkpt>
      <trkpt lat="42.58664" lon="1.99556">
        <ele>2142.1</ele>
        <time>2020-02-14T08:58:26.135Z</time>
      </trkpt>
      <trkpt lat="42.58652" lon="1.99566">
        <ele>2140.5</ele>
        <time>2020-02-14T08:58:31.368Z</time>
      </trkpt>
      <trkpt lat="42.58645" lon="1.99584">
        <ele>2139.7</ele>
        <time>2020-02-14T08:58:37.283Z</time>
      </trkpt>
      <trkpt lat="42.58644" lon="1.99585">
        <ele>2139.1</ele>
        <time>2020-02-14T08:58:37.769Z</time>
      </trkpt>
      <trkpt lat="42.58638" lon="1.99597">
        <ele>2137.6</ele>
        <time>2020-02-14T08:58:41.946Z</time>
      </trkpt>
      <trkpt lat="42.58628" lon="1.99608">
        <ele>2135.2</ele>
        <time>2020-02-14T08:58:46.894Z</time>
      </trkpt>
      <trkpt lat="42.58627" lon="1.99611">
        <ele>2130.9</ele>
        <time>2020-02-14T08:58:48.703Z</time>
      </trkpt>
      <trkpt lat="42.58626" lon="1.99612">
        <ele>2135.7</ele>
        <time>2020-02-14T08:58:50.436Z</time>
      </trkpt>
      <trkpt lat="42.58621" lon="1.99623">
        <ele>2133.9</ele>
        <time>2020-02-14T08:58:54.185Z</time>
      </trkpt>
      <trkpt lat="42.58615" lon="1.9963">
        <ele>2132.9</ele>
        <time>2020-02-14T08:58:57.144Z</time>
      </trkpt>
      <trkpt lat="42.58611" lon="1.99632">
        <ele>2131.9</ele>
        <time>2020-02-14T08:58:58.869Z</time>
      </trkpt>
      <trkpt lat="42.58607" lon="1.99649">
        <ele>2131.9</ele>
        <time>2020-02-14T08:59:03.985Z</time>
      </trkpt>
      <trkpt lat="42.58606" lon="1.99671">
        <ele>2131.5</ele>
        <time>2020-02-14T08:59:10.329Z</time>
      </trkpt>
      <trkpt lat="42.58604" lon="1.99682">
        <ele>2130</ele>
        <time>2020-02-14T08:59:13.365Z</time>
      </trkpt>
      <trkpt lat="42.58596" lon="1.99692">
        <ele>2128</ele>
        <time>2020-02-14T08:59:17.987Z</time>
      </trkpt>
      <trkpt lat="42.58588" lon="1.997">
        <ele>2126.1</ele>
        <time>2020-02-14T08:59:21.863Z</time>
      </trkpt>
      <trkpt lat="42.58584" lon="1.99703">
        <ele>2124.7</ele>
        <time>2020-02-14T08:59:23.485Z</time>
      </trkpt>
      <trkpt lat="42.58582" lon="1.99708">
        <ele>2123.7</ele>
        <time>2020-02-14T08:59:24.990Z</time>
      </trkpt>
      <trkpt lat="42.58578" lon="1.99716">
        <ele>2122.4</ele>
        <time>2020-02-14T08:59:27.822Z</time>
      </trkpt>
      <trkpt lat="42.58567" lon="1.9973">
        <ele>2118.5</ele>
        <time>2020-02-14T08:59:33.790Z</time>
      </trkpt>
      <trkpt lat="42.58556" lon="1.99739">
        <ele>2114.7</ele>
        <time>2020-02-14T08:59:39.041Z</time>
      </trkpt>
      <trkpt lat="42.58545" lon="1.99749">
        <ele>2111.7</ele>
        <time>2020-02-14T08:59:44.143Z</time>
      </trkpt>
      <trkpt lat="42.58541" lon="1.99754">
        <ele>2110.8</ele>
        <time>2020-02-14T08:59:46.194Z</time>
      </trkpt>
      <trkpt lat="42.58531" lon="1.99773">
        <ele>2107.9</ele>
        <time>2020-02-14T08:59:52.999Z</time>
      </trkpt>
      <trkpt lat="42.58528" lon="1.99777">
        <ele>2106.5</ele>
        <time>2020-02-14T08:59:54.746Z</time>
      </trkpt>
      <trkpt lat="42.58527" lon="1.99778">
        <ele>2106.4</ele>
        <time>2020-02-14T08:59:55.365Z</time>
      </trkpt>
      <trkpt lat="42.58523" lon="1.99789">
        <ele>2104.9</ele>
        <time>2020-02-14T08:59:58.750Z</time>
      </trkpt>
      <trkpt lat="42.58522" lon="1.99791">
        <ele>2104</ele>
        <time>2020-02-14T08:59:59.569Z</time>
      </trkpt>
      <trkpt lat="42.58519" lon="1.99797">
        <ele>2102.1</ele>
        <time>2020-02-14T09:00:01.771Z</time>
      </trkpt>
      <trkpt lat="42.58509" lon="1.99812">
        <ele>2098.2</ele>
        <time>2020-02-14T09:00:07.530Z</time>
      </trkpt>
      <trkpt lat="42.58508" lon="1.99813">
        <ele>2098.3</ele>
        <time>2020-02-14T09:00:07.997Z</time>
      </trkpt>
      <trkpt lat="42.58501" lon="1.9982">
        <ele>2095</ele>
        <time>2020-02-14T09:00:11.645Z</time>
      </trkpt>
      <trkpt lat="42.585" lon="1.99821">
        <ele>2094.5</ele>
        <time>2020-02-14T09:00:12.168Z</time>
      </trkpt>
      <trkpt lat="42.58491" lon="1.99825">
        <ele>2091</ele>
        <time>2020-02-14T09:00:15.906Z</time>
      </trkpt>
      <trkpt lat="42.58478" lon="1.99832">
        <ele>2087.7</ele>
        <time>2020-02-14T09:00:21.345Z</time>
      </trkpt>
      <trkpt lat="42.58466" lon="1.9984">
        <ele>2084.8</ele>
        <time>2020-02-14T09:00:26.916Z</time>
      </trkpt>
      <trkpt lat="42.58458" lon="1.99842">
        <ele>2083.3</ele>
        <time>2020-02-14T09:00:30.030Z</time>
      </trkpt>
      <trkpt lat="42.58453" lon="1.99841">
        <ele>2082.4</ele>
        <time>2020-02-14T09:00:31.864Z</time>
      </trkpt>
      <trkpt lat="42.58448" lon="1.99842">
        <ele>2080.4</ele>
        <time>2020-02-14T09:00:34.164Z</time>
      </trkpt>
      <trkpt lat="42.58442" lon="1.99843">
        <ele>2079.6</ele>
        <time>2020-02-14T09:00:36.388Z</time>
      </trkpt>
      <trkpt lat="42.58438" lon="1.99844">
        <ele>2078.5</ele>
        <time>2020-02-14T09:00:37.988Z</time>
      </trkpt>
      <trkpt lat="42.58425" lon="1.99854">
        <ele>2076.2</ele>
        <time>2020-02-14T09:00:43.812Z</time>
      </trkpt>
      <trkpt lat="42.58417" lon="1.99858">
        <ele>2075.2</ele>
        <time>2020-02-14T09:00:46.877Z</time>
      </trkpt>
      <trkpt lat="42.5841" lon="1.99862">
        <ele>2073.2</ele>
        <time>2020-02-14T09:00:50.102Z</time>
      </trkpt>
      <trkpt lat="42.58409" lon="1.99862">
        <ele>2072.8</ele>
        <time>2020-02-14T09:00:50.566Z</time>
      </trkpt>
      <trkpt lat="42.58404" lon="1.99864">
        <ele>2071.9</ele>
        <time>2020-02-14T09:00:52.489Z</time>
      </trkpt>
      <trkpt lat="42.58398" lon="1.99864">
        <ele>2070.9</ele>
        <time>2020-02-14T09:00:54.762Z</time>
      </trkpt>
      <trkpt lat="42.58394" lon="1.99866">
        <ele>2069.9</ele>
        <time>2020-02-14T09:00:56.563Z</time>
      </trkpt>
      <trkpt lat="42.58382" lon="1.99872">
        <ele>2066</ele>
        <time>2020-02-14T09:01:01.728Z</time>
      </trkpt>
      <trkpt lat="42.58379" lon="1.99873">
        <ele>2066</ele>
        <time>2020-02-14T09:01:02.840Z</time>
      </trkpt>
      <trkpt lat="42.58375" lon="1.99874">
        <ele>2064.6</ele>
        <time>2020-02-14T09:01:04.362Z</time>
      </trkpt>
      <trkpt lat="42.58361" lon="1.99876">
        <ele>2062.2</ele>
        <time>2020-02-14T09:01:09.960Z</time>
      </trkpt>
      <trkpt lat="42.58353" lon="1.99877">
        <ele>2060.8</ele>
        <time>2020-02-14T09:01:12.987Z</time>
      </trkpt>
      <trkpt lat="42.58347" lon="1.99879">
        <ele>2058.9</ele>
        <time>2020-02-14T09:01:15.719Z</time>
      </trkpt>
      <trkpt lat="42.58342" lon="1.99879">
        <ele>2057.8</ele>
        <time>2020-02-14T09:01:17.417Z</time>
      </trkpt>
      <trkpt lat="42.58332" lon="1.99881">
        <ele>2056.5</ele>
        <time>2020-02-14T09:01:21.388Z</time>
      </trkpt>
      <trkpt lat="42.58318" lon="1.99888">
        <ele>2054.6</ele>
        <time>2020-02-14T09:01:27.190Z</time>
      </trkpt>
      <trkpt lat="42.58312" lon="1.99893">
        <ele>2053.5</ele>
        <time>2020-02-14T09:01:29.981Z</time>
      </trkpt>
      <trkpt lat="42.58295" lon="1.99902">
        <ele>2050.7</ele>
        <time>2020-02-14T09:01:37.242Z</time>
      </trkpt>
      <trkpt lat="42.5829" lon="1.99904">
        <ele>2049.7</ele>
        <time>2020-02-14T09:01:39.171Z</time>
      </trkpt>
      <trkpt lat="42.58275" lon="1.99908">
        <ele>2047.3</ele>
        <time>2020-02-14T09:01:45.290Z</time>
      </trkpt>
      <trkpt lat="42.58257" lon="1.99916">
        <ele>2045.4</ele>
        <time>2020-02-14T09:01:52.405Z</time>
      </trkpt>
      <trkpt lat="42.5825" lon="1.99922">
        <ele>2045</ele>
        <time>2020-02-14T09:01:55.628Z</time>
      </trkpt>
      <trkpt lat="42.58249" lon="1.9992">
        <ele>2045</ele>
        <time>2020-02-14T09:01:56.300Z</time>
      </trkpt>
      <trkpt lat="42.58246" lon="1.99922">
        <ele>2044</ele>
        <time>2020-02-14T09:01:57.467Z</time>
      </trkpt>
      <trkpt lat="42.58244" lon="1.99923">
        <ele>2044.4</ele>
        <time>2020-02-14T09:01:58.221Z</time>
      </trkpt>
      <trkpt lat="42.58238" lon="1.99926">
        <ele>2043.5</ele>
        <time>2020-02-14T09:02:00.947Z</time>
      </trkpt>
      <trkpt lat="42.58231" lon="1.99926">
        <ele>2042.6</ele>
        <time>2020-02-14T09:02:03.594Z</time>
      </trkpt>
      <trkpt lat="42.58229" lon="1.99927">
        <ele>2042.1</ele>
        <time>2020-02-14T09:02:04.571Z</time>
      </trkpt>
      <trkpt lat="42.58218" lon="1.99927">
        <ele>2041</ele>
        <time>2020-02-14T09:02:08.561Z</time>
      </trkpt>
      <trkpt lat="42.58207" lon="1.99923">
        <ele>2038.6</ele>
        <time>2020-02-14T09:02:13.272Z</time>
      </trkpt>
      <trkpt lat="42.58202" lon="1.99924">
        <ele>2037.2</ele>
        <time>2020-02-14T09:02:15.160Z</time>
      </trkpt>
      <trkpt lat="42.58196" lon="1.99906">
        <ele>2035.3</ele>
        <time>2020-02-14T09:02:20.848Z</time>
      </trkpt>
      <trkpt lat="42.58195" lon="1.99904">
        <ele>2039.2</ele>
        <time>2020-02-14T09:02:22.326Z</time>
      </trkpt>
      <trkpt lat="42.58195" lon="1.99902">
        <ele>2037.8</ele>
        <time>2020-02-14T09:02:23.029Z</time>
      </trkpt>
      <trkpt lat="42.58195" lon="1.999">
        <ele>2037.7</ele>
        <time>2020-02-14T09:02:23.601Z</time>
      </trkpt>
      <trkpt lat="42.58197" lon="1.99891">
        <ele>2039.1</ele>
        <time>2020-02-14T09:02:26.379Z</time>
      </trkpt>
      <trkpt lat="42.58198" lon="1.99888">
        <ele>2041.6</ele>
        <time>2020-02-14T09:02:27.675Z</time>
      </trkpt>
      <trkpt lat="42.58198" lon="1.99888">
        <ele>2032.9</ele>
        <time>2020-02-14T09:02:30.711Z</time>
      </trkpt>
      <trkpt lat="42.58198" lon="1.99888">
        <ele>2040.2</ele>
        <time>2020-02-14T09:02:33.263Z</time>
      </trkpt>
      <trkpt lat="42.58198" lon="1.99888">
        <ele>2047.3</ele>
        <time>2020-02-14T09:02:35.731Z</time>
      </trkpt>
      <trkpt lat="42.58198" lon="1.99888">
        <ele>2033.3</ele>
        <time>2020-02-14T09:02:40.584Z</time>
      </trkpt>
      <trkpt lat="42.58198" lon="1.99888">
        <ele>2041</ele>
        <time>2020-02-14T09:02:43.250Z</time>
      </trkpt>
      <trkpt lat="42.58198" lon="1.99888">
        <ele>2034.3</ele>
        <time>2020-02-14T09:02:45.564Z</time>
      </trkpt>
      <trkpt lat="42.58198" lon="1.99888">
        <ele>2039.2</ele>
        <time>2020-02-14T09:02:47.243Z</time>
      </trkpt>
      <trkpt lat="42.58198" lon="1.99887">
        <ele>2038.6</ele>
        <time>2020-02-14T09:02:47.490Z</time>
      </trkpt>
      <trkpt lat="42.58196" lon="1.99884">
        <ele>2038.6</ele>
        <time>2020-02-14T09:02:48.846Z</time>
      </trkpt>
      <trkpt lat="42.58194" lon="1.99882">
        <ele>2038.6</ele>
        <time>2020-02-14T09:02:49.730Z</time>
      </trkpt>
      <trkpt lat="42.58186" lon="1.9988">
        <ele>2038.7</ele>
        <time>2020-02-14T09:02:52.709Z</time>
      </trkpt>
      <trkpt lat="42.58182" lon="1.99877">
        <ele>2038.1</ele>
        <time>2020-02-14T09:02:54.418Z</time>
      </trkpt>
      <trkpt lat="42.58177" lon="1.99879">
        <ele>2038.1</ele>
        <time>2020-02-14T09:02:56.444Z</time>
      </trkpt>
      <trkpt lat="42.58169" lon="1.99886">
        <ele>2038.2</ele>
        <time>2020-02-14T09:03:00.163Z</time>
      </trkpt>
      <trkpt lat="42.58153" lon="1.99895">
        <ele>2038.1</ele>
        <time>2020-02-14T09:03:06.814Z</time>
      </trkpt>
      <trkpt lat="42.58151" lon="1.99895">
        <ele>2038.6</ele>
        <time>2020-02-14T09:03:07.834Z</time>
      </trkpt>
      <trkpt lat="42.58136" lon="1.99906">
        <ele>2038.1</ele>
        <time>2020-02-14T09:03:14.433Z</time>
      </trkpt>
      <trkpt lat="42.58129" lon="1.99927">
        <ele>2036.2</ele>
        <time>2020-02-14T09:03:20.878Z</time>
      </trkpt>
      <trkpt lat="42.58129" lon="1.99927">
        <ele>2036.8</ele>
        <time>2020-02-14T09:03:21.114Z</time>
      </trkpt>
      <trkpt lat="42.58127" lon="1.99935">
        <ele>2038.1</ele>
        <time>2020-02-14T09:03:23.742Z</time>
      </trkpt>
      <trkpt lat="42.58118" lon="1.99938">
        <ele>2039.1</ele>
        <time>2020-02-14T09:03:27.295Z</time>
      </trkpt>
      <trkpt lat="42.58104" lon="1.99951">
        <ele>2039.2</ele>
        <time>2020-02-14T09:03:33.564Z</time>
      </trkpt>
      <trkpt lat="42.58104" lon="1.99953">
        <ele>2039.1</ele>
        <time>2020-02-14T09:03:34.201Z</time>
      </trkpt>
      <trkpt lat="42.58098" lon="1.99968">
        <ele>2038.7</ele>
        <time>2020-02-14T09:03:38.986Z</time>
      </trkpt>
      <trkpt lat="42.58081" lon="1.99992">
        <ele>2036.3</ele>
        <time>2020-02-14T09:03:48.624Z</time>
      </trkpt>
      <trkpt lat="42.58079" lon="1.99999">
        <ele>2035.7</ele>
        <time>2020-02-14T09:03:50.772Z</time>
      </trkpt>
      <trkpt lat="42.58072" lon="2.00011">
        <ele>2034.8</ele>
        <time>2020-02-14T09:03:54.949Z</time>
      </trkpt>
      <trkpt lat="42.58071" lon="2.00011">
        <ele>2034.8</ele>
        <time>2020-02-14T09:03:55.310Z</time>
      </trkpt>
      <trkpt lat="42.58056" lon="2.00015">
        <ele>2033.3</ele>
        <time>2020-02-14T09:04:01.215Z</time>
      </trkpt>
      <trkpt lat="42.58052" lon="2.00012">
        <ele>2033.4</ele>
        <time>2020-02-14T09:04:02.924Z</time>
      </trkpt>
      <trkpt lat="42.58048" lon="2.00008">
        <ele>2032.9</ele>
        <time>2020-02-14T09:04:04.852Z</time>
      </trkpt>
      <trkpt lat="42.58044" lon="2.00001">
        <ele>2031.9</ele>
        <time>2020-02-14T09:04:07.652Z</time>
      </trkpt>
      <trkpt lat="42.58043" lon="2">
        <ele>2030.9</ele>
        <time>2020-02-14T09:04:08.181Z</time>
      </trkpt>
      <trkpt lat="42.58033" lon="1.99995">
        <ele>2029</ele>
        <time>2020-02-14T09:04:12.122Z</time>
      </trkpt>
      <trkpt lat="42.58025" lon="1.9999">
        <ele>2026.7</ele>
        <time>2020-02-14T09:04:15.732Z</time>
      </trkpt>
      <trkpt lat="42.58021" lon="1.9998">
        <ele>2024.7</ele>
        <time>2020-02-14T09:04:19.199Z</time>
      </trkpt>
      <trkpt lat="42.58014" lon="1.99959">
        <ele>2024.7</ele>
        <time>2020-02-14T09:04:25.706Z</time>
      </trkpt>
      <trkpt lat="42.58013" lon="1.99957">
        <ele>2024.7</ele>
        <time>2020-02-14T09:04:26.379Z</time>
      </trkpt>
      <trkpt lat="42.58012" lon="1.9995">
        <ele>2025.3</ele>
        <time>2020-02-14T09:04:28.326Z</time>
      </trkpt>
      <trkpt lat="42.58008" lon="1.99944">
        <ele>2024.8</ele>
        <time>2020-02-14T09:04:30.556Z</time>
      </trkpt>
      <trkpt lat="42.58004" lon="1.99938">
        <ele>2023.7</ele>
        <time>2020-02-14T09:04:32.954Z</time>
      </trkpt>
      <trkpt lat="42.57999" lon="1.99925">
        <ele>2020.4</ele>
        <time>2020-02-14T09:04:37.283Z</time>
      </trkpt>
      <trkpt lat="42.57999" lon="1.99923">
        <ele>2023.7</ele>
        <time>2020-02-14T09:04:38.525Z</time>
      </trkpt>
      <trkpt lat="42.57998" lon="1.99916">
        <ele>2028</ele>
        <time>2020-02-14T09:04:41.110Z</time>
      </trkpt>
      <trkpt lat="42.57997" lon="1.99914">
        <ele>2024.2</ele>
        <time>2020-02-14T09:04:42.531Z</time>
      </trkpt>
      <trkpt lat="42.5799" lon="1.99893">
        <ele>2023.2</ele>
        <time>2020-02-14T09:04:49.096Z</time>
      </trkpt>
      <trkpt lat="42.57988" lon="1.99889">
        <ele>2023.2</ele>
        <time>2020-02-14T09:04:50.449Z</time>
      </trkpt>
      <trkpt lat="42.57985" lon="1.99886">
        <ele>2022.8</ele>
        <time>2020-02-14T09:04:51.990Z</time>
      </trkpt>
      <trkpt lat="42.57979" lon="1.99882">
        <ele>2023.7</ele>
        <time>2020-02-14T09:04:54.523Z</time>
      </trkpt>
      <trkpt lat="42.57975" lon="1.99878">
        <ele>2023.3</ele>
        <time>2020-02-14T09:04:56.528Z</time>
      </trkpt>
      <trkpt lat="42.57973" lon="1.99875">
        <ele>2021.3</ele>
        <time>2020-02-14T09:04:58.049Z</time>
      </trkpt>
      <trkpt lat="42.57971" lon="1.9987">
        <ele>2024.2</ele>
        <time>2020-02-14T09:04:59.891Z</time>
      </trkpt>
      <trkpt lat="42.57966" lon="1.9986">
        <ele>2024.2</ele>
        <time>2020-02-14T09:05:03.293Z</time>
      </trkpt>
      <trkpt lat="42.57965" lon="1.99857">
        <ele>2024.8</ele>
        <time>2020-02-14T09:05:04.234Z</time>
      </trkpt>
      <trkpt lat="42.57963" lon="1.99854">
        <ele>2024.8</ele>
        <time>2020-02-14T09:05:05.221Z</time>
      </trkpt>
      <trkpt lat="42.57954" lon="1.99841">
        <ele>2025.3</ele>
        <time>2020-02-14T09:05:10.307Z</time>
      </trkpt>
      <trkpt lat="42.57948" lon="1.99828">
        <ele>2026.2</ele>
        <time>2020-02-14T09:05:14.764Z</time>
      </trkpt>
      <trkpt lat="42.57944" lon="1.99821">
        <ele>2026.6</ele>
        <time>2020-02-14T09:05:17.265Z</time>
      </trkpt>
      <trkpt lat="42.57938" lon="1.99811">
        <ele>2027.1</ele>
        <time>2020-02-14T09:05:20.962Z</time>
      </trkpt>
      <trkpt lat="42.57937" lon="1.99805">
        <ele>2027.6</ele>
        <time>2020-02-14T09:05:22.679Z</time>
      </trkpt>
      <trkpt lat="42.57934" lon="1.99797">
        <ele>2028.6</ele>
        <time>2020-02-14T09:05:25.429Z</time>
      </trkpt>
      <trkpt lat="42.5793" lon="1.99775">
        <ele>2029.5</ele>
        <time>2020-02-14T09:05:31.795Z</time>
      </trkpt>
      <trkpt lat="42.57929" lon="1.99765">
        <ele>2030.1</ele>
        <time>2020-02-14T09:05:34.744Z</time>
      </trkpt>
      <trkpt lat="42.57927" lon="1.99755">
        <ele>2030.4</ele>
        <time>2020-02-14T09:05:37.711Z</time>
      </trkpt>
      <trkpt lat="42.57929" lon="1.99744">
        <ele>2030.9</ele>
        <time>2020-02-14T09:05:40.790Z</time>
      </trkpt>
      <trkpt lat="42.57935" lon="1.99733">
        <ele>2030.4</ele>
        <time>2020-02-14T09:05:44.530Z</time>
      </trkpt>
      <trkpt lat="42.5794" lon="1.99728">
        <ele>2030</ele>
        <time>2020-02-14T09:05:47.058Z</time>
      </trkpt>
      <trkpt lat="42.57944" lon="1.99718">
        <ele>2030.4</ele>
        <time>2020-02-14T09:05:50.381Z</time>
      </trkpt>
      <trkpt lat="42.57942" lon="1.99707">
        <ele>2031</ele>
        <time>2020-02-14T09:05:53.644Z</time>
      </trkpt>
      <trkpt lat="42.5794" lon="1.99696">
        <ele>2030.9</ele>
        <time>2020-02-14T09:05:56.815Z</time>
      </trkpt>
      <trkpt lat="42.57936" lon="1.99693">
        <ele>2030.9</ele>
        <time>2020-02-14T09:05:58.481Z</time>
      </trkpt>
      <trkpt lat="42.57933" lon="1.99683">
        <ele>2031.4</ele>
        <time>2020-02-14T09:06:01.594Z</time>
      </trkpt>
      <trkpt lat="42.57932" lon="1.99679">
        <ele>2036.2</ele>
        <time>2020-02-14T09:06:03.770Z</time>
      </trkpt>
      <trkpt lat="42.57931" lon="1.99677">
        <ele>2035.8</ele>
        <time>2020-02-14T09:06:04.253Z</time>
      </trkpt>
      <trkpt lat="42.57927" lon="1.99658">
        <ele>2033.3</ele>
        <time>2020-02-14T09:06:10.106Z</time>
      </trkpt>
      <trkpt lat="42.57926" lon="1.99656">
        <ele>2033.9</ele>
        <time>2020-02-14T09:06:10.624Z</time>
      </trkpt>
      <trkpt lat="42.57925" lon="1.99653">
        <ele>2033.9</ele>
        <time>2020-02-14T09:06:11.563Z</time>
      </trkpt>
      <trkpt lat="42.57924" lon="1.99647">
        <ele>2033.9</ele>
        <time>2020-02-14T09:06:13.242Z</time>
      </trkpt>
      <trkpt lat="42.57923" lon="1.99644">
        <ele>2034.3</ele>
        <time>2020-02-14T09:06:14.422Z</time>
      </trkpt>
      <trkpt lat="42.5792" lon="1.99635">
        <ele>2035.4</ele>
        <time>2020-02-14T09:06:17.297Z</time>
      </trkpt>
      <trkpt lat="42.57916" lon="1.9962">
        <ele>2034.3</ele>
        <time>2020-02-14T09:06:21.664Z</time>
      </trkpt>
      <trkpt lat="42.57905" lon="1.99602">
        <ele>2033.3</ele>
        <time>2020-02-14T09:06:28.448Z</time>
      </trkpt>
      <trkpt lat="42.57899" lon="1.99589">
        <ele>2032</ele>
        <time>2020-02-14T09:06:32.869Z</time>
      </trkpt>
      <trkpt lat="42.57891" lon="1.99569">
        <ele>2031.4</ele>
        <time>2020-02-14T09:06:39.298Z</time>
      </trkpt>
      <trkpt lat="42.57884" lon="1.99552">
        <ele>2030.4</ele>
        <time>2020-02-14T09:06:44.839Z</time>
      </trkpt>
      <trkpt lat="42.57881" lon="1.99547">
        <ele>2030.1</ele>
        <time>2020-02-14T09:06:46.673Z</time>
      </trkpt>
      <trkpt lat="42.57876" lon="1.99533">
        <ele>2031</ele>
        <time>2020-02-14T09:06:51.065Z</time>
      </trkpt>
      <trkpt lat="42.57875" lon="1.99527">
        <ele>2030.4</ele>
        <time>2020-02-14T09:06:52.928Z</time>
      </trkpt>
      <trkpt lat="42.57875" lon="1.99522">
        <ele>2030.5</ele>
        <time>2020-02-14T09:06:54.263Z</time>
      </trkpt>
      <trkpt lat="42.57872" lon="1.9951">
        <ele>2031</ele>
        <time>2020-02-14T09:06:58.057Z</time>
      </trkpt>
      <trkpt lat="42.57869" lon="1.99496">
        <ele>2030.4</ele>
        <time>2020-02-14T09:07:01.971Z</time>
      </trkpt>
      <trkpt lat="42.57859" lon="1.99476">
        <ele>2030</ele>
        <time>2020-02-14T09:07:08.953Z</time>
      </trkpt>
      <trkpt lat="42.5785" lon="1.9946">
        <ele>2030.4</ele>
        <time>2020-02-14T09:07:14.796Z</time>
      </trkpt>
      <trkpt lat="42.57847" lon="1.99452">
        <ele>2031</ele>
        <time>2020-02-14T09:07:17.153Z</time>
      </trkpt>
      <trkpt lat="42.57845" lon="1.99435">
        <ele>2030.5</ele>
        <time>2020-02-14T09:07:22.174Z</time>
      </trkpt>
      <trkpt lat="42.57843" lon="1.99432">
        <ele>2030.5</ele>
        <time>2020-02-14T09:07:23.218Z</time>
      </trkpt>
      <trkpt lat="42.5784" lon="1.9942">
        <ele>2031.5</ele>
        <time>2020-02-14T09:07:26.983Z</time>
      </trkpt>
      <trkpt lat="42.57837" lon="1.99418">
        <ele>2032</ele>
        <time>2020-02-14T09:07:28.212Z</time>
      </trkpt>
      <trkpt lat="42.57834" lon="1.99406">
        <ele>2031.9</ele>
        <time>2020-02-14T09:07:31.735Z</time>
      </trkpt>
      <trkpt lat="42.57831" lon="1.99402">
        <ele>2032</ele>
        <time>2020-02-14T09:07:33.276Z</time>
      </trkpt>
      <trkpt lat="42.57831" lon="1.99402">
        <ele>2029.5</ele>
        <time>2020-02-14T09:07:34.120Z</time>
      </trkpt>
      <trkpt lat="42.57831" lon="1.99402">
        <ele>2032.8</ele>
        <time>2020-02-14T09:07:35.272Z</time>
      </trkpt>
      <trkpt lat="42.57831" lon="1.99402">
        <ele>2032.4</ele>
        <time>2020-02-14T09:07:35.424Z</time>
      </trkpt>
      <trkpt lat="42.57831" lon="1.99402">
        <ele>2022.8</ele>
        <time>2020-02-14T09:07:38.758Z</time>
      </trkpt>
      <trkpt lat="42.57831" lon="1.99402">
        <ele>2032.9</ele>
        <time>2020-02-14T09:07:42.246Z</time>
      </trkpt>
      <trkpt lat="42.57831" lon="1.99402">
        <ele>2032</ele>
        <time>2020-02-14T09:07:42.555Z</time>
      </trkpt>
      <trkpt lat="42.57823" lon="1.99396">
        <ele>2031</ele>
        <time>2020-02-14T09:07:46.054Z</time>
      </trkpt>
      <trkpt lat="42.57804" lon="1.9939">
        <ele>2030.9</ele>
        <time>2020-02-14T09:07:53.804Z</time>
      </trkpt>
      <trkpt lat="42.57795" lon="1.99387">
        <ele>2031</ele>
        <time>2020-02-14T09:07:57.382Z</time>
      </trkpt>
      <trkpt lat="42.5778" lon="1.99382">
        <ele>2030.9</ele>
        <time>2020-02-14T09:08:03.458Z</time>
      </trkpt>
      <trkpt lat="42.57777" lon="1.99383">
        <ele>2031</ele>
        <time>2020-02-14T09:08:04.323Z</time>
      </trkpt>
      <trkpt lat="42.57766" lon="1.99379">
        <ele>2030</ele>
        <time>2020-02-14T09:08:08.804Z</time>
      </trkpt>
      <trkpt lat="42.57764" lon="1.99378">
        <ele>2030</ele>
        <time>2020-02-14T09:08:09.653Z</time>
      </trkpt>
      <trkpt lat="42.57756" lon="1.99375">
        <ele>2029.5</ele>
        <time>2020-02-14T09:08:12.770Z</time>
      </trkpt>
      <trkpt lat="42.57752" lon="1.99374">
        <ele>2028.5</ele>
        <time>2020-02-14T09:08:14.375Z</time>
      </trkpt>
      <trkpt lat="42.57749" lon="1.99377">
        <ele>2029.1</ele>
        <time>2020-02-14T09:08:15.924Z</time>
      </trkpt>
      <trkpt lat="42.57745" lon="1.99381">
        <ele>2028</ele>
        <time>2020-02-14T09:08:17.959Z</time>
      </trkpt>
      <trkpt lat="42.57736" lon="1.99384">
        <ele>2028.1</ele>
        <time>2020-02-14T09:08:21.379Z</time>
      </trkpt>
      <trkpt lat="42.57722" lon="1.99381">
        <ele>2027.2</ele>
        <time>2020-02-14T09:08:26.720Z</time>
      </trkpt>
      <trkpt lat="42.57718" lon="1.99384">
        <ele>2027.1</ele>
        <time>2020-02-14T09:08:28.770Z</time>
      </trkpt>
      <trkpt lat="42.57713" lon="1.99386">
        <ele>2026.7</ele>
        <time>2020-02-14T09:08:30.539Z</time>
      </trkpt>
      <trkpt lat="42.57705" lon="1.99388">
        <ele>2027.1</ele>
        <time>2020-02-14T09:08:33.900Z</time>
      </trkpt>
      <trkpt lat="42.57689" lon="1.99389">
        <ele>2026.7</ele>
        <time>2020-02-14T09:08:39.927Z</time>
      </trkpt>
      <trkpt lat="42.57685" lon="1.99388">
        <ele>2026.7</ele>
        <time>2020-02-14T09:08:41.481Z</time>
      </trkpt>
      <trkpt lat="42.57678" lon="1.99392">
        <ele>2025.6</ele>
        <time>2020-02-14T09:08:44.527Z</time>
      </trkpt>
      <trkpt lat="42.57668" lon="1.99403">
        <ele>2027.6</ele>
        <time>2020-02-14T09:08:49.472Z</time>
      </trkpt>
      <trkpt lat="42.57662" lon="1.99408">
        <ele>2028.6</ele>
        <time>2020-02-14T09:08:52.437Z</time>
      </trkpt>
      <trkpt lat="42.5765" lon="1.99412">
        <ele>2026.7</ele>
        <time>2020-02-14T09:08:57.086Z</time>
      </trkpt>
      <trkpt lat="42.57642" lon="1.9941">
        <ele>2025.7</ele>
        <time>2020-02-14T09:09:00.409Z</time>
      </trkpt>
      <trkpt lat="42.57638" lon="1.99405">
        <ele>2025.6</ele>
        <time>2020-02-14T09:09:02.478Z</time>
      </trkpt>
      <trkpt lat="42.5763" lon="1.99397">
        <ele>2024.8</ele>
        <time>2020-02-14T09:09:06.355Z</time>
      </trkpt>
      <trkpt lat="42.57626" lon="1.99401">
        <ele>2024.3</ele>
        <time>2020-02-14T09:09:08.261Z</time>
      </trkpt>
      <trkpt lat="42.57611" lon="1.99405">
        <ele>2025.2</ele>
        <time>2020-02-14T09:09:14.023Z</time>
      </trkpt>
      <trkpt lat="42.57596" lon="1.99402">
        <ele>2025.3</ele>
        <time>2020-02-14T09:09:19.863Z</time>
      </trkpt>
      <trkpt lat="42.57588" lon="1.99401">
        <ele>2025.3</ele>
        <time>2020-02-14T09:09:22.844Z</time>
      </trkpt>
      <trkpt lat="42.57579" lon="1.99398">
        <ele>2025.6</ele>
        <time>2020-02-14T09:09:26.424Z</time>
      </trkpt>
      <trkpt lat="42.57577" lon="1.99397">
        <ele>2026.1</ele>
        <time>2020-02-14T09:09:27.585Z</time>
      </trkpt>
      <trkpt lat="42.57569" lon="1.99395">
        <ele>2026.2</ele>
        <time>2020-02-14T09:09:30.580Z</time>
      </trkpt>
      <trkpt lat="42.57555" lon="1.99391">
        <ele>2027.1</ele>
        <time>2020-02-14T09:09:36.151Z</time>
      </trkpt>
      <trkpt lat="42.5754" lon="1.99385">
        <ele>2027.7</ele>
        <time>2020-02-14T09:09:42.208Z</time>
      </trkpt>
      <trkpt lat="42.57537" lon="1.99383">
        <ele>2027.2</ele>
        <time>2020-02-14T09:09:43.499Z</time>
      </trkpt>
      <trkpt lat="42.57526" lon="1.99377">
        <ele>2026.2</ele>
        <time>2020-02-14T09:09:48.094Z</time>
      </trkpt>
      <trkpt lat="42.57524" lon="1.99375">
        <ele>2026.1</ele>
        <time>2020-02-14T09:09:49.065Z</time>
      </trkpt>
      <trkpt lat="42.57519" lon="1.99373">
        <ele>2026.1</ele>
        <time>2020-02-14T09:09:50.986Z</time>
      </trkpt>
      <trkpt lat="42.57514" lon="1.9937">
        <ele>2025.7</ele>
        <time>2020-02-14T09:09:53.275Z</time>
      </trkpt>
      <trkpt lat="42.57506" lon="1.99358">
        <ele>2026.1</ele>
        <time>2020-02-14T09:09:57.715Z</time>
      </trkpt>
      <trkpt lat="42.57503" lon="1.99357">
        <ele>2026.1</ele>
        <time>2020-02-14T09:09:58.960Z</time>
      </trkpt>
      <trkpt lat="42.575" lon="1.99359">
        <ele>2025.6</ele>
        <time>2020-02-14T09:10:00.162Z</time>
      </trkpt>
      <trkpt lat="42.57486" lon="1.99357">
        <ele>2026.2</ele>
        <time>2020-02-14T09:10:05.823Z</time>
      </trkpt>
      <trkpt lat="42.57483" lon="1.99355">
        <ele>2026.1</ele>
        <time>2020-02-14T09:10:07.187Z</time>
      </trkpt>
      <trkpt lat="42.57471" lon="1.99345">
        <ele>2027.1</ele>
        <time>2020-02-14T09:10:12.319Z</time>
      </trkpt>
      <trkpt lat="42.57467" lon="1.99345">
        <ele>2027.2</ele>
        <time>2020-02-14T09:10:14.174Z</time>
      </trkpt>
      <trkpt lat="42.57463" lon="1.99339">
        <ele>2027.6</ele>
        <time>2020-02-14T09:10:16.290Z</time>
      </trkpt>
      <trkpt lat="42.57451" lon="1.99328">
        <ele>2029.1</ele>
        <time>2020-02-14T09:10:21.965Z</time>
      </trkpt>
      <trkpt lat="42.57444" lon="1.99318">
        <ele>2028.5</ele>
        <time>2020-02-14T09:10:25.852Z</time>
      </trkpt>
      <trkpt lat="42.57436" lon="1.99312">
        <ele>2028.6</ele>
        <time>2020-02-14T09:10:29.432Z</time>
      </trkpt>
      <trkpt lat="42.57426" lon="1.99312">
        <ele>2029.5</ele>
        <time>2020-02-14T09:10:33.197Z</time>
      </trkpt>
      <trkpt lat="42.57417" lon="1.99299">
        <ele>2031.4</ele>
        <time>2020-02-14T09:10:38.457Z</time>
      </trkpt>
      <trkpt lat="42.57416" lon="1.99297">
        <ele>2031.4</ele>
        <time>2020-02-14T09:10:39.118Z</time>
      </trkpt>
      <trkpt lat="42.57413" lon="1.99295">
        <ele>2032.4</ele>
        <time>2020-02-14T09:10:40.442Z</time>
      </trkpt>
      <trkpt lat="42.574" lon="1.99291">
        <ele>2033.9</ele>
        <time>2020-02-14T09:10:45.761Z</time>
      </trkpt>
      <trkpt lat="42.57385" lon="1.99288">
        <ele>2033.3</ele>
        <time>2020-02-14T09:10:51.655Z</time>
      </trkpt>
      <trkpt lat="42.57382" lon="1.99287">
        <ele>2032.8</ele>
        <time>2020-02-14T09:10:52.757Z</time>
      </trkpt>
      <trkpt lat="42.57369" lon="1.99283">
        <ele>2032.8</ele>
        <time>2020-02-14T09:10:57.824Z</time>
      </trkpt>
      <trkpt lat="42.57355" lon="1.99283">
        <ele>2034.4</ele>
        <time>2020-02-14T09:11:03.140Z</time>
      </trkpt>
      <trkpt lat="42.5735" lon="1.99281">
        <ele>2036.3</ele>
        <time>2020-02-14T09:11:05.383Z</time>
      </trkpt>
      <trkpt lat="42.57343" lon="1.99278">
        <ele>2036.7</ele>
        <time>2020-02-14T09:11:08.193Z</time>
      </trkpt>
      <trkpt lat="42.57333" lon="1.99272">
        <ele>2037.3</ele>
        <time>2020-02-14T09:11:12.536Z</time>
      </trkpt>
      <trkpt lat="42.57329" lon="1.99272">
        <ele>2037.2</ele>
        <time>2020-02-14T09:11:13.895Z</time>
      </trkpt>
      <trkpt lat="42.57324" lon="1.9927">
        <ele>2035.7</ele>
        <time>2020-02-14T09:11:16.089Z</time>
      </trkpt>
      <trkpt lat="42.57308" lon="1.99268">
        <ele>2035.8</ele>
        <time>2020-02-14T09:11:22.409Z</time>
      </trkpt>
      <trkpt lat="42.57293" lon="1.99266">
        <ele>2036.7</ele>
        <time>2020-02-14T09:11:28.274Z</time>
      </trkpt>
      <trkpt lat="42.57283" lon="1.99268">
        <ele>2038.1</ele>
        <time>2020-02-14T09:11:31.936Z</time>
      </trkpt>
      <trkpt lat="42.57275" lon="1.99276">
        <ele>2036.2</ele>
        <time>2020-02-14T09:11:35.714Z</time>
      </trkpt>
      <trkpt lat="42.57269" lon="1.99276">
        <ele>2036.3</ele>
        <time>2020-02-14T09:11:38.302Z</time>
      </trkpt>
      <trkpt lat="42.57264" lon="1.99279">
        <ele>2038.1</ele>
        <time>2020-02-14T09:11:40.537Z</time>
      </trkpt>
      <trkpt lat="42.57253" lon="1.99286">
        <ele>2037.3</ele>
        <time>2020-02-14T09:11:45.010Z</time>
      </trkpt>
      <trkpt lat="42.57246" lon="1.99298">
        <ele>2038.2</ele>
        <time>2020-02-14T09:11:49.445Z</time>
      </trkpt>
      <trkpt lat="42.57241" lon="1.99304">
        <ele>2036.2</ele>
        <time>2020-02-14T09:11:51.973Z</time>
      </trkpt>
      <trkpt lat="42.57236" lon="1.99306">
        <ele>2035.7</ele>
        <time>2020-02-14T09:11:54.088Z</time>
      </trkpt>
      <trkpt lat="42.57231" lon="1.99311">
        <ele>2032.8</ele>
        <time>2020-02-14T09:11:56.671Z</time>
      </trkpt>
      <trkpt lat="42.5722" lon="1.99317">
        <ele>2032.4</ele>
        <time>2020-02-14T09:12:01.244Z</time>
      </trkpt>
      <trkpt lat="42.57208" lon="1.99324">
        <ele>2032.4</ele>
        <time>2020-02-14T09:12:06.446Z</time>
      </trkpt>
      <trkpt lat="42.57202" lon="1.99322">
        <ele>2033.4</ele>
        <time>2020-02-14T09:12:08.926Z</time>
      </trkpt>
      <trkpt lat="42.57193" lon="1.99313">
        <ele>2034.3</ele>
        <time>2020-02-14T09:12:13.206Z</time>
      </trkpt>
      <trkpt lat="42.57185" lon="1.99302">
        <ele>2035.7</ele>
        <time>2020-02-14T09:12:17.662Z</time>
      </trkpt>
      <trkpt lat="42.5718" lon="1.99292">
        <ele>2033.8</ele>
        <time>2020-02-14T09:12:21.094Z</time>
      </trkpt>
      <trkpt lat="42.57173" lon="1.99285">
        <ele>2033.4</ele>
        <time>2020-02-14T09:12:24.406Z</time>
      </trkpt>
      <trkpt lat="42.57163" lon="1.99275">
        <ele>2032</ele>
        <time>2020-02-14T09:12:29.505Z</time>
      </trkpt>
      <trkpt lat="42.57154" lon="1.99267">
        <ele>2028</ele>
        <time>2020-02-14T09:12:33.671Z</time>
      </trkpt>
      <trkpt lat="42.5715" lon="1.99264">
        <ele>2030.4</ele>
        <time>2020-02-14T09:12:35.668Z</time>
      </trkpt>
      <trkpt lat="42.57147" lon="1.99263">
        <ele>2029.5</ele>
        <time>2020-02-14T09:12:36.888Z</time>
      </trkpt>
      <trkpt lat="42.57141" lon="1.99259">
        <ele>2028.5</ele>
        <time>2020-02-14T09:12:39.343Z</time>
      </trkpt>
      <trkpt lat="42.57137" lon="1.99257">
        <ele>2028.1</ele>
        <time>2020-02-14T09:12:41.096Z</time>
      </trkpt>
      <trkpt lat="42.57124" lon="1.99251">
        <ele>2027.1</ele>
        <time>2020-02-14T09:12:46.542Z</time>
      </trkpt>
      <trkpt lat="42.57118" lon="1.99245">
        <ele>2026.7</ele>
        <time>2020-02-14T09:12:49.499Z</time>
      </trkpt>
      <trkpt lat="42.57105" lon="1.99251">
        <ele>2024.3</ele>
        <time>2020-02-14T09:12:54.793Z</time>
      </trkpt>
      <trkpt lat="42.57095" lon="1.99258">
        <ele>2022.4</ele>
        <time>2020-02-14T09:12:59.296Z</time>
      </trkpt>
      <trkpt lat="42.57084" lon="1.99263">
        <ele>2021.8</ele>
        <time>2020-02-14T09:13:03.639Z</time>
      </trkpt>
      <trkpt lat="42.57076" lon="1.99271">
        <ele>2021.3</ele>
        <time>2020-02-14T09:13:07.507Z</time>
      </trkpt>
      <trkpt lat="42.57067" lon="1.9928">
        <ele>2021.3</ele>
        <time>2020-02-14T09:13:11.565Z</time>
      </trkpt>
      <trkpt lat="42.57052" lon="1.99294">
        <ele>2021.3</ele>
        <time>2020-02-14T09:13:18.661Z</time>
      </trkpt>
      <trkpt lat="42.57041" lon="1.99303">
        <ele>2021.8</ele>
        <time>2020-02-14T09:13:23.749Z</time>
      </trkpt>
      <trkpt lat="42.57033" lon="1.99316">
        <ele>2021.9</ele>
        <time>2020-02-14T09:13:28.510Z</time>
      </trkpt>
      <trkpt lat="42.57033" lon="1.99316">
        <ele>2018.4</ele>
        <time>2020-02-14T09:13:29.725Z</time>
      </trkpt>
      <trkpt lat="42.57033" lon="1.99315">
        <ele>2024.7</ele>
        <time>2020-02-14T09:13:31.930Z</time>
      </trkpt>
      <trkpt lat="42.57034" lon="1.99315">
        <ele>2022.3</ele>
        <time>2020-02-14T09:13:32.841Z</time>
      </trkpt>
      <trkpt lat="42.57038" lon="1.99315">
        <ele>2020.8</ele>
        <time>2020-02-14T09:13:34.469Z</time>
      </trkpt>
      <trkpt lat="42.57042" lon="1.99317">
        <ele>2019.5</ele>
        <time>2020-02-14T09:13:36.064Z</time>
      </trkpt>
      <trkpt lat="42.57042" lon="1.99318">
        <ele>2018.4</ele>
        <time>2020-02-14T09:13:36.476Z</time>
      </trkpt>
      <trkpt lat="42.57042" lon="1.99318">
        <ele>2014.1</ele>
        <time>2020-02-14T09:13:37.973Z</time>
      </trkpt>
      <trkpt lat="42.57042" lon="1.99318">
        <ele>2020</ele>
        <time>2020-02-14T09:13:40.008Z</time>
      </trkpt>
      <trkpt lat="42.57042" lon="1.99319">
        <ele>2017.9</ele>
        <time>2020-02-14T09:13:40.748Z</time>
      </trkpt>
      <trkpt lat="42.57042" lon="1.99319">
        <ele>2017.9</ele>
        <time>2020-02-14T09:13:40.870Z</time>
      </trkpt>
      <trkpt lat="42.57043" lon="1.99319">
        <ele>2017</ele>
        <time>2020-02-14T09:13:41.253Z</time>
      </trkpt>
      <trkpt lat="42.57043" lon="1.99319">
        <ele>2018</ele>
        <time>2020-02-14T09:13:41.578Z</time>
      </trkpt>
      <trkpt lat="42.57042" lon="1.9932">
        <ele>2017.6</ele>
        <time>2020-02-14T09:13:41.746Z</time>
      </trkpt>
      <trkpt lat="42.57043" lon="1.99319">
        <ele>2017.6</ele>
        <time>2020-02-14T09:13:41.830Z</time>
      </trkpt>
      <trkpt lat="42.57043" lon="1.99321">
        <ele>2017.6</ele>
        <time>2020-02-14T09:13:42.232Z</time>
      </trkpt>
      <trkpt lat="42.57043" lon="1.99321">
        <ele>2017.5</ele>
        <time>2020-02-14T09:13:42.389Z</time>
      </trkpt>
      <trkpt lat="42.57043" lon="1.9932">
        <ele>2017.1</ele>
        <time>2020-02-14T09:13:42.579Z</time>
      </trkpt>
      <trkpt lat="42.57044" lon="1.99321">
        <ele>2017.6</ele>
        <time>2020-02-14T09:13:42.924Z</time>
      </trkpt>
      <trkpt lat="42.57044" lon="1.99321">
        <ele>2018.9</ele>
        <time>2020-02-14T09:13:43.442Z</time>
      </trkpt>
      <trkpt lat="42.57044" lon="1.99321">
        <ele>2017.9</ele>
        <time>2020-02-14T09:13:43.794Z</time>
      </trkpt>
      <trkpt lat="42.57044" lon="1.9932">
        <ele>2017.9</ele>
        <time>2020-02-14T09:13:43.878Z</time>
      </trkpt>
      <trkpt lat="42.57043" lon="1.9932">
        <ele>2017.5</ele>
        <time>2020-02-14T09:13:44.245Z</time>
      </trkpt>
      <trkpt lat="42.57043" lon="1.9932">
        <ele>2017.9</ele>
        <time>2020-02-14T09:13:44.399Z</time>
      </trkpt>
      <trkpt lat="42.57043" lon="1.9932">
        <ele>2018</ele>
        <time>2020-02-14T09:13:44.486Z</time>
      </trkpt>
      <trkpt lat="42.57044" lon="1.99321">
        <ele>2017.6</ele>
        <time>2020-02-14T09:13:44.695Z</time>
      </trkpt>
      <trkpt lat="42.57044" lon="1.99321">
        <ele>2017.5</ele>
        <time>2020-02-14T09:13:44.708Z</time>
      </trkpt>
      <trkpt lat="42.57044" lon="1.99321">
        <ele>2018.5</ele>
        <time>2020-02-14T09:13:45.050Z</time>
      </trkpt>
      <trkpt lat="42.57043" lon="1.99321">
        <ele>2018.5</ele>
        <time>2020-02-14T09:13:45.254Z</time>
      </trkpt>
      <trkpt lat="42.57043" lon="1.99321">
        <ele>2018.4</ele>
        <time>2020-02-14T09:13:45.324Z</time>
      </trkpt>
      <trkpt lat="42.57043" lon="1.99321">
        <ele>2018.5</ele>
        <time>2020-02-14T09:13:45.422Z</time>
      </trkpt>
      <trkpt lat="42.57042" lon="1.99322">
        <ele>2020.4</ele>
        <time>2020-02-14T09:13:46.257Z</time>
      </trkpt>
      <trkpt lat="42.57042" lon="1.99321">
        <ele>2019.4</ele>
        <time>2020-02-14T09:13:46.656Z</time>
      </trkpt>
      <trkpt lat="42.57041" lon="1.99321">
        <ele>2019.5</ele>
        <time>2020-02-14T09:13:46.968Z</time>
      </trkpt>
      <trkpt lat="42.57041" lon="1.99321">
        <ele>2019.4</ele>
        <time>2020-02-14T09:13:47.152Z</time>
      </trkpt>
      <trkpt lat="42.57041" lon="1.99321">
        <ele>2019.4</ele>
        <time>2020-02-14T09:13:47.394Z</time>
      </trkpt>
      <trkpt lat="42.57041" lon="1.99321">
        <ele>2019.5</ele>
        <time>2020-02-14T09:13:47.538Z</time>
      </trkpt>
      <trkpt lat="42.57041" lon="1.99321">
        <ele>2020</ele>
        <time>2020-02-14T09:13:47.738Z</time>
      </trkpt>
      <trkpt lat="42.5704" lon="1.99321">
        <ele>2020</ele>
        <time>2020-02-14T09:13:47.942Z</time>
      </trkpt>
      <trkpt lat="42.5704" lon="1.99321">
        <ele>2015.6</ele>
        <time>2020-02-14T09:13:49.466Z</time>
      </trkpt>
      <trkpt lat="42.5704" lon="1.99321">
        <ele>2020.9</ele>
        <time>2020-02-14T09:13:51.302Z</time>
      </trkpt>
      <trkpt lat="42.57038" lon="1.99316">
        <ele>2021.8</ele>
        <time>2020-02-14T09:13:53.095Z</time>
      </trkpt>
      <trkpt lat="42.57026" lon="1.9932">
        <ele>2023.7</ele>
        <time>2020-02-14T09:13:57.864Z</time>
      </trkpt>
      <trkpt lat="42.57021" lon="1.9933">
        <ele>2027.6</ele>
        <time>2020-02-14T09:14:01.577Z</time>
      </trkpt>
      <trkpt lat="42.57018" lon="1.99334">
        <ele>2023.7</ele>
        <time>2020-02-14T09:14:03.525Z</time>
      </trkpt>
      <trkpt lat="42.57017" lon="1.99336">
        <ele>2023.8</ele>
        <time>2020-02-14T09:14:04.173Z</time>
      </trkpt>
      <trkpt lat="42.57013" lon="1.9934">
        <ele>2020.5</ele>
        <time>2020-02-14T09:14:06.582Z</time>
      </trkpt>
      <trkpt lat="42.57012" lon="1.99341">
        <ele>2025.6</ele>
        <time>2020-02-14T09:14:08.424Z</time>
      </trkpt>
      <trkpt lat="42.57009" lon="1.99342">
        <ele>2024.3</ele>
        <time>2020-02-14T09:14:09.514Z</time>
      </trkpt>
      <trkpt lat="42.57005" lon="1.99344">
        <ele>2024.8</ele>
        <time>2020-02-14T09:14:11.079Z</time>
      </trkpt>
      <trkpt lat="42.56999" lon="1.99348">
        <ele>2024.7</ele>
        <time>2020-02-14T09:14:14.014Z</time>
      </trkpt>
      <trkpt lat="42.56996" lon="1.99349">
        <ele>2020.5</ele>
        <time>2020-02-14T09:14:15.967Z</time>
      </trkpt>
      <trkpt lat="42.5699" lon="1.99353">
        <ele>2026.1</ele>
        <time>2020-02-14T09:14:18.961Z</time>
      </trkpt>
      <trkpt lat="42.56985" lon="1.99356">
        <ele>2021.3</ele>
        <time>2020-02-14T09:14:21.837Z</time>
      </trkpt>
      <trkpt lat="42.56985" lon="1.99357">
        <ele>2025.6</ele>
        <time>2020-02-14T09:14:23.356Z</time>
      </trkpt>
      <trkpt lat="42.56983" lon="1.99365">
        <ele>2029.5</ele>
        <time>2020-02-14T09:14:26.022Z</time>
      </trkpt>
      <trkpt lat="42.56976" lon="1.99369">
        <ele>2028</ele>
        <time>2020-02-14T09:14:29.217Z</time>
      </trkpt>
      <trkpt lat="42.56964" lon="1.99379">
        <ele>2028.1</ele>
        <time>2020-02-14T09:14:34.547Z</time>
      </trkpt>
      <trkpt lat="42.56958" lon="1.99386">
        <ele>2026.7</ele>
        <time>2020-02-14T09:14:37.572Z</time>
      </trkpt>
      <trkpt lat="42.56955" lon="1.9939">
        <ele>2025.6</ele>
        <time>2020-02-14T09:14:39.245Z</time>
      </trkpt>
      <trkpt lat="42.5694" lon="1.99399">
        <ele>2023.2</ele>
        <time>2020-02-14T09:14:45.679Z</time>
      </trkpt>
      <trkpt lat="42.56926" lon="1.99399">
        <ele>2023.2</ele>
        <time>2020-02-14T09:14:51.161Z</time>
      </trkpt>
      <trkpt lat="42.56918" lon="1.99396">
        <ele>2022.8</ele>
        <time>2020-02-14T09:14:54.213Z</time>
      </trkpt>
      <trkpt lat="42.56915" lon="1.99398">
        <ele>2023.3</ele>
        <time>2020-02-14T09:14:55.398Z</time>
      </trkpt>
      <trkpt lat="42.56903" lon="1.99404">
        <ele>2023.7</ele>
        <time>2020-02-14T09:15:00.392Z</time>
      </trkpt>
      <trkpt lat="42.56895" lon="1.99411">
        <ele>2025.6</ele>
        <time>2020-02-14T09:15:04.078Z</time>
      </trkpt>
      <trkpt lat="42.56889" lon="1.99414">
        <ele>2027.7</ele>
        <time>2020-02-14T09:15:06.815Z</time>
      </trkpt>
      <trkpt lat="42.56884" lon="1.99424">
        <ele>2028.5</ele>
        <time>2020-02-14T09:15:10.059Z</time>
      </trkpt>
      <trkpt lat="42.56874" lon="1.99432">
        <ele>2028.6</ele>
        <time>2020-02-14T09:15:14.643Z</time>
      </trkpt>
      <trkpt lat="42.5687" lon="1.99437">
        <ele>2029.1</ele>
        <time>2020-02-14T09:15:16.694Z</time>
      </trkpt>
      <trkpt lat="42.56861" lon="1.9944">
        <ele>2029.5</ele>
        <time>2020-02-14T09:15:20.421Z</time>
      </trkpt>
      <trkpt lat="42.56848" lon="1.99444">
        <ele>2028</ele>
        <time>2020-02-14T09:15:25.403Z</time>
      </trkpt>
      <trkpt lat="42.56838" lon="1.99443">
        <ele>2027.6</ele>
        <time>2020-02-14T09:15:29.282Z</time>
      </trkpt>
      <trkpt lat="42.56826" lon="1.9944">
        <ele>2026.2</ele>
        <time>2020-02-14T09:15:34.146Z</time>
      </trkpt>
      <trkpt lat="42.56818" lon="1.99434">
        <ele>2023.8</ele>
        <time>2020-02-14T09:15:37.691Z</time>
      </trkpt>
      <trkpt lat="42.5681" lon="1.99428">
        <ele>2022.3</ele>
        <time>2020-02-14T09:15:41.280Z</time>
      </trkpt>
      <trkpt lat="42.56805" lon="1.99426">
        <ele>2021.3</ele>
        <time>2020-02-14T09:15:43.536Z</time>
      </trkpt>
      <trkpt lat="42.56797" lon="1.9942">
        <ele>2021.3</ele>
        <time>2020-02-14T09:15:47.049Z</time>
      </trkpt>
      <trkpt lat="42.56779" lon="1.99416">
        <ele>2021.3</ele>
        <time>2020-02-14T09:15:53.738Z</time>
      </trkpt>
      <trkpt lat="42.56767" lon="1.99415">
        <ele>2020.8</ele>
        <time>2020-02-14T09:15:58.667Z</time>
      </trkpt>
      <trkpt lat="42.56758" lon="1.99416">
        <ele>2021.8</ele>
        <time>2020-02-14T09:16:02.255Z</time>
      </trkpt>
      <trkpt lat="42.56753" lon="1.99418">
        <ele>2020.8</ele>
        <time>2020-02-14T09:16:04.078Z</time>
      </trkpt>
      <trkpt lat="42.56747" lon="1.99426">
        <ele>2020.8</ele>
        <time>2020-02-14T09:16:07.420Z</time>
      </trkpt>
      <trkpt lat="42.56742" lon="1.99441">
        <ele>2020</ele>
        <time>2020-02-14T09:16:12.169Z</time>
      </trkpt>
      <trkpt lat="42.56736" lon="1.99451">
        <ele>2020.5</ele>
        <time>2020-02-14T09:16:15.739Z</time>
      </trkpt>
      <trkpt lat="42.5673" lon="1.99459">
        <ele>2020.8</ele>
        <time>2020-02-14T09:16:19.151Z</time>
      </trkpt>
      <trkpt lat="42.56725" lon="1.99471">
        <ele>2020.8</ele>
        <time>2020-02-14T09:16:23.041Z</time>
      </trkpt>
      <trkpt lat="42.56716" lon="1.99478">
        <ele>2019.9</ele>
        <time>2020-02-14T09:16:26.977Z</time>
      </trkpt>
      <trkpt lat="42.56711" lon="1.99475">
        <ele>2020.9</ele>
        <time>2020-02-14T09:16:29.114Z</time>
      </trkpt>
      <trkpt lat="42.56702" lon="1.99465">
        <ele>2021.3</ele>
        <time>2020-02-14T09:16:33.508Z</time>
      </trkpt>
      <trkpt lat="42.56698" lon="1.99458">
        <ele>2021.3</ele>
        <time>2020-02-14T09:16:36.202Z</time>
      </trkpt>
      <trkpt lat="42.56695" lon="1.99457">
        <ele>2021.3</ele>
        <time>2020-02-14T09:16:37.363Z</time>
      </trkpt>
      <trkpt lat="42.56684" lon="1.99458">
        <ele>2021.9</ele>
        <time>2020-02-14T09:16:41.507Z</time>
      </trkpt>
      <trkpt lat="42.56674" lon="1.99466">
        <ele>2021.8</ele>
        <time>2020-02-14T09:16:46.154Z</time>
      </trkpt>
      <trkpt lat="42.56665" lon="1.99471">
        <ele>2022.8</ele>
        <time>2020-02-14T09:16:49.699Z</time>
      </trkpt>
      <trkpt lat="42.56659" lon="1.9948">
        <ele>2021.9</ele>
        <time>2020-02-14T09:16:53.374Z</time>
      </trkpt>
      <trkpt lat="42.56655" lon="1.99497">
        <ele>2021.3</ele>
        <time>2020-02-14T09:16:58.303Z</time>
      </trkpt>
      <trkpt lat="42.56652" lon="1.99509">
        <ele>2019.4</ele>
        <time>2020-02-14T09:17:02.136Z</time>
      </trkpt>
      <trkpt lat="42.56651" lon="1.9952">
        <ele>2018.9</ele>
        <time>2020-02-14T09:17:05.160Z</time>
      </trkpt>
      <trkpt lat="42.56643" lon="1.99532">
        <ele>2019.5</ele>
        <time>2020-02-14T09:17:09.693Z</time>
      </trkpt>
      <trkpt lat="42.56636" lon="1.9954">
        <ele>2020.4</ele>
        <time>2020-02-14T09:17:13.349Z</time>
      </trkpt>
      <trkpt lat="42.56633" lon="1.99541">
        <ele>2020.5</ele>
        <time>2020-02-14T09:17:14.591Z</time>
      </trkpt>
      <trkpt lat="42.5662" lon="1.99543">
        <ele>2021.9</ele>
        <time>2020-02-14T09:17:19.593Z</time>
      </trkpt>
      <trkpt lat="42.56605" lon="1.99548">
        <ele>2021.4</ele>
        <time>2020-02-14T09:17:25.688Z</time>
      </trkpt>
      <trkpt lat="42.56595" lon="1.9955">
        <ele>2021.8</ele>
        <time>2020-02-14T09:17:29.708Z</time>
      </trkpt>
      <trkpt lat="42.56581" lon="1.99553">
        <ele>2022.4</ele>
        <time>2020-02-14T09:17:35.187Z</time>
      </trkpt>
      <trkpt lat="42.5657" lon="1.9955">
        <ele>2021.4</ele>
        <time>2020-02-14T09:17:39.364Z</time>
      </trkpt>
      <trkpt lat="42.56561" lon="1.9955">
        <ele>2020.8</ele>
        <time>2020-02-14T09:17:42.736Z</time>
      </trkpt>
      <trkpt lat="42.56555" lon="1.99553">
        <ele>2020.4</ele>
        <time>2020-02-14T09:17:45.261Z</time>
      </trkpt>
      <trkpt lat="42.56548" lon="1.99562">
        <ele>2019.4</ele>
        <time>2020-02-14T09:17:48.861Z</time>
      </trkpt>
      <trkpt lat="42.56543" lon="1.9956">
        <ele>2017.5</ele>
        <time>2020-02-14T09:17:51.128Z</time>
      </trkpt>
      <trkpt lat="42.56541" lon="1.99561">
        <ele>2017.6</ele>
        <time>2020-02-14T09:17:51.893Z</time>
      </trkpt>
      <trkpt lat="42.5654" lon="1.99561">
        <ele>2017</ele>
        <time>2020-02-14T09:17:52.441Z</time>
      </trkpt>
      <trkpt lat="42.56529" lon="1.99553">
        <ele>2016.6</ele>
        <time>2020-02-14T09:17:56.993Z</time>
      </trkpt>
      <trkpt lat="42.56518" lon="1.99549">
        <ele>2017.1</ele>
        <time>2020-02-14T09:18:01.623Z</time>
      </trkpt>
      <trkpt lat="42.56509" lon="1.99553">
        <ele>2019</ele>
        <time>2020-02-14T09:18:05.184Z</time>
      </trkpt>
      <trkpt lat="42.56502" lon="1.99553">
        <ele>2020.4</ele>
        <time>2020-02-14T09:18:07.821Z</time>
      </trkpt>
      <trkpt lat="42.56497" lon="1.99556">
        <ele>2021.4</ele>
        <time>2020-02-14T09:18:10.268Z</time>
      </trkpt>
      <trkpt lat="42.56479" lon="1.99556">
        <ele>2020.8</ele>
        <time>2020-02-14T09:18:17.138Z</time>
      </trkpt>
      <trkpt lat="42.56475" lon="1.99555">
        <ele>2020.4</ele>
        <time>2020-02-14T09:18:18.581Z</time>
      </trkpt>
      <trkpt lat="42.56461" lon="1.99551">
        <ele>2019.4</ele>
        <time>2020-02-14T09:18:24.172Z</time>
      </trkpt>
      <trkpt lat="42.56446" lon="1.99534">
        <ele>2019.9</ele>
        <time>2020-02-14T09:18:31.837Z</time>
      </trkpt>
      <trkpt lat="42.56435" lon="1.9953">
        <ele>2020.5</ele>
        <time>2020-02-14T09:18:36.071Z</time>
      </trkpt>
      <trkpt lat="42.5643" lon="1.99524">
        <ele>2023.3</ele>
        <time>2020-02-14T09:18:38.871Z</time>
      </trkpt>
      <trkpt lat="42.56424" lon="1.99526">
        <ele>2024.2</ele>
        <time>2020-02-14T09:18:41.130Z</time>
      </trkpt>
      <trkpt lat="42.56418" lon="1.99532">
        <ele>2026.7</ele>
        <time>2020-02-14T09:18:44.377Z</time>
      </trkpt>
      <trkpt lat="42.56413" lon="1.99534">
        <ele>2029.6</ele>
        <time>2020-02-14T09:18:46.422Z</time>
      </trkpt>
      <trkpt lat="42.56407" lon="1.99547">
        <ele>2030.5</ele>
        <time>2020-02-14T09:18:50.990Z</time>
      </trkpt>
      <trkpt lat="42.56402" lon="1.99558">
        <ele>2031</ele>
        <time>2020-02-14T09:18:54.413Z</time>
      </trkpt>
      <trkpt lat="42.56399" lon="1.99567">
        <ele>2029</ele>
        <time>2020-02-14T09:18:57.443Z</time>
      </trkpt>
      <trkpt lat="42.56389" lon="1.99582">
        <ele>2028</ele>
        <time>2020-02-14T09:19:03.139Z</time>
      </trkpt>
      <trkpt lat="42.56385" lon="1.99586">
        <ele>2026.1</ele>
        <time>2020-02-14T09:19:05.263Z</time>
      </trkpt>
      <trkpt lat="42.56377" lon="1.99598">
        <ele>2025.6</ele>
        <time>2020-02-14T09:19:09.877Z</time>
      </trkpt>
      <trkpt lat="42.56367" lon="1.99613">
        <ele>2022.9</ele>
        <time>2020-02-14T09:19:15.462Z</time>
      </trkpt>
      <trkpt lat="42.5636" lon="1.9962">
        <ele>2021.8</ele>
        <time>2020-02-14T09:19:19.042Z</time>
      </trkpt>
      <trkpt lat="42.56348" lon="1.99631">
        <ele>2020.4</ele>
        <time>2020-02-14T09:19:24.559Z</time>
      </trkpt>
      <trkpt lat="42.56339" lon="1.99631">
        <ele>2020.8</ele>
        <time>2020-02-14T09:19:28.042Z</time>
      </trkpt>
      <trkpt lat="42.56331" lon="1.99635">
        <ele>2020.5</ele>
        <time>2020-02-14T09:19:31.316Z</time>
      </trkpt>
      <trkpt lat="42.56324" lon="1.99642">
        <ele>2020.5</ele>
        <time>2020-02-14T09:19:34.729Z</time>
      </trkpt>
      <trkpt lat="42.56315" lon="1.99649">
        <ele>2020</ele>
        <time>2020-02-14T09:19:38.876Z</time>
      </trkpt>
      <trkpt lat="42.56301" lon="1.99658">
        <ele>2019</ele>
        <time>2020-02-14T09:19:44.659Z</time>
      </trkpt>
      <trkpt lat="42.56295" lon="1.99664">
        <ele>2018.4</ele>
        <time>2020-02-14T09:19:47.727Z</time>
      </trkpt>
      <trkpt lat="42.56284" lon="1.9966">
        <ele>2019.4</ele>
        <time>2020-02-14T09:19:51.874Z</time>
      </trkpt>
      <trkpt lat="42.56279" lon="1.9966">
        <ele>2018.9</ele>
        <time>2020-02-14T09:19:53.751Z</time>
      </trkpt>
      <trkpt lat="42.56268" lon="1.99664">
        <ele>2017.5</ele>
        <time>2020-02-14T09:19:58.465Z</time>
      </trkpt>
      <trkpt lat="42.56265" lon="1.99671">
        <ele>2016.6</ele>
        <time>2020-02-14T09:20:00.833Z</time>
      </trkpt>
      <trkpt lat="42.56255" lon="1.99674">
        <ele>2016</ele>
        <time>2020-02-14T09:20:04.924Z</time>
      </trkpt>
      <trkpt lat="42.56243" lon="1.99684">
        <ele>2015.5</ele>
        <time>2020-02-14T09:20:10.200Z</time>
      </trkpt>
      <trkpt lat="42.56234" lon="1.99688">
        <ele>2018</ele>
        <time>2020-02-14T09:20:13.875Z</time>
      </trkpt>
      <trkpt lat="42.56224" lon="1.99689">
        <ele>2018.9</ele>
        <time>2020-02-14T09:20:17.813Z</time>
      </trkpt>
      <trkpt lat="42.56221" lon="1.9969">
        <ele>2018.5</ele>
        <time>2020-02-14T09:20:18.893Z</time>
      </trkpt>
      <trkpt lat="42.56209" lon="1.99694">
        <ele>2019.4</ele>
        <time>2020-02-14T09:20:24.028Z</time>
      </trkpt>
      <trkpt lat="42.56206" lon="1.99704">
        <ele>2018.4</ele>
        <time>2020-02-14T09:20:26.892Z</time>
      </trkpt>
      <trkpt lat="42.56203" lon="1.99704">
        <ele>2017.9</ele>
        <time>2020-02-14T09:20:27.852Z</time>
      </trkpt>
      <trkpt lat="42.56193" lon="1.99709">
        <ele>2019.4</ele>
        <time>2020-02-14T09:20:32.206Z</time>
      </trkpt>
      <trkpt lat="42.56182" lon="1.99709">
        <ele>2018.9</ele>
        <time>2020-02-14T09:20:36.538Z</time>
      </trkpt>
      <trkpt lat="42.56178" lon="1.99711">
        <ele>2018.5</ele>
        <time>2020-02-14T09:20:38.130Z</time>
      </trkpt>
      <trkpt lat="42.5617" lon="1.99718">
        <ele>2018</ele>
        <time>2020-02-14T09:20:41.678Z</time>
      </trkpt>
      <trkpt lat="42.56168" lon="1.99721">
        <ele>2017.9</ele>
        <time>2020-02-14T09:20:42.841Z</time>
      </trkpt>
      <trkpt lat="42.56167" lon="1.99723">
        <ele>2018.4</ele>
        <time>2020-02-14T09:20:43.718Z</time>
      </trkpt>
      <trkpt lat="42.56165" lon="1.99727">
        <ele>2015.2</ele>
        <time>2020-02-14T09:20:45.524Z</time>
      </trkpt>
      <trkpt lat="42.56161" lon="1.99727">
        <ele>2018.4</ele>
        <time>2020-02-14T09:20:47.344Z</time>
      </trkpt>
      <trkpt lat="42.56154" lon="1.99728">
        <ele>2018.5</ele>
        <time>2020-02-14T09:20:49.935Z</time>
      </trkpt>
      <trkpt lat="42.56148" lon="1.99729">
        <ele>2018.4</ele>
        <time>2020-02-14T09:20:52.498Z</time>
      </trkpt>
      <trkpt lat="42.56135" lon="1.99734">
        <ele>2017.9</ele>
        <time>2020-02-14T09:20:57.592Z</time>
      </trkpt>
      <trkpt lat="42.56127" lon="1.99738">
        <ele>2017.1</ele>
        <time>2020-02-14T09:21:00.771Z</time>
      </trkpt>
      <trkpt lat="42.56119" lon="1.99747">
        <ele>2017.1</ele>
        <time>2020-02-14T09:21:04.859Z</time>
      </trkpt>
      <trkpt lat="42.56118" lon="1.99747">
        <ele>2017.6</ele>
        <time>2020-02-14T09:21:05.130Z</time>
      </trkpt>
      <trkpt lat="42.56106" lon="1.99752">
        <ele>2019.4</ele>
        <time>2020-02-14T09:21:10.028Z</time>
      </trkpt>
      <trkpt lat="42.56092" lon="1.99757">
        <ele>2020</ele>
        <time>2020-02-14T09:21:15.554Z</time>
      </trkpt>
      <trkpt lat="42.56083" lon="1.99756">
        <ele>2019.5</ele>
        <time>2020-02-14T09:21:19.153Z</time>
      </trkpt>
      <trkpt lat="42.56079" lon="1.99765">
        <ele>2017.9</ele>
        <time>2020-02-14T09:21:22.218Z</time>
      </trkpt>
      <trkpt lat="42.56079" lon="1.99766">
        <ele>2017.5</ele>
        <time>2020-02-14T09:21:22.530Z</time>
      </trkpt>
      <trkpt lat="42.56076" lon="1.9977">
        <ele>2017.5</ele>
        <time>2020-02-14T09:21:23.911Z</time>
      </trkpt>
      <trkpt lat="42.56069" lon="1.99775">
        <ele>2017</ele>
        <time>2020-02-14T09:21:27.234Z</time>
      </trkpt>
      <trkpt lat="42.56059" lon="1.99779">
        <ele>2017.5</ele>
        <time>2020-02-14T09:21:31.259Z</time>
      </trkpt>
      <trkpt lat="42.56052" lon="1.99779">
        <ele>2018.5</ele>
        <time>2020-02-14T09:21:33.798Z</time>
      </trkpt>
      <trkpt lat="42.56051" lon="1.99777">
        <ele>2018.4</ele>
        <time>2020-02-14T09:21:34.606Z</time>
      </trkpt>
      <trkpt lat="42.56044" lon="1.99772">
        <ele>2019.9</ele>
        <time>2020-02-14T09:21:37.625Z</time>
      </trkpt>
      <trkpt lat="42.56042" lon="1.99768">
        <ele>2019.9</ele>
        <time>2020-02-14T09:21:39.166Z</time>
      </trkpt>
      <trkpt lat="42.56042" lon="1.99763">
        <ele>2020.4</ele>
        <time>2020-02-14T09:21:40.408Z</time>
      </trkpt>
      <trkpt lat="42.56042" lon="1.99752">
        <ele>2021.4</ele>
        <time>2020-02-14T09:21:43.612Z</time>
      </trkpt>
      <trkpt lat="42.56041" lon="1.9974">
        <ele>2023.2</ele>
        <time>2020-02-14T09:21:47.306Z</time>
      </trkpt>
      <trkpt lat="42.56045" lon="1.99732">
        <ele>2025.6</ele>
        <time>2020-02-14T09:21:49.948Z</time>
      </trkpt>
      <trkpt lat="42.56045" lon="1.99722">
        <ele>2027.1</ele>
        <time>2020-02-14T09:21:52.842Z</time>
      </trkpt>
      <trkpt lat="42.56039" lon="1.99711">
        <ele>2027.6</ele>
        <time>2020-02-14T09:21:56.873Z</time>
      </trkpt>
      <trkpt lat="42.56035" lon="1.99699">
        <ele>2029.5</ele>
        <time>2020-02-14T09:22:00.459Z</time>
      </trkpt>
      <trkpt lat="42.56037" lon="1.99693">
        <ele>2024.8</ele>
        <time>2020-02-14T09:22:02.878Z</time>
      </trkpt>
      <trkpt lat="42.56037" lon="1.99693">
        <ele>2027.1</ele>
        <time>2020-02-14T09:22:03.687Z</time>
      </trkpt>
      <trkpt lat="42.56037" lon="1.99693">
        <ele>2031</ele>
        <time>2020-02-14T09:22:05.024Z</time>
      </trkpt>
      <trkpt lat="42.56037" lon="1.99693">
        <ele>2030.5</ele>
        <time>2020-02-14T09:22:05.200Z</time>
      </trkpt>
      <trkpt lat="42.56037" lon="1.99693">
        <ele>2034.9</ele>
        <time>2020-02-14T09:22:06.727Z</time>
      </trkpt>
      <trkpt lat="42.56037" lon="1.99693">
        <ele>2032.5</ele>
        <time>2020-02-14T09:22:07.552Z</time>
      </trkpt>
      <trkpt lat="42.56037" lon="1.99693">
        <ele>2023.8</ele>
        <time>2020-02-14T09:22:10.576Z</time>
      </trkpt>
      <trkpt lat="42.56037" lon="1.99693">
        <ele>2028.1</ele>
        <time>2020-02-14T09:22:12.068Z</time>
      </trkpt>
      <trkpt lat="42.56037" lon="1.99693">
        <ele>2033.8</ele>
        <time>2020-02-14T09:22:14.073Z</time>
      </trkpt>
      <trkpt lat="42.56037" lon="1.99693">
        <ele>2021.3</ele>
        <time>2020-02-14T09:22:18.418Z</time>
      </trkpt>
      <trkpt lat="42.56037" lon="1.99693">
        <ele>2021.8</ele>
        <time>2020-02-14T09:22:18.586Z</time>
      </trkpt>
      <trkpt lat="42.56037" lon="1.99693">
        <ele>2025.7</ele>
        <time>2020-02-14T09:22:19.937Z</time>
      </trkpt>
      <trkpt lat="42.56037" lon="1.99693">
        <ele>2031.5</ele>
        <time>2020-02-14T09:22:21.942Z</time>
      </trkpt>
      <trkpt lat="42.56037" lon="1.99693">
        <ele>2030</ele>
        <time>2020-02-14T09:22:22.443Z</time>
      </trkpt>
      <trkpt lat="42.56037" lon="1.99693">
        <ele>2031.5</ele>
        <time>2020-02-14T09:22:22.948Z</time>
      </trkpt>
      <trkpt lat="42.56037" lon="1.99693">
        <ele>2025.2</ele>
        <time>2020-02-14T09:22:25.118Z</time>
      </trkpt>
      <trkpt lat="42.56037" lon="1.99693">
        <ele>2031</ele>
        <time>2020-02-14T09:22:27.114Z</time>
      </trkpt>
      <trkpt lat="42.56037" lon="1.99693">
        <ele>2030</ele>
        <time>2020-02-14T09:22:27.445Z</time>
      </trkpt>
      <trkpt lat="42.56037" lon="1.99693">
        <ele>2026.7</ele>
        <time>2020-02-14T09:22:28.614Z</time>
      </trkpt>
      <trkpt lat="42.56037" lon="1.99693">
        <ele>2031</ele>
        <time>2020-02-14T09:22:30.109Z</time>
      </trkpt>
      <trkpt lat="42.56037" lon="1.99693">
        <ele>2024.2</ele>
        <time>2020-02-14T09:22:32.450Z</time>
      </trkpt>
      <trkpt lat="42.56037" lon="1.99693">
        <ele>2031.9</ele>
        <time>2020-02-14T09:22:35.121Z</time>
      </trkpt>
      <trkpt lat="42.56037" lon="1.99693">
        <ele>2035.7</ele>
        <time>2020-02-14T09:22:36.448Z</time>
      </trkpt>
      <trkpt lat="42.5589" lon="2.00346">
        <ele>1996.9</ele>
        <time>2020-02-14T09:25:51.065Z</time>
      </trkpt>
      <trkpt lat="42.5589" lon="2.00346">
        <ele>1996.9</ele>
        <time>2020-02-14T09:25:51.065Z</time>
      </trkpt>
      <trkpt lat="42.5589" lon="2.00346">
        <ele>2010.3</ele>
        <time>2020-02-14T09:25:55.747Z</time>
      </trkpt>
      <trkpt lat="42.5589" lon="2.00346">
        <ele>2005.5</ele>
        <time>2020-02-14T09:25:57.412Z</time>
      </trkpt>
      <trkpt lat="42.5589" lon="2.00346">
        <ele>2005.6</ele>
        <time>2020-02-14T09:25:57.426Z</time>
      </trkpt>
      <trkpt lat="42.5589" lon="2.00337">
        <ele>2006</ele>
        <time>2020-02-14T09:25:59.989Z</time>
      </trkpt>
      <trkpt lat="42.55894" lon="2.0032">
        <ele>2005.5</ele>
        <time>2020-02-14T09:26:05.032Z</time>
      </trkpt>
      <trkpt lat="42.55899" lon="2.0031">
        <ele>2005</ele>
        <time>2020-02-14T09:26:08.452Z</time>
      </trkpt>
      <trkpt lat="42.55914" lon="2.00312">
        <ele>2005.5</ele>
        <time>2020-02-14T09:26:14.186Z</time>
      </trkpt>
      <trkpt lat="42.55926" lon="2.00321">
        <ele>2006.4</ele>
        <time>2020-02-14T09:26:19.503Z</time>
      </trkpt>
      <trkpt lat="42.55926" lon="2.00321">
        <ele>2006.9</ele>
        <time>2020-02-14T09:26:19.690Z</time>
      </trkpt>
      <trkpt lat="42.55931" lon="2.00325">
        <ele>2006.9</ele>
        <time>2020-02-14T09:26:21.993Z</time>
      </trkpt>
      <trkpt lat="42.55947" lon="2.00344">
        <ele>2007.5</ele>
        <time>2020-02-14T09:26:30.135Z</time>
      </trkpt>
      <trkpt lat="42.55958" lon="2.00359">
        <ele>2008.4</ele>
        <time>2020-02-14T09:26:36.184Z</time>
      </trkpt>
      <trkpt lat="42.5596" lon="2.00362">
        <ele>2008.4</ele>
        <time>2020-02-14T09:26:37.402Z</time>
      </trkpt>
      <trkpt lat="42.55967" lon="2.00375">
        <ele>2009.3</ele>
        <time>2020-02-14T09:26:42.081Z</time>
      </trkpt>
      <trkpt lat="42.55974" lon="2.00377">
        <ele>2009.9</ele>
        <time>2020-02-14T09:26:44.913Z</time>
      </trkpt>
      <trkpt lat="42.55992" lon="2.00375">
        <ele>2011.2</ele>
        <time>2020-02-14T09:26:51.578Z</time>
      </trkpt>
      <trkpt lat="42.55999" lon="2.00373">
        <ele>2011.2</ele>
        <time>2020-02-14T09:26:54.564Z</time>
      </trkpt>
      <trkpt lat="42.56004" lon="2.00369">
        <ele>2012.2</ele>
        <time>2020-02-14T09:26:56.845Z</time>
      </trkpt>
      <trkpt lat="42.56007" lon="2.00361">
        <ele>2011.7</ele>
        <time>2020-02-14T09:26:59.427Z</time>
      </trkpt>
      <trkpt lat="42.56008" lon="2.00357">
        <ele>2011.7</ele>
        <time>2020-02-14T09:27:00.751Z</time>
      </trkpt>
      <trkpt lat="42.5601" lon="2.00354">
        <ele>2011.7</ele>
        <time>2020-02-14T09:27:01.622Z</time>
      </trkpt>
      <trkpt lat="42.56015" lon="2.00342">
        <ele>2011.7</ele>
        <time>2020-02-14T09:27:05.677Z</time>
      </trkpt>
      <trkpt lat="42.56029" lon="2.00335">
        <ele>2011.8</ele>
        <time>2020-02-14T09:27:11.167Z</time>
      </trkpt>
      <trkpt lat="42.56043" lon="2.00327">
        <ele>2013.1</ele>
        <time>2020-02-14T09:27:17.110Z</time>
      </trkpt>
      <trkpt lat="42.56046" lon="2.00323">
        <ele>2013.1</ele>
        <time>2020-02-14T09:27:18.653Z</time>
      </trkpt>
      <trkpt lat="42.56044" lon="2.00301">
        <ele>2013.6</ele>
        <time>2020-02-14T09:27:24.851Z</time>
      </trkpt>
      <trkpt lat="42.56039" lon="2.00272">
        <ele>2014.2</ele>
        <time>2020-02-14T09:27:33.488Z</time>
      </trkpt>
      <trkpt lat="42.56033" lon="2.00242">
        <ele>2014.2</ele>
        <time>2020-02-14T09:27:42.388Z</time>
      </trkpt>
      <trkpt lat="42.56029" lon="2.00212">
        <ele>2014.1</ele>
        <time>2020-02-14T09:27:50.869Z</time>
      </trkpt>
      <trkpt lat="42.56024" lon="2.00182">
        <ele>2014.1</ele>
        <time>2020-02-14T09:27:59.699Z</time>
      </trkpt>
      <trkpt lat="42.56019" lon="2.00154">
        <ele>2014.2</ele>
        <time>2020-02-14T09:28:07.963Z</time>
      </trkpt>
      <trkpt lat="42.56014" lon="2.00123">
        <ele>2013.6</ele>
        <time>2020-02-14T09:28:17.050Z</time>
      </trkpt>
      <trkpt lat="42.56009" lon="2.00092">
        <ele>2014.1</ele>
        <time>2020-02-14T09:28:25.934Z</time>
      </trkpt>
      <trkpt lat="42.56004" lon="2.00065">
        <ele>2014.1</ele>
        <time>2020-02-14T09:28:33.878Z</time>
      </trkpt>
      <trkpt lat="42.56001" lon="2.00042">
        <ele>2013.6</ele>
        <time>2020-02-14T09:28:40.516Z</time>
      </trkpt>
      <trkpt lat="42.55995" lon="2.00011">
        <ele>2014.1</ele>
        <time>2020-02-14T09:28:49.586Z</time>
      </trkpt>
      <trkpt lat="42.55989" lon="1.99975">
        <ele>2014.1</ele>
        <time>2020-02-14T09:29:00.019Z</time>
      </trkpt>
      <trkpt lat="42.55984" lon="1.99949">
        <ele>2014.2</ele>
        <time>2020-02-14T09:29:07.733Z</time>
      </trkpt>
      <trkpt lat="42.55979" lon="1.99919">
        <ele>2013.6</ele>
        <time>2020-02-14T09:29:16.500Z</time>
      </trkpt>
      <trkpt lat="42.55975" lon="1.99904">
        <ele>2013.6</ele>
        <time>2020-02-14T09:29:21.141Z</time>
      </trkpt>
      <trkpt lat="42.55973" lon="1.99878">
        <ele>2014.6</ele>
        <time>2020-02-14T09:29:28.440Z</time>
      </trkpt>
      <trkpt lat="42.55974" lon="1.99862">
        <ele>2015.6</ele>
        <time>2020-02-14T09:29:33.018Z</time>
      </trkpt>
      <trkpt lat="42.55973" lon="1.99862">
        <ele>2015.5</ele>
        <time>2020-02-14T09:29:33.439Z</time>
      </trkpt>
      <trkpt lat="42.55977" lon="1.99844">
        <ele>2015.6</ele>
        <time>2020-02-14T09:29:38.845Z</time>
      </trkpt>
      <trkpt lat="42.5598" lon="1.99825">
        <ele>2015.2</ele>
        <time>2020-02-14T09:29:44.579Z</time>
      </trkpt>
      <trkpt lat="42.55984" lon="1.99813">
        <ele>2016</ele>
        <time>2020-02-14T09:29:48.355Z</time>
      </trkpt>
      <trkpt lat="42.55983" lon="1.99796">
        <ele>2017.1</ele>
        <time>2020-02-14T09:29:53.091Z</time>
      </trkpt>
      <trkpt lat="42.55982" lon="1.99782">
        <ele>2018.4</ele>
        <time>2020-02-14T09:29:57.002Z</time>
      </trkpt>
      <trkpt lat="42.55987" lon="1.99768">
        <ele>2019.5</ele>
        <time>2020-02-14T09:30:01.589Z</time>
      </trkpt>
      <trkpt lat="42.55985" lon="1.99758">
        <ele>2021.3</ele>
        <time>2020-02-14T09:30:04.594Z</time>
      </trkpt>
      <trkpt lat="42.55986" lon="1.99749">
        <ele>2021.8</ele>
        <time>2020-02-14T09:30:07.084Z</time>
      </trkpt>
      <trkpt lat="42.55983" lon="1.99731">
        <ele>2023.7</ele>
        <time>2020-02-14T09:30:12.482Z</time>
      </trkpt>
      <trkpt lat="42.55983" lon="1.99726">
        <ele>2024.2</ele>
        <time>2020-02-14T09:30:13.928Z</time>
      </trkpt>
      <trkpt lat="42.55977" lon="1.99703">
        <ele>2024.2</ele>
        <time>2020-02-14T09:30:20.641Z</time>
      </trkpt>
      <trkpt lat="42.55973" lon="1.99683">
        <ele>2025.2</ele>
        <time>2020-02-14T09:30:26.590Z</time>
      </trkpt>
      <trkpt lat="42.55978" lon="1.9966">
        <ele>2025.3</ele>
        <time>2020-02-14T09:30:33.423Z</time>
      </trkpt>
      <trkpt lat="42.55985" lon="1.99646">
        <ele>2025.6</ele>
        <time>2020-02-14T09:30:38.140Z</time>
      </trkpt>
      <trkpt lat="42.55987" lon="1.99643">
        <ele>2025.3</ele>
        <time>2020-02-14T09:30:39.262Z</time>
      </trkpt>
      <trkpt lat="42.55996" lon="1.99628">
        <ele>2026.7</ele>
        <time>2020-02-14T09:30:44.902Z</time>
      </trkpt>
      <trkpt lat="42.55998" lon="1.99622">
        <ele>2027.1</ele>
        <time>2020-02-14T09:30:46.762Z</time>
      </trkpt>
      <trkpt lat="42.55996" lon="1.99611">
        <ele>2028.1</ele>
        <time>2020-02-14T09:30:49.893Z</time>
      </trkpt>
      <trkpt lat="42.55999" lon="1.996">
        <ele>2030</ele>
        <time>2020-02-14T09:30:53.270Z</time>
      </trkpt>
      <trkpt lat="42.56005" lon="1.9959">
        <ele>2031.9</ele>
        <time>2020-02-14T09:30:57.043Z</time>
      </trkpt>
      <trkpt lat="42.56006" lon="1.9958">
        <ele>2032.5</ele>
        <time>2020-02-14T09:30:59.766Z</time>
      </trkpt>
      <trkpt lat="42.56009" lon="1.99572">
        <ele>2033.4</ele>
        <time>2020-02-14T09:31:02.541Z</time>
      </trkpt>
      <trkpt lat="42.56011" lon="1.99566">
        <ele>2033.8</ele>
        <time>2020-02-14T09:31:04.231Z</time>
      </trkpt>
      <trkpt lat="42.5601" lon="1.9956">
        <ele>2033.8</ele>
        <time>2020-02-14T09:31:06.100Z</time>
      </trkpt>
      <trkpt lat="42.56014" lon="1.99544">
        <ele>2034.4</ele>
        <time>2020-02-14T09:31:10.757Z</time>
      </trkpt>
      <trkpt lat="42.56014" lon="1.99531">
        <ele>2035.4</ele>
        <time>2020-02-14T09:31:14.568Z</time>
      </trkpt>
      <trkpt lat="42.56016" lon="1.99522">
        <ele>2036.8</ele>
        <time>2020-02-14T09:31:17.327Z</time>
      </trkpt>
      <trkpt lat="42.56021" lon="1.99513">
        <ele>2038.7</ele>
        <time>2020-02-14T09:31:20.514Z</time>
      </trkpt>
      <trkpt lat="42.56025" lon="1.99501">
        <ele>2040.1</ele>
        <time>2020-02-14T09:31:24.192Z</time>
      </trkpt>
      <trkpt lat="42.56027" lon="1.995">
        <ele>2039.6</ele>
        <time>2020-02-14T09:31:25.027Z</time>
      </trkpt>
      <trkpt lat="42.56027" lon="1.995">
        <ele>2044.9</ele>
        <time>2020-02-14T09:31:26.864Z</time>
      </trkpt>
      <trkpt lat="42.56027" lon="1.995">
        <ele>2036.8</ele>
        <time>2020-02-14T09:31:29.687Z</time>
      </trkpt>
      <trkpt lat="42.56027" lon="1.995">
        <ele>2040.2</ele>
        <time>2020-02-14T09:31:30.859Z</time>
      </trkpt>
      <trkpt lat="42.56028" lon="1.99493">
        <ele>2041.6</ele>
        <time>2020-02-14T09:31:32.807Z</time>
      </trkpt>
      <trkpt lat="42.56027" lon="1.9949">
        <ele>2041.6</ele>
        <time>2020-02-14T09:31:33.821Z</time>
      </trkpt>
      <trkpt lat="42.56029" lon="1.99478">
        <ele>2043</ele>
        <time>2020-02-14T09:31:37.206Z</time>
      </trkpt>
      <trkpt lat="42.56031" lon="1.99474">
        <ele>2043.9</ele>
        <time>2020-02-14T09:31:38.644Z</time>
      </trkpt>
      <trkpt lat="42.56035" lon="1.99463">
        <ele>2045.9</ele>
        <time>2020-02-14T09:31:42.436Z</time>
      </trkpt>
      <trkpt lat="42.56035" lon="1.9946">
        <ele>2046.8</ele>
        <time>2020-02-14T09:31:43.442Z</time>
      </trkpt>
      <trkpt lat="42.56038" lon="1.99445">
        <ele>2050.2</ele>
        <time>2020-02-14T09:31:47.950Z</time>
      </trkpt>
      <trkpt lat="42.56035" lon="1.99441">
        <ele>2053</ele>
        <time>2020-02-14T09:31:49.846Z</time>
      </trkpt>
      <trkpt lat="42.56034" lon="1.99426">
        <ele>2055</ele>
        <time>2020-02-14T09:31:53.959Z</time>
      </trkpt>
      <trkpt lat="42.56029" lon="1.99419">
        <ele>2056</ele>
        <time>2020-02-14T09:31:56.891Z</time>
      </trkpt>
      <trkpt lat="42.56029" lon="1.99411">
        <ele>2059.3</ele>
        <time>2020-02-14T09:31:59.522Z</time>
      </trkpt>
      <trkpt lat="42.56024" lon="1.99402">
        <ele>2060.8</ele>
        <time>2020-02-14T09:32:02.744Z</time>
      </trkpt>
      <trkpt lat="42.56021" lon="1.994">
        <ele>2060.3</ele>
        <time>2020-02-14T09:32:03.802Z</time>
      </trkpt>
      <trkpt lat="42.5602" lon="1.99398">
        <ele>2059.9</ele>
        <time>2020-02-14T09:32:04.534Z</time>
      </trkpt>
      <trkpt lat="42.5602" lon="1.99398">
        <ele>2059.4</ele>
        <time>2020-02-14T09:32:04.806Z</time>
      </trkpt>
      <trkpt lat="42.56018" lon="1.99397">
        <ele>2058.9</ele>
        <time>2020-02-14T09:32:05.459Z</time>
      </trkpt>
      <trkpt lat="42.56017" lon="1.99397">
        <ele>2053</ele>
        <time>2020-02-14T09:32:07.515Z</time>
      </trkpt>
      <trkpt lat="42.56017" lon="1.99397">
        <ele>2058.3</ele>
        <time>2020-02-14T09:32:09.363Z</time>
      </trkpt>
      <trkpt lat="42.56017" lon="1.99397">
        <ele>2064.1</ele>
        <time>2020-02-14T09:32:11.375Z</time>
      </trkpt>
      <trkpt lat="42.56017" lon="1.99397">
        <ele>2060.2</ele>
        <time>2020-02-14T09:32:12.732Z</time>
      </trkpt>
      <trkpt lat="42.56014" lon="1.99396">
        <ele>2059.9</ele>
        <time>2020-02-14T09:32:13.667Z</time>
      </trkpt>
      <trkpt lat="42.56015" lon="1.99387">
        <ele>2063.2</ele>
        <time>2020-02-14T09:32:16.605Z</time>
      </trkpt>
      <trkpt lat="42.56011" lon="1.99365">
        <ele>2064.6</ele>
        <time>2020-02-14T09:32:22.863Z</time>
      </trkpt>
      <trkpt lat="42.56011" lon="1.99344">
        <ele>2062.7</ele>
        <time>2020-02-14T09:32:29.012Z</time>
      </trkpt>
      <trkpt lat="42.56009" lon="1.99334">
        <ele>2062.8</ele>
        <time>2020-02-14T09:32:31.987Z</time>
      </trkpt>
      <trkpt lat="42.56006" lon="1.99328">
        <ele>2063.2</ele>
        <time>2020-02-14T09:32:33.948Z</time>
      </trkpt>
      <trkpt lat="42.56004" lon="1.9931">
        <ele>2063.1</ele>
        <time>2020-02-14T09:32:39.015Z</time>
      </trkpt>
      <trkpt lat="42.56004" lon="1.99295">
        <ele>2063.2</ele>
        <time>2020-02-14T09:32:43.399Z</time>
      </trkpt>
      <trkpt lat="42.56003" lon="1.9929">
        <ele>2062.3</ele>
        <time>2020-02-14T09:32:44.712Z</time>
      </trkpt>
      <trkpt lat="42.56004" lon="1.99272">
        <ele>2064.1</ele>
        <time>2020-02-14T09:32:49.928Z</time>
      </trkpt>
      <trkpt lat="42.56003" lon="1.99271">
        <ele>2063.6</ele>
        <time>2020-02-14T09:32:50.421Z</time>
      </trkpt>
      <trkpt lat="42.56" lon="1.99259">
        <ele>2064.6</ele>
        <time>2020-02-14T09:32:54.162Z</time>
      </trkpt>
      <trkpt lat="42.55996" lon="1.99252">
        <ele>2064.1</ele>
        <time>2020-02-14T09:32:56.432Z</time>
      </trkpt>
      <trkpt lat="42.55997" lon="1.99242">
        <ele>2063.1</ele>
        <time>2020-02-14T09:32:59.476Z</time>
      </trkpt>
      <trkpt lat="42.56001" lon="1.99232">
        <ele>2064.1</ele>
        <time>2020-02-14T09:33:02.839Z</time>
      </trkpt>
      <trkpt lat="42.56004" lon="1.9923">
        <ele>2063.7</ele>
        <time>2020-02-14T09:33:03.929Z</time>
      </trkpt>
      <trkpt lat="42.56008" lon="1.99223">
        <ele>2064.1</ele>
        <time>2020-02-14T09:33:06.449Z</time>
      </trkpt>
      <trkpt lat="42.56011" lon="1.99202">
        <ele>2063.1</ele>
        <time>2020-02-14T09:33:12.585Z</time>
      </trkpt>
      <trkpt lat="42.56014" lon="1.99186">
        <ele>2063.7</ele>
        <time>2020-02-14T09:33:17.169Z</time>
      </trkpt>
      <trkpt lat="42.56013" lon="1.99181">
        <ele>2063.7</ele>
        <time>2020-02-14T09:33:18.748Z</time>
      </trkpt>
      <trkpt lat="42.56015" lon="1.99162">
        <ele>2064.6</ele>
        <time>2020-02-14T09:33:24.259Z</time>
      </trkpt>
      <trkpt lat="42.56016" lon="1.99156">
        <ele>2065.5</ele>
        <time>2020-02-14T09:33:25.876Z</time>
      </trkpt>
      <trkpt lat="42.56018" lon="1.99147">
        <ele>2067.5</ele>
        <time>2020-02-14T09:33:28.898Z</time>
      </trkpt>
      <trkpt lat="42.56019" lon="1.99145">
        <ele>2067.1</ele>
        <time>2020-02-14T09:33:29.362Z</time>
      </trkpt>
      <trkpt lat="42.5602" lon="1.99125">
        <ele>2069.4</ele>
        <time>2020-02-14T09:33:35.085Z</time>
      </trkpt>
      <trkpt lat="42.56023" lon="1.99113">
        <ele>2071.4</ele>
        <time>2020-02-14T09:33:38.790Z</time>
      </trkpt>
      <trkpt lat="42.56019" lon="1.99106">
        <ele>2072.4</ele>
        <time>2020-02-14T09:33:41.489Z</time>
      </trkpt>
      <trkpt lat="42.5602" lon="1.99103">
        <ele>2072.4</ele>
        <time>2020-02-14T09:33:42.433Z</time>
      </trkpt>
      <trkpt lat="42.56021" lon="1.991">
        <ele>2073.3</ele>
        <time>2020-02-14T09:33:43.323Z</time>
      </trkpt>
      <trkpt lat="42.56023" lon="1.99096">
        <ele>2074.2</ele>
        <time>2020-02-14T09:33:44.806Z</time>
      </trkpt>
      <trkpt lat="42.56028" lon="1.99088">
        <ele>2075.6</ele>
        <time>2020-02-14T09:33:47.796Z</time>
      </trkpt>
      <trkpt lat="42.56028" lon="1.99079">
        <ele>2074.2</ele>
        <time>2020-02-14T09:33:50.391Z</time>
      </trkpt>
      <trkpt lat="42.56032" lon="1.99073">
        <ele>2074.2</ele>
        <time>2020-02-14T09:33:52.743Z</time>
      </trkpt>
      <trkpt lat="42.56039" lon="1.99066">
        <ele>2075.2</ele>
        <time>2020-02-14T09:33:55.824Z</time>
      </trkpt>
      <trkpt lat="42.56042" lon="1.99058">
        <ele>2074.8</ele>
        <time>2020-02-14T09:33:58.426Z</time>
      </trkpt>
      <trkpt lat="42.56043" lon="1.99057">
        <ele>2074.8</ele>
        <time>2020-02-14T09:33:58.838Z</time>
      </trkpt>
      <trkpt lat="42.56049" lon="1.99049">
        <ele>2075.1</ele>
        <time>2020-02-14T09:34:02.161Z</time>
      </trkpt>
      <trkpt lat="42.56059" lon="1.99039">
        <ele>2076.1</ele>
        <time>2020-02-14T09:34:06.997Z</time>
      </trkpt>
      <trkpt lat="42.56064" lon="1.99035">
        <ele>2076.6</ele>
        <time>2020-02-14T09:34:09.118Z</time>
      </trkpt>
      <trkpt lat="42.56072" lon="1.99026">
        <ele>2077.2</ele>
        <time>2020-02-14T09:34:13.241Z</time>
      </trkpt>
      <trkpt lat="42.56076" lon="1.99009">
        <ele>2077.2</ele>
        <time>2020-02-14T09:34:18.097Z</time>
      </trkpt>
      <trkpt lat="42.56079" lon="1.99001">
        <ele>2077.2</ele>
        <time>2020-02-14T09:34:20.850Z</time>
      </trkpt>
      <trkpt lat="42.56081" lon="1.98996">
        <ele>2077.1</ele>
        <time>2020-02-14T09:34:22.597Z</time>
      </trkpt>
      <trkpt lat="42.56081" lon="1.98993">
        <ele>2077.6</ele>
        <time>2020-02-14T09:34:23.337Z</time>
      </trkpt>
      <trkpt lat="42.56086" lon="1.9898">
        <ele>2078.1</ele>
        <time>2020-02-14T09:34:27.493Z</time>
      </trkpt>
      <trkpt lat="42.56089" lon="1.9897">
        <ele>2077.7</ele>
        <time>2020-02-14T09:34:30.818Z</time>
      </trkpt>
      <trkpt lat="42.56093" lon="1.98964">
        <ele>2078.1</ele>
        <time>2020-02-14T09:34:32.703Z</time>
      </trkpt>
      <trkpt lat="42.56093" lon="1.98955">
        <ele>2078.5</ele>
        <time>2020-02-14T09:34:35.296Z</time>
      </trkpt>
      <trkpt lat="42.56097" lon="1.98955">
        <ele>2079.1</ele>
        <time>2020-02-14T09:34:36.902Z</time>
      </trkpt>
      <trkpt lat="42.561" lon="1.98953">
        <ele>2079.1</ele>
        <time>2020-02-14T09:34:38.229Z</time>
      </trkpt>
      <trkpt lat="42.56102" lon="1.98945">
        <ele>2081</ele>
        <time>2020-02-14T09:34:40.843Z</time>
      </trkpt>
      <trkpt lat="42.56109" lon="1.98936">
        <ele>2081.4</ele>
        <time>2020-02-14T09:34:44.657Z</time>
      </trkpt>
      <trkpt lat="42.56112" lon="1.98935">
        <ele>2081.4</ele>
        <time>2020-02-14T09:34:45.853Z</time>
      </trkpt>
      <trkpt lat="42.56114" lon="1.98928">
        <ele>2081.9</ele>
        <time>2020-02-14T09:34:48.023Z</time>
      </trkpt>
      <trkpt lat="42.56119" lon="1.98926">
        <ele>2081.9</ele>
        <time>2020-02-14T09:34:49.876Z</time>
      </trkpt>
      <trkpt lat="42.56123" lon="1.98922">
        <ele>2082.4</ele>
        <time>2020-02-14T09:34:51.956Z</time>
      </trkpt>
      <trkpt lat="42.5613" lon="1.98914">
        <ele>2082.5</ele>
        <time>2020-02-14T09:34:55.295Z</time>
      </trkpt>
      <trkpt lat="42.56139" lon="1.98904">
        <ele>2082.9</ele>
        <time>2020-02-14T09:34:59.812Z</time>
      </trkpt>
      <trkpt lat="42.5615" lon="1.98895">
        <ele>2083.8</ele>
        <time>2020-02-14T09:35:04.892Z</time>
      </trkpt>
      <trkpt lat="42.56154" lon="1.98886">
        <ele>2084.3</ele>
        <time>2020-02-14T09:35:07.865Z</time>
      </trkpt>
      <trkpt lat="42.56154" lon="1.98884">
        <ele>2084.8</ele>
        <time>2020-02-14T09:35:08.443Z</time>
      </trkpt>
      <trkpt lat="42.56155" lon="1.98871">
        <ele>2087.2</ele>
        <time>2020-02-14T09:35:12.303Z</time>
      </trkpt>
      <trkpt lat="42.56157" lon="1.9886">
        <ele>2088.6</ele>
        <time>2020-02-14T09:35:15.674Z</time>
      </trkpt>
      <trkpt lat="42.56159" lon="1.98858">
        <ele>2089.6</ele>
        <time>2020-02-14T09:35:16.689Z</time>
      </trkpt>
      <trkpt lat="42.56163" lon="1.98853">
        <ele>2091.5</ele>
        <time>2020-02-14T09:35:18.853Z</time>
      </trkpt>
      <trkpt lat="42.56167" lon="1.98844">
        <ele>2092.9</ele>
        <time>2020-02-14T09:35:21.845Z</time>
      </trkpt>
      <trkpt lat="42.56176" lon="1.9884">
        <ele>2094.9</ele>
        <time>2020-02-14T09:35:25.624Z</time>
      </trkpt>
      <trkpt lat="42.56182" lon="1.98836">
        <ele>2096.9</ele>
        <time>2020-02-14T09:35:28.095Z</time>
      </trkpt>
      <trkpt lat="42.56183" lon="1.98834">
        <ele>2096.4</ele>
        <time>2020-02-14T09:35:28.781Z</time>
      </trkpt>
      <trkpt lat="42.56186" lon="1.98831">
        <ele>2094.9</ele>
        <time>2020-02-14T09:35:30.606Z</time>
      </trkpt>
      <trkpt lat="42.5619" lon="1.98822">
        <ele>2095.8</ele>
        <time>2020-02-14T09:35:33.539Z</time>
      </trkpt>
      <trkpt lat="42.56191" lon="1.98814">
        <ele>2097.3</ele>
        <time>2020-02-14T09:35:35.733Z</time>
      </trkpt>
      <trkpt lat="42.56192" lon="1.98813">
        <ele>2096.8</ele>
        <time>2020-02-14T09:35:36.416Z</time>
      </trkpt>
      <trkpt lat="42.56198" lon="1.98812">
        <ele>2095.4</ele>
        <time>2020-02-14T09:35:39.029Z</time>
      </trkpt>
      <trkpt lat="42.56207" lon="1.98813">
        <ele>2095.4</ele>
        <time>2020-02-14T09:35:42.259Z</time>
      </trkpt>
      <trkpt lat="42.56209" lon="1.9881">
        <ele>2095.3</ele>
        <time>2020-02-14T09:35:43.664Z</time>
      </trkpt>
      <trkpt lat="42.56211" lon="1.98806">
        <ele>2095.3</ele>
        <time>2020-02-14T09:35:45.042Z</time>
      </trkpt>
      <trkpt lat="42.56216" lon="1.98797">
        <ele>2096.3</ele>
        <time>2020-02-14T09:35:48.205Z</time>
      </trkpt>
      <trkpt lat="42.56222" lon="1.98794">
        <ele>2095.9</ele>
        <time>2020-02-14T09:35:50.546Z</time>
      </trkpt>
      <trkpt lat="42.56225" lon="1.98791">
        <ele>2096.4</ele>
        <time>2020-02-14T09:35:51.951Z</time>
      </trkpt>
      <trkpt lat="42.56235" lon="1.98781">
        <ele>2097.8</ele>
        <time>2020-02-14T09:35:56.860Z</time>
      </trkpt>
      <trkpt lat="42.56241" lon="1.98775">
        <ele>2098.3</ele>
        <time>2020-02-14T09:35:59.901Z</time>
      </trkpt>
      <trkpt lat="42.56242" lon="1.98774">
        <ele>2097.8</ele>
        <time>2020-02-14T09:36:00.340Z</time>
      </trkpt>
      <trkpt lat="42.56246" lon="1.98775">
        <ele>2096.8</ele>
        <time>2020-02-14T09:36:01.718Z</time>
      </trkpt>
      <trkpt lat="42.56254" lon="1.98773">
        <ele>2098.2</ele>
        <time>2020-02-14T09:36:05.123Z</time>
      </trkpt>
      <trkpt lat="42.56259" lon="1.98765">
        <ele>2100.2</ele>
        <time>2020-02-14T09:36:08.220Z</time>
      </trkpt>
      <trkpt lat="42.56258" lon="1.98755">
        <ele>2101.1</ele>
        <time>2020-02-14T09:36:10.925Z</time>
      </trkpt>
      <trkpt lat="42.56258" lon="1.98754">
        <ele>2102.5</ele>
        <time>2020-02-14T09:36:11.516Z</time>
      </trkpt>
      <trkpt lat="42.56262" lon="1.98746">
        <ele>2104.1</ele>
        <time>2020-02-14T09:36:14.340Z</time>
      </trkpt>
      <trkpt lat="42.56262" lon="1.98742">
        <ele>2105</ele>
        <time>2020-02-14T09:36:15.479Z</time>
      </trkpt>
      <trkpt lat="42.56268" lon="1.98736">
        <ele>2106.5</ele>
        <time>2020-02-14T09:36:18.359Z</time>
      </trkpt>
      <trkpt lat="42.56268" lon="1.98735">
        <ele>2106.4</ele>
        <time>2020-02-14T09:36:18.644Z</time>
      </trkpt>
      <trkpt lat="42.56269" lon="1.98727">
        <ele>2107.9</ele>
        <time>2020-02-14T09:36:21.048Z</time>
      </trkpt>
      <trkpt lat="42.56274" lon="1.98722">
        <ele>2109.4</ele>
        <time>2020-02-14T09:36:23.348Z</time>
      </trkpt>
      <trkpt lat="42.56282" lon="1.9872">
        <ele>2104.9</ele>
        <time>2020-02-14T09:36:26.917Z</time>
      </trkpt>
      <trkpt lat="42.56283" lon="1.98719">
        <ele>2109.8</ele>
        <time>2020-02-14T09:36:28.678Z</time>
      </trkpt>
      <trkpt lat="42.56285" lon="1.98718">
        <ele>2110.7</ele>
        <time>2020-02-14T09:36:29.627Z</time>
      </trkpt>
      <trkpt lat="42.5629" lon="1.98716">
        <ele>2106.4</ele>
        <time>2020-02-14T09:36:32.120Z</time>
      </trkpt>
      <trkpt lat="42.56292" lon="1.98716">
        <ele>2110.2</ele>
        <time>2020-02-14T09:36:33.633Z</time>
      </trkpt>
      <trkpt lat="42.56297" lon="1.98714">
        <ele>2103.6</ele>
        <time>2020-02-14T09:36:36.519Z</time>
      </trkpt>
      <trkpt lat="42.56298" lon="1.98713">
        <ele>2110.2</ele>
        <time>2020-02-14T09:36:38.953Z</time>
      </trkpt>
      <trkpt lat="42.56304" lon="1.98712">
        <ele>2106.9</ele>
        <time>2020-02-14T09:36:41.261Z</time>
      </trkpt>
      <trkpt lat="42.56305" lon="1.98712">
        <ele>2109.4</ele>
        <time>2020-02-14T09:36:42.232Z</time>
      </trkpt>
      <trkpt lat="42.56308" lon="1.98708">
        <ele>2109.3</ele>
        <time>2020-02-14T09:36:43.995Z</time>
      </trkpt>
      <trkpt lat="42.56312" lon="1.987">
        <ele>2109.9</ele>
        <time>2020-02-14T09:36:46.770Z</time>
      </trkpt>
      <trkpt lat="42.56318" lon="1.98688">
        <ele>2112.7</ele>
        <time>2020-02-14T09:36:50.866Z</time>
      </trkpt>
      <trkpt lat="42.56322" lon="1.9868">
        <ele>2114.2</ele>
        <time>2020-02-14T09:36:53.684Z</time>
      </trkpt>
      <trkpt lat="42.56328" lon="1.98673">
        <ele>2116</ele>
        <time>2020-02-14T09:36:56.966Z</time>
      </trkpt>
      <trkpt lat="42.56329" lon="1.98672">
        <ele>2116</ele>
        <time>2020-02-14T09:36:57.495Z</time>
      </trkpt>
      <trkpt lat="42.56339" lon="1.98665">
        <ele>2118.4</ele>
        <time>2020-02-14T09:37:01.813Z</time>
      </trkpt>
      <trkpt lat="42.56338" lon="1.98657">
        <ele>2119.8</ele>
        <time>2020-02-14T09:37:03.994Z</time>
      </trkpt>
      <trkpt lat="42.56336" lon="1.98651">
        <ele>2120.3</ele>
        <time>2020-02-14T09:37:05.974Z</time>
      </trkpt>
      <trkpt lat="42.56336" lon="1.98642">
        <ele>2121.3</ele>
        <time>2020-02-14T09:37:08.364Z</time>
      </trkpt>
      <trkpt lat="42.56342" lon="1.98633">
        <ele>2121.9</ele>
        <time>2020-02-14T09:37:11.944Z</time>
      </trkpt>
      <trkpt lat="42.56343" lon="1.98632">
        <ele>2122.8</ele>
        <time>2020-02-14T09:37:12.612Z</time>
      </trkpt>
      <trkpt lat="42.56356" lon="1.98623">
        <ele>2123.8</ele>
        <time>2020-02-14T09:37:18.319Z</time>
      </trkpt>
      <trkpt lat="42.56363" lon="1.98616">
        <ele>2125.2</ele>
        <time>2020-02-14T09:37:21.796Z</time>
      </trkpt>
      <trkpt lat="42.56373" lon="1.9861">
        <ele>2126.2</ele>
        <time>2020-02-14T09:37:25.916Z</time>
      </trkpt>
      <trkpt lat="42.56375" lon="1.98609">
        <ele>2126.6</ele>
        <time>2020-02-14T09:37:26.472Z</time>
      </trkpt>
      <trkpt lat="42.56375" lon="1.98603">
        <ele>2129</ele>
        <time>2020-02-14T09:37:28.401Z</time>
      </trkpt>
      <trkpt lat="42.5638" lon="1.98596">
        <ele>2129.5</ele>
        <time>2020-02-14T09:37:31.059Z</time>
      </trkpt>
      <trkpt lat="42.56381" lon="1.98595">
        <ele>2129</ele>
        <time>2020-02-14T09:37:31.802Z</time>
      </trkpt>
      <trkpt lat="42.56387" lon="1.98585">
        <ele>2129.9</ele>
        <time>2020-02-14T09:37:35.320Z</time>
      </trkpt>
      <trkpt lat="42.56396" lon="1.98582">
        <ele>2130</ele>
        <time>2020-02-14T09:37:38.801Z</time>
      </trkpt>
      <trkpt lat="42.56402" lon="1.98575">
        <ele>2130</ele>
        <time>2020-02-14T09:37:41.882Z</time>
      </trkpt>
      <trkpt lat="42.56405" lon="1.9857">
        <ele>2129.9</ele>
        <time>2020-02-14T09:37:43.816Z</time>
      </trkpt>
      <trkpt lat="42.56409" lon="1.98569">
        <ele>2130</ele>
        <time>2020-02-14T09:37:45.237Z</time>
      </trkpt>
      <trkpt lat="42.56417" lon="1.98558">
        <ele>2131.5</ele>
        <time>2020-02-14T09:37:49.892Z</time>
      </trkpt>
      <trkpt lat="42.56427" lon="1.98547">
        <ele>2132.9</ele>
        <time>2020-02-14T09:37:54.780Z</time>
      </trkpt>
      <trkpt lat="42.5643" lon="1.98538">
        <ele>2134.8</ele>
        <time>2020-02-14T09:37:57.584Z</time>
      </trkpt>
      <trkpt lat="42.56431" lon="1.98536">
        <ele>2134.7</ele>
        <time>2020-02-14T09:37:58.187Z</time>
      </trkpt>
      <trkpt lat="42.56431" lon="1.98523">
        <ele>2135.7</ele>
        <time>2020-02-14T09:38:01.989Z</time>
      </trkpt>
      <trkpt lat="42.56431" lon="1.98518">
        <ele>2135.8</ele>
        <time>2020-02-14T09:38:03.476Z</time>
      </trkpt>
      <trkpt lat="42.5643" lon="1.98511">
        <ele>2136.3</ele>
        <time>2020-02-14T09:38:05.562Z</time>
      </trkpt>
      <trkpt lat="42.56429" lon="1.98507">
        <ele>2136.8</ele>
        <time>2020-02-14T09:38:06.647Z</time>
      </trkpt>
      <trkpt lat="42.56435" lon="1.98495">
        <ele>2138.2</ele>
        <time>2020-02-14T09:38:10.705Z</time>
      </trkpt>
      <trkpt lat="42.56434" lon="1.98491">
        <ele>2133.3</ele>
        <time>2020-02-14T09:38:12.660Z</time>
      </trkpt>
      <trkpt lat="42.56434" lon="1.9849">
        <ele>2138.7</ele>
        <time>2020-02-14T09:38:14.559Z</time>
      </trkpt>
      <trkpt lat="42.56434" lon="1.98488">
        <ele>2142.9</ele>
        <time>2020-02-14T09:38:16.100Z</time>
      </trkpt>
      <trkpt lat="42.56434" lon="1.98487">
        <ele>2137.2</ele>
        <time>2020-02-14T09:38:18.121Z</time>
      </trkpt>
      <trkpt lat="42.56434" lon="1.98485">
        <ele>2142</ele>
        <time>2020-02-14T09:38:19.835Z</time>
      </trkpt>
      <trkpt lat="42.56433" lon="1.98483">
        <ele>2140</ele>
        <time>2020-02-14T09:38:20.914Z</time>
      </trkpt>
      <trkpt lat="42.56431" lon="1.9848">
        <ele>2138.6</ele>
        <time>2020-02-14T09:38:22.162Z</time>
      </trkpt>
      <trkpt lat="42.5643" lon="1.98478">
        <ele>2132.4</ele>
        <time>2020-02-14T09:38:24.378Z</time>
      </trkpt>
      <trkpt lat="42.5643" lon="1.98477">
        <ele>2138.2</ele>
        <time>2020-02-14T09:38:26.432Z</time>
      </trkpt>
      <trkpt lat="42.56428" lon="1.98469">
        <ele>2134.4</ele>
        <time>2020-02-14T09:38:29.060Z</time>
      </trkpt>
      <trkpt lat="42.56428" lon="1.98468">
        <ele>2139.2</ele>
        <time>2020-02-14T09:38:30.782Z</time>
      </trkpt>
      <trkpt lat="42.56428" lon="1.98466">
        <ele>2135.8</ele>
        <time>2020-02-14T09:38:32.038Z</time>
      </trkpt>
      <trkpt lat="42.56428" lon="1.98465">
        <ele>2139.2</ele>
        <time>2020-02-14T09:38:33.270Z</time>
      </trkpt>
      <trkpt lat="42.56428" lon="1.98463">
        <ele>2134.8</ele>
        <time>2020-02-14T09:38:34.884Z</time>
      </trkpt>
      <trkpt lat="42.56427" lon="1.98461">
        <ele>2139.1</ele>
        <time>2020-02-14T09:38:36.498Z</time>
      </trkpt>
      <trkpt lat="42.56423" lon="1.98442">
        <ele>2140.5</ele>
        <time>2020-02-14T09:38:42.180Z</time>
      </trkpt>
      <trkpt lat="42.56423" lon="1.98438">
        <ele>2133.8</ele>
        <time>2020-02-14T09:38:44.727Z</time>
      </trkpt>
      <trkpt lat="42.56423" lon="1.98437">
        <ele>2136.7</ele>
        <time>2020-02-14T09:38:45.850Z</time>
      </trkpt>
      <trkpt lat="42.56423" lon="1.98435">
        <ele>2139.7</ele>
        <time>2020-02-14T09:38:46.981Z</time>
      </trkpt>
      <trkpt lat="42.56423" lon="1.98433">
        <ele>2139.7</ele>
        <time>2020-02-14T09:38:47.469Z</time>
      </trkpt>
      <trkpt lat="42.56424" lon="1.98427">
        <ele>2139.6</ele>
        <time>2020-02-14T09:38:49.349Z</time>
      </trkpt>
      <trkpt lat="42.56423" lon="1.98405">
        <ele>2141.5</ele>
        <time>2020-02-14T09:38:55.629Z</time>
      </trkpt>
      <trkpt lat="42.56424" lon="1.98385">
        <ele>2142.4</ele>
        <time>2020-02-14T09:39:01.474Z</time>
      </trkpt>
      <trkpt lat="42.56426" lon="1.98379">
        <ele>2142.5</ele>
        <time>2020-02-14T09:39:03.183Z</time>
      </trkpt>
      <trkpt lat="42.56428" lon="1.98359">
        <ele>2143.4</ele>
        <time>2020-02-14T09:39:08.947Z</time>
      </trkpt>
      <trkpt lat="42.56429" lon="1.98351">
        <ele>2143.5</ele>
        <time>2020-02-14T09:39:11.282Z</time>
      </trkpt>
      <trkpt lat="42.56434" lon="1.98336">
        <ele>2143.4</ele>
        <time>2020-02-14T09:39:15.953Z</time>
      </trkpt>
      <trkpt lat="42.56438" lon="1.98329">
        <ele>2142.9</ele>
        <time>2020-02-14T09:39:18.316Z</time>
      </trkpt>
      <trkpt lat="42.56446" lon="1.98321">
        <ele>2142.9</ele>
        <time>2020-02-14T09:39:22.116Z</time>
      </trkpt>
      <trkpt lat="42.56446" lon="1.98316">
        <ele>2143.9</ele>
        <time>2020-02-14T09:39:23.393Z</time>
      </trkpt>
      <trkpt lat="42.56447" lon="1.98303">
        <ele>2144</ele>
        <time>2020-02-14T09:39:27.283Z</time>
      </trkpt>
      <trkpt lat="42.56449" lon="1.98297">
        <ele>2143.5</ele>
        <time>2020-02-14T09:39:28.984Z</time>
      </trkpt>
      <trkpt lat="42.56452" lon="1.98291">
        <ele>2144</ele>
        <time>2020-02-14T09:39:31.078Z</time>
      </trkpt>
      <trkpt lat="42.56464" lon="1.98281">
        <ele>2143.5</ele>
        <time>2020-02-14T09:39:36.774Z</time>
      </trkpt>
      <trkpt lat="42.56472" lon="1.98272">
        <ele>2144.5</ele>
        <time>2020-02-14T09:39:40.745Z</time>
      </trkpt>
      <trkpt lat="42.56477" lon="1.98272">
        <ele>2144</ele>
        <time>2020-02-14T09:39:42.492Z</time>
      </trkpt>
      <trkpt lat="42.56482" lon="1.98266">
        <ele>2144.4</ele>
        <time>2020-02-14T09:39:45.234Z</time>
      </trkpt>
      <trkpt lat="42.56485" lon="1.98265">
        <ele>2144</ele>
        <time>2020-02-14T09:39:46.314Z</time>
      </trkpt>
      <trkpt lat="42.56496" lon="1.98257">
        <ele>2145.8</ele>
        <time>2020-02-14T09:39:51.153Z</time>
      </trkpt>
      <trkpt lat="42.56499" lon="1.98248">
        <ele>2147.7</ele>
        <time>2020-02-14T09:39:54.004Z</time>
      </trkpt>
      <trkpt lat="42.56504" lon="1.98243">
        <ele>2149.3</ele>
        <time>2020-02-14T09:39:56.331Z</time>
      </trkpt>
      <trkpt lat="42.56512" lon="1.9824">
        <ele>2149.8</ele>
        <time>2020-02-14T09:39:59.863Z</time>
      </trkpt>
      <trkpt lat="42.56514" lon="1.98239">
        <ele>2149.8</ele>
        <time>2020-02-14T09:40:00.682Z</time>
      </trkpt>
      <trkpt lat="42.56525" lon="1.98232">
        <ele>2150.7</ele>
        <time>2020-02-14T09:40:05.071Z</time>
      </trkpt>
      <trkpt lat="42.56528" lon="1.98222">
        <ele>2152.1</ele>
        <time>2020-02-14T09:40:08.369Z</time>
      </trkpt>
      <trkpt lat="42.56531" lon="1.9821">
        <ele>2153.6</ele>
        <time>2020-02-14T09:40:11.743Z</time>
      </trkpt>
      <trkpt lat="42.56535" lon="1.98205">
        <ele>2154.6</ele>
        <time>2020-02-14T09:40:14.190Z</time>
      </trkpt>
      <trkpt lat="42.56536" lon="1.98202">
        <ele>2154.6</ele>
        <time>2020-02-14T09:40:15.023Z</time>
      </trkpt>
      <trkpt lat="42.56538" lon="1.98195">
        <ele>2156</ele>
        <time>2020-02-14T09:40:17.046Z</time>
      </trkpt>
      <trkpt lat="42.56535" lon="1.98188">
        <ele>2156.9</ele>
        <time>2020-02-14T09:40:19.417Z</time>
      </trkpt>
      <trkpt lat="42.56536" lon="1.98173">
        <ele>2158.3</ele>
        <time>2020-02-14T09:40:23.627Z</time>
      </trkpt>
      <trkpt lat="42.56534" lon="1.98169">
        <ele>2158.3</ele>
        <time>2020-02-14T09:40:25.099Z</time>
      </trkpt>
      <trkpt lat="42.56533" lon="1.98166">
        <ele>2158.3</ele>
        <time>2020-02-14T09:40:26.171Z</time>
      </trkpt>
      <trkpt lat="42.56529" lon="1.98154">
        <ele>2158.9</ele>
        <time>2020-02-14T09:40:29.906Z</time>
      </trkpt>
      <trkpt lat="42.56526" lon="1.98148">
        <ele>2159.3</ele>
        <time>2020-02-14T09:40:31.924Z</time>
      </trkpt>
      <trkpt lat="42.56526" lon="1.98143">
        <ele>2159.4</ele>
        <time>2020-02-14T09:40:33.324Z</time>
      </trkpt>
      <trkpt lat="42.56526" lon="1.98117">
        <ele>2160.3</ele>
        <time>2020-02-14T09:40:40.976Z</time>
      </trkpt>
      <trkpt lat="42.56525" lon="1.98113">
        <ele>2160.3</ele>
        <time>2020-02-14T09:40:42.025Z</time>
      </trkpt>
      <trkpt lat="42.56514" lon="1.98102">
        <ele>2161.3</ele>
        <time>2020-02-14T09:40:47.320Z</time>
      </trkpt>
      <trkpt lat="42.5651" lon="1.98092">
        <ele>2159.3</ele>
        <time>2020-02-14T09:40:50.529Z</time>
      </trkpt>
      <trkpt lat="42.56508" lon="1.98076">
        <ele>2158.3</ele>
        <time>2020-02-14T09:40:55.078Z</time>
      </trkpt>
      <trkpt lat="42.56507" lon="1.98073">
        <ele>2158.3</ele>
        <time>2020-02-14T09:40:56.117Z</time>
      </trkpt>
      <trkpt lat="42.56504" lon="1.98068">
        <ele>2158.4</ele>
        <time>2020-02-14T09:40:57.885Z</time>
      </trkpt>
      <trkpt lat="42.56497" lon="1.98058">
        <ele>2159.4</ele>
        <time>2020-02-14T09:41:01.970Z</time>
      </trkpt>
      <trkpt lat="42.56495" lon="1.98053">
        <ele>2159.3</ele>
        <time>2020-02-14T09:41:03.503Z</time>
      </trkpt>
      <trkpt lat="42.56501" lon="1.98037">
        <ele>2159.4</ele>
        <time>2020-02-14T09:41:08.637Z</time>
      </trkpt>
      <trkpt lat="42.56501" lon="1.98033">
        <ele>2159.7</ele>
        <time>2020-02-14T09:41:09.749Z</time>
      </trkpt>
      <trkpt lat="42.56499" lon="1.98021">
        <ele>2159.8</ele>
        <time>2020-02-14T09:41:13.325Z</time>
      </trkpt>
      <trkpt lat="42.56497" lon="1.98012">
        <ele>2160.2</ele>
        <time>2020-02-14T09:41:15.844Z</time>
      </trkpt>
      <trkpt lat="42.56496" lon="1.97994">
        <ele>2160.7</ele>
        <time>2020-02-14T09:41:21.139Z</time>
      </trkpt>
      <trkpt lat="42.56494" lon="1.97987">
        <ele>2160.7</ele>
        <time>2020-02-14T09:41:23.434Z</time>
      </trkpt>
      <trkpt lat="42.56493" lon="1.97979">
        <ele>2161.2</ele>
        <time>2020-02-14T09:41:25.664Z</time>
      </trkpt>
      <trkpt lat="42.56497" lon="1.9797">
        <ele>2161.2</ele>
        <time>2020-02-14T09:41:28.533Z</time>
      </trkpt>
      <trkpt lat="42.56498" lon="1.97963">
        <ele>2161.3</ele>
        <time>2020-02-14T09:41:30.608Z</time>
      </trkpt>
      <trkpt lat="42.56498" lon="1.97957">
        <ele>2160.8</ele>
        <time>2020-02-14T09:41:32.277Z</time>
      </trkpt>
      <trkpt lat="42.56487" lon="1.97945">
        <ele>2161.2</ele>
        <time>2020-02-14T09:41:37.598Z</time>
      </trkpt>
      <trkpt lat="42.56485" lon="1.97944">
        <ele>2161.2</ele>
        <time>2020-02-14T09:41:38.211Z</time>
      </trkpt>
      <trkpt lat="42.56479" lon="1.97938">
        <ele>2162.1</ele>
        <time>2020-02-14T09:41:41.135Z</time>
      </trkpt>
      <trkpt lat="42.56472" lon="1.97929">
        <ele>2161.8</ele>
        <time>2020-02-14T09:41:45.069Z</time>
      </trkpt>
      <trkpt lat="42.56469" lon="1.97927">
        <ele>2162.1</ele>
        <time>2020-02-14T09:41:46.436Z</time>
      </trkpt>
      <trkpt lat="42.56456" lon="1.97915">
        <ele>2162.2</ele>
        <time>2020-02-14T09:41:52.251Z</time>
      </trkpt>
      <trkpt lat="42.56457" lon="1.97913">
        <ele>2162.1</ele>
        <time>2020-02-14T09:41:52.883Z</time>
      </trkpt>
      <trkpt lat="42.5646" lon="1.97909">
        <ele>2161.7</ele>
        <time>2020-02-14T09:41:54.549Z</time>
      </trkpt>
      <trkpt lat="42.56461" lon="1.97902">
        <ele>2160.7</ele>
        <time>2020-02-14T09:41:56.485Z</time>
      </trkpt>
      <trkpt lat="42.56458" lon="1.97888">
        <ele>2160.7</ele>
        <time>2020-02-14T09:42:00.728Z</time>
      </trkpt>
      <trkpt lat="42.56459" lon="1.97885">
        <ele>2160.8</ele>
        <time>2020-02-14T09:42:01.663Z</time>
      </trkpt>
      <trkpt lat="42.56459" lon="1.97877">
        <ele>2160.3</ele>
        <time>2020-02-14T09:42:03.945Z</time>
      </trkpt>
      <trkpt lat="42.56464" lon="1.97877">
        <ele>2159.7</ele>
        <time>2020-02-14T09:42:05.776Z</time>
      </trkpt>
      <trkpt lat="42.56464" lon="1.97877">
        <ele>2159.7</ele>
        <time>2020-02-14T09:42:05.781Z</time>
      </trkpt>
      <trkpt lat="42.56465" lon="1.97876">
        <ele>2159.3</ele>
        <time>2020-02-14T09:42:06.286Z</time>
      </trkpt>
      <trkpt lat="42.56467" lon="1.97871">
        <ele>2158.4</ele>
        <time>2020-02-14T09:42:07.842Z</time>
      </trkpt>
      <trkpt lat="42.56471" lon="1.97858">
        <ele>2156.9</ele>
        <time>2020-02-14T09:42:11.922Z</time>
      </trkpt>
      <trkpt lat="42.56478" lon="1.97855">
        <ele>2160.3</ele>
        <time>2020-02-14T09:42:14.865Z</time>
      </trkpt>
      <trkpt lat="42.56478" lon="1.97855">
        <ele>2155.4</ele>
        <time>2020-02-14T09:42:16.560Z</time>
      </trkpt>
      <trkpt lat="42.56478" lon="1.97855">
        <ele>2155.9</ele>
        <time>2020-02-14T09:42:16.731Z</time>
      </trkpt>
      <trkpt lat="42.56478" lon="1.97855">
        <ele>2154.5</ele>
        <time>2020-02-14T09:42:17.211Z</time>
      </trkpt>
      <trkpt lat="42.56478" lon="1.97855">
        <ele>2157.8</ele>
        <time>2020-02-14T09:42:18.359Z</time>
      </trkpt>
      <trkpt lat="42.56478" lon="1.97855">
        <ele>2149.2</ele>
        <time>2020-02-14T09:42:21.340Z</time>
      </trkpt>
      <trkpt lat="42.56478" lon="1.97855">
        <ele>2157.4</ele>
        <time>2020-02-14T09:42:24.155Z</time>
      </trkpt>
      <trkpt lat="42.56478" lon="1.97855">
        <ele>2154.1</ele>
        <time>2020-02-14T09:42:25.286Z</time>
      </trkpt>
      <trkpt lat="42.56478" lon="1.97855">
        <ele>2159.3</ele>
        <time>2020-02-14T09:42:27.109Z</time>
      </trkpt>
      <trkpt lat="42.56478" lon="1.97855">
        <ele>2154.6</ele>
        <time>2020-02-14T09:42:28.756Z</time>
      </trkpt>
      <trkpt lat="42.56478" lon="1.97855">
        <ele>2161.2</ele>
        <time>2020-02-14T09:42:31.061Z</time>
      </trkpt>
      <trkpt lat="42.56478" lon="1.97855">
        <ele>2160.3</ele>
        <time>2020-02-14T09:42:31.392Z</time>
      </trkpt>
      <trkpt lat="42.56477" lon="1.97855">
        <ele>2157.3</ele>
        <time>2020-02-14T09:42:32.436Z</time>
      </trkpt>
      <trkpt lat="42.56478" lon="1.97854">
        <ele>2158.3</ele>
        <time>2020-02-14T09:42:32.892Z</time>
      </trkpt>
      <trkpt lat="42.56471" lon="1.97832">
        <ele>2157.8</ele>
        <time>2020-02-14T09:42:39.408Z</time>
      </trkpt>
      <trkpt lat="42.56472" lon="1.97829">
        <ele>2159.4</ele>
        <time>2020-02-14T09:42:40.392Z</time>
      </trkpt>
      <trkpt lat="42.56468" lon="1.97824">
        <ele>2159.7</ele>
        <time>2020-02-14T09:42:42.481Z</time>
      </trkpt>
      <trkpt lat="42.56462" lon="1.97813">
        <ele>2160.2</ele>
        <time>2020-02-14T09:42:46.338Z</time>
      </trkpt>
      <trkpt lat="42.56458" lon="1.97806">
        <ele>2159.4</ele>
        <time>2020-02-14T09:42:48.917Z</time>
      </trkpt>
      <trkpt lat="42.56453" lon="1.97789">
        <ele>2157.9</ele>
        <time>2020-02-14T09:42:54.125Z</time>
      </trkpt>
      <trkpt lat="42.56454" lon="1.97782">
        <ele>2157.9</ele>
        <time>2020-02-14T09:42:56.236Z</time>
      </trkpt>
      <trkpt lat="42.56456" lon="1.97774">
        <ele>2157.4</ele>
        <time>2020-02-14T09:42:58.539Z</time>
      </trkpt>
      <trkpt lat="42.56451" lon="1.97756">
        <ele>2155.9</ele>
        <time>2020-02-14T09:43:04.067Z</time>
      </trkpt>
      <trkpt lat="42.56452" lon="1.97743">
        <ele>2155.9</ele>
        <time>2020-02-14T09:43:07.566Z</time>
      </trkpt>
      <trkpt lat="42.56449" lon="1.97735">
        <ele>2156.4</ele>
        <time>2020-02-14T09:43:10.080Z</time>
      </trkpt>
      <trkpt lat="42.56444" lon="1.97726">
        <ele>2157.4</ele>
        <time>2020-02-14T09:43:13.381Z</time>
      </trkpt>
      <trkpt lat="42.56444" lon="1.97718">
        <ele>2157.3</ele>
        <time>2020-02-14T09:43:15.483Z</time>
      </trkpt>
      <trkpt lat="42.56445" lon="1.9771">
        <ele>2157</ele>
        <time>2020-02-14T09:43:17.927Z</time>
      </trkpt>
      <trkpt lat="42.56449" lon="1.97703">
        <ele>2153.6</ele>
        <time>2020-02-14T09:43:20.461Z</time>
      </trkpt>
      <trkpt lat="42.56449" lon="1.97703">
        <ele>2158.4</ele>
        <time>2020-02-14T09:43:22.118Z</time>
      </trkpt>
      <trkpt lat="42.56449" lon="1.97703">
        <ele>2153</ele>
        <time>2020-02-14T09:43:23.963Z</time>
      </trkpt>
      <trkpt lat="42.56449" lon="1.97703">
        <ele>2158.3</ele>
        <time>2020-02-14T09:43:25.796Z</time>
      </trkpt>
      <trkpt lat="42.56449" lon="1.97703">
        <ele>2159.3</ele>
        <time>2020-02-14T09:43:26.141Z</time>
      </trkpt>
      <trkpt lat="42.56449" lon="1.97703">
        <ele>2150.2</ele>
        <time>2020-02-14T09:43:29.317Z</time>
      </trkpt>
      <trkpt lat="42.56449" lon="1.97703">
        <ele>2160.7</ele>
        <time>2020-02-14T09:43:32.979Z</time>
      </trkpt>
      <trkpt lat="42.56449" lon="1.97703">
        <ele>2156.9</ele>
        <time>2020-02-14T09:43:34.300Z</time>
      </trkpt>
      <trkpt lat="42.56452" lon="1.97695">
        <ele>2158.3</ele>
        <time>2020-02-14T09:43:36.869Z</time>
      </trkpt>
      <trkpt lat="42.56452" lon="1.97688">
        <ele>2158.3</ele>
        <time>2020-02-14T09:43:39.090Z</time>
      </trkpt>
      <trkpt lat="42.56455" lon="1.97681">
        <ele>2158.3</ele>
        <time>2020-02-14T09:43:41.274Z</time>
      </trkpt>
      <trkpt lat="42.56456" lon="1.97678">
        <ele>2153.6</ele>
        <time>2020-02-14T09:43:43.148Z</time>
      </trkpt>
      <trkpt lat="42.56456" lon="1.97677">
        <ele>2159.3</ele>
        <time>2020-02-14T09:43:45.158Z</time>
      </trkpt>
      <trkpt lat="42.56459" lon="1.97663">
        <ele>2159.4</ele>
        <time>2020-02-14T09:43:49.395Z</time>
      </trkpt>
      <trkpt lat="42.5646" lon="1.9765">
        <ele>2158.4</ele>
        <time>2020-02-14T09:43:53.200Z</time>
      </trkpt>
      <trkpt lat="42.56467" lon="1.97634">
        <ele>2159.8</ele>
        <time>2020-02-14T09:43:58.538Z</time>
      </trkpt>
      <trkpt lat="42.56468" lon="1.97634">
        <ele>2159.8</ele>
        <time>2020-02-14T09:43:59.192Z</time>
      </trkpt>
      <trkpt lat="42.56471" lon="1.97633">
        <ele>2159.7</ele>
        <time>2020-02-14T09:44:00.079Z</time>
      </trkpt>
      <trkpt lat="42.56477" lon="1.97626">
        <ele>2158.8</ele>
        <time>2020-02-14T09:44:03.475Z</time>
      </trkpt>
      <trkpt lat="42.56482" lon="1.97603">
        <ele>2158.4</ele>
        <time>2020-02-14T09:44:10.064Z</time>
      </trkpt>
      <trkpt lat="42.56483" lon="1.97594">
        <ele>2158.3</ele>
        <time>2020-02-14T09:44:12.768Z</time>
      </trkpt>
      <trkpt lat="42.56483" lon="1.9759">
        <ele>2158.3</ele>
        <time>2020-02-14T09:44:13.764Z</time>
      </trkpt>
      <trkpt lat="42.56483" lon="1.97588">
        <ele>2158.4</ele>
        <time>2020-02-14T09:44:14.501Z</time>
      </trkpt>
      <trkpt lat="42.56484" lon="1.97583">
        <ele>2157.8</ele>
        <time>2020-02-14T09:44:15.811Z</time>
      </trkpt>
      <trkpt lat="42.56488" lon="1.97572">
        <ele>2159.7</ele>
        <time>2020-02-14T09:44:19.479Z</time>
      </trkpt>
      <trkpt lat="42.5649" lon="1.97571">
        <ele>2160.2</ele>
        <time>2020-02-14T09:44:20.162Z</time>
      </trkpt>
      <trkpt lat="42.56494" lon="1.97566">
        <ele>2160.8</ele>
        <time>2020-02-14T09:44:22.319Z</time>
      </trkpt>
      <trkpt lat="42.56503" lon="1.97558">
        <ele>2162.6</ele>
        <time>2020-02-14T09:44:26.615Z</time>
      </trkpt>
      <trkpt lat="42.56512" lon="1.97549">
        <ele>2162.6</ele>
        <time>2020-02-14T09:44:30.719Z</time>
      </trkpt>
      <trkpt lat="42.56517" lon="1.9754">
        <ele>2160.7</ele>
        <time>2020-02-14T09:44:34.335Z</time>
      </trkpt>
      <trkpt lat="42.56524" lon="1.97527">
        <ele>2160.3</ele>
        <time>2020-02-14T09:44:38.691Z</time>
      </trkpt>
      <trkpt lat="42.56524" lon="1.97524">
        <ele>2159.7</ele>
        <time>2020-02-14T09:44:39.540Z</time>
      </trkpt>
      <trkpt lat="42.56525" lon="1.97522">
        <ele>2160.3</ele>
        <time>2020-02-14T09:44:40.392Z</time>
      </trkpt>
      <trkpt lat="42.5653" lon="1.97519">
        <ele>2160.8</ele>
        <time>2020-02-14T09:44:42.320Z</time>
      </trkpt>
      <trkpt lat="42.56533" lon="1.97511">
        <ele>2160.7</ele>
        <time>2020-02-14T09:44:44.933Z</time>
      </trkpt>
      <trkpt lat="42.56535" lon="1.97503">
        <ele>2161.2</ele>
        <time>2020-02-14T09:44:47.336Z</time>
      </trkpt>
      <trkpt lat="42.56532" lon="1.97496">
        <ele>2162.1</ele>
        <time>2020-02-14T09:44:49.414Z</time>
      </trkpt>
      <trkpt lat="42.5653" lon="1.9749">
        <ele>2162.2</ele>
        <time>2020-02-14T09:44:51.459Z</time>
      </trkpt>
      <trkpt lat="42.5653" lon="1.97487">
        <ele>2162.1</ele>
        <time>2020-02-14T09:44:52.316Z</time>
      </trkpt>
      <trkpt lat="42.56527" lon="1.97478">
        <ele>2162.6</ele>
        <time>2020-02-14T09:44:55.061Z</time>
      </trkpt>
      <trkpt lat="42.56519" lon="1.97469">
        <ele>2164.6</ele>
        <time>2020-02-14T09:44:59.154Z</time>
      </trkpt>
      <trkpt lat="42.56513" lon="1.97464">
        <ele>2166.6</ele>
        <time>2020-02-14T09:45:02.051Z</time>
      </trkpt>
      <trkpt lat="42.56511" lon="1.97459">
        <ele>2168.9</ele>
        <time>2020-02-14T09:45:03.849Z</time>
      </trkpt>
      <trkpt lat="42.56511" lon="1.97455">
        <ele>2169.8</ele>
        <time>2020-02-14T09:45:04.989Z</time>
      </trkpt>
      <trkpt lat="42.56509" lon="1.97454">
        <ele>2168.4</ele>
        <time>2020-02-14T09:45:05.686Z</time>
      </trkpt>
      <trkpt lat="42.5651" lon="1.97455">
        <ele>2168.4</ele>
        <time>2020-02-14T09:45:06.152Z</time>
      </trkpt>
      <trkpt lat="42.56513" lon="1.97457">
        <ele>2169.8</ele>
        <time>2020-02-14T09:45:07.378Z</time>
      </trkpt>
      <trkpt lat="42.56514" lon="1.97459">
        <ele>2169.4</ele>
        <time>2020-02-14T09:45:08.013Z</time>
      </trkpt>
      <trkpt lat="42.56513" lon="1.97459">
        <ele>2168.5</ele>
        <time>2020-02-14T09:45:08.390Z</time>
      </trkpt>
      <trkpt lat="42.56513" lon="1.97459">
        <ele>2167.9</ele>
        <time>2020-02-14T09:45:08.672Z</time>
      </trkpt>
      <trkpt lat="42.56512" lon="1.97459">
        <ele>2168.9</ele>
        <time>2020-02-14T09:45:09.144Z</time>
      </trkpt>
      <trkpt lat="42.56512" lon="1.97456">
        <ele>2168.9</ele>
        <time>2020-02-14T09:45:09.999Z</time>
      </trkpt>
      <trkpt lat="42.56513" lon="1.97446">
        <ele>2170.4</ele>
        <time>2020-02-14T09:45:12.809Z</time>
      </trkpt>
      <trkpt lat="42.56517" lon="1.97434">
        <ele>2172.8</ele>
        <time>2020-02-14T09:45:16.910Z</time>
      </trkpt>
      <trkpt lat="42.56518" lon="1.97433">
        <ele>2176.1</ele>
        <time>2020-02-14T09:45:18.090Z</time>
      </trkpt>
      <trkpt lat="42.56518" lon="1.97433">
        <ele>2169.8</ele>
        <time>2020-02-14T09:45:20.292Z</time>
      </trkpt>
      <trkpt lat="42.56519" lon="1.97432">
        <ele>2172.3</ele>
        <time>2020-02-14T09:45:21.206Z</time>
      </trkpt>
      <trkpt lat="42.5652" lon="1.97432">
        <ele>2173.8</ele>
        <time>2020-02-14T09:45:21.801Z</time>
      </trkpt>
      <trkpt lat="42.56531" lon="1.97427">
        <ele>2175.2</ele>
        <time>2020-02-14T09:45:26.295Z</time>
      </trkpt>
      <trkpt lat="42.56532" lon="1.97426">
        <ele>2174.6</ele>
        <time>2020-02-14T09:45:26.840Z</time>
      </trkpt>
      <trkpt lat="42.5654" lon="1.97427">
        <ele>2174.2</ele>
        <time>2020-02-14T09:45:29.970Z</time>
      </trkpt>
      <trkpt lat="42.56547" lon="1.97421">
        <ele>2174.6</ele>
        <time>2020-02-14T09:45:33.055Z</time>
      </trkpt>
      <trkpt lat="42.56562" lon="1.97417">
        <ele>2174.6</ele>
        <time>2020-02-14T09:45:38.924Z</time>
      </trkpt>
      <trkpt lat="42.56581" lon="1.9741">
        <ele>2174.6</ele>
        <time>2020-02-14T09:45:46.785Z</time>
      </trkpt>
      <trkpt lat="42.56585" lon="1.97407">
        <ele>2174.6</ele>
        <time>2020-02-14T09:45:48.480Z</time>
      </trkpt>
      <trkpt lat="42.56586" lon="1.97404">
        <ele>2175.1</ele>
        <time>2020-02-14T09:45:49.275Z</time>
      </trkpt>
      <trkpt lat="42.56588" lon="1.97401">
        <ele>2175.7</ele>
        <time>2020-02-14T09:45:50.393Z</time>
      </trkpt>
      <trkpt lat="42.56593" lon="1.97395">
        <ele>2176.2</ele>
        <time>2020-02-14T09:45:53.043Z</time>
      </trkpt>
      <trkpt lat="42.56597" lon="1.97391">
        <ele>2176.2</ele>
        <time>2020-02-14T09:45:55.015Z</time>
      </trkpt>
      <trkpt lat="42.56617" lon="1.97382">
        <ele>2176.2</ele>
        <time>2020-02-14T09:46:02.916Z</time>
      </trkpt>
      <trkpt lat="42.56627" lon="1.97377">
        <ele>2176.2</ele>
        <time>2020-02-14T09:46:07.202Z</time>
      </trkpt>
      <trkpt lat="42.56628" lon="1.97375">
        <ele>2176.7</ele>
        <time>2020-02-14T09:46:07.983Z</time>
      </trkpt>
      <trkpt lat="42.56628" lon="1.97375">
        <ele>2176.6</ele>
        <time>2020-02-14T09:46:08.005Z</time>
      </trkpt>
      <trkpt lat="42.56628" lon="1.97375">
        <ele>2181.9</ele>
        <time>2020-02-14T09:46:09.841Z</time>
      </trkpt>
      <trkpt lat="42.56628" lon="1.97375">
        <ele>2177</ele>
        <time>2020-02-14T09:46:11.528Z</time>
      </trkpt>
      <trkpt lat="42.56628" lon="1.97371">
        <ele>2176.6</ele>
        <time>2020-02-14T09:46:12.592Z</time>
      </trkpt>
      <trkpt lat="42.56629" lon="1.97376">
        <ele>2176.7</ele>
        <time>2020-02-14T09:46:14.018Z</time>
      </trkpt>
      <trkpt lat="42.56627" lon="1.97373">
        <ele>2176.1</ele>
        <time>2020-02-14T09:46:15.025Z</time>
      </trkpt>
      <trkpt lat="42.5663" lon="1.9737">
        <ele>2177</ele>
        <time>2020-02-14T09:46:16.609Z</time>
      </trkpt>
      <trkpt lat="42.56642" lon="1.97364">
        <ele>2177.1</ele>
        <time>2020-02-14T09:46:21.526Z</time>
      </trkpt>
      <trkpt lat="42.56655" lon="1.97358">
        <ele>2177.6</ele>
        <time>2020-02-14T09:46:26.534Z</time>
      </trkpt>
      <trkpt lat="42.56658" lon="1.97355">
        <ele>2178.6</ele>
        <time>2020-02-14T09:46:28.110Z</time>
      </trkpt>
      <trkpt lat="42.56674" lon="1.97353">
        <ele>2179</ele>
        <time>2020-02-14T09:46:34.207Z</time>
      </trkpt>
      <trkpt lat="42.56675" lon="1.97353">
        <ele>2179.9</ele>
        <time>2020-02-14T09:46:34.839Z</time>
      </trkpt>
      <trkpt lat="42.5669" lon="1.97349">
        <ele>2181.9</ele>
        <time>2020-02-14T09:46:40.809Z</time>
      </trkpt>
      <trkpt lat="42.56699" lon="1.97343">
        <ele>2183.3</ele>
        <time>2020-02-14T09:46:44.525Z</time>
      </trkpt>
      <trkpt lat="42.56701" lon="1.97342">
        <ele>2183.8</ele>
        <time>2020-02-14T09:46:45.385Z</time>
      </trkpt>
      <trkpt lat="42.56701" lon="1.97338">
        <ele>2184.3</ele>
        <time>2020-02-14T09:46:46.416Z</time>
      </trkpt>
      <trkpt lat="42.56706" lon="1.97336">
        <ele>2184.3</ele>
        <time>2020-02-14T09:46:48.277Z</time>
      </trkpt>
      <trkpt lat="42.56712" lon="1.97332">
        <ele>2185.8</ele>
        <time>2020-02-14T09:46:50.799Z</time>
      </trkpt>
      <trkpt lat="42.56715" lon="1.97325">
        <ele>2187.2</ele>
        <time>2020-02-14T09:46:53.371Z</time>
      </trkpt>
      <trkpt lat="42.56719" lon="1.97323">
        <ele>2187.7</ele>
        <time>2020-02-14T09:46:55.150Z</time>
      </trkpt>
      <trkpt lat="42.56727" lon="1.9732">
        <ele>2188.2</ele>
        <time>2020-02-14T09:46:58.283Z</time>
      </trkpt>
      <trkpt lat="42.56731" lon="1.97315">
        <ele>2188.7</ele>
        <time>2020-02-14T09:47:00.480Z</time>
      </trkpt>
      <trkpt lat="42.56733" lon="1.97309">
        <ele>2189.5</ele>
        <time>2020-02-14T09:47:02.246Z</time>
      </trkpt>
      <trkpt lat="42.56737" lon="1.97301">
        <ele>2190</ele>
        <time>2020-02-14T09:47:05.048Z</time>
      </trkpt>
      <trkpt lat="42.5675" lon="1.97292">
        <ele>2191.5</ele>
        <time>2020-02-14T09:47:10.668Z</time>
      </trkpt>
      <trkpt lat="42.56752" lon="1.97291">
        <ele>2191</ele>
        <time>2020-02-14T09:47:11.257Z</time>
      </trkpt>
      <trkpt lat="42.56765" lon="1.97278">
        <ele>2192.4</ele>
        <time>2020-02-14T09:47:17.487Z</time>
      </trkpt>
      <trkpt lat="42.56766" lon="1.97278">
        <ele>2193</ele>
        <time>2020-02-14T09:47:18.011Z</time>
      </trkpt>
      <trkpt lat="42.56781" lon="1.97264">
        <ele>2194</ele>
        <time>2020-02-14T09:47:24.952Z</time>
      </trkpt>
      <trkpt lat="42.56784" lon="1.97256">
        <ele>2194.9</ele>
        <time>2020-02-14T09:47:27.464Z</time>
      </trkpt>
      <trkpt lat="42.56793" lon="1.97249">
        <ele>2195.3</ele>
        <time>2020-02-14T09:47:31.446Z</time>
      </trkpt>
      <trkpt lat="42.56796" lon="1.97247">
        <ele>2195.8</ele>
        <time>2020-02-14T09:47:32.921Z</time>
      </trkpt>
      <trkpt lat="42.568" lon="1.97242">
        <ele>2197.8</ele>
        <time>2020-02-14T09:47:35.227Z</time>
      </trkpt>
      <trkpt lat="42.56804" lon="1.9724">
        <ele>2197.2</ele>
        <time>2020-02-14T09:47:36.930Z</time>
      </trkpt>
      <trkpt lat="42.56807" lon="1.9724">
        <ele>2197.7</ele>
        <time>2020-02-14T09:47:37.861Z</time>
      </trkpt>
      <trkpt lat="42.56807" lon="1.97234">
        <ele>2198.7</ele>
        <time>2020-02-14T09:47:39.502Z</time>
      </trkpt>
      <trkpt lat="42.56812" lon="1.97229">
        <ele>2199.2</ele>
        <time>2020-02-14T09:47:42.005Z</time>
      </trkpt>
      <trkpt lat="42.56818" lon="1.97228">
        <ele>2200.2</ele>
        <time>2020-02-14T09:47:44.260Z</time>
      </trkpt>
      <trkpt lat="42.56822" lon="1.97221">
        <ele>2200.7</ele>
        <time>2020-02-14T09:47:46.649Z</time>
      </trkpt>
      <trkpt lat="42.56835" lon="1.97211">
        <ele>2202.5</ele>
        <time>2020-02-14T09:47:52.299Z</time>
      </trkpt>
      <trkpt lat="42.56841" lon="1.97206">
        <ele>2204</ele>
        <time>2020-02-14T09:47:55.321Z</time>
      </trkpt>
      <trkpt lat="42.56842" lon="1.97202">
        <ele>2204</ele>
        <time>2020-02-14T09:47:56.401Z</time>
      </trkpt>
      <trkpt lat="42.56845" lon="1.97198">
        <ele>2204.5</ele>
        <time>2020-02-14T09:47:58.039Z</time>
      </trkpt>
      <trkpt lat="42.56856" lon="1.97193">
        <ele>2205.4</ele>
        <time>2020-02-14T09:48:02.471Z</time>
      </trkpt>
      <trkpt lat="42.56865" lon="1.97187">
        <ele>2206.8</ele>
        <time>2020-02-14T09:48:06.331Z</time>
      </trkpt>
      <trkpt lat="42.56869" lon="1.97184">
        <ele>2207.8</ele>
        <time>2020-02-14T09:48:08.479Z</time>
      </trkpt>
      <trkpt lat="42.56872" lon="1.97183">
        <ele>2207.8</ele>
        <time>2020-02-14T09:48:09.374Z</time>
      </trkpt>
      <trkpt lat="42.56874" lon="1.97181">
        <ele>2208.3</ele>
        <time>2020-02-14T09:48:10.543Z</time>
      </trkpt>
      <trkpt lat="42.5688" lon="1.97177">
        <ele>2209.8</ele>
        <time>2020-02-14T09:48:13.196Z</time>
      </trkpt>
      <trkpt lat="42.56882" lon="1.97174">
        <ele>2210.2</ele>
        <time>2020-02-14T09:48:14.373Z</time>
      </trkpt>
      <trkpt lat="42.56884" lon="1.97172">
        <ele>2210.7</ele>
        <time>2020-02-14T09:48:15.195Z</time>
      </trkpt>
      <trkpt lat="42.56888" lon="1.97168">
        <ele>2211.8</ele>
        <time>2020-02-14T09:48:17.110Z</time>
      </trkpt>
      <trkpt lat="42.56899" lon="1.97163">
        <ele>2213.2</ele>
        <time>2020-02-14T09:48:21.732Z</time>
      </trkpt>
      <trkpt lat="42.56903" lon="1.97163">
        <ele>2213.1</ele>
        <time>2020-02-14T09:48:23.251Z</time>
      </trkpt>
      <trkpt lat="42.56908" lon="1.97158">
        <ele>2214.6</ele>
        <time>2020-02-14T09:48:25.823Z</time>
      </trkpt>
      <trkpt lat="42.56909" lon="1.97153">
        <ele>2215</ele>
        <time>2020-02-14T09:48:27.193Z</time>
      </trkpt>
      <trkpt lat="42.56909" lon="1.9715">
        <ele>2215.5</ele>
        <time>2020-02-14T09:48:28.001Z</time>
      </trkpt>
      <trkpt lat="42.56918" lon="1.97139">
        <ele>2217.9</ele>
        <time>2020-02-14T09:48:32.661Z</time>
      </trkpt>
      <trkpt lat="42.56928" lon="1.97133">
        <ele>2218.9</ele>
        <time>2020-02-14T09:48:36.974Z</time>
      </trkpt>
      <trkpt lat="42.56931" lon="1.97131">
        <ele>2219</ele>
        <time>2020-02-14T09:48:38.194Z</time>
      </trkpt>
      <trkpt lat="42.56945" lon="1.97122">
        <ele>2222.3</ele>
        <time>2020-02-14T09:48:44.281Z</time>
      </trkpt>
      <trkpt lat="42.56956" lon="1.97117">
        <ele>2222.7</ele>
        <time>2020-02-14T09:48:48.548Z</time>
      </trkpt>
      <trkpt lat="42.56964" lon="1.97115">
        <ele>2223.7</ele>
        <time>2020-02-14T09:48:51.787Z</time>
      </trkpt>
      <trkpt lat="42.56968" lon="1.97109">
        <ele>2224.7</ele>
        <time>2020-02-14T09:48:54.268Z</time>
      </trkpt>
      <trkpt lat="42.56974" lon="1.97109">
        <ele>2225.2</ele>
        <time>2020-02-14T09:48:56.403Z</time>
      </trkpt>
      <trkpt lat="42.56989" lon="1.97104">
        <ele>2226.6</ele>
        <time>2020-02-14T09:49:02.417Z</time>
      </trkpt>
      <trkpt lat="42.56994" lon="1.97103">
        <ele>2227.5</ele>
        <time>2020-02-14T09:49:04.391Z</time>
      </trkpt>
      <trkpt lat="42.57007" lon="1.97095">
        <ele>2229</ele>
        <time>2020-02-14T09:49:09.906Z</time>
      </trkpt>
      <trkpt lat="42.57009" lon="1.97094">
        <ele>2229.1</ele>
        <time>2020-02-14T09:49:10.796Z</time>
      </trkpt>
      <trkpt lat="42.57016" lon="1.97093">
        <ele>2229.5</ele>
        <time>2020-02-14T09:49:13.448Z</time>
      </trkpt>
      <trkpt lat="42.5702" lon="1.9709">
        <ele>2229.9</ele>
        <time>2020-02-14T09:49:15.165Z</time>
      </trkpt>
      <trkpt lat="42.57033" lon="1.97089">
        <ele>2230.5</ele>
        <time>2020-02-14T09:49:20.170Z</time>
      </trkpt>
      <trkpt lat="42.57049" lon="1.97083">
        <ele>2231.9</ele>
        <time>2020-02-14T09:49:26.593Z</time>
      </trkpt>
      <trkpt lat="42.57056" lon="1.9708">
        <ele>2231.9</ele>
        <time>2020-02-14T09:49:29.314Z</time>
      </trkpt>
      <trkpt lat="42.5706" lon="1.97078">
        <ele>2232.3</ele>
        <time>2020-02-14T09:49:30.979Z</time>
      </trkpt>
      <trkpt lat="42.57065" lon="1.97078">
        <ele>2231.9</ele>
        <time>2020-02-14T09:49:32.994Z</time>
      </trkpt>
      <trkpt lat="42.57085" lon="1.97073">
        <ele>2232.8</ele>
        <time>2020-02-14T09:49:40.885Z</time>
      </trkpt>
      <trkpt lat="42.57086" lon="1.97073">
        <ele>2232.8</ele>
        <time>2020-02-14T09:49:41.338Z</time>
      </trkpt>
      <trkpt lat="42.57089" lon="1.9707">
        <ele>2232.8</ele>
        <time>2020-02-14T09:49:42.602Z</time>
      </trkpt>
      <trkpt lat="42.57103" lon="1.97067">
        <ele>2233.3</ele>
        <time>2020-02-14T09:49:48.306Z</time>
      </trkpt>
      <trkpt lat="42.57111" lon="1.97064">
        <ele>2233.3</ele>
        <time>2020-02-14T09:49:51.217Z</time>
      </trkpt>
      <trkpt lat="42.57113" lon="1.97062">
        <ele>2229.1</ele>
        <time>2020-02-14T09:49:52.996Z</time>
      </trkpt>
      <trkpt lat="42.57114" lon="1.97061">
        <ele>2233.8</ele>
        <time>2020-02-14T09:49:54.716Z</time>
      </trkpt>
      <trkpt lat="42.57118" lon="1.9706">
        <ele>2233.3</ele>
        <time>2020-02-14T09:49:56.183Z</time>
      </trkpt>
      <trkpt lat="42.57135" lon="1.97048">
        <ele>2227.5</ele>
        <time>2020-02-14T09:50:03.998Z</time>
      </trkpt>
      <trkpt lat="42.57136" lon="1.97047">
        <ele>2234.8</ele>
        <time>2020-02-14T09:50:06.586Z</time>
      </trkpt>
      <trkpt lat="42.57138" lon="1.97045">
        <ele>2235.2</ele>
        <time>2020-02-14T09:50:07.250Z</time>
      </trkpt>
      <trkpt lat="42.5714" lon="1.97043">
        <ele>2233.3</ele>
        <time>2020-02-14T09:50:08.362Z</time>
      </trkpt>
      <trkpt lat="42.57142" lon="1.97042">
        <ele>2229.4</ele>
        <time>2020-02-14T09:50:09.968Z</time>
      </trkpt>
      <trkpt lat="42.57143" lon="1.97041">
        <ele>2234.7</ele>
        <time>2020-02-14T09:50:11.875Z</time>
      </trkpt>
      <trkpt lat="42.57146" lon="1.97039">
        <ele>2229.5</ele>
        <time>2020-02-14T09:50:14.153Z</time>
      </trkpt>
      <trkpt lat="42.57147" lon="1.97038">
        <ele>2235.7</ele>
        <time>2020-02-14T09:50:16.367Z</time>
      </trkpt>
      <trkpt lat="42.57163" lon="1.97023">
        <ele>2234.8</ele>
        <time>2020-02-14T09:50:23.821Z</time>
      </trkpt>
      <trkpt lat="42.5717" lon="1.97014">
        <ele>2235.7</ele>
        <time>2020-02-14T09:50:27.765Z</time>
      </trkpt>
      <trkpt lat="42.57173" lon="1.97007">
        <ele>2235.2</ele>
        <time>2020-02-14T09:50:29.932Z</time>
      </trkpt>
      <trkpt lat="42.57178" lon="1.96999">
        <ele>2235.2</ele>
        <time>2020-02-14T09:50:33.073Z</time>
      </trkpt>
      <trkpt lat="42.57196" lon="1.96981">
        <ele>2234.7</ele>
        <time>2020-02-14T09:50:41.672Z</time>
      </trkpt>
      <trkpt lat="42.57212" lon="1.96967">
        <ele>2234.3</ele>
        <time>2020-02-14T09:50:49.104Z</time>
      </trkpt>
      <trkpt lat="42.57227" lon="1.96954">
        <ele>2231.8</ele>
        <time>2020-02-14T09:50:55.877Z</time>
      </trkpt>
      <trkpt lat="42.57233" lon="1.96948">
        <ele>2230.9</ele>
        <time>2020-02-14T09:50:58.833Z</time>
      </trkpt>
      <trkpt lat="42.57245" lon="1.96934">
        <ele>2229</ele>
        <time>2020-02-14T09:51:04.871Z</time>
      </trkpt>
      <trkpt lat="42.57246" lon="1.96932">
        <ele>2229</ele>
        <time>2020-02-14T09:51:05.533Z</time>
      </trkpt>
      <trkpt lat="42.57257" lon="1.9692">
        <ele>2227.6</ele>
        <time>2020-02-14T09:51:11.129Z</time>
      </trkpt>
      <trkpt lat="42.5726" lon="1.96912">
        <ele>2227.1</ele>
        <time>2020-02-14T09:51:13.597Z</time>
      </trkpt>
      <trkpt lat="42.57264" lon="1.9691">
        <ele>2226.1</ele>
        <time>2020-02-14T09:51:15.214Z</time>
      </trkpt>
      <trkpt lat="42.57272" lon="1.96898">
        <ele>2224.3</ele>
        <time>2020-02-14T09:51:20.058Z</time>
      </trkpt>
      <trkpt lat="42.57278" lon="1.96896">
        <ele>2223.8</ele>
        <time>2020-02-14T09:51:22.397Z</time>
      </trkpt>
      <trkpt lat="42.57286" lon="1.96893">
        <ele>2221.7</ele>
        <time>2020-02-14T09:51:25.736Z</time>
      </trkpt>
      <trkpt lat="42.57296" lon="1.96892">
        <ele>2220.8</ele>
        <time>2020-02-14T09:51:29.433Z</time>
      </trkpt>
      <trkpt lat="42.57298" lon="1.96891">
        <ele>2220.4</ele>
        <time>2020-02-14T09:51:30.352Z</time>
      </trkpt>
      <trkpt lat="42.573" lon="1.96889">
        <ele>2219.8</ele>
        <time>2020-02-14T09:51:31.285Z</time>
      </trkpt>
      <trkpt lat="42.57301" lon="1.96885">
        <ele>2218.4</ele>
        <time>2020-02-14T09:51:32.688Z</time>
      </trkpt>
      <trkpt lat="42.57302" lon="1.9688">
        <ele>2217</ele>
        <time>2020-02-14T09:51:34.277Z</time>
      </trkpt>
      <trkpt lat="42.57306" lon="1.96877">
        <ele>2211.3</ele>
        <time>2020-02-14T09:51:36.784Z</time>
      </trkpt>
      <trkpt lat="42.57306" lon="1.96877">
        <ele>2219.8</ele>
        <time>2020-02-14T09:51:39.759Z</time>
      </trkpt>
      <trkpt lat="42.57306" lon="1.96877">
        <ele>2200.2</ele>
        <time>2020-02-14T09:51:46.592Z</time>
      </trkpt>
      <trkpt lat="42.57306" lon="1.96877">
        <ele>2215</ele>
        <time>2020-02-14T09:51:51.751Z</time>
      </trkpt>
      <trkpt lat="42.57306" lon="1.96877">
        <ele>2218.4</ele>
        <time>2020-02-14T09:51:52.928Z</time>
      </trkpt>
      <trkpt lat="42.57306" lon="1.96877">
        <ele>2214.1</ele>
        <time>2020-02-14T09:51:54.409Z</time>
      </trkpt>
      <trkpt lat="42.57306" lon="1.96877">
        <ele>2207.4</ele>
        <time>2020-02-14T09:51:56.766Z</time>
      </trkpt>
      <trkpt lat="42.57306" lon="1.96877">
        <ele>2217</ele>
        <time>2020-02-14T09:52:00.097Z</time>
      </trkpt>
      <trkpt lat="42.57306" lon="1.96877">
        <ele>2212.6</ele>
        <time>2020-02-14T09:52:01.603Z</time>
      </trkpt>
      <trkpt lat="42.57306" lon="1.96877">
        <ele>2217.4</ele>
        <time>2020-02-14T09:52:03.265Z</time>
      </trkpt>
      <trkpt lat="42.57306" lon="1.96877">
        <ele>2217.5</ele>
        <time>2020-02-14T09:52:03.282Z</time>
      </trkpt>
      <trkpt lat="42.57306" lon="1.96877">
        <ele>2212.6</ele>
        <time>2020-02-14T09:52:04.953Z</time>
      </trkpt>
      <trkpt lat="42.57306" lon="1.96877">
        <ele>2218</ele>
        <time>2020-02-14T09:52:06.811Z</time>
      </trkpt>
      <trkpt lat="42.57306" lon="1.96877">
        <ele>2210.2</ele>
        <time>2020-02-14T09:52:09.507Z</time>
      </trkpt>
      <trkpt lat="42.57306" lon="1.96877">
        <ele>2217</ele>
        <time>2020-02-14T09:52:11.845Z</time>
      </trkpt>
      <trkpt lat="42.57306" lon="1.96877">
        <ele>2216</ele>
        <time>2020-02-14T09:52:12.165Z</time>
      </trkpt>
      <trkpt lat="42.57304" lon="1.96877">
        <ele>2212.6</ele>
        <time>2020-02-14T09:52:13.426Z</time>
      </trkpt>
      <trkpt lat="42.57304" lon="1.96877">
        <ele>2218</ele>
        <time>2020-02-14T09:52:15.273Z</time>
      </trkpt>
      <trkpt lat="42.57304" lon="1.96877">
        <ele>2212.1</ele>
        <time>2020-02-14T09:52:17.302Z</time>
      </trkpt>
      <trkpt lat="42.57304" lon="1.96877">
        <ele>2215.5</ele>
        <time>2020-02-14T09:52:18.480Z</time>
      </trkpt>
      <trkpt lat="42.57304" lon="1.96877">
        <ele>2216.9</ele>
        <time>2020-02-14T09:52:18.962Z</time>
      </trkpt>
      <trkpt lat="42.57304" lon="1.96877">
        <ele>2217.9</ele>
        <time>2020-02-14T09:52:19.318Z</time>
      </trkpt>
      <trkpt lat="42.57304" lon="1.96877">
        <ele>2216.5</ele>
        <time>2020-02-14T09:52:19.809Z</time>
      </trkpt>
      <trkpt lat="42.57305" lon="1.96872">
        <ele>2210.8</ele>
        <time>2020-02-14T09:52:22.280Z</time>
      </trkpt>
      <trkpt lat="42.57306" lon="1.9687">
        <ele>2216.5</ele>
        <time>2020-02-14T09:52:24.349Z</time>
      </trkpt>
      <trkpt lat="42.57308" lon="1.96856">
        <ele>2215.5</ele>
        <time>2020-02-14T09:52:28.524Z</time>
      </trkpt>
      <trkpt lat="42.57308" lon="1.96846">
        <ele>2216.6</ele>
        <time>2020-02-14T09:52:31.291Z</time>
      </trkpt>
      <trkpt lat="42.57309" lon="1.96845">
        <ele>2216.6</ele>
        <time>2020-02-14T09:52:32.066Z</time>
      </trkpt>
      <trkpt lat="42.57311" lon="1.96836">
        <ele>2218.5</ele>
        <time>2020-02-14T09:52:34.852Z</time>
      </trkpt>
      <trkpt lat="42.57312" lon="1.96829">
        <ele>2218.4</ele>
        <time>2020-02-14T09:52:36.705Z</time>
      </trkpt>
      <trkpt lat="42.5732" lon="1.96814">
        <ele>2219.3</ele>
        <time>2020-02-14T09:52:41.980Z</time>
      </trkpt>
      <trkpt lat="42.57319" lon="1.96808">
        <ele>2219.3</ele>
        <time>2020-02-14T09:52:43.641Z</time>
      </trkpt>
      <trkpt lat="42.57312" lon="1.96805">
        <ele>2219.8</ele>
        <time>2020-02-14T09:52:46.744Z</time>
      </trkpt>
      <trkpt lat="42.5731" lon="1.96796">
        <ele>2219.8</ele>
        <time>2020-02-14T09:52:49.489Z</time>
      </trkpt>
      <trkpt lat="42.57315" lon="1.96781">
        <ele>2220.4</ele>
        <time>2020-02-14T09:52:54.103Z</time>
      </trkpt>
      <trkpt lat="42.57312" lon="1.96761">
        <ele>2219.9</ele>
        <time>2020-02-14T09:52:59.929Z</time>
      </trkpt>
      <trkpt lat="42.57312" lon="1.9676">
        <ele>2219.9</ele>
        <time>2020-02-14T09:53:00.393Z</time>
      </trkpt>
      <trkpt lat="42.57313" lon="1.96754">
        <ele>2220.4</ele>
        <time>2020-02-14T09:53:01.955Z</time>
      </trkpt>
      <trkpt lat="42.57314" lon="1.9675">
        <ele>2220.3</ele>
        <time>2020-02-14T09:53:03.203Z</time>
      </trkpt>
      <trkpt lat="42.57314" lon="1.96744">
        <ele>2220.8</ele>
        <time>2020-02-14T09:53:05.061Z</time>
      </trkpt>
      <trkpt lat="42.57313" lon="1.96741">
        <ele>2220.8</ele>
        <time>2020-02-14T09:53:06.081Z</time>
      </trkpt>
      <trkpt lat="42.57314" lon="1.96738">
        <ele>2221.3</ele>
        <time>2020-02-14T09:53:06.979Z</time>
      </trkpt>
      <trkpt lat="42.57313" lon="1.96722">
        <ele>2222.2</ele>
        <time>2020-02-14T09:53:11.658Z</time>
      </trkpt>
      <trkpt lat="42.57314" lon="1.96718">
        <ele>2221.8</ele>
        <time>2020-02-14T09:53:12.748Z</time>
      </trkpt>
      <trkpt lat="42.57314" lon="1.96713">
        <ele>2221.7</ele>
        <time>2020-02-14T09:53:14.088Z</time>
      </trkpt>
      <trkpt lat="42.57316" lon="1.96706">
        <ele>2223.3</ele>
        <time>2020-02-14T09:53:16.459Z</time>
      </trkpt>
      <trkpt lat="42.57315" lon="1.967">
        <ele>2223.3</ele>
        <time>2020-02-14T09:53:18.254Z</time>
      </trkpt>
      <trkpt lat="42.57314" lon="1.96696">
        <ele>2216.6</ele>
        <time>2020-02-14T09:53:20.932Z</time>
      </trkpt>
      <trkpt lat="42.57313" lon="1.96693">
        <ele>2224.2</ele>
        <time>2020-02-14T09:53:23.731Z</time>
      </trkpt>
      <trkpt lat="42.57312" lon="1.96689">
        <ele>2220.4</ele>
        <time>2020-02-14T09:53:25.415Z</time>
      </trkpt>
      <trkpt lat="42.57312" lon="1.96688">
        <ele>2224.3</ele>
        <time>2020-02-14T09:53:26.834Z</time>
      </trkpt>
      <trkpt lat="42.57308" lon="1.96672">
        <ele>2224.2</ele>
        <time>2020-02-14T09:53:31.532Z</time>
      </trkpt>
      <trkpt lat="42.57297" lon="1.96658">
        <ele>2226.1</ele>
        <time>2020-02-14T09:53:37.418Z</time>
      </trkpt>
      <trkpt lat="42.57289" lon="1.96647">
        <ele>2227.5</ele>
        <time>2020-02-14T09:53:41.815Z</time>
      </trkpt>
      <trkpt lat="42.57284" lon="1.96634">
        <ele>2231.4</ele>
        <time>2020-02-14T09:53:46.111Z</time>
      </trkpt>
      <trkpt lat="42.57281" lon="1.96631">
        <ele>2233.4</ele>
        <time>2020-02-14T09:53:47.929Z</time>
      </trkpt>
      <trkpt lat="42.57272" lon="1.96624">
        <ele>2235.3</ele>
        <time>2020-02-14T09:53:52.049Z</time>
      </trkpt>
      <trkpt lat="42.5727" lon="1.96624">
        <ele>2235.7</ele>
        <time>2020-02-14T09:53:52.798Z</time>
      </trkpt>
      <trkpt lat="42.57268" lon="1.96625">
        <ele>2236.2</ele>
        <time>2020-02-14T09:53:53.590Z</time>
      </trkpt>
      <trkpt lat="42.57266" lon="1.96624">
        <ele>2235.7</ele>
        <time>2020-02-14T09:53:54.374Z</time>
      </trkpt>
      <trkpt lat="42.57267" lon="1.96614">
        <ele>2238.2</ele>
        <time>2020-02-14T09:53:57.355Z</time>
      </trkpt>
      <trkpt lat="42.5727" lon="1.96603">
        <ele>2240</ele>
        <time>2020-02-14T09:54:00.696Z</time>
      </trkpt>
      <trkpt lat="42.57272" lon="1.96593">
        <ele>2241.6</ele>
        <time>2020-02-14T09:54:03.596Z</time>
      </trkpt>
      <trkpt lat="42.57271" lon="1.96581">
        <ele>2242.9</ele>
        <time>2020-02-14T09:54:07.160Z</time>
      </trkpt>
      <trkpt lat="42.57272" lon="1.96576">
        <ele>2242.9</ele>
        <time>2020-02-14T09:54:08.671Z</time>
      </trkpt>
      <trkpt lat="42.57274" lon="1.9657">
        <ele>2243.5</ele>
        <time>2020-02-14T09:54:10.562Z</time>
      </trkpt>
      <trkpt lat="42.57276" lon="1.96564">
        <ele>2244.3</ele>
        <time>2020-02-14T09:54:12.417Z</time>
      </trkpt>
      <trkpt lat="42.57273" lon="1.96553">
        <ele>2245.4</ele>
        <time>2020-02-14T09:54:15.574Z</time>
      </trkpt>
      <trkpt lat="42.57265" lon="1.9654">
        <ele>2246.3</ele>
        <time>2020-02-14T09:54:20.535Z</time>
      </trkpt>
      <trkpt lat="42.57257" lon="1.96526">
        <ele>2246.4</ele>
        <time>2020-02-14T09:54:25.591Z</time>
      </trkpt>
      <trkpt lat="42.57253" lon="1.9652">
        <ele>2247.7</ele>
        <time>2020-02-14T09:54:27.770Z</time>
      </trkpt>
      <trkpt lat="42.57251" lon="1.9651">
        <ele>2249.2</ele>
        <time>2020-02-14T09:54:30.840Z</time>
      </trkpt>
      <trkpt lat="42.57253" lon="1.96503">
        <ele>2250.6</ele>
        <time>2020-02-14T09:54:33.167Z</time>
      </trkpt>
      <trkpt lat="42.57252" lon="1.96492">
        <ele>2252.6</ele>
        <time>2020-02-14T09:54:36.371Z</time>
      </trkpt>
      <trkpt lat="42.57257" lon="1.9648">
        <ele>2254</ele>
        <time>2020-02-14T09:54:40.149Z</time>
      </trkpt>
      <trkpt lat="42.57255" lon="1.96474">
        <ele>2254.9</ele>
        <time>2020-02-14T09:54:42.105Z</time>
      </trkpt>
      <trkpt lat="42.57254" lon="1.96467">
        <ele>2257.4</ele>
        <time>2020-02-14T09:54:44.389Z</time>
      </trkpt>
      <trkpt lat="42.57254" lon="1.96461">
        <ele>2259.2</ele>
        <time>2020-02-14T09:54:46.242Z</time>
      </trkpt>
      <trkpt lat="42.57255" lon="1.96456">
        <ele>2259.7</ele>
        <time>2020-02-14T09:54:47.747Z</time>
      </trkpt>
      <trkpt lat="42.57248" lon="1.96445">
        <ele>2262.1</ele>
        <time>2020-02-14T09:54:51.683Z</time>
      </trkpt>
      <trkpt lat="42.57245" lon="1.96434">
        <ele>2264</ele>
        <time>2020-02-14T09:54:55.136Z</time>
      </trkpt>
      <trkpt lat="42.57246" lon="1.96427">
        <ele>2265.1</ele>
        <time>2020-02-14T09:54:57.037Z</time>
      </trkpt>
      <trkpt lat="42.57243" lon="1.96418">
        <ele>2266.1</ele>
        <time>2020-02-14T09:55:00.048Z</time>
      </trkpt>
      <trkpt lat="42.57241" lon="1.96411">
        <ele>2267</ele>
        <time>2020-02-14T09:55:02.215Z</time>
      </trkpt>
      <trkpt lat="42.5724" lon="1.96401">
        <ele>2268.5</ele>
        <time>2020-02-14T09:55:05.166Z</time>
      </trkpt>
      <trkpt lat="42.57236" lon="1.9639">
        <ele>2269.8</ele>
        <time>2020-02-14T09:55:08.367Z</time>
      </trkpt>
      <trkpt lat="42.57234" lon="1.96387">
        <ele>2270.8</ele>
        <time>2020-02-14T09:55:09.694Z</time>
      </trkpt>
      <trkpt lat="42.57233" lon="1.96381">
        <ele>2271.8</ele>
        <time>2020-02-14T09:55:11.506Z</time>
      </trkpt>
      <trkpt lat="42.57235" lon="1.96367">
        <ele>2271.8</ele>
        <time>2020-02-14T09:55:15.482Z</time>
      </trkpt>
      <trkpt lat="42.57235" lon="1.96354">
        <ele>2271.4</ele>
        <time>2020-02-14T09:55:19.195Z</time>
      </trkpt>
      <trkpt lat="42.57233" lon="1.96347">
        <ele>2271.4</ele>
        <time>2020-02-14T09:55:21.238Z</time>
      </trkpt>
      <trkpt lat="42.57236" lon="1.96339">
        <ele>2270.3</ele>
        <time>2020-02-14T09:55:23.698Z</time>
      </trkpt>
      <trkpt lat="42.57238" lon="1.96325">
        <ele>2269</ele>
        <time>2020-02-14T09:55:27.767Z</time>
      </trkpt>
      <trkpt lat="42.57236" lon="1.96318">
        <ele>2269.4</ele>
        <time>2020-02-14T09:55:29.920Z</time>
      </trkpt>
      <trkpt lat="42.57224" lon="1.96299">
        <ele>2268.4</ele>
        <time>2020-02-14T09:55:37.098Z</time>
      </trkpt>
      <trkpt lat="42.57221" lon="1.96294">
        <ele>2268.4</ele>
        <time>2020-02-14T09:55:39.129Z</time>
      </trkpt>
      <trkpt lat="42.57218" lon="1.96282">
        <ele>2268.9</ele>
        <time>2020-02-14T09:55:42.650Z</time>
      </trkpt>
      <trkpt lat="42.57217" lon="1.96272">
        <ele>2269.3</ele>
        <time>2020-02-14T09:55:45.569Z</time>
      </trkpt>
      <trkpt lat="42.57217" lon="1.96269">
        <ele>2269.8</ele>
        <time>2020-02-14T09:55:46.499Z</time>
      </trkpt>
      <trkpt lat="42.57217" lon="1.96258">
        <ele>2270.8</ele>
        <time>2020-02-14T09:55:49.467Z</time>
      </trkpt>
      <trkpt lat="42.57216" lon="1.96253">
        <ele>2271.4</ele>
        <time>2020-02-14T09:55:51.241Z</time>
      </trkpt>
      <trkpt lat="42.57215" lon="1.9625">
        <ele>2272.3</ele>
        <time>2020-02-14T09:55:52.125Z</time>
      </trkpt>
      <trkpt lat="42.57218" lon="1.96241">
        <ele>2272.8</ele>
        <time>2020-02-14T09:55:54.805Z</time>
      </trkpt>
      <trkpt lat="42.57211" lon="1.96232">
        <ele>2273.8</ele>
        <time>2020-02-14T09:55:58.491Z</time>
      </trkpt>
      <trkpt lat="42.57211" lon="1.96219">
        <ele>2275.2</ele>
        <time>2020-02-14T09:56:02.052Z</time>
      </trkpt>
      <trkpt lat="42.57204" lon="1.96206">
        <ele>2277.6</ele>
        <time>2020-02-14T09:56:06.797Z</time>
      </trkpt>
      <trkpt lat="42.57201" lon="1.96195">
        <ele>2278.6</ele>
        <time>2020-02-14T09:56:10.095Z</time>
      </trkpt>
      <trkpt lat="42.57202" lon="1.96189">
        <ele>2278.9</ele>
        <time>2020-02-14T09:56:11.828Z</time>
      </trkpt>
      <trkpt lat="42.57202" lon="1.96185">
        <ele>2279.9</ele>
        <time>2020-02-14T09:56:12.965Z</time>
      </trkpt>
      <trkpt lat="42.57206" lon="1.96174">
        <ele>2281</ele>
        <time>2020-02-14T09:56:16.773Z</time>
      </trkpt>
      <trkpt lat="42.57206" lon="1.96171">
        <ele>2281.4</ele>
        <time>2020-02-14T09:56:17.557Z</time>
      </trkpt>
      <trkpt lat="42.57207" lon="1.96166">
        <ele>2282.3</ele>
        <time>2020-02-14T09:56:18.986Z</time>
      </trkpt>
      <trkpt lat="42.57208" lon="1.96152">
        <ele>2283.4</ele>
        <time>2020-02-14T09:56:23.185Z</time>
      </trkpt>
      <trkpt lat="42.57209" lon="1.96144">
        <ele>2284.7</ele>
        <time>2020-02-14T09:56:25.537Z</time>
      </trkpt>
      <trkpt lat="42.57209" lon="1.96142">
        <ele>2280.9</ele>
        <time>2020-02-14T09:56:26.904Z</time>
      </trkpt>
      <trkpt lat="42.57209" lon="1.96141">
        <ele>2284.8</ele>
        <time>2020-02-14T09:56:28.277Z</time>
      </trkpt>
      <trkpt lat="42.57209" lon="1.96139">
        <ele>2288.7</ele>
        <time>2020-02-14T09:56:29.760Z</time>
      </trkpt>
      <trkpt lat="42.57209" lon="1.96138">
        <ele>2285.2</ele>
        <time>2020-02-14T09:56:30.986Z</time>
      </trkpt>
      <trkpt lat="42.57209" lon="1.96138">
        <ele>2285.7</ele>
        <time>2020-02-14T09:56:31.190Z</time>
      </trkpt>
      <trkpt lat="42.57209" lon="1.96138">
        <ele>2280.9</ele>
        <time>2020-02-14T09:56:32.858Z</time>
      </trkpt>
      <trkpt lat="42.57209" lon="1.96138">
        <ele>2287.1</ele>
        <time>2020-02-14T09:56:35.020Z</time>
      </trkpt>
      <trkpt lat="42.57209" lon="1.96138">
        <ele>2285.7</ele>
        <time>2020-02-14T09:56:35.508Z</time>
      </trkpt>
      <trkpt lat="42.57213" lon="1.96132">
        <ele>2288.7</ele>
        <time>2020-02-14T09:56:38.180Z</time>
      </trkpt>
      <trkpt lat="42.57216" lon="1.96122">
        <ele>2289.6</ele>
        <time>2020-02-14T09:56:41.296Z</time>
      </trkpt>
      <trkpt lat="42.57218" lon="1.96108">
        <ele>2291.5</ele>
        <time>2020-02-14T09:56:45.238Z</time>
      </trkpt>
      <trkpt lat="42.57217" lon="1.961">
        <ele>2293.4</ele>
        <time>2020-02-14T09:56:47.606Z</time>
      </trkpt>
      <trkpt lat="42.57217" lon="1.96092">
        <ele>2295.4</ele>
        <time>2020-02-14T09:56:50.145Z</time>
      </trkpt>
      <trkpt lat="42.57217" lon="1.96082">
        <ele>2297.2</ele>
        <time>2020-02-14T09:56:52.868Z</time>
      </trkpt>
      <trkpt lat="42.57216" lon="1.96071">
        <ele>2299.2</ele>
        <time>2020-02-14T09:56:56.101Z</time>
      </trkpt>
      <trkpt lat="42.57216" lon="1.96058">
        <ele>2301.1</ele>
        <time>2020-02-14T09:56:59.785Z</time>
      </trkpt>
      <trkpt lat="42.57212" lon="1.96048">
        <ele>2303</ele>
        <time>2020-02-14T09:57:03.083Z</time>
      </trkpt>
      <trkpt lat="42.57213" lon="1.9604">
        <ele>2304.9</ele>
        <time>2020-02-14T09:57:05.475Z</time>
      </trkpt>
      <trkpt lat="42.57216" lon="1.96032">
        <ele>2307.8</ele>
        <time>2020-02-14T09:57:08.267Z</time>
      </trkpt>
      <trkpt lat="42.57218" lon="1.96021">
        <ele>2308.4</ele>
        <time>2020-02-14T09:57:11.527Z</time>
      </trkpt>
      <trkpt lat="42.57229" lon="1.96004">
        <ele>2309.7</ele>
        <time>2020-02-14T09:57:17.749Z</time>
      </trkpt>
      <trkpt lat="42.57237" lon="1.95989">
        <ele>2311.3</ele>
        <time>2020-02-14T09:57:22.930Z</time>
      </trkpt>
      <trkpt lat="42.57236" lon="1.95986">
        <ele>2311.3</ele>
        <time>2020-02-14T09:57:23.869Z</time>
      </trkpt>
      <trkpt lat="42.5724" lon="1.95978">
        <ele>2311.6</ele>
        <time>2020-02-14T09:57:26.576Z</time>
      </trkpt>
      <trkpt lat="42.57242" lon="1.95975">
        <ele>2311.7</ele>
        <time>2020-02-14T09:57:27.674Z</time>
      </trkpt>
      <trkpt lat="42.57244" lon="1.9597">
        <ele>2312.1</ele>
        <time>2020-02-14T09:57:29.231Z</time>
      </trkpt>
      <trkpt lat="42.57244" lon="1.9596">
        <ele>2313.1</ele>
        <time>2020-02-14T09:57:32.098Z</time>
      </trkpt>
      <trkpt lat="42.57245" lon="1.95945">
        <ele>2314</ele>
        <time>2020-02-14T09:57:36.327Z</time>
      </trkpt>
      <trkpt lat="42.57243" lon="1.95933">
        <ele>2316.4</ele>
        <time>2020-02-14T09:57:39.921Z</time>
      </trkpt>
      <trkpt lat="42.57243" lon="1.95931">
        <ele>2317</ele>
        <time>2020-02-14T09:57:40.629Z</time>
      </trkpt>
      <trkpt lat="42.57245" lon="1.95915">
        <ele>2317.5</ele>
        <time>2020-02-14T09:57:45.159Z</time>
      </trkpt>
      <trkpt lat="42.57248" lon="1.95906">
        <ele>2318.4</ele>
        <time>2020-02-14T09:57:48.107Z</time>
      </trkpt>
      <trkpt lat="42.57252" lon="1.95899">
        <ele>2319.3</ele>
        <time>2020-02-14T09:57:50.717Z</time>
      </trkpt>
      <trkpt lat="42.57252" lon="1.9589">
        <ele>2321.3</ele>
        <time>2020-02-14T09:57:53.256Z</time>
      </trkpt>
      <trkpt lat="42.57249" lon="1.9588">
        <ele>2321.8</ele>
        <time>2020-02-14T09:57:56.478Z</time>
      </trkpt>
      <trkpt lat="42.57249" lon="1.9587">
        <ele>2322.8</ele>
        <time>2020-02-14T09:57:59.204Z</time>
      </trkpt>
      <trkpt lat="42.57248" lon="1.95865">
        <ele>2323.6</ele>
        <time>2020-02-14T09:58:00.636Z</time>
      </trkpt>
      <trkpt lat="42.5725" lon="1.95859">
        <ele>2324.6</ele>
        <time>2020-02-14T09:58:02.511Z</time>
      </trkpt>
      <trkpt lat="42.57249" lon="1.95844">
        <ele>2326.1</ele>
        <time>2020-02-14T09:58:06.840Z</time>
      </trkpt>
      <trkpt lat="42.57249" lon="1.95837">
        <ele>2328</ele>
        <time>2020-02-14T09:58:09.137Z</time>
      </trkpt>
      <trkpt lat="42.57249" lon="1.95823">
        <ele>2330.4</ele>
        <time>2020-02-14T09:58:13.005Z</time>
      </trkpt>
      <trkpt lat="42.57251" lon="1.9581">
        <ele>2332.4</ele>
        <time>2020-02-14T09:58:16.860Z</time>
      </trkpt>
      <trkpt lat="42.57249" lon="1.95799">
        <ele>2333.7</ele>
        <time>2020-02-14T09:58:20.199Z</time>
      </trkpt>
      <trkpt lat="42.57249" lon="1.95799">
        <ele>2334.3</ele>
        <time>2020-02-14T09:58:20.394Z</time>
      </trkpt>
      <trkpt lat="42.57243" lon="1.95791">
        <ele>2336.6</ele>
        <time>2020-02-14T09:58:23.779Z</time>
      </trkpt>
      <trkpt lat="42.57237" lon="1.95786">
        <ele>2338.2</ele>
        <time>2020-02-14T09:58:26.581Z</time>
      </trkpt>
      <trkpt lat="42.57231" lon="1.95783">
        <ele>2337.7</ele>
        <time>2020-02-14T09:58:28.938Z</time>
      </trkpt>
      <trkpt lat="42.57226" lon="1.95774">
        <ele>2336.2</ele>
        <time>2020-02-14T09:58:32.196Z</time>
      </trkpt>
      <trkpt lat="42.57215" lon="1.95765">
        <ele>2338.1</ele>
        <time>2020-02-14T09:58:37.195Z</time>
      </trkpt>
      <trkpt lat="42.5721" lon="1.95761">
        <ele>2339.5</ele>
        <time>2020-02-14T09:58:39.449Z</time>
      </trkpt>
      <trkpt lat="42.57206" lon="1.95754">
        <ele>2340.5</ele>
        <time>2020-02-14T09:58:41.901Z</time>
      </trkpt>
      <trkpt lat="42.57198" lon="1.95738">
        <ele>2342</ele>
        <time>2020-02-14T09:58:47.600Z</time>
      </trkpt>
      <trkpt lat="42.57194" lon="1.95733">
        <ele>2341.5</ele>
        <time>2020-02-14T09:58:49.567Z</time>
      </trkpt>
      <trkpt lat="42.57191" lon="1.9573">
        <ele>2341</ele>
        <time>2020-02-14T09:58:51.224Z</time>
      </trkpt>
      <trkpt lat="42.57183" lon="1.95723">
        <ele>2341.4</ele>
        <time>2020-02-14T09:58:54.945Z</time>
      </trkpt>
      <trkpt lat="42.57178" lon="1.95714">
        <ele>2341.9</ele>
        <time>2020-02-14T09:58:57.954Z</time>
      </trkpt>
      <trkpt lat="42.57175" lon="1.95714">
        <ele>2342</ele>
        <time>2020-02-14T09:58:59.226Z</time>
      </trkpt>
      <trkpt lat="42.57165" lon="1.95693">
        <ele>2343</ele>
        <time>2020-02-14T09:59:06.210Z</time>
      </trkpt>
      <trkpt lat="42.57159" lon="1.95688">
        <ele>2342.4</ele>
        <time>2020-02-14T09:59:08.980Z</time>
      </trkpt>
      <trkpt lat="42.57159" lon="1.95688">
        <ele>2342.4</ele>
        <time>2020-02-14T09:59:08.988Z</time>
      </trkpt>
      <trkpt lat="42.57161" lon="1.95685">
        <ele>2342.4</ele>
        <time>2020-02-14T09:59:09.910Z</time>
      </trkpt>
      <trkpt lat="42.57162" lon="1.95679">
        <ele>2342.5</ele>
        <time>2020-02-14T09:59:11.898Z</time>
      </trkpt>
      <trkpt lat="42.57159" lon="1.95668">
        <ele>2342</ele>
        <time>2020-02-14T09:59:15.132Z</time>
      </trkpt>
      <trkpt lat="42.57157" lon="1.9567">
        <ele>2342</ele>
        <time>2020-02-14T09:59:16.366Z</time>
      </trkpt>
      <trkpt lat="42.57153" lon="1.95668">
        <ele>2342.5</ele>
        <time>2020-02-14T09:59:17.822Z</time>
      </trkpt>
      <trkpt lat="42.57149" lon="1.95662">
        <ele>2343.8</ele>
        <time>2020-02-14T09:59:20.098Z</time>
      </trkpt>
      <trkpt lat="42.57149" lon="1.95659">
        <ele>2340.6</ele>
        <time>2020-02-14T09:59:21.701Z</time>
      </trkpt>
      <trkpt lat="42.57149" lon="1.95657">
        <ele>2345.4</ele>
        <time>2020-02-14T09:59:23.448Z</time>
      </trkpt>
      <trkpt lat="42.57149" lon="1.95654">
        <ele>2344.4</ele>
        <time>2020-02-14T09:59:24.186Z</time>
      </trkpt>
      <trkpt lat="42.57146" lon="1.95641">
        <ele>2343.8</ele>
        <time>2020-02-14T09:59:28.116Z</time>
      </trkpt>
      <trkpt lat="42.57145" lon="1.95636">
        <ele>2344.8</ele>
        <time>2020-02-14T09:59:29.749Z</time>
      </trkpt>
      <trkpt lat="42.57142" lon="1.95626">
        <ele>2345.3</ele>
        <time>2020-02-14T09:59:32.684Z</time>
      </trkpt>
      <trkpt lat="42.57143" lon="1.95614">
        <ele>2337.2</ele>
        <time>2020-02-14T09:59:37.244Z</time>
      </trkpt>
      <trkpt lat="42.57142" lon="1.95612">
        <ele>2344.3</ele>
        <time>2020-02-14T09:59:39.753Z</time>
      </trkpt>
      <trkpt lat="42.57142" lon="1.95611">
        <ele>2348.7</ele>
        <time>2020-02-14T09:59:41.334Z</time>
      </trkpt>
      <trkpt lat="42.57142" lon="1.95609">
        <ele>2348.2</ele>
        <time>2020-02-14T09:59:41.793Z</time>
      </trkpt>
      <trkpt lat="42.57141" lon="1.95606">
        <ele>2348.7</ele>
        <time>2020-02-14T09:59:42.829Z</time>
      </trkpt>
      <trkpt lat="42.57142" lon="1.95604">
        <ele>2352.6</ele>
        <time>2020-02-14T09:59:44.434Z</time>
      </trkpt>
      <trkpt lat="42.57144" lon="1.956">
        <ele>2350.1</ele>
        <time>2020-02-14T09:59:45.761Z</time>
      </trkpt>
      <trkpt lat="42.57144" lon="1.95599">
        <ele>2349.7</ele>
        <time>2020-02-14T09:59:46.189Z</time>
      </trkpt>
      <trkpt lat="42.57148" lon="1.95582">
        <ele>2349.2</ele>
        <time>2020-02-14T09:59:51.338Z</time>
      </trkpt>
      <trkpt lat="42.57148" lon="1.9558">
        <ele>2349.1</ele>
        <time>2020-02-14T09:59:51.945Z</time>
      </trkpt>
      <trkpt lat="42.57149" lon="1.95575">
        <ele>2349.6</ele>
        <time>2020-02-14T09:59:53.253Z</time>
      </trkpt>
      <trkpt lat="42.57148" lon="1.95573">
        <ele>2348.6</ele>
        <time>2020-02-14T09:59:54.085Z</time>
      </trkpt>
      <trkpt lat="42.5715" lon="1.95568">
        <ele>2350.1</ele>
        <time>2020-02-14T09:59:55.566Z</time>
      </trkpt>
      <trkpt lat="42.57151" lon="1.95561">
        <ele>2351</ele>
        <time>2020-02-14T09:59:57.606Z</time>
      </trkpt>
      <trkpt lat="42.5715" lon="1.95554">
        <ele>2351.1</ele>
        <time>2020-02-14T09:59:59.578Z</time>
      </trkpt>
      <trkpt lat="42.57154" lon="1.95544">
        <ele>2351.6</ele>
        <time>2020-02-14T10:00:02.711Z</time>
      </trkpt>
      <trkpt lat="42.57154" lon="1.95529">
        <ele>2352.6</ele>
        <time>2020-02-14T10:00:07.078Z</time>
      </trkpt>
      <trkpt lat="42.57155" lon="1.95524">
        <ele>2353.1</ele>
        <time>2020-02-14T10:00:08.689Z</time>
      </trkpt>
      <trkpt lat="42.57156" lon="1.95516">
        <ele>2354</ele>
        <time>2020-02-14T10:00:10.916Z</time>
      </trkpt>
      <trkpt lat="42.57155" lon="1.95501">
        <ele>2354.9</ele>
        <time>2020-02-14T10:00:15.197Z</time>
      </trkpt>
      <trkpt lat="42.57155" lon="1.95497">
        <ele>2354.9</ele>
        <time>2020-02-14T10:00:16.371Z</time>
      </trkpt>
      <trkpt lat="42.57156" lon="1.95494">
        <ele>2354.9</ele>
        <time>2020-02-14T10:00:17.348Z</time>
      </trkpt>
      <trkpt lat="42.57155" lon="1.9548">
        <ele>2355.5</ele>
        <time>2020-02-14T10:00:21.115Z</time>
      </trkpt>
      <trkpt lat="42.57154" lon="1.95474">
        <ele>2355.9</ele>
        <time>2020-02-14T10:00:22.897Z</time>
      </trkpt>
      <trkpt lat="42.57159" lon="1.95447">
        <ele>2351.1</ele>
        <time>2020-02-14T10:00:30.945Z</time>
      </trkpt>
      <trkpt lat="42.57158" lon="1.95445">
        <ele>2356.8</ele>
        <time>2020-02-14T10:00:33.020Z</time>
      </trkpt>
      <trkpt lat="42.57159" lon="1.95443">
        <ele>2356.9</ele>
        <time>2020-02-14T10:00:33.560Z</time>
      </trkpt>
      <trkpt lat="42.57159" lon="1.95442">
        <ele>2366.9</ele>
        <time>2020-02-14T10:00:37.086Z</time>
      </trkpt>
      <trkpt lat="42.57159" lon="1.9544">
        <ele>2345.4</ele>
        <time>2020-02-14T10:00:44.600Z</time>
      </trkpt>
      <trkpt lat="42.57159" lon="1.95438">
        <ele>2351</ele>
        <time>2020-02-14T10:00:46.618Z</time>
      </trkpt>
      <trkpt lat="42.5716" lon="1.95437">
        <ele>2361.7</ele>
        <time>2020-02-14T10:00:50.337Z</time>
      </trkpt>
      <trkpt lat="42.5716" lon="1.95435">
        <ele>2365</ele>
        <time>2020-02-14T10:00:51.574Z</time>
      </trkpt>
      <trkpt lat="42.57161" lon="1.95434">
        <ele>2357.3</ele>
        <time>2020-02-14T10:00:54.283Z</time>
      </trkpt>
      <trkpt lat="42.57161" lon="1.95433">
        <ele>2366.5</ele>
        <time>2020-02-14T10:00:57.489Z</time>
      </trkpt>
      <trkpt lat="42.57161" lon="1.95431">
        <ele>2359.3</ele>
        <time>2020-02-14T10:01:00.039Z</time>
      </trkpt>
      <trkpt lat="42.57162" lon="1.95429">
        <ele>2356</ele>
        <time>2020-02-14T10:01:01.303Z</time>
      </trkpt>
      <trkpt lat="42.57162" lon="1.95427">
        <ele>2361.1</ele>
        <time>2020-02-14T10:01:03.178Z</time>
      </trkpt>
      <trkpt lat="42.57161" lon="1.95423">
        <ele>2364.6</ele>
        <time>2020-02-14T10:01:04.740Z</time>
      </trkpt>
      <trkpt lat="42.57161" lon="1.95422">
        <ele>2364.6</ele>
        <time>2020-02-14T10:01:05.198Z</time>
      </trkpt>
      <trkpt lat="42.57161" lon="1.95421">
        <ele>2358.8</ele>
        <time>2020-02-14T10:01:07.238Z</time>
      </trkpt>
      <trkpt lat="42.57162" lon="1.9542">
        <ele>2358.8</ele>
        <time>2020-02-14T10:01:07.574Z</time>
      </trkpt>
      <trkpt lat="42.57162" lon="1.95417">
        <ele>2350.6</ele>
        <time>2020-02-14T10:01:10.496Z</time>
      </trkpt>
      <trkpt lat="42.57162" lon="1.95416">
        <ele>2358.7</ele>
        <time>2020-02-14T10:01:13.328Z</time>
      </trkpt>
      <trkpt lat="42.57163" lon="1.95414">
        <ele>2355.4</ele>
        <time>2020-02-14T10:01:14.570Z</time>
      </trkpt>
      <trkpt lat="42.57163" lon="1.95413">
        <ele>2359.8</ele>
        <time>2020-02-14T10:01:16.162Z</time>
      </trkpt>
      <trkpt lat="42.57164" lon="1.95405">
        <ele>2355.5</ele>
        <time>2020-02-14T10:01:18.972Z</time>
      </trkpt>
      <trkpt lat="42.57164" lon="1.95403">
        <ele>2358.8</ele>
        <time>2020-02-14T10:01:20.166Z</time>
      </trkpt>
      <trkpt lat="42.57165" lon="1.954">
        <ele>2359.7</ele>
        <time>2020-02-14T10:01:21.205Z</time>
      </trkpt>
      <trkpt lat="42.57164" lon="1.95393">
        <ele>2359.2</ele>
        <time>2020-02-14T10:01:23.177Z</time>
      </trkpt>
      <trkpt lat="42.57164" lon="1.95389">
        <ele>2357.8</ele>
        <time>2020-02-14T10:01:24.348Z</time>
      </trkpt>
      <trkpt lat="42.57163" lon="1.95384">
        <ele>2359.3</ele>
        <time>2020-02-14T10:01:25.965Z</time>
      </trkpt>
      <trkpt lat="42.57163" lon="1.95377">
        <ele>2358.7</ele>
        <time>2020-02-14T10:01:28.013Z</time>
      </trkpt>
      <trkpt lat="42.5716" lon="1.95375">
        <ele>2356.3</ele>
        <time>2020-02-14T10:01:29.277Z</time>
      </trkpt>
      <trkpt lat="42.5716" lon="1.95372">
        <ele>2354.4</ele>
        <time>2020-02-14T10:01:30.465Z</time>
      </trkpt>
      <trkpt lat="42.5716" lon="1.95364">
        <ele>2355.9</ele>
        <time>2020-02-14T10:01:32.879Z</time>
      </trkpt>
      <trkpt lat="42.57156" lon="1.95344">
        <ele>2358.4</ele>
        <time>2020-02-14T10:01:38.676Z</time>
      </trkpt>
      <trkpt lat="42.57156" lon="1.95322">
        <ele>2360.3</ele>
        <time>2020-02-14T10:01:44.963Z</time>
      </trkpt>
      <trkpt lat="42.57156" lon="1.95306">
        <ele>2359.8</ele>
        <time>2020-02-14T10:01:49.629Z</time>
      </trkpt>
      <trkpt lat="42.57158" lon="1.9528">
        <ele>2359.7</ele>
        <time>2020-02-14T10:01:56.958Z</time>
      </trkpt>
      <trkpt lat="42.57158" lon="1.95271">
        <ele>2359.8</ele>
        <time>2020-02-14T10:01:59.464Z</time>
      </trkpt>
      <trkpt lat="42.5716" lon="1.95267">
        <ele>2359.3</ele>
        <time>2020-02-14T10:02:00.864Z</time>
      </trkpt>
      <trkpt lat="42.5716" lon="1.95265">
        <ele>2359.3</ele>
        <time>2020-02-14T10:02:01.352Z</time>
      </trkpt>
      <trkpt lat="42.57159" lon="1.95264">
        <ele>2359.3</ele>
        <time>2020-02-14T10:02:01.696Z</time>
      </trkpt>
      <trkpt lat="42.57155" lon="1.9524">
        <ele>2357.8</ele>
        <time>2020-02-14T10:02:08.752Z</time>
      </trkpt>
      <trkpt lat="42.57153" lon="1.95221">
        <ele>2357.3</ele>
        <time>2020-02-14T10:02:14.225Z</time>
      </trkpt>
      <trkpt lat="42.57151" lon="1.95219">
        <ele>2356.8</ele>
        <time>2020-02-14T10:02:15.112Z</time>
      </trkpt>
      <trkpt lat="42.57149" lon="1.95206">
        <ele>2356</ele>
        <time>2020-02-14T10:02:18.744Z</time>
      </trkpt>
      <trkpt lat="42.57148" lon="1.95201">
        <ele>2356</ele>
        <time>2020-02-14T10:02:20.266Z</time>
      </trkpt>
      <trkpt lat="42.57148" lon="1.95184">
        <ele>2354.9</ele>
        <time>2020-02-14T10:02:25.260Z</time>
      </trkpt>
      <trkpt lat="42.5715" lon="1.95168">
        <ele>2355.4</ele>
        <time>2020-02-14T10:02:29.952Z</time>
      </trkpt>
      <trkpt lat="42.57151" lon="1.95161">
        <ele>2356.9</ele>
        <time>2020-02-14T10:02:32.060Z</time>
      </trkpt>
      <trkpt lat="42.57153" lon="1.95158">
        <ele>2356</ele>
        <time>2020-02-14T10:02:33.015Z</time>
      </trkpt>
      <trkpt lat="42.57154" lon="1.95152">
        <ele>2356.9</ele>
        <time>2020-02-14T10:02:34.873Z</time>
      </trkpt>
      <trkpt lat="42.57153" lon="1.95141">
        <ele>2359.3</ele>
        <time>2020-02-14T10:02:38.092Z</time>
      </trkpt>
      <trkpt lat="42.57154" lon="1.95129">
        <ele>2360.7</ele>
        <time>2020-02-14T10:02:41.543Z</time>
      </trkpt>
      <trkpt lat="42.57155" lon="1.9512">
        <ele>2363.1</ele>
        <time>2020-02-14T10:02:44.450Z</time>
      </trkpt>
      <trkpt lat="42.57155" lon="1.95113">
        <ele>2363.1</ele>
        <time>2020-02-14T10:02:46.449Z</time>
      </trkpt>
      <trkpt lat="42.57156" lon="1.95103">
        <ele>2364.1</ele>
        <time>2020-02-14T10:02:49.102Z</time>
      </trkpt>
      <trkpt lat="42.57154" lon="1.95097">
        <ele>2365</ele>
        <time>2020-02-14T10:02:50.974Z</time>
      </trkpt>
      <trkpt lat="42.57161" lon="1.95079">
        <ele>2364.6</ele>
        <time>2020-02-14T10:02:57.096Z</time>
      </trkpt>
      <trkpt lat="42.57162" lon="1.95074">
        <ele>2365.6</ele>
        <time>2020-02-14T10:02:58.566Z</time>
      </trkpt>
      <trkpt lat="42.57166" lon="1.95061">
        <ele>2367.5</ele>
        <time>2020-02-14T10:03:02.648Z</time>
      </trkpt>
      <trkpt lat="42.57168" lon="1.95044">
        <ele>2368.9</ele>
        <time>2020-02-14T10:03:07.433Z</time>
      </trkpt>
      <trkpt lat="42.57173" lon="1.95032">
        <ele>2370.9</ele>
        <time>2020-02-14T10:03:11.374Z</time>
      </trkpt>
      <trkpt lat="42.57177" lon="1.95017">
        <ele>2372.3</ele>
        <time>2020-02-14T10:03:16.018Z</time>
      </trkpt>
      <trkpt lat="42.5718" lon="1.95003">
        <ele>2373.2</ele>
        <time>2020-02-14T10:03:20.260Z</time>
      </trkpt>
      <trkpt lat="42.57178" lon="1.94994">
        <ele>2375.6</ele>
        <time>2020-02-14T10:03:22.864Z</time>
      </trkpt>
      <trkpt lat="42.57177" lon="1.94981">
        <ele>2377.5</ele>
        <time>2020-02-14T10:03:26.803Z</time>
      </trkpt>
      <trkpt lat="42.57175" lon="1.94976">
        <ele>2379.5</ele>
        <time>2020-02-14T10:03:28.569Z</time>
      </trkpt>
      <trkpt lat="42.57173" lon="1.94968">
        <ele>2382.8</ele>
        <time>2020-02-14T10:03:31.146Z</time>
      </trkpt>
      <trkpt lat="42.5717" lon="1.94963">
        <ele>2383.8</ele>
        <time>2020-02-14T10:03:32.930Z</time>
      </trkpt>
      <trkpt lat="42.57166" lon="1.94957">
        <ele>2385.8</ele>
        <time>2020-02-14T10:03:35.637Z</time>
      </trkpt>
      <trkpt lat="42.57165" lon="1.94955">
        <ele>2387.1</ele>
        <time>2020-02-14T10:03:36.248Z</time>
      </trkpt>
      <trkpt lat="42.57168" lon="1.94944">
        <ele>2388.5</ele>
        <time>2020-02-14T10:03:39.622Z</time>
      </trkpt>
      <trkpt lat="42.5717" lon="1.9494">
        <ele>2390.5</ele>
        <time>2020-02-14T10:03:41.325Z</time>
      </trkpt>
      <trkpt lat="42.57171" lon="1.94935">
        <ele>2390.9</ele>
        <time>2020-02-14T10:03:42.622Z</time>
      </trkpt>
      <trkpt lat="42.57171" lon="1.94935">
        <ele>2390.9</ele>
        <time>2020-02-14T10:03:42.671Z</time>
      </trkpt>
      <trkpt lat="42.57169" lon="1.94928">
        <ele>2391.4</ele>
        <time>2020-02-14T10:03:44.722Z</time>
      </trkpt>
      <trkpt lat="42.57168" lon="1.94926">
        <ele>2389.5</ele>
        <time>2020-02-14T10:03:45.752Z</time>
      </trkpt>
      <trkpt lat="42.57168" lon="1.9492">
        <ele>2388.6</ele>
        <time>2020-02-14T10:03:47.461Z</time>
      </trkpt>
      <trkpt lat="42.57167" lon="1.94919">
        <ele>2388.1</ele>
        <time>2020-02-14T10:03:47.966Z</time>
      </trkpt>
      <trkpt lat="42.57166" lon="1.94913">
        <ele>2383.4</ele>
        <time>2020-02-14T10:03:50.439Z</time>
      </trkpt>
      <trkpt lat="42.57165" lon="1.94912">
        <ele>2392.5</ele>
        <time>2020-02-14T10:03:53.608Z</time>
      </trkpt>
      <trkpt lat="42.57165" lon="1.94911">
        <ele>2388.6</ele>
        <time>2020-02-14T10:03:54.991Z</time>
      </trkpt>
      <trkpt lat="42.57165" lon="1.9491">
        <ele>2383.4</ele>
        <time>2020-02-14T10:03:56.814Z</time>
      </trkpt>
      <trkpt lat="42.57164" lon="1.9491">
        <ele>2390.5</ele>
        <time>2020-02-14T10:03:59.301Z</time>
      </trkpt>
      <trkpt lat="42.57158" lon="1.94903">
        <ele>2391.4</ele>
        <time>2020-02-14T10:04:02.336Z</time>
      </trkpt>
      <trkpt lat="42.57153" lon="1.94898">
        <ele>2392.5</ele>
        <time>2020-02-14T10:04:04.900Z</time>
      </trkpt>
      <trkpt lat="42.57151" lon="1.94896">
        <ele>2394.3</ele>
        <time>2020-02-14T10:04:05.990Z</time>
      </trkpt>
      <trkpt lat="42.57148" lon="1.9489">
        <ele>2396.2</ele>
        <time>2020-02-14T10:04:08.136Z</time>
      </trkpt>
      <trkpt lat="42.57141" lon="1.94885">
        <ele>2398.2</ele>
        <time>2020-02-14T10:04:11.312Z</time>
      </trkpt>
      <trkpt lat="42.57136" lon="1.94883">
        <ele>2401.1</ele>
        <time>2020-02-14T10:04:13.710Z</time>
      </trkpt>
      <trkpt lat="42.57129" lon="1.94874">
        <ele>2401.1</ele>
        <time>2020-02-14T10:04:17.206Z</time>
      </trkpt>
      <trkpt lat="42.57122" lon="1.94868">
        <ele>2402.1</ele>
        <time>2020-02-14T10:04:20.418Z</time>
      </trkpt>
      <trkpt lat="42.57122" lon="1.94866">
        <ele>2402.6</ele>
        <time>2020-02-14T10:04:21.009Z</time>
      </trkpt>
      <trkpt lat="42.57124" lon="1.94859">
        <ele>2402.1</ele>
        <time>2020-02-14T10:04:23.182Z</time>
      </trkpt>
      <trkpt lat="42.57124" lon="1.94847">
        <ele>2402.6</ele>
        <time>2020-02-14T10:04:26.513Z</time>
      </trkpt>
      <trkpt lat="42.57123" lon="1.94841">
        <ele>2403.5</ele>
        <time>2020-02-14T10:04:28.192Z</time>
      </trkpt>
      <trkpt lat="42.57123" lon="1.94828">
        <ele>2403.1</ele>
        <time>2020-02-14T10:04:31.837Z</time>
      </trkpt>
      <trkpt lat="42.57123" lon="1.94825">
        <ele>2402.5</ele>
        <time>2020-02-14T10:04:32.833Z</time>
      </trkpt>
      <trkpt lat="42.57125" lon="1.94809">
        <ele>2403.4</ele>
        <time>2020-02-14T10:04:37.430Z</time>
      </trkpt>
      <trkpt lat="42.57123" lon="1.94802">
        <ele>2405</ele>
        <time>2020-02-14T10:04:39.736Z</time>
      </trkpt>
      <trkpt lat="42.57122" lon="1.94798">
        <ele>2405.9</ele>
        <time>2020-02-14T10:04:40.992Z</time>
      </trkpt>
      <trkpt lat="42.57124" lon="1.94787">
        <ele>2408.2</ele>
        <time>2020-02-14T10:04:44.111Z</time>
      </trkpt>
      <trkpt lat="42.57122" lon="1.9478">
        <ele>2409.8</ele>
        <time>2020-02-14T10:04:46.265Z</time>
      </trkpt>
      <trkpt lat="42.57122" lon="1.94773">
        <ele>2410.6</ele>
        <time>2020-02-14T10:04:48.231Z</time>
      </trkpt>
      <trkpt lat="42.57121" lon="1.94769">
        <ele>2411.1</ele>
        <time>2020-02-14T10:04:49.541Z</time>
      </trkpt>
      <trkpt lat="42.57112" lon="1.94753">
        <ele>2412.1</ele>
        <time>2020-02-14T10:04:55.248Z</time>
      </trkpt>
      <trkpt lat="42.57106" lon="1.94745">
        <ele>2412.6</ele>
        <time>2020-02-14T10:04:58.566Z</time>
      </trkpt>
      <trkpt lat="42.57102" lon="1.94741">
        <ele>2413.1</ele>
        <time>2020-02-14T10:05:00.307Z</time>
      </trkpt>
      <trkpt lat="42.57099" lon="1.94727">
        <ele>2413.1</ele>
        <time>2020-02-14T10:05:04.457Z</time>
      </trkpt>
      <trkpt lat="42.57097" lon="1.94718">
        <ele>2415</ele>
        <time>2020-02-14T10:05:07.164Z</time>
      </trkpt>
      <trkpt lat="42.57097" lon="1.94705">
        <ele>2416.5</ele>
        <time>2020-02-14T10:05:10.894Z</time>
      </trkpt>
      <trkpt lat="42.57094" lon="1.94696">
        <ele>2419.4</ele>
        <time>2020-02-14T10:05:13.897Z</time>
      </trkpt>
      <trkpt lat="42.57094" lon="1.94689">
        <ele>2421.2</ele>
        <time>2020-02-14T10:05:16.137Z</time>
      </trkpt>
      <trkpt lat="42.57096" lon="1.94675">
        <ele>2421.7</ele>
        <time>2020-02-14T10:05:20.106Z</time>
      </trkpt>
      <trkpt lat="42.57096" lon="1.94674">
        <ele>2422.7</ele>
        <time>2020-02-14T10:05:20.751Z</time>
      </trkpt>
      <trkpt lat="42.57099" lon="1.9466">
        <ele>2424.1</ele>
        <time>2020-02-14T10:05:24.899Z</time>
      </trkpt>
      <trkpt lat="42.57099" lon="1.94646">
        <ele>2425.2</ele>
        <time>2020-02-14T10:05:28.729Z</time>
      </trkpt>
      <trkpt lat="42.57097" lon="1.94635">
        <ele>2425.5</ele>
        <time>2020-02-14T10:05:32.135Z</time>
      </trkpt>
      <trkpt lat="42.57094" lon="1.94629">
        <ele>2427</ele>
        <time>2020-02-14T10:05:34.333Z</time>
      </trkpt>
      <trkpt lat="42.57091" lon="1.94621">
        <ele>2427.5</ele>
        <time>2020-02-14T10:05:36.890Z</time>
      </trkpt>
      <trkpt lat="42.5709" lon="1.94608">
        <ele>2429.4</ele>
        <time>2020-02-14T10:05:40.400Z</time>
      </trkpt>
      <trkpt lat="42.5709" lon="1.94605">
        <ele>2430</ele>
        <time>2020-02-14T10:05:41.450Z</time>
      </trkpt>
      <trkpt lat="42.5709" lon="1.94597">
        <ele>2430.8</ele>
        <time>2020-02-14T10:05:43.590Z</time>
      </trkpt>
      <trkpt lat="42.57091" lon="1.94587">
        <ele>2432.4</ele>
        <time>2020-02-14T10:05:46.596Z</time>
      </trkpt>
      <trkpt lat="42.57088" lon="1.94572">
        <ele>2433.3</ele>
        <time>2020-02-14T10:05:50.971Z</time>
      </trkpt>
      <trkpt lat="42.57085" lon="1.94561">
        <ele>2432.9</ele>
        <time>2020-02-14T10:05:54.337Z</time>
      </trkpt>
      <trkpt lat="42.57079" lon="1.94555">
        <ele>2433.2</ele>
        <time>2020-02-14T10:05:57.399Z</time>
      </trkpt>
      <trkpt lat="42.57072" lon="1.94545">
        <ele>2435.2</ele>
        <time>2020-02-14T10:06:01.368Z</time>
      </trkpt>
      <trkpt lat="42.57065" lon="1.9454">
        <ele>2436.7</ele>
        <time>2020-02-14T10:06:04.392Z</time>
      </trkpt>
      <trkpt lat="42.57059" lon="1.94536">
        <ele>2439.5</ele>
        <time>2020-02-14T10:06:07.067Z</time>
      </trkpt>
      <trkpt lat="42.57057" lon="1.94536">
        <ele>2440.4</ele>
        <time>2020-02-14T10:06:08.133Z</time>
      </trkpt>
      <trkpt lat="42.57053" lon="1.94533">
        <ele>2441.9</ele>
        <time>2020-02-14T10:06:09.825Z</time>
      </trkpt>
      <trkpt lat="42.57051" lon="1.94528">
        <ele>2443.3</ele>
        <time>2020-02-14T10:06:11.594Z</time>
      </trkpt>
      <trkpt lat="42.57048" lon="1.94517">
        <ele>2444.8</ele>
        <time>2020-02-14T10:06:14.862Z</time>
      </trkpt>
      <trkpt lat="42.57043" lon="1.9451">
        <ele>2446.2</ele>
        <time>2020-02-14T10:06:17.624Z</time>
      </trkpt>
      <trkpt lat="42.5704" lon="1.94504">
        <ele>2447.7</ele>
        <time>2020-02-14T10:06:19.726Z</time>
      </trkpt>
      <trkpt lat="42.5704" lon="1.94503">
        <ele>2448.1</ele>
        <time>2020-02-14T10:06:20.160Z</time>
      </trkpt>
      <trkpt lat="42.57039" lon="1.94492">
        <ele>2449.7</ele>
        <time>2020-02-14T10:06:23.274Z</time>
      </trkpt>
      <trkpt lat="42.57038" lon="1.94485">
        <ele>2451</ele>
        <time>2020-02-14T10:06:25.414Z</time>
      </trkpt>
      <trkpt lat="42.57035" lon="1.94478">
        <ele>2453.5</ele>
        <time>2020-02-14T10:06:27.942Z</time>
      </trkpt>
      <trkpt lat="42.57032" lon="1.94468">
        <ele>2454.4</ele>
        <time>2020-02-14T10:06:31.129Z</time>
      </trkpt>
      <trkpt lat="42.5703" lon="1.94463">
        <ele>2457.8</ele>
        <time>2020-02-14T10:06:32.949Z</time>
      </trkpt>
      <trkpt lat="42.57027" lon="1.94459">
        <ele>2460.6</ele>
        <time>2020-02-14T10:06:34.964Z</time>
      </trkpt>
      <trkpt lat="42.57026" lon="1.94451">
        <ele>2462.7</ele>
        <time>2020-02-14T10:06:37.392Z</time>
      </trkpt>
      <trkpt lat="42.5702" lon="1.9444">
        <ele>2466</ele>
        <time>2020-02-14T10:06:41.488Z</time>
      </trkpt>
      <trkpt lat="42.57016" lon="1.94433">
        <ele>2467.8</ele>
        <time>2020-02-14T10:06:44.029Z</time>
      </trkpt>
      <trkpt lat="42.5701" lon="1.94424">
        <ele>2471.8</ele>
        <time>2020-02-14T10:06:47.602Z</time>
      </trkpt>
      <trkpt lat="42.57007" lon="1.94413">
        <ele>2474.6</ele>
        <time>2020-02-14T10:06:51.038Z</time>
      </trkpt>
      <trkpt lat="42.57007" lon="1.94408">
        <ele>2477.9</ele>
        <time>2020-02-14T10:06:52.867Z</time>
      </trkpt>
      <trkpt lat="42.57005" lon="1.94399">
        <ele>2475.2</ele>
        <time>2020-02-14T10:06:55.739Z</time>
      </trkpt>
      <trkpt lat="42.57005" lon="1.94395">
        <ele>2478</ele>
        <time>2020-02-14T10:06:57.223Z</time>
      </trkpt>
      <trkpt lat="42.57004" lon="1.94386">
        <ele>2478.5</ele>
        <time>2020-02-14T10:06:59.710Z</time>
      </trkpt>
      <trkpt lat="42.57007" lon="1.94381">
        <ele>2478.4</ele>
        <time>2020-02-14T10:07:01.538Z</time>
      </trkpt>
      <trkpt lat="42.57009" lon="1.94372">
        <ele>2478.4</ele>
        <time>2020-02-14T10:07:04.126Z</time>
      </trkpt>
      <trkpt lat="42.57004" lon="1.94363">
        <ele>2481.9</ele>
        <time>2020-02-14T10:07:07.403Z</time>
      </trkpt>
      <trkpt lat="42.57004" lon="1.94354">
        <ele>2484.2</ele>
        <time>2020-02-14T10:07:10.183Z</time>
      </trkpt>
      <trkpt lat="42.57002" lon="1.94347">
        <ele>2486.1</ele>
        <time>2020-02-14T10:07:12.413Z</time>
      </trkpt>
      <trkpt lat="42.57002" lon="1.94342">
        <ele>2487.2</ele>
        <time>2020-02-14T10:07:13.747Z</time>
      </trkpt>
      <trkpt lat="42.57001" lon="1.94342">
        <ele>2487.2</ele>
        <time>2020-02-14T10:07:14.103Z</time>
      </trkpt>
      <trkpt lat="42.57001" lon="1.94342">
        <ele>2483.8</ele>
        <time>2020-02-14T10:07:15.277Z</time>
      </trkpt>
      <trkpt lat="42.57001" lon="1.94342">
        <ele>2487.6</ele>
        <time>2020-02-14T10:07:16.620Z</time>
      </trkpt>
      <trkpt lat="42.57001" lon="1.94342">
        <ele>2488</ele>
        <time>2020-02-14T10:07:16.747Z</time>
      </trkpt>
      <trkpt lat="42.57001" lon="1.94342">
        <ele>2482.7</ele>
        <time>2020-02-14T10:07:18.584Z</time>
      </trkpt>
      <trkpt lat="42.57001" lon="1.94342">
        <ele>2489.5</ele>
        <time>2020-02-14T10:07:20.938Z</time>
      </trkpt>
      <trkpt lat="42.57001" lon="1.94343">
        <ele>2488.5</ele>
        <time>2020-02-14T10:07:21.345Z</time>
      </trkpt>
      <trkpt lat="42.57002" lon="1.94343">
        <ele>2488.1</ele>
        <time>2020-02-14T10:07:21.643Z</time>
      </trkpt>
      <trkpt lat="42.57004" lon="1.94342">
        <ele>2489.1</ele>
        <time>2020-02-14T10:07:22.636Z</time>
      </trkpt>
      <trkpt lat="42.57005" lon="1.94335">
        <ele>2490.5</ele>
        <time>2020-02-14T10:07:24.700Z</time>
      </trkpt>
      <trkpt lat="42.57007" lon="1.94326">
        <ele>2492.5</ele>
        <time>2020-02-14T10:07:27.429Z</time>
      </trkpt>
      <trkpt lat="42.57007" lon="1.94318">
        <ele>2493.9</ele>
        <time>2020-02-14T10:07:29.737Z</time>
      </trkpt>
      <trkpt lat="42.57009" lon="1.9431">
        <ele>2497.2</ele>
        <time>2020-02-14T10:07:32.371Z</time>
      </trkpt>
      <trkpt lat="42.5701" lon="1.9431">
        <ele>2496.8</ele>
        <time>2020-02-14T10:07:32.637Z</time>
      </trkpt>
      <trkpt lat="42.57012" lon="1.94303">
        <ele>2499.2</ele>
        <time>2020-02-14T10:07:34.924Z</time>
      </trkpt>
      <trkpt lat="42.57015" lon="1.94295">
        <ele>2502.6</ele>
        <time>2020-02-14T10:07:37.745Z</time>
      </trkpt>
      <trkpt lat="42.57014" lon="1.94291">
        <ele>2503.9</ele>
        <time>2020-02-14T10:07:38.835Z</time>
      </trkpt>
      <trkpt lat="42.57015" lon="1.94283">
        <ele>2505.3</ele>
        <time>2020-02-14T10:07:41.157Z</time>
      </trkpt>
      <trkpt lat="42.5702" lon="1.94276">
        <ele>2508.3</ele>
        <time>2020-02-14T10:07:44.254Z</time>
      </trkpt>
      <trkpt lat="42.57025" lon="1.9427">
        <ele>2510.2</ele>
        <time>2020-02-14T10:07:46.715Z</time>
      </trkpt>
      <trkpt lat="42.57027" lon="1.94268">
        <ele>2513.6</ele>
        <time>2020-02-14T10:07:48.413Z</time>
      </trkpt>
      <trkpt lat="42.57028" lon="1.94267">
        <ele>2514.5</ele>
        <time>2020-02-14T10:07:48.830Z</time>
      </trkpt>
      <trkpt lat="42.57028" lon="1.94264">
        <ele>2516</ele>
        <time>2020-02-14T10:07:50.008Z</time>
      </trkpt>
      <trkpt lat="42.57028" lon="1.94261">
        <ele>2516.9</ele>
        <time>2020-02-14T10:07:50.924Z</time>
      </trkpt>
      <trkpt lat="42.5703" lon="1.94254">
        <ele>2519.9</ele>
        <time>2020-02-14T10:07:53.149Z</time>
      </trkpt>
      <trkpt lat="42.5703" lon="1.94252">
        <ele>2522.6</ele>
        <time>2020-02-14T10:07:54.277Z</time>
      </trkpt>
      <trkpt lat="42.57034" lon="1.94242">
        <ele>2524.7</ele>
        <time>2020-02-14T10:07:57.711Z</time>
      </trkpt>
      <trkpt lat="42.57034" lon="1.94236">
        <ele>2527.9</ele>
        <time>2020-02-14T10:07:59.691Z</time>
      </trkpt>
      <trkpt lat="42.57033" lon="1.94225">
        <ele>2529.4</ele>
        <time>2020-02-14T10:08:03.052Z</time>
      </trkpt>
      <trkpt lat="42.57035" lon="1.94221">
        <ele>2530.8</ele>
        <time>2020-02-14T10:08:04.495Z</time>
      </trkpt>
      <trkpt lat="42.57035" lon="1.94212">
        <ele>2533.7</ele>
        <time>2020-02-14T10:08:07.221Z</time>
      </trkpt>
      <trkpt lat="42.57035" lon="1.94201">
        <ele>2537.1</ele>
        <time>2020-02-14T10:08:10.454Z</time>
      </trkpt>
      <trkpt lat="42.57035" lon="1.94197">
        <ele>2538.1</ele>
        <time>2020-02-14T10:08:11.680Z</time>
      </trkpt>
      <trkpt lat="42.57037" lon="1.94182">
        <ele>2539.9</ele>
        <time>2020-02-14T10:08:16.210Z</time>
      </trkpt>
      <trkpt lat="42.57038" lon="1.9417">
        <ele>2539.9</ele>
        <time>2020-02-14T10:08:19.576Z</time>
      </trkpt>
      <trkpt lat="42.57041" lon="1.94161">
        <ele>2540.4</ele>
        <time>2020-02-14T10:08:22.343Z</time>
      </trkpt>
      <trkpt lat="42.57045" lon="1.94152">
        <ele>2543.8</ele>
        <time>2020-02-14T10:08:25.698Z</time>
      </trkpt>
      <trkpt lat="42.57047" lon="1.94147">
        <ele>2546.8</ele>
        <time>2020-02-14T10:08:27.421Z</time>
      </trkpt>
      <trkpt lat="42.57052" lon="1.94142">
        <ele>2549.6</ele>
        <time>2020-02-14T10:08:30.122Z</time>
      </trkpt>
      <trkpt lat="42.57053" lon="1.94137">
        <ele>2550</ele>
        <time>2020-02-14T10:08:31.647Z</time>
      </trkpt>
      <trkpt lat="42.57052" lon="1.94136">
        <ele>2549.6</ele>
        <time>2020-02-14T10:08:31.926Z</time>
      </trkpt>
      <trkpt lat="42.57048" lon="1.94134">
        <ele>2551.6</ele>
        <time>2020-02-14T10:08:33.936Z</time>
      </trkpt>
      <trkpt lat="42.57046" lon="1.94124">
        <ele>2554</ele>
        <time>2020-02-14T10:08:36.744Z</time>
      </trkpt>
      <trkpt lat="42.57047" lon="1.94115">
        <ele>2556.8</ele>
        <time>2020-02-14T10:08:39.565Z</time>
      </trkpt>
      <trkpt lat="42.57049" lon="1.94115">
        <ele>2557.3</ele>
        <time>2020-02-14T10:08:40.058Z</time>
      </trkpt>
      <trkpt lat="42.5705" lon="1.94111">
        <ele>2557.3</ele>
        <time>2020-02-14T10:08:41.328Z</time>
      </trkpt>
      <trkpt lat="42.57051" lon="1.94108">
        <ele>2558.3</ele>
        <time>2020-02-14T10:08:42.274Z</time>
      </trkpt>
      <trkpt lat="42.57053" lon="1.94099">
        <ele>2558.7</ele>
        <time>2020-02-14T10:08:45.068Z</time>
      </trkpt>
      <trkpt lat="42.57053" lon="1.94095">
        <ele>2557.7</ele>
        <time>2020-02-14T10:08:46.310Z</time>
      </trkpt>
      <trkpt lat="42.57051" lon="1.94092">
        <ele>2559.7</ele>
        <time>2020-02-14T10:08:47.479Z</time>
      </trkpt>
      <trkpt lat="42.5705" lon="1.94087">
        <ele>2563</ele>
        <time>2020-02-14T10:08:49.454Z</time>
      </trkpt>
      <trkpt lat="42.57056" lon="1.94082">
        <ele>2564.9</ele>
        <time>2020-02-14T10:08:52.199Z</time>
      </trkpt>
      <trkpt lat="42.57056" lon="1.94082">
        <ele>2564.6</ele>
        <time>2020-02-14T10:08:52.354Z</time>
      </trkpt>
      <trkpt lat="42.57054" lon="1.94076">
        <ele>2567.3</ele>
        <time>2020-02-14T10:08:54.410Z</time>
      </trkpt>
      <trkpt lat="42.57053" lon="1.94068">
        <ele>2569.4</ele>
        <time>2020-02-14T10:08:56.816Z</time>
      </trkpt>
      <trkpt lat="42.5705" lon="1.94058">
        <ele>2570.7</ele>
        <time>2020-02-14T10:08:59.884Z</time>
      </trkpt>
      <trkpt lat="42.5705" lon="1.94052">
        <ele>2573.7</ele>
        <time>2020-02-14T10:09:02.070Z</time>
      </trkpt>
      <trkpt lat="42.57052" lon="1.94047">
        <ele>2574.7</ele>
        <time>2020-02-14T10:09:03.668Z</time>
      </trkpt>
      <trkpt lat="42.5705" lon="1.94041">
        <ele>2577</ele>
        <time>2020-02-14T10:09:05.498Z</time>
      </trkpt>
      <trkpt lat="42.57047" lon="1.94033">
        <ele>2580.4</ele>
        <time>2020-02-14T10:09:08.311Z</time>
      </trkpt>
      <trkpt lat="42.57047" lon="1.94027">
        <ele>2581.8</ele>
        <time>2020-02-14T10:09:10.291Z</time>
      </trkpt>
      <trkpt lat="42.57047" lon="1.94026">
        <ele>2582.7</ele>
        <time>2020-02-14T10:09:10.717Z</time>
      </trkpt>
      <trkpt lat="42.57045" lon="1.94018">
        <ele>2584.3</ele>
        <time>2020-02-14T10:09:13.251Z</time>
      </trkpt>
      <trkpt lat="42.57044" lon="1.94011">
        <ele>2586.6</ele>
        <time>2020-02-14T10:09:15.421Z</time>
      </trkpt>
      <trkpt lat="42.57042" lon="1.94009">
        <ele>2585.7</ele>
        <time>2020-02-14T10:09:16.533Z</time>
      </trkpt>
      <trkpt lat="42.57039" lon="1.94008">
        <ele>2586.7</ele>
        <time>2020-02-14T10:09:17.585Z</time>
      </trkpt>
      <trkpt lat="42.57038" lon="1.94009">
        <ele>2587</ele>
        <time>2020-02-14T10:09:18.315Z</time>
      </trkpt>
      <trkpt lat="42.57037" lon="1.94008">
        <ele>2588</ele>
        <time>2020-02-14T10:09:18.895Z</time>
      </trkpt>
      <trkpt lat="42.57036" lon="1.94006">
        <ele>2589.1</ele>
        <time>2020-02-14T10:09:19.742Z</time>
      </trkpt>
      <trkpt lat="42.57036" lon="1.94007">
        <ele>2589</ele>
        <time>2020-02-14T10:09:19.969Z</time>
      </trkpt>
      <trkpt lat="42.57036" lon="1.94007">
        <ele>2585.6</ele>
        <time>2020-02-14T10:09:21.152Z</time>
      </trkpt>
      <trkpt lat="42.57036" lon="1.94007">
        <ele>2589.5</ele>
        <time>2020-02-14T10:09:22.495Z</time>
      </trkpt>
      <trkpt lat="42.57036" lon="1.94007">
        <ele>2589</ele>
        <time>2020-02-14T10:09:22.671Z</time>
      </trkpt>
      <trkpt lat="42.57036" lon="1.94004">
        <ele>2588.5</ele>
        <time>2020-02-14T10:09:23.569Z</time>
      </trkpt>
      <trkpt lat="42.57036" lon="1.94005">
        <ele>2588.6</ele>
        <time>2020-02-14T10:09:23.802Z</time>
      </trkpt>
      <trkpt lat="42.57037" lon="1.94002">
        <ele>2589.6</ele>
        <time>2020-02-14T10:09:24.735Z</time>
      </trkpt>
      <trkpt lat="42.57038" lon="1.94004">
        <ele>2589.9</ele>
        <time>2020-02-14T10:09:25.302Z</time>
      </trkpt>
      <trkpt lat="42.57038" lon="1.94004">
        <ele>2588.6</ele>
        <time>2020-02-14T10:09:25.774Z</time>
      </trkpt>
      <trkpt lat="42.57038" lon="1.94004">
        <ele>2593.9</ele>
        <time>2020-02-14T10:09:27.608Z</time>
      </trkpt>
      <trkpt lat="42.57038" lon="1.94004">
        <ele>2592</ele>
        <time>2020-02-14T10:09:28.259Z</time>
      </trkpt>
      <trkpt lat="42.57038" lon="1.94004">
        <ele>2590.5</ele>
        <time>2020-02-14T10:09:28.780Z</time>
      </trkpt>
      <trkpt lat="42.57037" lon="1.93999">
        <ele>2588.6</ele>
        <time>2020-02-14T10:09:30.464Z</time>
      </trkpt>
      <trkpt lat="42.57035" lon="1.93997">
        <ele>2592.3</ele>
        <time>2020-02-14T10:09:32.037Z</time>
      </trkpt>
      <trkpt lat="42.5703" lon="1.93997">
        <ele>2595.2</ele>
        <time>2020-02-14T10:09:34.145Z</time>
      </trkpt>
      <trkpt lat="42.5703" lon="1.93997">
        <ele>2596.2</ele>
        <time>2020-02-14T10:09:34.500Z</time>
      </trkpt>
      <trkpt lat="42.57028" lon="1.93997">
        <ele>2592.3</ele>
        <time>2020-02-14T10:09:36.063Z</time>
      </trkpt>
      <trkpt lat="42.57026" lon="1.93998">
        <ele>2597.1</ele>
        <time>2020-02-14T10:09:37.997Z</time>
      </trkpt>
      <trkpt lat="42.57025" lon="1.93999">
        <ele>2597.1</ele>
        <time>2020-02-14T10:09:38.539Z</time>
      </trkpt>
      <trkpt lat="42.57023" lon="1.94">
        <ele>2596.3</ele>
        <time>2020-02-14T10:09:39.529Z</time>
      </trkpt>
      <trkpt lat="42.5702" lon="1.93997">
        <ele>2599.5</ele>
        <time>2020-02-14T10:09:41.132Z</time>
      </trkpt>
      <trkpt lat="42.57016" lon="1.93996">
        <ele>2597.1</ele>
        <time>2020-02-14T10:09:43.015Z</time>
      </trkpt>
      <trkpt lat="42.57011" lon="1.93994">
        <ele>2599.5</ele>
        <time>2020-02-14T10:09:45.022Z</time>
      </trkpt>
      <trkpt lat="42.57011" lon="1.93994">
        <ele>2602.1</ele>
        <time>2020-02-14T10:09:45.917Z</time>
      </trkpt>
      <trkpt lat="42.57006" lon="1.93995">
        <ele>2604.8</ele>
        <time>2020-02-14T10:09:48.008Z</time>
      </trkpt>
      <trkpt lat="42.57006" lon="1.93996">
        <ele>2606.3</ele>
        <time>2020-02-14T10:09:48.570Z</time>
      </trkpt>
      <trkpt lat="42.57004" lon="1.93997">
        <ele>2608.3</ele>
        <time>2020-02-14T10:09:49.546Z</time>
      </trkpt>
      <trkpt lat="42.57004" lon="1.93998">
        <ele>2606.9</ele>
        <time>2020-02-14T10:09:50.121Z</time>
      </trkpt>
      <trkpt lat="42.57" lon="1.93998">
        <ele>2609.3</ele>
        <time>2020-02-14T10:09:51.746Z</time>
      </trkpt>
      <trkpt lat="42.56998" lon="1.93997">
        <ele>2607.3</ele>
        <time>2020-02-14T10:09:52.896Z</time>
      </trkpt>
      <trkpt lat="42.56996" lon="1.93998">
        <ele>2608.3</ele>
        <time>2020-02-14T10:09:53.729Z</time>
      </trkpt>
      <trkpt lat="42.56994" lon="1.93998">
        <ele>2610.1</ele>
        <time>2020-02-14T10:09:54.678Z</time>
      </trkpt>
      <trkpt lat="42.56989" lon="1.93993">
        <ele>2609.7</ele>
        <time>2020-02-14T10:09:57.111Z</time>
      </trkpt>
      <trkpt lat="42.56989" lon="1.93993">
        <ele>2613</ele>
        <time>2020-02-14T10:09:58.275Z</time>
      </trkpt>
      <trkpt lat="42.56988" lon="1.93992">
        <ele>2612.6</ele>
        <time>2020-02-14T10:09:58.630Z</time>
      </trkpt>
      <trkpt lat="42.56983" lon="1.93989">
        <ele>2616.4</ele>
        <time>2020-02-14T10:10:01.223Z</time>
      </trkpt>
      <trkpt lat="42.5698" lon="1.93979">
        <ele>2614.4</ele>
        <time>2020-02-14T10:10:04.267Z</time>
      </trkpt>
      <trkpt lat="42.56979" lon="1.93973">
        <ele>2617.8</ele>
        <time>2020-02-14T10:10:06.524Z</time>
      </trkpt>
      <trkpt lat="42.56979" lon="1.93973">
        <ele>2617.9</ele>
        <time>2020-02-14T10:10:06.543Z</time>
      </trkpt>
      <trkpt lat="42.56978" lon="1.93967">
        <ele>2617.8</ele>
        <time>2020-02-14T10:10:08.040Z</time>
      </trkpt>
      <trkpt lat="42.5698" lon="1.93957">
        <ele>2615.4</ele>
        <time>2020-02-14T10:10:11.154Z</time>
      </trkpt>
      <trkpt lat="42.56981" lon="1.93955">
        <ele>2618.9</ele>
        <time>2020-02-14T10:10:12.526Z</time>
      </trkpt>
      <trkpt lat="42.56984" lon="1.9394">
        <ele>2621.3</ele>
        <time>2020-02-14T10:10:17.165Z</time>
      </trkpt>
      <trkpt lat="42.56988" lon="1.93925">
        <ele>2620.8</ele>
        <time>2020-02-14T10:10:21.426Z</time>
      </trkpt>
      <trkpt lat="42.56991" lon="1.93917">
        <ele>2623.7</ele>
        <time>2020-02-14T10:10:24.279Z</time>
      </trkpt>
      <trkpt lat="42.56992" lon="1.93913">
        <ele>2623.7</ele>
        <time>2020-02-14T10:10:25.568Z</time>
      </trkpt>
      <trkpt lat="42.56993" lon="1.9391">
        <ele>2625.5</ele>
        <time>2020-02-14T10:10:26.688Z</time>
      </trkpt>
      <trkpt lat="42.56995" lon="1.93906">
        <ele>2628.9</ele>
        <time>2020-02-14T10:10:28.543Z</time>
      </trkpt>
      <trkpt lat="42.56996" lon="1.93904">
        <ele>2623.6</ele>
        <time>2020-02-14T10:10:30.461Z</time>
      </trkpt>
      <trkpt lat="42.57001" lon="1.93901">
        <ele>2626.9</ele>
        <time>2020-02-14T10:10:32.832Z</time>
      </trkpt>
      <trkpt lat="42.56994" lon="1.93895">
        <ele>2625.6</ele>
        <time>2020-02-14T10:10:35.919Z</time>
      </trkpt>
      <trkpt lat="42.56995" lon="1.93892">
        <ele>2627.4</ele>
        <time>2020-02-14T10:10:37.039Z</time>
      </trkpt>
      <trkpt lat="42.56997" lon="1.93887">
        <ele>2629.8</ele>
        <time>2020-02-14T10:10:38.848Z</time>
      </trkpt>
      <trkpt lat="42.56998" lon="1.93884">
        <ele>2630.3</ele>
        <time>2020-02-14T10:10:39.746Z</time>
      </trkpt>
      <trkpt lat="42.56998" lon="1.93881">
        <ele>2629.9</ele>
        <time>2020-02-14T10:10:40.701Z</time>
      </trkpt>
      <trkpt lat="42.56996" lon="1.93875">
        <ele>2633.2</ele>
        <time>2020-02-14T10:10:42.863Z</time>
      </trkpt>
      <trkpt lat="42.56996" lon="1.93874">
        <ele>2634.6</ele>
        <time>2020-02-14T10:10:43.454Z</time>
      </trkpt>
      <trkpt lat="42.56992" lon="1.93871">
        <ele>2636.1</ele>
        <time>2020-02-14T10:10:45.486Z</time>
      </trkpt>
      <trkpt lat="42.56992" lon="1.93869">
        <ele>2636.1</ele>
        <time>2020-02-14T10:10:46.145Z</time>
      </trkpt>
      <trkpt lat="42.56992" lon="1.93861">
        <ele>2639.5</ele>
        <time>2020-02-14T10:10:48.675Z</time>
      </trkpt>
      <trkpt lat="42.56993" lon="1.93853">
        <ele>2642.9</ele>
        <time>2020-02-14T10:10:51.209Z</time>
      </trkpt>
      <trkpt lat="42.56993" lon="1.93852">
        <ele>2641.8</ele>
        <time>2020-02-14T10:10:51.646Z</time>
      </trkpt>
      <trkpt lat="42.56989" lon="1.93851">
        <ele>2642.3</ele>
        <time>2020-02-14T10:10:53.284Z</time>
      </trkpt>
      <trkpt lat="42.56991" lon="1.93842">
        <ele>2644.3</ele>
        <time>2020-02-14T10:10:55.996Z</time>
      </trkpt>
      <trkpt lat="42.5699" lon="1.9384">
        <ele>2647.6</ele>
        <time>2020-02-14T10:10:57.290Z</time>
      </trkpt>
      <trkpt lat="42.5699" lon="1.9384">
        <ele>2647.2</ele>
        <time>2020-02-14T10:10:57.532Z</time>
      </trkpt>
      <trkpt lat="42.56985" lon="1.93836">
        <ele>2646.8</ele>
        <time>2020-02-14T10:10:59.775Z</time>
      </trkpt>
      <trkpt lat="42.56986" lon="1.93831">
        <ele>2647.6</ele>
        <time>2020-02-14T10:11:01.218Z</time>
      </trkpt>
      <trkpt lat="42.56984" lon="1.93828">
        <ele>2651</ele>
        <time>2020-02-14T10:11:02.894Z</time>
      </trkpt>
      <trkpt lat="42.56983" lon="1.93827">
        <ele>2651</ele>
        <time>2020-02-14T10:11:03.358Z</time>
      </trkpt>
      <trkpt lat="42.56984" lon="1.93821">
        <ele>2651.6</ele>
        <time>2020-02-14T10:11:05.021Z</time>
      </trkpt>
      <trkpt lat="42.56981" lon="1.93816">
        <ele>2654.9</ele>
        <time>2020-02-14T10:11:07.099Z</time>
      </trkpt>
      <trkpt lat="42.56978" lon="1.93811">
        <ele>2653.4</ele>
        <time>2020-02-14T10:11:08.984Z</time>
      </trkpt>
      <trkpt lat="42.56978" lon="1.93804">
        <ele>2656.8</ele>
        <time>2020-02-14T10:11:11.373Z</time>
      </trkpt>
      <trkpt lat="42.56978" lon="1.9379">
        <ele>2655.4</ele>
        <time>2020-02-14T10:11:15.412Z</time>
      </trkpt>
      <trkpt lat="42.56977" lon="1.93788">
        <ele>2657.8</ele>
        <time>2020-02-14T10:11:16.465Z</time>
      </trkpt>
      <trkpt lat="42.56976" lon="1.93787">
        <ele>2658.8</ele>
        <time>2020-02-14T10:11:17.132Z</time>
      </trkpt>
      <trkpt lat="42.56975" lon="1.93786">
        <ele>2659.7</ele>
        <time>2020-02-14T10:11:17.813Z</time>
      </trkpt>
      <trkpt lat="42.56973" lon="1.93785">
        <ele>2661.1</ele>
        <time>2020-02-14T10:11:18.589Z</time>
      </trkpt>
      <trkpt lat="42.56974" lon="1.9378">
        <ele>2661.1</ele>
        <time>2020-02-14T10:11:20.129Z</time>
      </trkpt>
      <trkpt lat="42.56975" lon="1.93774">
        <ele>2665.9</ele>
        <time>2020-02-14T10:11:22.557Z</time>
      </trkpt>
      <trkpt lat="42.56973" lon="1.93769">
        <ele>2663.6</ele>
        <time>2020-02-14T10:11:24.260Z</time>
      </trkpt>
      <trkpt lat="42.56971" lon="1.93766">
        <ele>2666.5</ele>
        <time>2020-02-14T10:11:25.679Z</time>
      </trkpt>
      <trkpt lat="42.56969" lon="1.93763">
        <ele>2667.3</ele>
        <time>2020-02-14T10:11:26.965Z</time>
      </trkpt>
      <trkpt lat="42.56969" lon="1.93759">
        <ele>2666.8</ele>
        <time>2020-02-14T10:11:28.174Z</time>
      </trkpt>
      <trkpt lat="42.56969" lon="1.93756">
        <ele>2668.9</ele>
        <time>2020-02-14T10:11:29.216Z</time>
      </trkpt>
      <trkpt lat="42.56973" lon="1.93749">
        <ele>2672.2</ele>
        <time>2020-02-14T10:11:32.034Z</time>
      </trkpt>
      <trkpt lat="42.56973" lon="1.93746">
        <ele>2673.2</ele>
        <time>2020-02-14T10:11:32.772Z</time>
      </trkpt>
      <trkpt lat="42.5697" lon="1.93742">
        <ele>2674</ele>
        <time>2020-02-14T10:11:34.448Z</time>
      </trkpt>
      <trkpt lat="42.56966" lon="1.93738">
        <ele>2675</ele>
        <time>2020-02-14T10:11:36.464Z</time>
      </trkpt>
      <trkpt lat="42.56966" lon="1.93737">
        <ele>2674.5</ele>
        <time>2020-02-14T10:11:36.792Z</time>
      </trkpt>
      <trkpt lat="42.56969" lon="1.93731">
        <ele>2678.4</ele>
        <time>2020-02-14T10:11:39.315Z</time>
      </trkpt>
      <trkpt lat="42.56966" lon="1.9373">
        <ele>2679.4</ele>
        <time>2020-02-14T10:11:40.560Z</time>
      </trkpt>
      <trkpt lat="42.56965" lon="1.93729">
        <ele>2681.3</ele>
        <time>2020-02-14T10:11:41.460Z</time>
      </trkpt>
      <trkpt lat="42.56965" lon="1.93728">
        <ele>2682.3</ele>
        <time>2020-02-14T10:11:41.889Z</time>
      </trkpt>
      <trkpt lat="42.56963" lon="1.93722">
        <ele>2681.4</ele>
        <time>2020-02-14T10:11:43.755Z</time>
      </trkpt>
      <trkpt lat="42.56966" lon="1.93714">
        <ele>2684.7</ele>
        <time>2020-02-14T10:11:46.465Z</time>
      </trkpt>
      <trkpt lat="42.56966" lon="1.93713">
        <ele>2685.2</ele>
        <time>2020-02-14T10:11:46.755Z</time>
      </trkpt>
      <trkpt lat="42.56967" lon="1.93707">
        <ele>2685.7</ele>
        <time>2020-02-14T10:11:48.561Z</time>
      </trkpt>
      <trkpt lat="42.56967" lon="1.93704">
        <ele>2689</ele>
        <time>2020-02-14T10:11:49.964Z</time>
      </trkpt>
      <trkpt lat="42.56966" lon="1.93703">
        <ele>2688.5</ele>
        <time>2020-02-14T10:11:50.520Z</time>
      </trkpt>
      <trkpt lat="42.56963" lon="1.937">
        <ele>2688.5</ele>
        <time>2020-02-14T10:11:51.830Z</time>
      </trkpt>
      <trkpt lat="42.56964" lon="1.93692">
        <ele>2690.9</ele>
        <time>2020-02-14T10:11:54.268Z</time>
      </trkpt>
      <trkpt lat="42.56963" lon="1.93684">
        <ele>2694.3</ele>
        <time>2020-02-14T10:11:56.788Z</time>
      </trkpt>
      <trkpt lat="42.56961" lon="1.93676">
        <ele>2696.3</ele>
        <time>2020-02-14T10:11:59.392Z</time>
      </trkpt>
      <trkpt lat="42.56962" lon="1.93671">
        <ele>2698.6</ele>
        <time>2020-02-14T10:12:01.004Z</time>
      </trkpt>
      <trkpt lat="42.56961" lon="1.93666">
        <ele>2700</ele>
        <time>2020-02-14T10:12:02.691Z</time>
      </trkpt>
      <trkpt lat="42.56963" lon="1.93664">
        <ele>2701.9</ele>
        <time>2020-02-14T10:12:03.963Z</time>
      </trkpt>
      <trkpt lat="42.56962" lon="1.93661">
        <ele>2702.4</ele>
        <time>2020-02-14T10:12:04.766Z</time>
      </trkpt>
      <trkpt lat="42.56959" lon="1.93657">
        <ele>2704</ele>
        <time>2020-02-14T10:12:06.475Z</time>
      </trkpt>
      <trkpt lat="42.56961" lon="1.93655">
        <ele>2705.8</ele>
        <time>2020-02-14T10:12:07.652Z</time>
      </trkpt>
      <trkpt lat="42.56962" lon="1.93655">
        <ele>2702.4</ele>
        <time>2020-02-14T10:12:08.881Z</time>
      </trkpt>
      <trkpt lat="42.56962" lon="1.93655">
        <ele>2705.8</ele>
        <time>2020-02-14T10:12:10.074Z</time>
      </trkpt>
      <trkpt lat="42.56962" lon="1.93655">
        <ele>2709.6</ele>
        <time>2020-02-14T10:12:11.390Z</time>
      </trkpt>
      <trkpt lat="42.56962" lon="1.93655">
        <ele>2701.5</ele>
        <time>2020-02-14T10:12:14.216Z</time>
      </trkpt>
      <trkpt lat="42.56962" lon="1.93655">
        <ele>2706.8</ele>
        <time>2020-02-14T10:12:16.060Z</time>
      </trkpt>
      <trkpt lat="42.56961" lon="1.93647">
        <ele>2709.2</ele>
        <time>2020-02-14T10:12:18.607Z</time>
      </trkpt>
      <trkpt lat="42.56961" lon="1.93646">
        <ele>2707.3</ele>
        <time>2020-02-14T10:12:19.326Z</time>
      </trkpt>
      <trkpt lat="42.56961" lon="1.93646">
        <ele>2710.6</ele>
        <time>2020-02-14T10:12:20.503Z</time>
      </trkpt>
      <trkpt lat="42.56958" lon="1.93638">
        <ele>2710.1</ele>
        <time>2020-02-14T10:12:22.787Z</time>
      </trkpt>
      <trkpt lat="42.56957" lon="1.93629">
        <ele>2712.6</ele>
        <time>2020-02-14T10:12:25.635Z</time>
      </trkpt>
      <trkpt lat="42.56959" lon="1.93626">
        <ele>2716</ele>
        <time>2020-02-14T10:12:27.298Z</time>
      </trkpt>
      <trkpt lat="42.56957" lon="1.93619">
        <ele>2717.9</ele>
        <time>2020-02-14T10:12:29.322Z</time>
      </trkpt>
      <trkpt lat="42.56958" lon="1.93617">
        <ele>2718.8</ele>
        <time>2020-02-14T10:12:30.081Z</time>
      </trkpt>
      <trkpt lat="42.56955" lon="1.9361">
        <ele>2720.7</ele>
        <time>2020-02-14T10:12:32.460Z</time>
      </trkpt>
      <trkpt lat="42.56954" lon="1.93609">
        <ele>2723.7</ele>
        <time>2020-02-14T10:12:33.550Z</time>
      </trkpt>
      <trkpt lat="42.56954" lon="1.93608">
        <ele>2721.3</ele>
        <time>2020-02-14T10:12:34.459Z</time>
      </trkpt>
      <trkpt lat="42.56956" lon="1.93607">
        <ele>2725</ele>
        <time>2020-02-14T10:12:35.894Z</time>
      </trkpt>
      <trkpt lat="42.56956" lon="1.93607">
        <ele>2725.5</ele>
        <time>2020-02-14T10:12:36.068Z</time>
      </trkpt>
      <trkpt lat="42.56956" lon="1.93607">
        <ele>2726.5</ele>
        <time>2020-02-14T10:12:36.428Z</time>
      </trkpt>
      <trkpt lat="42.56955" lon="1.93604">
        <ele>2728.4</ele>
        <time>2020-02-14T10:12:37.546Z</time>
      </trkpt>
      <trkpt lat="42.56955" lon="1.93603">
        <ele>2728</ele>
        <time>2020-02-14T10:12:37.847Z</time>
      </trkpt>
      <trkpt lat="42.56955" lon="1.93601">
        <ele>2729.4</ele>
        <time>2020-02-14T10:12:38.585Z</time>
      </trkpt>
      <trkpt lat="42.56955" lon="1.93601">
        <ele>2728.9</ele>
        <time>2020-02-14T10:12:38.777Z</time>
      </trkpt>
      <trkpt lat="42.56954" lon="1.93603">
        <ele>2728.4</ele>
        <time>2020-02-14T10:12:39.312Z</time>
      </trkpt>
      <trkpt lat="42.5696" lon="1.936">
        <ele>2727.4</ele>
        <time>2020-02-14T10:12:41.769Z</time>
      </trkpt>
      <trkpt lat="42.56963" lon="1.93606">
        <ele>2729.4</ele>
        <time>2020-02-14T10:12:44.031Z</time>
      </trkpt>
      <trkpt lat="42.56967" lon="1.93602">
        <ele>2728.4</ele>
        <time>2020-02-14T10:12:45.721Z</time>
      </trkpt>
      <trkpt lat="42.56969" lon="1.93599">
        <ele>2729.8</ele>
        <time>2020-02-14T10:12:47.031Z</time>
      </trkpt>
      <trkpt lat="42.5697" lon="1.93593">
        <ele>2733.7</ele>
        <time>2020-02-14T10:12:49.296Z</time>
      </trkpt>
      <trkpt lat="42.5697" lon="1.93593">
        <ele>2734.1</ele>
        <time>2020-02-14T10:12:49.516Z</time>
      </trkpt>
      <trkpt lat="42.56971" lon="1.93592">
        <ele>2735.1</ele>
        <time>2020-02-14T10:12:49.904Z</time>
      </trkpt>
      <trkpt lat="42.56974" lon="1.93582">
        <ele>2737.5</ele>
        <time>2020-02-14T10:12:53.118Z</time>
      </trkpt>
      <trkpt lat="42.56976" lon="1.93578">
        <ele>2739.4</ele>
        <time>2020-02-14T10:12:54.567Z</time>
      </trkpt>
      <trkpt lat="42.56976" lon="1.93578">
        <ele>2743.7</ele>
        <time>2020-02-14T10:12:56.056Z</time>
      </trkpt>
      <trkpt lat="42.56975" lon="1.93579">
        <ele>2743.3</ele>
        <time>2020-02-14T10:12:56.311Z</time>
      </trkpt>
      <trkpt lat="42.56974" lon="1.93577">
        <ele>2745.2</ele>
        <time>2020-02-14T10:12:57.298Z</time>
      </trkpt>
      <trkpt lat="42.56971" lon="1.93572">
        <ele>2747.2</ele>
        <time>2020-02-14T10:12:59.116Z</time>
      </trkpt>
      <trkpt lat="42.5697" lon="1.93573">
        <ele>2748.2</ele>
        <time>2020-02-14T10:12:59.636Z</time>
      </trkpt>
      <trkpt lat="42.56967" lon="1.93568">
        <ele>2751.4</ele>
        <time>2020-02-14T10:13:01.831Z</time>
      </trkpt>
      <trkpt lat="42.56967" lon="1.93568">
        <ele>2748.2</ele>
        <time>2020-02-14T10:13:02.956Z</time>
      </trkpt>
      <trkpt lat="42.56967" lon="1.93568">
        <ele>2749.6</ele>
        <time>2020-02-14T10:13:03.442Z</time>
      </trkpt>
      <trkpt lat="42.56967" lon="1.93565">
        <ele>2748.6</ele>
        <time>2020-02-14T10:13:04.340Z</time>
      </trkpt>
      <trkpt lat="42.56966" lon="1.93559">
        <ele>2750.6</ele>
        <time>2020-02-14T10:13:06.209Z</time>
      </trkpt>
      <trkpt lat="42.56969" lon="1.9355">
        <ele>2749.6</ele>
        <time>2020-02-14T10:13:08.978Z</time>
      </trkpt>
      <trkpt lat="42.56969" lon="1.93542">
        <ele>2751.1</ele>
        <time>2020-02-14T10:13:11.438Z</time>
      </trkpt>
      <trkpt lat="42.56969" lon="1.93539">
        <ele>2749.5</ele>
        <time>2020-02-14T10:13:12.399Z</time>
      </trkpt>
      <trkpt lat="42.56968" lon="1.93538">
        <ele>2755.3</ele>
        <time>2020-02-14T10:13:14.452Z</time>
      </trkpt>
      <trkpt lat="42.56968" lon="1.93538">
        <ele>2754.4</ele>
        <time>2020-02-14T10:13:14.807Z</time>
      </trkpt>
      <trkpt lat="42.56968" lon="1.93535">
        <ele>2752.4</ele>
        <time>2020-02-14T10:13:15.805Z</time>
      </trkpt>
      <trkpt lat="42.56968" lon="1.93532">
        <ele>2753.4</ele>
        <time>2020-02-14T10:13:16.646Z</time>
      </trkpt>
      <trkpt lat="42.56969" lon="1.93531">
        <ele>2753</ele>
        <time>2020-02-14T10:13:17.134Z</time>
      </trkpt>
      <trkpt lat="42.56968" lon="1.93523">
        <ele>2756.2</ele>
        <time>2020-02-14T10:13:19.817Z</time>
      </trkpt>
      <trkpt lat="42.56968" lon="1.93515">
        <ele>2755.3</ele>
        <time>2020-02-14T10:13:22.115Z</time>
      </trkpt>
      <trkpt lat="42.56966" lon="1.93514">
        <ele>2758.2</ele>
        <time>2020-02-14T10:13:23.289Z</time>
      </trkpt>
      <trkpt lat="42.56966" lon="1.93512">
        <ele>2753.9</ele>
        <time>2020-02-14T10:13:24.960Z</time>
      </trkpt>
      <trkpt lat="42.56966" lon="1.9351">
        <ele>2755.3</ele>
        <time>2020-02-14T10:13:25.660Z</time>
      </trkpt>
      <trkpt lat="42.56965" lon="1.93508">
        <ele>2759.1</ele>
        <time>2020-02-14T10:13:27.144Z</time>
      </trkpt>
      <trkpt lat="42.56965" lon="1.93505">
        <ele>2759.6</ele>
        <time>2020-02-14T10:13:27.835Z</time>
      </trkpt>
      <trkpt lat="42.56962" lon="1.93494">
        <ele>2763.1</ele>
        <time>2020-02-14T10:13:31.546Z</time>
      </trkpt>
      <trkpt lat="42.56962" lon="1.93493">
        <ele>2763</ele>
        <time>2020-02-14T10:13:31.890Z</time>
      </trkpt>
      <trkpt lat="42.56962" lon="1.93487">
        <ele>2765.4</ele>
        <time>2020-02-14T10:13:33.794Z</time>
      </trkpt>
      <trkpt lat="42.56962" lon="1.93483">
        <ele>2769.3</ele>
        <time>2020-02-14T10:13:35.549Z</time>
      </trkpt>
      <trkpt lat="42.5696" lon="1.93478">
        <ele>2772.1</ele>
        <time>2020-02-14T10:13:37.242Z</time>
      </trkpt>
      <trkpt lat="42.5696" lon="1.93478">
        <ele>2772.1</ele>
        <time>2020-02-14T10:13:37.242Z</time>
      </trkpt>
      <trkpt lat="42.56958" lon="1.93476">
        <ele>2771.1</ele>
        <time>2020-02-14T10:13:38.262Z</time>
      </trkpt>
      <trkpt lat="42.5696" lon="1.93471">
        <ele>2767.8</ele>
        <time>2020-02-14T10:13:40.326Z</time>
      </trkpt>
      <trkpt lat="42.5696" lon="1.93469">
        <ele>2771.2</ele>
        <time>2020-02-14T10:13:41.533Z</time>
      </trkpt>
      <trkpt lat="42.56959" lon="1.93467">
        <ele>2772.6</ele>
        <time>2020-02-14T10:13:42.447Z</time>
      </trkpt>
      <trkpt lat="42.56959" lon="1.93464">
        <ele>2776.4</ele>
        <time>2020-02-14T10:13:43.983Z</time>
      </trkpt>
      <trkpt lat="42.56959" lon="1.93463">
        <ele>2773.1</ele>
        <time>2020-02-14T10:13:45.171Z</time>
      </trkpt>
      <trkpt lat="42.56959" lon="1.93459">
        <ele>2772.2</ele>
        <time>2020-02-14T10:13:46.389Z</time>
      </trkpt>
      <trkpt lat="42.56959" lon="1.93458">
        <ele>2775.6</ele>
        <time>2020-02-14T10:13:47.663Z</time>
      </trkpt>
      <trkpt lat="42.56959" lon="1.93456">
        <ele>2776.4</ele>
        <time>2020-02-14T10:13:48.293Z</time>
      </trkpt>
      <trkpt lat="42.56964" lon="1.93443">
        <ele>2776.4</ele>
        <time>2020-02-14T10:13:52.261Z</time>
      </trkpt>
      <trkpt lat="42.56968" lon="1.93438">
        <ele>2779.9</ele>
        <time>2020-02-14T10:13:54.634Z</time>
      </trkpt>
      <trkpt lat="42.56967" lon="1.93439">
        <ele>2775.6</ele>
        <time>2020-02-14T10:13:56.129Z</time>
      </trkpt>
      <trkpt lat="42.56967" lon="1.93439">
        <ele>2782.7</ele>
        <time>2020-02-14T10:13:58.614Z</time>
      </trkpt>
      <trkpt lat="42.56967" lon="1.93439">
        <ele>2786.1</ele>
        <time>2020-02-14T10:13:59.780Z</time>
      </trkpt>
      <trkpt lat="42.56967" lon="1.93439">
        <ele>2778.4</ele>
        <time>2020-02-14T10:14:02.446Z</time>
      </trkpt>
      <trkpt lat="42.56967" lon="1.93439">
        <ele>2781.2</ele>
        <time>2020-02-14T10:14:03.417Z</time>
      </trkpt>
      <trkpt lat="42.56967" lon="1.93439">
        <ele>2782.3</ele>
        <time>2020-02-14T10:14:03.792Z</time>
      </trkpt>
      <trkpt lat="42.56964" lon="1.93444">
        <ele>2782.2</ele>
        <time>2020-02-14T10:14:05.932Z</time>
      </trkpt>
      <trkpt lat="42.56962" lon="1.93445">
        <ele>2784.7</ele>
        <time>2020-02-14T10:14:07.009Z</time>
      </trkpt>
      <trkpt lat="42.56962" lon="1.93444">
        <ele>2786.5</ele>
        <time>2020-02-14T10:14:07.700Z</time>
      </trkpt>
      <trkpt lat="42.56962" lon="1.93444">
        <ele>2786.6</ele>
        <time>2020-02-14T10:14:07.714Z</time>
      </trkpt>
      <trkpt lat="42.56962" lon="1.93444">
        <ele>2785.1</ele>
        <time>2020-02-14T10:14:08.218Z</time>
      </trkpt>
      <trkpt lat="42.56962" lon="1.93444">
        <ele>2781.8</ele>
        <time>2020-02-14T10:14:09.374Z</time>
      </trkpt>
      <trkpt lat="42.56962" lon="1.93444">
        <ele>2781.3</ele>
        <time>2020-02-14T10:14:09.556Z</time>
      </trkpt>
      <trkpt lat="42.56962" lon="1.93444">
        <ele>2782.8</ele>
        <time>2020-02-14T10:14:10.077Z</time>
      </trkpt>
      <trkpt lat="42.56962" lon="1.93444">
        <ele>2786.5</ele>
        <time>2020-02-14T10:14:11.376Z</time>
      </trkpt>
      <trkpt lat="42.56962" lon="1.93444">
        <ele>2785.6</ele>
        <time>2020-02-14T10:14:11.690Z</time>
      </trkpt>
      <trkpt lat="42.56962" lon="1.93444">
        <ele>2781.7</ele>
        <time>2020-02-14T10:14:13.041Z</time>
      </trkpt>
      <trkpt lat="42.56962" lon="1.93444">
        <ele>2781.7</ele>
        <time>2020-02-14T10:14:13.044Z</time>
      </trkpt>
      <trkpt lat="42.56962" lon="1.93444">
        <ele>2783.2</ele>
        <time>2020-02-14T10:14:13.573Z</time>
      </trkpt>
      <trkpt lat="42.56961" lon="1.93445">
        <ele>2783.3</ele>
        <time>2020-02-14T10:14:13.874Z</time>
      </trkpt>
      <trkpt lat="42.56961" lon="1.9344">
        <ele>2783.7</ele>
        <time>2020-02-14T10:14:15.445Z</time>
      </trkpt>
      <trkpt lat="42.56962" lon="1.93436">
        <ele>2787</ele>
        <time>2020-02-14T10:14:16.958Z</time>
      </trkpt>
      <trkpt lat="42.56962" lon="1.93436">
        <ele>2783.7</ele>
        <time>2020-02-14T10:14:18.133Z</time>
      </trkpt>
      <trkpt lat="42.56962" lon="1.93436">
        <ele>2783.6</ele>
        <time>2020-02-14T10:14:18.135Z</time>
      </trkpt>
      <trkpt lat="42.56962" lon="1.93435">
        <ele>2785.7</ele>
        <time>2020-02-14T10:14:18.922Z</time>
      </trkpt>
      <trkpt lat="42.56966" lon="1.93429">
        <ele>2784.1</ele>
        <time>2020-02-14T10:14:21.295Z</time>
      </trkpt>
      <trkpt lat="42.5697" lon="1.93423">
        <ele>2787.5</ele>
        <time>2020-02-14T10:14:23.761Z</time>
      </trkpt>
      <trkpt lat="42.56973" lon="1.93419">
        <ele>2785.7</ele>
        <time>2020-02-14T10:14:25.589Z</time>
      </trkpt>
      <trkpt lat="42.56975" lon="1.93414">
        <ele>2789.5</ele>
        <time>2020-02-14T10:14:27.680Z</time>
      </trkpt>
      <trkpt lat="42.56975" lon="1.93413">
        <ele>2788.9</ele>
        <time>2020-02-14T10:14:28.036Z</time>
      </trkpt>
      <trkpt lat="42.56978" lon="1.93409">
        <ele>2790.4</ele>
        <time>2020-02-14T10:14:29.549Z</time>
      </trkpt>
      <trkpt lat="42.56979" lon="1.93406">
        <ele>2790.4</ele>
        <time>2020-02-14T10:14:30.623Z</time>
      </trkpt>
      <trkpt lat="42.56981" lon="1.93403">
        <ele>2792.3</ele>
        <time>2020-02-14T10:14:32.001Z</time>
      </trkpt>
      <trkpt lat="42.56982" lon="1.93401">
        <ele>2794.8</ele>
        <time>2020-02-14T10:14:33.062Z</time>
      </trkpt>
      <trkpt lat="42.56983" lon="1.93397">
        <ele>2798.5</ele>
        <time>2020-02-14T10:14:34.817Z</time>
      </trkpt>
      <trkpt lat="42.56979" lon="1.93395">
        <ele>2801.4</ele>
        <time>2020-02-14T10:14:36.697Z</time>
      </trkpt>
      <trkpt lat="42.5698" lon="1.93394">
        <ele>2801.9</ele>
        <time>2020-02-14T10:14:37.055Z</time>
      </trkpt>
      <trkpt lat="42.5698" lon="1.93392">
        <ele>2800.5</ele>
        <time>2020-02-14T10:14:37.668Z</time>
      </trkpt>
      <trkpt lat="42.5698" lon="1.93392">
        <ele>2802</ele>
        <time>2020-02-14T10:14:38.180Z</time>
      </trkpt>
      <trkpt lat="42.56979" lon="1.93392">
        <ele>2801</ele>
        <time>2020-02-14T10:14:38.690Z</time>
      </trkpt>
      <trkpt lat="42.56979" lon="1.93391">
        <ele>2802.9</ele>
        <time>2020-02-14T10:14:39.382Z</time>
      </trkpt>
      <trkpt lat="42.5698" lon="1.93388">
        <ele>2804.4</ele>
        <time>2020-02-14T10:14:40.627Z</time>
      </trkpt>
      <trkpt lat="42.56979" lon="1.93385">
        <ele>2808.2</ele>
        <time>2020-02-14T10:14:42.198Z</time>
      </trkpt>
      <trkpt lat="42.5698" lon="1.93378">
        <ele>2809.1</ele>
        <time>2020-02-14T10:14:44.482Z</time>
      </trkpt>
      <trkpt lat="42.56981" lon="1.93377">
        <ele>2808.7</ele>
        <time>2020-02-14T10:14:44.796Z</time>
      </trkpt>
      <trkpt lat="42.56981" lon="1.93377">
        <ele>2811.1</ele>
        <time>2020-02-14T10:14:45.634Z</time>
      </trkpt>
      <trkpt lat="42.56985" lon="1.93374">
        <ele>2812.5</ele>
        <time>2020-02-14T10:14:47.246Z</time>
      </trkpt>
      <trkpt lat="42.56985" lon="1.93374">
        <ele>2808.6</ele>
        <time>2020-02-14T10:14:48.629Z</time>
      </trkpt>
      <trkpt lat="42.56986" lon="1.93374">
        <ele>2809.1</ele>
        <time>2020-02-14T10:14:48.933Z</time>
      </trkpt>
      <trkpt lat="42.56986" lon="1.9337">
        <ele>2812.1</ele>
        <time>2020-02-14T10:14:50.468Z</time>
      </trkpt>
      <trkpt lat="42.56987" lon="1.93363">
        <ele>2815.5</ele>
        <time>2020-02-14T10:14:52.689Z</time>
      </trkpt>
      <trkpt lat="42.5699" lon="1.93359">
        <ele>2815.4</ele>
        <time>2020-02-14T10:14:54.293Z</time>
      </trkpt>
      <trkpt lat="42.56991" lon="1.93359">
        <ele>2815.4</ele>
        <time>2020-02-14T10:14:54.724Z</time>
      </trkpt>
      <trkpt lat="42.5699" lon="1.93362">
        <ele>2815</ele>
        <time>2020-02-14T10:14:55.470Z</time>
      </trkpt>
      <trkpt lat="42.56991" lon="1.9336">
        <ele>2813.9</ele>
        <time>2020-02-14T10:14:56.037Z</time>
      </trkpt>
      <trkpt lat="42.56993" lon="1.93357">
        <ele>2815.9</ele>
        <time>2020-02-14T10:14:57.341Z</time>
      </trkpt>
      <trkpt lat="42.56993" lon="1.93357">
        <ele>2821.1</ele>
        <time>2020-02-14T10:14:59.175Z</time>
      </trkpt>
      <trkpt lat="42.56993" lon="1.93357">
        <ele>2819.3</ele>
        <time>2020-02-14T10:14:59.848Z</time>
      </trkpt>
      <trkpt lat="42.56993" lon="1.93355">
        <ele>2816.3</ele>
        <time>2020-02-14T10:15:00.930Z</time>
      </trkpt>
      <trkpt lat="42.56995" lon="1.93353">
        <ele>2813.9</ele>
        <time>2020-02-14T10:15:02.259Z</time>
      </trkpt>
      <trkpt lat="42.56996" lon="1.93349">
        <ele>2817.9</ele>
        <time>2020-02-14T10:15:04.047Z</time>
      </trkpt>
      <trkpt lat="42.56997" lon="1.93348">
        <ele>2817.4</ele>
        <time>2020-02-14T10:15:04.331Z</time>
      </trkpt>
      <trkpt lat="42.56997" lon="1.93348">
        <ele>2816.9</ele>
        <time>2020-02-14T10:15:04.565Z</time>
      </trkpt>
      <trkpt lat="42.56997" lon="1.93347">
        <ele>2818.2</ele>
        <time>2020-02-14T10:15:05.132Z</time>
      </trkpt>
      <trkpt lat="42.56997" lon="1.93345">
        <ele>2819.2</ele>
        <time>2020-02-14T10:15:05.902Z</time>
      </trkpt>
      <trkpt lat="42.56997" lon="1.93345">
        <ele>2822.7</ele>
        <time>2020-02-14T10:15:07.101Z</time>
      </trkpt>
      <trkpt lat="42.56997" lon="1.93345">
        <ele>2822.2</ele>
        <time>2020-02-14T10:15:07.272Z</time>
      </trkpt>
      <trkpt lat="42.56995" lon="1.93342">
        <ele>2825.5</ele>
        <time>2020-02-14T10:15:08.940Z</time>
      </trkpt>
      <trkpt lat="42.57" lon="1.93337">
        <ele>2826.4</ele>
        <time>2020-02-14T10:15:11.229Z</time>
      </trkpt>
      <trkpt lat="42.57001" lon="1.93335">
        <ele>2825.9</ele>
        <time>2020-02-14T10:15:12.002Z</time>
      </trkpt>
      <trkpt lat="42.57003" lon="1.93335">
        <ele>2828.3</ele>
        <time>2020-02-14T10:15:12.992Z</time>
      </trkpt>
      <trkpt lat="42.57007" lon="1.93329">
        <ele>2831.8</ele>
        <time>2020-02-14T10:15:15.569Z</time>
      </trkpt>
      <trkpt lat="42.57008" lon="1.93328">
        <ele>2832.8</ele>
        <time>2020-02-14T10:15:16.231Z</time>
      </trkpt>
      <trkpt lat="42.57013" lon="1.9332">
        <ele>2830.7</ele>
        <time>2020-02-14T10:15:19.391Z</time>
      </trkpt>
      <trkpt lat="42.57014" lon="1.93316">
        <ele>2833.2</ele>
        <time>2020-02-14T10:15:20.818Z</time>
      </trkpt>
      <trkpt lat="42.57014" lon="1.93312">
        <ele>2836.1</ele>
        <time>2020-02-14T10:15:22.391Z</time>
      </trkpt>
      <trkpt lat="42.57014" lon="1.93311">
        <ele>2836.1</ele>
        <time>2020-02-14T10:15:22.679Z</time>
      </trkpt>
      <trkpt lat="42.57017" lon="1.93306">
        <ele>2838.9</ele>
        <time>2020-02-14T10:15:24.743Z</time>
      </trkpt>
      <trkpt lat="42.57019" lon="1.93297">
        <ele>2840.5</ele>
        <time>2020-02-14T10:15:27.428Z</time>
      </trkpt>
      <trkpt lat="42.57019" lon="1.93296">
        <ele>2840.5</ele>
        <time>2020-02-14T10:15:27.759Z</time>
      </trkpt>
      <trkpt lat="42.57019" lon="1.93294">
        <ele>2845.6</ele>
        <time>2020-02-14T10:15:29.620Z</time>
      </trkpt>
      <trkpt lat="42.57019" lon="1.93294">
        <ele>2844.7</ele>
        <time>2020-02-14T10:15:29.937Z</time>
      </trkpt>
      <trkpt lat="42.5702" lon="1.93292">
        <ele>2842.8</ele>
        <time>2020-02-14T10:15:30.792Z</time>
      </trkpt>
      <trkpt lat="42.57019" lon="1.93286">
        <ele>2846.2</ele>
        <time>2020-02-14T10:15:32.907Z</time>
      </trkpt>
      <trkpt lat="42.57019" lon="1.93285">
        <ele>2847.2</ele>
        <time>2020-02-14T10:15:33.485Z</time>
      </trkpt>
      <trkpt lat="42.57022" lon="1.93279">
        <ele>2849.1</ele>
        <time>2020-02-14T10:15:35.780Z</time>
      </trkpt>
      <trkpt lat="42.57026" lon="1.93275">
        <ele>2850.1</ele>
        <time>2020-02-14T10:15:37.679Z</time>
      </trkpt>
      <trkpt lat="42.57028" lon="1.93273">
        <ele>2850.9</ele>
        <time>2020-02-14T10:15:38.506Z</time>
      </trkpt>
      <trkpt lat="42.57031" lon="1.93268">
        <ele>2854.4</ele>
        <time>2020-02-14T10:15:40.912Z</time>
      </trkpt>
      <trkpt lat="42.57031" lon="1.93267">
        <ele>2856.3</ele>
        <time>2020-02-14T10:15:41.723Z</time>
      </trkpt>
      <trkpt lat="42.57034" lon="1.93261">
        <ele>2856.7</ele>
        <time>2020-02-14T10:15:43.771Z</time>
      </trkpt>
      <trkpt lat="42.57037" lon="1.93258">
        <ele>2858.1</ele>
        <time>2020-02-14T10:15:45.108Z</time>
      </trkpt>
      <trkpt lat="42.57039" lon="1.93255">
        <ele>2861.5</ele>
        <time>2020-02-14T10:15:46.890Z</time>
      </trkpt>
      <trkpt lat="42.57047" lon="1.9325">
        <ele>2864.5</ele>
        <time>2020-02-14T10:15:50.283Z</time>
      </trkpt>
      <trkpt lat="42.57047" lon="1.93246">
        <ele>2865.8</ele>
        <time>2020-02-14T10:15:51.547Z</time>
      </trkpt>
      <trkpt lat="42.57049" lon="1.93243">
        <ele>2868.3</ele>
        <time>2020-02-14T10:15:53.037Z</time>
      </trkpt>
      <trkpt lat="42.57045" lon="1.93236">
        <ele>2871.1</ele>
        <time>2020-02-14T10:15:55.971Z</time>
      </trkpt>
      <trkpt lat="42.57042" lon="1.93231">
        <ele>2872.1</ele>
        <time>2020-02-14T10:15:57.859Z</time>
      </trkpt>
      <trkpt lat="42.57043" lon="1.93228">
        <ele>2875</ele>
        <time>2020-02-14T10:15:59.384Z</time>
      </trkpt>
      <trkpt lat="42.57043" lon="1.93228">
        <ele>2875.4</ele>
        <time>2020-02-14T10:15:59.519Z</time>
      </trkpt>
      <trkpt lat="42.57047" lon="1.93222">
        <ele>2878.9</ele>
        <time>2020-02-14T10:16:02.045Z</time>
      </trkpt>
      <trkpt lat="42.57047" lon="1.93221">
        <ele>2878.9</ele>
        <time>2020-02-14T10:16:02.156Z</time>
      </trkpt>
      <trkpt lat="42.57042" lon="1.9322">
        <ele>2880.7</ele>
        <time>2020-02-14T10:16:04.160Z</time>
      </trkpt>
      <trkpt lat="42.57041" lon="1.9322">
        <ele>2881.7</ele>
        <time>2020-02-14T10:16:04.885Z</time>
      </trkpt>
      <trkpt lat="42.57036" lon="1.93219">
        <ele>2883.7</ele>
        <time>2020-02-14T10:16:06.800Z</time>
      </trkpt>
      <trkpt lat="42.57036" lon="1.93214">
        <ele>2885.6</ele>
        <time>2020-02-14T10:16:08.579Z</time>
      </trkpt>
      <trkpt lat="42.57038" lon="1.93208">
        <ele>2889</ele>
        <time>2020-02-14T10:16:10.692Z</time>
      </trkpt>
      <trkpt lat="42.57037" lon="1.93204">
        <ele>2892.4</ele>
        <time>2020-02-14T10:16:12.439Z</time>
      </trkpt>
      <trkpt lat="42.57036" lon="1.93204">
        <ele>2892.4</ele>
        <time>2020-02-14T10:16:12.640Z</time>
      </trkpt>
      <trkpt lat="42.57035" lon="1.932">
        <ele>2893.2</ele>
        <time>2020-02-14T10:16:13.920Z</time>
      </trkpt>
      <trkpt lat="42.57036" lon="1.93197">
        <ele>2896.2</ele>
        <time>2020-02-14T10:16:15.357Z</time>
      </trkpt>
      <trkpt lat="42.57033" lon="1.93194">
        <ele>2900.1</ele>
        <time>2020-02-14T10:16:17.305Z</time>
      </trkpt>
      <trkpt lat="42.57032" lon="1.93193">
        <ele>2899.6</ele>
        <time>2020-02-14T10:16:17.712Z</time>
      </trkpt>
      <trkpt lat="42.57027" lon="1.93192">
        <ele>2900.9</ele>
        <time>2020-02-14T10:16:19.933Z</time>
      </trkpt>
      <trkpt lat="42.57024" lon="1.9319">
        <ele>2901.9</ele>
        <time>2020-02-14T10:16:21.211Z</time>
      </trkpt>
      <trkpt lat="42.57021" lon="1.93187">
        <ele>2903.4</ele>
        <time>2020-02-14T10:16:22.782Z</time>
      </trkpt>
      <trkpt lat="42.5702" lon="1.93186">
        <ele>2904.4</ele>
        <time>2020-02-14T10:16:23.381Z</time>
      </trkpt>
      <trkpt lat="42.57019" lon="1.93188">
        <ele>2905.2</ele>
        <time>2020-02-14T10:16:24.065Z</time>
      </trkpt>
      <trkpt lat="42.57017" lon="1.93193">
        <ele>2902.9</ele>
        <time>2020-02-14T10:16:25.765Z</time>
      </trkpt>
      <trkpt lat="42.57011" lon="1.93198">
        <ele>2901.5</ele>
        <time>2020-02-14T10:16:28.681Z</time>
      </trkpt>
      <trkpt lat="42.57006" lon="1.93207">
        <ele>2902.8</ele>
        <time>2020-02-14T10:16:31.806Z</time>
      </trkpt>
      <trkpt lat="42.57004" lon="1.93208">
        <ele>2901.5</ele>
        <time>2020-02-14T10:16:32.801Z</time>
      </trkpt>
      <trkpt lat="42.56996" lon="1.93215">
        <ele>2903.3</ele>
        <time>2020-02-14T10:16:36.726Z</time>
      </trkpt>
      <trkpt lat="42.56991" lon="1.93219">
        <ele>2903.3</ele>
        <time>2020-02-14T10:16:38.932Z</time>
      </trkpt>
      <trkpt lat="42.56984" lon="1.93217">
        <ele>2904.3</ele>
        <time>2020-02-14T10:16:41.774Z</time>
      </trkpt>
      <trkpt lat="42.56983" lon="1.9321">
        <ele>2906.7</ele>
        <time>2020-02-14T10:16:43.814Z</time>
      </trkpt>
      <trkpt lat="42.56983" lon="1.93211">
        <ele>2902.9</ele>
        <time>2020-02-14T10:16:45.168Z</time>
      </trkpt>
      <trkpt lat="42.56983" lon="1.93211">
        <ele>2906.3</ele>
        <time>2020-02-14T10:16:46.334Z</time>
      </trkpt>
      <trkpt lat="42.56983" lon="1.93211">
        <ele>2890.8</ele>
        <time>2020-02-14T10:16:51.683Z</time>
      </trkpt>
      <trkpt lat="42.56983" lon="1.93211">
        <ele>2909.6</ele>
        <time>2020-02-14T10:16:58.204Z</time>
      </trkpt>
      <trkpt lat="42.56983" lon="1.93211">
        <ele>2896.1</ele>
        <time>2020-02-14T10:17:02.891Z</time>
      </trkpt>
      <trkpt lat="42.56983" lon="1.93211">
        <ele>2901.5</ele>
        <time>2020-02-14T10:17:04.746Z</time>
      </trkpt>
      <trkpt lat="42.56983" lon="1.93211">
        <ele>2908.1</ele>
        <time>2020-02-14T10:17:07.057Z</time>
      </trkpt>
      <trkpt lat="42.56983" lon="1.93211">
        <ele>2909.7</ele>
        <time>2020-02-14T10:17:07.600Z</time>
      </trkpt>
      <trkpt lat="42.56983" lon="1.93211">
        <ele>2921.1</ele>
        <time>2020-02-14T10:17:11.576Z</time>
      </trkpt>
      <trkpt lat="42.56983" lon="1.93211">
        <ele>2921.1</ele>
        <time>2020-02-14T10:17:11.584Z</time>
      </trkpt>
      <trkpt lat="42.56983" lon="1.93211">
        <ele>2916.8</ele>
        <time>2020-02-14T10:17:13.082Z</time>
      </trkpt>
      <trkpt lat="42.56983" lon="1.93211">
        <ele>2911.1</ele>
        <time>2020-02-14T10:17:15.073Z</time>
      </trkpt>
      <trkpt lat="42.56983" lon="1.93211">
        <ele>2923.6</ele>
        <time>2020-02-14T10:17:19.415Z</time>
      </trkpt>
      <trkpt lat="42.56983" lon="1.93211">
        <ele>2927.5</ele>
        <time>2020-02-14T10:17:20.774Z</time>
      </trkpt>
      <trkpt lat="42.56983" lon="1.93211">
        <ele>2926.9</ele>
        <time>2020-02-14T10:17:20.961Z</time>
      </trkpt>
      <trkpt lat="42.56983" lon="1.93211">
        <ele>2918.7</ele>
        <time>2020-02-14T10:17:23.818Z</time>
      </trkpt>
      <trkpt lat="42.56983" lon="1.93211">
        <ele>2918.2</ele>
        <time>2020-02-14T10:17:23.983Z</time>
      </trkpt>
      <trkpt lat="42.56983" lon="1.93211">
        <ele>2925.1</ele>
        <time>2020-02-14T10:17:26.362Z</time>
      </trkpt>
      <trkpt lat="42.56983" lon="1.93211">
        <ele>2916.4</ele>
        <time>2020-02-14T10:17:29.397Z</time>
      </trkpt>
      <trkpt lat="42.56983" lon="1.93211">
        <ele>2924.1</ele>
        <time>2020-02-14T10:17:32.072Z</time>
      </trkpt>
      <trkpt lat="42.56983" lon="1.93211">
        <ele>2917.7</ele>
        <time>2020-02-14T10:17:34.274Z</time>
      </trkpt>
      <trkpt lat="42.56983" lon="1.93211">
        <ele>2922.1</ele>
        <time>2020-02-14T10:17:35.799Z</time>
      </trkpt>
      <trkpt lat="42.56983" lon="1.93211">
        <ele>2921.2</ele>
        <time>2020-02-14T10:17:36.119Z</time>
      </trkpt>
      <trkpt lat="42.56983" lon="1.93211">
        <ele>2915.3</ele>
        <time>2020-02-14T10:17:38.158Z</time>
      </trkpt>
      <trkpt lat="42.56983" lon="1.93211">
        <ele>2923.5</ele>
        <time>2020-02-14T10:17:41.006Z</time>
      </trkpt>
      <trkpt lat="42.56983" lon="1.93211">
        <ele>2920.2</ele>
        <time>2020-02-14T10:17:42.173Z</time>
      </trkpt>
      <trkpt lat="42.56983" lon="1.93211">
        <ele>2920.2</ele>
        <time>2020-02-14T10:17:42.317Z</time>
      </trkpt>
      <trkpt lat="42.56983" lon="1.93211">
        <ele>2921.1</ele>
        <time>2020-02-14T10:17:42.710Z</time>
      </trkpt>
      <trkpt lat="42.56983" lon="1.93211">
        <ele>2910.5</ele>
        <time>2020-02-14T10:17:46.393Z</time>
      </trkpt>
      <trkpt lat="42.56983" lon="1.93212">
        <ele>2924</ele>
        <time>2020-02-14T10:17:51.083Z</time>
      </trkpt>
      <trkpt lat="42.56982" lon="1.93215">
        <ele>2920.1</ele>
        <time>2020-02-14T10:17:52.860Z</time>
      </trkpt>
      <trkpt lat="42.56983" lon="1.93217">
        <ele>2921.1</ele>
        <time>2020-02-14T10:17:53.511Z</time>
      </trkpt>
      <trkpt lat="42.56983" lon="1.93217">
        <ele>2913.4</ele>
        <time>2020-02-14T10:17:56.185Z</time>
      </trkpt>
      <trkpt lat="42.56983" lon="1.93217">
        <ele>2924.1</ele>
        <time>2020-02-14T10:17:59.883Z</time>
      </trkpt>
      <trkpt lat="42.56983" lon="1.93217">
        <ele>2921.1</ele>
        <time>2020-02-14T10:18:00.894Z</time>
      </trkpt>
      <trkpt lat="42.56983" lon="1.93217">
        <ele>2920.2</ele>
        <time>2020-02-14T10:18:01.236Z</time>
      </trkpt>
      <trkpt lat="42.56983" lon="1.93217">
        <ele>2919.8</ele>
        <time>2020-02-14T10:18:01.402Z</time>
      </trkpt>
      <trkpt lat="42.56983" lon="1.93217">
        <ele>2919.3</ele>
        <time>2020-02-14T10:18:01.624Z</time>
      </trkpt>
      <trkpt lat="42.56983" lon="1.93216">
        <ele>2919.8</ele>
        <time>2020-02-14T10:18:01.960Z</time>
      </trkpt>
      <trkpt lat="42.56983" lon="1.93216">
        <ele>2920.7</ele>
        <time>2020-02-14T10:18:02.289Z</time>
      </trkpt>
      <trkpt lat="42.56983" lon="1.93216">
        <ele>2921.6</ele>
        <time>2020-02-14T10:18:02.619Z</time>
      </trkpt>
      <trkpt lat="42.56983" lon="1.93216">
        <ele>2920.1</ele>
        <time>2020-02-14T10:18:03.129Z</time>
      </trkpt>
      <trkpt lat="42.56982" lon="1.93215">
        <ele>2923</ele>
        <time>2020-02-14T10:18:04.174Z</time>
      </trkpt>
      <trkpt lat="42.56982" lon="1.93215">
        <ele>2925</ele>
        <time>2020-02-14T10:18:04.884Z</time>
      </trkpt>
      <trkpt lat="42.56983" lon="1.93216">
        <ele>2924.6</ele>
        <time>2020-02-14T10:18:05.107Z</time>
      </trkpt>
      <trkpt lat="42.56983" lon="1.93216">
        <ele>2923.6</ele>
        <time>2020-02-14T10:18:05.451Z</time>
      </trkpt>
      <trkpt lat="42.56983" lon="1.93216">
        <ele>2925.1</ele>
        <time>2020-02-14T10:18:05.980Z</time>
      </trkpt>
      <trkpt lat="42.56983" lon="1.93216">
        <ele>2923.6</ele>
        <time>2020-02-14T10:18:06.520Z</time>
      </trkpt>
      <trkpt lat="42.56982" lon="1.93216">
        <ele>2916.3</ele>
        <time>2020-02-14T10:18:09.026Z</time>
      </trkpt>
      <trkpt lat="42.56983" lon="1.93216">
        <ele>2921.2</ele>
        <time>2020-02-14T10:18:10.719Z</time>
      </trkpt>
      <trkpt lat="42.56983" lon="1.93216">
        <ele>2924</ele>
        <time>2020-02-14T10:18:11.714Z</time>
      </trkpt>
      <trkpt lat="42.56983" lon="1.93217">
        <ele>2920.6</ele>
        <time>2020-02-14T10:18:12.911Z</time>
      </trkpt>
      <trkpt lat="42.56984" lon="1.93219">
        <ele>2920.7</ele>
        <time>2020-02-14T10:18:13.583Z</time>
      </trkpt>
      <trkpt lat="42.56989" lon="1.93221">
        <ele>2919.7</ele>
        <time>2020-02-14T10:18:15.713Z</time>
      </trkpt>
      <trkpt lat="42.56995" lon="1.93218">
        <ele>2918.2</ele>
        <time>2020-02-14T10:18:18.357Z</time>
      </trkpt>
      <trkpt lat="42.56998" lon="1.93214">
        <ele>2918.3</ele>
        <time>2020-02-14T10:18:19.808Z</time>
      </trkpt>
      <trkpt lat="42.57006" lon="1.93207">
        <ele>2917.4</ele>
        <time>2020-02-14T10:18:23.655Z</time>
      </trkpt>
      <trkpt lat="42.57012" lon="1.932">
        <ele>2915.3</ele>
        <time>2020-02-14T10:18:26.690Z</time>
      </trkpt>
      <trkpt lat="42.57013" lon="1.93199">
        <ele>2915.8</ele>
        <time>2020-02-14T10:18:27.194Z</time>
      </trkpt>
      <trkpt lat="42.57018" lon="1.93198">
        <ele>2915.9</ele>
        <time>2020-02-14T10:18:29.139Z</time>
      </trkpt>
      <trkpt lat="42.57022" lon="1.93193">
        <ele>2917.4</ele>
        <time>2020-02-14T10:18:31.453Z</time>
      </trkpt>
      <trkpt lat="42.5703" lon="1.93191">
        <ele>2915.9</ele>
        <time>2020-02-14T10:18:34.439Z</time>
      </trkpt>
      <trkpt lat="42.57031" lon="1.93189">
        <ele>2911.6</ele>
        <time>2020-02-14T10:18:36.040Z</time>
      </trkpt>
      <trkpt lat="42.57032" lon="1.9319">
        <ele>2915.8</ele>
        <time>2020-02-14T10:18:37.610Z</time>
      </trkpt>
      <trkpt lat="42.57033" lon="1.93191">
        <ele>2915.3</ele>
        <time>2020-02-14T10:18:38.004Z</time>
      </trkpt>
      <trkpt lat="42.57035" lon="1.93188">
        <ele>2912</ele>
        <time>2020-02-14T10:18:39.574Z</time>
      </trkpt>
      <trkpt lat="42.57038" lon="1.9319">
        <ele>2906.7</ele>
        <time>2020-02-14T10:18:41.796Z</time>
      </trkpt>
      <trkpt lat="42.57038" lon="1.9319">
        <ele>2912.1</ele>
        <time>2020-02-14T10:18:43.656Z</time>
      </trkpt>
      <trkpt lat="42.57038" lon="1.9319">
        <ele>2914</ele>
        <time>2020-02-14T10:18:44.313Z</time>
      </trkpt>
      <trkpt lat="42.57038" lon="1.9319">
        <ele>2913.5</ele>
        <time>2020-02-14T10:18:44.543Z</time>
      </trkpt>
      <trkpt lat="42.57039" lon="1.9319">
        <ele>2912.1</ele>
        <time>2020-02-14T10:18:45.072Z</time>
      </trkpt>
      <trkpt lat="42.57049" lon="1.93193">
        <ele>2911.6</ele>
        <time>2020-02-14T10:18:48.959Z</time>
      </trkpt>
      <trkpt lat="42.57049" lon="1.93192">
        <ele>2912.1</ele>
        <time>2020-02-14T10:18:49.290Z</time>
      </trkpt>
      <trkpt lat="42.57051" lon="1.93187">
        <ele>2915.4</ele>
        <time>2020-02-14T10:18:51.308Z</time>
      </trkpt>
      <trkpt lat="42.57056" lon="1.93186">
        <ele>2916.3</ele>
        <time>2020-02-14T10:18:53.280Z</time>
      </trkpt>
      <trkpt lat="42.57064" lon="1.93178">
        <ele>2917.3</ele>
        <time>2020-02-14T10:18:57.140Z</time>
      </trkpt>
      <trkpt lat="42.57067" lon="1.93172">
        <ele>2916.3</ele>
        <time>2020-02-14T10:18:59.256Z</time>
      </trkpt>
      <trkpt lat="42.57067" lon="1.93172">
        <ele>2918.8</ele>
        <time>2020-02-14T10:19:00.110Z</time>
      </trkpt>
      <trkpt lat="42.57065" lon="1.93173">
        <ele>2916.9</ele>
        <time>2020-02-14T10:19:01.298Z</time>
      </trkpt>
      <trkpt lat="42.57067" lon="1.93174">
        <ele>2916.3</ele>
        <time>2020-02-14T10:19:02.039Z</time>
      </trkpt>
      <trkpt lat="42.57074" lon="1.9317">
        <ele>2915</ele>
        <time>2020-02-14T10:19:05.267Z</time>
      </trkpt>
      <trkpt lat="42.57084" lon="1.9316">
        <ele>2913.9</ele>
        <time>2020-02-14T10:19:09.943Z</time>
      </trkpt>
      <trkpt lat="42.57084" lon="1.9316">
        <ele>2915.3</ele>
        <time>2020-02-14T10:19:10.426Z</time>
      </trkpt>
      <trkpt lat="42.57084" lon="1.9316">
        <ele>2914.9</ele>
        <time>2020-02-14T10:19:10.627Z</time>
      </trkpt>
      <trkpt lat="42.57083" lon="1.93162">
        <ele>2916.9</ele>
        <time>2020-02-14T10:19:11.459Z</time>
      </trkpt>
      <trkpt lat="42.5708" lon="1.93167">
        <ele>2915.9</ele>
        <time>2020-02-14T10:19:13.450Z</time>
      </trkpt>
      <trkpt lat="42.57077" lon="1.93169">
        <ele>2915.3</ele>
        <time>2020-02-14T10:19:14.712Z</time>
      </trkpt>
      <trkpt lat="42.57077" lon="1.93169">
        <ele>2915.8</ele>
        <time>2020-02-14T10:19:14.882Z</time>
      </trkpt>
      <trkpt lat="42.57067" lon="1.93175">
        <ele>2916.4</ele>
        <time>2020-02-14T10:19:19.065Z</time>
      </trkpt>
      <trkpt lat="42.57067" lon="1.93178">
        <ele>2916.4</ele>
        <time>2020-02-14T10:19:20.033Z</time>
      </trkpt>
      <trkpt lat="42.57064" lon="1.93182">
        <ele>2915.9</ele>
        <time>2020-02-14T10:19:21.618Z</time>
      </trkpt>
      <trkpt lat="42.57059" lon="1.93185">
        <ele>2914.5</ele>
        <time>2020-02-14T10:19:23.687Z</time>
      </trkpt>
      <trkpt lat="42.57054" lon="1.93186">
        <ele>2913.5</ele>
        <time>2020-02-14T10:19:25.711Z</time>
      </trkpt>
      <trkpt lat="42.57052" lon="1.93187">
        <ele>2912.1</ele>
        <time>2020-02-14T10:19:26.698Z</time>
      </trkpt>
      <trkpt lat="42.57052" lon="1.93189">
        <ele>2911.6</ele>
        <time>2020-02-14T10:19:27.349Z</time>
      </trkpt>
      <trkpt lat="42.57051" lon="1.93194">
        <ele>2910.2</ele>
        <time>2020-02-14T10:19:28.743Z</time>
      </trkpt>
      <trkpt lat="42.57048" lon="1.93192">
        <ele>2907.7</ele>
        <time>2020-02-14T10:19:30.213Z</time>
      </trkpt>
      <trkpt lat="42.57041" lon="1.9319">
        <ele>2910.1</ele>
        <time>2020-02-14T10:19:33.004Z</time>
      </trkpt>
      <trkpt lat="42.57044" lon="1.93182">
        <ele>2907.2</ele>
        <time>2020-02-14T10:19:35.600Z</time>
      </trkpt>
      <trkpt lat="42.57044" lon="1.9318">
        <ele>2905.8</ele>
        <time>2020-02-14T10:19:36.482Z</time>
      </trkpt>
      <trkpt lat="42.57046" lon="1.93177">
        <ele>2903.9</ele>
        <time>2020-02-14T10:19:37.743Z</time>
      </trkpt>
      <trkpt lat="42.57048" lon="1.93172">
        <ele>2900.4</ele>
        <time>2020-02-14T10:19:39.726Z</time>
      </trkpt>
      <trkpt lat="42.57048" lon="1.93172">
        <ele>2900.1</ele>
        <time>2020-02-14T10:19:39.843Z</time>
      </trkpt>
      <trkpt lat="42.57049" lon="1.9317">
        <ele>2896.6</ele>
        <time>2020-02-14T10:19:41.283Z</time>
      </trkpt>
      <trkpt lat="42.5705" lon="1.93169">
        <ele>2895.6</ele>
        <time>2020-02-14T10:19:41.844Z</time>
      </trkpt>
      <trkpt lat="42.5705" lon="1.93169">
        <ele>2895.7</ele>
        <time>2020-02-14T10:19:41.855Z</time>
      </trkpt>
      <trkpt lat="42.57052" lon="1.93166">
        <ele>2895.3</ele>
        <time>2020-02-14T10:19:43.046Z</time>
      </trkpt>
      <trkpt lat="42.57056" lon="1.93163">
        <ele>2891.8</ele>
        <time>2020-02-14T10:19:45.010Z</time>
      </trkpt>
      <trkpt lat="42.57055" lon="1.93151">
        <ele>2891.8</ele>
        <time>2020-02-14T10:19:48.227Z</time>
      </trkpt>
      <trkpt lat="42.57055" lon="1.93147">
        <ele>2895.6</ele>
        <time>2020-02-14T10:19:50.044Z</time>
      </trkpt>
      <trkpt lat="42.57055" lon="1.93147">
        <ele>2894.3</ele>
        <time>2020-02-14T10:19:50.511Z</time>
      </trkpt>
      <trkpt lat="42.57055" lon="1.93147">
        <ele>2891.4</ele>
        <time>2020-02-14T10:19:51.520Z</time>
      </trkpt>
      <trkpt lat="42.57055" lon="1.93146">
        <ele>2887</ele>
        <time>2020-02-14T10:19:53.044Z</time>
      </trkpt>
      <trkpt lat="42.57055" lon="1.93146">
        <ele>2890.3</ele>
        <time>2020-02-14T10:19:54.181Z</time>
      </trkpt>
      <trkpt lat="42.57057" lon="1.93143">
        <ele>2888.9</ele>
        <time>2020-02-14T10:19:55.396Z</time>
      </trkpt>
      <trkpt lat="42.57057" lon="1.93131">
        <ele>2887.1</ele>
        <time>2020-02-14T10:19:58.843Z</time>
      </trkpt>
      <trkpt lat="42.57057" lon="1.9313">
        <ele>2887</ele>
        <time>2020-02-14T10:19:59.074Z</time>
      </trkpt>
      <trkpt lat="42.57058" lon="1.93126">
        <ele>2885.1</ele>
        <time>2020-02-14T10:20:00.525Z</time>
      </trkpt>
      <trkpt lat="42.57059" lon="1.93125">
        <ele>2883.6</ele>
        <time>2020-02-14T10:20:01.282Z</time>
      </trkpt>
      <trkpt lat="42.57061" lon="1.93122">
        <ele>2881.7</ele>
        <time>2020-02-14T10:20:02.503Z</time>
      </trkpt>
      <trkpt lat="42.57061" lon="1.93116">
        <ele>2877.8</ele>
        <time>2020-02-14T10:20:04.675Z</time>
      </trkpt>
      <trkpt lat="42.5706" lon="1.93112">
        <ele>2875.4</ele>
        <time>2020-02-14T10:20:06.221Z</time>
      </trkpt>
      <trkpt lat="42.57053" lon="1.93104">
        <ele>2873.1</ele>
        <time>2020-02-14T10:20:09.818Z</time>
      </trkpt>
      <trkpt lat="42.57043" lon="1.93097">
        <ele>2869.3</ele>
        <time>2020-02-14T10:20:14.478Z</time>
      </trkpt>
      <trkpt lat="42.57039" lon="1.93088">
        <ele>2865.9</ele>
        <time>2020-02-14T10:20:17.627Z</time>
      </trkpt>
      <trkpt lat="42.57042" lon="1.93081">
        <ele>2863.5</ele>
        <time>2020-02-14T10:20:20.058Z</time>
      </trkpt>
      <trkpt lat="42.57043" lon="1.93078">
        <ele>2861.6</ele>
        <time>2020-02-14T10:20:21.343Z</time>
      </trkpt>
      <trkpt lat="42.57043" lon="1.93072">
        <ele>2859.1</ele>
        <time>2020-02-14T10:20:23.150Z</time>
      </trkpt>
      <trkpt lat="42.57049" lon="1.93066">
        <ele>2855.7</ele>
        <time>2020-02-14T10:20:26.286Z</time>
      </trkpt>
      <trkpt lat="42.5705" lon="1.93065">
        <ele>2855.8</ele>
        <time>2020-02-14T10:20:26.654Z</time>
      </trkpt>
      <trkpt lat="42.57051" lon="1.93064">
        <ele>2855.3</ele>
        <time>2020-02-14T10:20:27.102Z</time>
      </trkpt>
      <trkpt lat="42.57052" lon="1.93057">
        <ele>2851.4</ele>
        <time>2020-02-14T10:20:29.741Z</time>
      </trkpt>
      <trkpt lat="42.57058" lon="1.93053">
        <ele>2850.1</ele>
        <time>2020-02-14T10:20:32.109Z</time>
      </trkpt>
      <trkpt lat="42.5706" lon="1.93048">
        <ele>2846.1</ele>
        <time>2020-02-14T10:20:34.276Z</time>
      </trkpt>
      <trkpt lat="42.57061" lon="1.93047">
        <ele>2846.2</ele>
        <time>2020-02-14T10:20:34.507Z</time>
      </trkpt>
      <trkpt lat="42.57064" lon="1.93041">
        <ele>2842.8</ele>
        <time>2020-02-14T10:20:36.889Z</time>
      </trkpt>
      <trkpt lat="42.57066" lon="1.9304">
        <ele>2840.8</ele>
        <time>2020-02-14T10:20:38.012Z</time>
      </trkpt>
      <trkpt lat="42.57068" lon="1.93035">
        <ele>2838.5</ele>
        <time>2020-02-14T10:20:39.932Z</time>
      </trkpt>
      <trkpt lat="42.57068" lon="1.93028">
        <ele>2835.1</ele>
        <time>2020-02-14T10:20:42.072Z</time>
      </trkpt>
      <trkpt lat="42.57068" lon="1.93028">
        <ele>2835.2</ele>
        <time>2020-02-14T10:20:42.243Z</time>
      </trkpt>
      <trkpt lat="42.57069" lon="1.93026">
        <ele>2839.9</ele>
        <time>2020-02-14T10:20:44.077Z</time>
      </trkpt>
      <trkpt lat="42.57069" lon="1.93026">
        <ele>2835.1</ele>
        <time>2020-02-14T10:20:45.737Z</time>
      </trkpt>
      <trkpt lat="42.57069" lon="1.93026">
        <ele>2831.7</ele>
        <time>2020-02-14T10:20:46.922Z</time>
      </trkpt>
      <trkpt lat="42.57069" lon="1.93026">
        <ele>2834.2</ele>
        <time>2020-02-14T10:20:47.776Z</time>
      </trkpt>
      <trkpt lat="42.57069" lon="1.93026">
        <ele>2832.2</ele>
        <time>2020-02-14T10:20:48.444Z</time>
      </trkpt>
      <trkpt lat="42.57069" lon="1.93026">
        <ele>2828</ele>
        <time>2020-02-14T10:20:49.930Z</time>
      </trkpt>
      <trkpt lat="42.57069" lon="1.93026">
        <ele>2835.1</ele>
        <time>2020-02-14T10:20:52.423Z</time>
      </trkpt>
      <trkpt lat="42.57069" lon="1.93026">
        <ele>2830.7</ele>
        <time>2020-02-14T10:20:53.950Z</time>
      </trkpt>
      <trkpt lat="42.57069" lon="1.93026">
        <ele>2835.7</ele>
        <time>2020-02-14T10:20:55.664Z</time>
      </trkpt>
      <trkpt lat="42.5707" lon="1.93026">
        <ele>2830.4</ele>
        <time>2020-02-14T10:20:57.531Z</time>
      </trkpt>
      <trkpt lat="42.5707" lon="1.93026">
        <ele>2835.2</ele>
        <time>2020-02-14T10:20:59.196Z</time>
      </trkpt>
      <trkpt lat="42.5707" lon="1.93026">
        <ele>2839.4</ele>
        <time>2020-02-14T10:21:00.672Z</time>
      </trkpt>
      <trkpt lat="42.5707" lon="1.93026">
        <ele>2839.4</ele>
        <time>2020-02-14T10:21:00.674Z</time>
      </trkpt>
      <trkpt lat="42.5707" lon="1.93026">
        <ele>2835.6</ele>
        <time>2020-02-14T10:21:01.995Z</time>
      </trkpt>
      <trkpt lat="42.5707" lon="1.93026">
        <ele>2831.3</ele>
        <time>2020-02-14T10:21:03.493Z</time>
      </trkpt>
      <trkpt lat="42.5707" lon="1.93026">
        <ele>2834.1</ele>
        <time>2020-02-14T10:21:04.474Z</time>
      </trkpt>
      <trkpt lat="42.5707" lon="1.93026">
        <ele>2836</ele>
        <time>2020-02-14T10:21:05.131Z</time>
      </trkpt>
      <trkpt lat="42.5707" lon="1.93026">
        <ele>2832.3</ele>
        <time>2020-02-14T10:21:06.438Z</time>
      </trkpt>
      <trkpt lat="42.5707" lon="1.93026">
        <ele>2832.7</ele>
        <time>2020-02-14T10:21:06.598Z</time>
      </trkpt>
      <trkpt lat="42.57073" lon="1.93023">
        <ele>2830.8</ele>
        <time>2020-02-14T10:21:08.334Z</time>
      </trkpt>
      <trkpt lat="42.57078" lon="1.93017">
        <ele>2828.4</ele>
        <time>2020-02-14T10:21:11.063Z</time>
      </trkpt>
      <trkpt lat="42.57079" lon="1.93007">
        <ele>2825.5</ele>
        <time>2020-02-14T10:21:13.908Z</time>
      </trkpt>
      <trkpt lat="42.57081" lon="1.93006">
        <ele>2822.7</ele>
        <time>2020-02-14T10:21:15.205Z</time>
      </trkpt>
      <trkpt lat="42.57085" lon="1.93004">
        <ele>2819.2</ele>
        <time>2020-02-14T10:21:17.294Z</time>
      </trkpt>
      <trkpt lat="42.57087" lon="1.93002">
        <ele>2817.3</ele>
        <time>2020-02-14T10:21:18.265Z</time>
      </trkpt>
      <trkpt lat="42.57088" lon="1.92999">
        <ele>2813.9</ele>
        <time>2020-02-14T10:21:19.892Z</time>
      </trkpt>
      <trkpt lat="42.57091" lon="1.92996">
        <ele>2811</ele>
        <time>2020-02-14T10:21:21.484Z</time>
      </trkpt>
      <trkpt lat="42.57092" lon="1.92993">
        <ele>2811.5</ele>
        <time>2020-02-14T10:21:22.453Z</time>
      </trkpt>
      <trkpt lat="42.57092" lon="1.92983">
        <ele>2808.7</ele>
        <time>2020-02-14T10:21:25.469Z</time>
      </trkpt>
      <trkpt lat="42.57098" lon="1.92983">
        <ele>2806.7</ele>
        <time>2020-02-14T10:21:27.956Z</time>
      </trkpt>
      <trkpt lat="42.57099" lon="1.92983">
        <ele>2803.3</ele>
        <time>2020-02-14T10:21:29.155Z</time>
      </trkpt>
      <trkpt lat="42.57099" lon="1.92983">
        <ele>2806.7</ele>
        <time>2020-02-14T10:21:30.335Z</time>
      </trkpt>
      <trkpt lat="42.57102" lon="1.92986">
        <ele>2804.8</ele>
        <time>2020-02-14T10:21:32.068Z</time>
      </trkpt>
      <trkpt lat="42.57103" lon="1.92986">
        <ele>2800.5</ele>
        <time>2020-02-14T10:21:33.574Z</time>
      </trkpt>
      <trkpt lat="42.57103" lon="1.92986">
        <ele>2800.5</ele>
        <time>2020-02-14T10:21:33.574Z</time>
      </trkpt>
      <trkpt lat="42.57104" lon="1.92985">
        <ele>2798.5</ele>
        <time>2020-02-14T10:21:34.507Z</time>
      </trkpt>
      <trkpt lat="42.57114" lon="1.92982">
        <ele>2795.2</ele>
        <time>2020-02-14T10:21:38.592Z</time>
      </trkpt>
      <trkpt lat="42.57115" lon="1.92977">
        <ele>2792.4</ele>
        <time>2020-02-14T10:21:40.211Z</time>
      </trkpt>
      <trkpt lat="42.57119" lon="1.92975">
        <ele>2788.5</ele>
        <time>2020-02-14T10:21:42.354Z</time>
      </trkpt>
      <trkpt lat="42.57119" lon="1.92972">
        <ele>2785.2</ele>
        <time>2020-02-14T10:21:43.805Z</time>
      </trkpt>
      <trkpt lat="42.57119" lon="1.92972">
        <ele>2784.7</ele>
        <time>2020-02-14T10:21:43.982Z</time>
      </trkpt>
      <trkpt lat="42.57119" lon="1.92969">
        <ele>2783.7</ele>
        <time>2020-02-14T10:21:44.863Z</time>
      </trkpt>
      <trkpt lat="42.57119" lon="1.92969">
        <ele>2780.3</ele>
        <time>2020-02-14T10:21:46.016Z</time>
      </trkpt>
      <trkpt lat="42.57121" lon="1.92965">
        <ele>2780.9</ele>
        <time>2020-02-14T10:21:47.605Z</time>
      </trkpt>
      <trkpt lat="42.57125" lon="1.92961">
        <ele>2777.9</ele>
        <time>2020-02-14T10:21:49.670Z</time>
      </trkpt>
      <trkpt lat="42.57127" lon="1.92958">
        <ele>2776.4</ele>
        <time>2020-02-14T10:21:51.075Z</time>
      </trkpt>
      <trkpt lat="42.57121" lon="1.92948">
        <ele>2773.5</ele>
        <time>2020-02-14T10:21:54.799Z</time>
      </trkpt>
      <trkpt lat="42.57122" lon="1.92945">
        <ele>2771.6</ele>
        <time>2020-02-14T10:21:55.968Z</time>
      </trkpt>
      <trkpt lat="42.57122" lon="1.92941">
        <ele>2768.4</ele>
        <time>2020-02-14T10:21:57.539Z</time>
      </trkpt>
      <trkpt lat="42.57119" lon="1.92943">
        <ele>2766.8</ele>
        <time>2020-02-14T10:21:59.074Z</time>
      </trkpt>
      <trkpt lat="42.57132" lon="1.92936">
        <ele>2763.5</ele>
        <time>2020-02-14T10:22:04.762Z</time>
      </trkpt>
      <trkpt lat="42.57135" lon="1.92933">
        <ele>2761.1</ele>
        <time>2020-02-14T10:22:06.297Z</time>
      </trkpt>
      <trkpt lat="42.57136" lon="1.92931">
        <ele>2758.7</ele>
        <time>2020-02-14T10:22:07.407Z</time>
      </trkpt>
      <trkpt lat="42.57135" lon="1.92926">
        <ele>2754.8</ele>
        <time>2020-02-14T10:22:09.457Z</time>
      </trkpt>
      <trkpt lat="42.57136" lon="1.92925">
        <ele>2754.9</ele>
        <time>2020-02-14T10:22:09.788Z</time>
      </trkpt>
      <trkpt lat="42.57139" lon="1.92919">
        <ele>2751.9</ele>
        <time>2020-02-14T10:22:12.029Z</time>
      </trkpt>
      <trkpt lat="42.57141" lon="1.92919">
        <ele>2749</ele>
        <time>2020-02-14T10:22:13.271Z</time>
      </trkpt>
      <trkpt lat="42.57139" lon="1.92911">
        <ele>2745.7</ele>
        <time>2020-02-14T10:22:15.821Z</time>
      </trkpt>
      <trkpt lat="42.57139" lon="1.92911">
        <ele>2745.8</ele>
        <time>2020-02-14T10:22:15.970Z</time>
      </trkpt>
      <trkpt lat="42.57141" lon="1.92903">
        <ele>2741.9</ele>
        <time>2020-02-14T10:22:18.701Z</time>
      </trkpt>
      <trkpt lat="42.57144" lon="1.92899">
        <ele>2740.4</ele>
        <time>2020-02-14T10:22:20.258Z</time>
      </trkpt>
      <trkpt lat="42.57145" lon="1.92896">
        <ele>2738.1</ele>
        <time>2020-02-14T10:22:21.479Z</time>
      </trkpt>
      <trkpt lat="42.57145" lon="1.92896">
        <ele>2737</ele>
        <time>2020-02-14T10:22:21.842Z</time>
      </trkpt>
      <trkpt lat="42.57147" lon="1.92893">
        <ele>2734.7</ele>
        <time>2020-02-14T10:22:23.331Z</time>
      </trkpt>
      <trkpt lat="42.57152" lon="1.92892">
        <ele>2731.3</ele>
        <time>2020-02-14T10:22:25.569Z</time>
      </trkpt>
      <trkpt lat="42.57155" lon="1.92887">
        <ele>2727.5</ele>
        <time>2020-02-14T10:22:27.704Z</time>
      </trkpt>
      <trkpt lat="42.57155" lon="1.92887">
        <ele>2726.4</ele>
        <time>2020-02-14T10:22:28.057Z</time>
      </trkpt>
      <trkpt lat="42.57158" lon="1.92882">
        <ele>2725</ele>
        <time>2020-02-14T10:22:30.202Z</time>
      </trkpt>
      <trkpt lat="42.57158" lon="1.92877">
        <ele>2722.1</ele>
        <time>2020-02-14T10:22:32.049Z</time>
      </trkpt>
      <trkpt lat="42.57157" lon="1.92872">
        <ele>2718.4</ele>
        <time>2020-02-14T10:22:33.867Z</time>
      </trkpt>
      <trkpt lat="42.57157" lon="1.92869">
        <ele>2716.3</ele>
        <time>2020-02-14T10:22:35.057Z</time>
      </trkpt>
      <trkpt lat="42.5716" lon="1.92865">
        <ele>2714</ele>
        <time>2020-02-14T10:22:36.940Z</time>
      </trkpt>
      <trkpt lat="42.57163" lon="1.92858">
        <ele>2711.2</ele>
        <time>2020-02-14T10:22:39.536Z</time>
      </trkpt>
      <trkpt lat="42.57163" lon="1.92857">
        <ele>2707.3</ele>
        <time>2020-02-14T10:22:40.960Z</time>
      </trkpt>
      <trkpt lat="42.57162" lon="1.92852">
        <ele>2706.8</ele>
        <time>2020-02-14T10:22:42.283Z</time>
      </trkpt>
      <trkpt lat="42.5717" lon="1.92848">
        <ele>2704.3</ele>
        <time>2020-02-14T10:22:45.804Z</time>
      </trkpt>
      <trkpt lat="42.57171" lon="1.92847">
        <ele>2703.5</ele>
        <time>2020-02-14T10:22:46.333Z</time>
      </trkpt>
      <trkpt lat="42.5717" lon="1.92845">
        <ele>2701.9</ele>
        <time>2020-02-14T10:22:47.196Z</time>
      </trkpt>
      <trkpt lat="42.57171" lon="1.92838">
        <ele>2699.5</ele>
        <time>2020-02-14T10:22:49.558Z</time>
      </trkpt>
      <trkpt lat="42.57172" lon="1.92833">
        <ele>2698.6</ele>
        <time>2020-02-14T10:22:51.072Z</time>
      </trkpt>
      <trkpt lat="42.57172" lon="1.92829">
        <ele>2696.7</ele>
        <time>2020-02-14T10:22:52.444Z</time>
      </trkpt>
      <trkpt lat="42.57174" lon="1.92826">
        <ele>2695.2</ele>
        <time>2020-02-14T10:22:53.510Z</time>
      </trkpt>
      <trkpt lat="42.57177" lon="1.92822">
        <ele>2691.8</ele>
        <time>2020-02-14T10:22:55.575Z</time>
      </trkpt>
      <trkpt lat="42.57177" lon="1.92822">
        <ele>2691.9</ele>
        <time>2020-02-14T10:22:55.697Z</time>
      </trkpt>
      <trkpt lat="42.57178" lon="1.92818">
        <ele>2688.1</ele>
        <time>2020-02-14T10:22:57.365Z</time>
      </trkpt>
      <trkpt lat="42.57177" lon="1.92818">
        <ele>2688</ele>
        <time>2020-02-14T10:22:57.750Z</time>
      </trkpt>
      <trkpt lat="42.57176" lon="1.92811">
        <ele>2685.2</ele>
        <time>2020-02-14T10:22:59.923Z</time>
      </trkpt>
      <trkpt lat="42.57175" lon="1.92806">
        <ele>2681.4</ele>
        <time>2020-02-14T10:23:01.819Z</time>
      </trkpt>
      <trkpt lat="42.57175" lon="1.92804">
        <ele>2680.3</ele>
        <time>2020-02-14T10:23:02.581Z</time>
      </trkpt>
      <trkpt lat="42.57176" lon="1.92804">
        <ele>2678.9</ele>
        <time>2020-02-14T10:23:03.102Z</time>
      </trkpt>
      <trkpt lat="42.57177" lon="1.92791">
        <ele>2674</ele>
        <time>2020-02-14T10:23:07.301Z</time>
      </trkpt>
      <trkpt lat="42.57178" lon="1.92789">
        <ele>2674.1</ele>
        <time>2020-02-14T10:23:07.835Z</time>
      </trkpt>
      <trkpt lat="42.57176" lon="1.92785">
        <ele>2670.8</ele>
        <time>2020-02-14T10:23:09.519Z</time>
      </trkpt>
      <trkpt lat="42.57177" lon="1.92784">
        <ele>2670.2</ele>
        <time>2020-02-14T10:23:10.084Z</time>
      </trkpt>
      <trkpt lat="42.57178" lon="1.92782">
        <ele>2667.9</ele>
        <time>2020-02-14T10:23:11.122Z</time>
      </trkpt>
      <trkpt lat="42.57176" lon="1.92778">
        <ele>2666</ele>
        <time>2020-02-14T10:23:12.566Z</time>
      </trkpt>
      <trkpt lat="42.57177" lon="1.92775">
        <ele>2664.1</ele>
        <time>2020-02-14T10:23:13.686Z</time>
      </trkpt>
      <trkpt lat="42.57178" lon="1.9277">
        <ele>2660.7</ele>
        <time>2020-02-14T10:23:15.745Z</time>
      </trkpt>
      <trkpt lat="42.57178" lon="1.9277">
        <ele>2660.6</ele>
        <time>2020-02-14T10:23:15.753Z</time>
      </trkpt>
      <trkpt lat="42.57178" lon="1.92767">
        <ele>2657.3</ele>
        <time>2020-02-14T10:23:17.185Z</time>
      </trkpt>
      <trkpt lat="42.57178" lon="1.92764">
        <ele>2657.2</ele>
        <time>2020-02-14T10:23:18.056Z</time>
      </trkpt>
      <trkpt lat="42.57175" lon="1.92761">
        <ele>2654.8</ele>
        <time>2020-02-14T10:23:19.480Z</time>
      </trkpt>
      <trkpt lat="42.57175" lon="1.92759">
        <ele>2651.6</ele>
        <time>2020-02-14T10:23:20.836Z</time>
      </trkpt>
      <trkpt lat="42.57175" lon="1.92757">
        <ele>2651.6</ele>
        <time>2020-02-14T10:23:21.221Z</time>
      </trkpt>
      <trkpt lat="42.57176" lon="1.92754">
        <ele>2650.1</ele>
        <time>2020-02-14T10:23:22.501Z</time>
      </trkpt>
      <trkpt lat="42.57177" lon="1.92746">
        <ele>2647.1</ele>
        <time>2020-02-14T10:23:24.910Z</time>
      </trkpt>
      <trkpt lat="42.57178" lon="1.92743">
        <ele>2643.9</ele>
        <time>2020-02-14T10:23:26.342Z</time>
      </trkpt>
      <trkpt lat="42.57178" lon="1.92739">
        <ele>2640.4</ele>
        <time>2020-02-14T10:23:28.162Z</time>
      </trkpt>
      <trkpt lat="42.57179" lon="1.92735">
        <ele>2638.5</ele>
        <time>2020-02-14T10:23:29.445Z</time>
      </trkpt>
      <trkpt lat="42.5718" lon="1.92731">
        <ele>2635.6</ele>
        <time>2020-02-14T10:23:31.075Z</time>
      </trkpt>
      <trkpt lat="42.57178" lon="1.92723">
        <ele>2631.8</ele>
        <time>2020-02-14T10:23:33.823Z</time>
      </trkpt>
      <trkpt lat="42.57178" lon="1.92721">
        <ele>2631.8</ele>
        <time>2020-02-14T10:23:34.374Z</time>
      </trkpt>
      <trkpt lat="42.5718" lon="1.92711">
        <ele>2628.4</ele>
        <time>2020-02-14T10:23:37.322Z</time>
      </trkpt>
      <trkpt lat="42.57182" lon="1.92706">
        <ele>2624.6</ele>
        <time>2020-02-14T10:23:39.552Z</time>
      </trkpt>
      <trkpt lat="42.57183" lon="1.92703">
        <ele>2624.1</ele>
        <time>2020-02-14T10:23:40.439Z</time>
      </trkpt>
      <trkpt lat="42.57184" lon="1.92701">
        <ele>2622.7</ele>
        <time>2020-02-14T10:23:41.372Z</time>
      </trkpt>
      <trkpt lat="42.57188" lon="1.92696">
        <ele>2619.8</ele>
        <time>2020-02-14T10:23:43.504Z</time>
      </trkpt>
      <trkpt lat="42.57183" lon="1.9269">
        <ele>2616.5</ele>
        <time>2020-02-14T10:23:46.254Z</time>
      </trkpt>
      <trkpt lat="42.57184" lon="1.92688">
        <ele>2615</ele>
        <time>2020-02-14T10:23:46.941Z</time>
      </trkpt>
      <trkpt lat="42.57185" lon="1.92682">
        <ele>2611.1</ele>
        <time>2020-02-14T10:23:49.108Z</time>
      </trkpt>
      <trkpt lat="42.57183" lon="1.92672">
        <ele>2608.2</ele>
        <time>2020-02-14T10:23:52.173Z</time>
      </trkpt>
      <trkpt lat="42.57184" lon="1.92671">
        <ele>2607.7</ele>
        <time>2020-02-14T10:23:52.585Z</time>
      </trkpt>
      <trkpt lat="42.57189" lon="1.92665">
        <ele>2603.4</ele>
        <time>2020-02-14T10:23:55.648Z</time>
      </trkpt>
      <trkpt lat="42.5719" lon="1.92665">
        <ele>2603.9</ele>
        <time>2020-02-14T10:23:56.082Z</time>
      </trkpt>
      <trkpt lat="42.57191" lon="1.92663">
        <ele>2602.9</ele>
        <time>2020-02-14T10:23:56.676Z</time>
      </trkpt>
      <trkpt lat="42.57193" lon="1.9266">
        <ele>2601.5</ele>
        <time>2020-02-14T10:23:57.959Z</time>
      </trkpt>
      <trkpt lat="42.57195" lon="1.92659">
        <ele>2600.5</ele>
        <time>2020-02-14T10:23:58.892Z</time>
      </trkpt>
      <trkpt lat="42.57193" lon="1.92656">
        <ele>2599.5</ele>
        <time>2020-02-14T10:23:59.874Z</time>
      </trkpt>
      <trkpt lat="42.57189" lon="1.92651">
        <ele>2597.6</ele>
        <time>2020-02-14T10:24:02.250Z</time>
      </trkpt>
      <trkpt lat="42.57187" lon="1.92647">
        <ele>2595.3</ele>
        <time>2020-02-14T10:24:03.677Z</time>
      </trkpt>
      <trkpt lat="42.57188" lon="1.92644">
        <ele>2593.8</ele>
        <time>2020-02-14T10:24:04.816Z</time>
      </trkpt>
      <trkpt lat="42.57185" lon="1.9264">
        <ele>2592.8</ele>
        <time>2020-02-14T10:24:06.357Z</time>
      </trkpt>
      <trkpt lat="42.57186" lon="1.92634">
        <ele>2590.5</ele>
        <time>2020-02-14T10:24:08.163Z</time>
      </trkpt>
      <trkpt lat="42.57186" lon="1.92628">
        <ele>2589</ele>
        <time>2020-02-14T10:24:09.861Z</time>
      </trkpt>
      <trkpt lat="42.57186" lon="1.92627">
        <ele>2588</ele>
        <time>2020-02-14T10:24:10.368Z</time>
      </trkpt>
      <trkpt lat="42.57189" lon="1.92625">
        <ele>2587.5</ele>
        <time>2020-02-14T10:24:11.708Z</time>
      </trkpt>
      <trkpt lat="42.57189" lon="1.92619">
        <ele>2583.8</ele>
        <time>2020-02-14T10:24:13.884Z</time>
      </trkpt>
      <trkpt lat="42.57188" lon="1.92614">
        <ele>2584.3</ele>
        <time>2020-02-14T10:24:15.392Z</time>
      </trkpt>
      <trkpt lat="42.57191" lon="1.92607">
        <ele>2580.9</ele>
        <time>2020-02-14T10:24:18.142Z</time>
      </trkpt>
      <trkpt lat="42.57192" lon="1.92605">
        <ele>2579.5</ele>
        <time>2020-02-14T10:24:18.983Z</time>
      </trkpt>
      <trkpt lat="42.57193" lon="1.92605">
        <ele>2579</ele>
        <time>2020-02-14T10:24:19.385Z</time>
      </trkpt>
      <trkpt lat="42.57191" lon="1.92596">
        <ele>2575.5</ele>
        <time>2020-02-14T10:24:22.181Z</time>
      </trkpt>
      <trkpt lat="42.5719" lon="1.92591">
        <ele>2574.1</ele>
        <time>2020-02-14T10:24:23.795Z</time>
      </trkpt>
      <trkpt lat="42.57189" lon="1.92587">
        <ele>2572.6</ele>
        <time>2020-02-14T10:24:25.216Z</time>
      </trkpt>
      <trkpt lat="42.57187" lon="1.92581">
        <ele>2570.7</ele>
        <time>2020-02-14T10:24:27.096Z</time>
      </trkpt>
      <trkpt lat="42.57184" lon="1.92575">
        <ele>2569.3</ele>
        <time>2020-02-14T10:24:29.282Z</time>
      </trkpt>
      <trkpt lat="42.57183" lon="1.92572">
        <ele>2568.3</ele>
        <time>2020-02-14T10:24:30.300Z</time>
      </trkpt>
      <trkpt lat="42.57181" lon="1.9257">
        <ele>2567.4</ele>
        <time>2020-02-14T10:24:31.257Z</time>
      </trkpt>
      <trkpt lat="42.57178" lon="1.92564">
        <ele>2565</ele>
        <time>2020-02-14T10:24:33.422Z</time>
      </trkpt>
      <trkpt lat="42.57179" lon="1.92561">
        <ele>2563.5</ele>
        <time>2020-02-14T10:24:34.417Z</time>
      </trkpt>
      <trkpt lat="42.5718" lon="1.92557">
        <ele>2561.7</ele>
        <time>2020-02-14T10:24:35.828Z</time>
      </trkpt>
      <trkpt lat="42.57181" lon="1.92552">
        <ele>2558.2</ele>
        <time>2020-02-14T10:24:37.748Z</time>
      </trkpt>
      <trkpt lat="42.57182" lon="1.9255">
        <ele>2558.3</ele>
        <time>2020-02-14T10:24:38.320Z</time>
      </trkpt>
      <trkpt lat="42.57181" lon="1.92544">
        <ele>2558.2</ele>
        <time>2020-02-14T10:24:40.189Z</time>
      </trkpt>
      <trkpt lat="42.5718" lon="1.92541">
        <ele>2557.3</ele>
        <time>2020-02-14T10:24:41.017Z</time>
      </trkpt>
      <trkpt lat="42.5718" lon="1.9254">
        <ele>2556.8</ele>
        <time>2020-02-14T10:24:41.456Z</time>
      </trkpt>
      <trkpt lat="42.57178" lon="1.92531">
        <ele>2552.4</ele>
        <time>2020-02-14T10:24:44.627Z</time>
      </trkpt>
      <trkpt lat="42.57179" lon="1.92529">
        <ele>2552</ele>
        <time>2020-02-14T10:24:45.064Z</time>
      </trkpt>
      <trkpt lat="42.57174" lon="1.92518">
        <ele>2549.6</ele>
        <time>2020-02-14T10:24:48.668Z</time>
      </trkpt>
      <trkpt lat="42.57175" lon="1.92512">
        <ele>2548.2</ele>
        <time>2020-02-14T10:24:50.429Z</time>
      </trkpt>
      <trkpt lat="42.57174" lon="1.92508">
        <ele>2546.7</ele>
        <time>2020-02-14T10:24:51.758Z</time>
      </trkpt>
      <trkpt lat="42.57175" lon="1.92504">
        <ele>2545.7</ele>
        <time>2020-02-14T10:24:53.133Z</time>
      </trkpt>
      <trkpt lat="42.57174" lon="1.92501">
        <ele>2544.8</ele>
        <time>2020-02-14T10:24:54.055Z</time>
      </trkpt>
      <trkpt lat="42.57176" lon="1.92492">
        <ele>2542.4</ele>
        <time>2020-02-14T10:24:56.673Z</time>
      </trkpt>
      <trkpt lat="42.5718" lon="1.92481">
        <ele>2539.6</ele>
        <time>2020-02-14T10:25:00.443Z</time>
      </trkpt>
      <trkpt lat="42.57185" lon="1.92465">
        <ele>2535.6</ele>
        <time>2020-02-14T10:25:05.613Z</time>
      </trkpt>
      <trkpt lat="42.57189" lon="1.92454">
        <ele>2535.1</ele>
        <time>2020-02-14T10:25:09.034Z</time>
      </trkpt>
      <trkpt lat="42.57191" lon="1.92451">
        <ele>2533.7</ele>
        <time>2020-02-14T10:25:10.222Z</time>
      </trkpt>
      <trkpt lat="42.57193" lon="1.92443">
        <ele>2535.2</ele>
        <time>2020-02-14T10:25:12.506Z</time>
      </trkpt>
      <trkpt lat="42.57191" lon="1.92441">
        <ele>2534.2</ele>
        <time>2020-02-14T10:25:13.460Z</time>
      </trkpt>
      <trkpt lat="42.57189" lon="1.9244">
        <ele>2533.3</ele>
        <time>2020-02-14T10:25:14.323Z</time>
      </trkpt>
      <trkpt lat="42.57186" lon="1.9243">
        <ele>2538.6</ele>
        <time>2020-02-14T10:25:17.925Z</time>
      </trkpt>
      <trkpt lat="42.57184" lon="1.92429">
        <ele>2539</ele>
        <time>2020-02-14T10:25:18.609Z</time>
      </trkpt>
      <trkpt lat="42.57182" lon="1.92428">
        <ele>2539.5</ele>
        <time>2020-02-14T10:25:19.436Z</time>
      </trkpt>
      <trkpt lat="42.57177" lon="1.92428">
        <ele>2538.5</ele>
        <time>2020-02-14T10:25:21.663Z</time>
      </trkpt>
      <trkpt lat="42.57176" lon="1.92428">
        <ele>2528.5</ele>
        <time>2020-02-14T10:25:25.151Z</time>
      </trkpt>
      <trkpt lat="42.57176" lon="1.92428">
        <ele>2539.6</ele>
        <time>2020-02-14T10:25:28.997Z</time>
      </trkpt>
      <trkpt lat="42.57177" lon="1.92426">
        <ele>2538.5</ele>
        <time>2020-02-14T10:25:29.488Z</time>
      </trkpt>
      <trkpt lat="42.57177" lon="1.92426">
        <ele>2536.6</ele>
        <time>2020-02-14T10:25:30.153Z</time>
      </trkpt>
      <trkpt lat="42.57176" lon="1.92426">
        <ele>2536.6</ele>
        <time>2020-02-14T10:25:30.541Z</time>
      </trkpt>
      <trkpt lat="42.57176" lon="1.92426">
        <ele>2537.5</ele>
        <time>2020-02-14T10:25:30.883Z</time>
      </trkpt>
      <trkpt lat="42.57175" lon="1.92426">
        <ele>2535.7</ele>
        <time>2020-02-14T10:25:31.580Z</time>
      </trkpt>
      <trkpt lat="42.57175" lon="1.92426">
        <ele>2537.2</ele>
        <time>2020-02-14T10:25:32.098Z</time>
      </trkpt>
      <trkpt lat="42.57175" lon="1.92425">
        <ele>2537.1</ele>
        <time>2020-02-14T10:25:32.274Z</time>
      </trkpt>
      <trkpt lat="42.57175" lon="1.92426">
        <ele>2536.2</ele>
        <time>2020-02-14T10:25:32.776Z</time>
      </trkpt>
      <trkpt lat="42.57176" lon="1.92425">
        <ele>2539</ele>
        <time>2020-02-14T10:25:33.923Z</time>
      </trkpt>
      <trkpt lat="42.57176" lon="1.92425">
        <ele>2536.1</ele>
        <time>2020-02-14T10:25:34.935Z</time>
      </trkpt>
      <trkpt lat="42.57176" lon="1.92425">
        <ele>2532.8</ele>
        <time>2020-02-14T10:25:36.110Z</time>
      </trkpt>
      <trkpt lat="42.57176" lon="1.92425">
        <ele>2537.1</ele>
        <time>2020-02-14T10:25:37.620Z</time>
      </trkpt>
      <trkpt lat="42.57176" lon="1.92425">
        <ele>2538.5</ele>
        <time>2020-02-14T10:25:38.106Z</time>
      </trkpt>
      <trkpt lat="42.57176" lon="1.92425">
        <ele>2532.8</ele>
        <time>2020-02-14T10:25:40.094Z</time>
      </trkpt>
      <trkpt lat="42.57176" lon="1.92425">
        <ele>2539.5</ele>
        <time>2020-02-14T10:25:42.440Z</time>
      </trkpt>
      <trkpt lat="42.57176" lon="1.92425">
        <ele>2534.8</ele>
        <time>2020-02-14T10:25:44.103Z</time>
      </trkpt>
      <trkpt lat="42.57176" lon="1.92425">
        <ele>2537.5</ele>
        <time>2020-02-14T10:25:45.066Z</time>
      </trkpt>
      <trkpt lat="42.57176" lon="1.92425">
        <ele>2534.2</ele>
        <time>2020-02-14T10:25:46.211Z</time>
      </trkpt>
      <trkpt lat="42.57176" lon="1.92425">
        <ele>2537.5</ele>
        <time>2020-02-14T10:25:47.353Z</time>
      </trkpt>
      <trkpt lat="42.57176" lon="1.92426">
        <ele>2536.6</ele>
        <time>2020-02-14T10:25:47.855Z</time>
      </trkpt>
      <trkpt lat="42.57176" lon="1.92426">
        <ele>2531.9</ele>
        <time>2020-02-14T10:25:49.504Z</time>
      </trkpt>
      <trkpt lat="42.57176" lon="1.92426">
        <ele>2536.6</ele>
        <time>2020-02-14T10:25:51.147Z</time>
      </trkpt>
      <trkpt lat="42.57176" lon="1.92426">
        <ele>2536.6</ele>
        <time>2020-02-14T10:25:51.150Z</time>
      </trkpt>
      <trkpt lat="42.57176" lon="1.92427">
        <ele>2531.8</ele>
        <time>2020-02-14T10:25:52.829Z</time>
      </trkpt>
      <trkpt lat="42.57176" lon="1.92426">
        <ele>2538.1</ele>
        <time>2020-02-14T10:25:55.010Z</time>
      </trkpt>
      <trkpt lat="42.57176" lon="1.92426">
        <ele>2535.7</ele>
        <time>2020-02-14T10:25:55.837Z</time>
      </trkpt>
      <trkpt lat="42.57176" lon="1.92426">
        <ele>2531.3</ele>
        <time>2020-02-14T10:25:57.354Z</time>
      </trkpt>
      <trkpt lat="42.57176" lon="1.92426">
        <ele>2537.1</ele>
        <time>2020-02-14T10:25:59.364Z</time>
      </trkpt>
      <trkpt lat="42.57176" lon="1.92426">
        <ele>2532.8</ele>
        <time>2020-02-14T10:26:00.866Z</time>
      </trkpt>
      <trkpt lat="42.57176" lon="1.92426">
        <ele>2538</ele>
        <time>2020-02-14T10:26:02.692Z</time>
      </trkpt>
      <trkpt lat="42.57176" lon="1.92426">
        <ele>2537.5</ele>
        <time>2020-02-14T10:26:02.873Z</time>
      </trkpt>
      <trkpt lat="42.57176" lon="1.92426">
        <ele>2537.2</ele>
        <time>2020-02-14T10:26:03.180Z</time>
      </trkpt>
      <trkpt lat="42.57165" lon="1.92418">
        <ele>2536.1</ele>
        <time>2020-02-14T10:26:07.799Z</time>
      </trkpt>
      <trkpt lat="42.57158" lon="1.92406">
        <ele>2536.6</ele>
        <time>2020-02-14T10:26:12.180Z</time>
      </trkpt>
      <trkpt lat="42.57156" lon="1.92399">
        <ele>2535.6</ele>
        <time>2020-02-14T10:26:14.334Z</time>
      </trkpt>
      <trkpt lat="42.57155" lon="1.92388">
        <ele>2533.8</ele>
        <time>2020-02-14T10:26:17.543Z</time>
      </trkpt>
      <trkpt lat="42.57154" lon="1.92378">
        <ele>2531.9</ele>
        <time>2020-02-14T10:26:20.396Z</time>
      </trkpt>
      <trkpt lat="42.57152" lon="1.92368">
        <ele>2530.4</ele>
        <time>2020-02-14T10:26:23.355Z</time>
      </trkpt>
      <trkpt lat="42.57152" lon="1.92362">
        <ele>2528.5</ele>
        <time>2020-02-14T10:26:25.360Z</time>
      </trkpt>
      <trkpt lat="42.57152" lon="1.92357">
        <ele>2527.4</ele>
        <time>2020-02-14T10:26:26.849Z</time>
      </trkpt>
      <trkpt lat="42.57152" lon="1.92341">
        <ele>2525.5</ele>
        <time>2020-02-14T10:26:31.417Z</time>
      </trkpt>
      <trkpt lat="42.5715" lon="1.92333">
        <ele>2524.2</ele>
        <time>2020-02-14T10:26:33.948Z</time>
      </trkpt>
      <trkpt lat="42.57151" lon="1.9233">
        <ele>2523.2</ele>
        <time>2020-02-14T10:26:34.932Z</time>
      </trkpt>
      <trkpt lat="42.57152" lon="1.92318">
        <ele>2521.2</ele>
        <time>2020-02-14T10:26:38.458Z</time>
      </trkpt>
      <trkpt lat="42.57154" lon="1.92312">
        <ele>2518.8</ele>
        <time>2020-02-14T10:26:40.425Z</time>
      </trkpt>
      <trkpt lat="42.5715" lon="1.9231">
        <ele>2519.3</ele>
        <time>2020-02-14T10:26:42.101Z</time>
      </trkpt>
      <trkpt lat="42.5715" lon="1.92307">
        <ele>2517.8</ele>
        <time>2020-02-14T10:26:43.224Z</time>
      </trkpt>
      <trkpt lat="42.57151" lon="1.92304">
        <ele>2515.9</ele>
        <time>2020-02-14T10:26:44.304Z</time>
      </trkpt>
      <trkpt lat="42.57151" lon="1.92301">
        <ele>2515.4</ele>
        <time>2020-02-14T10:26:45.112Z</time>
      </trkpt>
      <trkpt lat="42.57152" lon="1.92299">
        <ele>2514.6</ele>
        <time>2020-02-14T10:26:45.893Z</time>
      </trkpt>
      <trkpt lat="42.57152" lon="1.92298">
        <ele>2514.1</ele>
        <time>2020-02-14T10:26:46.327Z</time>
      </trkpt>
      <trkpt lat="42.5716" lon="1.92285">
        <ele>2511.1</ele>
        <time>2020-02-14T10:26:51.215Z</time>
      </trkpt>
      <trkpt lat="42.57166" lon="1.92275">
        <ele>2511.6</ele>
        <time>2020-02-14T10:26:54.869Z</time>
      </trkpt>
      <trkpt lat="42.57166" lon="1.92257">
        <ele>2508.2</ele>
        <time>2020-02-14T10:27:00.063Z</time>
      </trkpt>
      <trkpt lat="42.57164" lon="1.9225">
        <ele>2505.9</ele>
        <time>2020-02-14T10:27:02.485Z</time>
      </trkpt>
      <trkpt lat="42.57164" lon="1.92244">
        <ele>2502.9</ele>
        <time>2020-02-14T10:27:04.379Z</time>
      </trkpt>
      <trkpt lat="42.57167" lon="1.92237">
        <ele>2501.5</ele>
        <time>2020-02-14T10:27:06.549Z</time>
      </trkpt>
      <trkpt lat="42.57165" lon="1.92236">
        <ele>2501.1</ele>
        <time>2020-02-14T10:27:07.273Z</time>
      </trkpt>
      <trkpt lat="42.57164" lon="1.92233">
        <ele>2500.1</ele>
        <time>2020-02-14T10:27:08.350Z</time>
      </trkpt>
      <trkpt lat="42.57159" lon="1.92227">
        <ele>2498.1</ele>
        <time>2020-02-14T10:27:10.848Z</time>
      </trkpt>
      <trkpt lat="42.57161" lon="1.92222">
        <ele>2496.3</ele>
        <time>2020-02-14T10:27:12.589Z</time>
      </trkpt>
      <trkpt lat="42.57161" lon="1.92218">
        <ele>2494.9</ele>
        <time>2020-02-14T10:27:13.935Z</time>
      </trkpt>
      <trkpt lat="42.57164" lon="1.92215">
        <ele>2495.2</ele>
        <time>2020-02-14T10:27:15.286Z</time>
      </trkpt>
      <trkpt lat="42.57168" lon="1.92206">
        <ele>2492.8</ele>
        <time>2020-02-14T10:27:18.269Z</time>
      </trkpt>
      <trkpt lat="42.5717" lon="1.92203">
        <ele>2492.5</ele>
        <time>2020-02-14T10:27:19.371Z</time>
      </trkpt>
      <trkpt lat="42.5717" lon="1.92197">
        <ele>2491.4</ele>
        <time>2020-02-14T10:27:21.256Z</time>
      </trkpt>
      <trkpt lat="42.57166" lon="1.92194">
        <ele>2490.4</ele>
        <time>2020-02-14T10:27:22.794Z</time>
      </trkpt>
      <trkpt lat="42.57168" lon="1.92192">
        <ele>2489.5</ele>
        <time>2020-02-14T10:27:23.608Z</time>
      </trkpt>
      <trkpt lat="42.57168" lon="1.92189">
        <ele>2489</ele>
        <time>2020-02-14T10:27:24.508Z</time>
      </trkpt>
      <trkpt lat="42.57166" lon="1.92185">
        <ele>2488.5</ele>
        <time>2020-02-14T10:27:25.913Z</time>
      </trkpt>
      <trkpt lat="42.57164" lon="1.92181">
        <ele>2487.1</ele>
        <time>2020-02-14T10:27:27.592Z</time>
      </trkpt>
      <trkpt lat="42.57165" lon="1.92177">
        <ele>2486.2</ele>
        <time>2020-02-14T10:27:28.786Z</time>
      </trkpt>
      <trkpt lat="42.5717" lon="1.9217">
        <ele>2485.6</ele>
        <time>2020-02-14T10:27:31.360Z</time>
      </trkpt>
      <trkpt lat="42.57171" lon="1.92167">
        <ele>2483.2</ele>
        <time>2020-02-14T10:27:32.854Z</time>
      </trkpt>
      <trkpt lat="42.57173" lon="1.92166">
        <ele>2482.8</ele>
        <time>2020-02-14T10:27:33.668Z</time>
      </trkpt>
      <trkpt lat="42.57176" lon="1.92162">
        <ele>2482.7</ele>
        <time>2020-02-14T10:27:35.041Z</time>
      </trkpt>
      <trkpt lat="42.57179" lon="1.92155">
        <ele>2481.4</ele>
        <time>2020-02-14T10:27:37.514Z</time>
      </trkpt>
      <trkpt lat="42.57181" lon="1.92155">
        <ele>2480.3</ele>
        <time>2020-02-14T10:27:38.618Z</time>
      </trkpt>
      <trkpt lat="42.57184" lon="1.92154">
        <ele>2479.4</ele>
        <time>2020-02-14T10:27:39.779Z</time>
      </trkpt>
      <trkpt lat="42.57183" lon="1.92142">
        <ele>2478</ele>
        <time>2020-02-14T10:27:43.094Z</time>
      </trkpt>
      <trkpt lat="42.57185" lon="1.9213">
        <ele>2477</ele>
        <time>2020-02-14T10:27:46.710Z</time>
      </trkpt>
      <trkpt lat="42.57185" lon="1.9212">
        <ele>2476.5</ele>
        <time>2020-02-14T10:27:49.617Z</time>
      </trkpt>
      <trkpt lat="42.57186" lon="1.92116">
        <ele>2476.6</ele>
        <time>2020-02-14T10:27:50.833Z</time>
      </trkpt>
      <trkpt lat="42.57187" lon="1.921">
        <ele>2475.5</ele>
        <time>2020-02-14T10:27:55.175Z</time>
      </trkpt>
      <trkpt lat="42.57186" lon="1.92095">
        <ele>2475.1</ele>
        <time>2020-02-14T10:27:56.632Z</time>
      </trkpt>
      <trkpt lat="42.5719" lon="1.92083">
        <ele>2475.2</ele>
        <time>2020-02-14T10:28:00.356Z</time>
      </trkpt>
      <trkpt lat="42.57192" lon="1.92078">
        <ele>2474.6</ele>
        <time>2020-02-14T10:28:02.049Z</time>
      </trkpt>
      <trkpt lat="42.57199" lon="1.92065">
        <ele>2475.1</ele>
        <time>2020-02-14T10:28:06.516Z</time>
      </trkpt>
      <trkpt lat="42.57204" lon="1.92055">
        <ele>2475.5</ele>
        <time>2020-02-14T10:28:10.107Z</time>
      </trkpt>
      <trkpt lat="42.57214" lon="1.92047">
        <ele>2476</ele>
        <time>2020-02-14T10:28:14.512Z</time>
      </trkpt>
      <trkpt lat="42.57224" lon="1.92045">
        <ele>2475.6</ele>
        <time>2020-02-14T10:28:18.519Z</time>
      </trkpt>
      <trkpt lat="42.57227" lon="1.92042">
        <ele>2474.7</ele>
        <time>2020-02-14T10:28:20.000Z</time>
      </trkpt>
      <trkpt lat="42.57227" lon="1.92037">
        <ele>2475.2</ele>
        <time>2020-02-14T10:28:21.378Z</time>
      </trkpt>
      <trkpt lat="42.57227" lon="1.92034">
        <ele>2475.6</ele>
        <time>2020-02-14T10:28:22.213Z</time>
      </trkpt>
      <trkpt lat="42.57227" lon="1.92031">
        <ele>2475.2</ele>
        <time>2020-02-14T10:28:23.154Z</time>
      </trkpt>
      <trkpt lat="42.57227" lon="1.92014">
        <ele>2476</ele>
        <time>2020-02-14T10:28:27.890Z</time>
      </trkpt>
      <trkpt lat="42.57227" lon="1.92006">
        <ele>2476</ele>
        <time>2020-02-14T10:28:30.193Z</time>
      </trkpt>
      <trkpt lat="42.57228" lon="1.92005">
        <ele>2474.7</ele>
        <time>2020-02-14T10:28:30.923Z</time>
      </trkpt>
      <trkpt lat="42.57228" lon="1.92002">
        <ele>2474.2</ele>
        <time>2020-02-14T10:28:31.745Z</time>
      </trkpt>
      <trkpt lat="42.57226" lon="1.91996">
        <ele>2475.1</ele>
        <time>2020-02-14T10:28:33.597Z</time>
      </trkpt>
      <trkpt lat="42.57226" lon="1.91995">
        <ele>2475.1</ele>
        <time>2020-02-14T10:28:33.782Z</time>
      </trkpt>
      <trkpt lat="42.57225" lon="1.91991">
        <ele>2474.1</ele>
        <time>2020-02-14T10:28:34.940Z</time>
      </trkpt>
      <trkpt lat="42.57225" lon="1.9199">
        <ele>2474.7</ele>
        <time>2020-02-14T10:28:35.382Z</time>
      </trkpt>
      <trkpt lat="42.57223" lon="1.91984">
        <ele>2474.2</ele>
        <time>2020-02-14T10:28:37.433Z</time>
      </trkpt>
      <trkpt lat="42.57225" lon="1.91976">
        <ele>2473.7</ele>
        <time>2020-02-14T10:28:39.747Z</time>
      </trkpt>
      <trkpt lat="42.57225" lon="1.91972">
        <ele>2474.6</ele>
        <time>2020-02-14T10:28:40.810Z</time>
      </trkpt>
      <trkpt lat="42.57225" lon="1.9197">
        <ele>2474.2</ele>
        <time>2020-02-14T10:28:41.417Z</time>
      </trkpt>
      <trkpt lat="42.57229" lon="1.91959">
        <ele>2476.5</ele>
        <time>2020-02-14T10:28:44.936Z</time>
      </trkpt>
      <trkpt lat="42.57232" lon="1.91957">
        <ele>2475.2</ele>
        <time>2020-02-14T10:28:46.365Z</time>
      </trkpt>
      <trkpt lat="42.5724" lon="1.91947">
        <ele>2473.7</ele>
        <time>2020-02-14T10:28:50.567Z</time>
      </trkpt>
      <trkpt lat="42.57242" lon="1.91939">
        <ele>2472.7</ele>
        <time>2020-02-14T10:28:53.130Z</time>
      </trkpt>
      <trkpt lat="42.57244" lon="1.91932">
        <ele>2471.7</ele>
        <time>2020-02-14T10:28:55.373Z</time>
      </trkpt>
      <trkpt lat="42.57249" lon="1.91928">
        <ele>2471.3</ele>
        <time>2020-02-14T10:28:57.399Z</time>
      </trkpt>
      <trkpt lat="42.57253" lon="1.91919">
        <ele>2470.8</ele>
        <time>2020-02-14T10:29:00.285Z</time>
      </trkpt>
      <trkpt lat="42.5726" lon="1.91907">
        <ele>2469.9</ele>
        <time>2020-02-14T10:29:04.780Z</time>
      </trkpt>
      <trkpt lat="42.57263" lon="1.91901">
        <ele>2469.4</ele>
        <time>2020-02-14T10:29:06.877Z</time>
      </trkpt>
      <trkpt lat="42.57272" lon="1.91884">
        <ele>2469.8</ele>
        <time>2020-02-14T10:29:12.969Z</time>
      </trkpt>
      <trkpt lat="42.57273" lon="1.91882">
        <ele>2469.8</ele>
        <time>2020-02-14T10:29:13.549Z</time>
      </trkpt>
      <trkpt lat="42.57281" lon="1.9187">
        <ele>2470.2</ele>
        <time>2020-02-14T10:29:18.136Z</time>
      </trkpt>
      <trkpt lat="42.57282" lon="1.91867">
        <ele>2471.2</ele>
        <time>2020-02-14T10:29:19.162Z</time>
      </trkpt>
      <trkpt lat="42.57287" lon="1.91861">
        <ele>2471.8</ele>
        <time>2020-02-14T10:29:21.871Z</time>
      </trkpt>
      <trkpt lat="42.57287" lon="1.9186">
        <ele>2471.7</ele>
        <time>2020-02-14T10:29:21.953Z</time>
      </trkpt>
      <trkpt lat="42.57289" lon="1.91853">
        <ele>2469.8</ele>
        <time>2020-02-14T10:29:24.177Z</time>
      </trkpt>
      <trkpt lat="42.57296" lon="1.91846">
        <ele>2467.9</ele>
        <time>2020-02-14T10:29:27.584Z</time>
      </trkpt>
      <trkpt lat="42.57301" lon="1.91841">
        <ele>2468.4</ele>
        <time>2020-02-14T10:29:30.009Z</time>
      </trkpt>
      <trkpt lat="42.57302" lon="1.91828">
        <ele>2468.8</ele>
        <time>2020-02-14T10:29:33.551Z</time>
      </trkpt>
      <trkpt lat="42.57308" lon="1.91813">
        <ele>2468.3</ele>
        <time>2020-02-14T10:29:38.466Z</time>
      </trkpt>
      <trkpt lat="42.5731" lon="1.91811">
        <ele>2468.3</ele>
        <time>2020-02-14T10:29:39.478Z</time>
      </trkpt>
      <trkpt lat="42.57311" lon="1.91795">
        <ele>2467.4</ele>
        <time>2020-02-14T10:29:44.092Z</time>
      </trkpt>
      <trkpt lat="42.57315" lon="1.91781">
        <ele>2466.4</ele>
        <time>2020-02-14T10:29:48.280Z</time>
      </trkpt>
      <trkpt lat="42.57316" lon="1.91778">
        <ele>2466</ele>
        <time>2020-02-14T10:29:49.213Z</time>
      </trkpt>
      <trkpt lat="42.57322" lon="1.91765">
        <ele>2466</ele>
        <time>2020-02-14T10:29:53.344Z</time>
      </trkpt>
      <trkpt lat="42.57332" lon="1.91755">
        <ele>2466.9</ele>
        <time>2020-02-14T10:29:58.199Z</time>
      </trkpt>
      <trkpt lat="42.57334" lon="1.91751">
        <ele>2466.4</ele>
        <time>2020-02-14T10:29:59.583Z</time>
      </trkpt>
      <trkpt lat="42.57338" lon="1.91747">
        <ele>2465.5</ele>
        <time>2020-02-14T10:30:01.644Z</time>
      </trkpt>
      <trkpt lat="42.57342" lon="1.91738">
        <ele>2465.5</ele>
        <time>2020-02-14T10:30:04.541Z</time>
      </trkpt>
      <trkpt lat="42.57348" lon="1.91729">
        <ele>2463.6</ele>
        <time>2020-02-14T10:30:08.141Z</time>
      </trkpt>
      <trkpt lat="42.57354" lon="1.91717">
        <ele>2460.3</ele>
        <time>2020-02-14T10:30:12.353Z</time>
      </trkpt>
      <trkpt lat="42.57358" lon="1.91711">
        <ele>2458.2</ele>
        <time>2020-02-14T10:30:15.003Z</time>
      </trkpt>
      <trkpt lat="42.5736" lon="1.9171">
        <ele>2457.3</ele>
        <time>2020-02-14T10:30:15.847Z</time>
      </trkpt>
      <trkpt lat="42.57361" lon="1.91707">
        <ele>2456.3</ele>
        <time>2020-02-14T10:30:16.680Z</time>
      </trkpt>
      <trkpt lat="42.5736" lon="1.91702">
        <ele>2454.9</ele>
        <time>2020-02-14T10:30:18.185Z</time>
      </trkpt>
      <trkpt lat="42.57362" lon="1.91701">
        <ele>2454</ele>
        <time>2020-02-14T10:30:19.224Z</time>
      </trkpt>
      <trkpt lat="42.57373" lon="1.91685">
        <ele>2450.1</ele>
        <time>2020-02-14T10:30:25.419Z</time>
      </trkpt>
      <trkpt lat="42.57374" lon="1.9168">
        <ele>2449.6</ele>
        <time>2020-02-14T10:30:26.887Z</time>
      </trkpt>
      <trkpt lat="42.57382" lon="1.91667">
        <ele>2446.3</ele>
        <time>2020-02-14T10:30:31.826Z</time>
      </trkpt>
      <trkpt lat="42.57386" lon="1.91663">
        <ele>2444.8</ele>
        <time>2020-02-14T10:30:33.904Z</time>
      </trkpt>
      <trkpt lat="42.5739" lon="1.91657">
        <ele>2443.4</ele>
        <time>2020-02-14T10:30:36.182Z</time>
      </trkpt>
      <trkpt lat="42.57393" lon="1.91651">
        <ele>2441.9</ele>
        <time>2020-02-14T10:30:38.423Z</time>
      </trkpt>
      <trkpt lat="42.574" lon="1.91651">
        <ele>2440.5</ele>
        <time>2020-02-14T10:30:41.206Z</time>
      </trkpt>
      <trkpt lat="42.57405" lon="1.91646">
        <ele>2437.6</ele>
        <time>2020-02-14T10:30:43.609Z</time>
      </trkpt>
      <trkpt lat="42.57409" lon="1.91638">
        <ele>2434.3</ele>
        <time>2020-02-14T10:30:46.696Z</time>
      </trkpt>
      <trkpt lat="42.57414" lon="1.91631">
        <ele>2432.3</ele>
        <time>2020-02-14T10:30:49.568Z</time>
      </trkpt>
      <trkpt lat="42.57416" lon="1.91629">
        <ele>2430.8</ele>
        <time>2020-02-14T10:30:50.599Z</time>
      </trkpt>
      <trkpt lat="42.57416" lon="1.91624">
        <ele>2431.3</ele>
        <time>2020-02-14T10:30:52.126Z</time>
      </trkpt>
      <trkpt lat="42.57415" lon="1.91622">
        <ele>2430.8</ele>
        <time>2020-02-14T10:30:52.986Z</time>
      </trkpt>
      <trkpt lat="42.57414" lon="1.91619">
        <ele>2430</ele>
        <time>2020-02-14T10:30:53.868Z</time>
      </trkpt>
      <trkpt lat="42.57414" lon="1.91616">
        <ele>2428.5</ele>
        <time>2020-02-14T10:30:54.820Z</time>
      </trkpt>
      <trkpt lat="42.57416" lon="1.91614">
        <ele>2426.6</ele>
        <time>2020-02-14T10:30:56.170Z</time>
      </trkpt>
      <trkpt lat="42.57419" lon="1.91607">
        <ele>2424.6</ele>
        <time>2020-02-14T10:30:58.397Z</time>
      </trkpt>
      <trkpt lat="42.57419" lon="1.91605">
        <ele>2421.3</ele>
        <time>2020-02-14T10:30:59.737Z</time>
      </trkpt>
      <trkpt lat="42.57423" lon="1.91597">
        <ele>2418.9</ele>
        <time>2020-02-14T10:31:02.786Z</time>
      </trkpt>
      <trkpt lat="42.57425" lon="1.91593">
        <ele>2417.5</ele>
        <time>2020-02-14T10:31:04.045Z</time>
      </trkpt>
      <trkpt lat="42.57423" lon="1.91586">
        <ele>2415.1</ele>
        <time>2020-02-14T10:31:06.152Z</time>
      </trkpt>
      <trkpt lat="42.57422" lon="1.91581">
        <ele>2413.2</ele>
        <time>2020-02-14T10:31:07.964Z</time>
      </trkpt>
      <trkpt lat="42.57425" lon="1.91579">
        <ele>2412.1</ele>
        <time>2020-02-14T10:31:09.120Z</time>
      </trkpt>
      <trkpt lat="42.57425" lon="1.91574">
        <ele>2410.2</ele>
        <time>2020-02-14T10:31:10.715Z</time>
      </trkpt>
      <trkpt lat="42.57421" lon="1.91568">
        <ele>2408.7</ele>
        <time>2020-02-14T10:31:13.088Z</time>
      </trkpt>
      <trkpt lat="42.57421" lon="1.91557">
        <ele>2405.5</ele>
        <time>2020-02-14T10:31:16.546Z</time>
      </trkpt>
      <trkpt lat="42.57422" lon="1.91546">
        <ele>2403</ele>
        <time>2020-02-14T10:31:19.677Z</time>
      </trkpt>
      <trkpt lat="42.57423" lon="1.91544">
        <ele>2403.1</ele>
        <time>2020-02-14T10:31:20.477Z</time>
      </trkpt>
      <trkpt lat="42.5743" lon="1.91538">
        <ele>2399.6</ele>
        <time>2020-02-14T10:31:23.705Z</time>
      </trkpt>
      <trkpt lat="42.57435" lon="1.9153">
        <ele>2396.3</ele>
        <time>2020-02-14T10:31:27.122Z</time>
      </trkpt>
      <trkpt lat="42.57435" lon="1.91528">
        <ele>2395.8</ele>
        <time>2020-02-14T10:31:27.483Z</time>
      </trkpt>
      <trkpt lat="42.57439" lon="1.91517">
        <ele>2394.3</ele>
        <time>2020-02-14T10:31:30.982Z</time>
      </trkpt>
      <trkpt lat="42.57442" lon="1.91509">
        <ele>2394.3</ele>
        <time>2020-02-14T10:31:33.491Z</time>
      </trkpt>
      <trkpt lat="42.57442" lon="1.91502">
        <ele>2394.3</ele>
        <time>2020-02-14T10:31:35.640Z</time>
      </trkpt>
      <trkpt lat="42.57443" lon="1.915">
        <ele>2394.3</ele>
        <time>2020-02-14T10:31:36.483Z</time>
      </trkpt>
      <trkpt lat="42.57451" lon="1.91492">
        <ele>2393.8</ele>
        <time>2020-02-14T10:31:40.088Z</time>
      </trkpt>
      <trkpt lat="42.57457" lon="1.91487">
        <ele>2390.1</ele>
        <time>2020-02-14T10:31:43.017Z</time>
      </trkpt>
      <trkpt lat="42.57458" lon="1.91486">
        <ele>2391.4</ele>
        <time>2020-02-14T10:31:43.652Z</time>
      </trkpt>
      <trkpt lat="42.57459" lon="1.91485">
        <ele>2395.3</ele>
        <time>2020-02-14T10:31:45.095Z</time>
      </trkpt>
      <trkpt lat="42.57459" lon="1.91484">
        <ele>2392.9</ele>
        <time>2020-02-14T10:31:46.047Z</time>
      </trkpt>
      <trkpt lat="42.57461" lon="1.91481">
        <ele>2392.9</ele>
        <time>2020-02-14T10:31:46.983Z</time>
      </trkpt>
      <trkpt lat="42.57463" lon="1.91475">
        <ele>2392.4</ele>
        <time>2020-02-14T10:31:49.015Z</time>
      </trkpt>
      <trkpt lat="42.57466" lon="1.91471">
        <ele>2391.4</ele>
        <time>2020-02-14T10:31:50.463Z</time>
      </trkpt>
      <trkpt lat="42.5747" lon="1.9147">
        <ele>2390.6</ele>
        <time>2020-02-14T10:31:51.950Z</time>
      </trkpt>
      <trkpt lat="42.57471" lon="1.9147">
        <ele>2390.5</ele>
        <time>2020-02-14T10:31:52.538Z</time>
      </trkpt>
      <trkpt lat="42.57475" lon="1.91467">
        <ele>2389</ele>
        <time>2020-02-14T10:31:54.231Z</time>
      </trkpt>
      <trkpt lat="42.57496" lon="1.91457">
        <ele>2387.2</ele>
        <time>2020-02-14T10:32:02.968Z</time>
      </trkpt>
      <trkpt lat="42.57501" lon="1.91455">
        <ele>2386.7</ele>
        <time>2020-02-14T10:32:05.059Z</time>
      </trkpt>
      <trkpt lat="42.57508" lon="1.91454">
        <ele>2386.2</ele>
        <time>2020-02-14T10:32:07.826Z</time>
      </trkpt>
      <trkpt lat="42.57523" lon="1.91435">
        <ele>2385.2</ele>
        <time>2020-02-14T10:32:15.491Z</time>
      </trkpt>
      <trkpt lat="42.5753" lon="1.91417">
        <ele>2386.1</ele>
        <time>2020-02-14T10:32:21.499Z</time>
      </trkpt>
      <trkpt lat="42.57531" lon="1.91414">
        <ele>2386.2</ele>
        <time>2020-02-14T10:32:22.476Z</time>
      </trkpt>
      <trkpt lat="42.57532" lon="1.91398">
        <ele>2388.5</ele>
        <time>2020-02-14T10:32:26.962Z</time>
      </trkpt>
      <trkpt lat="42.57534" lon="1.9139">
        <ele>2389.1</ele>
        <time>2020-02-14T10:32:29.347Z</time>
      </trkpt>
      <trkpt lat="42.57535" lon="1.91386">
        <ele>2388.6</ele>
        <time>2020-02-14T10:32:30.624Z</time>
      </trkpt>
      <trkpt lat="42.57541" lon="1.91362">
        <ele>2387.6</ele>
        <time>2020-02-14T10:32:37.877Z</time>
      </trkpt>
      <trkpt lat="42.57544" lon="1.91353">
        <ele>2388.1</ele>
        <time>2020-02-14T10:32:40.592Z</time>
      </trkpt>
      <trkpt lat="42.5754" lon="1.91337">
        <ele>2387.7</ele>
        <time>2020-02-14T10:32:45.320Z</time>
      </trkpt>
      <trkpt lat="42.5754" lon="1.91332">
        <ele>2386.7</ele>
        <time>2020-02-14T10:32:46.790Z</time>
      </trkpt>
      <trkpt lat="42.57543" lon="1.91326">
        <ele>2387.1</ele>
        <time>2020-02-14T10:32:48.936Z</time>
      </trkpt>
      <trkpt lat="42.57547" lon="1.91321">
        <ele>2385.8</ele>
        <time>2020-02-14T10:32:51.071Z</time>
      </trkpt>
      <trkpt lat="42.57556" lon="1.9132">
        <ele>2383.3</ele>
        <time>2020-02-14T10:32:54.654Z</time>
      </trkpt>
      <trkpt lat="42.57557" lon="1.91311">
        <ele>2382.4</ele>
        <time>2020-02-14T10:32:57.347Z</time>
      </trkpt>
      <trkpt lat="42.57558" lon="1.91301">
        <ele>2382.8</ele>
        <time>2020-02-14T10:33:00.263Z</time>
      </trkpt>
      <trkpt lat="42.57561" lon="1.91294">
        <ele>2382.4</ele>
        <time>2020-02-14T10:33:02.463Z</time>
      </trkpt>
      <trkpt lat="42.57564" lon="1.91286">
        <ele>2380.8</ele>
        <time>2020-02-14T10:33:05.026Z</time>
      </trkpt>
      <trkpt lat="42.57565" lon="1.9128">
        <ele>2380.4</ele>
        <time>2020-02-14T10:33:06.893Z</time>
      </trkpt>
      <trkpt lat="42.57568" lon="1.91278">
        <ele>2379.9</ele>
        <time>2020-02-14T10:33:08.135Z</time>
      </trkpt>
      <trkpt lat="42.5757" lon="1.91272">
        <ele>2379.5</ele>
        <time>2020-02-14T10:33:09.852Z</time>
      </trkpt>
      <trkpt lat="42.57578" lon="1.91261">
        <ele>2376</ele>
        <time>2020-02-14T10:33:14.471Z</time>
      </trkpt>
      <trkpt lat="42.57586" lon="1.9125">
        <ele>2372.8</ele>
        <time>2020-02-14T10:33:19.028Z</time>
      </trkpt>
      <trkpt lat="42.57586" lon="1.91249">
        <ele>2372.8</ele>
        <time>2020-02-14T10:33:19.381Z</time>
      </trkpt>
      <trkpt lat="42.57589" lon="1.91238">
        <ele>2369.4</ele>
        <time>2020-02-14T10:33:22.655Z</time>
      </trkpt>
      <trkpt lat="42.57589" lon="1.91237">
        <ele>2369.4</ele>
        <time>2020-02-14T10:33:23.045Z</time>
      </trkpt>
      <trkpt lat="42.5759" lon="1.91234">
        <ele>2368.4</ele>
        <time>2020-02-14T10:33:24.038Z</time>
      </trkpt>
      <trkpt lat="42.5759" lon="1.91229">
        <ele>2367</ele>
        <time>2020-02-14T10:33:25.655Z</time>
      </trkpt>
      <trkpt lat="42.57592" lon="1.91221">
        <ele>2364</ele>
        <time>2020-02-14T10:33:28.286Z</time>
      </trkpt>
      <trkpt lat="42.57597" lon="1.91212">
        <ele>2362.1</ele>
        <time>2020-02-14T10:33:31.649Z</time>
      </trkpt>
      <trkpt lat="42.576" lon="1.91198">
        <ele>2359.7</ele>
        <time>2020-02-14T10:33:35.647Z</time>
      </trkpt>
      <trkpt lat="42.57598" lon="1.9119">
        <ele>2357.9</ele>
        <time>2020-02-14T10:33:38.257Z</time>
      </trkpt>
      <trkpt lat="42.57597" lon="1.91189">
        <ele>2357.4</ele>
        <time>2020-02-14T10:33:38.669Z</time>
      </trkpt>
      <trkpt lat="42.57594" lon="1.91184">
        <ele>2357.9</ele>
        <time>2020-02-14T10:33:40.421Z</time>
      </trkpt>
      <trkpt lat="42.57592" lon="1.91176">
        <ele>2357.8</ele>
        <time>2020-02-14T10:33:42.879Z</time>
      </trkpt>
      <trkpt lat="42.57593" lon="1.91169">
        <ele>2356.8</ele>
        <time>2020-02-14T10:33:45.098Z</time>
      </trkpt>
      <trkpt lat="42.57592" lon="1.91164">
        <ele>2355.4</ele>
        <time>2020-02-14T10:33:46.633Z</time>
      </trkpt>
      <trkpt lat="42.57592" lon="1.91161">
        <ele>2355.5</ele>
        <time>2020-02-14T10:33:47.352Z</time>
      </trkpt>
      <trkpt lat="42.57593" lon="1.91155">
        <ele>2354</ele>
        <time>2020-02-14T10:33:49.291Z</time>
      </trkpt>
      <trkpt lat="42.57591" lon="1.91141">
        <ele>2352.1</ele>
        <time>2020-02-14T10:33:53.338Z</time>
      </trkpt>
      <trkpt lat="42.57593" lon="1.91133">
        <ele>2351</ele>
        <time>2020-02-14T10:33:55.850Z</time>
      </trkpt>
      <trkpt lat="42.57593" lon="1.9113">
        <ele>2351</ele>
        <time>2020-02-14T10:33:56.675Z</time>
      </trkpt>
      <trkpt lat="42.57599" lon="1.91122">
        <ele>2350.2</ele>
        <time>2020-02-14T10:33:59.821Z</time>
      </trkpt>
      <trkpt lat="42.57605" lon="1.9111">
        <ele>2349.7</ele>
        <time>2020-02-14T10:34:04.196Z</time>
      </trkpt>
      <trkpt lat="42.57605" lon="1.91107">
        <ele>2349.1</ele>
        <time>2020-02-14T10:34:05.070Z</time>
      </trkpt>
      <trkpt lat="42.57612" lon="1.91095">
        <ele>2345.9</ele>
        <time>2020-02-14T10:34:09.640Z</time>
      </trkpt>
      <trkpt lat="42.5762" lon="1.91078">
        <ele>2345.4</ele>
        <time>2020-02-14T10:34:15.239Z</time>
      </trkpt>
      <trkpt lat="42.57623" lon="1.91061">
        <ele>2343</ele>
        <time>2020-02-14T10:34:20.292Z</time>
      </trkpt>
      <trkpt lat="42.57625" lon="1.91056">
        <ele>2342.5</ele>
        <time>2020-02-14T10:34:21.692Z</time>
      </trkpt>
      <trkpt lat="42.57624" lon="1.91053">
        <ele>2341.4</ele>
        <time>2020-02-14T10:34:22.717Z</time>
      </trkpt>
      <trkpt lat="42.57625" lon="1.9105">
        <ele>2340.6</ele>
        <time>2020-02-14T10:34:23.588Z</time>
      </trkpt>
      <trkpt lat="42.57627" lon="1.91039">
        <ele>2339.5</ele>
        <time>2020-02-14T10:34:26.913Z</time>
      </trkpt>
      <trkpt lat="42.57631" lon="1.9102">
        <ele>2337.6</ele>
        <time>2020-02-14T10:34:32.509Z</time>
      </trkpt>
      <trkpt lat="42.57634" lon="1.91007">
        <ele>2334.8</ele>
        <time>2020-02-14T10:34:36.521Z</time>
      </trkpt>
      <trkpt lat="42.57635" lon="1.90999">
        <ele>2332.8</ele>
        <time>2020-02-14T10:34:38.924Z</time>
      </trkpt>
      <trkpt lat="42.57634" lon="1.90996">
        <ele>2331.9</ele>
        <time>2020-02-14T10:34:39.903Z</time>
      </trkpt>
      <trkpt lat="42.57634" lon="1.90992">
        <ele>2331.3</ele>
        <time>2020-02-14T10:34:41.167Z</time>
      </trkpt>
      <trkpt lat="42.57633" lon="1.90988">
        <ele>2329.5</ele>
        <time>2020-02-14T10:34:42.624Z</time>
      </trkpt>
      <trkpt lat="42.57632" lon="1.9098">
        <ele>2327</ele>
        <time>2020-02-14T10:34:44.921Z</time>
      </trkpt>
      <trkpt lat="42.57633" lon="1.90972">
        <ele>2325.6</ele>
        <time>2020-02-14T10:34:47.400Z</time>
      </trkpt>
      <trkpt lat="42.57636" lon="1.90965">
        <ele>2324.2</ele>
        <time>2020-02-14T10:34:49.665Z</time>
      </trkpt>
      <trkpt lat="42.57644" lon="1.90958">
        <ele>2321.3</ele>
        <time>2020-02-14T10:34:53.419Z</time>
      </trkpt>
      <trkpt lat="42.57647" lon="1.90954">
        <ele>2320.8</ele>
        <time>2020-02-14T10:34:54.963Z</time>
      </trkpt>
      <trkpt lat="42.5765" lon="1.90951">
        <ele>2319.8</ele>
        <time>2020-02-14T10:34:56.626Z</time>
      </trkpt>
      <trkpt lat="42.57654" lon="1.90946">
        <ele>2318.9</ele>
        <time>2020-02-14T10:34:58.573Z</time>
      </trkpt>
      <trkpt lat="42.57658" lon="1.90939">
        <ele>2317</ele>
        <time>2020-02-14T10:35:01.180Z</time>
      </trkpt>
      <trkpt lat="42.57663" lon="1.90933">
        <ele>2314.6</ele>
        <time>2020-02-14T10:35:03.947Z</time>
      </trkpt>
      <trkpt lat="42.57673" lon="1.90924">
        <ele>2313.1</ele>
        <time>2020-02-14T10:35:08.604Z</time>
      </trkpt>
      <trkpt lat="42.5768" lon="1.9091">
        <ele>2311.6</ele>
        <time>2020-02-14T10:35:13.372Z</time>
      </trkpt>
      <trkpt lat="42.57685" lon="1.90902">
        <ele>2310.7</ele>
        <time>2020-02-14T10:35:16.389Z</time>
      </trkpt>
      <trkpt lat="42.57688" lon="1.90895">
        <ele>2309.3</ele>
        <time>2020-02-14T10:35:18.871Z</time>
      </trkpt>
      <trkpt lat="42.57699" lon="1.90886">
        <ele>2307.9</ele>
        <time>2020-02-14T10:35:23.680Z</time>
      </trkpt>
      <trkpt lat="42.57707" lon="1.90874">
        <ele>2306.8</ele>
        <time>2020-02-14T10:35:28.443Z</time>
      </trkpt>
      <trkpt lat="42.57709" lon="1.90869">
        <ele>2306.3</ele>
        <time>2020-02-14T10:35:29.813Z</time>
      </trkpt>
      <trkpt lat="42.57709" lon="1.90866">
        <ele>2305.9</ele>
        <time>2020-02-14T10:35:30.881Z</time>
      </trkpt>
      <trkpt lat="42.57716" lon="1.90853">
        <ele>2303.1</ele>
        <time>2020-02-14T10:35:35.463Z</time>
      </trkpt>
      <trkpt lat="42.57718" lon="1.90846">
        <ele>2301.2</ele>
        <time>2020-02-14T10:35:37.646Z</time>
      </trkpt>
      <trkpt lat="42.57718" lon="1.90843">
        <ele>2298.7</ele>
        <time>2020-02-14T10:35:38.824Z</time>
      </trkpt>
      <trkpt lat="42.57716" lon="1.90827">
        <ele>2296.3</ele>
        <time>2020-02-14T10:35:43.440Z</time>
      </trkpt>
      <trkpt lat="42.57717" lon="1.90809">
        <ele>2295.9</ele>
        <time>2020-02-14T10:35:48.575Z</time>
      </trkpt>
      <trkpt lat="42.57721" lon="1.90795">
        <ele>2293.9</ele>
        <time>2020-02-14T10:35:52.993Z</time>
      </trkpt>
      <trkpt lat="42.57723" lon="1.90786">
        <ele>2298.2</ele>
        <time>2020-02-14T10:35:56.050Z</time>
      </trkpt>
      <trkpt lat="42.57723" lon="1.90784">
        <ele>2292.9</ele>
        <time>2020-02-14T10:35:57.979Z</time>
      </trkpt>
      <trkpt lat="42.57723" lon="1.90777">
        <ele>2298.3</ele>
        <time>2020-02-14T10:36:00.529Z</time>
      </trkpt>
      <trkpt lat="42.57723" lon="1.90775">
        <ele>2282.3</ele>
        <time>2020-02-14T10:36:06.106Z</time>
      </trkpt>
      <trkpt lat="42.57724" lon="1.90773">
        <ele>2294.3</ele>
        <time>2020-02-14T10:36:10.310Z</time>
      </trkpt>
      <trkpt lat="42.57724" lon="1.90768">
        <ele>2287.1</ele>
        <time>2020-02-14T10:36:13.294Z</time>
      </trkpt>
      <trkpt lat="42.57725" lon="1.90766">
        <ele>2293</ele>
        <time>2020-02-14T10:36:15.393Z</time>
      </trkpt>
      <trkpt lat="42.57727" lon="1.90757">
        <ele>2288.6</ele>
        <time>2020-02-14T10:36:18.504Z</time>
      </trkpt>
      <trkpt lat="42.57728" lon="1.90755">
        <ele>2293</ele>
        <time>2020-02-14T10:36:20.091Z</time>
      </trkpt>
      <trkpt lat="42.57729" lon="1.90748">
        <ele>2291.4</ele>
        <time>2020-02-14T10:36:22.204Z</time>
      </trkpt>
      <trkpt lat="42.57731" lon="1.90745">
        <ele>2290.5</ele>
        <time>2020-02-14T10:36:23.414Z</time>
      </trkpt>
      <trkpt lat="42.5773" lon="1.90728">
        <ele>2290</ele>
        <time>2020-02-14T10:36:28.364Z</time>
      </trkpt>
      <trkpt lat="42.57728" lon="1.90723">
        <ele>2290.1</ele>
        <time>2020-02-14T10:36:30.002Z</time>
      </trkpt>
      <trkpt lat="42.57723" lon="1.90718">
        <ele>2290.1</ele>
        <time>2020-02-14T10:36:32.281Z</time>
      </trkpt>
      <trkpt lat="42.57727" lon="1.907">
        <ele>2289</ele>
        <time>2020-02-14T10:36:37.519Z</time>
      </trkpt>
      <trkpt lat="42.57727" lon="1.90677">
        <ele>2287.6</ele>
        <time>2020-02-14T10:36:43.991Z</time>
      </trkpt>
      <trkpt lat="42.57729" lon="1.90668">
        <ele>2286.7</ele>
        <time>2020-02-14T10:36:46.901Z</time>
      </trkpt>
      <trkpt lat="42.57729" lon="1.90667">
        <ele>2287.2</ele>
        <time>2020-02-14T10:36:47.113Z</time>
      </trkpt>
      <trkpt lat="42.57734" lon="1.90666">
        <ele>2286.7</ele>
        <time>2020-02-14T10:36:48.832Z</time>
      </trkpt>
      <trkpt lat="42.57733" lon="1.90662">
        <ele>2285.8</ele>
        <time>2020-02-14T10:36:50.096Z</time>
      </trkpt>
      <trkpt lat="42.57733" lon="1.90662">
        <ele>2285.7</ele>
        <time>2020-02-14T10:36:50.099Z</time>
      </trkpt>
      <trkpt lat="42.57733" lon="1.90661">
        <ele>2290.1</ele>
        <time>2020-02-14T10:36:51.629Z</time>
      </trkpt>
      <trkpt lat="42.57733" lon="1.90661">
        <ele>2285.7</ele>
        <time>2020-02-14T10:36:53.134Z</time>
      </trkpt>
      <trkpt lat="42.57733" lon="1.9066">
        <ele>2284.8</ele>
        <time>2020-02-14T10:36:53.482Z</time>
      </trkpt>
      <trkpt lat="42.57733" lon="1.90659">
        <ele>2283.3</ele>
        <time>2020-02-14T10:36:54.057Z</time>
      </trkpt>
      <trkpt lat="42.57737" lon="1.90651">
        <ele>2280.4</ele>
        <time>2020-02-14T10:36:56.983Z</time>
      </trkpt>
      <trkpt lat="42.57741" lon="1.90644">
        <ele>2278.9</ele>
        <time>2020-02-14T10:36:59.539Z</time>
      </trkpt>
      <trkpt lat="42.5775" lon="1.90631">
        <ele>2276.6</ele>
        <time>2020-02-14T10:37:04.831Z</time>
      </trkpt>
      <trkpt lat="42.57756" lon="1.90619">
        <ele>2275.2</ele>
        <time>2020-02-14T10:37:08.935Z</time>
      </trkpt>
      <trkpt lat="42.57756" lon="1.90619">
        <ele>2275.2</ele>
        <time>2020-02-14T10:37:08.943Z</time>
      </trkpt>
      <trkpt lat="42.57763" lon="1.9061">
        <ele>2272.3</ele>
        <time>2020-02-14T10:37:12.819Z</time>
      </trkpt>
      <trkpt lat="42.57764" lon="1.90611">
        <ele>2272.2</ele>
        <time>2020-02-14T10:37:13.044Z</time>
      </trkpt>
      <trkpt lat="42.57764" lon="1.90611">
        <ele>2272.3</ele>
        <time>2020-02-14T10:37:13.060Z</time>
      </trkpt>
      <trkpt lat="42.57764" lon="1.90606">
        <ele>2271.7</ele>
        <time>2020-02-14T10:37:14.324Z</time>
      </trkpt>
      <trkpt lat="42.57765" lon="1.90587">
        <ele>2271.3</ele>
        <time>2020-02-14T10:37:19.879Z</time>
      </trkpt>
      <trkpt lat="42.57762" lon="1.9057">
        <ele>2277</ele>
        <time>2020-02-14T10:37:25.039Z</time>
      </trkpt>
      <trkpt lat="42.57762" lon="1.90569">
        <ele>2269.8</ele>
        <time>2020-02-14T10:37:27.575Z</time>
      </trkpt>
      <trkpt lat="42.57763" lon="1.9056">
        <ele>2266.5</ele>
        <time>2020-02-14T10:37:30.442Z</time>
      </trkpt>
      <trkpt lat="42.57764" lon="1.90559">
        <ele>2263.2</ele>
        <time>2020-02-14T10:37:31.727Z</time>
      </trkpt>
      <trkpt lat="42.57766" lon="1.90557">
        <ele>2268</ele>
        <time>2020-02-14T10:37:33.564Z</time>
      </trkpt>
      <trkpt lat="42.57768" lon="1.90555">
        <ele>2265.1</ele>
        <time>2020-02-14T10:37:34.955Z</time>
      </trkpt>
      <trkpt lat="42.57772" lon="1.90554">
        <ele>2262.7</ele>
        <time>2020-02-14T10:37:36.683Z</time>
      </trkpt>
      <trkpt lat="42.57775" lon="1.90548">
        <ele>2259.3</ele>
        <time>2020-02-14T10:37:39.038Z</time>
      </trkpt>
      <trkpt lat="42.57774" lon="1.90545">
        <ele>2260.8</ele>
        <time>2020-02-14T10:37:40.068Z</time>
      </trkpt>
      <trkpt lat="42.57776" lon="1.90536">
        <ele>2258.9</ele>
        <time>2020-02-14T10:37:42.843Z</time>
      </trkpt>
      <trkpt lat="42.57781" lon="1.90528">
        <ele>2256.4</ele>
        <time>2020-02-14T10:37:46.123Z</time>
      </trkpt>
      <trkpt lat="42.57778" lon="1.90524">
        <ele>2254.1</ele>
        <time>2020-02-14T10:37:47.945Z</time>
      </trkpt>
      <trkpt lat="42.57778" lon="1.90518">
        <ele>2251.1</ele>
        <time>2020-02-14T10:37:50.099Z</time>
      </trkpt>
      <trkpt lat="42.57779" lon="1.90512">
        <ele>2247.7</ele>
        <time>2020-02-14T10:37:52.098Z</time>
      </trkpt>
      <trkpt lat="42.57778" lon="1.90507">
        <ele>2245.4</ele>
        <time>2020-02-14T10:37:53.717Z</time>
      </trkpt>
      <trkpt lat="42.5778" lon="1.90502">
        <ele>2244.3</ele>
        <time>2020-02-14T10:37:55.508Z</time>
      </trkpt>
      <trkpt lat="42.57785" lon="1.90493">
        <ele>2241.9</ele>
        <time>2020-02-14T10:37:58.760Z</time>
      </trkpt>
      <trkpt lat="42.57787" lon="1.90488">
        <ele>2241.1</ele>
        <time>2020-02-14T10:38:00.412Z</time>
      </trkpt>
      <trkpt lat="42.5779" lon="1.90487">
        <ele>2240</ele>
        <time>2020-02-14T10:38:01.559Z</time>
      </trkpt>
      <trkpt lat="42.57792" lon="1.90485">
        <ele>2239.5</ele>
        <time>2020-02-14T10:38:02.392Z</time>
      </trkpt>
      <trkpt lat="42.57793" lon="1.90473">
        <ele>2237.6</ele>
        <time>2020-02-14T10:38:05.913Z</time>
      </trkpt>
      <trkpt lat="42.5779" lon="1.90463">
        <ele>2234.2</ele>
        <time>2020-02-14T10:38:09.347Z</time>
      </trkpt>
      <trkpt lat="42.57788" lon="1.9046">
        <ele>2233.9</ele>
        <time>2020-02-14T10:38:10.367Z</time>
      </trkpt>
      <trkpt lat="42.57789" lon="1.90441">
        <ele>2232.8</ele>
        <time>2020-02-14T10:38:15.778Z</time>
      </trkpt>
      <trkpt lat="42.5779" lon="1.90432">
        <ele>2231.4</ele>
        <time>2020-02-14T10:38:18.469Z</time>
      </trkpt>
      <trkpt lat="42.5779" lon="1.90423">
        <ele>2228</ele>
        <time>2020-02-14T10:38:21.206Z</time>
      </trkpt>
      <trkpt lat="42.5779" lon="1.90422">
        <ele>2231.9</ele>
        <time>2020-02-14T10:38:22.581Z</time>
      </trkpt>
      <trkpt lat="42.57791" lon="1.90417">
        <ele>2226.2</ele>
        <time>2020-02-14T10:38:24.984Z</time>
      </trkpt>
      <trkpt lat="42.57791" lon="1.90416">
        <ele>2230</ele>
        <time>2020-02-14T10:38:26.403Z</time>
      </trkpt>
      <trkpt lat="42.57792" lon="1.90414">
        <ele>2237.1</ele>
        <time>2020-02-14T10:38:28.939Z</time>
      </trkpt>
      <trkpt lat="42.57792" lon="1.90411">
        <ele>2231.5</ele>
        <time>2020-02-14T10:38:31.030Z</time>
      </trkpt>
      <trkpt lat="42.57794" lon="1.90406">
        <ele>2228</ele>
        <time>2020-02-14T10:38:33.075Z</time>
      </trkpt>
      <trkpt lat="42.57795" lon="1.90405">
        <ele>2233.9</ele>
        <time>2020-02-14T10:38:35.194Z</time>
      </trkpt>
      <trkpt lat="42.57796" lon="1.90402">
        <ele>2228.1</ele>
        <time>2020-02-14T10:38:37.369Z</time>
      </trkpt>
      <trkpt lat="42.57796" lon="1.90401">
        <ele>2228</ele>
        <time>2020-02-14T10:38:37.811Z</time>
      </trkpt>
      <trkpt lat="42.57796" lon="1.90399">
        <ele>2228</ele>
        <time>2020-02-14T10:38:38.321Z</time>
      </trkpt>
      <trkpt lat="42.57797" lon="1.90394">
        <ele>2229.1</ele>
        <time>2020-02-14T10:38:39.805Z</time>
      </trkpt>
      <trkpt lat="42.57798" lon="1.90391">
        <ele>2225.7</ele>
        <time>2020-02-14T10:38:41.275Z</time>
      </trkpt>
      <trkpt lat="42.578" lon="1.90383">
        <ele>2226.6</ele>
        <time>2020-02-14T10:38:43.698Z</time>
      </trkpt>
      <trkpt lat="42.57803" lon="1.90375">
        <ele>2224.7</ele>
        <time>2020-02-14T10:38:46.462Z</time>
      </trkpt>
      <trkpt lat="42.57805" lon="1.90359">
        <ele>2223.7</ele>
        <time>2020-02-14T10:38:50.940Z</time>
      </trkpt>
      <trkpt lat="42.57805" lon="1.90352">
        <ele>2220.8</ele>
        <time>2020-02-14T10:38:53.178Z</time>
      </trkpt>
      <trkpt lat="42.57806" lon="1.90343">
        <ele>2222.7</ele>
        <time>2020-02-14T10:38:55.860Z</time>
      </trkpt>
      <trkpt lat="42.57806" lon="1.9032">
        <ele>2221.4</ele>
        <time>2020-02-14T10:39:02.449Z</time>
      </trkpt>
      <trkpt lat="42.57805" lon="1.90305">
        <ele>2219.3</ele>
        <time>2020-02-14T10:39:06.800Z</time>
      </trkpt>
      <trkpt lat="42.57816" lon="1.9029">
        <ele>2224.2</ele>
        <time>2020-02-14T10:39:13.071Z</time>
      </trkpt>
      <trkpt lat="42.57815" lon="1.90288">
        <ele>2215.5</ele>
        <time>2020-02-14T10:39:16.136Z</time>
      </trkpt>
      <trkpt lat="42.57814" lon="1.90284">
        <ele>2217</ele>
        <time>2020-02-14T10:39:17.603Z</time>
      </trkpt>
      <trkpt lat="42.57806" lon="1.90259">
        <ele>2217</ele>
        <time>2020-02-14T10:39:25.478Z</time>
      </trkpt>
      <trkpt lat="42.57804" lon="1.90253">
        <ele>2216.1</ele>
        <time>2020-02-14T10:39:27.241Z</time>
      </trkpt>
      <trkpt lat="42.57802" lon="1.90248">
        <ele>2221.3</ele>
        <time>2020-02-14T10:39:29.666Z</time>
      </trkpt>
      <trkpt lat="42.57801" lon="1.90247">
        <ele>2217</ele>
        <time>2020-02-14T10:39:31.255Z</time>
      </trkpt>
      <trkpt lat="42.578" lon="1.90245">
        <ele>2216.1</ele>
        <time>2020-02-14T10:39:32.180Z</time>
      </trkpt>
      <trkpt lat="42.57797" lon="1.90243">
        <ele>2216</ele>
        <time>2020-02-14T10:39:33.306Z</time>
      </trkpt>
      <trkpt lat="42.57795" lon="1.90238">
        <ele>2215.6</ele>
        <time>2020-02-14T10:39:35.134Z</time>
      </trkpt>
      <trkpt lat="42.5779" lon="1.90229">
        <ele>2214.2</ele>
        <time>2020-02-14T10:39:38.305Z</time>
      </trkpt>
      <trkpt lat="42.57788" lon="1.90226">
        <ele>2209.3</ele>
        <time>2020-02-14T10:39:40.266Z</time>
      </trkpt>
      <trkpt lat="42.57787" lon="1.90225">
        <ele>2220.8</ele>
        <time>2020-02-14T10:39:44.286Z</time>
      </trkpt>
      <trkpt lat="42.57787" lon="1.90223">
        <ele>2214.2</ele>
        <time>2020-02-14T10:39:46.646Z</time>
      </trkpt>
      <trkpt lat="42.57783" lon="1.90215">
        <ele>2210.8</ele>
        <time>2020-02-14T10:39:49.592Z</time>
      </trkpt>
      <trkpt lat="42.5778" lon="1.90208">
        <ele>2215.1</ele>
        <time>2020-02-14T10:39:52.456Z</time>
      </trkpt>
      <trkpt lat="42.57779" lon="1.90206">
        <ele>2219.4</ele>
        <time>2020-02-14T10:39:54.010Z</time>
      </trkpt>
      <trkpt lat="42.57779" lon="1.90205">
        <ele>2213.1</ele>
        <time>2020-02-14T10:39:56.205Z</time>
      </trkpt>
      <trkpt lat="42.57775" lon="1.90196">
        <ele>2207.8</ele>
        <time>2020-02-14T10:39:59.847Z</time>
      </trkpt>
      <trkpt lat="42.57775" lon="1.90194">
        <ele>2212.7</ele>
        <time>2020-02-14T10:40:01.613Z</time>
      </trkpt>
      <trkpt lat="42.57774" lon="1.90192">
        <ele>2212.1</ele>
        <time>2020-02-14T10:40:02.191Z</time>
      </trkpt>
      <trkpt lat="42.5777" lon="1.90181">
        <ele>2210.8</ele>
        <time>2020-02-14T10:40:05.804Z</time>
      </trkpt>
      <trkpt lat="42.57767" lon="1.90173">
        <ele>2210.2</ele>
        <time>2020-02-14T10:40:08.156Z</time>
      </trkpt>
      <trkpt lat="42.57764" lon="1.90165">
        <ele>2209.3</ele>
        <time>2020-02-14T10:40:10.922Z</time>
      </trkpt>
      <trkpt lat="42.57759" lon="1.90141">
        <ele>2207.8</ele>
        <time>2020-02-14T10:40:17.842Z</time>
      </trkpt>
      <trkpt lat="42.57755" lon="1.90122">
        <ele>2206.8</ele>
        <time>2020-02-14T10:40:23.568Z</time>
      </trkpt>
      <trkpt lat="42.57752" lon="1.90111">
        <ele>2201.6</ele>
        <time>2020-02-14T10:40:27.371Z</time>
      </trkpt>
      <trkpt lat="42.57752" lon="1.90109">
        <ele>2207.4</ele>
        <time>2020-02-14T10:40:29.468Z</time>
      </trkpt>
      <trkpt lat="42.57751" lon="1.90107">
        <ele>2206.5</ele>
        <time>2020-02-14T10:40:30.203Z</time>
      </trkpt>
      <trkpt lat="42.5775" lon="1.90103">
        <ele>2206.8</ele>
        <time>2020-02-14T10:40:31.285Z</time>
      </trkpt>
      <trkpt lat="42.57746" lon="1.90076">
        <ele>2208.4</ele>
        <time>2020-02-14T10:40:39.138Z</time>
      </trkpt>
      <trkpt lat="42.57742" lon="1.90062">
        <ele>2207.4</ele>
        <time>2020-02-14T10:40:43.564Z</time>
      </trkpt>
      <trkpt lat="42.57741" lon="1.90047">
        <ele>2208.3</ele>
        <time>2020-02-14T10:40:47.704Z</time>
      </trkpt>
      <trkpt lat="42.57739" lon="1.90041">
        <ele>2208.3</ele>
        <time>2020-02-14T10:40:49.808Z</time>
      </trkpt>
      <trkpt lat="42.57736" lon="1.90032">
        <ele>2208.8</ele>
        <time>2020-02-14T10:40:52.494Z</time>
      </trkpt>
      <trkpt lat="42.5773" lon="1.90014">
        <ele>2208.3</ele>
        <time>2020-02-14T10:40:58.022Z</time>
      </trkpt>
      <trkpt lat="42.57724" lon="1.89997">
        <ele>2207.4</ele>
        <time>2020-02-14T10:41:03.515Z</time>
      </trkpt>
      <trkpt lat="42.57716" lon="1.89983">
        <ele>2206.4</ele>
        <time>2020-02-14T10:41:08.356Z</time>
      </trkpt>
      <trkpt lat="42.57712" lon="1.8997">
        <ele>2204.5</ele>
        <time>2020-02-14T10:41:12.604Z</time>
      </trkpt>
      <trkpt lat="42.57713" lon="1.89948">
        <ele>2202.1</ele>
        <time>2020-02-14T10:41:18.900Z</time>
      </trkpt>
      <trkpt lat="42.57714" lon="1.89946">
        <ele>2201.7</ele>
        <time>2020-02-14T10:41:19.426Z</time>
      </trkpt>
      <trkpt lat="42.57716" lon="1.89937">
        <ele>2200.6</ele>
        <time>2020-02-14T10:41:22.366Z</time>
      </trkpt>
      <trkpt lat="42.57717" lon="1.8992">
        <ele>2198.8</ele>
        <time>2020-02-14T10:41:27.192Z</time>
      </trkpt>
      <trkpt lat="42.57717" lon="1.89901">
        <ele>2197.8</ele>
        <time>2020-02-14T10:41:32.435Z</time>
      </trkpt>
      <trkpt lat="42.57712" lon="1.8988">
        <ele>2196.3</ele>
        <time>2020-02-14T10:41:38.744Z</time>
      </trkpt>
      <trkpt lat="42.57704" lon="1.89869">
        <ele>2194.4</ele>
        <time>2020-02-14T10:41:43.304Z</time>
      </trkpt>
      <trkpt lat="42.57693" lon="1.89856">
        <ele>2192.5</ele>
        <time>2020-02-14T10:41:49.081Z</time>
      </trkpt>
      <trkpt lat="42.57689" lon="1.89852">
        <ele>2192.4</ele>
        <time>2020-02-14T10:41:50.931Z</time>
      </trkpt>
      <trkpt lat="42.57684" lon="1.89831">
        <ele>2189.2</ele>
        <time>2020-02-14T10:41:57.278Z</time>
      </trkpt>
      <trkpt lat="42.57683" lon="1.89822">
        <ele>2188.7</ele>
        <time>2020-02-14T10:41:59.807Z</time>
      </trkpt>
      <trkpt lat="42.57682" lon="1.89802">
        <ele>2187.7</ele>
        <time>2020-02-14T10:42:05.630Z</time>
      </trkpt>
      <trkpt lat="42.57683" lon="1.89796">
        <ele>2187.2</ele>
        <time>2020-02-14T10:42:07.488Z</time>
      </trkpt>
      <trkpt lat="42.57682" lon="1.8979">
        <ele>2186.3</ele>
        <time>2020-02-14T10:42:09.243Z</time>
      </trkpt>
      <trkpt lat="42.57683" lon="1.89784">
        <ele>2185.2</ele>
        <time>2020-02-14T10:42:10.754Z</time>
      </trkpt>
      <trkpt lat="42.57681" lon="1.89773">
        <ele>2183.8</ele>
        <time>2020-02-14T10:42:14.082Z</time>
      </trkpt>
      <trkpt lat="42.57677" lon="1.89768">
        <ele>2181.4</ele>
        <time>2020-02-14T10:42:16.572Z</time>
      </trkpt>
      <trkpt lat="42.57673" lon="1.89763">
        <ele>2180.9</ele>
        <time>2020-02-14T10:42:18.577Z</time>
      </trkpt>
      <trkpt lat="42.57666" lon="1.89755">
        <ele>2177.6</ele>
        <time>2020-02-14T10:42:22.035Z</time>
      </trkpt>
      <trkpt lat="42.57659" lon="1.89738">
        <ele>2177.1</ele>
        <time>2020-02-14T10:42:27.555Z</time>
      </trkpt>
      <trkpt lat="42.57658" lon="1.89735">
        <ele>2176.6</ele>
        <time>2020-02-14T10:42:28.762Z</time>
      </trkpt>
      <trkpt lat="42.57655" lon="1.89729">
        <ele>2177.1</ele>
        <time>2020-02-14T10:42:30.853Z</time>
      </trkpt>
      <trkpt lat="42.57652" lon="1.89708">
        <ele>2176.2</ele>
        <time>2020-02-14T10:42:36.875Z</time>
      </trkpt>
      <trkpt lat="42.57651" lon="1.89701">
        <ele>2176.6</ele>
        <time>2020-02-14T10:42:38.977Z</time>
      </trkpt>
      <trkpt lat="42.57647" lon="1.89683">
        <ele>2177.6</ele>
        <time>2020-02-14T10:42:44.286Z</time>
      </trkpt>
      <trkpt lat="42.57645" lon="1.89676">
        <ele>2178</ele>
        <time>2020-02-14T10:42:46.504Z</time>
      </trkpt>
      <trkpt lat="42.57642" lon="1.89651">
        <ele>2178.5</ele>
        <time>2020-02-14T10:42:53.649Z</time>
      </trkpt>
      <trkpt lat="42.57642" lon="1.89648">
        <ele>2178.5</ele>
        <time>2020-02-14T10:42:54.579Z</time>
      </trkpt>
      <trkpt lat="42.5764" lon="1.89645">
        <ele>2178</ele>
        <time>2020-02-14T10:42:55.556Z</time>
      </trkpt>
      <trkpt lat="42.57636" lon="1.89634">
        <ele>2177.5</ele>
        <time>2020-02-14T10:42:59.207Z</time>
      </trkpt>
      <trkpt lat="42.57636" lon="1.89626">
        <ele>2177</ele>
        <time>2020-02-14T10:43:01.431Z</time>
      </trkpt>
      <trkpt lat="42.57635" lon="1.89618">
        <ele>2176.2</ele>
        <time>2020-02-14T10:43:03.802Z</time>
      </trkpt>
      <trkpt lat="42.57635" lon="1.89615">
        <ele>2176.1</ele>
        <time>2020-02-14T10:43:04.551Z</time>
      </trkpt>
      <trkpt lat="42.57631" lon="1.8959">
        <ele>2175.2</ele>
        <time>2020-02-14T10:43:11.863Z</time>
      </trkpt>
      <trkpt lat="42.57631" lon="1.89587">
        <ele>2175.1</ele>
        <time>2020-02-14T10:43:12.701Z</time>
      </trkpt>
      <trkpt lat="42.57629" lon="1.89569">
        <ele>2174.3</ele>
        <time>2020-02-14T10:43:17.966Z</time>
      </trkpt>
      <trkpt lat="42.57628" lon="1.89557">
        <ele>2173.8</ele>
        <time>2020-02-14T10:43:21.211Z</time>
      </trkpt>
      <trkpt lat="42.57626" lon="1.89544">
        <ele>2172.8</ele>
        <time>2020-02-14T10:43:25.108Z</time>
      </trkpt>
      <trkpt lat="42.57623" lon="1.89526">
        <ele>2172.7</ele>
        <time>2020-02-14T10:43:30.552Z</time>
      </trkpt>
      <trkpt lat="42.57616" lon="1.89503">
        <ele>2170.8</ele>
        <time>2020-02-14T10:43:37.350Z</time>
      </trkpt>
      <trkpt lat="42.57609" lon="1.89489">
        <ele>2169.9</ele>
        <time>2020-02-14T10:43:42.267Z</time>
      </trkpt>
      <trkpt lat="42.57606" lon="1.89486">
        <ele>2169.9</ele>
        <time>2020-02-14T10:43:43.724Z</time>
      </trkpt>
      <trkpt lat="42.57604" lon="1.89481">
        <ele>2169.5</ele>
        <time>2020-02-14T10:43:45.449Z</time>
      </trkpt>
      <trkpt lat="42.57599" lon="1.89471">
        <ele>2167.4</ele>
        <time>2020-02-14T10:43:48.981Z</time>
      </trkpt>
      <trkpt lat="42.57599" lon="1.89471">
        <ele>2171.9</ele>
        <time>2020-02-14T10:43:50.519Z</time>
      </trkpt>
      <trkpt lat="42.57599" lon="1.89471">
        <ele>2168.9</ele>
        <time>2020-02-14T10:43:51.531Z</time>
      </trkpt>
      <trkpt lat="42.57599" lon="1.89471">
        <ele>2172.8</ele>
        <time>2020-02-14T10:43:52.862Z</time>
      </trkpt>
      <trkpt lat="42.57598" lon="1.8947">
        <ele>2170.8</ele>
        <time>2020-02-14T10:43:53.614Z</time>
      </trkpt>
      <trkpt lat="42.57593" lon="1.89467">
        <ele>2171.4</ele>
        <time>2020-02-14T10:43:55.765Z</time>
      </trkpt>
      <trkpt lat="42.57593" lon="1.89467">
        <ele>2169.8</ele>
        <time>2020-02-14T10:43:56.313Z</time>
      </trkpt>
      <trkpt lat="42.5759" lon="1.89469">
        <ele>2170.8</ele>
        <time>2020-02-14T10:43:57.718Z</time>
      </trkpt>
      <trkpt lat="42.57578" lon="1.89477">
        <ele>2169.5</ele>
        <time>2020-02-14T10:44:02.869Z</time>
      </trkpt>
      <trkpt lat="42.57574" lon="1.89478">
        <ele>2165.6</ele>
        <time>2020-02-14T10:44:04.963Z</time>
      </trkpt>
      <trkpt lat="42.57573" lon="1.89478">
        <ele>2169.5</ele>
        <time>2020-02-14T10:44:06.384Z</time>
      </trkpt>
      <trkpt lat="42.5757" lon="1.89478">
        <ele>2168.5</ele>
        <time>2020-02-14T10:44:07.339Z</time>
      </trkpt>
      <trkpt lat="42.5757" lon="1.89477">
        <ele>2169.5</ele>
        <time>2020-02-14T10:44:07.870Z</time>
      </trkpt>
      <trkpt lat="42.5757" lon="1.89477">
        <ele>2165.6</ele>
        <time>2020-02-14T10:44:09.227Z</time>
      </trkpt>
      <trkpt lat="42.5757" lon="1.89477">
        <ele>2169.5</ele>
        <time>2020-02-14T10:44:10.594Z</time>
      </trkpt>
      <trkpt lat="42.5757" lon="1.89477">
        <ele>2163.1</ele>
        <time>2020-02-14T10:44:12.813Z</time>
      </trkpt>
      <trkpt lat="42.5757" lon="1.89477">
        <ele>2172.8</ele>
        <time>2020-02-14T10:44:16.168Z</time>
      </trkpt>
      <trkpt lat="42.5757" lon="1.89477">
        <ele>2171.3</ele>
        <time>2020-02-14T10:44:16.678Z</time>
      </trkpt>
      <trkpt lat="42.5757" lon="1.89477">
        <ele>2168.9</ele>
        <time>2020-02-14T10:44:17.513Z</time>
      </trkpt>
      <trkpt lat="42.57573" lon="1.89477">
        <ele>2168.9</ele>
        <time>2020-02-14T10:44:18.750Z</time>
      </trkpt>
      <trkpt lat="42.57571" lon="1.89468">
        <ele>2166.1</ele>
        <time>2020-02-14T10:44:21.547Z</time>
      </trkpt>
      <trkpt lat="42.57572" lon="1.89467">
        <ele>2165.1</ele>
        <time>2020-02-14T10:44:22.203Z</time>
      </trkpt>
      <trkpt lat="42.57571" lon="1.89463">
        <ele>2162.7</ele>
        <time>2020-02-14T10:44:23.728Z</time>
      </trkpt>
      <trkpt lat="42.57573" lon="1.89456">
        <ele>2161.8</ele>
        <time>2020-02-14T10:44:25.922Z</time>
      </trkpt>
      <trkpt lat="42.57573" lon="1.89452">
        <ele>2160.7</ele>
        <time>2020-02-14T10:44:27.151Z</time>
      </trkpt>
      <trkpt lat="42.57573" lon="1.89451">
        <ele>2160.2</ele>
        <time>2020-02-14T10:44:27.517Z</time>
      </trkpt>
      <trkpt lat="42.57574" lon="1.8945">
        <ele>2156.9</ele>
        <time>2020-02-14T10:44:28.773Z</time>
      </trkpt>
      <trkpt lat="42.57573" lon="1.8945">
        <ele>2156</ele>
        <time>2020-02-14T10:44:29.519Z</time>
      </trkpt>
      <trkpt lat="42.57573" lon="1.89449">
        <ele>2154.5</ele>
        <time>2020-02-14T10:44:30.061Z</time>
      </trkpt>
      <trkpt lat="42.57572" lon="1.89449">
        <ele>2154.5</ele>
        <time>2020-02-14T10:44:30.303Z</time>
      </trkpt>
      <trkpt lat="42.57572" lon="1.89448">
        <ele>2155.4</ele>
        <time>2020-02-14T10:44:30.666Z</time>
      </trkpt>
      <trkpt lat="42.57572" lon="1.89448">
        <ele>2154.9</ele>
        <time>2020-02-14T10:44:30.883Z</time>
      </trkpt>
      <trkpt lat="42.57572" lon="1.89447">
        <ele>2155.4</ele>
        <time>2020-02-14T10:44:31.190Z</time>
      </trkpt>
      <trkpt lat="42.57571" lon="1.89447">
        <ele>2155</ele>
        <time>2020-02-14T10:44:31.409Z</time>
      </trkpt>
      <trkpt lat="42.57567" lon="1.8944">
        <ele>2154.5</ele>
        <time>2020-02-14T10:44:33.894Z</time>
      </trkpt>
      <trkpt lat="42.57562" lon="1.89433">
        <ele>2156.9</ele>
        <time>2020-02-14T10:44:36.962Z</time>
      </trkpt>
      <trkpt lat="42.57564" lon="1.89429">
        <ele>2159.8</ele>
        <time>2020-02-14T10:44:38.559Z</time>
      </trkpt>
      <trkpt lat="42.57561" lon="1.89421">
        <ele>2161.2</ele>
        <time>2020-02-14T10:44:41.166Z</time>
      </trkpt>
      <trkpt lat="42.5756" lon="1.89421">
        <ele>2163.2</ele>
        <time>2020-02-14T10:44:41.923Z</time>
      </trkpt>
      <trkpt lat="42.57557" lon="1.89414">
        <ele>2164.6</ele>
        <time>2020-02-14T10:44:44.416Z</time>
      </trkpt>
      <trkpt lat="42.57555" lon="1.89406">
        <ele>2165</ele>
        <time>2020-02-14T10:44:46.887Z</time>
      </trkpt>
      <trkpt lat="42.57557" lon="1.89402">
        <ele>2164.7</ele>
        <time>2020-02-14T10:44:48.183Z</time>
      </trkpt>
      <trkpt lat="42.57564" lon="1.89404">
        <ele>2163.6</ele>
        <time>2020-02-14T10:44:50.969Z</time>
      </trkpt>
      <trkpt lat="42.57569" lon="1.89404">
        <ele>2162.2</ele>
        <time>2020-02-14T10:44:53.074Z</time>
      </trkpt>
      <trkpt lat="42.5757" lon="1.89404">
        <ele>2163.1</ele>
        <time>2020-02-14T10:44:53.554Z</time>
      </trkpt>
      <trkpt lat="42.57577" lon="1.89401">
        <ele>2163.7</ele>
        <time>2020-02-14T10:44:56.250Z</time>
      </trkpt>
      <trkpt lat="42.57583" lon="1.89398">
        <ele>2167.5</ele>
        <time>2020-02-14T10:44:59.101Z</time>
      </trkpt>
      <trkpt lat="42.57584" lon="1.89397">
        <ele>2164.7</ele>
        <time>2020-02-14T10:45:00.159Z</time>
      </trkpt>
      <trkpt lat="42.57591" lon="1.89394">
        <ele>2161.3</ele>
        <time>2020-02-14T10:45:03.297Z</time>
      </trkpt>
      <trkpt lat="42.57593" lon="1.89393">
        <ele>2161.7</ele>
        <time>2020-02-14T10:45:03.845Z</time>
      </trkpt>
      <trkpt lat="42.57594" lon="1.89393">
        <ele>2165.5</ele>
        <time>2020-02-14T10:45:05.291Z</time>
      </trkpt>
      <trkpt lat="42.57595" lon="1.89392">
        <ele>2163.1</ele>
        <time>2020-02-14T10:45:06.278Z</time>
      </trkpt>
      <trkpt lat="42.57607" lon="1.89387">
        <ele>2163.1</ele>
        <time>2020-02-14T10:45:10.957Z</time>
      </trkpt>
      <trkpt lat="42.57611" lon="1.89384">
        <ele>2163.1</ele>
        <time>2020-02-14T10:45:12.658Z</time>
      </trkpt>
      <trkpt lat="42.57611" lon="1.89383">
        <ele>2162.2</ele>
        <time>2020-02-14T10:45:13.103Z</time>
      </trkpt>
      <trkpt lat="42.57613" lon="1.89379">
        <ele>2163.1</ele>
        <time>2020-02-14T10:45:14.592Z</time>
      </trkpt>
      <trkpt lat="42.57611" lon="1.89371">
        <ele>2161.3</ele>
        <time>2020-02-14T10:45:16.878Z</time>
      </trkpt>
      <trkpt lat="42.5761" lon="1.89375">
        <ele>2162.6</ele>
        <time>2020-02-14T10:45:18.037Z</time>
      </trkpt>
      <trkpt lat="42.5761" lon="1.89377">
        <ele>2162.7</ele>
        <time>2020-02-14T10:45:18.690Z</time>
      </trkpt>
      <trkpt lat="42.5761" lon="1.89381">
        <ele>2162.6</ele>
        <time>2020-02-14T10:45:19.713Z</time>
      </trkpt>
      <trkpt lat="42.5761" lon="1.89385">
        <ele>2163.2</ele>
        <time>2020-02-14T10:45:21.069Z</time>
      </trkpt>
      <trkpt lat="42.57612" lon="1.89393">
        <ele>2162.6</ele>
        <time>2020-02-14T10:45:23.361Z</time>
      </trkpt>
      <trkpt lat="42.57617" lon="1.894">
        <ele>2161.7</ele>
        <time>2020-02-14T10:45:26.068Z</time>
      </trkpt>
      <trkpt lat="42.57615" lon="1.89411">
        <ele>2160.8</ele>
        <time>2020-02-14T10:45:29.323Z</time>
      </trkpt>
      <trkpt lat="42.57613" lon="1.89435">
        <ele>2161.3</ele>
        <time>2020-02-14T10:45:36.178Z</time>
      </trkpt>
      <trkpt lat="42.57613" lon="1.89437">
        <ele>2161.8</ele>
        <time>2020-02-14T10:45:36.818Z</time>
      </trkpt>
      <trkpt lat="42.57613" lon="1.89443">
        <ele>2161.3</ele>
        <time>2020-02-14T10:45:38.426Z</time>
      </trkpt>
      <trkpt lat="42.57614" lon="1.89452">
        <ele>2161.2</ele>
        <time>2020-02-14T10:45:41.196Z</time>
      </trkpt>
      <trkpt lat="42.57616" lon="1.89462">
        <ele>2162.1</ele>
        <time>2020-02-14T10:45:44.006Z</time>
      </trkpt>
      <trkpt lat="42.57615" lon="1.89465">
        <ele>2161.7</ele>
        <time>2020-02-14T10:45:45.004Z</time>
      </trkpt>
      <trkpt lat="42.57611" lon="1.89469">
        <ele>2161.8</ele>
        <time>2020-02-14T10:45:46.789Z</time>
      </trkpt>
      <trkpt lat="42.57593" lon="1.8947">
        <ele>2162.1</ele>
        <time>2020-02-14T10:45:53.787Z</time>
      </trkpt>
      <trkpt lat="42.57578" lon="1.89474">
        <ele>2162.1</ele>
        <time>2020-02-14T10:45:59.719Z</time>
      </trkpt>
      <trkpt lat="42.5757" lon="1.89477">
        <ele>2161.7</ele>
        <time>2020-02-14T10:46:02.806Z</time>
      </trkpt>
      <trkpt lat="42.57557" lon="1.89472">
        <ele>2160.7</ele>
        <time>2020-02-14T10:46:07.984Z</time>
      </trkpt>
      <trkpt lat="42.57541" lon="1.89465">
        <ele>2159.7</ele>
        <time>2020-02-14T10:46:14.695Z</time>
      </trkpt>
      <trkpt lat="42.5754" lon="1.89464">
        <ele>2159.8</ele>
        <time>2020-02-14T10:46:15.221Z</time>
      </trkpt>
      <trkpt lat="42.57527" lon="1.89465">
        <ele>2157.8</ele>
        <time>2020-02-14T10:46:19.984Z</time>
      </trkpt>
      <trkpt lat="42.57527" lon="1.89461">
        <ele>2157</ele>
        <time>2020-02-14T10:46:21.118Z</time>
      </trkpt>
      <trkpt lat="42.57528" lon="1.89458">
        <ele>2155.4</ele>
        <time>2020-02-14T10:46:22.222Z</time>
      </trkpt>
      <trkpt lat="42.57527" lon="1.89443">
        <ele>2152.6</ele>
        <time>2020-02-14T10:46:26.472Z</time>
      </trkpt>
      <trkpt lat="42.57527" lon="1.89441">
        <ele>2153.1</ele>
        <time>2020-02-14T10:46:27.121Z</time>
      </trkpt>
      <trkpt lat="42.57528" lon="1.89438">
        <ele>2153.1</ele>
        <time>2020-02-14T10:46:28.111Z</time>
      </trkpt>
      <trkpt lat="42.57534" lon="1.89424">
        <ele>2153</ele>
        <time>2020-02-14T10:46:32.670Z</time>
      </trkpt>
      <trkpt lat="42.57536" lon="1.89417">
        <ele>2153.5</ele>
        <time>2020-02-14T10:46:34.800Z</time>
      </trkpt>
      <trkpt lat="42.57525" lon="1.89412">
        <ele>2157.9</ele>
        <time>2020-02-14T10:46:39.698Z</time>
      </trkpt>
      <trkpt lat="42.57523" lon="1.8941">
        <ele>2157.4</ele>
        <time>2020-02-14T10:46:40.623Z</time>
      </trkpt>
      <trkpt lat="42.57518" lon="1.89414">
        <ele>2155</ele>
        <time>2020-02-14T10:46:43.059Z</time>
      </trkpt>
      <trkpt lat="42.57515" lon="1.89412">
        <ele>2152.2</ele>
        <time>2020-02-14T10:46:44.676Z</time>
      </trkpt>
      <trkpt lat="42.57514" lon="1.89413">
        <ele>2151.7</ele>
        <time>2020-02-14T10:46:45.389Z</time>
      </trkpt>
      <trkpt lat="42.57514" lon="1.89416">
        <ele>2150.7</ele>
        <time>2020-02-14T10:46:46.235Z</time>
      </trkpt>
      <trkpt lat="42.575" lon="1.89422">
        <ele>2150.2</ele>
        <time>2020-02-14T10:46:51.774Z</time>
      </trkpt>
      <trkpt lat="42.57495" lon="1.89422">
        <ele>2148.3</ele>
        <time>2020-02-14T10:46:53.678Z</time>
      </trkpt>
      <trkpt lat="42.57489" lon="1.89422">
        <ele>2145.9</ele>
        <time>2020-02-14T10:46:56.250Z</time>
      </trkpt>
      <trkpt lat="42.57482" lon="1.8942">
        <ele>2144.4</ele>
        <time>2020-02-14T10:46:59.071Z</time>
      </trkpt>
      <trkpt lat="42.57477" lon="1.89413">
        <ele>2142.9</ele>
        <time>2020-02-14T10:47:02.033Z</time>
      </trkpt>
      <trkpt lat="42.57472" lon="1.89407">
        <ele>2141.1</ele>
        <time>2020-02-14T10:47:04.794Z</time>
      </trkpt>
      <trkpt lat="42.57466" lon="1.89392">
        <ele>2141.1</ele>
        <time>2020-02-14T10:47:09.563Z</time>
      </trkpt>
      <trkpt lat="42.57461" lon="1.8938">
        <ele>2144</ele>
        <time>2020-02-14T10:47:13.574Z</time>
      </trkpt>
      <trkpt lat="42.57457" lon="1.8938">
        <ele>2143.9</ele>
        <time>2020-02-14T10:47:15.080Z</time>
      </trkpt>
      <trkpt lat="42.57455" lon="1.8938">
        <ele>2144</ele>
        <time>2020-02-14T10:47:15.978Z</time>
      </trkpt>
      <trkpt lat="42.5745" lon="1.89377">
        <ele>2143.9</ele>
        <time>2020-02-14T10:47:17.733Z</time>
      </trkpt>
      <trkpt lat="42.57439" lon="1.89357">
        <ele>2142</ele>
        <time>2020-02-14T10:47:24.837Z</time>
      </trkpt>
      <trkpt lat="42.57438" lon="1.89347">
        <ele>2143.5</ele>
        <time>2020-02-14T10:47:27.818Z</time>
      </trkpt>
      <trkpt lat="42.57434" lon="1.89345">
        <ele>2143.9</ele>
        <time>2020-02-14T10:47:29.217Z</time>
      </trkpt>
      <trkpt lat="42.57428" lon="1.89321">
        <ele>2142.9</ele>
        <time>2020-02-14T10:47:36.479Z</time>
      </trkpt>
      <trkpt lat="42.57426" lon="1.89313">
        <ele>2142.9</ele>
        <time>2020-02-14T10:47:38.822Z</time>
      </trkpt>
      <trkpt lat="42.57425" lon="1.89307">
        <ele>2143</ele>
        <time>2020-02-14T10:47:40.664Z</time>
      </trkpt>
      <trkpt lat="42.57422" lon="1.89302">
        <ele>2143.5</ele>
        <time>2020-02-14T10:47:42.481Z</time>
      </trkpt>
      <trkpt lat="42.57419" lon="1.89299">
        <ele>2143.4</ele>
        <time>2020-02-14T10:47:43.903Z</time>
      </trkpt>
      <trkpt lat="42.57416" lon="1.89294">
        <ele>2142.4</ele>
        <time>2020-02-14T10:47:45.573Z</time>
      </trkpt>
      <trkpt lat="42.57413" lon="1.89285">
        <ele>2142.4</ele>
        <time>2020-02-14T10:47:48.563Z</time>
      </trkpt>
      <trkpt lat="42.57402" lon="1.89279">
        <ele>2143</ele>
        <time>2020-02-14T10:47:53.092Z</time>
      </trkpt>
      <trkpt lat="42.57402" lon="1.89278">
        <ele>2142.4</ele>
        <time>2020-02-14T10:47:53.469Z</time>
      </trkpt>
      <trkpt lat="42.57395" lon="1.89273">
        <ele>2143</ele>
        <time>2020-02-14T10:47:56.461Z</time>
      </trkpt>
      <trkpt lat="42.57385" lon="1.89251">
        <ele>2142.9</ele>
        <time>2020-02-14T10:48:03.828Z</time>
      </trkpt>
      <trkpt lat="42.57384" lon="1.89249">
        <ele>2143.4</ele>
        <time>2020-02-14T10:48:04.485Z</time>
      </trkpt>
      <trkpt lat="42.57381" lon="1.89244">
        <ele>2142.9</ele>
        <time>2020-02-14T10:48:06.302Z</time>
      </trkpt>
      <trkpt lat="42.57372" lon="1.89222">
        <ele>2142.9</ele>
        <time>2020-02-14T10:48:13.450Z</time>
      </trkpt>
      <trkpt lat="42.57371" lon="1.89221">
        <ele>2142.9</ele>
        <time>2020-02-14T10:48:13.911Z</time>
      </trkpt>
      <trkpt lat="42.57369" lon="1.89206">
        <ele>2144.5</ele>
        <time>2020-02-14T10:48:18.478Z</time>
      </trkpt>
      <trkpt lat="42.57365" lon="1.89195">
        <ele>2144.9</ele>
        <time>2020-02-14T10:48:21.796Z</time>
      </trkpt>
      <trkpt lat="42.5736" lon="1.89194">
        <ele>2145.3</ele>
        <time>2020-02-14T10:48:23.752Z</time>
      </trkpt>
      <trkpt lat="42.57354" lon="1.89189">
        <ele>2144.8</ele>
        <time>2020-02-14T10:48:26.347Z</time>
      </trkpt>
      <trkpt lat="42.57348" lon="1.89188">
        <ele>2144.5</ele>
        <time>2020-02-14T10:48:28.927Z</time>
      </trkpt>
      <trkpt lat="42.5734" lon="1.89188">
        <ele>2144.8</ele>
        <time>2020-02-14T10:48:31.748Z</time>
      </trkpt>
      <trkpt lat="42.57338" lon="1.89187">
        <ele>2144.9</ele>
        <time>2020-02-14T10:48:32.651Z</time>
      </trkpt>
      <trkpt lat="42.57329" lon="1.89188">
        <ele>2144.8</ele>
        <time>2020-02-14T10:48:36.139Z</time>
      </trkpt>
      <trkpt lat="42.57315" lon="1.89183">
        <ele>2144.8</ele>
        <time>2020-02-14T10:48:41.933Z</time>
      </trkpt>
      <trkpt lat="42.57305" lon="1.89182">
        <ele>2144</ele>
        <time>2020-02-14T10:48:45.758Z</time>
      </trkpt>
      <trkpt lat="42.57302" lon="1.89181">
        <ele>2140.6</ele>
        <time>2020-02-14T10:48:47.407Z</time>
      </trkpt>
      <trkpt lat="42.57301" lon="1.89181">
        <ele>2144.5</ele>
        <time>2020-02-14T10:48:48.864Z</time>
      </trkpt>
      <trkpt lat="42.57284" lon="1.89183">
        <ele>2142.9</ele>
        <time>2020-02-14T10:48:55.365Z</time>
      </trkpt>
      <trkpt lat="42.57271" lon="1.89193">
        <ele>2142.9</ele>
        <time>2020-02-14T10:49:01.089Z</time>
      </trkpt>
      <trkpt lat="42.57261" lon="1.89192">
        <ele>2142.9</ele>
        <time>2020-02-14T10:49:04.913Z</time>
      </trkpt>
      <trkpt lat="42.57247" lon="1.89175">
        <ele>2142.5</ele>
        <time>2020-02-14T10:49:12.120Z</time>
      </trkpt>
      <trkpt lat="42.57237" lon="1.89154">
        <ele>2142.1</ele>
        <time>2020-02-14T10:49:19.219Z</time>
      </trkpt>
      <trkpt lat="42.57235" lon="1.89149">
        <ele>2142.5</ele>
        <time>2020-02-14T10:49:20.922Z</time>
      </trkpt>
      <trkpt lat="42.57229" lon="1.89142">
        <ele>2142.4</ele>
        <time>2020-02-14T10:49:23.890Z</time>
      </trkpt>
      <trkpt lat="42.57214" lon="1.89144">
        <ele>2142.4</ele>
        <time>2020-02-14T10:49:29.949Z</time>
      </trkpt>
      <trkpt lat="42.57201" lon="1.89136">
        <ele>2142</ele>
        <time>2020-02-14T10:49:35.483Z</time>
      </trkpt>
      <trkpt lat="42.5719" lon="1.89127">
        <ele>2142.1</ele>
        <time>2020-02-14T10:49:40.379Z</time>
      </trkpt>
      <trkpt lat="42.57179" lon="1.89116">
        <ele>2144.5</ele>
        <time>2020-02-14T10:49:45.579Z</time>
      </trkpt>
      <trkpt lat="42.57172" lon="1.89106">
        <ele>2145.8</ele>
        <time>2020-02-14T10:49:49.577Z</time>
      </trkpt>
      <trkpt lat="42.57164" lon="1.89097">
        <ele>2148.2</ele>
        <time>2020-02-14T10:49:53.749Z</time>
      </trkpt>
      <trkpt lat="42.57159" lon="1.89092">
        <ele>2148.7</ele>
        <time>2020-02-14T10:49:55.959Z</time>
      </trkpt>
      <trkpt lat="42.57143" lon="1.89079">
        <ele>2146.8</ele>
        <time>2020-02-14T10:50:03.489Z</time>
      </trkpt>
      <trkpt lat="42.57133" lon="1.89063">
        <ele>2147.7</ele>
        <time>2020-02-14T10:50:09.272Z</time>
      </trkpt>
      <trkpt lat="42.57124" lon="1.89061">
        <ele>2145.8</ele>
        <time>2020-02-14T10:50:12.975Z</time>
      </trkpt>
      <trkpt lat="42.57113" lon="1.89054">
        <ele>2147.2</ele>
        <time>2020-02-14T10:50:17.838Z</time>
      </trkpt>
      <trkpt lat="42.57111" lon="1.89051">
        <ele>2148.7</ele>
        <time>2020-02-14T10:50:18.912Z</time>
      </trkpt>
      <trkpt lat="42.57106" lon="1.89049">
        <ele>2146.9</ele>
        <time>2020-02-14T10:50:21.204Z</time>
      </trkpt>
      <trkpt lat="42.57095" lon="1.89039">
        <ele>2145.9</ele>
        <time>2020-02-14T10:50:26.092Z</time>
      </trkpt>
      <trkpt lat="42.57089" lon="1.89043">
        <ele>2145.3</ele>
        <time>2020-02-14T10:50:28.704Z</time>
      </trkpt>
      <trkpt lat="42.57075" lon="1.89044">
        <ele>2146.4</ele>
        <time>2020-02-14T10:50:34.124Z</time>
      </trkpt>
      <trkpt lat="42.57073" lon="1.89044">
        <ele>2146.9</ele>
        <time>2020-02-14T10:50:34.872Z</time>
      </trkpt>
      <trkpt lat="42.57063" lon="1.89045">
        <ele>2144.4</ele>
        <time>2020-02-14T10:50:38.743Z</time>
      </trkpt>
      <trkpt lat="42.57048" lon="1.89044">
        <ele>2141</ele>
        <time>2020-02-14T10:50:44.805Z</time>
      </trkpt>
      <trkpt lat="42.57034" lon="1.89033">
        <ele>2141</ele>
        <time>2020-02-14T10:50:50.995Z</time>
      </trkpt>
      <trkpt lat="42.57027" lon="1.89028">
        <ele>2140.6</ele>
        <time>2020-02-14T10:50:54.400Z</time>
      </trkpt>
      <trkpt lat="42.57013" lon="1.89026">
        <ele>2140</ele>
        <time>2020-02-14T10:50:59.532Z</time>
      </trkpt>
      <trkpt lat="42.57" lon="1.89021">
        <ele>2139.1</ele>
        <time>2020-02-14T10:51:04.772Z</time>
      </trkpt>
      <trkpt lat="42.56987" lon="1.89011">
        <ele>2138.7</ele>
        <time>2020-02-14T10:51:10.742Z</time>
      </trkpt>
      <trkpt lat="42.56974" lon="1.89009">
        <ele>2135.7</ele>
        <time>2020-02-14T10:51:15.820Z</time>
      </trkpt>
      <trkpt lat="42.56968" lon="1.89008">
        <ele>2136.2</ele>
        <time>2020-02-14T10:51:18.361Z</time>
      </trkpt>
      <trkpt lat="42.5695" lon="1.89009">
        <ele>2136.3</ele>
        <time>2020-02-14T10:51:25.061Z</time>
      </trkpt>
      <trkpt lat="42.56947" lon="1.8901">
        <ele>2136.7</ele>
        <time>2020-02-14T10:51:26.328Z</time>
      </trkpt>
      <trkpt lat="42.56945" lon="1.8901">
        <ele>2136.8</ele>
        <time>2020-02-14T10:51:27.066Z</time>
      </trkpt>
      <trkpt lat="42.56938" lon="1.89011">
        <ele>2138.2</ele>
        <time>2020-02-14T10:51:29.700Z</time>
      </trkpt>
      <trkpt lat="42.56932" lon="1.89009">
        <ele>2137.7</ele>
        <time>2020-02-14T10:51:32.358Z</time>
      </trkpt>
      <trkpt lat="42.56913" lon="1.89012">
        <ele>2134.8</ele>
        <time>2020-02-14T10:51:39.673Z</time>
      </trkpt>
      <trkpt lat="42.56911" lon="1.89012">
        <ele>2134.7</ele>
        <time>2020-02-14T10:51:40.493Z</time>
      </trkpt>
      <trkpt lat="42.56906" lon="1.8901">
        <ele>2134.7</ele>
        <time>2020-02-14T10:51:42.364Z</time>
      </trkpt>
      <trkpt lat="42.56899" lon="1.89007">
        <ele>2135.7</ele>
        <time>2020-02-14T10:51:45.163Z</time>
      </trkpt>
      <trkpt lat="42.56896" lon="1.89008">
        <ele>2136.3</ele>
        <time>2020-02-14T10:51:46.601Z</time>
      </trkpt>
      <trkpt lat="42.56892" lon="1.89011">
        <ele>2134.7</ele>
        <time>2020-02-14T10:51:48.275Z</time>
      </trkpt>
      <trkpt lat="42.5689" lon="1.8901">
        <ele>2135.3</ele>
        <time>2020-02-14T10:51:49.029Z</time>
      </trkpt>
      <trkpt lat="42.56884" lon="1.89002">
        <ele>2135.3</ele>
        <time>2020-02-14T10:51:52.465Z</time>
      </trkpt>
      <trkpt lat="42.5688" lon="1.88995">
        <ele>2135.3</ele>
        <time>2020-02-14T10:51:54.923Z</time>
      </trkpt>
      <trkpt lat="42.56868" lon="1.88981">
        <ele>2136.3</ele>
        <time>2020-02-14T10:52:01.053Z</time>
      </trkpt>
      <trkpt lat="42.56859" lon="1.88982">
        <ele>2137.2</ele>
        <time>2020-02-14T10:52:04.400Z</time>
      </trkpt>
      <trkpt lat="42.56853" lon="1.8898">
        <ele>2138.6</ele>
        <time>2020-02-14T10:52:06.760Z</time>
      </trkpt>
      <trkpt lat="42.56844" lon="1.88976">
        <ele>2139.1</ele>
        <time>2020-02-14T10:52:10.658Z</time>
      </trkpt>
      <trkpt lat="42.56832" lon="1.88981">
        <ele>2138.6</ele>
        <time>2020-02-14T10:52:15.473Z</time>
      </trkpt>
      <trkpt lat="42.5682" lon="1.88987">
        <ele>2141.1</ele>
        <time>2020-02-14T10:52:20.491Z</time>
      </trkpt>
      <trkpt lat="42.56819" lon="1.88989">
        <ele>2139.7</ele>
        <time>2020-02-14T10:52:21.296Z</time>
      </trkpt>
      <trkpt lat="42.56818" lon="1.88991">
        <ele>2140.1</ele>
        <time>2020-02-14T10:52:21.947Z</time>
      </trkpt>
      <trkpt lat="42.56815" lon="1.88993">
        <ele>2139.1</ele>
        <time>2020-02-14T10:52:23.200Z</time>
      </trkpt>
      <trkpt lat="42.56805" lon="1.89006">
        <ele>2140</ele>
        <time>2020-02-14T10:52:28.414Z</time>
      </trkpt>
      <trkpt lat="42.56798" lon="1.89015">
        <ele>2140</ele>
        <time>2020-02-14T10:52:32.171Z</time>
      </trkpt>
      <trkpt lat="42.56788" lon="1.89021">
        <ele>2139.7</ele>
        <time>2020-02-14T10:52:36.361Z</time>
      </trkpt>
      <trkpt lat="42.56775" lon="1.89027">
        <ele>2139.7</ele>
        <time>2020-02-14T10:52:41.740Z</time>
      </trkpt>
      <trkpt lat="42.56764" lon="1.89029">
        <ele>2140</ele>
        <time>2020-02-14T10:52:45.974Z</time>
      </trkpt>
      <trkpt lat="42.56752" lon="1.89033">
        <ele>2140</ele>
        <time>2020-02-14T10:52:51.049Z</time>
      </trkpt>
      <trkpt lat="42.5674" lon="1.89029">
        <ele>2139.6</ele>
        <time>2020-02-14T10:52:55.709Z</time>
      </trkpt>
      <trkpt lat="42.56731" lon="1.89028">
        <ele>2139.2</ele>
        <time>2020-02-14T10:52:59.081Z</time>
      </trkpt>
      <trkpt lat="42.56726" lon="1.89021">
        <ele>2139.7</ele>
        <time>2020-02-14T10:53:02.013Z</time>
      </trkpt>
      <trkpt lat="42.56713" lon="1.88998">
        <ele>2139.7</ele>
        <time>2020-02-14T10:53:10.419Z</time>
      </trkpt>
      <trkpt lat="42.56702" lon="1.88997">
        <ele>2139.2</ele>
        <time>2020-02-14T10:53:14.637Z</time>
      </trkpt>
      <trkpt lat="42.56684" lon="1.89001">
        <ele>2138.6</ele>
        <time>2020-02-14T10:53:21.616Z</time>
      </trkpt>
      <trkpt lat="42.56676" lon="1.88989">
        <ele>2139.2</ele>
        <time>2020-02-14T10:53:26.211Z</time>
      </trkpt>
      <trkpt lat="42.56671" lon="1.8899">
        <ele>2139.6</ele>
        <time>2020-02-14T10:53:28.197Z</time>
      </trkpt>
      <trkpt lat="42.56665" lon="1.89002">
        <ele>2139.1</ele>
        <time>2020-02-14T10:53:32.165Z</time>
      </trkpt>
      <trkpt lat="42.56657" lon="1.89013">
        <ele>2139.2</ele>
        <time>2020-02-14T10:53:36.698Z</time>
      </trkpt>
      <trkpt lat="42.5665" lon="1.89026">
        <ele>2139.1</ele>
        <time>2020-02-14T10:53:41.325Z</time>
      </trkpt>
      <trkpt lat="42.5663" lon="1.89032">
        <ele>2139.1</ele>
        <time>2020-02-14T10:53:48.955Z</time>
      </trkpt>
      <trkpt lat="42.56629" lon="1.89032">
        <ele>2139.2</ele>
        <time>2020-02-14T10:53:49.620Z</time>
      </trkpt>
      <trkpt lat="42.56622" lon="1.89029">
        <ele>2138.7</ele>
        <time>2020-02-14T10:53:52.435Z</time>
      </trkpt>
      <trkpt lat="42.56612" lon="1.89023">
        <ele>2138.6</ele>
        <time>2020-02-14T10:53:56.493Z</time>
      </trkpt>
      <trkpt lat="42.56605" lon="1.89013">
        <ele>2138.7</ele>
        <time>2020-02-14T10:54:00.424Z</time>
      </trkpt>
      <trkpt lat="42.56588" lon="1.89006">
        <ele>2138.2</ele>
        <time>2020-02-14T10:54:07.126Z</time>
      </trkpt>
      <trkpt lat="42.56581" lon="1.89009">
        <ele>2139.2</ele>
        <time>2020-02-14T10:54:10.080Z</time>
      </trkpt>
      <trkpt lat="42.56571" lon="1.88998">
        <ele>2138.6</ele>
        <time>2020-02-14T10:54:15.071Z</time>
      </trkpt>
      <trkpt lat="42.56564" lon="1.89004">
        <ele>2138.2</ele>
        <time>2020-02-14T10:54:18.304Z</time>
      </trkpt>
      <trkpt lat="42.56557" lon="1.89005">
        <ele>2138.2</ele>
        <time>2020-02-14T10:54:20.881Z</time>
      </trkpt>
      <trkpt lat="42.56546" lon="1.89007">
        <ele>2137.6</ele>
        <time>2020-02-14T10:54:25.397Z</time>
      </trkpt>
      <trkpt lat="42.56537" lon="1.89013">
        <ele>2137.2</ele>
        <time>2020-02-14T10:54:29.116Z</time>
      </trkpt>
      <trkpt lat="42.56532" lon="1.89017">
        <ele>2137.3</ele>
        <time>2020-02-14T10:54:31.354Z</time>
      </trkpt>
      <trkpt lat="42.5653" lon="1.89018">
        <ele>2137.7</ele>
        <time>2020-02-14T10:54:32.409Z</time>
      </trkpt>
      <trkpt lat="42.56524" lon="1.89023">
        <ele>2142.1</ele>
        <time>2020-02-14T10:54:35.461Z</time>
      </trkpt>
      <trkpt lat="42.56522" lon="1.89025">
        <ele>2138.7</ele>
        <time>2020-02-14T10:54:37.004Z</time>
      </trkpt>
      <trkpt lat="42.56521" lon="1.89026">
        <ele>2138.6</ele>
        <time>2020-02-14T10:54:37.438Z</time>
      </trkpt>
      <trkpt lat="42.56503" lon="1.89026">
        <ele>2139.1</ele>
        <time>2020-02-14T10:54:44.159Z</time>
      </trkpt>
      <trkpt lat="42.56502" lon="1.89025">
        <ele>2139.2</ele>
        <time>2020-02-14T10:54:44.640Z</time>
      </trkpt>
      <trkpt lat="42.56498" lon="1.89022">
        <ele>2140.1</ele>
        <time>2020-02-14T10:54:46.362Z</time>
      </trkpt>
      <trkpt lat="42.56498" lon="1.89021">
        <ele>2139.1</ele>
        <time>2020-02-14T10:54:46.894Z</time>
      </trkpt>
      <trkpt lat="42.56492" lon="1.89031">
        <ele>2138.6</ele>
        <time>2020-02-14T10:54:50.607Z</time>
      </trkpt>
      <trkpt lat="42.5649" lon="1.89035">
        <ele>2139.1</ele>
        <time>2020-02-14T10:54:52.091Z</time>
      </trkpt>
      <trkpt lat="42.5648" lon="1.89041">
        <ele>2138.7</ele>
        <time>2020-02-14T10:54:56.189Z</time>
      </trkpt>
      <trkpt lat="42.56478" lon="1.89049">
        <ele>2139.2</ele>
        <time>2020-02-14T10:54:58.679Z</time>
      </trkpt>
      <trkpt lat="42.56462" lon="1.89068">
        <ele>2137.6</ele>
        <time>2020-02-14T10:55:06.868Z</time>
      </trkpt>
      <trkpt lat="42.56456" lon="1.89076">
        <ele>2139.1</ele>
        <time>2020-02-14T10:55:10.036Z</time>
      </trkpt>
      <trkpt lat="42.56445" lon="1.89086">
        <ele>2139.1</ele>
        <time>2020-02-14T10:55:15.225Z</time>
      </trkpt>
      <trkpt lat="42.5643" lon="1.89086">
        <ele>2138.7</ele>
        <time>2020-02-14T10:55:20.976Z</time>
      </trkpt>
      <trkpt lat="42.56423" lon="1.89088">
        <ele>2137.6</ele>
        <time>2020-02-14T10:55:23.941Z</time>
      </trkpt>
      <trkpt lat="42.56421" lon="1.89093">
        <ele>2138.2</ele>
        <time>2020-02-14T10:55:25.340Z</time>
      </trkpt>
      <trkpt lat="42.56421" lon="1.89093">
        <ele>2138.6</ele>
        <time>2020-02-14T10:55:25.652Z</time>
      </trkpt>
      <trkpt lat="42.56405" lon="1.89108">
        <ele>2138.6</ele>
        <time>2020-02-14T10:55:33.196Z</time>
      </trkpt>
      <trkpt lat="42.56395" lon="1.8911">
        <ele>2138.6</ele>
        <time>2020-02-14T10:55:37.045Z</time>
      </trkpt>
      <trkpt lat="42.56386" lon="1.8911">
        <ele>2139.2</ele>
        <time>2020-02-14T10:55:40.449Z</time>
      </trkpt>
      <trkpt lat="42.56384" lon="1.89106">
        <ele>2139.2</ele>
        <time>2020-02-14T10:55:41.696Z</time>
      </trkpt>
      <trkpt lat="42.5637" lon="1.89083">
        <ele>2138.1</ele>
        <time>2020-02-14T10:55:50.222Z</time>
      </trkpt>
      <trkpt lat="42.56355" lon="1.89072">
        <ele>2138.2</ele>
        <time>2020-02-14T10:55:56.742Z</time>
      </trkpt>
      <trkpt lat="42.5635" lon="1.89062">
        <ele>2138.1</ele>
        <time>2020-02-14T10:56:00.179Z</time>
      </trkpt>
      <trkpt lat="42.56347" lon="1.89054">
        <ele>2138.2</ele>
        <time>2020-02-14T10:56:02.547Z</time>
      </trkpt>
      <trkpt lat="42.56345" lon="1.89046">
        <ele>2138.2</ele>
        <time>2020-02-14T10:56:05.043Z</time>
      </trkpt>
      <trkpt lat="42.56345" lon="1.89029">
        <ele>2138.2</ele>
        <time>2020-02-14T10:56:09.879Z</time>
      </trkpt>
      <trkpt lat="42.56345" lon="1.89028">
        <ele>2138.1</ele>
        <time>2020-02-14T10:56:10.278Z</time>
      </trkpt>
      <trkpt lat="42.56338" lon="1.8902">
        <ele>2138.1</ele>
        <time>2020-02-14T10:56:13.622Z</time>
      </trkpt>
      <trkpt lat="42.56324" lon="1.89026">
        <ele>2138.1</ele>
        <time>2020-02-14T10:56:19.242Z</time>
      </trkpt>
      <trkpt lat="42.56318" lon="1.89014">
        <ele>2137.7</ele>
        <time>2020-02-14T10:56:23.436Z</time>
      </trkpt>
      <trkpt lat="42.56311" lon="1.88999">
        <ele>2138.2</ele>
        <time>2020-02-14T10:56:28.636Z</time>
      </trkpt>
      <trkpt lat="42.56302" lon="1.88983">
        <ele>2137.2</ele>
        <time>2020-02-14T10:56:34.164Z</time>
      </trkpt>
      <trkpt lat="42.563" lon="1.88977">
        <ele>2136.8</ele>
        <time>2020-02-14T10:56:36.152Z</time>
      </trkpt>
      <trkpt lat="42.56299" lon="1.88974">
        <ele>2137.7</ele>
        <time>2020-02-14T10:56:37.120Z</time>
      </trkpt>
      <trkpt lat="42.56293" lon="1.88973">
        <ele>2138.2</ele>
        <time>2020-02-14T10:56:39.496Z</time>
      </trkpt>
      <trkpt lat="42.56289" lon="1.88973">
        <ele>2138.1</ele>
        <time>2020-02-14T10:56:40.858Z</time>
      </trkpt>
      <trkpt lat="42.56279" lon="1.8896">
        <ele>2137.7</ele>
        <time>2020-02-14T10:56:46.180Z</time>
      </trkpt>
      <trkpt lat="42.56278" lon="1.8896">
        <ele>2137.6</ele>
        <time>2020-02-14T10:56:46.706Z</time>
      </trkpt>
      <trkpt lat="42.56273" lon="1.88953">
        <ele>2137.6</ele>
        <time>2020-02-14T10:56:49.321Z</time>
      </trkpt>
      <trkpt lat="42.56262" lon="1.88946">
        <ele>2138.1</ele>
        <time>2020-02-14T10:56:54.011Z</time>
      </trkpt>
      <trkpt lat="42.56255" lon="1.88941">
        <ele>2138.2</ele>
        <time>2020-02-14T10:56:56.889Z</time>
      </trkpt>
      <trkpt lat="42.56253" lon="1.88938">
        <ele>2138.2</ele>
        <time>2020-02-14T10:56:58.134Z</time>
      </trkpt>
      <trkpt lat="42.56251" lon="1.88931">
        <ele>2137.7</ele>
        <time>2020-02-14T10:57:00.453Z</time>
      </trkpt>
      <trkpt lat="42.56241" lon="1.88919">
        <ele>2137.3</ele>
        <time>2020-02-14T10:57:05.506Z</time>
      </trkpt>
      <trkpt lat="42.56233" lon="1.88909">
        <ele>2137.7</ele>
        <time>2020-02-14T10:57:09.480Z</time>
      </trkpt>
      <trkpt lat="42.56231" lon="1.88908">
        <ele>2137.6</ele>
        <time>2020-02-14T10:57:10.424Z</time>
      </trkpt>
      <trkpt lat="42.56223" lon="1.88901">
        <ele>2137.2</ele>
        <time>2020-02-14T10:57:13.939Z</time>
      </trkpt>
      <trkpt lat="42.5622" lon="1.88898">
        <ele>2137.7</ele>
        <time>2020-02-14T10:57:15.540Z</time>
      </trkpt>
      <trkpt lat="42.56205" lon="1.88892">
        <ele>2137.3</ele>
        <time>2020-02-14T10:57:21.651Z</time>
      </trkpt>
      <trkpt lat="42.56202" lon="1.88889">
        <ele>2137.2</ele>
        <time>2020-02-14T10:57:23.010Z</time>
      </trkpt>
      <trkpt lat="42.56192" lon="1.88867">
        <ele>2140</ele>
        <time>2020-02-14T10:57:30.380Z</time>
      </trkpt>
      <trkpt lat="42.56188" lon="1.88857">
        <ele>2137.6</ele>
        <time>2020-02-14T10:57:33.613Z</time>
      </trkpt>
      <trkpt lat="42.56188" lon="1.88856">
        <ele>2137.3</ele>
        <time>2020-02-14T10:57:34.158Z</time>
      </trkpt>
      <trkpt lat="42.56185" lon="1.88844">
        <ele>2136.8</ele>
        <time>2020-02-14T10:57:37.725Z</time>
      </trkpt>
      <trkpt lat="42.56184" lon="1.88829">
        <ele>2137.3</ele>
        <time>2020-02-14T10:57:41.859Z</time>
      </trkpt>
      <trkpt lat="42.56184" lon="1.88826">
        <ele>2137.3</ele>
        <time>2020-02-14T10:57:42.838Z</time>
      </trkpt>
      <trkpt lat="42.56183" lon="1.88816">
        <ele>2137.3</ele>
        <time>2020-02-14T10:57:45.553Z</time>
      </trkpt>
      <trkpt lat="42.56181" lon="1.88814">
        <ele>2137.2</ele>
        <time>2020-02-14T10:57:46.562Z</time>
      </trkpt>
      <trkpt lat="42.5618" lon="1.88809">
        <ele>2137.3</ele>
        <time>2020-02-14T10:57:48.057Z</time>
      </trkpt>
      <trkpt lat="42.56172" lon="1.88795">
        <ele>2137.3</ele>
        <time>2020-02-14T10:57:53.213Z</time>
      </trkpt>
      <trkpt lat="42.56169" lon="1.88791">
        <ele>2138.1</ele>
        <time>2020-02-14T10:57:54.708Z</time>
      </trkpt>
      <trkpt lat="42.56162" lon="1.88769">
        <ele>2137.6</ele>
        <time>2020-02-14T10:58:01.589Z</time>
      </trkpt>
      <trkpt lat="42.56162" lon="1.88757">
        <ele>2137.7</ele>
        <time>2020-02-14T10:58:04.863Z</time>
      </trkpt>
      <trkpt lat="42.56158" lon="1.88737">
        <ele>2137.7</ele>
        <time>2020-02-14T10:58:10.828Z</time>
      </trkpt>
      <trkpt lat="42.56156" lon="1.88729">
        <ele>2137.2</ele>
        <time>2020-02-14T10:58:13.145Z</time>
      </trkpt>
      <trkpt lat="42.56156" lon="1.88724">
        <ele>2137.2</ele>
        <time>2020-02-14T10:58:14.539Z</time>
      </trkpt>
      <trkpt lat="42.56156" lon="1.88714">
        <ele>2137.7</ele>
        <time>2020-02-14T10:58:17.373Z</time>
      </trkpt>
      <trkpt lat="42.56157" lon="1.88701">
        <ele>2137.3</ele>
        <time>2020-02-14T10:58:21.298Z</time>
      </trkpt>
      <trkpt lat="42.56157" lon="1.88688">
        <ele>2137.6</ele>
        <time>2020-02-14T10:58:24.852Z</time>
      </trkpt>
      <trkpt lat="42.56158" lon="1.88685">
        <ele>2137.6</ele>
        <time>2020-02-14T10:58:25.880Z</time>
      </trkpt>
      <trkpt lat="42.56158" lon="1.88678">
        <ele>2137.2</ele>
        <time>2020-02-14T10:58:27.879Z</time>
      </trkpt>
      <trkpt lat="42.5616" lon="1.88674">
        <ele>2137.2</ele>
        <time>2020-02-14T10:58:29.121Z</time>
      </trkpt>
      <trkpt lat="42.56156" lon="1.88667">
        <ele>2135.7</ele>
        <time>2020-02-14T10:58:31.606Z</time>
      </trkpt>
      <trkpt lat="42.56155" lon="1.88659">
        <ele>2132.8</ele>
        <time>2020-02-14T10:58:34.112Z</time>
      </trkpt>
      <trkpt lat="42.56153" lon="1.88655">
        <ele>2131.9</ele>
        <time>2020-02-14T10:58:35.495Z</time>
      </trkpt>
      <trkpt lat="42.56151" lon="1.88654">
        <ele>2130.5</ele>
        <time>2020-02-14T10:58:36.656Z</time>
      </trkpt>
      <trkpt lat="42.56144" lon="1.88647">
        <ele>2127.6</ele>
        <time>2020-02-14T10:58:40.096Z</time>
      </trkpt>
      <trkpt lat="42.56138" lon="1.88642">
        <ele>2124.8</ele>
        <time>2020-02-14T10:58:42.982Z</time>
      </trkpt>
      <trkpt lat="42.56135" lon="1.8863">
        <ele>2121.4</ele>
        <time>2020-02-14T10:58:46.663Z</time>
      </trkpt>
      <trkpt lat="42.56131" lon="1.88621">
        <ele>2119.5</ele>
        <time>2020-02-14T10:58:49.847Z</time>
      </trkpt>
      <trkpt lat="42.56129" lon="1.88614">
        <ele>2117.4</ele>
        <time>2020-02-14T10:58:52.090Z</time>
      </trkpt>
      <trkpt lat="42.56128" lon="1.88606">
        <ele>2115.6</ele>
        <time>2020-02-14T10:58:54.597Z</time>
      </trkpt>
      <trkpt lat="42.56126" lon="1.88595">
        <ele>2113.6</ele>
        <time>2020-02-14T10:58:57.868Z</time>
      </trkpt>
      <trkpt lat="42.56121" lon="1.88584">
        <ele>2111.7</ele>
        <time>2020-02-14T10:59:01.630Z</time>
      </trkpt>
      <trkpt lat="42.56117" lon="1.88575">
        <ele>2109.3</ele>
        <time>2020-02-14T10:59:04.484Z</time>
      </trkpt>
      <trkpt lat="42.56115" lon="1.88569">
        <ele>2108.3</ele>
        <time>2020-02-14T10:59:06.515Z</time>
      </trkpt>
      <trkpt lat="42.56115" lon="1.88565">
        <ele>2107.9</ele>
        <time>2020-02-14T10:59:07.584Z</time>
      </trkpt>
      <trkpt lat="42.56113" lon="1.88558">
        <ele>2106.4</ele>
        <time>2020-02-14T10:59:09.965Z</time>
      </trkpt>
      <trkpt lat="42.56112" lon="1.88543">
        <ele>2104</ele>
        <time>2020-02-14T10:59:14.167Z</time>
      </trkpt>
      <trkpt lat="42.56109" lon="1.88531">
        <ele>2102.2</ele>
        <time>2020-02-14T10:59:17.894Z</time>
      </trkpt>
      <trkpt lat="42.56104" lon="1.88516">
        <ele>2099.3</ele>
        <time>2020-02-14T10:59:22.654Z</time>
      </trkpt>
      <trkpt lat="42.561" lon="1.88506">
        <ele>2098.8</ele>
        <time>2020-02-14T10:59:26.053Z</time>
      </trkpt>
      <trkpt lat="42.561" lon="1.88502">
        <ele>2098.3</ele>
        <time>2020-02-14T10:59:27.160Z</time>
      </trkpt>
      <trkpt lat="42.56099" lon="1.88488">
        <ele>2098.2</ele>
        <time>2020-02-14T10:59:31.310Z</time>
      </trkpt>
      <trkpt lat="42.56097" lon="1.88483">
        <ele>2096.8</ele>
        <time>2020-02-14T10:59:32.918Z</time>
      </trkpt>
      <trkpt lat="42.56097" lon="1.88465">
        <ele>2093.4</ele>
        <time>2020-02-14T10:59:38.096Z</time>
      </trkpt>
      <trkpt lat="42.56097" lon="1.88464">
        <ele>2093.4</ele>
        <time>2020-02-14T10:59:38.495Z</time>
      </trkpt>
      <trkpt lat="42.56098" lon="1.88455">
        <ele>2092</ele>
        <time>2020-02-14T10:59:41.124Z</time>
      </trkpt>
      <trkpt lat="42.56098" lon="1.88449">
        <ele>2090.6</ele>
        <time>2020-02-14T10:59:42.765Z</time>
      </trkpt>
      <trkpt lat="42.56099" lon="1.88442">
        <ele>2088.7</ele>
        <time>2020-02-14T10:59:45.103Z</time>
      </trkpt>
      <trkpt lat="42.56096" lon="1.88426">
        <ele>2085.3</ele>
        <time>2020-02-14T10:59:49.833Z</time>
      </trkpt>
      <trkpt lat="42.56099" lon="1.88416">
        <ele>2085.2</ele>
        <time>2020-02-14T10:59:52.852Z</time>
      </trkpt>
      <trkpt lat="42.561" lon="1.88412">
        <ele>2084.4</ele>
        <time>2020-02-14T10:59:54.100Z</time>
      </trkpt>
      <trkpt lat="42.56101" lon="1.88409">
        <ele>2084.3</ele>
        <time>2020-02-14T10:59:54.884Z</time>
      </trkpt>
      <trkpt lat="42.56098" lon="1.88398">
        <ele>2082.8</ele>
        <time>2020-02-14T10:59:58.212Z</time>
      </trkpt>
      <trkpt lat="42.56094" lon="1.88391">
        <ele>2081.4</ele>
        <time>2020-02-14T11:00:00.892Z</time>
      </trkpt>
      <trkpt lat="42.56093" lon="1.88386">
        <ele>2080.4</ele>
        <time>2020-02-14T11:00:02.411Z</time>
      </trkpt>
      <trkpt lat="42.56088" lon="1.8837">
        <ele>2079.1</ele>
        <time>2020-02-14T11:00:07.283Z</time>
      </trkpt>
      <trkpt lat="42.56087" lon="1.88362">
        <ele>2080.1</ele>
        <time>2020-02-14T11:00:09.713Z</time>
      </trkpt>
      <trkpt lat="42.56079" lon="1.88337">
        <ele>2077.1</ele>
        <time>2020-02-14T11:00:17.476Z</time>
      </trkpt>
      <trkpt lat="42.56079" lon="1.88336">
        <ele>2076.6</ele>
        <time>2020-02-14T11:00:17.883Z</time>
      </trkpt>
      <trkpt lat="42.56079" lon="1.88325">
        <ele>2075.6</ele>
        <time>2020-02-14T11:00:20.831Z</time>
      </trkpt>
      <trkpt lat="42.56077" lon="1.88315">
        <ele>2073.3</ele>
        <time>2020-02-14T11:00:24.097Z</time>
      </trkpt>
      <trkpt lat="42.56076" lon="1.88305">
        <ele>2071.3</ele>
        <time>2020-02-14T11:00:27.124Z</time>
      </trkpt>
      <trkpt lat="42.56075" lon="1.88293">
        <ele>2070.4</ele>
        <time>2020-02-14T11:00:30.379Z</time>
      </trkpt>
      <trkpt lat="42.56071" lon="1.88284">
        <ele>2068.4</ele>
        <time>2020-02-14T11:00:33.520Z</time>
      </trkpt>
      <trkpt lat="42.5607" lon="1.88278">
        <ele>2067.9</ele>
        <time>2020-02-14T11:00:35.129Z</time>
      </trkpt>
      <trkpt lat="42.56066" lon="1.88271">
        <ele>2066.6</ele>
        <time>2020-02-14T11:00:37.825Z</time>
      </trkpt>
      <trkpt lat="42.56067" lon="1.88266">
        <ele>2066.1</ele>
        <time>2020-02-14T11:00:39.130Z</time>
      </trkpt>
      <trkpt lat="42.56066" lon="1.8826">
        <ele>2066.1</ele>
        <time>2020-02-14T11:00:41.080Z</time>
      </trkpt>
      <trkpt lat="42.56065" lon="1.88245">
        <ele>2065.1</ele>
        <time>2020-02-14T11:00:45.352Z</time>
      </trkpt>
      <trkpt lat="42.56062" lon="1.88239">
        <ele>2064.2</ele>
        <time>2020-02-14T11:00:47.221Z</time>
      </trkpt>
      <trkpt lat="42.5606" lon="1.88231">
        <ele>2063.7</ele>
        <time>2020-02-14T11:00:49.722Z</time>
      </trkpt>
      <trkpt lat="42.56054" lon="1.88217">
        <ele>2059.4</ele>
        <time>2020-02-14T11:00:54.607Z</time>
      </trkpt>
      <trkpt lat="42.56054" lon="1.88215">
        <ele>2063.2</ele>
        <time>2020-02-14T11:00:56.007Z</time>
      </trkpt>
      <trkpt lat="42.56053" lon="1.88212">
        <ele>2059.8</ele>
        <time>2020-02-14T11:00:57.566Z</time>
      </trkpt>
      <trkpt lat="42.56051" lon="1.88201">
        <ele>2061.2</ele>
        <time>2020-02-14T11:01:00.675Z</time>
      </trkpt>
      <trkpt lat="42.56049" lon="1.88187">
        <ele>2058.3</ele>
        <time>2020-02-14T11:01:04.890Z</time>
      </trkpt>
      <trkpt lat="42.56045" lon="1.8818">
        <ele>2056.4</ele>
        <time>2020-02-14T11:01:07.432Z</time>
      </trkpt>
      <trkpt lat="42.56045" lon="1.88175">
        <ele>2056</ele>
        <time>2020-02-14T11:01:09.076Z</time>
      </trkpt>
      <trkpt lat="42.56045" lon="1.8817">
        <ele>2055.1</ele>
        <time>2020-02-14T11:01:10.510Z</time>
      </trkpt>
      <trkpt lat="42.56046" lon="1.88164">
        <ele>2055.1</ele>
        <time>2020-02-14T11:01:12.301Z</time>
      </trkpt>
      <trkpt lat="42.56044" lon="1.88151">
        <ele>2053.1</ele>
        <time>2020-02-14T11:01:16.057Z</time>
      </trkpt>
      <trkpt lat="42.56035" lon="1.88134">
        <ele>2049.7</ele>
        <time>2020-02-14T11:01:22.101Z</time>
      </trkpt>
      <trkpt lat="42.56031" lon="1.88119">
        <ele>2048.7</ele>
        <time>2020-02-14T11:01:26.742Z</time>
      </trkpt>
      <trkpt lat="42.56031" lon="1.8811">
        <ele>2048.7</ele>
        <time>2020-02-14T11:01:29.137Z</time>
      </trkpt>
      <trkpt lat="42.56029" lon="1.88098">
        <ele>2046.3</ele>
        <time>2020-02-14T11:01:32.867Z</time>
      </trkpt>
      <trkpt lat="42.56032" lon="1.88085">
        <ele>2045.3</ele>
        <time>2020-02-14T11:01:36.678Z</time>
      </trkpt>
      <trkpt lat="42.56034" lon="1.88078">
        <ele>2044.9</ele>
        <time>2020-02-14T11:01:38.731Z</time>
      </trkpt>
      <trkpt lat="42.56035" lon="1.88059">
        <ele>2043.4</ele>
        <time>2020-02-14T11:01:44.245Z</time>
      </trkpt>
      <trkpt lat="42.56034" lon="1.88057">
        <ele>2042.9</ele>
        <time>2020-02-14T11:01:44.755Z</time>
      </trkpt>
      <trkpt lat="42.56031" lon="1.88051">
        <ele>2040.5</ele>
        <time>2020-02-14T11:01:47.175Z</time>
      </trkpt>
      <trkpt lat="42.56027" lon="1.88032">
        <ele>2038.2</ele>
        <time>2020-02-14T11:01:52.909Z</time>
      </trkpt>
      <trkpt lat="42.56027" lon="1.88018">
        <ele>2038.7</ele>
        <time>2020-02-14T11:01:56.728Z</time>
      </trkpt>
      <trkpt lat="42.56026" lon="1.88013">
        <ele>2037.8</ele>
        <time>2020-02-14T11:01:58.342Z</time>
      </trkpt>
      <trkpt lat="42.56018" lon="1.87997">
        <ele>2034.8</ele>
        <time>2020-02-14T11:02:03.954Z</time>
      </trkpt>
      <trkpt lat="42.56012" lon="1.8798">
        <ele>2031.9</ele>
        <time>2020-02-14T11:02:09.461Z</time>
      </trkpt>
      <trkpt lat="42.56008" lon="1.87963">
        <ele>2029.1</ele>
        <time>2020-02-14T11:02:14.709Z</time>
      </trkpt>
      <trkpt lat="42.56004" lon="1.8795">
        <ele>2028</ele>
        <time>2020-02-14T11:02:18.547Z</time>
      </trkpt>
      <trkpt lat="42.55998" lon="1.87933">
        <ele>2026.1</ele>
        <time>2020-02-14T11:02:23.999Z</time>
      </trkpt>
      <trkpt lat="42.55997" lon="1.87928">
        <ele>2026.2</ele>
        <time>2020-02-14T11:02:25.638Z</time>
      </trkpt>
      <trkpt lat="42.55989" lon="1.87912">
        <ele>2022.9</ele>
        <time>2020-02-14T11:02:31.231Z</time>
      </trkpt>
      <trkpt lat="42.55983" lon="1.87897">
        <ele>2020.9</ele>
        <time>2020-02-14T11:02:36.151Z</time>
      </trkpt>
      <trkpt lat="42.55972" lon="1.87881">
        <ele>2018</ele>
        <time>2020-02-14T11:02:42.504Z</time>
      </trkpt>
      <trkpt lat="42.55968" lon="1.87873">
        <ele>2018.5</ele>
        <time>2020-02-14T11:02:45.216Z</time>
      </trkpt>
      <trkpt lat="42.5596" lon="1.87858">
        <ele>2016.6</ele>
        <time>2020-02-14T11:02:50.552Z</time>
      </trkpt>
      <trkpt lat="42.55959" lon="1.87855">
        <ele>2016.6</ele>
        <time>2020-02-14T11:02:51.477Z</time>
      </trkpt>
      <trkpt lat="42.5595" lon="1.87837">
        <ele>2013.7</ele>
        <time>2020-02-14T11:02:57.851Z</time>
      </trkpt>
      <trkpt lat="42.55946" lon="1.87831">
        <ele>2011.8</ele>
        <time>2020-02-14T11:03:00.143Z</time>
      </trkpt>
      <trkpt lat="42.55941" lon="1.87817">
        <ele>2010.7</ele>
        <time>2020-02-14T11:03:04.586Z</time>
      </trkpt>
      <trkpt lat="42.5594" lon="1.87807">
        <ele>2010.7</ele>
        <time>2020-02-14T11:03:07.464Z</time>
      </trkpt>
      <trkpt lat="42.55939" lon="1.87802">
        <ele>2010.4</ele>
        <time>2020-02-14T11:03:09.083Z</time>
      </trkpt>
      <trkpt lat="42.55932" lon="1.87795">
        <ele>2009.4</ele>
        <time>2020-02-14T11:03:12.376Z</time>
      </trkpt>
      <trkpt lat="42.55928" lon="1.87791">
        <ele>2008</ele>
        <time>2020-02-14T11:03:14.403Z</time>
      </trkpt>
      <trkpt lat="42.55917" lon="1.87781">
        <ele>2006.4</ele>
        <time>2020-02-14T11:03:19.315Z</time>
      </trkpt>
      <trkpt lat="42.55907" lon="1.87767">
        <ele>2004</ele>
        <time>2020-02-14T11:03:25.019Z</time>
      </trkpt>
      <trkpt lat="42.55897" lon="1.87755">
        <ele>2001.6</ele>
        <time>2020-02-14T11:03:30.143Z</time>
      </trkpt>
      <trkpt lat="42.55893" lon="1.87747">
        <ele>2000.7</ele>
        <time>2020-02-14T11:03:33.054Z</time>
      </trkpt>
      <trkpt lat="42.55885" lon="1.87741">
        <ele>1998.3</ele>
        <time>2020-02-14T11:03:36.732Z</time>
      </trkpt>
      <trkpt lat="42.55876" lon="1.87722">
        <ele>1995.8</ele>
        <time>2020-02-14T11:03:43.141Z</time>
      </trkpt>
      <trkpt lat="42.55865" lon="1.87712">
        <ele>1993</ele>
        <time>2020-02-14T11:03:48.403Z</time>
      </trkpt>
      <trkpt lat="42.55863" lon="1.8771">
        <ele>1993</ele>
        <time>2020-02-14T11:03:49.201Z</time>
      </trkpt>
      <trkpt lat="42.55858" lon="1.87708">
        <ele>1991.5</ele>
        <time>2020-02-14T11:03:51.124Z</time>
      </trkpt>
      <trkpt lat="42.5585" lon="1.877">
        <ele>1988.7</ele>
        <time>2020-02-14T11:03:55.133Z</time>
      </trkpt>
      <trkpt lat="42.5584" lon="1.87696">
        <ele>1986.3</ele>
        <time>2020-02-14T11:03:59.416Z</time>
      </trkpt>
      <trkpt lat="42.55834" lon="1.87693">
        <ele>1985.4</ele>
        <time>2020-02-14T11:04:01.779Z</time>
      </trkpt>
      <trkpt lat="42.55823" lon="1.87693">
        <ele>1982.5</ele>
        <time>2020-02-14T11:04:06.219Z</time>
      </trkpt>
      <trkpt lat="42.55818" lon="1.87689">
        <ele>1981.4</ele>
        <time>2020-02-14T11:04:08.557Z</time>
      </trkpt>
      <trkpt lat="42.5581" lon="1.87689">
        <ele>1979.6</ele>
        <time>2020-02-14T11:04:11.378Z</time>
      </trkpt>
      <trkpt lat="42.558" lon="1.87685">
        <ele>1976.7</ele>
        <time>2020-02-14T11:04:15.618Z</time>
      </trkpt>
      <trkpt lat="42.55796" lon="1.87682">
        <ele>1976.6</ele>
        <time>2020-02-14T11:04:17.568Z</time>
      </trkpt>
      <trkpt lat="42.55789" lon="1.87677">
        <ele>1974.7</ele>
        <time>2020-02-14T11:04:20.685Z</time>
      </trkpt>
      <trkpt lat="42.55776" lon="1.87668">
        <ele>1972.3</ele>
        <time>2020-02-14T11:04:26.275Z</time>
      </trkpt>
      <trkpt lat="42.55773" lon="1.87663">
        <ele>1971.9</ele>
        <time>2020-02-14T11:04:28.079Z</time>
      </trkpt>
      <trkpt lat="42.55771" lon="1.87661">
        <ele>1978.5</ele>
        <time>2020-02-14T11:04:30.572Z</time>
      </trkpt>
      <trkpt lat="42.55771" lon="1.87659">
        <ele>1972.4</ele>
        <time>2020-02-14T11:04:32.777Z</time>
      </trkpt>
      <trkpt lat="42.55769" lon="1.87657">
        <ele>1966.6</ele>
        <time>2020-02-14T11:04:34.882Z</time>
      </trkpt>
      <trkpt lat="42.55768" lon="1.87656">
        <ele>1973.3</ele>
        <time>2020-02-14T11:04:37.277Z</time>
      </trkpt>
      <trkpt lat="42.55766" lon="1.87654">
        <ele>1973.3</ele>
        <time>2020-02-14T11:04:38.495Z</time>
      </trkpt>
      <trkpt lat="42.55763" lon="1.87648">
        <ele>1966</ele>
        <time>2020-02-14T11:04:41.714Z</time>
      </trkpt>
      <trkpt lat="42.55763" lon="1.87646">
        <ele>1968.1</ele>
        <time>2020-02-14T11:04:42.534Z</time>
      </trkpt>
      <trkpt lat="42.55763" lon="1.87645">
        <ele>1971.4</ele>
        <time>2020-02-14T11:04:43.754Z</time>
      </trkpt>
      <trkpt lat="42.55763" lon="1.87644">
        <ele>1969.4</ele>
        <time>2020-02-14T11:04:44.533Z</time>
      </trkpt>
      <trkpt lat="42.55762" lon="1.87639">
        <ele>1969.4</ele>
        <time>2020-02-14T11:04:45.802Z</time>
      </trkpt>
      <trkpt lat="42.55758" lon="1.87631">
        <ele>1969</ele>
        <time>2020-02-14T11:04:48.409Z</time>
      </trkpt>
      <trkpt lat="42.5575" lon="1.87608">
        <ele>1966.6</ele>
        <time>2020-02-14T11:04:55.963Z</time>
      </trkpt>
      <trkpt lat="42.55744" lon="1.8759">
        <ele>1965.1</ele>
        <time>2020-02-14T11:05:01.426Z</time>
      </trkpt>
      <trkpt lat="42.55742" lon="1.87581">
        <ele>1964.2</ele>
        <time>2020-02-14T11:05:04.130Z</time>
      </trkpt>
      <trkpt lat="42.55743" lon="1.87562">
        <ele>1963.2</ele>
        <time>2020-02-14T11:05:09.590Z</time>
      </trkpt>
      <trkpt lat="42.55743" lon="1.87553">
        <ele>1961.7</ele>
        <time>2020-02-14T11:05:12.241Z</time>
      </trkpt>
      <trkpt lat="42.5574" lon="1.87545">
        <ele>1960.3</ele>
        <time>2020-02-14T11:05:14.788Z</time>
      </trkpt>
      <trkpt lat="42.55737" lon="1.87532">
        <ele>1958.3</ele>
        <time>2020-02-14T11:05:18.639Z</time>
      </trkpt>
      <trkpt lat="42.55737" lon="1.87527">
        <ele>1957.5</ele>
        <time>2020-02-14T11:05:20.261Z</time>
      </trkpt>
      <trkpt lat="42.55732" lon="1.87506">
        <ele>1956.4</ele>
        <time>2020-02-14T11:05:26.372Z</time>
      </trkpt>
      <trkpt lat="42.55732" lon="1.87504">
        <ele>1955.9</ele>
        <time>2020-02-14T11:05:27.173Z</time>
      </trkpt>
      <trkpt lat="42.55722" lon="1.87483">
        <ele>1953.5</ele>
        <time>2020-02-14T11:05:34.209Z</time>
      </trkpt>
      <trkpt lat="42.55721" lon="1.87475">
        <ele>1953.2</ele>
        <time>2020-02-14T11:05:36.493Z</time>
      </trkpt>
      <trkpt lat="42.5572" lon="1.87469">
        <ele>1952.2</ele>
        <time>2020-02-14T11:05:38.410Z</time>
      </trkpt>
      <trkpt lat="42.55717" lon="1.87451">
        <ele>1951.6</ele>
        <time>2020-02-14T11:05:43.442Z</time>
      </trkpt>
      <trkpt lat="42.55717" lon="1.87433">
        <ele>1949.8</ele>
        <time>2020-02-14T11:05:48.691Z</time>
      </trkpt>
      <trkpt lat="42.55713" lon="1.8742">
        <ele>1948.7</ele>
        <time>2020-02-14T11:05:52.564Z</time>
      </trkpt>
      <trkpt lat="42.55715" lon="1.8741">
        <ele>1947.3</ele>
        <time>2020-02-14T11:05:55.645Z</time>
      </trkpt>
      <trkpt lat="42.55716" lon="1.87405">
        <ele>1946.8</ele>
        <time>2020-02-14T11:05:57.037Z</time>
      </trkpt>
      <trkpt lat="42.55718" lon="1.87401">
        <ele>1946.9</ele>
        <time>2020-02-14T11:05:58.434Z</time>
      </trkpt>
      <trkpt lat="42.5572" lon="1.87391">
        <ele>1946.3</ele>
        <time>2020-02-14T11:06:01.214Z</time>
      </trkpt>
      <trkpt lat="42.55721" lon="1.87378">
        <ele>1945.4</ele>
        <time>2020-02-14T11:06:05.055Z</time>
      </trkpt>
      <trkpt lat="42.5572" lon="1.87369">
        <ele>1944.4</ele>
        <time>2020-02-14T11:06:07.586Z</time>
      </trkpt>
      <trkpt lat="42.55722" lon="1.87367">
        <ele>1943.9</ele>
        <time>2020-02-14T11:06:08.592Z</time>
      </trkpt>
      <trkpt lat="42.55723" lon="1.87358">
        <ele>1942.6</ele>
        <time>2020-02-14T11:06:11.223Z</time>
      </trkpt>
      <trkpt lat="42.55717" lon="1.87337">
        <ele>1940.2</ele>
        <time>2020-02-14T11:06:17.592Z</time>
      </trkpt>
      <trkpt lat="42.55717" lon="1.87336">
        <ele>1939.6</ele>
        <time>2020-02-14T11:06:17.980Z</time>
      </trkpt>
      <trkpt lat="42.55717" lon="1.87326">
        <ele>1938.3</ele>
        <time>2020-02-14T11:06:20.923Z</time>
      </trkpt>
      <trkpt lat="42.55716" lon="1.87317">
        <ele>1936.8</ele>
        <time>2020-02-14T11:06:23.592Z</time>
      </trkpt>
      <trkpt lat="42.55714" lon="1.8731">
        <ele>1936.7</ele>
        <time>2020-02-14T11:06:25.515Z</time>
      </trkpt>
      <trkpt lat="42.55713" lon="1.87305">
        <ele>1935.4</ele>
        <time>2020-02-14T11:06:27.091Z</time>
      </trkpt>
      <trkpt lat="42.55711" lon="1.8729">
        <ele>1933.8</ele>
        <time>2020-02-14T11:06:31.578Z</time>
      </trkpt>
      <trkpt lat="42.55711" lon="1.87278">
        <ele>1932.4</ele>
        <time>2020-02-14T11:06:34.914Z</time>
      </trkpt>
      <trkpt lat="42.5571" lon="1.87274">
        <ele>1932.9</ele>
        <time>2020-02-14T11:06:36.229Z</time>
      </trkpt>
      <trkpt lat="42.55708" lon="1.87266">
        <ele>1931.4</ele>
        <time>2020-02-14T11:06:38.649Z</time>
      </trkpt>
      <trkpt lat="42.55708" lon="1.8726">
        <ele>1930.6</ele>
        <time>2020-02-14T11:06:40.385Z</time>
      </trkpt>
      <trkpt lat="42.55708" lon="1.87256">
        <ele>1930.1</ele>
        <time>2020-02-14T11:06:41.627Z</time>
      </trkpt>
      <trkpt lat="42.55708" lon="1.87251">
        <ele>1930.5</ele>
        <time>2020-02-14T11:06:42.891Z</time>
      </trkpt>
      <trkpt lat="42.55708" lon="1.8724">
        <ele>1928.5</ele>
        <time>2020-02-14T11:06:46.187Z</time>
      </trkpt>
      <trkpt lat="42.55707" lon="1.87234">
        <ele>1927.6</ele>
        <time>2020-02-14T11:06:48.056Z</time>
      </trkpt>
      <trkpt lat="42.55706" lon="1.87212">
        <ele>1925.3</ele>
        <time>2020-02-14T11:06:54.116Z</time>
      </trkpt>
      <trkpt lat="42.55704" lon="1.87201">
        <ele>1924.7</ele>
        <time>2020-02-14T11:06:57.631Z</time>
      </trkpt>
      <trkpt lat="42.55699" lon="1.87189">
        <ele>1922.8</ele>
        <time>2020-02-14T11:07:01.298Z</time>
      </trkpt>
      <trkpt lat="42.55695" lon="1.8717">
        <ele>1918.9</ele>
        <time>2020-02-14T11:07:07.238Z</time>
      </trkpt>
      <trkpt lat="42.55692" lon="1.87157">
        <ele>1917.1</ele>
        <time>2020-02-14T11:07:11.185Z</time>
      </trkpt>
      <trkpt lat="42.55688" lon="1.87145">
        <ele>1912.7</ele>
        <time>2020-02-14T11:07:15.267Z</time>
      </trkpt>
      <trkpt lat="42.55688" lon="1.87123">
        <ele>1909.8</ele>
        <time>2020-02-14T11:07:21.577Z</time>
      </trkpt>
      <trkpt lat="42.55688" lon="1.8712">
        <ele>1909.8</ele>
        <time>2020-02-14T11:07:22.491Z</time>
      </trkpt>
      <trkpt lat="42.55688" lon="1.87113">
        <ele>1908.4</ele>
        <time>2020-02-14T11:07:24.463Z</time>
      </trkpt>
      <trkpt lat="42.55685" lon="1.87095">
        <ele>1905.1</ele>
        <time>2020-02-14T11:07:29.741Z</time>
      </trkpt>
      <trkpt lat="42.55683" lon="1.87083">
        <ele>1902.2</ele>
        <time>2020-02-14T11:07:33.425Z</time>
      </trkpt>
      <trkpt lat="42.55683" lon="1.87077">
        <ele>1901.2</ele>
        <time>2020-02-14T11:07:35.109Z</time>
      </trkpt>
      <trkpt lat="42.55684" lon="1.87062">
        <ele>1898.8</ele>
        <time>2020-02-14T11:07:39.709Z</time>
      </trkpt>
      <trkpt lat="42.55684" lon="1.87057">
        <ele>1897.3</ele>
        <time>2020-02-14T11:07:41.228Z</time>
      </trkpt>
      <trkpt lat="42.5568" lon="1.87044">
        <ele>1895.9</ele>
        <time>2020-02-14T11:07:45.012Z</time>
      </trkpt>
      <trkpt lat="42.55679" lon="1.87037">
        <ele>1893.9</ele>
        <time>2020-02-14T11:07:47.332Z</time>
      </trkpt>
      <trkpt lat="42.55679" lon="1.87035">
        <ele>1893.6</ele>
        <time>2020-02-14T11:07:47.871Z</time>
      </trkpt>
      <trkpt lat="42.55676" lon="1.87031">
        <ele>1893.1</ele>
        <time>2020-02-14T11:07:49.165Z</time>
      </trkpt>
      <trkpt lat="42.55673" lon="1.87016">
        <ele>1890.2</ele>
        <time>2020-02-14T11:07:53.934Z</time>
      </trkpt>
      <trkpt lat="42.5567" lon="1.86998">
        <ele>1887.7</ele>
        <time>2020-02-14T11:07:59.207Z</time>
      </trkpt>
      <trkpt lat="42.5567" lon="1.86995">
        <ele>1886.8</ele>
        <time>2020-02-14T11:08:00.232Z</time>
      </trkpt>
      <trkpt lat="42.55666" lon="1.86978">
        <ele>1883.4</ele>
        <time>2020-02-14T11:08:05.177Z</time>
      </trkpt>
      <trkpt lat="42.55665" lon="1.86975">
        <ele>1882.9</ele>
        <time>2020-02-14T11:08:06.292Z</time>
      </trkpt>
      <trkpt lat="42.55663" lon="1.86969">
        <ele>1881.4</ele>
        <time>2020-02-14T11:08:08.182Z</time>
      </trkpt>
      <trkpt lat="42.55664" lon="1.86965">
        <ele>1881.4</ele>
        <time>2020-02-14T11:08:09.387Z</time>
      </trkpt>
      <trkpt lat="42.55661" lon="1.86949">
        <ele>1877.6</ele>
        <time>2020-02-14T11:08:14.158Z</time>
      </trkpt>
      <trkpt lat="42.5566" lon="1.86946">
        <ele>1877.1</ele>
        <time>2020-02-14T11:08:15.297Z</time>
      </trkpt>
      <trkpt lat="42.55668" lon="1.86931">
        <ele>1876.3</ele>
        <time>2020-02-14T11:08:20.410Z</time>
      </trkpt>
      <trkpt lat="42.55668" lon="1.86928">
        <ele>1875.7</ele>
        <time>2020-02-14T11:08:21.403Z</time>
      </trkpt>
      <trkpt lat="42.55668" lon="1.86925">
        <ele>1875.3</ele>
        <time>2020-02-14T11:08:22.306Z</time>
      </trkpt>
      <trkpt lat="42.55666" lon="1.86911">
        <ele>1874.2</ele>
        <time>2020-02-14T11:08:26.199Z</time>
      </trkpt>
      <trkpt lat="42.55665" lon="1.86904">
        <ele>1873.4</ele>
        <time>2020-02-14T11:08:28.301Z</time>
      </trkpt>
      <trkpt lat="42.55665" lon="1.86881">
        <ele>1871.9</ele>
        <time>2020-02-14T11:08:34.895Z</time>
      </trkpt>
      <trkpt lat="42.55664" lon="1.86877">
        <ele>1871.3</ele>
        <time>2020-02-14T11:08:35.925Z</time>
      </trkpt>
      <trkpt lat="42.55664" lon="1.86872">
        <ele>1870.9</ele>
        <time>2020-02-14T11:08:37.496Z</time>
      </trkpt>
      <trkpt lat="42.55663" lon="1.86856">
        <ele>1869.4</ele>
        <time>2020-02-14T11:08:42.029Z</time>
      </trkpt>
      <trkpt lat="42.55663" lon="1.86832">
        <ele>1868</ele>
        <time>2020-02-14T11:08:48.821Z</time>
      </trkpt>
      <trkpt lat="42.55663" lon="1.86812">
        <ele>1865.6</ele>
        <time>2020-02-14T11:08:54.736Z</time>
      </trkpt>
      <trkpt lat="42.55665" lon="1.86805">
        <ele>1865.7</ele>
        <time>2020-02-14T11:08:56.868Z</time>
      </trkpt>
      <trkpt lat="42.55665" lon="1.86793">
        <ele>1865.1</ele>
        <time>2020-02-14T11:09:00.118Z</time>
      </trkpt>
      <trkpt lat="42.55664" lon="1.86782">
        <ele>1864.7</ele>
        <time>2020-02-14T11:09:03.232Z</time>
      </trkpt>
      <trkpt lat="42.55666" lon="1.86768">
        <ele>1862.8</ele>
        <time>2020-02-14T11:09:07.480Z</time>
      </trkpt>
      <trkpt lat="42.55667" lon="1.8676">
        <ele>1862.2</ele>
        <time>2020-02-14T11:09:09.631Z</time>
      </trkpt>
      <trkpt lat="42.55668" lon="1.86755">
        <ele>1861.4</ele>
        <time>2020-02-14T11:09:11.139Z</time>
      </trkpt>
      <trkpt lat="42.55671" lon="1.86752">
        <ele>1862.3</ele>
        <time>2020-02-14T11:09:12.598Z</time>
      </trkpt>
      <trkpt lat="42.55672" lon="1.86749">
        <ele>1861.4</ele>
        <time>2020-02-14T11:09:13.786Z</time>
      </trkpt>
      <trkpt lat="42.55673" lon="1.86745">
        <ele>1861.3</ele>
        <time>2020-02-14T11:09:14.817Z</time>
      </trkpt>
      <trkpt lat="42.55668" lon="1.86737">
        <ele>1860.8</ele>
        <time>2020-02-14T11:09:17.733Z</time>
      </trkpt>
      <trkpt lat="42.55665" lon="1.86732">
        <ele>1860.3</ele>
        <time>2020-02-14T11:09:19.526Z</time>
      </trkpt>
      <trkpt lat="42.55664" lon="1.8673">
        <ele>1859.9</ele>
        <time>2020-02-14T11:09:20.353Z</time>
      </trkpt>
      <trkpt lat="42.55663" lon="1.86727">
        <ele>1859.4</ele>
        <time>2020-02-14T11:09:21.313Z</time>
      </trkpt>
      <trkpt lat="42.55659" lon="1.86721">
        <ele>1859.4</ele>
        <time>2020-02-14T11:09:23.491Z</time>
      </trkpt>
      <trkpt lat="42.55656" lon="1.86717">
        <ele>1858.4</ele>
        <time>2020-02-14T11:09:24.999Z</time>
      </trkpt>
      <trkpt lat="42.55648" lon="1.86701">
        <ele>1856.5</ele>
        <time>2020-02-14T11:09:30.753Z</time>
      </trkpt>
      <trkpt lat="42.55647" lon="1.86696">
        <ele>1856.5</ele>
        <time>2020-02-14T11:09:32.220Z</time>
      </trkpt>
      <trkpt lat="42.55647" lon="1.86692">
        <ele>1856.1</ele>
        <time>2020-02-14T11:09:33.197Z</time>
      </trkpt>
      <trkpt lat="42.55646" lon="1.86685">
        <ele>1855.1</ele>
        <time>2020-02-14T11:09:35.510Z</time>
      </trkpt>
      <trkpt lat="42.55645" lon="1.8668">
        <ele>1855.5</ele>
        <time>2020-02-14T11:09:36.980Z</time>
      </trkpt>
      <trkpt lat="42.55647" lon="1.86674">
        <ele>1855</ele>
        <time>2020-02-14T11:09:38.660Z</time>
      </trkpt>
      <trkpt lat="42.55643" lon="1.86657">
        <ele>1852.7</ele>
        <time>2020-02-14T11:09:43.805Z</time>
      </trkpt>
      <trkpt lat="42.55632" lon="1.86638">
        <ele>1851.2</ele>
        <time>2020-02-14T11:09:50.931Z</time>
      </trkpt>
      <trkpt lat="42.55631" lon="1.86633">
        <ele>1850.8</ele>
        <time>2020-02-14T11:09:52.119Z</time>
      </trkpt>
      <trkpt lat="42.55631" lon="1.8662">
        <ele>1849.3</ele>
        <time>2020-02-14T11:09:55.919Z</time>
      </trkpt>
      <trkpt lat="42.55631" lon="1.86617">
        <ele>1848.9</ele>
        <time>2020-02-14T11:09:56.792Z</time>
      </trkpt>
      <trkpt lat="42.55632" lon="1.8661">
        <ele>1847.8</ele>
        <time>2020-02-14T11:09:58.971Z</time>
      </trkpt>
      <trkpt lat="42.5563" lon="1.86603">
        <ele>1847.8</ele>
        <time>2020-02-14T11:10:01.016Z</time>
      </trkpt>
      <trkpt lat="42.55626" lon="1.86597">
        <ele>1846.9</ele>
        <time>2020-02-14T11:10:03.487Z</time>
      </trkpt>
      <trkpt lat="42.55617" lon="1.86572">
        <ele>1844.9</ele>
        <time>2020-02-14T11:10:11.212Z</time>
      </trkpt>
      <trkpt lat="42.55616" lon="1.86567">
        <ele>1844</ele>
        <time>2020-02-14T11:10:12.923Z</time>
      </trkpt>
      <trkpt lat="42.55613" lon="1.86545">
        <ele>1842.5</ele>
        <time>2020-02-14T11:10:19.341Z</time>
      </trkpt>
      <trkpt lat="42.55608" lon="1.86525">
        <ele>1840.2</ele>
        <time>2020-02-14T11:10:25.333Z</time>
      </trkpt>
      <trkpt lat="42.55607" lon="1.86521">
        <ele>1839.2</ele>
        <time>2020-02-14T11:10:26.741Z</time>
      </trkpt>
      <trkpt lat="42.55607" lon="1.86508">
        <ele>1839.1</ele>
        <time>2020-02-14T11:10:30.229Z</time>
      </trkpt>
      <trkpt lat="42.55603" lon="1.86491">
        <ele>1837.8</ele>
        <time>2020-02-14T11:10:35.529Z</time>
      </trkpt>
      <trkpt lat="42.556" lon="1.86481">
        <ele>1837.3</ele>
        <time>2020-02-14T11:10:38.673Z</time>
      </trkpt>
      <trkpt lat="42.55594" lon="1.86465">
        <ele>1835.8</ele>
        <time>2020-02-14T11:10:43.604Z</time>
      </trkpt>
      <trkpt lat="42.55592" lon="1.86461">
        <ele>1835.8</ele>
        <time>2020-02-14T11:10:45.015Z</time>
      </trkpt>
      <trkpt lat="42.55592" lon="1.86445">
        <ele>1834.8</ele>
        <time>2020-02-14T11:10:49.553Z</time>
      </trkpt>
      <trkpt lat="42.55597" lon="1.86432">
        <ele>1833.4</ele>
        <time>2020-02-14T11:10:53.773Z</time>
      </trkpt>
      <trkpt lat="42.55597" lon="1.86428">
        <ele>1831.9</ele>
        <time>2020-02-14T11:10:55.108Z</time>
      </trkpt>
      <trkpt lat="42.55597" lon="1.86425">
        <ele>1831.9</ele>
        <time>2020-02-14T11:10:55.905Z</time>
      </trkpt>
      <trkpt lat="42.55588" lon="1.86409">
        <ele>1831.5</ele>
        <time>2020-02-14T11:11:01.547Z</time>
      </trkpt>
      <trkpt lat="42.5558" lon="1.86408">
        <ele>1831</ele>
        <time>2020-02-14T11:11:04.710Z</time>
      </trkpt>
      <trkpt lat="42.55576" lon="1.86404">
        <ele>1830.5</ele>
        <time>2020-02-14T11:11:06.454Z</time>
      </trkpt>
      <trkpt lat="42.55565" lon="1.86383">
        <ele>1828.1</ele>
        <time>2020-02-14T11:11:13.878Z</time>
      </trkpt>
      <trkpt lat="42.55556" lon="1.86367">
        <ele>1826.6</ele>
        <time>2020-02-14T11:11:19.667Z</time>
      </trkpt>
      <trkpt lat="42.55553" lon="1.86359">
        <ele>1826.3</ele>
        <time>2020-02-14T11:11:22.287Z</time>
      </trkpt>
      <trkpt lat="42.5554" lon="1.86343">
        <ele>1822.8</ele>
        <time>2020-02-14T11:11:29.014Z</time>
      </trkpt>
      <trkpt lat="42.55539" lon="1.86343">
        <ele>1822.8</ele>
        <time>2020-02-14T11:11:29.391Z</time>
      </trkpt>
      <trkpt lat="42.55528" lon="1.86329">
        <ele>1820.4</ele>
        <time>2020-02-14T11:11:35.252Z</time>
      </trkpt>
      <trkpt lat="42.55524" lon="1.8632">
        <ele>1819.9</ele>
        <time>2020-02-14T11:11:38.223Z</time>
      </trkpt>
      <trkpt lat="42.55518" lon="1.86306">
        <ele>1819.4</ele>
        <time>2020-02-14T11:11:42.994Z</time>
      </trkpt>
      <trkpt lat="42.55508" lon="1.86287">
        <ele>1818.5</ele>
        <time>2020-02-14T11:11:49.666Z</time>
      </trkpt>
      <trkpt lat="42.55508" lon="1.86285">
        <ele>1818.6</ele>
        <time>2020-02-14T11:11:50.068Z</time>
      </trkpt>
      <trkpt lat="42.55506" lon="1.86283">
        <ele>1818.1</ele>
        <time>2020-02-14T11:11:50.893Z</time>
      </trkpt>
      <trkpt lat="42.55505" lon="1.86281">
        <ele>1818.1</ele>
        <time>2020-02-14T11:11:51.752Z</time>
      </trkpt>
      <trkpt lat="42.555" lon="1.86274">
        <ele>1817.1</ele>
        <time>2020-02-14T11:11:54.598Z</time>
      </trkpt>
      <trkpt lat="42.55498" lon="1.86268">
        <ele>1816.7</ele>
        <time>2020-02-14T11:11:56.510Z</time>
      </trkpt>
      <trkpt lat="42.55491" lon="1.86258">
        <ele>1815.6</ele>
        <time>2020-02-14T11:12:00.459Z</time>
      </trkpt>
      <trkpt lat="42.55488" lon="1.86252">
        <ele>1815.7</ele>
        <time>2020-02-14T11:12:02.407Z</time>
      </trkpt>
      <trkpt lat="42.5548" lon="1.86237">
        <ele>1814.2</ele>
        <time>2020-02-14T11:12:07.449Z</time>
      </trkpt>
      <trkpt lat="42.55476" lon="1.86221">
        <ele>1814.2</ele>
        <time>2020-02-14T11:12:12.313Z</time>
      </trkpt>
      <trkpt lat="42.55476" lon="1.86211">
        <ele>1812.7</ele>
        <time>2020-02-14T11:12:15.207Z</time>
      </trkpt>
      <trkpt lat="42.55475" lon="1.86206">
        <ele>1812.2</ele>
        <time>2020-02-14T11:12:16.672Z</time>
      </trkpt>
      <trkpt lat="42.55462" lon="1.8619">
        <ele>1810.3</ele>
        <time>2020-02-14T11:12:23.502Z</time>
      </trkpt>
      <trkpt lat="42.5546" lon="1.86185">
        <ele>1810.4</ele>
        <time>2020-02-14T11:12:24.994Z</time>
      </trkpt>
      <trkpt lat="42.55458" lon="1.86178">
        <ele>1809.3</ele>
        <time>2020-02-14T11:12:27.269Z</time>
      </trkpt>
      <trkpt lat="42.55456" lon="1.86172">
        <ele>1808.9</ele>
        <time>2020-02-14T11:12:29.298Z</time>
      </trkpt>
      <trkpt lat="42.55452" lon="1.86164">
        <ele>1809.4</ele>
        <time>2020-02-14T11:12:31.737Z</time>
      </trkpt>
      <trkpt lat="42.55451" lon="1.86152">
        <ele>1808.4</ele>
        <time>2020-02-14T11:12:35.290Z</time>
      </trkpt>
      <trkpt lat="42.55445" lon="1.86135">
        <ele>1808.5</ele>
        <time>2020-02-14T11:12:40.634Z</time>
      </trkpt>
      <trkpt lat="42.55445" lon="1.86128">
        <ele>1807.5</ele>
        <time>2020-02-14T11:12:42.690Z</time>
      </trkpt>
      <trkpt lat="42.55442" lon="1.86119">
        <ele>1808.4</ele>
        <time>2020-02-14T11:12:45.316Z</time>
      </trkpt>
      <trkpt lat="42.55439" lon="1.86106">
        <ele>1807.9</ele>
        <time>2020-02-14T11:12:49.409Z</time>
      </trkpt>
      <trkpt lat="42.55435" lon="1.86096">
        <ele>1807</ele>
        <time>2020-02-14T11:12:52.327Z</time>
      </trkpt>
      <trkpt lat="42.55435" lon="1.86091">
        <ele>1806.9</ele>
        <time>2020-02-14T11:12:54.012Z</time>
      </trkpt>
      <trkpt lat="42.55434" lon="1.86086">
        <ele>1806.6</ele>
        <time>2020-02-14T11:12:55.476Z</time>
      </trkpt>
      <trkpt lat="42.55433" lon="1.86082">
        <ele>1806.6</ele>
        <time>2020-02-14T11:12:56.502Z</time>
      </trkpt>
      <trkpt lat="42.55429" lon="1.86069">
        <ele>1803.1</ele>
        <time>2020-02-14T11:13:00.722Z</time>
      </trkpt>
      <trkpt lat="42.55424" lon="1.86052">
        <ele>1806.1</ele>
        <time>2020-02-14T11:13:06.161Z</time>
      </trkpt>
      <trkpt lat="42.55415" lon="1.86035">
        <ele>1805.6</ele>
        <time>2020-02-14T11:13:11.998Z</time>
      </trkpt>
      <trkpt lat="42.55415" lon="1.86031">
        <ele>1805.6</ele>
        <time>2020-02-14T11:13:13.083Z</time>
      </trkpt>
      <trkpt lat="42.55414" lon="1.86029">
        <ele>1805.5</ele>
        <time>2020-02-14T11:13:13.843Z</time>
      </trkpt>
      <trkpt lat="42.55411" lon="1.86009">
        <ele>1803.1</ele>
        <time>2020-02-14T11:13:19.620Z</time>
      </trkpt>
      <trkpt lat="42.55406" lon="1.86003">
        <ele>1802.1</ele>
        <time>2020-02-14T11:13:22.322Z</time>
      </trkpt>
      <trkpt lat="42.55405" lon="1.85996">
        <ele>1801.7</ele>
        <time>2020-02-14T11:13:24.174Z</time>
      </trkpt>
      <trkpt lat="42.55403" lon="1.85987">
        <ele>1799.7</ele>
        <time>2020-02-14T11:13:26.925Z</time>
      </trkpt>
      <trkpt lat="42.554" lon="1.85978">
        <ele>1799.3</ele>
        <time>2020-02-14T11:13:29.797Z</time>
      </trkpt>
      <trkpt lat="42.55394" lon="1.85961">
        <ele>1799.2</ele>
        <time>2020-02-14T11:13:35.141Z</time>
      </trkpt>
      <trkpt lat="42.55392" lon="1.85958">
        <ele>1798.4</ele>
        <time>2020-02-14T11:13:36.438Z</time>
      </trkpt>
      <trkpt lat="42.5539" lon="1.85951">
        <ele>1797.8</ele>
        <time>2020-02-14T11:13:38.399Z</time>
      </trkpt>
      <trkpt lat="42.55386" lon="1.85936">
        <ele>1797.4</ele>
        <time>2020-02-14T11:13:42.964Z</time>
      </trkpt>
      <trkpt lat="42.5538" lon="1.85922">
        <ele>1796</ele>
        <time>2020-02-14T11:13:47.583Z</time>
      </trkpt>
      <trkpt lat="42.5538" lon="1.85919">
        <ele>1795.9</ele>
        <time>2020-02-14T11:13:48.530Z</time>
      </trkpt>
      <trkpt lat="42.55374" lon="1.85906">
        <ele>1795.4</ele>
        <time>2020-02-14T11:13:52.712Z</time>
      </trkpt>
      <trkpt lat="42.55368" lon="1.8589">
        <ele>1794.4</ele>
        <time>2020-02-14T11:13:57.760Z</time>
      </trkpt>
      <trkpt lat="42.55365" lon="1.85882">
        <ele>1794</ele>
        <time>2020-02-14T11:14:00.454Z</time>
      </trkpt>
      <trkpt lat="42.55366" lon="1.85871">
        <ele>1795</ele>
        <time>2020-02-14T11:14:03.530Z</time>
      </trkpt>
      <trkpt lat="42.55362" lon="1.85856">
        <ele>1792.5</ele>
        <time>2020-02-14T11:14:08.312Z</time>
      </trkpt>
      <trkpt lat="42.55361" lon="1.85852">
        <ele>1792.1</ele>
        <time>2020-02-14T11:14:09.446Z</time>
      </trkpt>
      <trkpt lat="42.55359" lon="1.85845">
        <ele>1791.1</ele>
        <time>2020-02-14T11:14:11.637Z</time>
      </trkpt>
      <trkpt lat="42.55355" lon="1.85838">
        <ele>1791.1</ele>
        <time>2020-02-14T11:14:13.975Z</time>
      </trkpt>
      <trkpt lat="42.55353" lon="1.85828">
        <ele>1790.6</ele>
        <time>2020-02-14T11:14:16.905Z</time>
      </trkpt>
      <trkpt lat="42.55351" lon="1.85819">
        <ele>1789.7</ele>
        <time>2020-02-14T11:14:19.682Z</time>
      </trkpt>
      <trkpt lat="42.55351" lon="1.85813">
        <ele>1790.2</ele>
        <time>2020-02-14T11:14:21.546Z</time>
      </trkpt>
      <trkpt lat="42.55346" lon="1.858">
        <ele>1788.2</ele>
        <time>2020-02-14T11:14:25.392Z</time>
      </trkpt>
      <trkpt lat="42.55347" lon="1.8579">
        <ele>1788.2</ele>
        <time>2020-02-14T11:14:28.444Z</time>
      </trkpt>
      <trkpt lat="42.55349" lon="1.85785">
        <ele>1788.3</ele>
        <time>2020-02-14T11:14:29.930Z</time>
      </trkpt>
      <trkpt lat="42.55344" lon="1.85771">
        <ele>1785.9</ele>
        <time>2020-02-14T11:14:34.628Z</time>
      </trkpt>
      <trkpt lat="42.55341" lon="1.85755">
        <ele>1785.9</ele>
        <time>2020-02-14T11:14:39.123Z</time>
      </trkpt>
      <trkpt lat="42.55334" lon="1.85737">
        <ele>1784.9</ele>
        <time>2020-02-14T11:14:44.979Z</time>
      </trkpt>
      <trkpt lat="42.55333" lon="1.85731">
        <ele>1783.9</ele>
        <time>2020-02-14T11:14:46.878Z</time>
      </trkpt>
      <trkpt lat="42.55333" lon="1.85723">
        <ele>1784</ele>
        <time>2020-02-14T11:14:49.210Z</time>
      </trkpt>
      <trkpt lat="42.55333" lon="1.85715">
        <ele>1780</ele>
        <time>2020-02-14T11:14:51.722Z</time>
      </trkpt>
      <trkpt lat="42.55334" lon="1.85713">
        <ele>1784</ele>
        <time>2020-02-14T11:14:53.219Z</time>
      </trkpt>
      <trkpt lat="42.55336" lon="1.85701">
        <ele>1783</ele>
        <time>2020-02-14T11:14:56.930Z</time>
      </trkpt>
      <trkpt lat="42.55339" lon="1.85679">
        <ele>1780</ele>
        <time>2020-02-14T11:15:03.389Z</time>
      </trkpt>
      <trkpt lat="42.5534" lon="1.85674">
        <ele>1781.5</ele>
        <time>2020-02-14T11:15:04.834Z</time>
      </trkpt>
      <trkpt lat="42.55337" lon="1.85663">
        <ele>1779.6</ele>
        <time>2020-02-14T11:15:08.162Z</time>
      </trkpt>
      <trkpt lat="42.55336" lon="1.85658">
        <ele>1779.1</ele>
        <time>2020-02-14T11:15:09.812Z</time>
      </trkpt>
      <trkpt lat="42.55336" lon="1.85648">
        <ele>1778.2</ele>
        <time>2020-02-14T11:15:12.614Z</time>
      </trkpt>
      <trkpt lat="42.55337" lon="1.85645">
        <ele>1778.6</ele>
        <time>2020-02-14T11:15:13.655Z</time>
      </trkpt>
      <trkpt lat="42.55334" lon="1.85636">
        <ele>1778.1</ele>
        <time>2020-02-14T11:15:16.495Z</time>
      </trkpt>
      <trkpt lat="42.55331" lon="1.85629">
        <ele>1777.1</ele>
        <time>2020-02-14T11:15:18.622Z</time>
      </trkpt>
      <trkpt lat="42.55328" lon="1.85622">
        <ele>1776.8</ele>
        <time>2020-02-14T11:15:21.079Z</time>
      </trkpt>
      <trkpt lat="42.55324" lon="1.85607">
        <ele>1776.2</ele>
        <time>2020-02-14T11:15:25.685Z</time>
      </trkpt>
      <trkpt lat="42.55325" lon="1.85605">
        <ele>1775.2</ele>
        <time>2020-02-14T11:15:26.382Z</time>
      </trkpt>
      <trkpt lat="42.55323" lon="1.85593">
        <ele>1775.2</ele>
        <time>2020-02-14T11:15:29.577Z</time>
      </trkpt>
      <trkpt lat="42.55317" lon="1.85575">
        <ele>1774.7</ele>
        <time>2020-02-14T11:15:35.228Z</time>
      </trkpt>
      <trkpt lat="42.55317" lon="1.85557">
        <ele>1773.9</ele>
        <time>2020-02-14T11:15:40.387Z</time>
      </trkpt>
      <trkpt lat="42.55317" lon="1.8555">
        <ele>1773.4</ele>
        <time>2020-02-14T11:15:42.359Z</time>
      </trkpt>
      <trkpt lat="42.55318" lon="1.85536">
        <ele>1773.4</ele>
        <time>2020-02-14T11:15:46.360Z</time>
      </trkpt>
      <trkpt lat="42.55306" lon="1.8552">
        <ele>1771</ele>
        <time>2020-02-14T11:15:53.067Z</time>
      </trkpt>
      <trkpt lat="42.55298" lon="1.85501">
        <ele>1770.9</ele>
        <time>2020-02-14T11:15:59.328Z</time>
      </trkpt>
      <trkpt lat="42.55293" lon="1.85494">
        <ele>1769</ele>
        <time>2020-02-14T11:16:02.076Z</time>
      </trkpt>
      <trkpt lat="42.55291" lon="1.85488">
        <ele>1768.6</ele>
        <time>2020-02-14T11:16:04.053Z</time>
      </trkpt>
      <trkpt lat="42.5529" lon="1.85483">
        <ele>1769</ele>
        <time>2020-02-14T11:16:05.398Z</time>
      </trkpt>
      <trkpt lat="42.55276" lon="1.85467">
        <ele>1769</ele>
        <time>2020-02-14T11:16:12.738Z</time>
      </trkpt>
      <trkpt lat="42.55275" lon="1.85466">
        <ele>1769</ele>
        <time>2020-02-14T11:16:13.224Z</time>
      </trkpt>
      <trkpt lat="42.55272" lon="1.85446">
        <ele>1766.6</ele>
        <time>2020-02-14T11:16:19.018Z</time>
      </trkpt>
      <trkpt lat="42.55267" lon="1.85428">
        <ele>1765.2</ele>
        <time>2020-02-14T11:16:24.554Z</time>
      </trkpt>
      <trkpt lat="42.55263" lon="1.8542">
        <ele>1764.3</ele>
        <time>2020-02-14T11:16:27.367Z</time>
      </trkpt>
      <trkpt lat="42.55257" lon="1.85412">
        <ele>1763.8</ele>
        <time>2020-02-14T11:16:30.589Z</time>
      </trkpt>
      <trkpt lat="42.55255" lon="1.854">
        <ele>1763.2</ele>
        <time>2020-02-14T11:16:33.931Z</time>
      </trkpt>
      <trkpt lat="42.55255" lon="1.85395">
        <ele>1762.7</ele>
        <time>2020-02-14T11:16:35.352Z</time>
      </trkpt>
      <trkpt lat="42.55254" lon="1.85388">
        <ele>1762.3</ele>
        <time>2020-02-14T11:16:37.376Z</time>
      </trkpt>
      <trkpt lat="42.55253" lon="1.85374">
        <ele>1763.2</ele>
        <time>2020-02-14T11:16:41.355Z</time>
      </trkpt>
      <trkpt lat="42.55256" lon="1.85363">
        <ele>1762.8</ele>
        <time>2020-02-14T11:16:44.792Z</time>
      </trkpt>
      <trkpt lat="42.55252" lon="1.85347">
        <ele>1760.3</ele>
        <time>2020-02-14T11:16:49.831Z</time>
      </trkpt>
      <trkpt lat="42.55249" lon="1.85335">
        <ele>1759.4</ele>
        <time>2020-02-14T11:16:53.368Z</time>
      </trkpt>
      <trkpt lat="42.55248" lon="1.85331">
        <ele>1758.4</ele>
        <time>2020-02-14T11:16:54.741Z</time>
      </trkpt>
      <trkpt lat="42.55249" lon="1.85325">
        <ele>1758.4</ele>
        <time>2020-02-14T11:16:56.371Z</time>
      </trkpt>
      <trkpt lat="42.55251" lon="1.85305">
        <ele>1757.4</ele>
        <time>2020-02-14T11:17:02.108Z</time>
      </trkpt>
      <trkpt lat="42.55248" lon="1.85293">
        <ele>1756</ele>
        <time>2020-02-14T11:17:05.729Z</time>
      </trkpt>
      <trkpt lat="42.55242" lon="1.85283">
        <ele>1755.1</ele>
        <time>2020-02-14T11:17:09.337Z</time>
      </trkpt>
      <trkpt lat="42.55236" lon="1.85273">
        <ele>1755</ele>
        <time>2020-02-14T11:17:12.996Z</time>
      </trkpt>
      <trkpt lat="42.55234" lon="1.85269">
        <ele>1754.5</ele>
        <time>2020-02-14T11:17:14.368Z</time>
      </trkpt>
      <trkpt lat="42.55234" lon="1.85267">
        <ele>1754.6</ele>
        <time>2020-02-14T11:17:15.084Z</time>
      </trkpt>
      <trkpt lat="42.55226" lon="1.85247">
        <ele>1753.6</ele>
        <time>2020-02-14T11:17:21.516Z</time>
      </trkpt>
      <trkpt lat="42.55221" lon="1.85225">
        <ele>1752.7</ele>
        <time>2020-02-14T11:17:27.925Z</time>
      </trkpt>
      <trkpt lat="42.5522" lon="1.8522">
        <ele>1752.6</ele>
        <time>2020-02-14T11:17:29.461Z</time>
      </trkpt>
      <trkpt lat="42.55219" lon="1.85212">
        <ele>1751.7</ele>
        <time>2020-02-14T11:17:31.758Z</time>
      </trkpt>
      <trkpt lat="42.55219" lon="1.85205">
        <ele>1751.2</ele>
        <time>2020-02-14T11:17:33.969Z</time>
      </trkpt>
      <trkpt lat="42.55213" lon="1.85183">
        <ele>1749.3</ele>
        <time>2020-02-14T11:17:40.571Z</time>
      </trkpt>
      <trkpt lat="42.55212" lon="1.85178">
        <ele>1749.4</ele>
        <time>2020-02-14T11:17:42.109Z</time>
      </trkpt>
      <trkpt lat="42.55213" lon="1.85168">
        <ele>1749.8</ele>
        <time>2020-02-14T11:17:44.927Z</time>
      </trkpt>
      <trkpt lat="42.55218" lon="1.85155">
        <ele>1751.3</ele>
        <time>2020-02-14T11:17:49.131Z</time>
      </trkpt>
      <trkpt lat="42.55218" lon="1.85154">
        <ele>1751.2</ele>
        <time>2020-02-14T11:17:49.568Z</time>
      </trkpt>
      <trkpt lat="42.55218" lon="1.8514">
        <ele>1749.3</ele>
        <time>2020-02-14T11:17:53.433Z</time>
      </trkpt>
      <trkpt lat="42.55219" lon="1.85134">
        <ele>1747.9</ele>
        <time>2020-02-14T11:17:55.278Z</time>
      </trkpt>
      <trkpt lat="42.55219" lon="1.85131">
        <ele>1747.3</ele>
        <time>2020-02-14T11:17:56.322Z</time>
      </trkpt>
      <trkpt lat="42.55217" lon="1.85125">
        <ele>1745.9</ele>
        <time>2020-02-14T11:17:58.313Z</time>
      </trkpt>
      <trkpt lat="42.55212" lon="1.85112">
        <ele>1746.4</ele>
        <time>2020-02-14T11:18:02.281Z</time>
      </trkpt>
      <trkpt lat="42.55203" lon="1.85094">
        <ele>1745.5</ele>
        <time>2020-02-14T11:18:08.596Z</time>
      </trkpt>
      <trkpt lat="42.55203" lon="1.8509">
        <ele>1744.6</ele>
        <time>2020-02-14T11:18:09.906Z</time>
      </trkpt>
      <trkpt lat="42.55201" lon="1.85084">
        <ele>1745.4</ele>
        <time>2020-02-14T11:18:11.721Z</time>
      </trkpt>
      <trkpt lat="42.55194" lon="1.8506">
        <ele>1743.6</ele>
        <time>2020-02-14T11:18:19.126Z</time>
      </trkpt>
      <trkpt lat="42.55194" lon="1.85039">
        <ele>1741.6</ele>
        <time>2020-02-14T11:18:25.169Z</time>
      </trkpt>
      <trkpt lat="42.55189" lon="1.85031">
        <ele>1739.6</ele>
        <time>2020-02-14T11:18:28.139Z</time>
      </trkpt>
      <trkpt lat="42.55188" lon="1.85019">
        <ele>1737.2</ele>
        <time>2020-02-14T11:18:31.701Z</time>
      </trkpt>
      <trkpt lat="42.55189" lon="1.85017">
        <ele>1738.3</ele>
        <time>2020-02-14T11:18:32.490Z</time>
      </trkpt>
      <trkpt lat="42.55191" lon="1.8501">
        <ele>1738.2</ele>
        <time>2020-02-14T11:18:34.614Z</time>
      </trkpt>
      <trkpt lat="42.55187" lon="1.84988">
        <ele>1737.7</ele>
        <time>2020-02-14T11:18:41.035Z</time>
      </trkpt>
      <trkpt lat="42.55182" lon="1.84979">
        <ele>1743</ele>
        <time>2020-02-14T11:18:44.713Z</time>
      </trkpt>
      <trkpt lat="42.55181" lon="1.84976">
        <ele>1737.8</ele>
        <time>2020-02-14T11:18:46.709Z</time>
      </trkpt>
      <trkpt lat="42.55179" lon="1.84971">
        <ele>1736.9</ele>
        <time>2020-02-14T11:18:48.483Z</time>
      </trkpt>
      <trkpt lat="42.55178" lon="1.84966">
        <ele>1732.9</ele>
        <time>2020-02-14T11:18:50.460Z</time>
      </trkpt>
      <trkpt lat="42.55176" lon="1.84963">
        <ele>1736.9</ele>
        <time>2020-02-14T11:18:52.188Z</time>
      </trkpt>
      <trkpt lat="42.55175" lon="1.84958">
        <ele>1735.3</ele>
        <time>2020-02-14T11:18:53.734Z</time>
      </trkpt>
      <trkpt lat="42.5517" lon="1.84936">
        <ele>1734.4</ele>
        <time>2020-02-14T11:19:00.342Z</time>
      </trkpt>
      <trkpt lat="42.55168" lon="1.84932">
        <ele>1732.9</ele>
        <time>2020-02-14T11:19:01.820Z</time>
      </trkpt>
      <trkpt lat="42.5517" lon="1.84922">
        <ele>1733.5</ele>
        <time>2020-02-14T11:19:04.655Z</time>
      </trkpt>
      <trkpt lat="42.55164" lon="1.84901">
        <ele>1732.4</ele>
        <time>2020-02-14T11:19:11.032Z</time>
      </trkpt>
      <trkpt lat="42.55164" lon="1.84896">
        <ele>1732.4</ele>
        <time>2020-02-14T11:19:12.442Z</time>
      </trkpt>
      <trkpt lat="42.55161" lon="1.84891">
        <ele>1732</ele>
        <time>2020-02-14T11:19:14.279Z</time>
      </trkpt>
      <trkpt lat="42.55158" lon="1.84881">
        <ele>1729.6</ele>
        <time>2020-02-14T11:19:17.512Z</time>
      </trkpt>
      <trkpt lat="42.55152" lon="1.84861">
        <ele>1729.2</ele>
        <time>2020-02-14T11:19:23.477Z</time>
      </trkpt>
      <trkpt lat="42.5515" lon="1.84843">
        <ele>1726.3</ele>
        <time>2020-02-14T11:19:28.723Z</time>
      </trkpt>
      <trkpt lat="42.55149" lon="1.84841">
        <ele>1726.3</ele>
        <time>2020-02-14T11:19:29.458Z</time>
      </trkpt>
      <trkpt lat="42.55146" lon="1.84834">
        <ele>1726.2</ele>
        <time>2020-02-14T11:19:31.595Z</time>
      </trkpt>
      <trkpt lat="42.55144" lon="1.84824">
        <ele>1726.7</ele>
        <time>2020-02-14T11:19:34.785Z</time>
      </trkpt>
      <trkpt lat="42.55142" lon="1.84818">
        <ele>1726.8</ele>
        <time>2020-02-14T11:19:36.562Z</time>
      </trkpt>
      <trkpt lat="42.55138" lon="1.84809">
        <ele>1726.3</ele>
        <time>2020-02-14T11:19:39.393Z</time>
      </trkpt>
      <trkpt lat="42.55136" lon="1.84805">
        <ele>1726.2</ele>
        <time>2020-02-14T11:19:40.953Z</time>
      </trkpt>
      <trkpt lat="42.55136" lon="1.84801">
        <ele>1726.2</ele>
        <time>2020-02-14T11:19:41.976Z</time>
      </trkpt>
      <trkpt lat="42.55128" lon="1.84782">
        <ele>1724.7</ele>
        <time>2020-02-14T11:19:48.016Z</time>
      </trkpt>
      <trkpt lat="42.55128" lon="1.84779">
        <ele>1724.7</ele>
        <time>2020-02-14T11:19:49.061Z</time>
      </trkpt>
      <trkpt lat="42.55124" lon="1.84772">
        <ele>1723.3</ele>
        <time>2020-02-14T11:19:51.364Z</time>
      </trkpt>
      <trkpt lat="42.55122" lon="1.84758">
        <ele>1722.9</ele>
        <time>2020-02-14T11:19:55.592Z</time>
      </trkpt>
      <trkpt lat="42.55121" lon="1.84753">
        <ele>1722.9</ele>
        <time>2020-02-14T11:19:57.084Z</time>
      </trkpt>
      <trkpt lat="42.55116" lon="1.84746">
        <ele>1722.3</ele>
        <time>2020-02-14T11:19:59.618Z</time>
      </trkpt>
      <trkpt lat="42.55111" lon="1.84729">
        <ele>1721.5</ele>
        <time>2020-02-14T11:20:04.782Z</time>
      </trkpt>
      <trkpt lat="42.55111" lon="1.8472">
        <ele>1722.9</ele>
        <time>2020-02-14T11:20:07.481Z</time>
      </trkpt>
      <trkpt lat="42.55107" lon="1.84711">
        <ele>1722</ele>
        <time>2020-02-14T11:20:10.519Z</time>
      </trkpt>
      <trkpt lat="42.55103" lon="1.847">
        <ele>1720.4</ele>
        <time>2020-02-14T11:20:13.986Z</time>
      </trkpt>
      <trkpt lat="42.55097" lon="1.84694">
        <ele>1718.5</ele>
        <time>2020-02-14T11:20:16.904Z</time>
      </trkpt>
      <trkpt lat="42.55092" lon="1.84679">
        <ele>1717.5</ele>
        <time>2020-02-14T11:20:21.562Z</time>
      </trkpt>
      <trkpt lat="42.55091" lon="1.84673">
        <ele>1717.6</ele>
        <time>2020-02-14T11:20:23.118Z</time>
      </trkpt>
      <trkpt lat="42.55089" lon="1.84669">
        <ele>1717.5</ele>
        <time>2020-02-14T11:20:24.635Z</time>
      </trkpt>
      <trkpt lat="42.55087" lon="1.84664">
        <ele>1717.1</ele>
        <time>2020-02-14T11:20:26.284Z</time>
      </trkpt>
      <trkpt lat="42.55085" lon="1.8465">
        <ele>1719</ele>
        <time>2020-02-14T11:20:30.203Z</time>
      </trkpt>
      <trkpt lat="42.55083" lon="1.84647">
        <ele>1718.5</ele>
        <time>2020-02-14T11:20:31.530Z</time>
      </trkpt>
      <trkpt lat="42.55077" lon="1.84637">
        <ele>1717.6</ele>
        <time>2020-02-14T11:20:35.311Z</time>
      </trkpt>
      <trkpt lat="42.55073" lon="1.84629">
        <ele>1716.2</ele>
        <time>2020-02-14T11:20:38.121Z</time>
      </trkpt>
      <trkpt lat="42.5507" lon="1.84623">
        <ele>1715.1</ele>
        <time>2020-02-14T11:20:40.131Z</time>
      </trkpt>
      <trkpt lat="42.55069" lon="1.84613">
        <ele>1715.2</ele>
        <time>2020-02-14T11:20:43.104Z</time>
      </trkpt>
      <trkpt lat="42.55065" lon="1.84601">
        <ele>1714.7</ele>
        <time>2020-02-14T11:20:46.587Z</time>
      </trkpt>
      <trkpt lat="42.55063" lon="1.84596">
        <ele>1713.7</ele>
        <time>2020-02-14T11:20:48.290Z</time>
      </trkpt>
      <trkpt lat="42.55064" lon="1.84585">
        <ele>1713.7</ele>
        <time>2020-02-14T11:20:51.418Z</time>
      </trkpt>
      <trkpt lat="42.55064" lon="1.8458">
        <ele>1709.5</ele>
        <time>2020-02-14T11:20:53.531Z</time>
      </trkpt>
      <trkpt lat="42.55064" lon="1.84578">
        <ele>1718.5</ele>
        <time>2020-02-14T11:20:56.704Z</time>
      </trkpt>
      <trkpt lat="42.55064" lon="1.84576">
        <ele>1713.8</ele>
        <time>2020-02-14T11:20:58.454Z</time>
      </trkpt>
      <trkpt lat="42.55064" lon="1.8457">
        <ele>1713.8</ele>
        <time>2020-02-14T11:21:00.165Z</time>
      </trkpt>
      <trkpt lat="42.55063" lon="1.84564">
        <ele>1713.3</ele>
        <time>2020-02-14T11:21:01.785Z</time>
      </trkpt>
      <trkpt lat="42.55062" lon="1.84562">
        <ele>1713.7</ele>
        <time>2020-02-14T11:21:02.645Z</time>
      </trkpt>
      <trkpt lat="42.55061" lon="1.84559">
        <ele>1711.8</ele>
        <time>2020-02-14T11:21:03.797Z</time>
      </trkpt>
      <trkpt lat="42.55062" lon="1.84547">
        <ele>1710.9</ele>
        <time>2020-02-14T11:21:07.264Z</time>
      </trkpt>
      <trkpt lat="42.55062" lon="1.84538">
        <ele>1710.3</ele>
        <time>2020-02-14T11:21:09.659Z</time>
      </trkpt>
      <trkpt lat="42.55062" lon="1.84533">
        <ele>1710.3</ele>
        <time>2020-02-14T11:21:11.167Z</time>
      </trkpt>
      <trkpt lat="42.55063" lon="1.84525">
        <ele>1709.9</ele>
        <time>2020-02-14T11:21:13.587Z</time>
      </trkpt>
      <trkpt lat="42.55064" lon="1.84513">
        <ele>1709.9</ele>
        <time>2020-02-14T11:21:16.831Z</time>
      </trkpt>
      <trkpt lat="42.55063" lon="1.84505">
        <ele>1708.9</ele>
        <time>2020-02-14T11:21:19.321Z</time>
      </trkpt>
      <trkpt lat="42.55063" lon="1.84494">
        <ele>1707.9</ele>
        <time>2020-02-14T11:21:22.391Z</time>
      </trkpt>
      <trkpt lat="42.55062" lon="1.84485">
        <ele>1707.1</ele>
        <time>2020-02-14T11:21:25.164Z</time>
      </trkpt>
      <trkpt lat="42.55062" lon="1.8448">
        <ele>1706.6</ele>
        <time>2020-02-14T11:21:26.512Z</time>
      </trkpt>
      <trkpt lat="42.5506" lon="1.84475">
        <ele>1706.1</ele>
        <time>2020-02-14T11:21:28.177Z</time>
      </trkpt>
      <trkpt lat="42.55058" lon="1.84468">
        <ele>1706</ele>
        <time>2020-02-14T11:21:30.192Z</time>
      </trkpt>
      <trkpt lat="42.55056" lon="1.84457">
        <ele>1706.6</ele>
        <time>2020-02-14T11:21:33.353Z</time>
      </trkpt>
      <trkpt lat="42.55052" lon="1.84435">
        <ele>1705.5</ele>
        <time>2020-02-14T11:21:39.925Z</time>
      </trkpt>
      <trkpt lat="42.55048" lon="1.84418">
        <ele>1704.6</ele>
        <time>2020-02-14T11:21:44.973Z</time>
      </trkpt>
      <trkpt lat="42.55047" lon="1.84409">
        <ele>1703.7</ele>
        <time>2020-02-14T11:21:47.645Z</time>
      </trkpt>
      <trkpt lat="42.55049" lon="1.84401">
        <ele>1703.7</ele>
        <time>2020-02-14T11:21:50.075Z</time>
      </trkpt>
      <trkpt lat="42.55048" lon="1.84396">
        <ele>1703.1</ele>
        <time>2020-02-14T11:21:51.472Z</time>
      </trkpt>
      <trkpt lat="42.55046" lon="1.84389">
        <ele>1701.7</ele>
        <time>2020-02-14T11:21:53.663Z</time>
      </trkpt>
      <trkpt lat="42.55043" lon="1.84375">
        <ele>1699.8</ele>
        <time>2020-02-14T11:21:57.984Z</time>
      </trkpt>
      <trkpt lat="42.55042" lon="1.84357">
        <ele>1699.9</ele>
        <time>2020-02-14T11:22:02.973Z</time>
      </trkpt>
      <trkpt lat="42.55041" lon="1.84338">
        <ele>1699.3</ele>
        <time>2020-02-14T11:22:08.327Z</time>
      </trkpt>
      <trkpt lat="42.55042" lon="1.84327">
        <ele>1698.9</ele>
        <time>2020-02-14T11:22:11.490Z</time>
      </trkpt>
      <trkpt lat="42.55042" lon="1.84314">
        <ele>1697.9</ele>
        <time>2020-02-14T11:22:15.149Z</time>
      </trkpt>
      <trkpt lat="42.55041" lon="1.84297">
        <ele>1696.4</ele>
        <time>2020-02-14T11:22:20.216Z</time>
      </trkpt>
      <trkpt lat="42.55039" lon="1.84283">
        <ele>1695.4</ele>
        <time>2020-02-14T11:22:24.116Z</time>
      </trkpt>
      <trkpt lat="42.55037" lon="1.84274">
        <ele>1695.9</ele>
        <time>2020-02-14T11:22:26.867Z</time>
      </trkpt>
      <trkpt lat="42.55037" lon="1.84269">
        <ele>1695.5</ele>
        <time>2020-02-14T11:22:28.359Z</time>
      </trkpt>
      <trkpt lat="42.55034" lon="1.84262">
        <ele>1695</ele>
        <time>2020-02-14T11:22:30.572Z</time>
      </trkpt>
      <trkpt lat="42.55029" lon="1.84246">
        <ele>1693.1</ele>
        <time>2020-02-14T11:22:35.766Z</time>
      </trkpt>
      <trkpt lat="42.55024" lon="1.84241">
        <ele>1692.1</ele>
        <time>2020-02-14T11:22:38.295Z</time>
      </trkpt>
      <trkpt lat="42.55018" lon="1.84227">
        <ele>1690.1</ele>
        <time>2020-02-14T11:22:42.889Z</time>
      </trkpt>
      <trkpt lat="42.55016" lon="1.84225">
        <ele>1690.1</ele>
        <time>2020-02-14T11:22:43.581Z</time>
      </trkpt>
      <trkpt lat="42.55011" lon="1.84223">
        <ele>1689.3</ele>
        <time>2020-02-14T11:22:45.667Z</time>
      </trkpt>
      <trkpt lat="42.55009" lon="1.84227">
        <ele>1689.2</ele>
        <time>2020-02-14T11:22:46.972Z</time>
      </trkpt>
      <trkpt lat="42.55008" lon="1.84232">
        <ele>1686.8</ele>
        <time>2020-02-14T11:22:48.648Z</time>
      </trkpt>
      <trkpt lat="42.55009" lon="1.84248">
        <ele>1684.9</ele>
        <time>2020-02-14T11:22:53.289Z</time>
      </trkpt>
      <trkpt lat="42.55006" lon="1.84256">
        <ele>1682.5</ele>
        <time>2020-02-14T11:22:55.972Z</time>
      </trkpt>
      <trkpt lat="42.55002" lon="1.84263">
        <ele>1680</ele>
        <time>2020-02-14T11:22:58.798Z</time>
      </trkpt>
      <trkpt lat="42.55001" lon="1.84267">
        <ele>1677.3</ele>
        <time>2020-02-14T11:23:00.314Z</time>
      </trkpt>
      <trkpt lat="42.55" lon="1.84264">
        <ele>1677.2</ele>
        <time>2020-02-14T11:23:01.215Z</time>
      </trkpt>
      <trkpt lat="42.54995" lon="1.8425">
        <ele>1675.2</ele>
        <time>2020-02-14T11:23:05.780Z</time>
      </trkpt>
      <trkpt lat="42.54992" lon="1.84239">
        <ele>1674.4</ele>
        <time>2020-02-14T11:23:08.986Z</time>
      </trkpt>
      <trkpt lat="42.54991" lon="1.84237">
        <ele>1674.4</ele>
        <time>2020-02-14T11:23:09.762Z</time>
      </trkpt>
      <trkpt lat="42.5499" lon="1.84229">
        <ele>1674.4</ele>
        <time>2020-02-14T11:23:12.119Z</time>
      </trkpt>
      <trkpt lat="42.54981" lon="1.84216">
        <ele>1673.9</ele>
        <time>2020-02-14T11:23:17.088Z</time>
      </trkpt>
      <trkpt lat="42.54974" lon="1.84213">
        <ele>1673.3</ele>
        <time>2020-02-14T11:23:19.871Z</time>
      </trkpt>
      <trkpt lat="42.54965" lon="1.84205">
        <ele>1670.9</ele>
        <time>2020-02-14T11:23:24.130Z</time>
      </trkpt>
      <trkpt lat="42.54966" lon="1.84215">
        <ele>1667.5</ele>
        <time>2020-02-14T11:23:27.206Z</time>
      </trkpt>
      <trkpt lat="42.54966" lon="1.84217">
        <ele>1667.2</ele>
        <time>2020-02-14T11:23:27.862Z</time>
      </trkpt>
      <trkpt lat="42.5497" lon="1.84229">
        <ele>1667.1</ele>
        <time>2020-02-14T11:23:31.681Z</time>
      </trkpt>
      <trkpt lat="42.54973" lon="1.84234">
        <ele>1666.2</ele>
        <time>2020-02-14T11:23:33.341Z</time>
      </trkpt>
      <trkpt lat="42.54972" lon="1.84239">
        <ele>1663.8</ele>
        <time>2020-02-14T11:23:35.113Z</time>
      </trkpt>
      <trkpt lat="42.5497" lon="1.84241">
        <ele>1662.8</ele>
        <time>2020-02-14T11:23:36.409Z</time>
      </trkpt>
      <trkpt lat="42.54966" lon="1.84242">
        <ele>1662.3</ele>
        <time>2020-02-14T11:23:37.765Z</time>
      </trkpt>
      <trkpt lat="42.54962" lon="1.84232">
        <ele>1661.8</ele>
        <time>2020-02-14T11:23:41.010Z</time>
      </trkpt>
      <trkpt lat="42.54955" lon="1.84215">
        <ele>1665.6</ele>
        <time>2020-02-14T11:23:46.472Z</time>
      </trkpt>
      <trkpt lat="42.54951" lon="1.84203">
        <ele>1663.7</ele>
        <time>2020-02-14T11:23:50.327Z</time>
      </trkpt>
      <trkpt lat="42.54948" lon="1.84191">
        <ele>1661.8</ele>
        <time>2020-02-14T11:23:54.149Z</time>
      </trkpt>
      <trkpt lat="42.54947" lon="1.84188">
        <ele>1661.9</ele>
        <time>2020-02-14T11:23:55.071Z</time>
      </trkpt>
      <trkpt lat="42.54947" lon="1.84179">
        <ele>1661.3</ele>
        <time>2020-02-14T11:23:57.754Z</time>
      </trkpt>
      <trkpt lat="42.54945" lon="1.84167">
        <ele>1661.3</ele>
        <time>2020-02-14T11:24:01.142Z</time>
      </trkpt>
      <trkpt lat="42.54944" lon="1.84161">
        <ele>1661.4</ele>
        <time>2020-02-14T11:24:02.742Z</time>
      </trkpt>
      <trkpt lat="42.54941" lon="1.8414">
        <ele>1660.9</ele>
        <time>2020-02-14T11:24:09.029Z</time>
      </trkpt>
      <trkpt lat="42.54938" lon="1.84117">
        <ele>1660.3</ele>
        <time>2020-02-14T11:24:15.634Z</time>
      </trkpt>
      <trkpt lat="42.54934" lon="1.84095">
        <ele>1658.5</ele>
        <time>2020-02-14T11:24:21.981Z</time>
      </trkpt>
      <trkpt lat="42.54928" lon="1.84069">
        <ele>1657.6</ele>
        <time>2020-02-14T11:24:29.934Z</time>
      </trkpt>
      <trkpt lat="42.54926" lon="1.84062">
        <ele>1657.1</ele>
        <time>2020-02-14T11:24:32.028Z</time>
      </trkpt>
      <trkpt lat="42.54917" lon="1.84031">
        <ele>1655.1</ele>
        <time>2020-02-14T11:24:41.473Z</time>
      </trkpt>
      <trkpt lat="42.54914" lon="1.84002">
        <ele>1654.1</ele>
        <time>2020-02-14T11:24:49.698Z</time>
      </trkpt>
      <trkpt lat="42.54914" lon="1.83995">
        <ele>1653.6</ele>
        <time>2020-02-14T11:24:51.900Z</time>
      </trkpt>
      <trkpt lat="42.54917" lon="1.83963">
        <ele>1652.3</ele>
        <time>2020-02-14T11:25:01.011Z</time>
      </trkpt>
      <trkpt lat="42.54917" lon="1.83952">
        <ele>1651.8</ele>
        <time>2020-02-14T11:25:04.036Z</time>
      </trkpt>
      <trkpt lat="42.54919" lon="1.83928">
        <ele>1651.3</ele>
        <time>2020-02-14T11:25:11.091Z</time>
      </trkpt>
      <trkpt lat="42.54921" lon="1.83906">
        <ele>1649.9</ele>
        <time>2020-02-14T11:25:17.159Z</time>
      </trkpt>
      <trkpt lat="42.54919" lon="1.83876">
        <ele>1649.9</ele>
        <time>2020-02-14T11:25:25.898Z</time>
      </trkpt>
      <trkpt lat="42.54917" lon="1.83855">
        <ele>1648.4</ele>
        <time>2020-02-14T11:25:31.838Z</time>
      </trkpt>
      <trkpt lat="42.54916" lon="1.83829">
        <ele>1647.5</ele>
        <time>2020-02-14T11:25:39.279Z</time>
      </trkpt>
      <trkpt lat="42.54914" lon="1.83822">
        <ele>1646.9</ele>
        <time>2020-02-14T11:25:41.489Z</time>
      </trkpt>
      <trkpt lat="42.54912" lon="1.83803">
        <ele>1646.9</ele>
        <time>2020-02-14T11:25:46.923Z</time>
      </trkpt>
      <trkpt lat="42.54912" lon="1.83788">
        <ele>1645.4</ele>
        <time>2020-02-14T11:25:51.252Z</time>
      </trkpt>
      <trkpt lat="42.54912" lon="1.83783">
        <ele>1646</ele>
        <time>2020-02-14T11:25:52.575Z</time>
      </trkpt>
      <trkpt lat="42.5491" lon="1.83755">
        <ele>1644.5</ele>
        <time>2020-02-14T11:26:00.724Z</time>
      </trkpt>
      <trkpt lat="42.54909" lon="1.8374">
        <ele>1643.6</ele>
        <time>2020-02-14T11:26:04.765Z</time>
      </trkpt>
      <trkpt lat="42.54907" lon="1.83719">
        <ele>1643.1</ele>
        <time>2020-02-14T11:26:10.977Z</time>
      </trkpt>
      <trkpt lat="42.54909" lon="1.83708">
        <ele>1642.6</ele>
        <time>2020-02-14T11:26:14.055Z</time>
      </trkpt>
      <trkpt lat="42.54907" lon="1.83685">
        <ele>1640.6</ele>
        <time>2020-02-14T11:26:20.799Z</time>
      </trkpt>
      <trkpt lat="42.54906" lon="1.83649">
        <ele>1640.2</ele>
        <time>2020-02-14T11:26:31.049Z</time>
      </trkpt>
      <trkpt lat="42.54904" lon="1.83628">
        <ele>1638.8</ele>
        <time>2020-02-14T11:26:37.149Z</time>
      </trkpt>
      <trkpt lat="42.54903" lon="1.83609">
        <ele>1639.8</ele>
        <time>2020-02-14T11:26:42.349Z</time>
      </trkpt>
      <trkpt lat="42.54904" lon="1.83605">
        <ele>1639.2</ele>
        <time>2020-02-14T11:26:43.551Z</time>
      </trkpt>
      <trkpt lat="42.54904" lon="1.83601">
        <ele>1639.7</ele>
        <time>2020-02-14T11:26:44.755Z</time>
      </trkpt>
      <trkpt lat="42.54905" lon="1.8357">
        <ele>1639.3</ele>
        <time>2020-02-14T11:26:53.549Z</time>
      </trkpt>
      <trkpt lat="42.54906" lon="1.83552">
        <ele>1639.3</ele>
        <time>2020-02-14T11:26:58.670Z</time>
      </trkpt>
      <trkpt lat="42.54903" lon="1.83526">
        <ele>1638.7</ele>
        <time>2020-02-14T11:27:06.371Z</time>
      </trkpt>
      <trkpt lat="42.549" lon="1.83499">
        <ele>1637.8</ele>
        <time>2020-02-14T11:27:14.191Z</time>
      </trkpt>
      <trkpt lat="42.54896" lon="1.83478">
        <ele>1637.7</ele>
        <time>2020-02-14T11:27:20.115Z</time>
      </trkpt>
      <trkpt lat="42.54893" lon="1.8345">
        <ele>1636.3</ele>
        <time>2020-02-14T11:27:28.339Z</time>
      </trkpt>
      <trkpt lat="42.54889" lon="1.83426">
        <ele>1635.4</ele>
        <time>2020-02-14T11:27:35.283Z</time>
      </trkpt>
      <trkpt lat="42.54879" lon="1.834">
        <ele>1634.9</ele>
        <time>2020-02-14T11:27:43.768Z</time>
      </trkpt>
      <trkpt lat="42.54869" lon="1.8339">
        <ele>1634.9</ele>
        <time>2020-02-14T11:27:48.335Z</time>
      </trkpt>
      <trkpt lat="42.5486" lon="1.83379">
        <ele>1631</ele>
        <time>2020-02-14T11:27:53.215Z</time>
      </trkpt>
      <trkpt lat="42.54859" lon="1.83378">
        <ele>1635.8</ele>
        <time>2020-02-14T11:27:54.973Z</time>
      </trkpt>
      <trkpt lat="42.54857" lon="1.83377">
        <ele>1634</ele>
        <time>2020-02-14T11:27:55.903Z</time>
      </trkpt>
      <trkpt lat="42.54843" lon="1.83367">
        <ele>1632.1</ele>
        <time>2020-02-14T11:28:02.147Z</time>
      </trkpt>
      <trkpt lat="42.54834" lon="1.83357">
        <ele>1631.6</ele>
        <time>2020-02-14T11:28:06.645Z</time>
      </trkpt>
      <trkpt lat="42.54814" lon="1.83353">
        <ele>1630.2</ele>
        <time>2020-02-14T11:28:14.378Z</time>
      </trkpt>
      <trkpt lat="42.54809" lon="1.83353">
        <ele>1630.2</ele>
        <time>2020-02-14T11:28:16.239Z</time>
      </trkpt>
      <trkpt lat="42.54786" lon="1.8335">
        <ele>1627.7</ele>
        <time>2020-02-14T11:28:25.288Z</time>
      </trkpt>
      <trkpt lat="42.5477" lon="1.83336">
        <ele>1627.3</ele>
        <time>2020-02-14T11:28:32.600Z</time>
      </trkpt>
      <trkpt lat="42.54765" lon="1.8331">
        <ele>1625.3</ele>
        <time>2020-02-14T11:28:40.198Z</time>
      </trkpt>
      <trkpt lat="42.54768" lon="1.83293">
        <ele>1624.3</ele>
        <time>2020-02-14T11:28:45.118Z</time>
      </trkpt>
      <trkpt lat="42.54776" lon="1.83283">
        <ele>1624.3</ele>
        <time>2020-02-14T11:28:49.439Z</time>
      </trkpt>
      <trkpt lat="42.54794" lon="1.83271">
        <ele>1622.8</ele>
        <time>2020-02-14T11:28:57.306Z</time>
      </trkpt>
      <trkpt lat="42.54801" lon="1.83263">
        <ele>1622.9</ele>
        <time>2020-02-14T11:29:00.696Z</time>
      </trkpt>
      <trkpt lat="42.54809" lon="1.83247">
        <ele>1622.8</ele>
        <time>2020-02-14T11:29:06.170Z</time>
      </trkpt>
      <trkpt lat="42.54813" lon="1.83246">
        <ele>1622.8</ele>
        <time>2020-02-14T11:29:07.521Z</time>
      </trkpt>
      <trkpt lat="42.54822" lon="1.83245">
        <ele>1623.8</ele>
        <time>2020-02-14T11:29:11.071Z</time>
      </trkpt>
      <trkpt lat="42.54822" lon="1.83245">
        <ele>1617.7</ele>
        <time>2020-02-14T11:29:13.209Z</time>
      </trkpt>
      <trkpt lat="42.54822" lon="1.83245">
        <ele>1624.3</ele>
        <time>2020-02-14T11:29:15.531Z</time>
      </trkpt>
      <trkpt lat="42.54822" lon="1.83245">
        <ele>1623.4</ele>
        <time>2020-02-14T11:29:15.921Z</time>
      </trkpt>
      <trkpt lat="42.54823" lon="1.83246">
        <ele>1623.9</ele>
        <time>2020-02-14T11:29:16.388Z</time>
      </trkpt>
      <trkpt lat="42.54823" lon="1.83246">
        <ele>1618.5</ele>
        <time>2020-02-14T11:29:18.249Z</time>
      </trkpt>
      <trkpt lat="42.54823" lon="1.83246">
        <ele>1613.7</ele>
        <time>2020-02-14T11:29:19.911Z</time>
      </trkpt>
      <trkpt lat="42.54823" lon="1.83246">
        <ele>1625.7</ele>
        <time>2020-02-14T11:29:24.075Z</time>
      </trkpt>
      <trkpt lat="42.55011" lon="1.8226">
        <ele>1689.7</ele>
        <time>2020-02-14T13:51:27.000Z</time>
      </trkpt>
      <trkpt lat="42.55007" lon="1.82249">
        <ele>1687.8</ele>
        <time>2020-02-14T13:51:31.371Z</time>
      </trkpt>
      <trkpt lat="42.55007" lon="1.82238">
        <ele>1686.4</ele>
        <time>2020-02-14T13:51:35.382Z</time>
      </trkpt>
      <trkpt lat="42.55007" lon="1.8223">
        <ele>1685.9</ele>
        <time>2020-02-14T13:51:38.404Z</time>
      </trkpt>
      <trkpt lat="42.55009" lon="1.82221">
        <ele>1685</ele>
        <time>2020-02-14T13:51:41.771Z</time>
      </trkpt>
      <trkpt lat="42.55009" lon="1.82216">
        <ele>1683.9</ele>
        <time>2020-02-14T13:51:43.581Z</time>
      </trkpt>
      <trkpt lat="42.5501" lon="1.82201">
        <ele>1682.4</ele>
        <time>2020-02-14T13:51:49.268Z</time>
      </trkpt>
      <trkpt lat="42.55011" lon="1.82181">
        <ele>1681</ele>
        <time>2020-02-14T13:51:56.487Z</time>
      </trkpt>
      <trkpt lat="42.5501" lon="1.82157">
        <ele>1680</ele>
        <time>2020-02-14T13:52:05.361Z</time>
      </trkpt>
      <trkpt lat="42.55001" lon="1.82151">
        <ele>1680.5</ele>
        <time>2020-02-14T13:52:10.227Z</time>
      </trkpt>
      <trkpt lat="42.54994" lon="1.8215">
        <ele>1679.2</ele>
        <time>2020-02-14T13:52:13.626Z</time>
      </trkpt>
      <trkpt lat="42.54991" lon="1.82148">
        <ele>1679.6</ele>
        <time>2020-02-14T13:52:15.166Z</time>
      </trkpt>
      <trkpt lat="42.54979" lon="1.82149">
        <ele>1679.2</ele>
        <time>2020-02-14T13:52:21.237Z</time>
      </trkpt>
      <trkpt lat="42.54975" lon="1.82151">
        <ele>1678.7</ele>
        <time>2020-02-14T13:52:23.510Z</time>
      </trkpt>
      <trkpt lat="42.54965" lon="1.8215">
        <ele>1678.2</ele>
        <time>2020-02-14T13:52:28.404Z</time>
      </trkpt>
      <trkpt lat="42.54959" lon="1.82151">
        <ele>1677.6</ele>
        <time>2020-02-14T13:52:31.623Z</time>
      </trkpt>
      <trkpt lat="42.54955" lon="1.82153">
        <ele>1677.6</ele>
        <time>2020-02-14T13:52:33.544Z</time>
      </trkpt>
      <trkpt lat="42.5495" lon="1.82154">
        <ele>1677.2</ele>
        <time>2020-02-14T13:52:35.842Z</time>
      </trkpt>
      <trkpt lat="42.54936" lon="1.82146">
        <ele>1677.2</ele>
        <time>2020-02-14T13:52:43.425Z</time>
      </trkpt>
      <trkpt lat="42.54917" lon="1.82144">
        <ele>1674.3</ele>
        <time>2020-02-14T13:52:52.956Z</time>
      </trkpt>
      <trkpt lat="42.54903" lon="1.82143">
        <ele>1672.5</ele>
        <time>2020-02-14T13:52:59.729Z</time>
      </trkpt>
      <trkpt lat="42.54899" lon="1.82139">
        <ele>1672</ele>
        <time>2020-02-14T13:53:02.280Z</time>
      </trkpt>
      <trkpt lat="42.54889" lon="1.82138">
        <ele>1670.9</ele>
        <time>2020-02-14T13:53:07.444Z</time>
      </trkpt>
      <trkpt lat="42.54869" lon="1.8214">
        <ele>1671.5</ele>
        <time>2020-02-14T13:53:17.325Z</time>
      </trkpt>
      <trkpt lat="42.54851" lon="1.82132">
        <ele>1671.9</ele>
        <time>2020-02-14T13:53:26.490Z</time>
      </trkpt>
      <trkpt lat="42.54829" lon="1.8213">
        <ele>1672.5</ele>
        <time>2020-02-14T13:53:37.115Z</time>
      </trkpt>
      <trkpt lat="42.54807" lon="1.82129">
        <ele>1671.9</ele>
        <time>2020-02-14T13:53:47.864Z</time>
      </trkpt>
      <trkpt lat="42.548" lon="1.8213">
        <ele>1671.9</ele>
        <time>2020-02-14T13:53:51.384Z</time>
      </trkpt>
      <trkpt lat="42.54789" lon="1.82127">
        <ele>1672.4</ele>
        <time>2020-02-14T13:53:56.901Z</time>
      </trkpt>
      <trkpt lat="42.54782" lon="1.82125">
        <ele>1672.4</ele>
        <time>2020-02-14T13:54:00.511Z</time>
      </trkpt>
      <trkpt lat="42.54779" lon="1.82124">
        <ele>1672.4</ele>
        <time>2020-02-14T13:54:02.058Z</time>
      </trkpt>
      <trkpt lat="42.54769" lon="1.82123">
        <ele>1671.5</ele>
        <time>2020-02-14T13:54:07.170Z</time>
      </trkpt>
      <trkpt lat="42.54765" lon="1.82122">
        <ele>1671.4</ele>
        <time>2020-02-14T13:54:09.163Z</time>
      </trkpt>
      <trkpt lat="42.54751" lon="1.82121">
        <ele>1672</ele>
        <time>2020-02-14T13:54:16.082Z</time>
      </trkpt>
      <trkpt lat="42.54744" lon="1.82121">
        <ele>1672</ele>
        <time>2020-02-14T13:54:19.525Z</time>
      </trkpt>
      <trkpt lat="42.54738" lon="1.8212">
        <ele>1672</ele>
        <time>2020-02-14T13:54:22.346Z</time>
      </trkpt>
      <trkpt lat="42.54721" lon="1.82112">
        <ele>1672</ele>
        <time>2020-02-14T13:54:31.376Z</time>
      </trkpt>
      <trkpt lat="42.54705" lon="1.82105">
        <ele>1671.4</ele>
        <time>2020-02-14T13:54:39.453Z</time>
      </trkpt>
      <trkpt lat="42.54691" lon="1.82108">
        <ele>1671.5</ele>
        <time>2020-02-14T13:54:46.434Z</time>
      </trkpt>
      <trkpt lat="42.54675" lon="1.82115">
        <ele>1672</ele>
        <time>2020-02-14T13:54:55.024Z</time>
      </trkpt>
      <trkpt lat="42.54659" lon="1.82119">
        <ele>1672.5</ele>
        <time>2020-02-14T13:55:02.922Z</time>
      </trkpt>
      <trkpt lat="42.5463" lon="1.82127">
        <ele>1672.4</ele>
        <time>2020-02-14T13:55:17.666Z</time>
      </trkpt>
      <trkpt lat="42.54626" lon="1.82127">
        <ele>1672.4</ele>
        <time>2020-02-14T13:55:19.247Z</time>
      </trkpt>
      <trkpt lat="42.54611" lon="1.82135">
        <ele>1672.4</ele>
        <time>2020-02-14T13:55:27.201Z</time>
      </trkpt>
      <trkpt lat="42.54592" lon="1.82135">
        <ele>1672.5</ele>
        <time>2020-02-14T13:55:36.808Z</time>
      </trkpt>
      <trkpt lat="42.5457" lon="1.82138">
        <ele>1671.5</ele>
        <time>2020-02-14T13:55:47.870Z</time>
      </trkpt>
      <trkpt lat="42.54564" lon="1.8214">
        <ele>1671.4</ele>
        <time>2020-02-14T13:55:50.714Z</time>
      </trkpt>
      <trkpt lat="42.54561" lon="1.82142">
        <ele>1671.5</ele>
        <time>2020-02-14T13:55:52.490Z</time>
      </trkpt>
      <trkpt lat="42.54544" lon="1.82146">
        <ele>1670.9</ele>
        <time>2020-02-14T13:56:00.942Z</time>
      </trkpt>
      <trkpt lat="42.54539" lon="1.82148">
        <ele>1670.9</ele>
        <time>2020-02-14T13:56:03.558Z</time>
      </trkpt>
      <trkpt lat="42.54524" lon="1.82154">
        <ele>1670.5</ele>
        <time>2020-02-14T13:56:11.234Z</time>
      </trkpt>
      <trkpt lat="42.54511" lon="1.82153">
        <ele>1669</ele>
        <time>2020-02-14T13:56:17.274Z</time>
      </trkpt>
      <trkpt lat="42.54507" lon="1.82155">
        <ele>1668.6</ele>
        <time>2020-02-14T13:56:19.478Z</time>
      </trkpt>
      <trkpt lat="42.54489" lon="1.82154">
        <ele>1666.1</ele>
        <time>2020-02-14T13:56:28.709Z</time>
      </trkpt>
      <trkpt lat="42.54474" lon="1.8215">
        <ele>1664.2</ele>
        <time>2020-02-14T13:56:35.991Z</time>
      </trkpt>
      <trkpt lat="42.54464" lon="1.82145">
        <ele>1662.4</ele>
        <time>2020-02-14T13:56:41.653Z</time>
      </trkpt>
      <trkpt lat="42.54454" lon="1.82143">
        <ele>1661.4</ele>
        <time>2020-02-14T13:56:46.668Z</time>
      </trkpt>
      <trkpt lat="42.5445" lon="1.82143">
        <ele>1660.8</ele>
        <time>2020-02-14T13:56:48.713Z</time>
      </trkpt>
      <trkpt lat="42.54444" lon="1.82139">
        <ele>1659.4</ele>
        <time>2020-02-14T13:56:51.755Z</time>
      </trkpt>
      <trkpt lat="42.54438" lon="1.82135">
        <ele>1659.4</ele>
        <time>2020-02-14T13:56:54.991Z</time>
      </trkpt>
      <trkpt lat="42.54434" lon="1.82137">
        <ele>1658.5</ele>
        <time>2020-02-14T13:56:57.300Z</time>
      </trkpt>
      <trkpt lat="42.54429" lon="1.82137">
        <ele>1657.9</ele>
        <time>2020-02-14T13:56:59.584Z</time>
      </trkpt>
      <trkpt lat="42.54419" lon="1.82135">
        <ele>1657.1</ele>
        <time>2020-02-14T13:57:04.409Z</time>
      </trkpt>
      <trkpt lat="42.54401" lon="1.82141">
        <ele>1654.7</ele>
        <time>2020-02-14T13:57:13.802Z</time>
      </trkpt>
      <trkpt lat="42.54392" lon="1.82149">
        <ele>1654.1</ele>
        <time>2020-02-14T13:57:19.249Z</time>
      </trkpt>
      <trkpt lat="42.54383" lon="1.82157">
        <ele>1653.1</ele>
        <time>2020-02-14T13:57:24.586Z</time>
      </trkpt>
      <trkpt lat="42.54373" lon="1.82157">
        <ele>1650.2</ele>
        <time>2020-02-14T13:57:29.393Z</time>
      </trkpt>
      <trkpt lat="42.54359" lon="1.82155">
        <ele>1647.8</ele>
        <time>2020-02-14T13:57:36.488Z</time>
      </trkpt>
      <trkpt lat="42.54351" lon="1.82154">
        <ele>1645.4</ele>
        <time>2020-02-14T13:57:40.735Z</time>
      </trkpt>
      <trkpt lat="42.54341" lon="1.82157">
        <ele>1643.6</ele>
        <time>2020-02-14T13:57:45.867Z</time>
      </trkpt>
      <trkpt lat="42.5433" lon="1.82168">
        <ele>1642.6</ele>
        <time>2020-02-14T13:57:52.305Z</time>
      </trkpt>
      <trkpt lat="42.54318" lon="1.82178">
        <ele>1640.2</ele>
        <time>2020-02-14T13:57:59.472Z</time>
      </trkpt>
      <trkpt lat="42.54316" lon="1.82181">
        <ele>1648.9</ele>
        <time>2020-02-14T13:58:03.702Z</time>
      </trkpt>
      <trkpt lat="42.54319" lon="1.82192">
        <ele>1649</ele>
        <time>2020-02-14T13:58:07.979Z</time>
      </trkpt>
      <trkpt lat="42.54322" lon="1.82194">
        <ele>1649.8</ele>
        <time>2020-02-14T13:58:09.561Z</time>
      </trkpt>
      <trkpt lat="42.54326" lon="1.82199">
        <ele>1649.7</ele>
        <time>2020-02-14T13:58:12.524Z</time>
      </trkpt>
      <trkpt lat="42.54332" lon="1.82209">
        <ele>1649.8</ele>
        <time>2020-02-14T13:58:16.916Z</time>
      </trkpt>
      <trkpt lat="42.54337" lon="1.82213">
        <ele>1650.3</ele>
        <time>2020-02-14T13:58:19.743Z</time>
      </trkpt>
      <trkpt lat="42.54343" lon="1.82218">
        <ele>1651.3</ele>
        <time>2020-02-14T13:58:23.564Z</time>
      </trkpt>
      <trkpt lat="42.54348" lon="1.82226">
        <ele>1651.8</ele>
        <time>2020-02-14T13:58:27.077Z</time>
      </trkpt>
      <trkpt lat="42.54355" lon="1.82231">
        <ele>1652.7</ele>
        <time>2020-02-14T13:58:31.050Z</time>
      </trkpt>
      <trkpt lat="42.54361" lon="1.82236">
        <ele>1653.6</ele>
        <time>2020-02-14T13:58:34.629Z</time>
      </trkpt>
      <trkpt lat="42.54368" lon="1.82244">
        <ele>1654.3</ele>
        <time>2020-02-14T13:58:39.138Z</time>
      </trkpt>
      <trkpt lat="42.54374" lon="1.82249">
        <ele>1654.9</ele>
        <time>2020-02-14T13:58:42.637Z</time>
      </trkpt>
      <trkpt lat="42.54379" lon="1.82263">
        <ele>1655</ele>
        <time>2020-02-14T13:58:47.974Z</time>
      </trkpt>
      <trkpt lat="42.54384" lon="1.82272">
        <ele>1655.3</ele>
        <time>2020-02-14T13:58:52.384Z</time>
      </trkpt>
      <trkpt lat="42.54388" lon="1.82282">
        <ele>1655.2</ele>
        <time>2020-02-14T13:58:56.177Z</time>
      </trkpt>
      <trkpt lat="42.5439" lon="1.82291">
        <ele>1655</ele>
        <time>2020-02-14T13:58:59.703Z</time>
      </trkpt>
      <trkpt lat="42.54397" lon="1.82297">
        <ele>1655.7</ele>
        <time>2020-02-14T13:59:03.552Z</time>
      </trkpt>
      <trkpt lat="42.544" lon="1.82306">
        <ele>1656.2</ele>
        <time>2020-02-14T13:59:07.162Z</time>
      </trkpt>
      <trkpt lat="42.54405" lon="1.82321">
        <ele>1657.1</ele>
        <time>2020-02-14T13:59:13.184Z</time>
      </trkpt>
      <trkpt lat="42.54414" lon="1.82333">
        <ele>1658.2</ele>
        <time>2020-02-14T13:59:19.542Z</time>
      </trkpt>
      <trkpt lat="42.54425" lon="1.82345">
        <ele>1658.9</ele>
        <time>2020-02-14T13:59:26.353Z</time>
      </trkpt>
      <trkpt lat="42.54436" lon="1.82358">
        <ele>1658.6</ele>
        <time>2020-02-14T13:59:33.787Z</time>
      </trkpt>
      <trkpt lat="42.54452" lon="1.82383">
        <ele>1658.8</ele>
        <time>2020-02-14T13:59:45.907Z</time>
      </trkpt>
      <trkpt lat="42.54458" lon="1.82402">
        <ele>1658.3</ele>
        <time>2020-02-14T13:59:53.338Z</time>
      </trkpt>
      <trkpt lat="42.54456" lon="1.82412">
        <ele>1655.5</ele>
        <time>2020-02-14T13:59:57.121Z</time>
      </trkpt>
      <trkpt lat="42.54447" lon="1.82428">
        <ele>1654.2</ele>
        <time>2020-02-14T14:00:04.475Z</time>
      </trkpt>
      <trkpt lat="42.54441" lon="1.82435">
        <ele>1653.6</ele>
        <time>2020-02-14T14:00:08.632Z</time>
      </trkpt>
      <trkpt lat="42.54403" lon="1.82447">
        <ele>1652.9</ele>
        <time>2020-02-14T14:00:27.723Z</time>
      </trkpt>
      <trkpt lat="42.54398" lon="1.8245">
        <ele>1652.1</ele>
        <time>2020-02-14T14:00:30.149Z</time>
      </trkpt>
      <trkpt lat="42.5439" lon="1.82464">
        <ele>1650.5</ele>
        <time>2020-02-14T14:00:36.766Z</time>
      </trkpt>
      <trkpt lat="42.54382" lon="1.82476">
        <ele>1649.8</ele>
        <time>2020-02-14T14:00:42.885Z</time>
      </trkpt>
      <trkpt lat="42.54373" lon="1.82481">
        <ele>1649.1</ele>
        <time>2020-02-14T14:00:47.571Z</time>
      </trkpt>
      <trkpt lat="42.54364" lon="1.82482">
        <ele>1649.3</ele>
        <time>2020-02-14T14:00:51.987Z</time>
      </trkpt>
      <trkpt lat="42.54368" lon="1.82477">
        <ele>1649.6</ele>
        <time>2020-02-14T14:00:54.836Z</time>
      </trkpt>
      <trkpt lat="42.54374" lon="1.82475">
        <ele>1649.5</ele>
        <time>2020-02-14T14:00:57.549Z</time>
      </trkpt>
      <trkpt lat="42.54387" lon="1.82463">
        <ele>1650.3</ele>
        <time>2020-02-14T14:01:05.544Z</time>
      </trkpt>
      <trkpt lat="42.54397" lon="1.82445">
        <ele>1651.5</ele>
        <time>2020-02-14T14:01:13.867Z</time>
      </trkpt>
      <trkpt lat="42.54418" lon="1.82436">
        <ele>1652.7</ele>
        <time>2020-02-14T14:01:24.365Z</time>
      </trkpt>
      <trkpt lat="42.54436" lon="1.82432">
        <ele>1653.7</ele>
        <time>2020-02-14T14:01:33.495Z</time>
      </trkpt>
      <trkpt lat="42.54448" lon="1.82423">
        <ele>1654</ele>
        <time>2020-02-14T14:01:40.385Z</time>
      </trkpt>
      <trkpt lat="42.54453" lon="1.82407">
        <ele>1655.5</ele>
        <time>2020-02-14T14:01:46.584Z</time>
      </trkpt>
      <trkpt lat="42.5445" lon="1.82398">
        <ele>1657.6</ele>
        <time>2020-02-14T14:01:50.038Z</time>
      </trkpt>
      <trkpt lat="42.54446" lon="1.82382">
        <ele>1658.7</ele>
        <time>2020-02-14T14:01:56.323Z</time>
      </trkpt>
      <trkpt lat="42.5444" lon="1.8237">
        <ele>1658.4</ele>
        <time>2020-02-14T14:02:01.684Z</time>
      </trkpt>
      <trkpt lat="42.54421" lon="1.82347">
        <ele>1658.8</ele>
        <time>2020-02-14T14:02:14.285Z</time>
      </trkpt>
      <trkpt lat="42.54409" lon="1.82333">
        <ele>1657.9</ele>
        <time>2020-02-14T14:02:21.868Z</time>
      </trkpt>
      <trkpt lat="42.54402" lon="1.82317">
        <ele>1656.6</ele>
        <time>2020-02-14T14:02:28.766Z</time>
      </trkpt>
      <trkpt lat="42.54394" lon="1.82297">
        <ele>1655.2</ele>
        <time>2020-02-14T14:02:37.072Z</time>
      </trkpt>
      <trkpt lat="42.54388" lon="1.82286">
        <ele>1655</ele>
        <time>2020-02-14T14:02:41.700Z</time>
      </trkpt>
      <trkpt lat="42.54382" lon="1.82273">
        <ele>1654.7</ele>
        <time>2020-02-14T14:02:47.372Z</time>
      </trkpt>
      <trkpt lat="42.54377" lon="1.8226">
        <ele>1654.8</ele>
        <time>2020-02-14T14:02:52.802Z</time>
      </trkpt>
      <trkpt lat="42.54369" lon="1.82246">
        <ele>1654.3</ele>
        <time>2020-02-14T14:02:59.406Z</time>
      </trkpt>
      <trkpt lat="42.54357" lon="1.82235">
        <ele>1648.8</ele>
        <time>2020-02-14T14:03:06.781Z</time>
      </trkpt>
      <trkpt lat="42.54347" lon="1.82229">
        <ele>1647.8</ele>
        <time>2020-02-14T14:03:12.021Z</time>
      </trkpt>
      <trkpt lat="42.54339" lon="1.82218">
        <ele>1647.2</ele>
        <time>2020-02-14T14:03:17.475Z</time>
      </trkpt>
      <trkpt lat="42.54338" lon="1.82217">
        <ele>1640.3</ele>
        <time>2020-02-14T14:03:20.684Z</time>
      </trkpt>
      <trkpt lat="42.54333" lon="1.82214">
        <ele>1638.2</ele>
        <time>2020-02-14T14:03:23.276Z</time>
      </trkpt>
      <trkpt lat="42.54325" lon="1.82205">
        <ele>1637.7</ele>
        <time>2020-02-14T14:03:28.585Z</time>
      </trkpt>
      <trkpt lat="42.54317" lon="1.82194">
        <ele>1635.8</ele>
        <time>2020-02-14T14:03:34.182Z</time>
      </trkpt>
      <trkpt lat="42.54307" lon="1.82186">
        <ele>1633.9</ele>
        <time>2020-02-14T14:03:39.833Z</time>
      </trkpt>
      <trkpt lat="42.54295" lon="1.82197">
        <ele>1632.5</ele>
        <time>2020-02-14T14:03:46.880Z</time>
      </trkpt>
      <trkpt lat="42.54292" lon="1.82201">
        <ele>1630.6</ele>
        <time>2020-02-14T14:03:49.375Z</time>
      </trkpt>
      <trkpt lat="42.5428" lon="1.82212">
        <ele>1627.8</ele>
        <time>2020-02-14T14:03:56.231Z</time>
      </trkpt>
      <trkpt lat="42.54278" lon="1.82219">
        <ele>1628.2</ele>
        <time>2020-02-14T14:03:59.170Z</time>
      </trkpt>
      <trkpt lat="42.54272" lon="1.82203">
        <ele>1626.2</ele>
        <time>2020-02-14T14:04:06.064Z</time>
      </trkpt>
      <trkpt lat="42.54269" lon="1.82199">
        <ele>1625.3</ele>
        <time>2020-02-14T14:04:07.950Z</time>
      </trkpt>
      <trkpt lat="42.5426" lon="1.82189">
        <ele>1622.8</ele>
        <time>2020-02-14T14:04:14.048Z</time>
      </trkpt>
      <trkpt lat="42.54247" lon="1.8218">
        <ele>1620.1</ele>
        <time>2020-02-14T14:04:21.292Z</time>
      </trkpt>
      <trkpt lat="42.54232" lon="1.82179">
        <ele>1616.7</ele>
        <time>2020-02-14T14:04:28.512Z</time>
      </trkpt>
      <trkpt lat="42.54229" lon="1.82179">
        <ele>1616.2</ele>
        <time>2020-02-14T14:04:30.204Z</time>
      </trkpt>
      <trkpt lat="42.54215" lon="1.82176">
        <ele>1613.7</ele>
        <time>2020-02-14T14:04:37.465Z</time>
      </trkpt>
      <trkpt lat="42.54202" lon="1.82177">
        <ele>1611.3</ele>
        <time>2020-02-14T14:04:43.774Z</time>
      </trkpt>
      <trkpt lat="42.54189" lon="1.82181">
        <ele>1608.9</ele>
        <time>2020-02-14T14:04:50.503Z</time>
      </trkpt>
      <trkpt lat="42.54186" lon="1.82183">
        <ele>1608.5</ele>
        <time>2020-02-14T14:04:51.953Z</time>
      </trkpt>
      <trkpt lat="42.5418" lon="1.82187">
        <ele>1606.6</ele>
        <time>2020-02-14T14:04:55.313Z</time>
      </trkpt>
      <trkpt lat="42.54174" lon="1.82192">
        <ele>1604.7</ele>
        <time>2020-02-14T14:04:59.231Z</time>
      </trkpt>
      <trkpt lat="42.5416" lon="1.82195">
        <ele>1601.8</ele>
        <time>2020-02-14T14:05:06.219Z</time>
      </trkpt>
      <trkpt lat="42.54148" lon="1.82196">
        <ele>1599.3</ele>
        <time>2020-02-14T14:05:12.189Z</time>
      </trkpt>
      <trkpt lat="42.54134" lon="1.82199">
        <ele>1596.4</ele>
        <time>2020-02-14T14:05:19.263Z</time>
      </trkpt>
      <trkpt lat="42.5412" lon="1.82205">
        <ele>1593.5</ele>
        <time>2020-02-14T14:05:26.597Z</time>
      </trkpt>
      <trkpt lat="42.54117" lon="1.82206">
        <ele>1592.6</ele>
        <time>2020-02-14T14:05:28.210Z</time>
      </trkpt>
      <trkpt lat="42.54111" lon="1.82208">
        <ele>1591.1</ele>
        <time>2020-02-14T14:05:31.435Z</time>
      </trkpt>
      <trkpt lat="42.54105" lon="1.82212">
        <ele>1589.7</ele>
        <time>2020-02-14T14:05:34.443Z</time>
      </trkpt>
      <trkpt lat="42.54101" lon="1.82214">
        <ele>1588.7</ele>
        <time>2020-02-14T14:05:36.658Z</time>
      </trkpt>
      <trkpt lat="42.54087" lon="1.82216">
        <ele>1585.4</ele>
        <time>2020-02-14T14:05:43.729Z</time>
      </trkpt>
      <trkpt lat="42.54077" lon="1.82219">
        <ele>1583.4</ele>
        <time>2020-02-14T14:05:48.892Z</time>
      </trkpt>
      <trkpt lat="42.5406" lon="1.8222">
        <ele>1580.2</ele>
        <time>2020-02-14T14:05:57.323Z</time>
      </trkpt>
      <trkpt lat="42.54054" lon="1.82224">
        <ele>1579.6</ele>
        <time>2020-02-14T14:06:00.608Z</time>
      </trkpt>
      <trkpt lat="42.54046" lon="1.82225">
        <ele>1576.7</ele>
        <time>2020-02-14T14:06:05.038Z</time>
      </trkpt>
      <trkpt lat="42.54029" lon="1.82228">
        <ele>1573.8</ele>
        <time>2020-02-14T14:06:13.237Z</time>
      </trkpt>
      <trkpt lat="42.54011" lon="1.82231">
        <ele>1571.4</ele>
        <time>2020-02-14T14:06:22.419Z</time>
      </trkpt>
      <trkpt lat="42.53996" lon="1.82236">
        <ele>1568.1</ele>
        <time>2020-02-14T14:06:30.029Z</time>
      </trkpt>
      <trkpt lat="42.53989" lon="1.82245">
        <ele>1566.1</ele>
        <time>2020-02-14T14:06:35.262Z</time>
      </trkpt>
      <trkpt lat="42.5398" lon="1.82255">
        <ele>1564.2</ele>
        <time>2020-02-14T14:06:41.014Z</time>
      </trkpt>
      <trkpt lat="42.5398" lon="1.82261">
        <ele>1563.7</ele>
        <time>2020-02-14T14:06:43.001Z</time>
      </trkpt>
      <trkpt lat="42.53983" lon="1.82264">
        <ele>1564.3</ele>
        <time>2020-02-14T14:06:44.898Z</time>
      </trkpt>
      <trkpt lat="42.53986" lon="1.82266">
        <ele>1563.7</ele>
        <time>2020-02-14T14:06:46.313Z</time>
      </trkpt>
      <trkpt lat="42.54" lon="1.82279">
        <ele>1564.2</ele>
        <time>2020-02-14T14:06:54.841Z</time>
      </trkpt>
      <trkpt lat="42.54021" lon="1.82292">
        <ele>1565.7</ele>
        <time>2020-02-14T14:07:06.553Z</time>
      </trkpt>
      <trkpt lat="42.54044" lon="1.82308">
        <ele>1567.2</ele>
        <time>2020-02-14T14:07:19.144Z</time>
      </trkpt>
      <trkpt lat="42.54063" lon="1.82312">
        <ele>1569.1</ele>
        <time>2020-02-14T14:07:28.720Z</time>
      </trkpt>
      <trkpt lat="42.54072" lon="1.82316">
        <ele>1569.5</ele>
        <time>2020-02-14T14:07:33.285Z</time>
      </trkpt>
      <trkpt lat="42.5408" lon="1.82318">
        <ele>1570.5</ele>
        <time>2020-02-14T14:07:37.068Z</time>
      </trkpt>
      <trkpt lat="42.54083" lon="1.82319">
        <ele>1570.6</ele>
        <time>2020-02-14T14:07:38.553Z</time>
      </trkpt>
      <trkpt lat="42.54096" lon="1.82325">
        <ele>1572</ele>
        <time>2020-02-14T14:07:45.416Z</time>
      </trkpt>
      <trkpt lat="42.54109" lon="1.82342">
        <ele>1572.4</ele>
        <time>2020-02-14T14:07:54.383Z</time>
      </trkpt>
      <trkpt lat="42.54114" lon="1.82363">
        <ele>1571.5</ele>
        <time>2020-02-14T14:08:02.281Z</time>
      </trkpt>
      <trkpt lat="42.54118" lon="1.82391">
        <ele>1569.6</ele>
        <time>2020-02-14T14:08:12.789Z</time>
      </trkpt>
      <trkpt lat="42.54131" lon="1.8242">
        <ele>1568.6</ele>
        <time>2020-02-14T14:08:24.715Z</time>
      </trkpt>
      <trkpt lat="42.54134" lon="1.82424">
        <ele>1568.5</ele>
        <time>2020-02-14T14:08:27.217Z</time>
      </trkpt>
      <trkpt lat="42.54139" lon="1.82431">
        <ele>1568.2</ele>
        <time>2020-02-14T14:08:30.460Z</time>
      </trkpt>
      <trkpt lat="42.54134" lon="1.82439">
        <ele>1566.7</ele>
        <time>2020-02-14T14:08:34.021Z</time>
      </trkpt>
      <trkpt lat="42.54114" lon="1.82455">
        <ele>1563.7</ele>
        <time>2020-02-14T14:08:45.792Z</time>
      </trkpt>
      <trkpt lat="42.54109" lon="1.82459">
        <ele>1563.7</ele>
        <time>2020-02-14T14:08:48.679Z</time>
      </trkpt>
      <trkpt lat="42.54093" lon="1.82468">
        <ele>1562.8</ele>
        <time>2020-02-14T14:08:57.355Z</time>
      </trkpt>
      <trkpt lat="42.54087" lon="1.82474">
        <ele>1562.9</ele>
        <time>2020-02-14T14:09:00.640Z</time>
      </trkpt>
      <trkpt lat="42.54076" lon="1.82476">
        <ele>1562.4</ele>
        <time>2020-02-14T14:09:06.347Z</time>
      </trkpt>
      <trkpt lat="42.54068" lon="1.82478">
        <ele>1561.8</ele>
        <time>2020-02-14T14:09:10.272Z</time>
      </trkpt>
      <trkpt lat="42.54055" lon="1.82483">
        <ele>1561.8</ele>
        <time>2020-02-14T14:09:16.951Z</time>
      </trkpt>
      <trkpt lat="42.5405" lon="1.82486">
        <ele>1561.8</ele>
        <time>2020-02-14T14:09:19.692Z</time>
      </trkpt>
      <trkpt lat="42.54044" lon="1.82479">
        <ele>1562.3</ele>
        <time>2020-02-14T14:09:23.530Z</time>
      </trkpt>
      <trkpt lat="42.54035" lon="1.82479">
        <ele>1562.4</ele>
        <time>2020-02-14T14:09:27.974Z</time>
      </trkpt>
      <trkpt lat="42.54012" lon="1.82485">
        <ele>1562.9</ele>
        <time>2020-02-14T14:09:39.762Z</time>
      </trkpt>
      <trkpt lat="42.53989" lon="1.82489">
        <ele>1562.3</ele>
        <time>2020-02-14T14:09:51.107Z</time>
      </trkpt>
      <trkpt lat="42.53967" lon="1.82493">
        <ele>1562.3</ele>
        <time>2020-02-14T14:10:01.715Z</time>
      </trkpt>
      <trkpt lat="42.53965" lon="1.82493">
        <ele>1562.3</ele>
        <time>2020-02-14T14:10:03.044Z</time>
      </trkpt>
      <trkpt lat="42.53955" lon="1.82494">
        <ele>1562.3</ele>
        <time>2020-02-14T14:10:07.924Z</time>
      </trkpt>
      <trkpt lat="42.53935" lon="1.82492">
        <ele>1562.3</ele>
        <time>2020-02-14T14:10:17.646Z</time>
      </trkpt>
      <trkpt lat="42.53914" lon="1.82491">
        <ele>1562.4</ele>
        <time>2020-02-14T14:10:28.147Z</time>
      </trkpt>
      <trkpt lat="42.53914" lon="1.82488">
        <ele>1565.6</ele>
        <time>2020-02-14T14:10:29.863Z</time>
      </trkpt>
      <trkpt lat="42.53921" lon="1.82489">
        <ele>1565.3</ele>
        <time>2020-02-14T14:10:33.719Z</time>
      </trkpt>
      <trkpt lat="42.53928" lon="1.82489">
        <ele>1565.2</ele>
        <time>2020-02-14T14:10:36.726Z</time>
      </trkpt>
      <trkpt lat="42.53933" lon="1.82489">
        <ele>1566.1</ele>
        <time>2020-02-14T14:10:39.415Z</time>
      </trkpt>
      <trkpt lat="42.53937" lon="1.82489">
        <ele>1565.3</ele>
        <time>2020-02-14T14:10:41.561Z</time>
      </trkpt>
      <trkpt lat="42.53954" lon="1.82492">
        <ele>1566.2</ele>
        <time>2020-02-14T14:10:50.054Z</time>
      </trkpt>
      <trkpt lat="42.53981" lon="1.82488">
        <ele>1565.6</ele>
        <time>2020-02-14T14:11:03.248Z</time>
      </trkpt>
      <trkpt lat="42.53996" lon="1.82487">
        <ele>1571.4</ele>
        <time>2020-02-14T14:11:11.128Z</time>
      </trkpt>
      <trkpt lat="42.54021" lon="1.82483">
        <ele>1571.4</ele>
        <time>2020-02-14T14:11:23.442Z</time>
      </trkpt>
      <trkpt lat="42.54042" lon="1.82478">
        <ele>1571.4</ele>
        <time>2020-02-14T14:11:34.178Z</time>
      </trkpt>
      <trkpt lat="42.54049" lon="1.82485">
        <ele>1571</ele>
        <time>2020-02-14T14:11:38.297Z</time>
      </trkpt>
      <trkpt lat="42.54066" lon="1.82476">
        <ele>1570.9</ele>
        <time>2020-02-14T14:11:47.683Z</time>
      </trkpt>
      <trkpt lat="42.5407" lon="1.82473">
        <ele>1570.9</ele>
        <time>2020-02-14T14:11:49.804Z</time>
      </trkpt>
      <trkpt lat="42.54081" lon="1.8247">
        <ele>1571.4</ele>
        <time>2020-02-14T14:11:55.190Z</time>
      </trkpt>
      <trkpt lat="42.54096" lon="1.82461">
        <ele>1572</ele>
        <time>2020-02-14T14:12:03.378Z</time>
      </trkpt>
      <trkpt lat="42.54103" lon="1.82453">
        <ele>1572.5</ele>
        <time>2020-02-14T14:12:08.075Z</time>
      </trkpt>
      <trkpt lat="42.54107" lon="1.82451">
        <ele>1573</ele>
        <time>2020-02-14T14:12:10.061Z</time>
      </trkpt>
      <trkpt lat="42.54117" lon="1.82449">
        <ele>1573.8</ele>
        <time>2020-02-14T14:12:14.830Z</time>
      </trkpt>
      <trkpt lat="42.54133" lon="1.82437">
        <ele>1577.3</ele>
        <time>2020-02-14T14:12:24.296Z</time>
      </trkpt>
      <trkpt lat="42.54125" lon="1.82415">
        <ele>1578.2</ele>
        <time>2020-02-14T14:12:33.250Z</time>
      </trkpt>
      <trkpt lat="42.54125" lon="1.8241">
        <ele>1578.2</ele>
        <time>2020-02-14T14:12:35.174Z</time>
      </trkpt>
      <trkpt lat="42.54124" lon="1.82402">
        <ele>1578.7</ele>
        <time>2020-02-14T14:12:37.839Z</time>
      </trkpt>
      <trkpt lat="42.5412" lon="1.82397">
        <ele>1578.6</ele>
        <time>2020-02-14T14:12:40.597Z</time>
      </trkpt>
      <trkpt lat="42.54119" lon="1.82393">
        <ele>1579.1</ele>
        <time>2020-02-14T14:12:42.099Z</time>
      </trkpt>
      <trkpt lat="42.54112" lon="1.82365">
        <ele>1581</ele>
        <time>2020-02-14T14:12:52.894Z</time>
      </trkpt>
      <trkpt lat="42.54106" lon="1.8234">
        <ele>1582.5</ele>
        <time>2020-02-14T14:13:02.727Z</time>
      </trkpt>
      <trkpt lat="42.54098" lon="1.82329">
        <ele>1582</ele>
        <time>2020-02-14T14:13:08.039Z</time>
      </trkpt>
      <trkpt lat="42.54082" lon="1.8232">
        <ele>1580.5</ele>
        <time>2020-02-14T14:13:16.830Z</time>
      </trkpt>
      <trkpt lat="42.5406" lon="1.8231">
        <ele>1578.7</ele>
        <time>2020-02-14T14:13:28.109Z</time>
      </trkpt>
      <trkpt lat="42.5404" lon="1.82302">
        <ele>1577.7</ele>
        <time>2020-02-14T14:13:38.482Z</time>
      </trkpt>
      <trkpt lat="42.54016" lon="1.82286">
        <ele>1575.8</ele>
        <time>2020-02-14T14:13:51.779Z</time>
      </trkpt>
      <trkpt lat="42.53996" lon="1.82274">
        <ele>1574.4</ele>
        <time>2020-02-14T14:14:02.504Z</time>
      </trkpt>
      <trkpt lat="42.53991" lon="1.82269">
        <ele>1574.4</ele>
        <time>2020-02-14T14:14:05.526Z</time>
      </trkpt>
      <trkpt lat="42.53984" lon="1.82263">
        <ele>1574.4</ele>
        <time>2020-02-14T14:14:09.689Z</time>
      </trkpt>
      <trkpt lat="42.53981" lon="1.8226">
        <ele>1574.4</ele>
        <time>2020-02-14T14:14:11.444Z</time>
      </trkpt>
      <trkpt lat="42.53974" lon="1.82257">
        <ele>1573.8</ele>
        <time>2020-02-14T14:14:15.130Z</time>
      </trkpt>
      <trkpt lat="42.53971" lon="1.82256">
        <ele>1573.3</ele>
        <time>2020-02-14T14:14:16.798Z</time>
      </trkpt>
      <trkpt lat="42.5396" lon="1.82251">
        <ele>1572.4</ele>
        <time>2020-02-14T14:14:22.346Z</time>
      </trkpt>
      <trkpt lat="42.53957" lon="1.82247">
        <ele>1571.4</ele>
        <time>2020-02-14T14:14:24.582Z</time>
      </trkpt>
      <trkpt lat="42.53953" lon="1.82243">
        <ele>1570.9</ele>
        <time>2020-02-14T14:14:27.060Z</time>
      </trkpt>
      <trkpt lat="42.5395" lon="1.82241">
        <ele>1571</ele>
        <time>2020-02-14T14:14:28.742Z</time>
      </trkpt>
      <trkpt lat="42.53929" lon="1.82226">
        <ele>1570.1</ele>
        <time>2020-02-14T14:14:40.038Z</time>
      </trkpt>
      <trkpt lat="42.5391" lon="1.8223">
        <ele>1570.6</ele>
        <time>2020-02-14T14:14:49.764Z</time>
      </trkpt>
      <trkpt lat="42.53899" lon="1.82232">
        <ele>1569.6</ele>
        <time>2020-02-14T14:14:55.038Z</time>
      </trkpt>
      <trkpt lat="42.53888" lon="1.82232">
        <ele>1568.6</ele>
        <time>2020-02-14T14:15:00.572Z</time>
      </trkpt>
      <trkpt lat="42.53865" lon="1.82224">
        <ele>1567.2</ele>
        <time>2020-02-14T14:15:12.516Z</time>
      </trkpt>
      <trkpt lat="42.53857" lon="1.82223">
        <ele>1566.7</ele>
        <time>2020-02-14T14:15:16.105Z</time>
      </trkpt>
      <trkpt lat="42.53847" lon="1.8223">
        <ele>1565.6</ele>
        <time>2020-02-14T14:15:21.757Z</time>
      </trkpt>
      <trkpt lat="42.53837" lon="1.8225">
        <ele>1563.2</ele>
        <time>2020-02-14T14:15:30.707Z</time>
      </trkpt>
      <trkpt lat="42.53822" lon="1.82267">
        <ele>1561.8</ele>
        <time>2020-02-14T14:15:40.463Z</time>
      </trkpt>
      <trkpt lat="42.53804" lon="1.82268">
        <ele>1560.5</ele>
        <time>2020-02-14T14:15:49.417Z</time>
      </trkpt>
      <trkpt lat="42.53782" lon="1.82261">
        <ele>1559.9</ele>
        <time>2020-02-14T14:16:00.236Z</time>
      </trkpt>
      <trkpt lat="42.53765" lon="1.82249">
        <ele>1560.9</ele>
        <time>2020-02-14T14:16:09.861Z</time>
      </trkpt>
      <trkpt lat="42.53743" lon="1.82233">
        <ele>1559.5</ele>
        <time>2020-02-14T14:16:22.403Z</time>
      </trkpt>
      <trkpt lat="42.53726" lon="1.82218">
        <ele>1558.9</ele>
        <time>2020-02-14T14:16:31.962Z</time>
      </trkpt>
      <trkpt lat="42.53713" lon="1.82205">
        <ele>1558.5</ele>
        <time>2020-02-14T14:16:39.860Z</time>
      </trkpt>
      <trkpt lat="42.53698" lon="1.82182">
        <ele>1558.4</ele>
        <time>2020-02-14T14:16:51.271Z</time>
      </trkpt>
      <trkpt lat="42.53694" lon="1.82175">
        <ele>1558.4</ele>
        <time>2020-02-14T14:16:54.559Z</time>
      </trkpt>
      <trkpt lat="42.53688" lon="1.82167">
        <ele>1558.5</ele>
        <time>2020-02-14T14:16:58.425Z</time>
      </trkpt>
      <trkpt lat="42.53686" lon="1.82162">
        <ele>1558.4</ele>
        <time>2020-02-14T14:17:00.647Z</time>
      </trkpt>
      <trkpt lat="42.53672" lon="1.82141">
        <ele>1559.4</ele>
        <time>2020-02-14T14:17:11.040Z</time>
      </trkpt>
      <trkpt lat="42.53658" lon="1.8213">
        <ele>1558.4</ele>
        <time>2020-02-14T14:17:18.886Z</time>
      </trkpt>
      <trkpt lat="42.53633" lon="1.8213">
        <ele>1556.6</ele>
        <time>2020-02-14T14:17:30.930Z</time>
      </trkpt>
      <trkpt lat="42.53611" lon="1.82133">
        <ele>1555.6</ele>
        <time>2020-02-14T14:17:42.171Z</time>
      </trkpt>
      <trkpt lat="42.53604" lon="1.82133">
        <ele>1556.1</ele>
        <time>2020-02-14T14:17:45.629Z</time>
      </trkpt>
      <trkpt lat="42.53587" lon="1.82127">
        <ele>1555.6</ele>
        <time>2020-02-14T14:17:54.170Z</time>
      </trkpt>
      <trkpt lat="42.53569" lon="1.82123">
        <ele>1555.6</ele>
        <time>2020-02-14T14:18:03.286Z</time>
      </trkpt>
      <trkpt lat="42.53548" lon="1.82117">
        <ele>1555.7</ele>
        <time>2020-02-14T14:18:13.690Z</time>
      </trkpt>
      <trkpt lat="42.53527" lon="1.82109">
        <ele>1556.1</ele>
        <time>2020-02-14T14:18:24.353Z</time>
      </trkpt>
      <trkpt lat="42.53506" lon="1.8211">
        <ele>1556.6</ele>
        <time>2020-02-14T14:18:35.003Z</time>
      </trkpt>
      <trkpt lat="42.53482" lon="1.8211">
        <ele>1557.6</ele>
        <time>2020-02-14T14:18:46.632Z</time>
      </trkpt>
      <trkpt lat="42.5346" lon="1.82117">
        <ele>1557</ele>
        <time>2020-02-14T14:18:57.617Z</time>
      </trkpt>
      <trkpt lat="42.53441" lon="1.8212">
        <ele>1556</ele>
        <time>2020-02-14T14:19:07.020Z</time>
      </trkpt>
      <trkpt lat="42.5342" lon="1.82124">
        <ele>1554.6</ele>
        <time>2020-02-14T14:19:17.656Z</time>
      </trkpt>
      <trkpt lat="42.5341" lon="1.82127">
        <ele>1554.2</ele>
        <time>2020-02-14T14:19:22.691Z</time>
      </trkpt>
      <trkpt lat="42.53407" lon="1.82127">
        <ele>1554.1</ele>
        <time>2020-02-14T14:19:24.124Z</time>
      </trkpt>
      <trkpt lat="42.53398" lon="1.82126">
        <ele>1553.6</ele>
        <time>2020-02-14T14:19:28.339Z</time>
      </trkpt>
      <trkpt lat="42.53382" lon="1.82125">
        <ele>1552.3</ele>
        <time>2020-02-14T14:19:36.646Z</time>
      </trkpt>
      <trkpt lat="42.53363" lon="1.82132">
        <ele>1551.3</ele>
        <time>2020-02-14T14:19:46.388Z</time>
      </trkpt>
      <trkpt lat="42.5334" lon="1.82132">
        <ele>1551.2</ele>
        <time>2020-02-14T14:19:57.422Z</time>
      </trkpt>
      <trkpt lat="42.53332" lon="1.82135">
        <ele>1551.7</ele>
        <time>2020-02-14T14:20:01.506Z</time>
      </trkpt>
      <trkpt lat="42.53326" lon="1.82146">
        <ele>1552.2</ele>
        <time>2020-02-14T14:20:06.334Z</time>
      </trkpt>
      <trkpt lat="42.5332" lon="1.82153">
        <ele>1552.2</ele>
        <time>2020-02-14T14:20:10.456Z</time>
      </trkpt>
      <trkpt lat="42.53303" lon="1.82151">
        <ele>1552.7</ele>
        <time>2020-02-14T14:20:18.617Z</time>
      </trkpt>
      <trkpt lat="42.53285" lon="1.82139">
        <ele>1551.7</ele>
        <time>2020-02-14T14:20:28.667Z</time>
      </trkpt>
      <trkpt lat="42.53269" lon="1.82121">
        <ele>1551.7</ele>
        <time>2020-02-14T14:20:38.985Z</time>
      </trkpt>
      <trkpt lat="42.53247" lon="1.82108">
        <ele>1551.3</ele>
        <time>2020-02-14T14:20:50.510Z</time>
      </trkpt>
      <trkpt lat="42.53223" lon="1.82101">
        <ele>1550.7</ele>
        <time>2020-02-14T14:21:02.612Z</time>
      </trkpt>
      <trkpt lat="42.53203" lon="1.82084">
        <ele>1550.7</ele>
        <time>2020-02-14T14:21:14.321Z</time>
      </trkpt>
      <trkpt lat="42.53184" lon="1.82066">
        <ele>1550.8</ele>
        <time>2020-02-14T14:21:25.898Z</time>
      </trkpt>
      <trkpt lat="42.53162" lon="1.82059">
        <ele>1550.4</ele>
        <time>2020-02-14T14:21:36.942Z</time>
      </trkpt>
      <trkpt lat="42.53142" lon="1.82067">
        <ele>1550.8</ele>
        <time>2020-02-14T14:21:47.266Z</time>
      </trkpt>
      <trkpt lat="42.53128" lon="1.8208">
        <ele>1549.8</ele>
        <time>2020-02-14T14:21:55.714Z</time>
      </trkpt>
      <trkpt lat="42.53112" lon="1.82098">
        <ele>1549.4</ele>
        <time>2020-02-14T14:22:05.605Z</time>
      </trkpt>
      <trkpt lat="42.53096" lon="1.82118">
        <ele>1549.3</ele>
        <time>2020-02-14T14:22:16.611Z</time>
      </trkpt>
      <trkpt lat="42.53075" lon="1.82131">
        <ele>1548.8</ele>
        <time>2020-02-14T14:22:27.925Z</time>
      </trkpt>
      <trkpt lat="42.53068" lon="1.82144">
        <ele>1548.3</ele>
        <time>2020-02-14T14:22:33.546Z</time>
      </trkpt>
      <trkpt lat="42.53065" lon="1.82147">
        <ele>1548.4</ele>
        <time>2020-02-14T14:22:35.463Z</time>
      </trkpt>
      <trkpt lat="42.53042" lon="1.82163">
        <ele>1547.5</ele>
        <time>2020-02-14T14:22:48.234Z</time>
      </trkpt>
      <trkpt lat="42.53027" lon="1.82184">
        <ele>1546.5</ele>
        <time>2020-02-14T14:22:58.683Z</time>
      </trkpt>
      <trkpt lat="42.53021" lon="1.82189">
        <ele>1546.4</ele>
        <time>2020-02-14T14:23:02.254Z</time>
      </trkpt>
      <trkpt lat="42.53006" lon="1.82209">
        <ele>1545.5</ele>
        <time>2020-02-14T14:23:12.537Z</time>
      </trkpt>
      <trkpt lat="42.52997" lon="1.82231">
        <ele>1544.5</ele>
        <time>2020-02-14T14:23:21.892Z</time>
      </trkpt>
      <trkpt lat="42.52979" lon="1.82257">
        <ele>1542.7</ele>
        <time>2020-02-14T14:23:34.905Z</time>
      </trkpt>
      <trkpt lat="42.52966" lon="1.82278">
        <ele>1541.6</ele>
        <time>2020-02-14T14:23:44.596Z</time>
      </trkpt>
      <trkpt lat="42.52955" lon="1.82297">
        <ele>1541.2</ele>
        <time>2020-02-14T14:23:53.518Z</time>
      </trkpt>
      <trkpt lat="42.52934" lon="1.8231">
        <ele>1540.2</ele>
        <time>2020-02-14T14:24:04.956Z</time>
      </trkpt>
      <trkpt lat="42.52915" lon="1.82328">
        <ele>1538.7</ele>
        <time>2020-02-14T14:24:16.232Z</time>
      </trkpt>
      <trkpt lat="42.52898" lon="1.8235">
        <ele>1537.8</ele>
        <time>2020-02-14T14:24:28.058Z</time>
      </trkpt>
      <trkpt lat="42.5288" lon="1.82359">
        <ele>1537.9</ele>
        <time>2020-02-14T14:24:37.379Z</time>
      </trkpt>
      <trkpt lat="42.5286" lon="1.82366">
        <ele>1535.9</ele>
        <time>2020-02-14T14:24:47.813Z</time>
      </trkpt>
      <trkpt lat="42.52833" lon="1.82366">
        <ele>1534.5</ele>
        <time>2020-02-14T14:25:00.785Z</time>
      </trkpt>
      <trkpt lat="42.52814" lon="1.82364">
        <ele>1533.4</ele>
        <time>2020-02-14T14:25:10.548Z</time>
      </trkpt>
      <trkpt lat="42.5279" lon="1.82365">
        <ele>1532.6</ele>
        <time>2020-02-14T14:25:22.042Z</time>
      </trkpt>
      <trkpt lat="42.52772" lon="1.8236">
        <ele>1531.5</ele>
        <time>2020-02-14T14:25:31.023Z</time>
      </trkpt>
      <trkpt lat="42.5275" lon="1.8235">
        <ele>1530.1</ele>
        <time>2020-02-14T14:25:42.656Z</time>
      </trkpt>
      <trkpt lat="42.5273" lon="1.82339">
        <ele>1528.7</ele>
        <time>2020-02-14T14:25:53.302Z</time>
      </trkpt>
      <trkpt lat="42.52723" lon="1.82334">
        <ele>1528.3</ele>
        <time>2020-02-14T14:25:57.264Z</time>
      </trkpt>
      <trkpt lat="42.52706" lon="1.82324">
        <ele>1528.2</ele>
        <time>2020-02-14T14:26:06.588Z</time>
      </trkpt>
      <trkpt lat="42.52685" lon="1.82311">
        <ele>1527.7</ele>
        <time>2020-02-14T14:26:17.715Z</time>
      </trkpt>
      <trkpt lat="42.52659" lon="1.82297">
        <ele>1527.7</ele>
        <time>2020-02-14T14:26:31.448Z</time>
      </trkpt>
      <trkpt lat="42.52642" lon="1.82296">
        <ele>1513.4</ele>
        <time>2020-02-14T14:26:42.112Z</time>
      </trkpt>
      <trkpt lat="42.52642" lon="1.8229">
        <ele>1513.5</ele>
        <time>2020-02-14T14:26:44.382Z</time>
      </trkpt>
      <trkpt lat="42.52638" lon="1.82289">
        <ele>1513.4</ele>
        <time>2020-02-14T14:26:46.728Z</time>
      </trkpt>
      <trkpt lat="42.52633" lon="1.82287">
        <ele>1513.2</ele>
        <time>2020-02-14T14:26:49.335Z</time>
      </trkpt>
      <trkpt lat="42.52628" lon="1.82286">
        <ele>1513.1</ele>
        <time>2020-02-14T14:26:51.833Z</time>
      </trkpt>
      <trkpt lat="42.52623" lon="1.82286">
        <ele>1513</ele>
        <time>2020-02-14T14:26:54.204Z</time>
      </trkpt>
      <trkpt lat="42.52618" lon="1.82285">
        <ele>1512.7</ele>
        <time>2020-02-14T14:26:56.630Z</time>
      </trkpt>
      <trkpt lat="42.52613" lon="1.82284">
        <ele>1512.5</ele>
        <time>2020-02-14T14:26:58.928Z</time>
      </trkpt>
      <trkpt lat="42.52609" lon="1.82282">
        <ele>1512.3</ele>
        <time>2020-02-14T14:27:01.233Z</time>
      </trkpt>
      <trkpt lat="42.52604" lon="1.82282">
        <ele>1512.3</ele>
        <time>2020-02-14T14:27:03.594Z</time>
      </trkpt>
      <trkpt lat="42.52599" lon="1.82281">
        <ele>1512</ele>
        <time>2020-02-14T14:27:06.082Z</time>
      </trkpt>
      <trkpt lat="42.52594" lon="1.8228">
        <ele>1511.8</ele>
        <time>2020-02-14T14:27:08.640Z</time>
      </trkpt>
      <trkpt lat="42.5259" lon="1.82278">
        <ele>1511.6</ele>
        <time>2020-02-14T14:27:10.855Z</time>
      </trkpt>
      <trkpt lat="42.52585" lon="1.82279">
        <ele>1511.6</ele>
        <time>2020-02-14T14:27:13.129Z</time>
      </trkpt>
      <trkpt lat="42.5258" lon="1.82278">
        <ele>1511.3</ele>
        <time>2020-02-14T14:27:15.790Z</time>
      </trkpt>
      <trkpt lat="42.52575" lon="1.82277">
        <ele>1511.1</ele>
        <time>2020-02-14T14:27:18.189Z</time>
      </trkpt>
      <trkpt lat="42.52569" lon="1.82276">
        <ele>1510.9</ele>
        <time>2020-02-14T14:27:20.878Z</time>
      </trkpt>
      <trkpt lat="42.52565" lon="1.82275">
        <ele>1510.8</ele>
        <time>2020-02-14T14:27:23.179Z</time>
      </trkpt>
      <trkpt lat="42.5256" lon="1.82274">
        <ele>1510.7</ele>
        <time>2020-02-14T14:27:25.467Z</time>
      </trkpt>
      <trkpt lat="42.52556" lon="1.82273">
        <ele>1510.6</ele>
        <time>2020-02-14T14:27:27.800Z</time>
      </trkpt>
      <trkpt lat="42.52551" lon="1.82271">
        <ele>1510.3</ele>
        <time>2020-02-14T14:27:30.281Z</time>
      </trkpt>
      <trkpt lat="42.52546" lon="1.82268">
        <ele>1510.1</ele>
        <time>2020-02-14T14:27:33.019Z</time>
      </trkpt>
      <trkpt lat="42.52541" lon="1.82265">
        <ele>1510.1</ele>
        <time>2020-02-14T14:27:35.535Z</time>
      </trkpt>
      <trkpt lat="42.52536" lon="1.82262">
        <ele>1510</ele>
        <time>2020-02-14T14:27:38.269Z</time>
      </trkpt>
      <trkpt lat="42.52532" lon="1.82259">
        <ele>1510</ele>
        <time>2020-02-14T14:27:40.526Z</time>
      </trkpt>
      <trkpt lat="42.52528" lon="1.82255">
        <ele>1510</ele>
        <time>2020-02-14T14:27:43.059Z</time>
      </trkpt>
      <trkpt lat="42.52525" lon="1.8225">
        <ele>1509.9</ele>
        <time>2020-02-14T14:27:45.302Z</time>
      </trkpt>
      <trkpt lat="42.5252" lon="1.82247">
        <ele>1510</ele>
        <time>2020-02-14T14:27:47.769Z</time>
      </trkpt>
      <trkpt lat="42.52516" lon="1.82243">
        <ele>1509.8</ele>
        <time>2020-02-14T14:27:50.344Z</time>
      </trkpt>
      <trkpt lat="42.52512" lon="1.82239">
        <ele>1509.9</ele>
        <time>2020-02-14T14:27:52.847Z</time>
      </trkpt>
      <trkpt lat="42.52508" lon="1.82235">
        <ele>1509.8</ele>
        <time>2020-02-14T14:27:55.328Z</time>
      </trkpt>
      <trkpt lat="42.52504" lon="1.8223">
        <ele>1509.8</ele>
        <time>2020-02-14T14:27:57.744Z</time>
      </trkpt>
      <trkpt lat="42.525" lon="1.82226">
        <ele>1509.7</ele>
        <time>2020-02-14T14:28:00.495Z</time>
      </trkpt>
      <trkpt lat="42.52495" lon="1.82223">
        <ele>1509.5</ele>
        <time>2020-02-14T14:28:03.022Z</time>
      </trkpt>
      <trkpt lat="42.52492" lon="1.82218">
        <ele>1509.5</ele>
        <time>2020-02-14T14:28:05.309Z</time>
      </trkpt>
      <trkpt lat="42.52488" lon="1.82215">
        <ele>1509.4</ele>
        <time>2020-02-14T14:28:07.822Z</time>
      </trkpt>
      <trkpt lat="42.52483" lon="1.82211">
        <ele>1509.3</ele>
        <time>2020-02-14T14:28:10.491Z</time>
      </trkpt>
      <trkpt lat="42.52479" lon="1.82207">
        <ele>1509.3</ele>
        <time>2020-02-14T14:28:13.124Z</time>
      </trkpt>
      <trkpt lat="42.52474" lon="1.82205">
        <ele>1509.2</ele>
        <time>2020-02-14T14:28:15.564Z</time>
      </trkpt>
      <trkpt lat="42.5247" lon="1.822">
        <ele>1509.2</ele>
        <time>2020-02-14T14:28:18.098Z</time>
      </trkpt>
      <trkpt lat="42.52466" lon="1.82196">
        <ele>1509.1</ele>
        <time>2020-02-14T14:28:20.455Z</time>
      </trkpt>
      <trkpt lat="42.52462" lon="1.82193">
        <ele>1509.1</ele>
        <time>2020-02-14T14:28:22.988Z</time>
      </trkpt>
      <trkpt lat="42.52459" lon="1.82187">
        <ele>1509.1</ele>
        <time>2020-02-14T14:28:25.421Z</time>
      </trkpt>
      <trkpt lat="42.52455" lon="1.82183">
        <ele>1509</ele>
        <time>2020-02-14T14:28:27.996Z</time>
      </trkpt>
      <trkpt lat="42.52452" lon="1.82178">
        <ele>1508.9</ele>
        <time>2020-02-14T14:28:30.280Z</time>
      </trkpt>
      <trkpt lat="42.52448" lon="1.82174">
        <ele>1508.9</ele>
        <time>2020-02-14T14:28:33.035Z</time>
      </trkpt>
      <trkpt lat="42.52444" lon="1.82169">
        <ele>1508.9</ele>
        <time>2020-02-14T14:28:35.229Z</time>
      </trkpt>
      <trkpt lat="42.52441" lon="1.82165">
        <ele>1508.7</ele>
        <time>2020-02-14T14:28:37.527Z</time>
      </trkpt>
      <trkpt lat="42.52437" lon="1.82161">
        <ele>1508.6</ele>
        <time>2020-02-14T14:28:39.891Z</time>
      </trkpt>
      <trkpt lat="42.52432" lon="1.82157">
        <ele>1508.6</ele>
        <time>2020-02-14T14:28:42.587Z</time>
      </trkpt>
      <trkpt lat="42.5243" lon="1.82153">
        <ele>1508.4</ele>
        <time>2020-02-14T14:28:44.813Z</time>
      </trkpt>
      <trkpt lat="42.52426" lon="1.82147">
        <ele>1508.4</ele>
        <time>2020-02-14T14:28:47.467Z</time>
      </trkpt>
      <trkpt lat="42.52422" lon="1.82143">
        <ele>1508.2</ele>
        <time>2020-02-14T14:28:49.849Z</time>
      </trkpt>
      <trkpt lat="42.52417" lon="1.82139">
        <ele>1508.1</ele>
        <time>2020-02-14T14:28:52.576Z</time>
      </trkpt>
      <trkpt lat="42.52413" lon="1.82136">
        <ele>1508</ele>
        <time>2020-02-14T14:28:54.825Z</time>
      </trkpt>
      <trkpt lat="42.52409" lon="1.82133">
        <ele>1507.9</ele>
        <time>2020-02-14T14:28:57.141Z</time>
      </trkpt>
      <trkpt lat="42.52405" lon="1.82129">
        <ele>1507.9</ele>
        <time>2020-02-14T14:28:59.473Z</time>
      </trkpt>
      <trkpt lat="42.52402" lon="1.82125">
        <ele>1507.6</ele>
        <time>2020-02-14T14:29:01.855Z</time>
      </trkpt>
      <trkpt lat="42.52398" lon="1.8212">
        <ele>1507.9</ele>
        <time>2020-02-14T14:29:04.405Z</time>
      </trkpt>
      <trkpt lat="42.52394" lon="1.82116">
        <ele>1507.9</ele>
        <time>2020-02-14T14:29:07.091Z</time>
      </trkpt>
      <trkpt lat="42.52389" lon="1.82113">
        <ele>1507.9</ele>
        <time>2020-02-14T14:29:09.572Z</time>
      </trkpt>
      <trkpt lat="42.52386" lon="1.82108">
        <ele>1508.1</ele>
        <time>2020-02-14T14:29:11.788Z</time>
      </trkpt>
      <trkpt lat="42.52383" lon="1.82104">
        <ele>1508.3</ele>
        <time>2020-02-14T14:29:14.058Z</time>
      </trkpt>
      <trkpt lat="42.52381" lon="1.82098">
        <ele>1508.4</ele>
        <time>2020-02-14T14:29:16.401Z</time>
      </trkpt>
      <trkpt lat="42.52382" lon="1.8209">
        <ele>1508.9</ele>
        <time>2020-02-14T14:29:19.166Z</time>
      </trkpt>
      <trkpt lat="42.52383" lon="1.82084">
        <ele>1509.2</ele>
        <time>2020-02-14T14:29:21.530Z</time>
      </trkpt>
      <trkpt lat="42.52382" lon="1.82078">
        <ele>1509.5</ele>
        <time>2020-02-14T14:29:23.828Z</time>
      </trkpt>
      <trkpt lat="42.52381" lon="1.82072">
        <ele>1509.8</ele>
        <time>2020-02-14T14:29:26.088Z</time>
      </trkpt>
      <trkpt lat="42.52378" lon="1.82065">
        <ele>1510</ele>
        <time>2020-02-14T14:29:29.078Z</time>
      </trkpt>
      <trkpt lat="42.52376" lon="1.82058">
        <ele>1510.3</ele>
        <time>2020-02-14T14:29:31.518Z</time>
      </trkpt>
      <trkpt lat="42.52374" lon="1.82051">
        <ele>1510.5</ele>
        <time>2020-02-14T14:29:34.405Z</time>
      </trkpt>
      <trkpt lat="42.52373" lon="1.82045">
        <ele>1510.7</ele>
        <time>2020-02-14T14:29:36.810Z</time>
      </trkpt>
      <trkpt lat="42.52372" lon="1.82037">
        <ele>1511</ele>
        <time>2020-02-14T14:29:39.537Z</time>
      </trkpt>
      <trkpt lat="42.52372" lon="1.8203">
        <ele>1511.3</ele>
        <time>2020-02-14T14:29:42.060Z</time>
      </trkpt>
      <trkpt lat="42.52373" lon="1.82023">
        <ele>1511.7</ele>
        <time>2020-02-14T14:29:44.705Z</time>
      </trkpt>
      <trkpt lat="42.52374" lon="1.82017">
        <ele>1511.9</ele>
        <time>2020-02-14T14:29:47.096Z</time>
      </trkpt>
      <trkpt lat="42.52376" lon="1.8201">
        <ele>1512.3</ele>
        <time>2020-02-14T14:29:49.692Z</time>
      </trkpt>
      <trkpt lat="42.52378" lon="1.82003">
        <ele>1512.5</ele>
        <time>2020-02-14T14:29:52.523Z</time>
      </trkpt>
      <trkpt lat="42.52379" lon="1.81996">
        <ele>1512.7</ele>
        <time>2020-02-14T14:29:55.008Z</time>
      </trkpt>
      <trkpt lat="42.52381" lon="1.8199">
        <ele>1513.1</ele>
        <time>2020-02-14T14:29:57.403Z</time>
      </trkpt>
      <trkpt lat="42.52382" lon="1.81984">
        <ele>1513.3</ele>
        <time>2020-02-14T14:29:59.753Z</time>
      </trkpt>
      <trkpt lat="42.52384" lon="1.81977">
        <ele>1513.6</ele>
        <time>2020-02-14T14:30:02.286Z</time>
      </trkpt>
      <trkpt lat="42.52385" lon="1.81971">
        <ele>1513.9</ele>
        <time>2020-02-14T14:30:04.584Z</time>
      </trkpt>
      <trkpt lat="42.52386" lon="1.81964">
        <ele>1514</ele>
        <time>2020-02-14T14:30:07.173Z</time>
      </trkpt>
      <trkpt lat="42.52386" lon="1.81958">
        <ele>1514.3</ele>
        <time>2020-02-14T14:30:09.430Z</time>
      </trkpt>
      <trkpt lat="42.52387" lon="1.81951">
        <ele>1515.1</ele>
        <time>2020-02-14T14:30:12.046Z</time>
      </trkpt>
      <trkpt lat="42.52386" lon="1.81944">
        <ele>1515.9</ele>
        <time>2020-02-14T14:30:14.445Z</time>
      </trkpt>
      <trkpt lat="42.52382" lon="1.81939">
        <ele>1516.4</ele>
        <time>2020-02-14T14:30:16.912Z</time>
      </trkpt>
      <trkpt lat="42.52379" lon="1.81934">
        <ele>1516.9</ele>
        <time>2020-02-14T14:30:19.377Z</time>
      </trkpt>
      <trkpt lat="42.52376" lon="1.81929">
        <ele>1517.3</ele>
        <time>2020-02-14T14:30:21.785Z</time>
      </trkpt>
      <trkpt lat="42.52373" lon="1.81924">
        <ele>1517.7</ele>
        <time>2020-02-14T14:30:24.108Z</time>
      </trkpt>
      <trkpt lat="42.52371" lon="1.81918">
        <ele>1518.4</ele>
        <time>2020-02-14T14:30:26.406Z</time>
      </trkpt>
      <trkpt lat="42.52369" lon="1.81913">
        <ele>1519</ele>
        <time>2020-02-14T14:30:28.697Z</time>
      </trkpt>
      <trkpt lat="42.52367" lon="1.81906">
        <ele>1519.6</ele>
        <time>2020-02-14T14:30:31.279Z</time>
      </trkpt>
      <trkpt lat="42.52364" lon="1.81901">
        <ele>1520.2</ele>
        <time>2020-02-14T14:30:33.660Z</time>
      </trkpt>
      <trkpt lat="42.52363" lon="1.81895">
        <ele>1520.6</ele>
        <time>2020-02-14T14:30:35.916Z</time>
      </trkpt>
      <trkpt lat="42.52361" lon="1.81889">
        <ele>1521.2</ele>
        <time>2020-02-14T14:30:38.308Z</time>
      </trkpt>
      <trkpt lat="42.52357" lon="1.81884">
        <ele>1521.7</ele>
        <time>2020-02-14T14:30:40.720Z</time>
      </trkpt>
      <trkpt lat="42.52355" lon="1.81877">
        <ele>1522.4</ele>
        <time>2020-02-14T14:30:43.323Z</time>
      </trkpt>
      <trkpt lat="42.52355" lon="1.81871">
        <ele>1523.5</ele>
        <time>2020-02-14T14:30:45.742Z</time>
      </trkpt>
      <trkpt lat="42.52356" lon="1.81864">
        <ele>1524.8</ele>
        <time>2020-02-14T14:30:48.137Z</time>
      </trkpt>
      <trkpt lat="42.52357" lon="1.81858">
        <ele>1526.2</ele>
        <time>2020-02-14T14:30:50.632Z</time>
      </trkpt>
      <trkpt lat="42.52355" lon="1.81852">
        <ele>1527.3</ele>
        <time>2020-02-14T14:30:53.017Z</time>
      </trkpt>
      <trkpt lat="42.52354" lon="1.81846">
        <ele>1528.7</ele>
        <time>2020-02-14T14:30:55.606Z</time>
      </trkpt>
      <trkpt lat="42.52354" lon="1.81839">
        <ele>1530.1</ele>
        <time>2020-02-14T14:30:58.018Z</time>
      </trkpt>
      <trkpt lat="42.52354" lon="1.81832">
        <ele>1531.5</ele>
        <time>2020-02-14T14:31:00.569Z</time>
      </trkpt>
      <trkpt lat="42.52352" lon="1.81826">
        <ele>1532.7</ele>
        <time>2020-02-14T14:31:03.293Z</time>
      </trkpt>
      <trkpt lat="42.52348" lon="1.81821">
        <ele>1533.5</ele>
        <time>2020-02-14T14:31:05.643Z</time>
      </trkpt>
      <trkpt lat="42.52344" lon="1.81818">
        <ele>1534.2</ele>
        <time>2020-02-14T14:31:08.031Z</time>
      </trkpt>
      <trkpt lat="42.52341" lon="1.81813">
        <ele>1534.9</ele>
        <time>2020-02-14T14:31:10.291Z</time>
      </trkpt>
      <trkpt lat="42.52337" lon="1.81808">
        <ele>1535.9</ele>
        <time>2020-02-14T14:31:13.108Z</time>
      </trkpt>
      <trkpt lat="42.52333" lon="1.81804">
        <ele>1536.6</ele>
        <time>2020-02-14T14:31:15.666Z</time>
      </trkpt>
      <trkpt lat="42.52328" lon="1.818">
        <ele>1537.2</ele>
        <time>2020-02-14T14:31:18.244Z</time>
      </trkpt>
      <trkpt lat="42.52324" lon="1.81796">
        <ele>1537.8</ele>
        <time>2020-02-14T14:31:21.117Z</time>
      </trkpt>
      <trkpt lat="42.5232" lon="1.81791">
        <ele>1538.4</ele>
        <time>2020-02-14T14:31:23.543Z</time>
      </trkpt>
      <trkpt lat="42.52316" lon="1.81786">
        <ele>1539.5</ele>
        <time>2020-02-14T14:31:26.381Z</time>
      </trkpt>
      <trkpt lat="42.52312" lon="1.81782">
        <ele>1540.2</ele>
        <time>2020-02-14T14:31:28.886Z</time>
      </trkpt>
      <trkpt lat="42.52308" lon="1.81778">
        <ele>1540.8</ele>
        <time>2020-02-14T14:31:31.233Z</time>
      </trkpt>
      <trkpt lat="42.52304" lon="1.81774">
        <ele>1541.5</ele>
        <time>2020-02-14T14:31:33.649Z</time>
      </trkpt>
      <trkpt lat="42.523" lon="1.8177">
        <ele>1542.3</ele>
        <time>2020-02-14T14:31:36.186Z</time>
      </trkpt>
      <trkpt lat="42.52296" lon="1.81764">
        <ele>1543.2</ele>
        <time>2020-02-14T14:31:38.999Z</time>
      </trkpt>
      <trkpt lat="42.52294" lon="1.81758">
        <ele>1544.4</ele>
        <time>2020-02-14T14:31:41.654Z</time>
      </trkpt>
      <trkpt lat="42.52292" lon="1.81752">
        <ele>1545.7</ele>
        <time>2020-02-14T14:31:44.153Z</time>
      </trkpt>
      <trkpt lat="42.5229" lon="1.81746">
        <ele>1547</ele>
        <time>2020-02-14T14:31:46.548Z</time>
      </trkpt>
      <trkpt lat="42.52288" lon="1.8174">
        <ele>1548.3</ele>
        <time>2020-02-14T14:31:48.953Z</time>
      </trkpt>
      <trkpt lat="42.52285" lon="1.81736">
        <ele>1549.4</ele>
        <time>2020-02-14T14:31:51.320Z</time>
      </trkpt>
      <trkpt lat="42.52282" lon="1.81731">
        <ele>1550.6</ele>
        <time>2020-02-14T14:31:53.715Z</time>
      </trkpt>
      <trkpt lat="42.52278" lon="1.81726">
        <ele>1551.9</ele>
        <time>2020-02-14T14:31:56.134Z</time>
      </trkpt>
      <trkpt lat="42.52275" lon="1.8172">
        <ele>1553.4</ele>
        <time>2020-02-14T14:31:59.049Z</time>
      </trkpt>
      <trkpt lat="42.52272" lon="1.81715">
        <ele>1554.5</ele>
        <time>2020-02-14T14:32:01.478Z</time>
      </trkpt>
      <trkpt lat="42.52267" lon="1.81709">
        <ele>1556.2</ele>
        <time>2020-02-14T14:32:04.642Z</time>
      </trkpt>
      <trkpt lat="42.52264" lon="1.81703">
        <ele>1557.9</ele>
        <time>2020-02-14T14:32:07.386Z</time>
      </trkpt>
      <trkpt lat="42.52262" lon="1.81697">
        <ele>1559.8</ele>
        <time>2020-02-14T14:32:10.058Z</time>
      </trkpt>
      <trkpt lat="42.52262" lon="1.8169">
        <ele>1561.8</ele>
        <time>2020-02-14T14:32:12.640Z</time>
      </trkpt>
      <trkpt lat="42.52261" lon="1.81684">
        <ele>1563.6</ele>
        <time>2020-02-14T14:32:15.045Z</time>
      </trkpt>
      <trkpt lat="42.52259" lon="1.81678">
        <ele>1565.3</ele>
        <time>2020-02-14T14:32:17.579Z</time>
      </trkpt>
      <trkpt lat="42.52256" lon="1.81672">
        <ele>1566.9</ele>
        <time>2020-02-14T14:32:20.029Z</time>
      </trkpt>
      <trkpt lat="42.52253" lon="1.81666">
        <ele>1568.6</ele>
        <time>2020-02-14T14:32:22.832Z</time>
      </trkpt>
      <trkpt lat="42.52251" lon="1.81661">
        <ele>1570.3</ele>
        <time>2020-02-14T14:32:25.213Z</time>
      </trkpt>
      <trkpt lat="42.52249" lon="1.81655">
        <ele>1571.8</ele>
        <time>2020-02-14T14:32:27.646Z</time>
      </trkpt>
      <trkpt lat="42.52252" lon="1.81649">
        <ele>1573.5</ele>
        <time>2020-02-14T14:32:30.197Z</time>
      </trkpt>
      <trkpt lat="42.5225" lon="1.81643">
        <ele>1575</ele>
        <time>2020-02-14T14:32:32.616Z</time>
      </trkpt>
      <trkpt lat="42.52249" lon="1.81636">
        <ele>1577</ele>
        <time>2020-02-14T14:32:35.306Z</time>
      </trkpt>
      <trkpt lat="42.52246" lon="1.81631">
        <ele>1578.1</ele>
        <time>2020-02-14T14:32:37.645Z</time>
      </trkpt>
      <trkpt lat="42.52242" lon="1.81626">
        <ele>1579.4</ele>
        <time>2020-02-14T14:32:40.116Z</time>
      </trkpt>
      <trkpt lat="42.52238" lon="1.81624">
        <ele>1580.4</ele>
        <time>2020-02-14T14:32:42.681Z</time>
      </trkpt>
      <trkpt lat="42.52234" lon="1.8162">
        <ele>1582.1</ele>
        <time>2020-02-14T14:32:45.117Z</time>
      </trkpt>
      <trkpt lat="42.5223" lon="1.81616">
        <ele>1583.9</ele>
        <time>2020-02-14T14:32:47.727Z</time>
      </trkpt>
      <trkpt lat="42.52225" lon="1.81614">
        <ele>1584.8</ele>
        <time>2020-02-14T14:32:50.028Z</time>
      </trkpt>
      <trkpt lat="42.52221" lon="1.81612">
        <ele>1585.7</ele>
        <time>2020-02-14T14:32:52.555Z</time>
      </trkpt>
      <trkpt lat="42.52216" lon="1.8161">
        <ele>1586.4</ele>
        <time>2020-02-14T14:32:54.991Z</time>
      </trkpt>
      <trkpt lat="42.52211" lon="1.81608">
        <ele>1587</ele>
        <time>2020-02-14T14:32:57.428Z</time>
      </trkpt>
      <trkpt lat="42.52206" lon="1.81606">
        <ele>1588.1</ele>
        <time>2020-02-14T14:33:00.221Z</time>
      </trkpt>
      <trkpt lat="42.52201" lon="1.81605">
        <ele>1588.7</ele>
        <time>2020-02-14T14:33:02.609Z</time>
      </trkpt>
      <trkpt lat="42.52196" lon="1.81602">
        <ele>1589.9</ele>
        <time>2020-02-14T14:33:05.350Z</time>
      </trkpt>
      <trkpt lat="42.52191" lon="1.81601">
        <ele>1590.3</ele>
        <time>2020-02-14T14:33:07.814Z</time>
      </trkpt>
      <trkpt lat="42.52187" lon="1.816">
        <ele>1590.7</ele>
        <time>2020-02-14T14:33:10.054Z</time>
      </trkpt>
      <trkpt lat="42.52182" lon="1.81601">
        <ele>1590.5</ele>
        <time>2020-02-14T14:33:12.535Z</time>
      </trkpt>
      <trkpt lat="42.52177" lon="1.81601">
        <ele>1590.7</ele>
        <time>2020-02-14T14:33:14.909Z</time>
      </trkpt>
      <trkpt lat="42.52172" lon="1.81601">
        <ele>1590.6</ele>
        <time>2020-02-14T14:33:17.225Z</time>
      </trkpt>
      <trkpt lat="42.52167" lon="1.81601">
        <ele>1590.6</ele>
        <time>2020-02-14T14:33:19.737Z</time>
      </trkpt>
      <trkpt lat="42.52162" lon="1.81602">
        <ele>1590.4</ele>
        <time>2020-02-14T14:33:22.257Z</time>
      </trkpt>
      <trkpt lat="42.52157" lon="1.81602">
        <ele>1590.3</ele>
        <time>2020-02-14T14:33:24.828Z</time>
      </trkpt>
      <trkpt lat="42.52152" lon="1.81602">
        <ele>1590.3</ele>
        <time>2020-02-14T14:33:27.241Z</time>
      </trkpt>
      <trkpt lat="42.52147" lon="1.81602">
        <ele>1590.3</ele>
        <time>2020-02-14T14:33:29.605Z</time>
      </trkpt>
      <trkpt lat="42.52142" lon="1.81604">
        <ele>1589.6</ele>
        <time>2020-02-14T14:33:32.069Z</time>
      </trkpt>
      <trkpt lat="42.52137" lon="1.81606">
        <ele>1588.9</ele>
        <time>2020-02-14T14:33:34.661Z</time>
      </trkpt>
      <trkpt lat="42.52132" lon="1.81605">
        <ele>1589.5</ele>
        <time>2020-02-14T14:33:37.201Z</time>
      </trkpt>
      <trkpt lat="42.52127" lon="1.81601">
        <ele>1590.6</ele>
        <time>2020-02-14T14:33:39.953Z</time>
      </trkpt>
      <trkpt lat="42.52124" lon="1.81597">
        <ele>1592</ele>
        <time>2020-02-14T14:33:42.282Z</time>
      </trkpt>
      <trkpt lat="42.5212" lon="1.81593">
        <ele>1593.3</ele>
        <time>2020-02-14T14:33:44.905Z</time>
      </trkpt>
      <trkpt lat="42.52116" lon="1.81588">
        <ele>1594.6</ele>
        <time>2020-02-14T14:33:47.422Z</time>
      </trkpt>
      <trkpt lat="42.52112" lon="1.81586">
        <ele>1595.2</ele>
        <time>2020-02-14T14:33:49.817Z</time>
      </trkpt>
      <trkpt lat="42.52108" lon="1.81582">
        <ele>1596.1</ele>
        <time>2020-02-14T14:33:52.166Z</time>
      </trkpt>
      <trkpt lat="42.52104" lon="1.81578">
        <ele>1597.6</ele>
        <time>2020-02-14T14:33:54.651Z</time>
      </trkpt>
      <trkpt lat="42.52101" lon="1.81572">
        <ele>1599.5</ele>
        <time>2020-02-14T14:33:57.334Z</time>
      </trkpt>
      <trkpt lat="42.52098" lon="1.81567">
        <ele>1601.2</ele>
        <time>2020-02-14T14:33:59.791Z</time>
      </trkpt>
      <trkpt lat="42.52096" lon="1.81562">
        <ele>1603.1</ele>
        <time>2020-02-14T14:34:02.210Z</time>
      </trkpt>
      <trkpt lat="42.52092" lon="1.81556">
        <ele>1605.1</ele>
        <time>2020-02-14T14:34:05.145Z</time>
      </trkpt>
      <trkpt lat="42.52088" lon="1.81552">
        <ele>1606.7</ele>
        <time>2020-02-14T14:34:07.585Z</time>
      </trkpt>
      <trkpt lat="42.52085" lon="1.81547">
        <ele>1608.6</ele>
        <time>2020-02-14T14:34:10.323Z</time>
      </trkpt>
      <trkpt lat="42.52081" lon="1.81542">
        <ele>1610.6</ele>
        <time>2020-02-14T14:34:13.008Z</time>
      </trkpt>
      <trkpt lat="42.52079" lon="1.81536">
        <ele>1613.7</ele>
        <time>2020-02-14T14:34:15.895Z</time>
      </trkpt>
      <trkpt lat="42.52074" lon="1.81533">
        <ele>1615</ele>
        <time>2020-02-14T14:34:18.328Z</time>
      </trkpt>
      <trkpt lat="42.52069" lon="1.81533">
        <ele>1615</ele>
        <time>2020-02-14T14:34:20.989Z</time>
      </trkpt>
      <trkpt lat="42.52064" lon="1.81534">
        <ele>1614.5</ele>
        <time>2020-02-14T14:34:23.339Z</time>
      </trkpt>
      <trkpt lat="42.52059" lon="1.81533">
        <ele>1615.3</ele>
        <time>2020-02-14T14:34:25.831Z</time>
      </trkpt>
      <trkpt lat="42.52054" lon="1.81534">
        <ele>1614.8</ele>
        <time>2020-02-14T14:34:28.340Z</time>
      </trkpt>
      <trkpt lat="42.5205" lon="1.81532">
        <ele>1615.8</ele>
        <time>2020-02-14T14:34:30.742Z</time>
      </trkpt>
      <trkpt lat="42.52045" lon="1.81529">
        <ele>1617.4</ele>
        <time>2020-02-14T14:34:33.227Z</time>
      </trkpt>
      <trkpt lat="42.5204" lon="1.8153">
        <ele>1617.3</ele>
        <time>2020-02-14T14:34:35.691Z</time>
      </trkpt>
      <trkpt lat="42.52035" lon="1.8153">
        <ele>1617.4</ele>
        <time>2020-02-14T14:34:38.111Z</time>
      </trkpt>
      <trkpt lat="42.52029" lon="1.81531">
        <ele>1617.2</ele>
        <time>2020-02-14T14:34:41.219Z</time>
      </trkpt>
      <trkpt lat="42.52023" lon="1.8153">
        <ele>1617.6</ele>
        <time>2020-02-14T14:34:44.084Z</time>
      </trkpt>
      <trkpt lat="42.52019" lon="1.81529">
        <ele>1618.7</ele>
        <time>2020-02-14T14:34:46.448Z</time>
      </trkpt>
      <trkpt lat="42.52014" lon="1.81529">
        <ele>1619</ele>
        <time>2020-02-14T14:34:48.961Z</time>
      </trkpt>
      <trkpt lat="42.52009" lon="1.81527">
        <ele>1620</ele>
        <time>2020-02-14T14:34:51.314Z</time>
      </trkpt>
      <trkpt lat="42.52004" lon="1.81528">
        <ele>1619.9</ele>
        <time>2020-02-14T14:34:53.796Z</time>
      </trkpt>
      <trkpt lat="42.51999" lon="1.81526">
        <ele>1620.8</ele>
        <time>2020-02-14T14:34:56.526Z</time>
      </trkpt>
      <trkpt lat="42.51994" lon="1.81524">
        <ele>1622</ele>
        <time>2020-02-14T14:34:59.094Z</time>
      </trkpt>
      <trkpt lat="42.51989" lon="1.81523">
        <ele>1623.1</ele>
        <time>2020-02-14T14:35:01.822Z</time>
      </trkpt>
      <trkpt lat="42.51984" lon="1.8152">
        <ele>1624.9</ele>
        <time>2020-02-14T14:35:04.393Z</time>
      </trkpt>
      <trkpt lat="42.51979" lon="1.81515">
        <ele>1627.2</ele>
        <time>2020-02-14T14:35:07.370Z</time>
      </trkpt>
      <trkpt lat="42.51975" lon="1.81513">
        <ele>1628.8</ele>
        <time>2020-02-14T14:35:09.844Z</time>
      </trkpt>
      <trkpt lat="42.5197" lon="1.81511">
        <ele>1630</ele>
        <time>2020-02-14T14:35:12.502Z</time>
      </trkpt>
      <trkpt lat="42.51964" lon="1.81508">
        <ele>1631.6</ele>
        <time>2020-02-14T14:35:15.430Z</time>
      </trkpt>
      <trkpt lat="42.51959" lon="1.81507">
        <ele>1632.4</ele>
        <time>2020-02-14T14:35:18.106Z</time>
      </trkpt>
      <trkpt lat="42.51955" lon="1.81503">
        <ele>1634.5</ele>
        <time>2020-02-14T14:35:20.784Z</time>
      </trkpt>
      <trkpt lat="42.5195" lon="1.81501">
        <ele>1635.9</ele>
        <time>2020-02-14T14:35:23.363Z</time>
      </trkpt>
      <trkpt lat="42.51945" lon="1.815">
        <ele>1636.4</ele>
        <time>2020-02-14T14:35:25.900Z</time>
      </trkpt>
      <trkpt lat="42.5194" lon="1.81498">
        <ele>1637.6</ele>
        <time>2020-02-14T14:35:28.388Z</time>
      </trkpt>
      <trkpt lat="42.51933" lon="1.81496">
        <ele>1638.7</ele>
        <time>2020-02-14T14:35:31.932Z</time>
      </trkpt>
      <trkpt lat="42.51929" lon="1.81495">
        <ele>1639.2</ele>
        <time>2020-02-14T14:35:34.324Z</time>
      </trkpt>
      <trkpt lat="42.51924" lon="1.81491">
        <ele>1641.1</ele>
        <time>2020-02-14T14:35:36.912Z</time>
      </trkpt>
      <trkpt lat="42.51921" lon="1.81488">
        <ele>1642.8</ele>
        <time>2020-02-14T14:35:39.307Z</time>
      </trkpt>
      <trkpt lat="42.51916" lon="1.81486">
        <ele>1643.6</ele>
        <time>2020-02-14T14:35:41.574Z</time>
      </trkpt>
      <trkpt lat="42.51912" lon="1.81483">
        <ele>1644.8</ele>
        <time>2020-02-14T14:35:44.049Z</time>
      </trkpt>
      <trkpt lat="42.51907" lon="1.8148">
        <ele>1646.3</ele>
        <time>2020-02-14T14:35:46.700Z</time>
      </trkpt>
      <trkpt lat="42.51902" lon="1.81479">
        <ele>1647</ele>
        <time>2020-02-14T14:35:49.303Z</time>
      </trkpt>
      <trkpt lat="42.51898" lon="1.81476">
        <ele>1648.3</ele>
        <time>2020-02-14T14:35:51.843Z</time>
      </trkpt>
      <trkpt lat="42.51893" lon="1.81471">
        <ele>1650.1</ele>
        <time>2020-02-14T14:35:54.553Z</time>
      </trkpt>
      <trkpt lat="42.51889" lon="1.81468">
        <ele>1651.6</ele>
        <time>2020-02-14T14:35:57.014Z</time>
      </trkpt>
      <trkpt lat="42.51885" lon="1.81466">
        <ele>1652.1</ele>
        <time>2020-02-14T14:35:59.343Z</time>
      </trkpt>
      <trkpt lat="42.5188" lon="1.81464">
        <ele>1653</ele>
        <time>2020-02-14T14:36:02.087Z</time>
      </trkpt>
      <trkpt lat="42.51875" lon="1.81463">
        <ele>1653.2</ele>
        <time>2020-02-14T14:36:04.427Z</time>
      </trkpt>
      <trkpt lat="42.5187" lon="1.81464">
        <ele>1652.5</ele>
        <time>2020-02-14T14:36:06.794Z</time>
      </trkpt>
      <trkpt lat="42.51865" lon="1.81463">
        <ele>1652.6</ele>
        <time>2020-02-14T14:36:09.175Z</time>
      </trkpt>
      <trkpt lat="42.51861" lon="1.81462">
        <ele>1652.8</ele>
        <time>2020-02-14T14:36:11.456Z</time>
      </trkpt>
      <trkpt lat="42.51856" lon="1.8146">
        <ele>1653.1</ele>
        <time>2020-02-14T14:36:13.986Z</time>
      </trkpt>
      <trkpt lat="42.51851" lon="1.81458">
        <ele>1653.8</ele>
        <time>2020-02-14T14:36:16.423Z</time>
      </trkpt>
      <trkpt lat="42.51847" lon="1.81455">
        <ele>1654.7</ele>
        <time>2020-02-14T14:36:18.814Z</time>
      </trkpt>
      <trkpt lat="42.51842" lon="1.81454">
        <ele>1654.9</ele>
        <time>2020-02-14T14:36:21.455Z</time>
      </trkpt>
      <trkpt lat="42.51837" lon="1.81451">
        <ele>1655.9</ele>
        <time>2020-02-14T14:36:23.992Z</time>
      </trkpt>
      <trkpt lat="42.51833" lon="1.81448">
        <ele>1656.6</ele>
        <time>2020-02-14T14:36:26.390Z</time>
      </trkpt>
      <trkpt lat="42.51829" lon="1.81444">
        <ele>1657.6</ele>
        <time>2020-02-14T14:36:29.007Z</time>
      </trkpt>
      <trkpt lat="42.51824" lon="1.81441">
        <ele>1658.3</ele>
        <time>2020-02-14T14:36:31.505Z</time>
      </trkpt>
      <trkpt lat="42.5182" lon="1.81442">
        <ele>1657.5</ele>
        <time>2020-02-14T14:36:33.741Z</time>
      </trkpt>
      <trkpt lat="42.51815" lon="1.81441">
        <ele>1657.3</ele>
        <time>2020-02-14T14:36:36.230Z</time>
      </trkpt>
      <trkpt lat="42.5181" lon="1.8144">
        <ele>1657.2</ele>
        <time>2020-02-14T14:36:38.549Z</time>
      </trkpt>
      <trkpt lat="42.51805" lon="1.81437">
        <ele>1657.4</ele>
        <time>2020-02-14T14:36:41.407Z</time>
      </trkpt>
      <trkpt lat="42.51799" lon="1.81437">
        <ele>1656.7</ele>
        <time>2020-02-14T14:36:43.937Z</time>
      </trkpt>
      <trkpt lat="42.51795" lon="1.81435">
        <ele>1656.9</ele>
        <time>2020-02-14T14:36:46.405Z</time>
      </trkpt>
      <trkpt lat="42.51791" lon="1.8143">
        <ele>1657.8</ele>
        <time>2020-02-14T14:36:49.035Z</time>
      </trkpt>
      <trkpt lat="42.51787" lon="1.81425">
        <ele>1659.6</ele>
        <time>2020-02-14T14:36:51.759Z</time>
      </trkpt>
      <trkpt lat="42.51785" lon="1.8142">
        <ele>1661</ele>
        <time>2020-02-14T14:36:54.067Z</time>
      </trkpt>
      <trkpt lat="42.51781" lon="1.81415">
        <ele>1662.3</ele>
        <time>2020-02-14T14:36:56.504Z</time>
      </trkpt>
      <trkpt lat="42.51777" lon="1.81411">
        <ele>1663.6</ele>
        <time>2020-02-14T14:36:59.380Z</time>
      </trkpt>
      <trkpt lat="42.51772" lon="1.81408">
        <ele>1664.2</ele>
        <time>2020-02-14T14:37:01.727Z</time>
      </trkpt>
      <trkpt lat="42.51769" lon="1.81401">
        <ele>1666</ele>
        <time>2020-02-14T14:37:04.855Z</time>
      </trkpt>
      <trkpt lat="42.51766" lon="1.81396">
        <ele>1667.2</ele>
        <time>2020-02-14T14:37:07.316Z</time>
      </trkpt>
      <trkpt lat="42.51762" lon="1.81391">
        <ele>1668</ele>
        <time>2020-02-14T14:37:09.905Z</time>
      </trkpt>
      <trkpt lat="42.51761" lon="1.81384">
        <ele>1669.6</ele>
        <time>2020-02-14T14:37:12.705Z</time>
      </trkpt>
      <trkpt lat="42.51762" lon="1.81377">
        <ele>1671.2</ele>
        <time>2020-02-14T14:37:15.377Z</time>
      </trkpt>
      <trkpt lat="42.51759" lon="1.81371">
        <ele>1672</ele>
        <time>2020-02-14T14:37:17.720Z</time>
      </trkpt>
      <trkpt lat="42.51756" lon="1.81365">
        <ele>1672.8</ele>
        <time>2020-02-14T14:37:20.350Z</time>
      </trkpt>
      <trkpt lat="42.51755" lon="1.81359">
        <ele>1673.7</ele>
        <time>2020-02-14T14:37:22.783Z</time>
      </trkpt>
      <trkpt lat="42.51754" lon="1.81352">
        <ele>1674.8</ele>
        <time>2020-02-14T14:37:25.441Z</time>
      </trkpt>
      <trkpt lat="42.51752" lon="1.81343">
        <ele>1675.9</ele>
        <time>2020-02-14T14:37:28.736Z</time>
      </trkpt>
      <trkpt lat="42.51753" lon="1.81337">
        <ele>1677</ele>
        <time>2020-02-14T14:37:31.141Z</time>
      </trkpt>
      <trkpt lat="42.51752" lon="1.81331">
        <ele>1677.6</ele>
        <time>2020-02-14T14:37:33.547Z</time>
      </trkpt>
      <trkpt lat="42.5175" lon="1.81324">
        <ele>1678.5</ele>
        <time>2020-02-14T14:37:36.167Z</time>
      </trkpt>
      <trkpt lat="42.51747" lon="1.81318">
        <ele>1678.8</ele>
        <time>2020-02-14T14:37:38.627Z</time>
      </trkpt>
      <trkpt lat="42.51744" lon="1.81313">
        <ele>1679</ele>
        <time>2020-02-14T14:37:41.143Z</time>
      </trkpt>
      <trkpt lat="42.51742" lon="1.81307">
        <ele>1679.4</ele>
        <time>2020-02-14T14:37:43.424Z</time>
      </trkpt>
      <trkpt lat="42.51741" lon="1.81301">
        <ele>1680</ele>
        <time>2020-02-14T14:37:45.795Z</time>
      </trkpt>
      <trkpt lat="42.51739" lon="1.81294">
        <ele>1680.6</ele>
        <time>2020-02-14T14:37:48.269Z</time>
      </trkpt>
      <trkpt lat="42.51738" lon="1.81288">
        <ele>1681.4</ele>
        <time>2020-02-14T14:37:50.744Z</time>
      </trkpt>
      <trkpt lat="42.51737" lon="1.8128">
        <ele>1682.2</ele>
        <time>2020-02-14T14:37:53.489Z</time>
      </trkpt>
      <trkpt lat="42.51736" lon="1.81274">
        <ele>1682.8</ele>
        <time>2020-02-14T14:37:56.081Z</time>
      </trkpt>
      <trkpt lat="42.51735" lon="1.81266">
        <ele>1683.7</ele>
        <time>2020-02-14T14:37:58.953Z</time>
      </trkpt>
      <trkpt lat="42.51733" lon="1.81259">
        <ele>1684.3</ele>
        <time>2020-02-14T14:38:01.560Z</time>
      </trkpt>
      <trkpt lat="42.51731" lon="1.81254">
        <ele>1684.7</ele>
        <time>2020-02-14T14:38:03.840Z</time>
      </trkpt>
      <trkpt lat="42.5173" lon="1.81247">
        <ele>1685.4</ele>
        <time>2020-02-14T14:38:06.284Z</time>
      </trkpt>
      <trkpt lat="42.51727" lon="1.81242">
        <ele>1685.6</ele>
        <time>2020-02-14T14:38:08.658Z</time>
      </trkpt>
      <trkpt lat="42.51726" lon="1.81235">
        <ele>1686.1</ele>
        <time>2020-02-14T14:38:11.025Z</time>
      </trkpt>
      <trkpt lat="42.51724" lon="1.81228">
        <ele>1686.6</ele>
        <time>2020-02-14T14:38:13.829Z</time>
      </trkpt>
      <trkpt lat="42.51723" lon="1.81222">
        <ele>1687.2</ele>
        <time>2020-02-14T14:38:16.217Z</time>
      </trkpt>
      <trkpt lat="42.51722" lon="1.81216">
        <ele>1687.7</ele>
        <time>2020-02-14T14:38:18.511Z</time>
      </trkpt>
      <trkpt lat="42.5172" lon="1.81208">
        <ele>1688.2</ele>
        <time>2020-02-14T14:38:21.318Z</time>
      </trkpt>
      <trkpt lat="42.51717" lon="1.81203">
        <ele>1688</ele>
        <time>2020-02-14T14:38:23.685Z</time>
      </trkpt>
      <trkpt lat="42.51714" lon="1.81197">
        <ele>1688</ele>
        <time>2020-02-14T14:38:26.143Z</time>
      </trkpt>
      <trkpt lat="42.51712" lon="1.81192">
        <ele>1688</ele>
        <time>2020-02-14T14:38:28.489Z</time>
      </trkpt>
      <trkpt lat="42.51709" lon="1.81185">
        <ele>1688</ele>
        <time>2020-02-14T14:38:31.421Z</time>
      </trkpt>
      <trkpt lat="42.51707" lon="1.8118">
        <ele>1688.6</ele>
        <time>2020-02-14T14:38:33.698Z</time>
      </trkpt>
      <trkpt lat="42.51706" lon="1.81173">
        <ele>1689.5</ele>
        <time>2020-02-14T14:38:36.117Z</time>
      </trkpt>
      <trkpt lat="42.51704" lon="1.81167">
        <ele>1690.3</ele>
        <time>2020-02-14T14:38:38.415Z</time>
      </trkpt>
      <trkpt lat="42.51701" lon="1.81162">
        <ele>1691.1</ele>
        <time>2020-02-14T14:38:40.641Z</time>
      </trkpt>
      <trkpt lat="42.51699" lon="1.81156">
        <ele>1692</ele>
        <time>2020-02-14T14:38:43.416Z</time>
      </trkpt>
      <trkpt lat="42.51696" lon="1.81151">
        <ele>1692.6</ele>
        <time>2020-02-14T14:38:45.742Z</time>
      </trkpt>
      <trkpt lat="42.51693" lon="1.81145">
        <ele>1693.3</ele>
        <time>2020-02-14T14:38:48.130Z</time>
      </trkpt>
      <trkpt lat="42.5169" lon="1.8114">
        <ele>1693.9</ele>
        <time>2020-02-14T14:38:50.805Z</time>
      </trkpt>
      <trkpt lat="42.51688" lon="1.81134">
        <ele>1694.6</ele>
        <time>2020-02-14T14:38:53.093Z</time>
      </trkpt>
      <trkpt lat="42.51686" lon="1.81128">
        <ele>1695.2</ele>
        <time>2020-02-14T14:38:55.526Z</time>
      </trkpt>
      <trkpt lat="42.51684" lon="1.81122">
        <ele>1695.6</ele>
        <time>2020-02-14T14:38:57.821Z</time>
      </trkpt>
      <trkpt lat="42.51684" lon="1.81115">
        <ele>1696.4</ele>
        <time>2020-02-14T14:39:00.420Z</time>
      </trkpt>
      <trkpt lat="42.51685" lon="1.81108">
        <ele>1697.1</ele>
        <time>2020-02-14T14:39:02.995Z</time>
      </trkpt>
      <trkpt lat="42.51684" lon="1.811">
        <ele>1697.8</ele>
        <time>2020-02-14T14:39:05.736Z</time>
      </trkpt>
      <trkpt lat="42.51684" lon="1.81093">
        <ele>1698.4</ele>
        <time>2020-02-14T14:39:08.370Z</time>
      </trkpt>
      <trkpt lat="42.51683" lon="1.81086">
        <ele>1699.1</ele>
        <time>2020-02-14T14:39:11.035Z</time>
      </trkpt>
      <trkpt lat="42.51682" lon="1.81079">
        <ele>1699.6</ele>
        <time>2020-02-14T14:39:13.513Z</time>
      </trkpt>
      <trkpt lat="42.51682" lon="1.81073">
        <ele>1700.2</ele>
        <time>2020-02-14T14:39:15.818Z</time>
      </trkpt>
      <trkpt lat="42.51682" lon="1.81066">
        <ele>1701</ele>
        <time>2020-02-14T14:39:18.268Z</time>
      </trkpt>
      <trkpt lat="42.51682" lon="1.8106">
        <ele>1701.5</ele>
        <time>2020-02-14T14:39:20.680Z</time>
      </trkpt>
      <trkpt lat="42.51681" lon="1.81052">
        <ele>1702.2</ele>
        <time>2020-02-14T14:39:23.626Z</time>
      </trkpt>
      <trkpt lat="42.51681" lon="1.81044">
        <ele>1702.8</ele>
        <time>2020-02-14T14:39:26.374Z</time>
      </trkpt>
      <trkpt lat="42.51681" lon="1.81037">
        <ele>1703.5</ele>
        <time>2020-02-14T14:39:28.942Z</time>
      </trkpt>
      <trkpt lat="42.5168" lon="1.8103">
        <ele>1704.5</ele>
        <time>2020-02-14T14:39:31.700Z</time>
      </trkpt>
      <trkpt lat="42.51681" lon="1.81023">
        <ele>1705.2</ele>
        <time>2020-02-14T14:39:34.054Z</time>
      </trkpt>
      <trkpt lat="42.51679" lon="1.81017">
        <ele>1705.7</ele>
        <time>2020-02-14T14:39:36.445Z</time>
      </trkpt>
      <trkpt lat="42.51679" lon="1.8101">
        <ele>1706.5</ele>
        <time>2020-02-14T14:39:38.982Z</time>
      </trkpt>
      <trkpt lat="42.51679" lon="1.81004">
        <ele>1707.2</ele>
        <time>2020-02-14T14:39:41.256Z</time>
      </trkpt>
      <trkpt lat="42.51677" lon="1.80997">
        <ele>1707.7</ele>
        <time>2020-02-14T14:39:44.004Z</time>
      </trkpt>
      <trkpt lat="42.51675" lon="1.80991">
        <ele>1708.1</ele>
        <time>2020-02-14T14:39:46.302Z</time>
      </trkpt>
      <trkpt lat="42.51675" lon="1.80984">
        <ele>1708.8</ele>
        <time>2020-02-14T14:39:48.763Z</time>
      </trkpt>
      <trkpt lat="42.51672" lon="1.80978">
        <ele>1709</ele>
        <time>2020-02-14T14:39:51.452Z</time>
      </trkpt>
      <trkpt lat="42.51669" lon="1.80972">
        <ele>1709.2</ele>
        <time>2020-02-14T14:39:54.117Z</time>
      </trkpt>
      <trkpt lat="42.5167" lon="1.80965">
        <ele>1710</ele>
        <time>2020-02-14T14:39:56.616Z</time>
      </trkpt>
      <trkpt lat="42.51668" lon="1.80959">
        <ele>1710.4</ele>
        <time>2020-02-14T14:39:59.080Z</time>
      </trkpt>
      <trkpt lat="42.51667" lon="1.80952">
        <ele>1711</ele>
        <time>2020-02-14T14:40:01.679Z</time>
      </trkpt>
      <trkpt lat="42.51665" lon="1.80944">
        <ele>1711.6</ele>
        <time>2020-02-14T14:40:04.441Z</time>
      </trkpt>
      <trkpt lat="42.51664" lon="1.80938">
        <ele>1712.2</ele>
        <time>2020-02-14T14:40:06.974Z</time>
      </trkpt>
      <trkpt lat="42.51662" lon="1.80931">
        <ele>1712.8</ele>
        <time>2020-02-14T14:40:09.438Z</time>
      </trkpt>
      <trkpt lat="42.51662" lon="1.80925">
        <ele>1713.4</ele>
        <time>2020-02-14T14:40:11.681Z</time>
      </trkpt>
      <trkpt lat="42.51661" lon="1.80919">
        <ele>1714</ele>
        <time>2020-02-14T14:40:14.142Z</time>
      </trkpt>
      <trkpt lat="42.51658" lon="1.80913">
        <ele>1714.2</ele>
        <time>2020-02-14T14:40:16.558Z</time>
      </trkpt>
      <trkpt lat="42.51657" lon="1.80907">
        <ele>1714.9</ele>
        <time>2020-02-14T14:40:18.953Z</time>
      </trkpt>
      <trkpt lat="42.51655" lon="1.80901">
        <ele>1715.4</ele>
        <time>2020-02-14T14:40:21.313Z</time>
      </trkpt>
      <trkpt lat="42.51654" lon="1.80893">
        <ele>1715.9</ele>
        <time>2020-02-14T14:40:24.172Z</time>
      </trkpt>
      <trkpt lat="42.51652" lon="1.80887">
        <ele>1716.4</ele>
        <time>2020-02-14T14:40:26.653Z</time>
      </trkpt>
      <trkpt lat="42.5165" lon="1.80881">
        <ele>1716.8</ele>
        <time>2020-02-14T14:40:29.072Z</time>
      </trkpt>
      <trkpt lat="42.51647" lon="1.80876">
        <ele>1716.8</ele>
        <time>2020-02-14T14:40:31.350Z</time>
      </trkpt>
      <trkpt lat="42.51645" lon="1.8087">
        <ele>1717.2</ele>
        <time>2020-02-14T14:40:33.651Z</time>
      </trkpt>
      <trkpt lat="42.5164" lon="1.80867">
        <ele>1716.5</ele>
        <time>2020-02-14T14:40:36.119Z</time>
      </trkpt>
      <trkpt lat="42.51636" lon="1.80864">
        <ele>1716</ele>
        <time>2020-02-14T14:40:38.850Z</time>
      </trkpt>
      <trkpt lat="42.51632" lon="1.80857">
        <ele>1715.9</ele>
        <time>2020-02-14T14:40:41.715Z</time>
      </trkpt>
      <trkpt lat="42.51629" lon="1.80852">
        <ele>1716.1</ele>
        <time>2020-02-14T14:40:44.238Z</time>
      </trkpt>
      <trkpt lat="42.51629" lon="1.80845">
        <ele>1717</ele>
        <time>2020-02-14T14:40:46.491Z</time>
      </trkpt>
      <trkpt lat="42.51629" lon="1.80839">
        <ele>1717.7</ele>
        <time>2020-02-14T14:40:48.966Z</time>
      </trkpt>
      <trkpt lat="42.51626" lon="1.80834">
        <ele>1717.8</ele>
        <time>2020-02-14T14:40:51.278Z</time>
      </trkpt>
      <trkpt lat="42.51623" lon="1.80828">
        <ele>1718.2</ele>
        <time>2020-02-14T14:40:53.690Z</time>
      </trkpt>
      <trkpt lat="42.5162" lon="1.80824">
        <ele>1718.4</ele>
        <time>2020-02-14T14:40:55.923Z</time>
      </trkpt>
      <trkpt lat="42.51617" lon="1.80818">
        <ele>1718.9</ele>
        <time>2020-02-14T14:40:58.563Z</time>
      </trkpt>
      <trkpt lat="42.51613" lon="1.80813">
        <ele>1719.3</ele>
        <time>2020-02-14T14:41:00.972Z</time>
      </trkpt>
      <trkpt lat="42.51609" lon="1.80808">
        <ele>1719.3</ele>
        <time>2020-02-14T14:41:03.782Z</time>
      </trkpt>
      <trkpt lat="42.51605" lon="1.80805">
        <ele>1719.3</ele>
        <time>2020-02-14T14:41:06.191Z</time>
      </trkpt>
      <trkpt lat="42.51601" lon="1.80801">
        <ele>1719.3</ele>
        <time>2020-02-14T14:41:08.375Z</time>
      </trkpt>
      <trkpt lat="42.51599" lon="1.80795">
        <ele>1719.7</ele>
        <time>2020-02-14T14:41:10.818Z</time>
      </trkpt>
      <trkpt lat="42.51595" lon="1.80792">
        <ele>1719.4</ele>
        <time>2020-02-14T14:41:13.137Z</time>
      </trkpt>
      <trkpt lat="42.51591" lon="1.80791">
        <ele>1719.1</ele>
        <time>2020-02-14T14:41:15.439Z</time>
      </trkpt>
      <trkpt lat="42.51586" lon="1.80788">
        <ele>1718.9</ele>
        <time>2020-02-14T14:41:17.979Z</time>
      </trkpt>
      <trkpt lat="42.51581" lon="1.80786">
        <ele>1718.6</ele>
        <time>2020-02-14T14:41:20.353Z</time>
      </trkpt>
      <trkpt lat="42.51577" lon="1.80783">
        <ele>1718.7</ele>
        <time>2020-02-14T14:41:22.655Z</time>
      </trkpt>
      <trkpt lat="42.51574" lon="1.80778">
        <ele>1718.9</ele>
        <time>2020-02-14T14:41:24.995Z</time>
      </trkpt>
      <trkpt lat="42.51572" lon="1.80773">
        <ele>1719.4</ele>
        <time>2020-02-14T14:41:27.355Z</time>
      </trkpt>
      <trkpt lat="42.51569" lon="1.80766">
        <ele>1720.1</ele>
        <time>2020-02-14T14:41:30.034Z</time>
      </trkpt>
      <trkpt lat="42.51567" lon="1.8076">
        <ele>1720.7</ele>
        <time>2020-02-14T14:41:32.553Z</time>
      </trkpt>
      <trkpt lat="42.51564" lon="1.80755">
        <ele>1720.7</ele>
        <time>2020-02-14T14:41:34.789Z</time>
      </trkpt>
      <trkpt lat="42.51563" lon="1.80747">
        <ele>1721.6</ele>
        <time>2020-02-14T14:41:37.700Z</time>
      </trkpt>
      <trkpt lat="42.5156" lon="1.80742">
        <ele>1721.7</ele>
        <time>2020-02-14T14:41:40.098Z</time>
      </trkpt>
      <trkpt lat="42.51556" lon="1.80737">
        <ele>1721.6</ele>
        <time>2020-02-14T14:41:42.732Z</time>
      </trkpt>
      <trkpt lat="42.51553" lon="1.80732">
        <ele>1721.7</ele>
        <time>2020-02-14T14:41:45.158Z</time>
      </trkpt>
      <trkpt lat="42.51551" lon="1.80726">
        <ele>1722.1</ele>
        <time>2020-02-14T14:41:47.619Z</time>
      </trkpt>
      <trkpt lat="42.51549" lon="1.80719">
        <ele>1722.4</ele>
        <time>2020-02-14T14:41:50.329Z</time>
      </trkpt>
      <trkpt lat="42.51546" lon="1.80714">
        <ele>1722.5</ele>
        <time>2020-02-14T14:41:52.585Z</time>
      </trkpt>
      <trkpt lat="42.51546" lon="1.80707">
        <ele>1723.2</ele>
        <time>2020-02-14T14:41:55.077Z</time>
      </trkpt>
      <trkpt lat="42.51546" lon="1.807">
        <ele>1724.5</ele>
        <time>2020-02-14T14:41:57.469Z</time>
      </trkpt>
      <trkpt lat="42.51547" lon="1.80694">
        <ele>1725.8</ele>
        <time>2020-02-14T14:42:00.061Z</time>
      </trkpt>
      <trkpt lat="42.51547" lon="1.80687">
        <ele>1727</ele>
        <time>2020-02-14T14:42:02.650Z</time>
      </trkpt>
      <trkpt lat="42.51546" lon="1.80678">
        <ele>1728.4</ele>
        <time>2020-02-14T14:42:05.913Z</time>
      </trkpt>
      <trkpt lat="42.51545" lon="1.8067">
        <ele>1729.5</ele>
        <time>2020-02-14T14:42:08.938Z</time>
      </trkpt>
      <trkpt lat="42.51546" lon="1.80663">
        <ele>1730.7</ele>
        <time>2020-02-14T14:42:11.285Z</time>
      </trkpt>
      <trkpt lat="42.51549" lon="1.80658">
        <ele>1732.4</ele>
        <time>2020-02-14T14:42:13.881Z</time>
      </trkpt>
      <trkpt lat="42.51553" lon="1.80655">
        <ele>1733.9</ele>
        <time>2020-02-14T14:42:16.161Z</time>
      </trkpt>
      <trkpt lat="42.51555" lon="1.80649">
        <ele>1735.5</ele>
        <time>2020-02-14T14:42:18.650Z</time>
      </trkpt>
      <trkpt lat="42.51557" lon="1.80642">
        <ele>1737</ele>
        <time>2020-02-14T14:42:21.318Z</time>
      </trkpt>
      <trkpt lat="42.51558" lon="1.80635">
        <ele>1738.6</ele>
        <time>2020-02-14T14:42:24.139Z</time>
      </trkpt>
      <trkpt lat="42.51558" lon="1.80628">
        <ele>1739.8</ele>
        <time>2020-02-14T14:42:26.520Z</time>
      </trkpt>
      <trkpt lat="42.51555" lon="1.80623">
        <ele>1740</ele>
        <time>2020-02-14T14:42:28.867Z</time>
      </trkpt>
      <trkpt lat="42.51555" lon="1.80617">
        <ele>1741</ele>
        <time>2020-02-14T14:42:31.154Z</time>
      </trkpt>
      <trkpt lat="42.51553" lon="1.80611">
        <ele>1741.6</ele>
        <time>2020-02-14T14:42:33.425Z</time>
      </trkpt>
      <trkpt lat="42.51552" lon="1.80605">
        <ele>1742.5</ele>
        <time>2020-02-14T14:42:35.688Z</time>
      </trkpt>
      <trkpt lat="42.51552" lon="1.80599">
        <ele>1743.7</ele>
        <time>2020-02-14T14:42:38.111Z</time>
      </trkpt>
      <trkpt lat="42.5155" lon="1.80591">
        <ele>1744.4</ele>
        <time>2020-02-14T14:42:40.938Z</time>
      </trkpt>
      <trkpt lat="42.51549" lon="1.80585">
        <ele>1744.9</ele>
        <time>2020-02-14T14:42:43.454Z</time>
      </trkpt>
      <trkpt lat="42.51546" lon="1.80579">
        <ele>1745.2</ele>
        <time>2020-02-14T14:42:45.742Z</time>
      </trkpt>
      <trkpt lat="42.51542" lon="1.80577">
        <ele>1744.1</ele>
        <time>2020-02-14T14:42:48.123Z</time>
      </trkpt>
      <trkpt lat="42.51539" lon="1.80571">
        <ele>1745.2</ele>
        <time>2020-02-14T14:42:50.660Z</time>
      </trkpt>
      <trkpt lat="42.51536" lon="1.80567">
        <ele>1746.1</ele>
        <time>2020-02-14T14:42:52.941Z</time>
      </trkpt>
      <trkpt lat="42.51533" lon="1.80562">
        <ele>1747</ele>
        <time>2020-02-14T14:42:55.402Z</time>
      </trkpt>
      <trkpt lat="42.51531" lon="1.80555">
        <ele>1748</ele>
        <time>2020-02-14T14:42:57.810Z</time>
      </trkpt>
      <trkpt lat="42.51528" lon="1.80549">
        <ele>1749</ele>
        <time>2020-02-14T14:43:00.482Z</time>
      </trkpt>
      <trkpt lat="42.51525" lon="1.80544">
        <ele>1749.7</ele>
        <time>2020-02-14T14:43:03.133Z</time>
      </trkpt>
      <trkpt lat="42.51522" lon="1.80538">
        <ele>1750.6</ele>
        <time>2020-02-14T14:43:05.650Z</time>
      </trkpt>
      <trkpt lat="42.51519" lon="1.80533">
        <ele>1751.4</ele>
        <time>2020-02-14T14:43:07.927Z</time>
      </trkpt>
      <trkpt lat="42.51516" lon="1.80529">
        <ele>1752.1</ele>
        <time>2020-02-14T14:43:10.311Z</time>
      </trkpt>
      <trkpt lat="42.51512" lon="1.80525">
        <ele>1752.5</ele>
        <time>2020-02-14T14:43:12.568Z</time>
      </trkpt>
      <trkpt lat="42.51508" lon="1.80521">
        <ele>1752.9</ele>
        <time>2020-02-14T14:43:15.243Z</time>
      </trkpt>
      <trkpt lat="42.51503" lon="1.80517">
        <ele>1753.3</ele>
        <time>2020-02-14T14:43:17.943Z</time>
      </trkpt>
      <trkpt lat="42.515" lon="1.80512">
        <ele>1753.7</ele>
        <time>2020-02-14T14:43:20.279Z</time>
      </trkpt>
      <trkpt lat="42.51496" lon="1.80509">
        <ele>1753.9</ele>
        <time>2020-02-14T14:43:22.504Z</time>
      </trkpt>
      <trkpt lat="42.51492" lon="1.80505">
        <ele>1754.2</ele>
        <time>2020-02-14T14:43:25.014Z</time>
      </trkpt>
      <trkpt lat="42.51488" lon="1.80501">
        <ele>1754.2</ele>
        <time>2020-02-14T14:43:27.294Z</time>
      </trkpt>
      <trkpt lat="42.51484" lon="1.80498">
        <ele>1754.3</ele>
        <time>2020-02-14T14:43:29.627Z</time>
      </trkpt>
      <trkpt lat="42.51482" lon="1.80493">
        <ele>1754.5</ele>
        <time>2020-02-14T14:43:31.970Z</time>
      </trkpt>
      <trkpt lat="42.51478" lon="1.80488">
        <ele>1754.6</ele>
        <time>2020-02-14T14:43:34.213Z</time>
      </trkpt>
      <trkpt lat="42.51475" lon="1.80482">
        <ele>1754.8</ele>
        <time>2020-02-14T14:43:36.847Z</time>
      </trkpt>
      <trkpt lat="42.51472" lon="1.80477">
        <ele>1754.9</ele>
        <time>2020-02-14T14:43:39.335Z</time>
      </trkpt>
      <trkpt lat="42.51469" lon="1.80471">
        <ele>1754.8</ele>
        <time>2020-02-14T14:43:42.114Z</time>
      </trkpt>
      <trkpt lat="42.51467" lon="1.80465">
        <ele>1754.9</ele>
        <time>2020-02-14T14:43:44.450Z</time>
      </trkpt>
      <trkpt lat="42.51466" lon="1.80456">
        <ele>1755.4</ele>
        <time>2020-02-14T14:43:47.486Z</time>
      </trkpt>
      <trkpt lat="42.51466" lon="1.80449">
        <ele>1755.9</ele>
        <time>2020-02-14T14:43:50.095Z</time>
      </trkpt>
      <trkpt lat="42.51467" lon="1.80442">
        <ele>1756.6</ele>
        <time>2020-02-14T14:43:52.777Z</time>
      </trkpt>
      <trkpt lat="42.51467" lon="1.80435">
        <ele>1757.1</ele>
        <time>2020-02-14T14:43:55.515Z</time>
      </trkpt>
      <trkpt lat="42.51467" lon="1.80429">
        <ele>1757.5</ele>
        <time>2020-02-14T14:43:57.744Z</time>
      </trkpt>
      <trkpt lat="42.51465" lon="1.80422">
        <ele>1757.6</ele>
        <time>2020-02-14T14:44:00.347Z</time>
      </trkpt>
      <trkpt lat="42.51465" lon="1.80415">
        <ele>1758</ele>
        <time>2020-02-14T14:44:02.752Z</time>
      </trkpt>
      <trkpt lat="42.51463" lon="1.80409">
        <ele>1758.2</ele>
        <time>2020-02-14T14:44:05.175Z</time>
      </trkpt>
      <trkpt lat="42.51462" lon="1.80402">
        <ele>1758.4</ele>
        <time>2020-02-14T14:44:07.660Z</time>
      </trkpt>
      <trkpt lat="42.5146" lon="1.80395">
        <ele>1758.4</ele>
        <time>2020-02-14T14:44:10.248Z</time>
      </trkpt>
      <trkpt lat="42.51459" lon="1.80389">
        <ele>1758.2</ele>
        <time>2020-02-14T14:44:12.619Z</time>
      </trkpt>
      <trkpt lat="42.51456" lon="1.80384">
        <ele>1759.1</ele>
        <time>2020-02-14T14:44:14.990Z</time>
      </trkpt>
      <trkpt lat="42.51455" lon="1.80377">
        <ele>1759.6</ele>
        <time>2020-02-14T14:44:17.447Z</time>
      </trkpt>
      <trkpt lat="42.51453" lon="1.80371">
        <ele>1760.8</ele>
        <time>2020-02-14T14:44:20.129Z</time>
      </trkpt>
      <trkpt lat="42.51452" lon="1.80364">
        <ele>1762.1</ele>
        <time>2020-02-14T14:44:22.673Z</time>
      </trkpt>
      <trkpt lat="42.5145" lon="1.80357">
        <ele>1763.4</ele>
        <time>2020-02-14T14:44:25.515Z</time>
      </trkpt>
      <trkpt lat="42.51449" lon="1.80351">
        <ele>1764.4</ele>
        <time>2020-02-14T14:44:27.913Z</time>
      </trkpt>
      <trkpt lat="42.51447" lon="1.80344">
        <ele>1765.5</ele>
        <time>2020-02-14T14:44:30.554Z</time>
      </trkpt>
      <trkpt lat="42.51445" lon="1.80337">
        <ele>1766.8</ele>
        <time>2020-02-14T14:44:33.170Z</time>
      </trkpt>
      <trkpt lat="42.51443" lon="1.80331">
        <ele>1767.9</ele>
        <time>2020-02-14T14:44:35.738Z</time>
      </trkpt>
      <trkpt lat="42.51442" lon="1.80325">
        <ele>1768.7</ele>
        <time>2020-02-14T14:44:38.071Z</time>
      </trkpt>
      <trkpt lat="42.51442" lon="1.80316">
        <ele>1769.7</ele>
        <time>2020-02-14T14:44:41.373Z</time>
      </trkpt>
      <trkpt lat="42.51442" lon="1.80309">
        <ele>1770.4</ele>
        <time>2020-02-14T14:44:43.892Z</time>
      </trkpt>
      <trkpt lat="42.51441" lon="1.80303">
        <ele>1771.2</ele>
        <time>2020-02-14T14:44:46.235Z</time>
      </trkpt>
      <trkpt lat="42.51441" lon="1.80296">
        <ele>1772</ele>
        <time>2020-02-14T14:44:48.776Z</time>
      </trkpt>
      <trkpt lat="42.5144" lon="1.8029">
        <ele>1772.9</ele>
        <time>2020-02-14T14:44:51.032Z</time>
      </trkpt>
      <trkpt lat="42.51438" lon="1.80284">
        <ele>1773.7</ele>
        <time>2020-02-14T14:44:53.593Z</time>
      </trkpt>
      <trkpt lat="42.51435" lon="1.80278">
        <ele>1774.5</ele>
        <time>2020-02-14T14:44:56.172Z</time>
      </trkpt>
      <trkpt lat="42.51431" lon="1.80273">
        <ele>1775.1</ele>
        <time>2020-02-14T14:44:58.695Z</time>
      </trkpt>
      <trkpt lat="42.51428" lon="1.80268">
        <ele>1775.4</ele>
        <time>2020-02-14T14:45:01.104Z</time>
      </trkpt>
      <trkpt lat="42.51425" lon="1.80263">
        <ele>1775.9</ele>
        <time>2020-02-14T14:45:03.450Z</time>
      </trkpt>
      <trkpt lat="42.51421" lon="1.80259">
        <ele>1776</ele>
        <time>2020-02-14T14:45:05.925Z</time>
      </trkpt>
      <trkpt lat="42.51418" lon="1.80255">
        <ele>1776.1</ele>
        <time>2020-02-14T14:45:08.202Z</time>
      </trkpt>
      <trkpt lat="42.51414" lon="1.80252">
        <ele>1776</ele>
        <time>2020-02-14T14:45:10.486Z</time>
      </trkpt>
      <trkpt lat="42.51413" lon="1.80245">
        <ele>1776.2</ele>
        <time>2020-02-14T14:45:12.999Z</time>
      </trkpt>
      <trkpt lat="42.51409" lon="1.80241">
        <ele>1776</ele>
        <time>2020-02-14T14:45:15.432Z</time>
      </trkpt>
      <trkpt lat="42.51405" lon="1.80236">
        <ele>1775.7</ele>
        <time>2020-02-14T14:45:17.796Z</time>
      </trkpt>
      <trkpt lat="42.51402" lon="1.80231">
        <ele>1775.4</ele>
        <time>2020-02-14T14:45:20.461Z</time>
      </trkpt>
      <trkpt lat="42.51399" lon="1.80225">
        <ele>1774.9</ele>
        <time>2020-02-14T14:45:23.050Z</time>
      </trkpt>
      <trkpt lat="42.51396" lon="1.8022">
        <ele>1774.4</ele>
        <time>2020-02-14T14:45:25.375Z</time>
      </trkpt>
      <trkpt lat="42.51394" lon="1.80214">
        <ele>1773.8</ele>
        <time>2020-02-14T14:45:27.736Z</time>
      </trkpt>
      <trkpt lat="42.51391" lon="1.80209">
        <ele>1773.2</ele>
        <time>2020-02-14T14:45:30.065Z</time>
      </trkpt>
      <trkpt lat="42.51389" lon="1.80203">
        <ele>1773.2</ele>
        <time>2020-02-14T14:45:32.391Z</time>
      </trkpt>
      <trkpt lat="42.51386" lon="1.80198">
        <ele>1773.2</ele>
        <time>2020-02-14T14:45:34.772Z</time>
      </trkpt>
      <trkpt lat="42.51385" lon="1.80191">
        <ele>1773.4</ele>
        <time>2020-02-14T14:45:37.278Z</time>
      </trkpt>
      <trkpt lat="42.51384" lon="1.80184">
        <ele>1773.7</ele>
        <time>2020-02-14T14:45:39.873Z</time>
      </trkpt>
      <trkpt lat="42.51383" lon="1.80178">
        <ele>1773.9</ele>
        <time>2020-02-14T14:45:42.261Z</time>
      </trkpt>
      <trkpt lat="42.51382" lon="1.80171">
        <ele>1774.3</ele>
        <time>2020-02-14T14:45:44.757Z</time>
      </trkpt>
      <trkpt lat="42.5138" lon="1.80165">
        <ele>1774.5</ele>
        <time>2020-02-14T14:45:47.179Z</time>
      </trkpt>
      <trkpt lat="42.51379" lon="1.80158">
        <ele>1774.6</ele>
        <time>2020-02-14T14:45:49.827Z</time>
      </trkpt>
      <trkpt lat="42.51377" lon="1.80152">
        <ele>1774.6</ele>
        <time>2020-02-14T14:45:52.080Z</time>
      </trkpt>
      <trkpt lat="42.51376" lon="1.80146">
        <ele>1774.8</ele>
        <time>2020-02-14T14:45:54.472Z</time>
      </trkpt>
      <trkpt lat="42.51374" lon="1.8014">
        <ele>1775.2</ele>
        <time>2020-02-14T14:45:56.801Z</time>
      </trkpt>
      <trkpt lat="42.51373" lon="1.80133">
        <ele>1775.8</ele>
        <time>2020-02-14T14:45:59.417Z</time>
      </trkpt>
      <trkpt lat="42.51372" lon="1.80126">
        <ele>1776.4</ele>
        <time>2020-02-14T14:46:01.968Z</time>
      </trkpt>
      <trkpt lat="42.51371" lon="1.80118">
        <ele>1777.5</ele>
        <time>2020-02-14T14:46:04.809Z</time>
      </trkpt>
      <trkpt lat="42.51369" lon="1.80112">
        <ele>1778.4</ele>
        <time>2020-02-14T14:46:07.322Z</time>
      </trkpt>
      <trkpt lat="42.51367" lon="1.80105">
        <ele>1779.5</ele>
        <time>2020-02-14T14:46:10.074Z</time>
      </trkpt>
      <trkpt lat="42.51366" lon="1.80098">
        <ele>1780.2</ele>
        <time>2020-02-14T14:46:12.714Z</time>
      </trkpt>
      <trkpt lat="42.51366" lon="1.80092">
        <ele>1780.9</ele>
        <time>2020-02-14T14:46:14.953Z</time>
      </trkpt>
      <trkpt lat="42.51365" lon="1.80085">
        <ele>1781.9</ele>
        <time>2020-02-14T14:46:17.535Z</time>
      </trkpt>
      <trkpt lat="42.51363" lon="1.80079">
        <ele>1782.5</ele>
        <time>2020-02-14T14:46:19.854Z</time>
      </trkpt>
      <trkpt lat="42.51362" lon="1.80073">
        <ele>1783.2</ele>
        <time>2020-02-14T14:46:22.277Z</time>
      </trkpt>
      <trkpt lat="42.5136" lon="1.80066">
        <ele>1783.9</ele>
        <time>2020-02-14T14:46:24.942Z</time>
      </trkpt>
      <trkpt lat="42.51357" lon="1.80059">
        <ele>1784.5</ele>
        <time>2020-02-14T14:46:27.569Z</time>
      </trkpt>
      <trkpt lat="42.51355" lon="1.80053">
        <ele>1785.1</ele>
        <time>2020-02-14T14:46:30.050Z</time>
      </trkpt>
      <trkpt lat="42.51352" lon="1.80047">
        <ele>1785.5</ele>
        <time>2020-02-14T14:46:32.667Z</time>
      </trkpt>
      <trkpt lat="42.51349" lon="1.80042">
        <ele>1785.9</ele>
        <time>2020-02-14T14:46:35.186Z</time>
      </trkpt>
      <trkpt lat="42.51345" lon="1.80036">
        <ele>1786.5</ele>
        <time>2020-02-14T14:46:37.913Z</time>
      </trkpt>
      <trkpt lat="42.51342" lon="1.80031">
        <ele>1787.2</ele>
        <time>2020-02-14T14:46:40.561Z</time>
      </trkpt>
      <trkpt lat="42.51339" lon="1.80025">
        <ele>1787.9</ele>
        <time>2020-02-14T14:46:43.212Z</time>
      </trkpt>
      <trkpt lat="42.51335" lon="1.80019">
        <ele>1788.4</ele>
        <time>2020-02-14T14:46:45.825Z</time>
      </trkpt>
      <trkpt lat="42.51332" lon="1.80014">
        <ele>1789</ele>
        <time>2020-02-14T14:46:48.445Z</time>
      </trkpt>
      <trkpt lat="42.51329" lon="1.80008">
        <ele>1789.4</ele>
        <time>2020-02-14T14:46:51.058Z</time>
      </trkpt>
      <trkpt lat="42.51326" lon="1.80002">
        <ele>1790</ele>
        <time>2020-02-14T14:46:53.623Z</time>
      </trkpt>
      <trkpt lat="42.51323" lon="1.79997">
        <ele>1790.1</ele>
        <time>2020-02-14T14:46:55.966Z</time>
      </trkpt>
      <trkpt lat="42.5132" lon="1.79992">
        <ele>1790.5</ele>
        <time>2020-02-14T14:46:58.603Z</time>
      </trkpt>
      <trkpt lat="42.51316" lon="1.79986">
        <ele>1790.5</ele>
        <time>2020-02-14T14:47:01.188Z</time>
      </trkpt>
      <trkpt lat="42.51313" lon="1.79981">
        <ele>1790.7</ele>
        <time>2020-02-14T14:47:03.625Z</time>
      </trkpt>
      <trkpt lat="42.5131" lon="1.79977">
        <ele>1790.8</ele>
        <time>2020-02-14T14:47:05.850Z</time>
      </trkpt>
      <trkpt lat="42.51306" lon="1.79973">
        <ele>1790.4</ele>
        <time>2020-02-14T14:47:08.266Z</time>
      </trkpt>
      <trkpt lat="42.51303" lon="1.79967">
        <ele>1790.3</ele>
        <time>2020-02-14T14:47:11.045Z</time>
      </trkpt>
      <trkpt lat="42.51299" lon="1.79962">
        <ele>1790.1</ele>
        <time>2020-02-14T14:47:13.502Z</time>
      </trkpt>
      <trkpt lat="42.51296" lon="1.79956">
        <ele>1790.1</ele>
        <time>2020-02-14T14:47:16.129Z</time>
      </trkpt>
      <trkpt lat="42.51295" lon="1.7995">
        <ele>1790.7</ele>
        <time>2020-02-14T14:47:18.573Z</time>
      </trkpt>
      <trkpt lat="42.51293" lon="1.79943">
        <ele>1791.2</ele>
        <time>2020-02-14T14:47:21.123Z</time>
      </trkpt>
      <trkpt lat="42.51291" lon="1.79938">
        <ele>1791.8</ele>
        <time>2020-02-14T14:47:23.422Z</time>
      </trkpt>
      <trkpt lat="42.51288" lon="1.79932">
        <ele>1792.9</ele>
        <time>2020-02-14T14:47:25.931Z</time>
      </trkpt>
      <trkpt lat="42.51285" lon="1.79926">
        <ele>1793.8</ele>
        <time>2020-02-14T14:47:28.533Z</time>
      </trkpt>
      <trkpt lat="42.51281" lon="1.79924">
        <ele>1794.5</ele>
        <time>2020-02-14T14:47:30.807Z</time>
      </trkpt>
      <trkpt lat="42.51276" lon="1.79921">
        <ele>1795.2</ele>
        <time>2020-02-14T14:47:33.226Z</time>
      </trkpt>
      <trkpt lat="42.51273" lon="1.79915">
        <ele>1796.1</ele>
        <time>2020-02-14T14:47:36.058Z</time>
      </trkpt>
      <trkpt lat="42.5127" lon="1.79909">
        <ele>1796.9</ele>
        <time>2020-02-14T14:47:38.761Z</time>
      </trkpt>
      <trkpt lat="42.51268" lon="1.79903">
        <ele>1797.4</ele>
        <time>2020-02-14T14:47:41.315Z</time>
      </trkpt>
      <trkpt lat="42.51264" lon="1.79899">
        <ele>1797.8</ele>
        <time>2020-02-14T14:47:43.582Z</time>
      </trkpt>
      <trkpt lat="42.5126" lon="1.79895">
        <ele>1798.2</ele>
        <time>2020-02-14T14:47:45.852Z</time>
      </trkpt>
      <trkpt lat="42.51257" lon="1.79891">
        <ele>1798.6</ele>
        <time>2020-02-14T14:47:48.254Z</time>
      </trkpt>
      <trkpt lat="42.51254" lon="1.79885">
        <ele>1799.1</ele>
        <time>2020-02-14T14:47:50.517Z</time>
      </trkpt>
      <trkpt lat="42.51252" lon="1.7988">
        <ele>1799.3</ele>
        <time>2020-02-14T14:47:52.829Z</time>
      </trkpt>
      <trkpt lat="42.51249" lon="1.79875">
        <ele>1799.5</ele>
        <time>2020-02-14T14:47:55.141Z</time>
      </trkpt>
      <trkpt lat="42.51248" lon="1.79868">
        <ele>1800</ele>
        <time>2020-02-14T14:47:57.644Z</time>
      </trkpt>
      <trkpt lat="42.51246" lon="1.79862">
        <ele>1800.3</ele>
        <time>2020-02-14T14:48:00.101Z</time>
      </trkpt>
      <trkpt lat="42.51243" lon="1.79857">
        <ele>1800.5</ele>
        <time>2020-02-14T14:48:02.461Z</time>
      </trkpt>
      <trkpt lat="42.51243" lon="1.79851">
        <ele>1800.8</ele>
        <time>2020-02-14T14:48:04.707Z</time>
      </trkpt>
      <trkpt lat="42.51241" lon="1.79842">
        <ele>1801.3</ele>
        <time>2020-02-14T14:48:07.756Z</time>
      </trkpt>
      <trkpt lat="42.5124" lon="1.79836">
        <ele>1801.6</ele>
        <time>2020-02-14T14:48:10.030Z</time>
      </trkpt>
      <trkpt lat="42.5124" lon="1.7983">
        <ele>1801.9</ele>
        <time>2020-02-14T14:48:12.259Z</time>
      </trkpt>
      <trkpt lat="42.51239" lon="1.79824">
        <ele>1802.2</ele>
        <time>2020-02-14T14:48:14.626Z</time>
      </trkpt>
      <trkpt lat="42.51237" lon="1.79818">
        <ele>1802.4</ele>
        <time>2020-02-14T14:48:16.873Z</time>
      </trkpt>
      <trkpt lat="42.51236" lon="1.79812">
        <ele>1802.6</ele>
        <time>2020-02-14T14:48:19.309Z</time>
      </trkpt>
      <trkpt lat="42.51237" lon="1.79806">
        <ele>1803.1</ele>
        <time>2020-02-14T14:48:21.600Z</time>
      </trkpt>
      <trkpt lat="42.51235" lon="1.79799">
        <ele>1803.2</ele>
        <time>2020-02-14T14:48:24.123Z</time>
      </trkpt>
      <trkpt lat="42.51234" lon="1.79793">
        <ele>1803.5</ele>
        <time>2020-02-14T14:48:26.456Z</time>
      </trkpt>
      <trkpt lat="42.51232" lon="1.79786">
        <ele>1803.6</ele>
        <time>2020-02-14T14:48:29.252Z</time>
      </trkpt>
      <trkpt lat="42.51232" lon="1.79779">
        <ele>1803.8</ele>
        <time>2020-02-14T14:48:31.547Z</time>
      </trkpt>
      <trkpt lat="42.51231" lon="1.79772">
        <ele>1803.9</ele>
        <time>2020-02-14T14:48:34.212Z</time>
      </trkpt>
      <trkpt lat="42.51231" lon="1.79766">
        <ele>1804.2</ele>
        <time>2020-02-14T14:48:36.559Z</time>
      </trkpt>
      <trkpt lat="42.5123" lon="1.79759">
        <ele>1804.2</ele>
        <time>2020-02-14T14:48:38.836Z</time>
      </trkpt>
      <trkpt lat="42.51228" lon="1.79754">
        <ele>1804.1</ele>
        <time>2020-02-14T14:48:41.106Z</time>
      </trkpt>
      <trkpt lat="42.51227" lon="1.79747">
        <ele>1804.1</ele>
        <time>2020-02-14T14:48:43.698Z</time>
      </trkpt>
      <trkpt lat="42.51226" lon="1.7974">
        <ele>1804.2</ele>
        <time>2020-02-14T14:48:46.080Z</time>
      </trkpt>
      <trkpt lat="42.51226" lon="1.79734">
        <ele>1804.3</ele>
        <time>2020-02-14T14:48:48.565Z</time>
      </trkpt>
      <trkpt lat="42.51225" lon="1.79727">
        <ele>1804.5</ele>
        <time>2020-02-14T14:48:50.928Z</time>
      </trkpt>
      <trkpt lat="42.51225" lon="1.79721">
        <ele>1804.5</ele>
        <time>2020-02-14T14:48:53.220Z</time>
      </trkpt>
      <trkpt lat="42.51225" lon="1.79714">
        <ele>1804.8</ele>
        <time>2020-02-14T14:48:55.542Z</time>
      </trkpt>
      <trkpt lat="42.51226" lon="1.79708">
        <ele>1804.9</ele>
        <time>2020-02-14T14:48:57.802Z</time>
      </trkpt>
      <trkpt lat="42.51226" lon="1.79702">
        <ele>1805.7</ele>
        <time>2020-02-14T14:49:00.114Z</time>
      </trkpt>
      <trkpt lat="42.51225" lon="1.79695">
        <ele>1806.4</ele>
        <time>2020-02-14T14:49:02.768Z</time>
      </trkpt>
      <trkpt lat="42.51224" lon="1.79688">
        <ele>1806.7</ele>
        <time>2020-02-14T14:49:05.295Z</time>
      </trkpt>
      <trkpt lat="42.51223" lon="1.79682">
        <ele>1807.3</ele>
        <time>2020-02-14T14:49:07.576Z</time>
      </trkpt>
      <trkpt lat="42.51222" lon="1.79675">
        <ele>1807.5</ele>
        <time>2020-02-14T14:49:10.244Z</time>
      </trkpt>
      <trkpt lat="42.5122" lon="1.79668">
        <ele>1807.8</ele>
        <time>2020-02-14T14:49:12.663Z</time>
      </trkpt>
      <trkpt lat="42.51218" lon="1.79662">
        <ele>1807.8</ele>
        <time>2020-02-14T14:49:15.221Z</time>
      </trkpt>
      <trkpt lat="42.51216" lon="1.79656">
        <ele>1807.7</ele>
        <time>2020-02-14T14:49:17.557Z</time>
      </trkpt>
      <trkpt lat="42.51213" lon="1.79651">
        <ele>1807.4</ele>
        <time>2020-02-14T14:49:19.793Z</time>
      </trkpt>
      <trkpt lat="42.51211" lon="1.79645">
        <ele>1807.2</ele>
        <time>2020-02-14T14:49:22.506Z</time>
      </trkpt>
      <trkpt lat="42.51209" lon="1.79638">
        <ele>1807.1</ele>
        <time>2020-02-14T14:49:25.033Z</time>
      </trkpt>
      <trkpt lat="42.51207" lon="1.79632">
        <ele>1807.7</ele>
        <time>2020-02-14T14:49:27.556Z</time>
      </trkpt>
      <trkpt lat="42.51206" lon="1.79626">
        <ele>1808.3</ele>
        <time>2020-02-14T14:49:29.913Z</time>
      </trkpt>
      <trkpt lat="42.51204" lon="1.79619">
        <ele>1809.7</ele>
        <time>2020-02-14T14:49:32.619Z</time>
      </trkpt>
      <trkpt lat="42.51204" lon="1.79612">
        <ele>1810.9</ele>
        <time>2020-02-14T14:49:35.069Z</time>
      </trkpt>
      <trkpt lat="42.51204" lon="1.79606">
        <ele>1812.1</ele>
        <time>2020-02-14T14:49:37.496Z</time>
      </trkpt>
      <trkpt lat="42.51202" lon="1.79599">
        <ele>1813.3</ele>
        <time>2020-02-14T14:49:40.209Z</time>
      </trkpt>
      <trkpt lat="42.51199" lon="1.79592">
        <ele>1814.7</ele>
        <time>2020-02-14T14:49:43.075Z</time>
      </trkpt>
      <trkpt lat="42.51199" lon="1.79586">
        <ele>1815.9</ele>
        <time>2020-02-14T14:49:45.421Z</time>
      </trkpt>
      <trkpt lat="42.51198" lon="1.79579">
        <ele>1816.9</ele>
        <time>2020-02-14T14:49:47.837Z</time>
      </trkpt>
      <trkpt lat="42.51196" lon="1.79573">
        <ele>1818</ele>
        <time>2020-02-14T14:49:50.107Z</time>
      </trkpt>
      <trkpt lat="42.51194" lon="1.79567">
        <ele>1818.9</ele>
        <time>2020-02-14T14:49:52.665Z</time>
      </trkpt>
      <trkpt lat="42.51193" lon="1.7956">
        <ele>1820</ele>
        <time>2020-02-14T14:49:55.250Z</time>
      </trkpt>
      <trkpt lat="42.51191" lon="1.79554">
        <ele>1821</ele>
        <time>2020-02-14T14:49:57.708Z</time>
      </trkpt>
      <trkpt lat="42.51189" lon="1.79548">
        <ele>1822</ele>
        <time>2020-02-14T14:50:00.265Z</time>
      </trkpt>
      <trkpt lat="42.51189" lon="1.79541">
        <ele>1823</ele>
        <time>2020-02-14T14:50:02.847Z</time>
      </trkpt>
      <trkpt lat="42.51188" lon="1.79534">
        <ele>1824.2</ele>
        <time>2020-02-14T14:50:05.401Z</time>
      </trkpt>
      <trkpt lat="42.51187" lon="1.79528">
        <ele>1825.4</ele>
        <time>2020-02-14T14:50:07.782Z</time>
      </trkpt>
      <trkpt lat="42.51186" lon="1.79522">
        <ele>1826.6</ele>
        <time>2020-02-14T14:50:10.077Z</time>
      </trkpt>
      <trkpt lat="42.51184" lon="1.79516">
        <ele>1827.6</ele>
        <time>2020-02-14T14:50:12.389Z</time>
      </trkpt>
      <trkpt lat="42.51182" lon="1.79511">
        <ele>1828.7</ele>
        <time>2020-02-14T14:50:14.753Z</time>
      </trkpt>
      <trkpt lat="42.51179" lon="1.79505">
        <ele>1829.6</ele>
        <time>2020-02-14T14:50:17.345Z</time>
      </trkpt>
      <trkpt lat="42.51177" lon="1.79499">
        <ele>1830.5</ele>
        <time>2020-02-14T14:50:19.830Z</time>
      </trkpt>
      <trkpt lat="42.51174" lon="1.79491">
        <ele>1831.6</ele>
        <time>2020-02-14T14:50:22.848Z</time>
      </trkpt>
      <trkpt lat="42.51173" lon="1.79485">
        <ele>1832.7</ele>
        <time>2020-02-14T14:50:25.246Z</time>
      </trkpt>
      <trkpt lat="42.5117" lon="1.79479">
        <ele>1833.4</ele>
        <time>2020-02-14T14:50:27.745Z</time>
      </trkpt>
      <trkpt lat="42.51168" lon="1.79472">
        <ele>1834.4</ele>
        <time>2020-02-14T14:50:30.382Z</time>
      </trkpt>
      <trkpt lat="42.51168" lon="1.79466">
        <ele>1835.5</ele>
        <time>2020-02-14T14:50:32.764Z</time>
      </trkpt>
      <trkpt lat="42.51167" lon="1.7946">
        <ele>1836.3</ele>
        <time>2020-02-14T14:50:35.110Z</time>
      </trkpt>
      <trkpt lat="42.51167" lon="1.79453">
        <ele>1837.8</ele>
        <time>2020-02-14T14:50:37.671Z</time>
      </trkpt>
      <trkpt lat="42.51166" lon="1.79447">
        <ele>1839.1</ele>
        <time>2020-02-14T14:50:40.028Z</time>
      </trkpt>
      <trkpt lat="42.51163" lon="1.79442">
        <ele>1840</ele>
        <time>2020-02-14T14:50:42.357Z</time>
      </trkpt>
      <trkpt lat="42.51162" lon="1.79436">
        <ele>1841.3</ele>
        <time>2020-02-14T14:50:44.666Z</time>
      </trkpt>
      <trkpt lat="42.5116" lon="1.79429">
        <ele>1842.4</ele>
        <time>2020-02-14T14:50:47.165Z</time>
      </trkpt>
      <trkpt lat="42.51157" lon="1.79425">
        <ele>1842.9</ele>
        <time>2020-02-14T14:50:49.580Z</time>
      </trkpt>
      <trkpt lat="42.51154" lon="1.7942">
        <ele>1843.7</ele>
        <time>2020-02-14T14:50:52.006Z</time>
      </trkpt>
      <trkpt lat="42.5115" lon="1.79416">
        <ele>1844.3</ele>
        <time>2020-02-14T14:50:54.422Z</time>
      </trkpt>
      <trkpt lat="42.51146" lon="1.79412">
        <ele>1844.5</ele>
        <time>2020-02-14T14:50:56.700Z</time>
      </trkpt>
      <trkpt lat="42.51144" lon="1.79406">
        <ele>1845.7</ele>
        <time>2020-02-14T14:50:59.188Z</time>
      </trkpt>
      <trkpt lat="42.51141" lon="1.79401">
        <ele>1846.5</ele>
        <time>2020-02-14T14:51:01.496Z</time>
      </trkpt>
      <trkpt lat="42.51138" lon="1.79395">
        <ele>1847.5</ele>
        <time>2020-02-14T14:51:04.113Z</time>
      </trkpt>
      <trkpt lat="42.51136" lon="1.79389">
        <ele>1848.4</ele>
        <time>2020-02-14T14:51:06.684Z</time>
      </trkpt>
      <trkpt lat="42.51133" lon="1.79383">
        <ele>1849.3</ele>
        <time>2020-02-14T14:51:09.114Z</time>
      </trkpt>
      <trkpt lat="42.5113" lon="1.79377">
        <ele>1850.2</ele>
        <time>2020-02-14T14:51:11.692Z</time>
      </trkpt>
      <trkpt lat="42.51127" lon="1.79372">
        <ele>1850.7</ele>
        <time>2020-02-14T14:51:14.226Z</time>
      </trkpt>
      <trkpt lat="42.51124" lon="1.79367">
        <ele>1851.3</ele>
        <time>2020-02-14T14:51:16.527Z</time>
      </trkpt>
      <trkpt lat="42.5112" lon="1.79363">
        <ele>1852.8</ele>
        <time>2020-02-14T14:51:18.998Z</time>
      </trkpt>
      <trkpt lat="42.51116" lon="1.79359">
        <ele>1854.4</ele>
        <time>2020-02-14T14:51:21.826Z</time>
      </trkpt>
      <trkpt lat="42.51113" lon="1.79354">
        <ele>1855.8</ele>
        <time>2020-02-14T14:51:24.263Z</time>
      </trkpt>
      <trkpt lat="42.51111" lon="1.79347">
        <ele>1857.1</ele>
        <time>2020-02-14T14:51:26.986Z</time>
      </trkpt>
      <trkpt lat="42.51109" lon="1.7934">
        <ele>1858.3</ele>
        <time>2020-02-14T14:51:29.707Z</time>
      </trkpt>
      <trkpt lat="42.51107" lon="1.79334">
        <ele>1859.3</ele>
        <time>2020-02-14T14:51:32.088Z</time>
      </trkpt>
      <trkpt lat="42.51105" lon="1.79327">
        <ele>1860.5</ele>
        <time>2020-02-14T14:51:34.753Z</time>
      </trkpt>
      <trkpt lat="42.51104" lon="1.7932">
        <ele>1861.6</ele>
        <time>2020-02-14T14:51:37.650Z</time>
      </trkpt>
      <trkpt lat="42.51102" lon="1.79312">
        <ele>1862.7</ele>
        <time>2020-02-14T14:51:40.546Z</time>
      </trkpt>
      <trkpt lat="42.51101" lon="1.79305">
        <ele>1863.6</ele>
        <time>2020-02-14T14:51:43.173Z</time>
      </trkpt>
      <trkpt lat="42.51101" lon="1.79298">
        <ele>1864.4</ele>
        <time>2020-02-14T14:51:45.710Z</time>
      </trkpt>
      <trkpt lat="42.51101" lon="1.79291">
        <ele>1865.4</ele>
        <time>2020-02-14T14:51:48.392Z</time>
      </trkpt>
      <trkpt lat="42.51101" lon="1.79285">
        <ele>1866.1</ele>
        <time>2020-02-14T14:51:50.729Z</time>
      </trkpt>
      <trkpt lat="42.51101" lon="1.79278">
        <ele>1866.9</ele>
        <time>2020-02-14T14:51:53.085Z</time>
      </trkpt>
      <trkpt lat="42.511" lon="1.79272">
        <ele>1867.7</ele>
        <time>2020-02-14T14:51:55.411Z</time>
      </trkpt>
      <trkpt lat="42.511" lon="1.79266">
        <ele>1868.4</ele>
        <time>2020-02-14T14:51:57.886Z</time>
      </trkpt>
      <trkpt lat="42.51102" lon="1.79259">
        <ele>1869.1</ele>
        <time>2020-02-14T14:52:00.516Z</time>
      </trkpt>
      <trkpt lat="42.51102" lon="1.79252">
        <ele>1869.9</ele>
        <time>2020-02-14T14:52:02.984Z</time>
      </trkpt>
      <trkpt lat="42.51103" lon="1.79244">
        <ele>1870.8</ele>
        <time>2020-02-14T14:52:05.784Z</time>
      </trkpt>
      <trkpt lat="42.51105" lon="1.79238">
        <ele>1871.4</ele>
        <time>2020-02-14T14:52:08.407Z</time>
      </trkpt>
      <trkpt lat="42.51105" lon="1.79231">
        <ele>1872.1</ele>
        <time>2020-02-14T14:52:10.729Z</time>
      </trkpt>
      <trkpt lat="42.51106" lon="1.79225">
        <ele>1872.7</ele>
        <time>2020-02-14T14:52:13.145Z</time>
      </trkpt>
      <trkpt lat="42.51107" lon="1.79219">
        <ele>1873.5</ele>
        <time>2020-02-14T14:52:15.564Z</time>
      </trkpt>
      <trkpt lat="42.51107" lon="1.79212">
        <ele>1874.4</ele>
        <time>2020-02-14T14:52:18.184Z</time>
      </trkpt>
      <trkpt lat="42.51106" lon="1.79205">
        <ele>1875.3</ele>
        <time>2020-02-14T14:52:20.738Z</time>
      </trkpt>
      <trkpt lat="42.51104" lon="1.79199">
        <ele>1876</ele>
        <time>2020-02-14T14:52:22.995Z</time>
      </trkpt>
      <trkpt lat="42.51101" lon="1.79193">
        <ele>1877</ele>
        <time>2020-02-14T14:52:25.695Z</time>
      </trkpt>
      <trkpt lat="42.51099" lon="1.79187">
        <ele>1877.9</ele>
        <time>2020-02-14T14:52:28.190Z</time>
      </trkpt>
      <trkpt lat="42.51095" lon="1.79184">
        <ele>1878.7</ele>
        <time>2020-02-14T14:52:30.575Z</time>
      </trkpt>
      <trkpt lat="42.51092" lon="1.79178">
        <ele>1879.7</ele>
        <time>2020-02-14T14:52:33.257Z</time>
      </trkpt>
      <trkpt lat="42.51092" lon="1.79171">
        <ele>1880.3</ele>
        <time>2020-02-14T14:52:35.745Z</time>
      </trkpt>
      <trkpt lat="42.51088" lon="1.79165">
        <ele>1881.3</ele>
        <time>2020-02-14T14:52:38.521Z</time>
      </trkpt>
      <trkpt lat="42.51086" lon="1.79159">
        <ele>1882.1</ele>
        <time>2020-02-14T14:52:41.079Z</time>
      </trkpt>
      <trkpt lat="42.51085" lon="1.79153">
        <ele>1882.9</ele>
        <time>2020-02-14T14:52:43.397Z</time>
      </trkpt>
      <trkpt lat="42.51083" lon="1.79147">
        <ele>1883.7</ele>
        <time>2020-02-14T14:52:45.751Z</time>
      </trkpt>
      <trkpt lat="42.51079" lon="1.79143">
        <ele>1884.4</ele>
        <time>2020-02-14T14:52:48.097Z</time>
      </trkpt>
      <trkpt lat="42.51084" lon="1.79146">
        <ele>1883.8</ele>
        <time>2020-02-14T14:52:50.562Z</time>
      </trkpt>
      <trkpt lat="42.51085" lon="1.7914">
        <ele>1884.3</ele>
        <time>2020-02-14T14:52:52.977Z</time>
      </trkpt>
      <trkpt lat="42.51085" lon="1.79131">
        <ele>1885.2</ele>
        <time>2020-02-14T14:52:56.019Z</time>
      </trkpt>
      <trkpt lat="42.51085" lon="1.79125">
        <ele>1886</ele>
        <time>2020-02-14T14:52:58.404Z</time>
      </trkpt>
      <trkpt lat="42.51085" lon="1.79118">
        <ele>1887.2</ele>
        <time>2020-02-14T14:53:00.972Z</time>
      </trkpt>
      <trkpt lat="42.51086" lon="1.79111">
        <ele>1888.3</ele>
        <time>2020-02-14T14:53:03.488Z</time>
      </trkpt>
      <trkpt lat="42.51086" lon="1.79104">
        <ele>1889.5</ele>
        <time>2020-02-14T14:53:06.087Z</time>
      </trkpt>
      <trkpt lat="42.51087" lon="1.79098">
        <ele>1890.5</ele>
        <time>2020-02-14T14:53:08.514Z</time>
      </trkpt>
      <trkpt lat="42.51088" lon="1.7909">
        <ele>1891.7</ele>
        <time>2020-02-14T14:53:11.438Z</time>
      </trkpt>
      <trkpt lat="42.51089" lon="1.79083">
        <ele>1892.8</ele>
        <time>2020-02-14T14:53:13.982Z</time>
      </trkpt>
      <trkpt lat="42.51089" lon="1.79077">
        <ele>1893.9</ele>
        <time>2020-02-14T14:53:16.294Z</time>
      </trkpt>
      <trkpt lat="42.5109" lon="1.79071">
        <ele>1895</ele>
        <time>2020-02-14T14:53:18.543Z</time>
      </trkpt>
      <trkpt lat="42.51091" lon="1.79064">
        <ele>1896.2</ele>
        <time>2020-02-14T14:53:21.323Z</time>
      </trkpt>
      <trkpt lat="42.51092" lon="1.79057">
        <ele>1897.3</ele>
        <time>2020-02-14T14:53:23.731Z</time>
      </trkpt>
      <trkpt lat="42.51093" lon="1.79051">
        <ele>1898.5</ele>
        <time>2020-02-14T14:53:26.130Z</time>
      </trkpt>
      <trkpt lat="42.51093" lon="1.79044">
        <ele>1899.5</ele>
        <time>2020-02-14T14:53:28.507Z</time>
      </trkpt>
      <trkpt lat="42.51094" lon="1.79038">
        <ele>1900.7</ele>
        <time>2020-02-14T14:53:30.819Z</time>
      </trkpt>
      <trkpt lat="42.51094" lon="1.79031">
        <ele>1902</ele>
        <time>2020-02-14T14:53:33.408Z</time>
      </trkpt>
      <trkpt lat="42.51093" lon="1.79026">
        <ele>1903.1</ele>
        <time>2020-02-14T14:53:35.710Z</time>
      </trkpt>
      <trkpt lat="42.51091" lon="1.7902">
        <ele>1904.2</ele>
        <time>2020-02-14T14:53:37.997Z</time>
      </trkpt>
      <trkpt lat="42.51088" lon="1.79015">
        <ele>1905.1</ele>
        <time>2020-02-14T14:53:40.430Z</time>
      </trkpt>
      <trkpt lat="42.51086" lon="1.79009">
        <ele>1906.1</ele>
        <time>2020-02-14T14:53:42.832Z</time>
      </trkpt>
      <trkpt lat="42.51083" lon="1.79004">
        <ele>1907.1</ele>
        <time>2020-02-14T14:53:45.186Z</time>
      </trkpt>
      <trkpt lat="42.51082" lon="1.78997">
        <ele>1908.2</ele>
        <time>2020-02-14T14:53:47.640Z</time>
      </trkpt>
      <trkpt lat="42.51081" lon="1.78991">
        <ele>1909.3</ele>
        <time>2020-02-14T14:53:49.958Z</time>
      </trkpt>
      <trkpt lat="42.5108" lon="1.78985">
        <ele>1910.4</ele>
        <time>2020-02-14T14:53:52.267Z</time>
      </trkpt>
      <trkpt lat="42.51079" lon="1.78978">
        <ele>1911.9</ele>
        <time>2020-02-14T14:53:55.174Z</time>
      </trkpt>
      <trkpt lat="42.51078" lon="1.78971">
        <ele>1913</ele>
        <time>2020-02-14T14:53:57.580Z</time>
      </trkpt>
      <trkpt lat="42.51079" lon="1.78965">
        <ele>1914.1</ele>
        <time>2020-02-14T14:53:59.888Z</time>
      </trkpt>
      <trkpt lat="42.51077" lon="1.78959">
        <ele>1915.3</ele>
        <time>2020-02-14T14:54:02.383Z</time>
      </trkpt>
      <trkpt lat="42.51076" lon="1.78951">
        <ele>1915.7</ele>
        <time>2020-02-14T14:54:05.246Z</time>
      </trkpt>
      <trkpt lat="42.51076" lon="1.78945">
        <ele>1916.2</ele>
        <time>2020-02-14T14:54:07.509Z</time>
      </trkpt>
      <trkpt lat="42.51076" lon="1.78939">
        <ele>1916.5</ele>
        <time>2020-02-14T14:54:09.807Z</time>
      </trkpt>
      <trkpt lat="42.51075" lon="1.78932">
        <ele>1916.7</ele>
        <time>2020-02-14T14:54:12.244Z</time>
      </trkpt>
      <trkpt lat="42.51073" lon="1.78925">
        <ele>1917.2</ele>
        <time>2020-02-14T14:54:14.874Z</time>
      </trkpt>
      <trkpt lat="42.51072" lon="1.78919">
        <ele>1917.3</ele>
        <time>2020-02-14T14:54:17.106Z</time>
      </trkpt>
      <trkpt lat="42.51071" lon="1.78913">
        <ele>1917.5</ele>
        <time>2020-02-14T14:54:19.442Z</time>
      </trkpt>
      <trkpt lat="42.51074" lon="1.78908">
        <ele>1918.2</ele>
        <time>2020-02-14T14:54:21.886Z</time>
      </trkpt>
      <trkpt lat="42.51074" lon="1.78899">
        <ele>1918.6</ele>
        <time>2020-02-14T14:54:25.018Z</time>
      </trkpt>
      <trkpt lat="42.51075" lon="1.78891">
        <ele>1919.3</ele>
        <time>2020-02-14T14:54:28.129Z</time>
      </trkpt>
      <trkpt lat="42.51075" lon="1.78884">
        <ele>1919.8</ele>
        <time>2020-02-14T14:54:30.573Z</time>
      </trkpt>
      <trkpt lat="42.51075" lon="1.78877">
        <ele>1920.2</ele>
        <time>2020-02-14T14:54:33.203Z</time>
      </trkpt>
      <trkpt lat="42.51075" lon="1.78871">
        <ele>1920.8</ele>
        <time>2020-02-14T14:54:35.505Z</time>
      </trkpt>
      <trkpt lat="42.51073" lon="1.78864">
        <ele>1921.3</ele>
        <time>2020-02-14T14:54:37.938Z</time>
      </trkpt>
      <trkpt lat="42.51071" lon="1.78858">
        <ele>1921.6</ele>
        <time>2020-02-14T14:54:40.464Z</time>
      </trkpt>
      <trkpt lat="42.5107" lon="1.7885">
        <ele>1922.2</ele>
        <time>2020-02-14T14:54:43.191Z</time>
      </trkpt>
      <trkpt lat="42.5107" lon="1.78844">
        <ele>1922.9</ele>
        <time>2020-02-14T14:54:45.663Z</time>
      </trkpt>
      <trkpt lat="42.51068" lon="1.78837">
        <ele>1923.2</ele>
        <time>2020-02-14T14:54:48.289Z</time>
      </trkpt>
      <trkpt lat="42.51067" lon="1.78831">
        <ele>1923.4</ele>
        <time>2020-02-14T14:54:50.525Z</time>
      </trkpt>
      <trkpt lat="42.51063" lon="1.78825">
        <ele>1923.4</ele>
        <time>2020-02-14T14:54:53.156Z</time>
      </trkpt>
      <trkpt lat="42.51061" lon="1.78819">
        <ele>1923.1</ele>
        <time>2020-02-14T14:54:55.613Z</time>
      </trkpt>
      <trkpt lat="42.51058" lon="1.78812">
        <ele>1923.1</ele>
        <time>2020-02-14T14:54:58.451Z</time>
      </trkpt>
      <trkpt lat="42.51055" lon="1.78807">
        <ele>1922.8</ele>
        <time>2020-02-14T14:55:00.867Z</time>
      </trkpt>
      <trkpt lat="42.51053" lon="1.78802">
        <ele>1922.4</ele>
        <time>2020-02-14T14:55:03.161Z</time>
      </trkpt>
      <trkpt lat="42.5105" lon="1.78797">
        <ele>1922.2</ele>
        <time>2020-02-14T14:55:05.563Z</time>
      </trkpt>
      <trkpt lat="42.51047" lon="1.7879">
        <ele>1922.1</ele>
        <time>2020-02-14T14:55:08.173Z</time>
      </trkpt>
      <trkpt lat="42.51045" lon="1.78783">
        <ele>1922.5</ele>
        <time>2020-02-14T14:55:10.910Z</time>
      </trkpt>
      <trkpt lat="42.51045" lon="1.78777">
        <ele>1923.7</ele>
        <time>2020-02-14T14:55:13.326Z</time>
      </trkpt>
      <trkpt lat="42.51044" lon="1.7877">
        <ele>1924.4</ele>
        <time>2020-02-14T14:55:16.057Z</time>
      </trkpt>
      <trkpt lat="42.51041" lon="1.78763">
        <ele>1925</ele>
        <time>2020-02-14T14:55:18.895Z</time>
      </trkpt>
      <trkpt lat="42.5104" lon="1.78756">
        <ele>1926</ele>
        <time>2020-02-14T14:55:21.390Z</time>
      </trkpt>
      <trkpt lat="42.51039" lon="1.7875">
        <ele>1927.2</ele>
        <time>2020-02-14T14:55:23.823Z</time>
      </trkpt>
      <trkpt lat="42.51038" lon="1.78743">
        <ele>1928.1</ele>
        <time>2020-02-14T14:55:26.318Z</time>
      </trkpt>
      <trkpt lat="42.51035" lon="1.78738">
        <ele>1929.1</ele>
        <time>2020-02-14T14:55:28.724Z</time>
      </trkpt>
      <trkpt lat="42.51031" lon="1.78735">
        <ele>1929.4</ele>
        <time>2020-02-14T14:55:31.150Z</time>
      </trkpt>
      <trkpt lat="42.51027" lon="1.78731">
        <ele>1929.8</ele>
        <time>2020-02-14T14:55:33.666Z</time>
      </trkpt>
      <trkpt lat="42.51023" lon="1.78725">
        <ele>1930.5</ele>
        <time>2020-02-14T14:55:36.594Z</time>
      </trkpt>
      <trkpt lat="42.51019" lon="1.7872">
        <ele>1930.9</ele>
        <time>2020-02-14T14:55:39.017Z</time>
      </trkpt>
      <trkpt lat="42.51017" lon="1.78713">
        <ele>1931.6</ele>
        <time>2020-02-14T14:55:41.803Z</time>
      </trkpt>
      <trkpt lat="42.51016" lon="1.78707">
        <ele>1932.3</ele>
        <time>2020-02-14T14:55:44.291Z</time>
      </trkpt>
      <trkpt lat="42.51014" lon="1.78701">
        <ele>1932.6</ele>
        <time>2020-02-14T14:55:46.613Z</time>
      </trkpt>
      <trkpt lat="42.51011" lon="1.78695">
        <ele>1933</ele>
        <time>2020-02-14T14:55:49.057Z</time>
      </trkpt>
      <trkpt lat="42.51009" lon="1.7869">
        <ele>1933.2</ele>
        <time>2020-02-14T14:55:51.282Z</time>
      </trkpt>
      <trkpt lat="42.51006" lon="1.78685">
        <ele>1933.4</ele>
        <time>2020-02-14T14:55:53.598Z</time>
      </trkpt>
      <trkpt lat="42.51004" lon="1.78679">
        <ele>1933.6</ele>
        <time>2020-02-14T14:55:56.107Z</time>
      </trkpt>
      <trkpt lat="42.51002" lon="1.78673">
        <ele>1934</ele>
        <time>2020-02-14T14:55:58.395Z</time>
      </trkpt>
      <trkpt lat="42.51001" lon="1.78666">
        <ele>1934.5</ele>
        <time>2020-02-14T14:56:00.980Z</time>
      </trkpt>
      <trkpt lat="42.51" lon="1.78658">
        <ele>1934.9</ele>
        <time>2020-02-14T14:56:03.949Z</time>
      </trkpt>
      <trkpt lat="42.50999" lon="1.78652">
        <ele>1935.4</ele>
        <time>2020-02-14T14:56:06.216Z</time>
      </trkpt>
      <trkpt lat="42.50997" lon="1.78645">
        <ele>1935.7</ele>
        <time>2020-02-14T14:56:08.867Z</time>
      </trkpt>
      <trkpt lat="42.50997" lon="1.78638">
        <ele>1936.2</ele>
        <time>2020-02-14T14:56:11.508Z</time>
      </trkpt>
      <trkpt lat="42.50996" lon="1.78632">
        <ele>1936.5</ele>
        <time>2020-02-14T14:56:13.737Z</time>
      </trkpt>
      <trkpt lat="42.50994" lon="1.78626">
        <ele>1936.8</ele>
        <time>2020-02-14T14:56:16.097Z</time>
      </trkpt>
      <trkpt lat="42.50993" lon="1.78619">
        <ele>1937.4</ele>
        <time>2020-02-14T14:56:18.413Z</time>
      </trkpt>
      <trkpt lat="42.50993" lon="1.78613">
        <ele>1937.9</ele>
        <time>2020-02-14T14:56:20.638Z</time>
      </trkpt>
      <trkpt lat="42.50994" lon="1.78607">
        <ele>1938.5</ele>
        <time>2020-02-14T14:56:22.988Z</time>
      </trkpt>
      <trkpt lat="42.50993" lon="1.786">
        <ele>1939</ele>
        <time>2020-02-14T14:56:25.660Z</time>
      </trkpt>
      <trkpt lat="42.50994" lon="1.78594">
        <ele>1939.6</ele>
        <time>2020-02-14T14:56:27.899Z</time>
      </trkpt>
      <trkpt lat="42.50995" lon="1.78586">
        <ele>1940.2</ele>
        <time>2020-02-14T14:56:30.658Z</time>
      </trkpt>
      <trkpt lat="42.50995" lon="1.7858">
        <ele>1940.8</ele>
        <time>2020-02-14T14:56:33.035Z</time>
      </trkpt>
      <trkpt lat="42.50993" lon="1.78573">
        <ele>1941.1</ele>
        <time>2020-02-14T14:56:35.534Z</time>
      </trkpt>
      <trkpt lat="42.50994" lon="1.78567">
        <ele>1941.9</ele>
        <time>2020-02-14T14:56:37.936Z</time>
      </trkpt>
      <trkpt lat="42.50995" lon="1.7856">
        <ele>1942.3</ele>
        <time>2020-02-14T14:56:40.199Z</time>
      </trkpt>
      <trkpt lat="42.50995" lon="1.78554">
        <ele>1942.9</ele>
        <time>2020-02-14T14:56:42.615Z</time>
      </trkpt>
      <trkpt lat="42.50994" lon="1.78547">
        <ele>1943.5</ele>
        <time>2020-02-14T14:56:45.166Z</time>
      </trkpt>
      <trkpt lat="42.50994" lon="1.7854">
        <ele>1944.2</ele>
        <time>2020-02-14T14:56:47.696Z</time>
      </trkpt>
      <trkpt lat="42.50994" lon="1.78533">
        <ele>1945.4</ele>
        <time>2020-02-14T14:56:50.409Z</time>
      </trkpt>
      <trkpt lat="42.50994" lon="1.78527">
        <ele>1946.6</ele>
        <time>2020-02-14T14:56:52.680Z</time>
      </trkpt>
      <trkpt lat="42.50993" lon="1.78519">
        <ele>1947.6</ele>
        <time>2020-02-14T14:56:55.452Z</time>
      </trkpt>
      <trkpt lat="42.50992" lon="1.78512">
        <ele>1948.8</ele>
        <time>2020-02-14T14:56:58.169Z</time>
      </trkpt>
      <trkpt lat="42.5099" lon="1.78505">
        <ele>1949.4</ele>
        <time>2020-02-14T14:57:00.934Z</time>
      </trkpt>
      <trkpt lat="42.50988" lon="1.78498">
        <ele>1950.4</ele>
        <time>2020-02-14T14:57:03.647Z</time>
      </trkpt>
      <trkpt lat="42.50988" lon="1.78492">
        <ele>1951.4</ele>
        <time>2020-02-14T14:57:06.063Z</time>
      </trkpt>
      <trkpt lat="42.50985" lon="1.78486">
        <ele>1951.8</ele>
        <time>2020-02-14T14:57:08.700Z</time>
      </trkpt>
      <trkpt lat="42.50983" lon="1.78479">
        <ele>1952.5</ele>
        <time>2020-02-14T14:57:11.386Z</time>
      </trkpt>
      <trkpt lat="42.50981" lon="1.78472">
        <ele>1953.1</ele>
        <time>2020-02-14T14:57:13.871Z</time>
      </trkpt>
      <trkpt lat="42.5098" lon="1.78466">
        <ele>1953.7</ele>
        <time>2020-02-14T14:57:16.166Z</time>
      </trkpt>
      <trkpt lat="42.50978" lon="1.78461">
        <ele>1954.1</ele>
        <time>2020-02-14T14:57:18.429Z</time>
      </trkpt>
      <trkpt lat="42.50977" lon="1.78454">
        <ele>1954.7</ele>
        <time>2020-02-14T14:57:20.966Z</time>
      </trkpt>
      <trkpt lat="42.50976" lon="1.78447">
        <ele>1955.3</ele>
        <time>2020-02-14T14:57:23.441Z</time>
      </trkpt>
      <trkpt lat="42.50974" lon="1.78441">
        <ele>1955.6</ele>
        <time>2020-02-14T14:57:25.822Z</time>
      </trkpt>
      <trkpt lat="42.50972" lon="1.78435">
        <ele>1955.9</ele>
        <time>2020-02-14T14:57:28.182Z</time>
      </trkpt>
      <trkpt lat="42.5097" lon="1.78428">
        <ele>1956.4</ele>
        <time>2020-02-14T14:57:30.854Z</time>
      </trkpt>
      <trkpt lat="42.50968" lon="1.78423">
        <ele>1956.6</ele>
        <time>2020-02-14T14:57:33.225Z</time>
      </trkpt>
      <trkpt lat="42.50965" lon="1.78417">
        <ele>1956.3</ele>
        <time>2020-02-14T14:57:35.547Z</time>
      </trkpt>
      <trkpt lat="42.50962" lon="1.78413">
        <ele>1955.9</ele>
        <time>2020-02-14T14:57:37.991Z</time>
      </trkpt>
      <trkpt lat="42.50962" lon="1.78404">
        <ele>1956.9</ele>
        <time>2020-02-14T14:57:40.963Z</time>
      </trkpt>
      <trkpt lat="42.50959" lon="1.784">
        <ele>1956.6</ele>
        <time>2020-02-14T14:57:43.189Z</time>
      </trkpt>
      <trkpt lat="42.50956" lon="1.78396">
        <ele>1956.8</ele>
        <time>2020-02-14T14:57:45.546Z</time>
      </trkpt>
      <trkpt lat="42.50958" lon="1.784">
        <ele>1956.4</ele>
        <time>2020-02-14T14:57:47.806Z</time>
      </trkpt>
      <trkpt lat="42.50955" lon="1.78395">
        <ele>1956.9</ele>
        <time>2020-02-14T14:57:50.287Z</time>
      </trkpt>
      <trkpt lat="42.50953" lon="1.78389">
        <ele>1957.5</ele>
        <time>2020-02-14T14:57:52.956Z</time>
      </trkpt>
      <trkpt lat="42.5095" lon="1.78383">
        <ele>1958.1</ele>
        <time>2020-02-14T14:57:55.513Z</time>
      </trkpt>
      <trkpt lat="42.50947" lon="1.78376">
        <ele>1958.7</ele>
        <time>2020-02-14T14:57:58.292Z</time>
      </trkpt>
      <trkpt lat="42.50945" lon="1.7837">
        <ele>1959.6</ele>
        <time>2020-02-14T14:58:00.719Z</time>
      </trkpt>
      <trkpt lat="42.50943" lon="1.78364">
        <ele>1960.6</ele>
        <time>2020-02-14T14:58:03.110Z</time>
      </trkpt>
      <trkpt lat="42.50941" lon="1.78358">
        <ele>1961.3</ele>
        <time>2020-02-14T14:58:05.574Z</time>
      </trkpt>
      <trkpt lat="42.50939" lon="1.78352">
        <ele>1962.4</ele>
        <time>2020-02-14T14:58:08.208Z</time>
      </trkpt>
      <trkpt lat="42.50938" lon="1.78345">
        <ele>1963.3</ele>
        <time>2020-02-14T14:58:10.790Z</time>
      </trkpt>
      <trkpt lat="42.50937" lon="1.78339">
        <ele>1964.2</ele>
        <time>2020-02-14T14:58:13.043Z</time>
      </trkpt>
      <trkpt lat="42.50936" lon="1.78332">
        <ele>1965.2</ele>
        <time>2020-02-14T14:58:15.846Z</time>
      </trkpt>
      <trkpt lat="42.50934" lon="1.78326">
        <ele>1966</ele>
        <time>2020-02-14T14:58:18.186Z</time>
      </trkpt>
      <trkpt lat="42.50931" lon="1.7832">
        <ele>1966.7</ele>
        <time>2020-02-14T14:58:20.771Z</time>
      </trkpt>
      <trkpt lat="42.50926" lon="1.78316">
        <ele>1966.9</ele>
        <time>2020-02-14T14:58:23.429Z</time>
      </trkpt>
      <trkpt lat="42.50923" lon="1.78311">
        <ele>1967.5</ele>
        <time>2020-02-14T14:58:25.755Z</time>
      </trkpt>
      <trkpt lat="42.50919" lon="1.78309">
        <ele>1967.5</ele>
        <time>2020-02-14T14:58:28.206Z</time>
      </trkpt>
      <trkpt lat="42.50915" lon="1.78304">
        <ele>1967.9</ele>
        <time>2020-02-14T14:58:30.891Z</time>
      </trkpt>
      <trkpt lat="42.50911" lon="1.78299">
        <ele>1968.2</ele>
        <time>2020-02-14T14:58:33.259Z</time>
      </trkpt>
      <trkpt lat="42.50907" lon="1.78295">
        <ele>1968.4</ele>
        <time>2020-02-14T14:58:35.771Z</time>
      </trkpt>
      <trkpt lat="42.50904" lon="1.7829">
        <ele>1968.7</ele>
        <time>2020-02-14T14:58:38.149Z</time>
      </trkpt>
      <trkpt lat="42.50902" lon="1.78284">
        <ele>1969.3</ele>
        <time>2020-02-14T14:58:40.437Z</time>
      </trkpt>
      <trkpt lat="42.50899" lon="1.78279">
        <ele>1969.7</ele>
        <time>2020-02-14T14:58:42.991Z</time>
      </trkpt>
      <trkpt lat="42.50897" lon="1.78273">
        <ele>1970.3</ele>
        <time>2020-02-14T14:58:45.618Z</time>
      </trkpt>
      <trkpt lat="42.50895" lon="1.78266">
        <ele>1971.1</ele>
        <time>2020-02-14T14:58:48.006Z</time>
      </trkpt>
      <trkpt lat="42.50894" lon="1.7826">
        <ele>1971.7</ele>
        <time>2020-02-14T14:58:50.511Z</time>
      </trkpt>
      <trkpt lat="42.50891" lon="1.78254">
        <ele>1972.1</ele>
        <time>2020-02-14T14:58:53.128Z</time>
      </trkpt>
      <trkpt lat="42.50888" lon="1.78249">
        <ele>1972.3</ele>
        <time>2020-02-14T14:58:55.350Z</time>
      </trkpt>
      <trkpt lat="42.50884" lon="1.78245">
        <ele>1972.3</ele>
        <time>2020-02-14T14:58:57.959Z</time>
      </trkpt>
      <trkpt lat="42.5088" lon="1.7824">
        <ele>1972.3</ele>
        <time>2020-02-14T14:59:00.430Z</time>
      </trkpt>
      <trkpt lat="42.50877" lon="1.78234">
        <ele>1972.7</ele>
        <time>2020-02-14T14:59:03.127Z</time>
      </trkpt>
      <trkpt lat="42.50874" lon="1.7823">
        <ele>1973</ele>
        <time>2020-02-14T14:59:05.359Z</time>
      </trkpt>
      <trkpt lat="42.5087" lon="1.78224">
        <ele>1974</ele>
        <time>2020-02-14T14:59:08.062Z</time>
      </trkpt>
      <trkpt lat="42.50866" lon="1.78221">
        <ele>1974.8</ele>
        <time>2020-02-14T14:59:10.419Z</time>
      </trkpt>
      <trkpt lat="42.50864" lon="1.78215">
        <ele>1975.7</ele>
        <time>2020-02-14T14:59:12.852Z</time>
      </trkpt>
      <trkpt lat="42.50865" lon="1.78208">
        <ele>1976.3</ele>
        <time>2020-02-14T14:59:15.320Z</time>
      </trkpt>
      <trkpt lat="42.50865" lon="1.78202">
        <ele>1977.1</ele>
        <time>2020-02-14T14:59:17.670Z</time>
      </trkpt>
      <trkpt lat="42.50864" lon="1.78194">
        <ele>1978.2</ele>
        <time>2020-02-14T14:59:20.445Z</time>
      </trkpt>
      <trkpt lat="42.50864" lon="1.78187">
        <ele>1979.2</ele>
        <time>2020-02-14T14:59:23.020Z</time>
      </trkpt>
      <trkpt lat="42.50867" lon="1.78181">
        <ele>1979.7</ele>
        <time>2020-02-14T14:59:25.464Z</time>
      </trkpt>
      <trkpt lat="42.50866" lon="1.78175">
        <ele>1980.5</ele>
        <time>2020-02-14T14:59:27.987Z</time>
      </trkpt>
      <trkpt lat="42.50865" lon="1.78168">
        <ele>1981.5</ele>
        <time>2020-02-14T14:59:30.465Z</time>
      </trkpt>
      <trkpt lat="42.50864" lon="1.78161">
        <ele>1982.6</ele>
        <time>2020-02-14T14:59:33.123Z</time>
      </trkpt>
      <trkpt lat="42.50864" lon="1.78155">
        <ele>1983.3</ele>
        <time>2020-02-14T14:59:35.362Z</time>
      </trkpt>
      <trkpt lat="42.50862" lon="1.78148">
        <ele>1984.2</ele>
        <time>2020-02-14T14:59:38.058Z</time>
      </trkpt>
      <trkpt lat="42.50861" lon="1.78142">
        <ele>1985</ele>
        <time>2020-02-14T14:59:40.356Z</time>
      </trkpt>
      <trkpt lat="42.50859" lon="1.78136">
        <ele>1985.9</ele>
        <time>2020-02-14T14:59:42.921Z</time>
      </trkpt>
      <trkpt lat="42.5086" lon="1.7813">
        <ele>1986.7</ele>
        <time>2020-02-14T14:59:45.246Z</time>
      </trkpt>
      <trkpt lat="42.50862" lon="1.78124">
        <ele>1987.4</ele>
        <time>2020-02-14T14:59:47.704Z</time>
      </trkpt>
      <trkpt lat="42.50866" lon="1.78118">
        <ele>1987.9</ele>
        <time>2020-02-14T14:59:50.448Z</time>
      </trkpt>
      <trkpt lat="42.50869" lon="1.78112">
        <ele>1988.6</ele>
        <time>2020-02-14T14:59:53.075Z</time>
      </trkpt>
      <trkpt lat="42.50873" lon="1.78108">
        <ele>1989.2</ele>
        <time>2020-02-14T14:59:55.553Z</time>
      </trkpt>
      <trkpt lat="42.50875" lon="1.78103">
        <ele>1989.8</ele>
        <time>2020-02-14T14:59:57.820Z</time>
      </trkpt>
      <trkpt lat="42.50877" lon="1.78096">
        <ele>1990.7</ele>
        <time>2020-02-14T15:00:00.212Z</time>
      </trkpt>
      <trkpt lat="42.50875" lon="1.7809">
        <ele>1991.3</ele>
        <time>2020-02-14T15:00:02.714Z</time>
      </trkpt>
      <trkpt lat="42.50873" lon="1.78084">
        <ele>1991.9</ele>
        <time>2020-02-14T15:00:04.950Z</time>
      </trkpt>
      <trkpt lat="42.50871" lon="1.78079">
        <ele>1992.6</ele>
        <time>2020-02-14T15:00:07.227Z</time>
      </trkpt>
      <trkpt lat="42.50868" lon="1.78073">
        <ele>1993</ele>
        <time>2020-02-14T15:00:09.753Z</time>
      </trkpt>
      <trkpt lat="42.50864" lon="1.7807">
        <ele>1993.2</ele>
        <time>2020-02-14T15:00:12.308Z</time>
      </trkpt>
      <trkpt lat="42.50859" lon="1.78069">
        <ele>1993.2</ele>
        <time>2020-02-14T15:00:14.727Z</time>
      </trkpt>
      <trkpt lat="42.50854" lon="1.78071">
        <ele>1992.9</ele>
        <time>2020-02-14T15:00:16.987Z</time>
      </trkpt>
      <trkpt lat="42.50849" lon="1.78069">
        <ele>1992.9</ele>
        <time>2020-02-14T15:00:19.410Z</time>
      </trkpt>
      <trkpt lat="42.50846" lon="1.78063">
        <ele>1993.4</ele>
        <time>2020-02-14T15:00:22.023Z</time>
      </trkpt>
      <trkpt lat="42.50845" lon="1.78057">
        <ele>1993.8</ele>
        <time>2020-02-14T15:00:24.317Z</time>
      </trkpt>
      <trkpt lat="42.50841" lon="1.78053">
        <ele>1993.9</ele>
        <time>2020-02-14T15:00:26.639Z</time>
      </trkpt>
      <trkpt lat="42.50836" lon="1.7805">
        <ele>1993.9</ele>
        <time>2020-02-14T15:00:29.190Z</time>
      </trkpt>
      <trkpt lat="42.50837" lon="1.78044">
        <ele>1994.6</ele>
        <time>2020-02-14T15:00:31.488Z</time>
      </trkpt>
      <trkpt lat="42.50838" lon="1.78036">
        <ele>1995.6</ele>
        <time>2020-02-14T15:00:34.368Z</time>
      </trkpt>
      <trkpt lat="42.5084" lon="1.7803">
        <ele>1996.5</ele>
        <time>2020-02-14T15:00:36.960Z</time>
      </trkpt>
      <trkpt lat="42.50843" lon="1.78024">
        <ele>1997.5</ele>
        <time>2020-02-14T15:00:39.691Z</time>
      </trkpt>
      <trkpt lat="42.50845" lon="1.78018">
        <ele>1998.4</ele>
        <time>2020-02-14T15:00:42.061Z</time>
      </trkpt>
      <trkpt lat="42.50847" lon="1.78012">
        <ele>1999.4</ele>
        <time>2020-02-14T15:00:44.505Z</time>
      </trkpt>
      <trkpt lat="42.50849" lon="1.78006">
        <ele>2000.3</ele>
        <time>2020-02-14T15:00:46.761Z</time>
      </trkpt>
      <trkpt lat="42.50852" lon="1.78001">
        <ele>2001.2</ele>
        <time>2020-02-14T15:00:49.226Z</time>
      </trkpt>
      <trkpt lat="42.50855" lon="1.77995">
        <ele>2002.3</ele>
        <time>2020-02-14T15:00:51.724Z</time>
      </trkpt>
      <trkpt lat="42.50858" lon="1.7799">
        <ele>2003.1</ele>
        <time>2020-02-14T15:00:54.247Z</time>
      </trkpt>
      <trkpt lat="42.50858" lon="1.77984">
        <ele>2004.1</ele>
        <time>2020-02-14T15:00:56.726Z</time>
      </trkpt>
      <trkpt lat="42.50859" lon="1.77978">
        <ele>2005</ele>
        <time>2020-02-14T15:00:59.079Z</time>
      </trkpt>
      <trkpt lat="42.50859" lon="1.77971">
        <ele>2005.8</ele>
        <time>2020-02-14T15:01:01.457Z</time>
      </trkpt>
      <trkpt lat="42.50857" lon="1.77966">
        <ele>2006.6</ele>
        <time>2020-02-14T15:01:03.734Z</time>
      </trkpt>
      <trkpt lat="42.50856" lon="1.77959">
        <ele>2007.3</ele>
        <time>2020-02-14T15:01:06.164Z</time>
      </trkpt>
      <trkpt lat="42.50856" lon="1.77953">
        <ele>2008.3</ele>
        <time>2020-02-14T15:01:08.500Z</time>
      </trkpt>
      <trkpt lat="42.50856" lon="1.77946">
        <ele>2009.4</ele>
        <time>2020-02-14T15:01:11.092Z</time>
      </trkpt>
      <trkpt lat="42.50856" lon="1.77939">
        <ele>2010.6</ele>
        <time>2020-02-14T15:01:13.643Z</time>
      </trkpt>
      <trkpt lat="42.50856" lon="1.77933">
        <ele>2011.7</ele>
        <time>2020-02-14T15:01:15.968Z</time>
      </trkpt>
      <trkpt lat="42.50856" lon="1.77926">
        <ele>2012.7</ele>
        <time>2020-02-14T15:01:18.415Z</time>
      </trkpt>
      <trkpt lat="42.50857" lon="1.7792">
        <ele>2013.9</ele>
        <time>2020-02-14T15:01:20.748Z</time>
      </trkpt>
      <trkpt lat="42.50857" lon="1.77913">
        <ele>2015</ele>
        <time>2020-02-14T15:01:23.275Z</time>
      </trkpt>
      <trkpt lat="42.50857" lon="1.77907">
        <ele>2016</ele>
        <time>2020-02-14T15:01:25.759Z</time>
      </trkpt>
      <trkpt lat="42.50859" lon="1.77901">
        <ele>2017.3</ele>
        <time>2020-02-14T15:01:28.196Z</time>
      </trkpt>
      <trkpt lat="42.50861" lon="1.77895">
        <ele>2018.5</ele>
        <time>2020-02-14T15:01:30.487Z</time>
      </trkpt>
      <trkpt lat="42.50862" lon="1.77888">
        <ele>2019.9</ele>
        <time>2020-02-14T15:01:33.104Z</time>
      </trkpt>
      <trkpt lat="42.50865" lon="1.77883">
        <ele>2021.1</ele>
        <time>2020-02-14T15:01:35.412Z</time>
      </trkpt>
      <trkpt lat="42.50869" lon="1.77879">
        <ele>2022.3</ele>
        <time>2020-02-14T15:01:37.828Z</time>
      </trkpt>
      <trkpt lat="42.50869" lon="1.77873">
        <ele>2023.3</ele>
        <time>2020-02-14T15:01:40.161Z</time>
      </trkpt>
      <trkpt lat="42.50869" lon="1.77866">
        <ele>2024</ele>
        <time>2020-02-14T15:01:42.590Z</time>
      </trkpt>
      <trkpt lat="42.50869" lon="1.7786">
        <ele>2024.9</ele>
        <time>2020-02-14T15:01:44.843Z</time>
      </trkpt>
      <trkpt lat="42.50869" lon="1.77854">
        <ele>2025.6</ele>
        <time>2020-02-14T15:01:47.304Z</time>
      </trkpt>
      <trkpt lat="42.50871" lon="1.77848">
        <ele>2026.8</ele>
        <time>2020-02-14T15:01:49.744Z</time>
      </trkpt>
      <trkpt lat="42.50869" lon="1.77842">
        <ele>2027.1</ele>
        <time>2020-02-14T15:01:52.194Z</time>
      </trkpt>
      <trkpt lat="42.50865" lon="1.77837">
        <ele>2027.1</ele>
        <time>2020-02-14T15:01:54.586Z</time>
      </trkpt>
      <trkpt lat="42.50862" lon="1.77833">
        <ele>2027.1</ele>
        <time>2020-02-14T15:01:56.894Z</time>
      </trkpt>
      <trkpt lat="42.50857" lon="1.7783">
        <ele>2026.8</ele>
        <time>2020-02-14T15:01:59.265Z</time>
      </trkpt>
      <trkpt lat="42.50854" lon="1.77825">
        <ele>2026.9</ele>
        <time>2020-02-14T15:02:01.868Z</time>
      </trkpt>
      <trkpt lat="42.50849" lon="1.77824">
        <ele>2026.2</ele>
        <time>2020-02-14T15:02:04.273Z</time>
      </trkpt>
      <trkpt lat="42.50846" lon="1.77818">
        <ele>2026.5</ele>
        <time>2020-02-14T15:02:06.761Z</time>
      </trkpt>
      <trkpt lat="42.50845" lon="1.77811">
        <ele>2027.3</ele>
        <time>2020-02-14T15:02:09.440Z</time>
      </trkpt>
      <trkpt lat="42.50843" lon="1.77805">
        <ele>2027.8</ele>
        <time>2020-02-14T15:02:12.005Z</time>
      </trkpt>
      <trkpt lat="42.50841" lon="1.77798">
        <ele>2028.4</ele>
        <time>2020-02-14T15:02:14.659Z</time>
      </trkpt>
      <trkpt lat="42.50839" lon="1.77792">
        <ele>2028.9</ele>
        <time>2020-02-14T15:02:17.040Z</time>
      </trkpt>
      <trkpt lat="42.50838" lon="1.77785">
        <ele>2029.5</ele>
        <time>2020-02-14T15:02:19.667Z</time>
      </trkpt>
      <trkpt lat="42.50837" lon="1.77778">
        <ele>2030.1</ele>
        <time>2020-02-14T15:02:22.121Z</time>
      </trkpt>
      <trkpt lat="42.50836" lon="1.77772">
        <ele>2030.4</ele>
        <time>2020-02-14T15:02:24.392Z</time>
      </trkpt>
      <trkpt lat="42.50835" lon="1.77765">
        <ele>2031.3</ele>
        <time>2020-02-14T15:02:27.039Z</time>
      </trkpt>
      <trkpt lat="42.50835" lon="1.77758">
        <ele>2032</ele>
        <time>2020-02-14T15:02:29.490Z</time>
      </trkpt>
      <trkpt lat="42.50835" lon="1.77752">
        <ele>2032.6</ele>
        <time>2020-02-14T15:02:31.891Z</time>
      </trkpt>
      <trkpt lat="42.50833" lon="1.77746">
        <ele>2033</ele>
        <time>2020-02-14T15:02:34.321Z</time>
      </trkpt>
      <trkpt lat="42.50832" lon="1.77739">
        <ele>2033.5</ele>
        <time>2020-02-14T15:02:36.899Z</time>
      </trkpt>
      <trkpt lat="42.50831" lon="1.77732">
        <ele>2034.2</ele>
        <time>2020-02-14T15:02:39.585Z</time>
      </trkpt>
      <trkpt lat="42.5083" lon="1.77725">
        <ele>2034.7</ele>
        <time>2020-02-14T15:02:41.925Z</time>
      </trkpt>
      <trkpt lat="42.50829" lon="1.77719">
        <ele>2035.4</ele>
        <time>2020-02-14T15:02:44.382Z</time>
      </trkpt>
      <trkpt lat="42.50828" lon="1.77712">
        <ele>2036</ele>
        <time>2020-02-14T15:02:46.846Z</time>
      </trkpt>
      <trkpt lat="42.50829" lon="1.77705">
        <ele>2036.6</ele>
        <time>2020-02-14T15:02:49.560Z</time>
      </trkpt>
      <trkpt lat="42.50828" lon="1.77699">
        <ele>2037</ele>
        <time>2020-02-14T15:02:51.816Z</time>
      </trkpt>
      <trkpt lat="42.50827" lon="1.77693">
        <ele>2037.3</ele>
        <time>2020-02-14T15:02:54.052Z</time>
      </trkpt>
      <trkpt lat="42.50826" lon="1.77686">
        <ele>2037.6</ele>
        <time>2020-02-14T15:02:56.343Z</time>
      </trkpt>
      <trkpt lat="42.50825" lon="1.7768">
        <ele>2037.8</ele>
        <time>2020-02-14T15:02:58.745Z</time>
      </trkpt>
      <trkpt lat="42.50825" lon="1.77673">
        <ele>2038.3</ele>
        <time>2020-02-14T15:03:01.227Z</time>
      </trkpt>
      <trkpt lat="42.50824" lon="1.77667">
        <ele>2038.5</ele>
        <time>2020-02-14T15:03:03.452Z</time>
      </trkpt>
      <trkpt lat="42.50824" lon="1.77661">
        <ele>2038.8</ele>
        <time>2020-02-14T15:03:05.812Z</time>
      </trkpt>
      <trkpt lat="42.50824" lon="1.77652">
        <ele>2039.4</ele>
        <time>2020-02-14T15:03:08.889Z</time>
      </trkpt>
      <trkpt lat="42.50825" lon="1.77646">
        <ele>2039.9</ele>
        <time>2020-02-14T15:03:11.222Z</time>
      </trkpt>
      <trkpt lat="42.50824" lon="1.7764">
        <ele>2040.3</ele>
        <time>2020-02-14T15:03:13.527Z</time>
      </trkpt>
      <trkpt lat="42.50825" lon="1.77633">
        <ele>2040.7</ele>
        <time>2020-02-14T15:03:15.981Z</time>
      </trkpt>
      <trkpt lat="42.50826" lon="1.77626">
        <ele>2041.2</ele>
        <time>2020-02-14T15:03:18.649Z</time>
      </trkpt>
      <trkpt lat="42.50827" lon="1.77619">
        <ele>2041.7</ele>
        <time>2020-02-14T15:03:21.203Z</time>
      </trkpt>
      <trkpt lat="42.5083" lon="1.77614">
        <ele>2042.4</ele>
        <time>2020-02-14T15:03:23.678Z</time>
      </trkpt>
      <trkpt lat="42.5083" lon="1.77607">
        <ele>2042.7</ele>
        <time>2020-02-14T15:03:26.045Z</time>
      </trkpt>
      <trkpt lat="42.50831" lon="1.77601">
        <ele>2043.2</ele>
        <time>2020-02-14T15:03:28.423Z</time>
      </trkpt>
      <trkpt lat="42.5083" lon="1.77594">
        <ele>2043.5</ele>
        <time>2020-02-14T15:03:30.783Z</time>
      </trkpt>
      <trkpt lat="42.50829" lon="1.77588">
        <ele>2043.7</ele>
        <time>2020-02-14T15:03:33.223Z</time>
      </trkpt>
      <trkpt lat="42.50826" lon="1.77582">
        <ele>2043.7</ele>
        <time>2020-02-14T15:03:35.701Z</time>
      </trkpt>
      <trkpt lat="42.50826" lon="1.77576">
        <ele>2044</ele>
        <time>2020-02-14T15:03:37.985Z</time>
      </trkpt>
      <trkpt lat="42.50823" lon="1.7757">
        <ele>2044</ele>
        <time>2020-02-14T15:03:40.557Z</time>
      </trkpt>
      <trkpt lat="42.50822" lon="1.77564">
        <ele>2044.4</ele>
        <time>2020-02-14T15:03:42.931Z</time>
      </trkpt>
      <trkpt lat="42.50822" lon="1.77557">
        <ele>2044.7</ele>
        <time>2020-02-14T15:03:45.181Z</time>
      </trkpt>
      <trkpt lat="42.50821" lon="1.77551">
        <ele>2044.9</ele>
        <time>2020-02-14T15:03:47.621Z</time>
      </trkpt>
      <trkpt lat="42.50822" lon="1.77544">
        <ele>2045.5</ele>
        <time>2020-02-14T15:03:50.009Z</time>
      </trkpt>
      <trkpt lat="42.50823" lon="1.77538">
        <ele>2045.8</ele>
        <time>2020-02-14T15:03:52.414Z</time>
      </trkpt>
      <trkpt lat="42.50823" lon="1.77531">
        <ele>2045.9</ele>
        <time>2020-02-14T15:03:54.992Z</time>
      </trkpt>
      <trkpt lat="42.50824" lon="1.77524">
        <ele>2046.2</ele>
        <time>2020-02-14T15:03:57.391Z</time>
      </trkpt>
      <trkpt lat="42.50824" lon="1.77518">
        <ele>2046.5</ele>
        <time>2020-02-14T15:03:59.724Z</time>
      </trkpt>
      <trkpt lat="42.50824" lon="1.77511">
        <ele>2046.6</ele>
        <time>2020-02-14T15:04:02.084Z</time>
      </trkpt>
      <trkpt lat="42.50826" lon="1.77505">
        <ele>2046.9</ele>
        <time>2020-02-14T15:04:04.732Z</time>
      </trkpt>
      <trkpt lat="42.50828" lon="1.77498">
        <ele>2047.2</ele>
        <time>2020-02-14T15:04:07.383Z</time>
      </trkpt>
      <trkpt lat="42.50829" lon="1.77491">
        <ele>2047.5</ele>
        <time>2020-02-14T15:04:09.757Z</time>
      </trkpt>
      <trkpt lat="42.50831" lon="1.77485">
        <ele>2047.8</ele>
        <time>2020-02-14T15:04:12.294Z</time>
      </trkpt>
      <trkpt lat="42.50832" lon="1.77479">
        <ele>2048.1</ele>
        <time>2020-02-14T15:04:14.640Z</time>
      </trkpt>
      <trkpt lat="42.50833" lon="1.77472">
        <ele>2048.3</ele>
        <time>2020-02-14T15:04:17.222Z</time>
      </trkpt>
      <trkpt lat="42.50833" lon="1.77465">
        <ele>2048.4</ele>
        <time>2020-02-14T15:04:19.655Z</time>
      </trkpt>
      <trkpt lat="42.50835" lon="1.77459">
        <ele>2048.5</ele>
        <time>2020-02-14T15:04:21.950Z</time>
      </trkpt>
      <trkpt lat="42.50835" lon="1.77453">
        <ele>2048.8</ele>
        <time>2020-02-14T15:04:24.172Z</time>
      </trkpt>
      <trkpt lat="42.50836" lon="1.77446">
        <ele>2049.2</ele>
        <time>2020-02-14T15:04:26.570Z</time>
      </trkpt>
      <trkpt lat="42.50838" lon="1.7744">
        <ele>2049.5</ele>
        <time>2020-02-14T15:04:29.014Z</time>
      </trkpt>
      <trkpt lat="42.50839" lon="1.77433">
        <ele>2049.9</ele>
        <time>2020-02-14T15:04:31.568Z</time>
      </trkpt>
      <trkpt lat="42.50839" lon="1.77427">
        <ele>2050.2</ele>
        <time>2020-02-14T15:04:34.015Z</time>
      </trkpt>
      <trkpt lat="42.50841" lon="1.7742">
        <ele>2050.5</ele>
        <time>2020-02-14T15:04:36.514Z</time>
      </trkpt>
      <trkpt lat="42.50842" lon="1.77414">
        <ele>2050.7</ele>
        <time>2020-02-14T15:04:38.787Z</time>
      </trkpt>
      <trkpt lat="42.50843" lon="1.77408">
        <ele>2051</ele>
        <time>2020-02-14T15:04:41.162Z</time>
      </trkpt>
      <trkpt lat="42.50845" lon="1.77402">
        <ele>2051.2</ele>
        <time>2020-02-14T15:04:43.463Z</time>
      </trkpt>
      <trkpt lat="42.50847" lon="1.77396">
        <ele>2051.3</ele>
        <time>2020-02-14T15:04:45.706Z</time>
      </trkpt>
      <trkpt lat="42.50849" lon="1.7739">
        <ele>2051.5</ele>
        <time>2020-02-14T15:04:48.108Z</time>
      </trkpt>
      <trkpt lat="42.50851" lon="1.77384">
        <ele>2051.5</ele>
        <time>2020-02-14T15:04:50.555Z</time>
      </trkpt>
      <trkpt lat="42.50851" lon="1.77378">
        <ele>2051.7</ele>
        <time>2020-02-14T15:04:52.963Z</time>
      </trkpt>
      <trkpt lat="42.50852" lon="1.77372">
        <ele>2052.2</ele>
        <time>2020-02-14T15:04:55.258Z</time>
      </trkpt>
      <trkpt lat="42.50854" lon="1.77366">
        <ele>2052.9</ele>
        <time>2020-02-14T15:04:57.629Z</time>
      </trkpt>
      <trkpt lat="42.50857" lon="1.77361">
        <ele>2053.2</ele>
        <time>2020-02-14T15:05:00.076Z</time>
      </trkpt>
      <trkpt lat="42.5086" lon="1.77356">
        <ele>2053.5</ele>
        <time>2020-02-14T15:05:02.346Z</time>
      </trkpt>
      <trkpt lat="42.50864" lon="1.77351">
        <ele>2053.8</ele>
        <time>2020-02-14T15:05:04.776Z</time>
      </trkpt>
      <trkpt lat="42.50867" lon="1.77347">
        <ele>2054.1</ele>
        <time>2020-02-14T15:05:07.140Z</time>
      </trkpt>
      <trkpt lat="42.50871" lon="1.77342">
        <ele>2054.4</ele>
        <time>2020-02-14T15:05:09.628Z</time>
      </trkpt>
      <trkpt lat="42.50874" lon="1.77337">
        <ele>2054.6</ele>
        <time>2020-02-14T15:05:12.134Z</time>
      </trkpt>
      <trkpt lat="42.50878" lon="1.77333">
        <ele>2055.9</ele>
        <time>2020-02-14T15:05:14.504Z</time>
      </trkpt>
      <trkpt lat="42.5088" lon="1.77327">
        <ele>2057.1</ele>
        <time>2020-02-14T15:05:17.031Z</time>
      </trkpt>
      <trkpt lat="42.50884" lon="1.77322">
        <ele>2058.5</ele>
        <time>2020-02-14T15:05:19.589Z</time>
      </trkpt>
      <trkpt lat="42.50887" lon="1.77317">
        <ele>2059.5</ele>
        <time>2020-02-14T15:05:21.977Z</time>
      </trkpt>
      <trkpt lat="42.5089" lon="1.77311">
        <ele>2060.7</ele>
        <time>2020-02-14T15:05:24.486Z</time>
      </trkpt>
      <trkpt lat="42.50892" lon="1.77306">
        <ele>2061.5</ele>
        <time>2020-02-14T15:05:26.805Z</time>
      </trkpt>
      <trkpt lat="42.50895" lon="1.77301">
        <ele>2062.4</ele>
        <time>2020-02-14T15:05:29.186Z</time>
      </trkpt>
      <trkpt lat="42.50895" lon="1.77295">
        <ele>2062.7</ele>
        <time>2020-02-14T15:05:31.456Z</time>
      </trkpt>
      <trkpt lat="42.50897" lon="1.77288">
        <ele>2063.6</ele>
        <time>2020-02-14T15:05:34.080Z</time>
      </trkpt>
      <trkpt lat="42.50898" lon="1.77282">
        <ele>2064.4</ele>
        <time>2020-02-14T15:05:36.367Z</time>
      </trkpt>
      <trkpt lat="42.50899" lon="1.77276">
        <ele>2065.2</ele>
        <time>2020-02-14T15:05:38.676Z</time>
      </trkpt>
      <trkpt lat="42.50899" lon="1.77268">
        <ele>2066.1</ele>
        <time>2020-02-14T15:05:41.500Z</time>
      </trkpt>
      <trkpt lat="42.50898" lon="1.77261">
        <ele>2066.8</ele>
        <time>2020-02-14T15:05:44.058Z</time>
      </trkpt>
      <trkpt lat="42.50897" lon="1.77255">
        <ele>2067.3</ele>
        <time>2020-02-14T15:05:46.504Z</time>
      </trkpt>
      <trkpt lat="42.50894" lon="1.77249">
        <ele>2067.7</ele>
        <time>2020-02-14T15:05:48.785Z</time>
      </trkpt>
      <trkpt lat="42.50891" lon="1.77245">
        <ele>2068</ele>
        <time>2020-02-14T15:05:51.170Z</time>
      </trkpt>
      <trkpt lat="42.50886" lon="1.77241">
        <ele>2068.5</ele>
        <time>2020-02-14T15:05:53.766Z</time>
      </trkpt>
      <trkpt lat="42.50883" lon="1.77236">
        <ele>2069</ele>
        <time>2020-02-14T15:05:56.251Z</time>
      </trkpt>
      <trkpt lat="42.5088" lon="1.77231">
        <ele>2069.7</ele>
        <time>2020-02-14T15:05:58.697Z</time>
      </trkpt>
      <trkpt lat="42.50877" lon="1.77226">
        <ele>2070.3</ele>
        <time>2020-02-14T15:06:00.964Z</time>
      </trkpt>
      <trkpt lat="42.50873" lon="1.77223">
        <ele>2071</ele>
        <time>2020-02-14T15:06:03.349Z</time>
      </trkpt>
      <trkpt lat="42.50868" lon="1.77221">
        <ele>2071.9</ele>
        <time>2020-02-14T15:06:05.716Z</time>
      </trkpt>
      <trkpt lat="42.50865" lon="1.77216">
        <ele>2073</ele>
        <time>2020-02-14T15:06:08.315Z</time>
      </trkpt>
      <trkpt lat="42.50863" lon="1.7721">
        <ele>2074.2</ele>
        <time>2020-02-14T15:06:10.700Z</time>
      </trkpt>
      <trkpt lat="42.50863" lon="1.77203">
        <ele>2074.7</ele>
        <time>2020-02-14T15:06:12.995Z</time>
      </trkpt>
      <trkpt lat="42.50863" lon="1.77196">
        <ele>2075.2</ele>
        <time>2020-02-14T15:06:15.632Z</time>
      </trkpt>
      <trkpt lat="42.50862" lon="1.7719">
        <ele>2075.8</ele>
        <time>2020-02-14T15:06:17.892Z</time>
      </trkpt>
      <trkpt lat="42.50861" lon="1.77184">
        <ele>2076.3</ele>
        <time>2020-02-14T15:06:20.190Z</time>
      </trkpt>
      <trkpt lat="42.5086" lon="1.77178">
        <ele>2076.8</ele>
        <time>2020-02-14T15:06:22.516Z</time>
      </trkpt>
      <trkpt lat="42.50861" lon="1.77171">
        <ele>2077.1</ele>
        <time>2020-02-14T15:06:25.035Z</time>
      </trkpt>
      <trkpt lat="42.5086" lon="1.77165">
        <ele>2077.6</ele>
        <time>2020-02-14T15:06:27.288Z</time>
      </trkpt>
      <trkpt lat="42.50859" lon="1.77158">
        <ele>2078.3</ele>
        <time>2020-02-14T15:06:29.943Z</time>
      </trkpt>
      <trkpt lat="42.50856" lon="1.77151">
        <ele>2079</ele>
        <time>2020-02-14T15:06:32.719Z</time>
      </trkpt>
      <trkpt lat="42.50854" lon="1.77145">
        <ele>2079.6</ele>
        <time>2020-02-14T15:06:35.290Z</time>
      </trkpt>
      <trkpt lat="42.50849" lon="1.77143">
        <ele>2080.3</ele>
        <time>2020-02-14T15:06:37.768Z</time>
      </trkpt>
      <trkpt lat="42.50845" lon="1.77139">
        <ele>2081</ele>
        <time>2020-02-14T15:06:40.264Z</time>
      </trkpt>
      <trkpt lat="42.50841" lon="1.77138">
        <ele>2081.5</ele>
        <time>2020-02-14T15:06:42.575Z</time>
      </trkpt>
      <trkpt lat="42.50837" lon="1.77134">
        <ele>2082.2</ele>
        <time>2020-02-14T15:06:44.943Z</time>
      </trkpt>
      <trkpt lat="42.50834" lon="1.77129">
        <ele>2082.8</ele>
        <time>2020-02-14T15:06:47.393Z</time>
      </trkpt>
      <trkpt lat="42.50834" lon="1.77123">
        <ele>2083.2</ele>
        <time>2020-02-14T15:06:49.722Z</time>
      </trkpt>
      <trkpt lat="42.50834" lon="1.77116">
        <ele>2083.8</ele>
        <time>2020-02-14T15:06:52.283Z</time>
      </trkpt>
      <trkpt lat="42.50833" lon="1.77109">
        <ele>2084.3</ele>
        <time>2020-02-14T15:06:54.838Z</time>
      </trkpt>
      <trkpt lat="42.50835" lon="1.77103">
        <ele>2084.5</ele>
        <time>2020-02-14T15:06:57.257Z</time>
      </trkpt>
      <trkpt lat="42.50836" lon="1.77097">
        <ele>2084.8</ele>
        <time>2020-02-14T15:06:59.548Z</time>
      </trkpt>
      <trkpt lat="42.50837" lon="1.7709">
        <ele>2085.1</ele>
        <time>2020-02-14T15:07:02.036Z</time>
      </trkpt>
      <trkpt lat="42.50838" lon="1.77084">
        <ele>2085.4</ele>
        <time>2020-02-14T15:07:04.276Z</time>
      </trkpt>
      <trkpt lat="42.50839" lon="1.77078">
        <ele>2085.9</ele>
        <time>2020-02-14T15:07:06.622Z</time>
      </trkpt>
      <trkpt lat="42.5084" lon="1.77072">
        <ele>2086.1</ele>
        <time>2020-02-14T15:07:08.889Z</time>
      </trkpt>
      <trkpt lat="42.50839" lon="1.77065">
        <ele>2086.6</ele>
        <time>2020-02-14T15:07:11.298Z</time>
      </trkpt>
      <trkpt lat="42.50837" lon="1.7706">
        <ele>2087.4</ele>
        <time>2020-02-14T15:07:13.755Z</time>
      </trkpt>
      <trkpt lat="42.50833" lon="1.77056">
        <ele>2088</ele>
        <time>2020-02-14T15:07:16.005Z</time>
      </trkpt>
      <trkpt lat="42.50832" lon="1.77049">
        <ele>2088.7</ele>
        <time>2020-02-14T15:07:18.704Z</time>
      </trkpt>
      <trkpt lat="42.50831" lon="1.77042">
        <ele>2089.4</ele>
        <time>2020-02-14T15:07:21.297Z</time>
      </trkpt>
      <trkpt lat="42.5083" lon="1.77035">
        <ele>2090</ele>
        <time>2020-02-14T15:07:23.782Z</time>
      </trkpt>
      <trkpt lat="42.50829" lon="1.77029">
        <ele>2090.6</ele>
        <time>2020-02-14T15:07:26.142Z</time>
      </trkpt>
      <trkpt lat="42.50826" lon="1.77024">
        <ele>2091.4</ele>
        <time>2020-02-14T15:07:28.385Z</time>
      </trkpt>
      <trkpt lat="42.50824" lon="1.77018">
        <ele>2092.1</ele>
        <time>2020-02-14T15:07:30.935Z</time>
      </trkpt>
      <trkpt lat="42.50824" lon="1.77012">
        <ele>2092.6</ele>
        <time>2020-02-14T15:07:33.161Z</time>
      </trkpt>
      <trkpt lat="42.50825" lon="1.77005">
        <ele>2093</ele>
        <time>2020-02-14T15:07:35.781Z</time>
      </trkpt>
      <trkpt lat="42.50824" lon="1.76999">
        <ele>2093.6</ele>
        <time>2020-02-14T15:07:38.200Z</time>
      </trkpt>
      <trkpt lat="42.50822" lon="1.76992">
        <ele>2094.4</ele>
        <time>2020-02-14T15:07:40.834Z</time>
      </trkpt>
      <trkpt lat="42.50821" lon="1.76985">
        <ele>2095.1</ele>
        <time>2020-02-14T15:07:43.429Z</time>
      </trkpt>
      <trkpt lat="42.5082" lon="1.76978">
        <ele>2095.7</ele>
        <time>2020-02-14T15:07:45.935Z</time>
      </trkpt>
      <trkpt lat="42.50819" lon="1.76972">
        <ele>2096.4</ele>
        <time>2020-02-14T15:07:48.424Z</time>
      </trkpt>
      <trkpt lat="42.50819" lon="1.76964">
        <ele>2096.9</ele>
        <time>2020-02-14T15:07:51.061Z</time>
      </trkpt>
      <trkpt lat="42.50819" lon="1.76958">
        <ele>2097.5</ele>
        <time>2020-02-14T15:07:53.439Z</time>
      </trkpt>
      <trkpt lat="42.5082" lon="1.76951">
        <ele>2097.7</ele>
        <time>2020-02-14T15:07:55.872Z</time>
      </trkpt>
      <trkpt lat="42.5082" lon="1.76944">
        <ele>2098.1</ele>
        <time>2020-02-14T15:07:58.415Z</time>
      </trkpt>
      <trkpt lat="42.5082" lon="1.76938">
        <ele>2098.6</ele>
        <time>2020-02-14T15:08:00.828Z</time>
      </trkpt>
      <trkpt lat="42.5082" lon="1.76931">
        <ele>2099.1</ele>
        <time>2020-02-14T15:08:03.455Z</time>
      </trkpt>
      <trkpt lat="42.50821" lon="1.76924">
        <ele>2099.3</ele>
        <time>2020-02-14T15:08:06.029Z</time>
      </trkpt>
      <trkpt lat="42.50822" lon="1.76917">
        <ele>2099.6</ele>
        <time>2020-02-14T15:08:08.656Z</time>
      </trkpt>
      <trkpt lat="42.50823" lon="1.7691">
        <ele>2099.6</ele>
        <time>2020-02-14T15:08:11.262Z</time>
      </trkpt>
      <trkpt lat="42.50824" lon="1.76903">
        <ele>2100</ele>
        <time>2020-02-14T15:08:13.678Z</time>
      </trkpt>
      <trkpt lat="42.50825" lon="1.76897">
        <ele>2100.1</ele>
        <time>2020-02-14T15:08:15.914Z</time>
      </trkpt>
      <trkpt lat="42.50826" lon="1.7689">
        <ele>2100.4</ele>
        <time>2020-02-14T15:08:18.444Z</time>
      </trkpt>
      <trkpt lat="42.50826" lon="1.76884">
        <ele>2100.8</ele>
        <time>2020-02-14T15:08:20.770Z</time>
      </trkpt>
      <trkpt lat="42.50826" lon="1.76878">
        <ele>2101.2</ele>
        <time>2020-02-14T15:08:23.064Z</time>
      </trkpt>
      <trkpt lat="42.50824" lon="1.76871">
        <ele>2101.9</ele>
        <time>2020-02-14T15:08:25.646Z</time>
      </trkpt>
      <trkpt lat="42.50824" lon="1.76864">
        <ele>2102.4</ele>
        <time>2020-02-14T15:08:28.232Z</time>
      </trkpt>
      <trkpt lat="42.50825" lon="1.76858">
        <ele>2102.6</ele>
        <time>2020-02-14T15:08:30.585Z</time>
      </trkpt>
      <trkpt lat="42.50825" lon="1.76851">
        <ele>2103</ele>
        <time>2020-02-14T15:08:33.143Z</time>
      </trkpt>
      <trkpt lat="42.50825" lon="1.76844">
        <ele>2103.4</ele>
        <time>2020-02-14T15:08:35.410Z</time>
      </trkpt>
      <trkpt lat="42.50824" lon="1.76838">
        <ele>2104.2</ele>
        <time>2020-02-14T15:08:37.656Z</time>
      </trkpt>
      <trkpt lat="42.50824" lon="1.76832">
        <ele>2104.7</ele>
        <time>2020-02-14T15:08:39.950Z</time>
      </trkpt>
      <trkpt lat="42.50825" lon="1.76825">
        <ele>2104.8</ele>
        <time>2020-02-14T15:08:42.532Z</time>
      </trkpt>
      <trkpt lat="42.50825" lon="1.76818">
        <ele>2105.4</ele>
        <time>2020-02-14T15:08:45.093Z</time>
      </trkpt>
      <trkpt lat="42.50825" lon="1.76812">
        <ele>2105.8</ele>
        <time>2020-02-14T15:08:47.468Z</time>
      </trkpt>
      <trkpt lat="42.50824" lon="1.76805">
        <ele>2106.4</ele>
        <time>2020-02-14T15:08:49.897Z</time>
      </trkpt>
      <trkpt lat="42.50823" lon="1.76798">
        <ele>2107.3</ele>
        <time>2020-02-14T15:08:52.600Z</time>
      </trkpt>
      <trkpt lat="42.50824" lon="1.76791">
        <ele>2107.4</ele>
        <time>2020-02-14T15:08:55.054Z</time>
      </trkpt>
      <trkpt lat="42.50825" lon="1.76784">
        <ele>2107.4</ele>
        <time>2020-02-14T15:08:57.573Z</time>
      </trkpt>
      <trkpt lat="42.50826" lon="1.76777">
        <ele>2107.2</ele>
        <time>2020-02-14T15:09:00.180Z</time>
      </trkpt>
      <trkpt lat="42.50827" lon="1.76771">
        <ele>2107.2</ele>
        <time>2020-02-14T15:09:02.720Z</time>
      </trkpt>
      <trkpt lat="42.50829" lon="1.76764">
        <ele>2107.1</ele>
        <time>2020-02-14T15:09:05.087Z</time>
      </trkpt>
      <trkpt lat="42.50832" lon="1.76758">
        <ele>2106.3</ele>
        <time>2020-02-14T15:09:07.783Z</time>
      </trkpt>
      <trkpt lat="42.50833" lon="1.76752">
        <ele>2106.1</ele>
        <time>2020-02-14T15:09:10.254Z</time>
      </trkpt>
      <trkpt lat="42.50834" lon="1.76745">
        <ele>2106</ele>
        <time>2020-02-14T15:09:12.757Z</time>
      </trkpt>
      <trkpt lat="42.50833" lon="1.76738">
        <ele>2106.4</ele>
        <time>2020-02-14T15:09:15.138Z</time>
      </trkpt>
      <trkpt lat="42.50833" lon="1.76731">
        <ele>2106.8</ele>
        <time>2020-02-14T15:09:17.803Z</time>
      </trkpt>
      <trkpt lat="42.50834" lon="1.76724">
        <ele>2106.8</ele>
        <time>2020-02-14T15:09:20.225Z</time>
      </trkpt>
      <trkpt lat="42.50833" lon="1.76718">
        <ele>2107.2</ele>
        <time>2020-02-14T15:09:22.721Z</time>
      </trkpt>
      <trkpt lat="42.50834" lon="1.76712">
        <ele>2107</ele>
        <time>2020-02-14T15:09:24.967Z</time>
      </trkpt>
      <trkpt lat="42.50833" lon="1.76705">
        <ele>2107.7</ele>
        <time>2020-02-14T15:09:27.480Z</time>
      </trkpt>
      <trkpt lat="42.50834" lon="1.76698">
        <ele>2107.4</ele>
        <time>2020-02-14T15:09:29.968Z</time>
      </trkpt>
      <trkpt lat="42.50833" lon="1.76692">
        <ele>2108.1</ele>
        <time>2020-02-14T15:09:32.401Z</time>
      </trkpt>
      <trkpt lat="42.50832" lon="1.76685">
        <ele>2108.7</ele>
        <time>2020-02-14T15:09:34.879Z</time>
      </trkpt>
      <trkpt lat="42.50831" lon="1.76679">
        <ele>2109.3</ele>
        <time>2020-02-14T15:09:37.191Z</time>
      </trkpt>
      <trkpt lat="42.50831" lon="1.76673">
        <ele>2109.6</ele>
        <time>2020-02-14T15:09:39.420Z</time>
      </trkpt>
      <trkpt lat="42.50831" lon="1.76666">
        <ele>2109.9</ele>
        <time>2020-02-14T15:09:41.936Z</time>
      </trkpt>
      <trkpt lat="42.5083" lon="1.76659">
        <ele>2110.4</ele>
        <time>2020-02-14T15:09:44.424Z</time>
      </trkpt>
      <trkpt lat="42.50829" lon="1.76653">
        <ele>2111</ele>
        <time>2020-02-14T15:09:46.923Z</time>
      </trkpt>
      <trkpt lat="42.50829" lon="1.76646">
        <ele>2111.3</ele>
        <time>2020-02-14T15:09:49.180Z</time>
      </trkpt>
      <trkpt lat="42.50829" lon="1.7664">
        <ele>2111.4</ele>
        <time>2020-02-14T15:09:51.471Z</time>
      </trkpt>
      <trkpt lat="42.50828" lon="1.76633">
        <ele>2111.9</ele>
        <time>2020-02-14T15:09:53.963Z</time>
      </trkpt>
      <trkpt lat="42.50828" lon="1.76627">
        <ele>2111.8</ele>
        <time>2020-02-14T15:09:56.406Z</time>
      </trkpt>
      <trkpt lat="42.50829" lon="1.7662">
        <ele>2111.8</ele>
        <time>2020-02-14T15:09:58.867Z</time>
      </trkpt>
      <trkpt lat="42.5083" lon="1.76613">
        <ele>2111.7</ele>
        <time>2020-02-14T15:10:01.435Z</time>
      </trkpt>
      <trkpt lat="42.5083" lon="1.76605">
        <ele>2112</ele>
        <time>2020-02-14T15:10:04.166Z</time>
      </trkpt>
      <trkpt lat="42.5083" lon="1.76599">
        <ele>2112.2</ele>
        <time>2020-02-14T15:10:06.633Z</time>
      </trkpt>
      <trkpt lat="42.50829" lon="1.76592">
        <ele>2112.7</ele>
        <time>2020-02-14T15:10:09.108Z</time>
      </trkpt>
      <trkpt lat="42.50828" lon="1.76586">
        <ele>2113.4</ele>
        <time>2020-02-14T15:10:11.347Z</time>
      </trkpt>
      <trkpt lat="42.50829" lon="1.76579">
        <ele>2113.4</ele>
        <time>2020-02-14T15:10:13.787Z</time>
      </trkpt>
      <trkpt lat="42.50829" lon="1.76572">
        <ele>2113.4</ele>
        <time>2020-02-14T15:10:16.303Z</time>
      </trkpt>
      <trkpt lat="42.50828" lon="1.76566">
        <ele>2113.8</ele>
        <time>2020-02-14T15:10:18.719Z</time>
      </trkpt>
      <trkpt lat="42.50828" lon="1.7656">
        <ele>2114.3</ele>
        <time>2020-02-14T15:10:20.962Z</time>
      </trkpt>
      <trkpt lat="42.50826" lon="1.76554">
        <ele>2115</ele>
        <time>2020-02-14T15:10:23.218Z</time>
      </trkpt>
      <trkpt lat="42.50825" lon="1.76548">
        <ele>2115.4</ele>
        <time>2020-02-14T15:10:25.485Z</time>
      </trkpt>
      <trkpt lat="42.50827" lon="1.76541">
        <ele>2115.1</ele>
        <time>2020-02-14T15:10:28.029Z</time>
      </trkpt>
      <trkpt lat="42.50829" lon="1.76536">
        <ele>2115</ele>
        <time>2020-02-14T15:10:30.248Z</time>
      </trkpt>
      <trkpt lat="42.50828" lon="1.76529">
        <ele>2115.5</ele>
        <time>2020-02-14T15:10:32.698Z</time>
      </trkpt>
      <trkpt lat="42.50828" lon="1.76523">
        <ele>2116.1</ele>
        <time>2020-02-14T15:10:35.058Z</time>
      </trkpt>
      <trkpt lat="42.50827" lon="1.76516">
        <ele>2116.8</ele>
        <time>2020-02-14T15:10:37.623Z</time>
      </trkpt>
      <trkpt lat="42.50826" lon="1.76509">
        <ele>2117.4</ele>
        <time>2020-02-14T15:10:40.142Z</time>
      </trkpt>
      <trkpt lat="42.50826" lon="1.76502">
        <ele>2118.1</ele>
        <time>2020-02-14T15:10:42.790Z</time>
      </trkpt>
      <trkpt lat="42.50827" lon="1.76495">
        <ele>2118.2</ele>
        <time>2020-02-14T15:10:45.251Z</time>
      </trkpt>
      <trkpt lat="42.5083" lon="1.7649">
        <ele>2117.6</ele>
        <time>2020-02-14T15:10:47.753Z</time>
      </trkpt>
      <trkpt lat="42.5083" lon="1.76482">
        <ele>2118.2</ele>
        <time>2020-02-14T15:10:50.494Z</time>
      </trkpt>
      <trkpt lat="42.50829" lon="1.76476">
        <ele>2118.8</ele>
        <time>2020-02-14T15:10:52.893Z</time>
      </trkpt>
      <trkpt lat="42.5083" lon="1.7647">
        <ele>2118.9</ele>
        <time>2020-02-14T15:10:55.211Z</time>
      </trkpt>
      <trkpt lat="42.5083" lon="1.76462">
        <ele>2119.3</ele>
        <time>2020-02-14T15:10:57.873Z</time>
      </trkpt>
      <trkpt lat="42.5083" lon="1.76455">
        <ele>2120.1</ele>
        <time>2020-02-14T15:11:00.410Z</time>
      </trkpt>
      <trkpt lat="42.5083" lon="1.76449">
        <ele>2120.9</ele>
        <time>2020-02-14T15:11:02.836Z</time>
      </trkpt>
      <trkpt lat="42.5083" lon="1.76442">
        <ele>2121.7</ele>
        <time>2020-02-14T15:11:05.342Z</time>
      </trkpt>
      <trkpt lat="42.50833" lon="1.76437">
        <ele>2121.4</ele>
        <time>2020-02-14T15:11:07.712Z</time>
      </trkpt>
      <trkpt lat="42.50835" lon="1.76431">
        <ele>2121.5</ele>
        <time>2020-02-14T15:11:09.976Z</time>
      </trkpt>
      <trkpt lat="42.50836" lon="1.76424">
        <ele>2121.9</ele>
        <time>2020-02-14T15:11:12.568Z</time>
      </trkpt>
      <trkpt lat="42.50836" lon="1.76418">
        <ele>2122.9</ele>
        <time>2020-02-14T15:11:14.908Z</time>
      </trkpt>
      <trkpt lat="42.50834" lon="1.76413">
        <ele>2124.2</ele>
        <time>2020-02-14T15:11:17.227Z</time>
      </trkpt>
      <trkpt lat="42.50834" lon="1.76406">
        <ele>2125.2</ele>
        <time>2020-02-14T15:11:19.836Z</time>
      </trkpt>
      <trkpt lat="42.50834" lon="1.76399">
        <ele>2125.9</ele>
        <time>2020-02-14T15:11:22.186Z</time>
      </trkpt>
      <trkpt lat="42.50835" lon="1.76393">
        <ele>2126.1</ele>
        <time>2020-02-14T15:11:24.425Z</time>
      </trkpt>
      <trkpt lat="42.50837" lon="1.76387">
        <ele>2126.5</ele>
        <time>2020-02-14T15:11:26.737Z</time>
      </trkpt>
      <trkpt lat="42.50838" lon="1.76381">
        <ele>2126.8</ele>
        <time>2020-02-14T15:11:29.042Z</time>
      </trkpt>
      <trkpt lat="42.5084" lon="1.76375">
        <ele>2127.1</ele>
        <time>2020-02-14T15:11:31.281Z</time>
      </trkpt>
      <trkpt lat="42.50843" lon="1.7637">
        <ele>2126.8</ele>
        <time>2020-02-14T15:11:33.829Z</time>
      </trkpt>
      <trkpt lat="42.50845" lon="1.76365">
        <ele>2126.6</ele>
        <time>2020-02-14T15:11:36.054Z</time>
      </trkpt>
      <trkpt lat="42.50848" lon="1.7636">
        <ele>2126.6</ele>
        <time>2020-02-14T15:11:38.276Z</time>
      </trkpt>
      <trkpt lat="42.50849" lon="1.76354">
        <ele>2126.7</ele>
        <time>2020-02-14T15:11:40.595Z</time>
      </trkpt>
      <trkpt lat="42.50851" lon="1.76348">
        <ele>2126.9</ele>
        <time>2020-02-14T15:11:42.886Z</time>
      </trkpt>
      <trkpt lat="42.50852" lon="1.76341">
        <ele>2127.4</ele>
        <time>2020-02-14T15:11:45.250Z</time>
      </trkpt>
      <trkpt lat="42.50852" lon="1.76335">
        <ele>2128</ele>
        <time>2020-02-14T15:11:47.596Z</time>
      </trkpt>
      <trkpt lat="42.50852" lon="1.76328">
        <ele>2128.9</ele>
        <time>2020-02-14T15:11:50.061Z</time>
      </trkpt>
      <trkpt lat="42.50853" lon="1.76322">
        <ele>2129.5</ele>
        <time>2020-02-14T15:11:52.556Z</time>
      </trkpt>
      <trkpt lat="42.50853" lon="1.76315">
        <ele>2130.1</ele>
        <time>2020-02-14T15:11:54.878Z</time>
      </trkpt>
      <trkpt lat="42.50855" lon="1.76309">
        <ele>2130.4</ele>
        <time>2020-02-14T15:11:57.131Z</time>
      </trkpt>
      <trkpt lat="42.50856" lon="1.76303">
        <ele>2130.7</ele>
        <time>2020-02-14T15:11:59.405Z</time>
      </trkpt>
      <trkpt lat="42.50858" lon="1.76297">
        <ele>2131</ele>
        <time>2020-02-14T15:12:01.831Z</time>
      </trkpt>
      <trkpt lat="42.50859" lon="1.76291">
        <ele>2131.2</ele>
        <time>2020-02-14T15:12:04.084Z</time>
      </trkpt>
      <trkpt lat="42.50861" lon="1.76285">
        <ele>2131.7</ele>
        <time>2020-02-14T15:12:06.376Z</time>
      </trkpt>
      <trkpt lat="42.50861" lon="1.76279">
        <ele>2132.4</ele>
        <time>2020-02-14T15:12:08.822Z</time>
      </trkpt>
      <trkpt lat="42.50861" lon="1.76272">
        <ele>2133.3</ele>
        <time>2020-02-14T15:12:11.148Z</time>
      </trkpt>
      <trkpt lat="42.50862" lon="1.76265">
        <ele>2134.3</ele>
        <time>2020-02-14T15:12:13.772Z</time>
      </trkpt>
      <trkpt lat="42.50863" lon="1.76258">
        <ele>2134.9</ele>
        <time>2020-02-14T15:12:16.305Z</time>
      </trkpt>
      <trkpt lat="42.50864" lon="1.76252">
        <ele>2135.5</ele>
        <time>2020-02-14T15:12:18.838Z</time>
      </trkpt>
      <trkpt lat="42.50865" lon="1.76246">
        <ele>2136</ele>
        <time>2020-02-14T15:12:21.102Z</time>
      </trkpt>
      <trkpt lat="42.50866" lon="1.76238">
        <ele>2136.7</ele>
        <time>2020-02-14T15:12:23.767Z</time>
      </trkpt>
      <trkpt lat="42.50866" lon="1.76232">
        <ele>2137.7</ele>
        <time>2020-02-14T15:12:26.328Z</time>
      </trkpt>
      <trkpt lat="42.50869" lon="1.76226">
        <ele>2137.7</ele>
        <time>2020-02-14T15:12:28.754Z</time>
      </trkpt>
      <trkpt lat="42.50869" lon="1.76219">
        <ele>2138.4</ele>
        <time>2020-02-14T15:12:31.066Z</time>
      </trkpt>
      <trkpt lat="42.5087" lon="1.76213">
        <ele>2139</ele>
        <time>2020-02-14T15:12:33.520Z</time>
      </trkpt>
      <trkpt lat="42.50872" lon="1.76206">
        <ele>2139.3</ele>
        <time>2020-02-14T15:12:35.994Z</time>
      </trkpt>
      <trkpt lat="42.50872" lon="1.762">
        <ele>2139.2</ele>
        <time>2020-02-14T15:12:38.310Z</time>
      </trkpt>
      <trkpt lat="42.50873" lon="1.76193">
        <ele>2139.3</ele>
        <time>2020-02-14T15:12:40.746Z</time>
      </trkpt>
      <trkpt lat="42.50873" lon="1.76187">
        <ele>2139.4</ele>
        <time>2020-02-14T15:12:42.951Z</time>
      </trkpt>
      <trkpt lat="42.50874" lon="1.76181">
        <ele>2139.5</ele>
        <time>2020-02-14T15:12:45.322Z</time>
      </trkpt>
      <trkpt lat="42.50874" lon="1.76174">
        <ele>2139.4</ele>
        <time>2020-02-14T15:12:47.592Z</time>
      </trkpt>
      <trkpt lat="42.50874" lon="1.76167">
        <ele>2139.8</ele>
        <time>2020-02-14T15:12:50.150Z</time>
      </trkpt>
      <trkpt lat="42.50872" lon="1.76161">
        <ele>2140.5</ele>
        <time>2020-02-14T15:12:52.590Z</time>
      </trkpt>
      <trkpt lat="42.50871" lon="1.76155">
        <ele>2141.1</ele>
        <time>2020-02-14T15:12:55.040Z</time>
      </trkpt>
      <trkpt lat="42.50867" lon="1.76152">
        <ele>2142.5</ele>
        <time>2020-02-14T15:12:57.484Z</time>
      </trkpt>
      <trkpt lat="42.50865" lon="1.76146">
        <ele>2143.1</ele>
        <time>2020-02-14T15:12:59.924Z</time>
      </trkpt>
      <trkpt lat="42.50864" lon="1.76139">
        <ele>2143.5</ele>
        <time>2020-02-14T15:13:02.374Z</time>
      </trkpt>
      <trkpt lat="42.50865" lon="1.76133">
        <ele>2143.5</ele>
        <time>2020-02-14T15:13:04.658Z</time>
      </trkpt>
      <trkpt lat="42.50865" lon="1.76126">
        <ele>2143.7</ele>
        <time>2020-02-14T15:13:07.216Z</time>
      </trkpt>
      <trkpt lat="42.50864" lon="1.76119">
        <ele>2144.2</ele>
        <time>2020-02-14T15:13:09.763Z</time>
      </trkpt>
      <trkpt lat="42.50862" lon="1.76113">
        <ele>2144.5</ele>
        <time>2020-02-14T15:13:12.203Z</time>
      </trkpt>
      <trkpt lat="42.50859" lon="1.76108">
        <ele>2145.2</ele>
        <time>2020-02-14T15:13:14.480Z</time>
      </trkpt>
      <trkpt lat="42.50856" lon="1.76103">
        <ele>2146.2</ele>
        <time>2020-02-14T15:13:16.806Z</time>
      </trkpt>
      <trkpt lat="42.50856" lon="1.76097">
        <ele>2146.3</ele>
        <time>2020-02-14T15:13:19.222Z</time>
      </trkpt>
      <trkpt lat="42.50853" lon="1.76091">
        <ele>2147</ele>
        <time>2020-02-14T15:13:21.793Z</time>
      </trkpt>
      <trkpt lat="42.50851" lon="1.76085">
        <ele>2147.6</ele>
        <time>2020-02-14T15:13:24.060Z</time>
      </trkpt>
      <trkpt lat="42.5085" lon="1.76078">
        <ele>2147.9</ele>
        <time>2020-02-14T15:13:26.497Z</time>
      </trkpt>
      <trkpt lat="42.5085" lon="1.76072">
        <ele>2148.1</ele>
        <time>2020-02-14T15:13:28.795Z</time>
      </trkpt>
      <trkpt lat="42.50848" lon="1.76065">
        <ele>2148.5</ele>
        <time>2020-02-14T15:13:31.380Z</time>
      </trkpt>
      <trkpt lat="42.50847" lon="1.76059">
        <ele>2148.7</ele>
        <time>2020-02-14T15:13:33.772Z</time>
      </trkpt>
      <trkpt lat="42.50846" lon="1.76053">
        <ele>2149</ele>
        <time>2020-02-14T15:13:36.129Z</time>
      </trkpt>
      <trkpt lat="42.50846" lon="1.76047">
        <ele>2148.8</ele>
        <time>2020-02-14T15:13:38.361Z</time>
      </trkpt>
      <trkpt lat="42.50846" lon="1.7604">
        <ele>2149</ele>
        <time>2020-02-14T15:13:40.860Z</time>
      </trkpt>
      <trkpt lat="42.50845" lon="1.76033">
        <ele>2149</ele>
        <time>2020-02-14T15:13:43.365Z</time>
      </trkpt>
      <trkpt lat="42.50845" lon="1.76026">
        <ele>2148.9</ele>
        <time>2020-02-14T15:13:45.923Z</time>
      </trkpt>
      <trkpt lat="42.50843" lon="1.7602">
        <ele>2149.1</ele>
        <time>2020-02-14T15:13:48.242Z</time>
      </trkpt>
      <trkpt lat="42.50843" lon="1.76012">
        <ele>2149.1</ele>
        <time>2020-02-14T15:13:50.955Z</time>
      </trkpt>
      <trkpt lat="42.50841" lon="1.76006">
        <ele>2149.5</ele>
        <time>2020-02-14T15:13:53.295Z</time>
      </trkpt>
      <trkpt lat="42.50839" lon="1.76">
        <ele>2149.7</ele>
        <time>2020-02-14T15:13:55.873Z</time>
      </trkpt>
      <trkpt lat="42.50836" lon="1.75994">
        <ele>2150.4</ele>
        <time>2020-02-14T15:13:58.459Z</time>
      </trkpt>
      <trkpt lat="42.50835" lon="1.75988">
        <ele>2150.3</ele>
        <time>2020-02-14T15:14:00.757Z</time>
      </trkpt>
      <trkpt lat="42.50837" lon="1.75981">
        <ele>2149.6</ele>
        <time>2020-02-14T15:14:03.442Z</time>
      </trkpt>
      <trkpt lat="42.50837" lon="1.75974">
        <ele>2149.6</ele>
        <time>2020-02-14T15:14:05.952Z</time>
      </trkpt>
      <trkpt lat="42.50835" lon="1.75967">
        <ele>2149.8</ele>
        <time>2020-02-14T15:14:08.682Z</time>
      </trkpt>
      <trkpt lat="42.50833" lon="1.7596">
        <ele>2150.1</ele>
        <time>2020-02-14T15:14:11.261Z</time>
      </trkpt>
      <trkpt lat="42.50831" lon="1.75955">
        <ele>2150.6</ele>
        <time>2020-02-14T15:14:13.645Z</time>
      </trkpt>
      <trkpt lat="42.50827" lon="1.75951">
        <ele>2151.1</ele>
        <time>2020-02-14T15:14:15.943Z</time>
      </trkpt>
      <trkpt lat="42.50824" lon="1.75946">
        <ele>2151.5</ele>
        <time>2020-02-14T15:14:18.376Z</time>
      </trkpt>
      <trkpt lat="42.50821" lon="1.75941">
        <ele>2151.8</ele>
        <time>2020-02-14T15:14:20.664Z</time>
      </trkpt>
      <trkpt lat="42.50818" lon="1.75935">
        <ele>2152.1</ele>
        <time>2020-02-14T15:14:23.211Z</time>
      </trkpt>
      <trkpt lat="42.50815" lon="1.7593">
        <ele>2152.5</ele>
        <time>2020-02-14T15:14:25.464Z</time>
      </trkpt>
      <trkpt lat="42.50813" lon="1.75924">
        <ele>2152.5</ele>
        <time>2020-02-14T15:14:28.064Z</time>
      </trkpt>
      <trkpt lat="42.50812" lon="1.75917">
        <ele>2152.2</ele>
        <time>2020-02-14T15:14:30.607Z</time>
      </trkpt>
      <trkpt lat="42.50809" lon="1.75912">
        <ele>2152.5</ele>
        <time>2020-02-14T15:14:33.131Z</time>
      </trkpt>
      <trkpt lat="42.50805" lon="1.75906">
        <ele>2152.9</ele>
        <time>2020-02-14T15:14:35.598Z</time>
      </trkpt>
      <trkpt lat="42.50803" lon="1.75901">
        <ele>2152.8</ele>
        <time>2020-02-14T15:14:37.948Z</time>
      </trkpt>
      <trkpt lat="42.50801" lon="1.75895">
        <ele>2152.9</ele>
        <time>2020-02-14T15:14:40.333Z</time>
      </trkpt>
      <trkpt lat="42.50799" lon="1.75887">
        <ele>2152.6</ele>
        <time>2020-02-14T15:14:43.140Z</time>
      </trkpt>
      <trkpt lat="42.50799" lon="1.75881">
        <ele>2152.1</ele>
        <time>2020-02-14T15:14:45.500Z</time>
      </trkpt>
      <trkpt lat="42.50798" lon="1.75875">
        <ele>2151.8</ele>
        <time>2020-02-14T15:14:47.829Z</time>
      </trkpt>
      <trkpt lat="42.50796" lon="1.75868">
        <ele>2151.5</ele>
        <time>2020-02-14T15:14:50.553Z</time>
      </trkpt>
      <trkpt lat="42.50794" lon="1.75862">
        <ele>2151.4</ele>
        <time>2020-02-14T15:14:52.823Z</time>
      </trkpt>
      <trkpt lat="42.50792" lon="1.75856">
        <ele>2151.4</ele>
        <time>2020-02-14T15:14:55.125Z</time>
      </trkpt>
      <trkpt lat="42.50788" lon="1.75851">
        <ele>2151.2</ele>
        <time>2020-02-14T15:14:57.721Z</time>
      </trkpt>
      <trkpt lat="42.50785" lon="1.75847">
        <ele>2151.1</ele>
        <time>2020-02-14T15:14:59.977Z</time>
      </trkpt>
      <trkpt lat="42.50782" lon="1.75842">
        <ele>2150.8</ele>
        <time>2020-02-14T15:15:02.348Z</time>
      </trkpt>
      <trkpt lat="42.50781" lon="1.75836">
        <ele>2150.3</ele>
        <time>2020-02-14T15:15:04.618Z</time>
      </trkpt>
      <trkpt lat="42.50781" lon="1.7583">
        <ele>2149.8</ele>
        <time>2020-02-14T15:15:06.847Z</time>
      </trkpt>
      <trkpt lat="42.50782" lon="1.75824">
        <ele>2149.3</ele>
        <time>2020-02-14T15:15:09.190Z</time>
      </trkpt>
      <trkpt lat="42.50782" lon="1.75817">
        <ele>2148.6</ele>
        <time>2020-02-14T15:15:11.648Z</time>
      </trkpt>
      <trkpt lat="42.50781" lon="1.7581">
        <ele>2148.1</ele>
        <time>2020-02-14T15:15:14.285Z</time>
      </trkpt>
      <trkpt lat="42.5078" lon="1.75804">
        <ele>2147.6</ele>
        <time>2020-02-14T15:15:16.583Z</time>
      </trkpt>
      <trkpt lat="42.50777" lon="1.75798">
        <ele>2147.2</ele>
        <time>2020-02-14T15:15:18.971Z</time>
      </trkpt>
      <trkpt lat="42.50774" lon="1.75792">
        <ele>2146.9</ele>
        <time>2020-02-14T15:15:21.580Z</time>
      </trkpt>
      <trkpt lat="42.50772" lon="1.75786">
        <ele>2146.9</ele>
        <time>2020-02-14T15:15:24.204Z</time>
      </trkpt>
      <trkpt lat="42.50768" lon="1.75781">
        <ele>2147.2</ele>
        <time>2020-02-14T15:15:26.703Z</time>
      </trkpt>
      <trkpt lat="42.50765" lon="1.75775">
        <ele>2147.3</ele>
        <time>2020-02-14T15:15:29.188Z</time>
      </trkpt>
      <trkpt lat="42.50763" lon="1.7577">
        <ele>2147.2</ele>
        <time>2020-02-14T15:15:31.448Z</time>
      </trkpt>
      <trkpt lat="42.50761" lon="1.75764">
        <ele>2147.2</ele>
        <time>2020-02-14T15:15:33.856Z</time>
      </trkpt>
      <trkpt lat="42.50759" lon="1.75757">
        <ele>2147.2</ele>
        <time>2020-02-14T15:15:36.348Z</time>
      </trkpt>
      <trkpt lat="42.50758" lon="1.75751">
        <ele>2147.2</ele>
        <time>2020-02-14T15:15:38.698Z</time>
      </trkpt>
      <trkpt lat="42.50755" lon="1.75745">
        <ele>2147.3</ele>
        <time>2020-02-14T15:15:41.246Z</time>
      </trkpt>
      <trkpt lat="42.50752" lon="1.75741">
        <ele>2147.4</ele>
        <time>2020-02-14T15:15:43.530Z</time>
      </trkpt>
      <trkpt lat="42.50749" lon="1.75735">
        <ele>2147.4</ele>
        <time>2020-02-14T15:15:46.132Z</time>
      </trkpt>
      <trkpt lat="42.50746" lon="1.7573">
        <ele>2147.4</ele>
        <time>2020-02-14T15:15:48.538Z</time>
      </trkpt>
      <trkpt lat="42.50743" lon="1.75724">
        <ele>2147.4</ele>
        <time>2020-02-14T15:15:51.082Z</time>
      </trkpt>
      <trkpt lat="42.5074" lon="1.75717">
        <ele>2147.4</ele>
        <time>2020-02-14T15:15:53.847Z</time>
      </trkpt>
      <trkpt lat="42.50739" lon="1.75711">
        <ele>2147.3</ele>
        <time>2020-02-14T15:15:56.232Z</time>
      </trkpt>
      <trkpt lat="42.50737" lon="1.75705">
        <ele>2147.5</ele>
        <time>2020-02-14T15:15:58.848Z</time>
      </trkpt>
      <trkpt lat="42.50735" lon="1.75699">
        <ele>2147.6</ele>
        <time>2020-02-14T15:16:01.087Z</time>
      </trkpt>
      <trkpt lat="42.50734" lon="1.75692">
        <ele>2147.7</ele>
        <time>2020-02-14T15:16:03.707Z</time>
      </trkpt>
      <trkpt lat="42.50738" lon="1.75688">
        <ele>2147.7</ele>
        <time>2020-02-14T15:16:05.936Z</time>
      </trkpt>
      <trkpt lat="42.5074" lon="1.75681">
        <ele>2147.8</ele>
        <time>2020-02-14T15:16:08.459Z</time>
      </trkpt>
      <trkpt lat="42.50741" lon="1.75687">
        <ele>2147.7</ele>
        <time>2020-02-14T15:16:10.667Z</time>
      </trkpt>
      <trkpt lat="42.50741" lon="1.75693">
        <ele>2147.6</ele>
        <time>2020-02-14T15:16:12.927Z</time>
      </trkpt>
      <trkpt lat="42.50746" lon="1.75695">
        <ele>2147.4</ele>
        <time>2020-02-14T15:16:15.198Z</time>
      </trkpt>
      <trkpt lat="42.50744" lon="1.75689">
        <ele>2147.5</ele>
        <time>2020-02-14T15:16:17.499Z</time>
      </trkpt>
      <trkpt lat="42.5074" lon="1.75685">
        <ele>2147.8</ele>
        <time>2020-02-14T15:16:19.863Z</time>
      </trkpt>
      <trkpt lat="42.50744" lon="1.75681">
        <ele>2147.7</ele>
        <time>2020-02-14T15:16:22.244Z</time>
      </trkpt>
      <trkpt lat="42.50743" lon="1.75673">
        <ele>2147.9</ele>
        <time>2020-02-14T15:16:24.892Z</time>
      </trkpt>
      <trkpt lat="42.50741" lon="1.75667">
        <ele>2148.1</ele>
        <time>2020-02-14T15:16:27.557Z</time>
      </trkpt>
      <trkpt lat="42.50739" lon="1.7566">
        <ele>2148.2</ele>
        <time>2020-02-14T15:16:30.100Z</time>
      </trkpt>
      <trkpt lat="42.50739" lon="1.75653">
        <ele>2148.3</ele>
        <time>2020-02-14T15:16:32.821Z</time>
      </trkpt>
      <trkpt lat="42.5074" lon="1.75645">
        <ele>2148.5</ele>
        <time>2020-02-14T15:16:35.673Z</time>
      </trkpt>
      <trkpt lat="42.50742" lon="1.75639">
        <ele>2148.5</ele>
        <time>2020-02-14T15:16:38.002Z</time>
      </trkpt>
      <trkpt lat="42.50744" lon="1.75632">
        <ele>2148.8</ele>
        <time>2020-02-14T15:16:40.698Z</time>
      </trkpt>
      <trkpt lat="42.50746" lon="1.75623">
        <ele>2149.2</ele>
        <time>2020-02-14T15:16:44.301Z</time>
      </trkpt>
      <trkpt lat="42.50747" lon="1.75617">
        <ele>2149.8</ele>
        <time>2020-02-14T15:16:46.602Z</time>
      </trkpt>
      <trkpt lat="42.50749" lon="1.75611">
        <ele>2150.5</ele>
        <time>2020-02-14T15:16:48.887Z</time>
      </trkpt>
      <trkpt lat="42.50752" lon="1.75605">
        <ele>2151.2</ele>
        <time>2020-02-14T15:16:51.392Z</time>
      </trkpt>
      <trkpt lat="42.50755" lon="1.75601">
        <ele>2151.7</ele>
        <time>2020-02-14T15:16:53.680Z</time>
      </trkpt>
      <trkpt lat="42.5076" lon="1.75599">
        <ele>2152.2</ele>
        <time>2020-02-14T15:16:56.213Z</time>
      </trkpt>
      <trkpt lat="42.50759" lon="1.75592">
        <ele>2152.9</ele>
        <time>2020-02-14T15:16:58.581Z</time>
      </trkpt>
      <trkpt lat="42.5076" lon="1.75585">
        <ele>2153.7</ele>
        <time>2020-02-14T15:17:01.073Z</time>
      </trkpt>
      <trkpt lat="42.50762" lon="1.7558">
        <ele>2154.3</ele>
        <time>2020-02-14T15:17:03.429Z</time>
      </trkpt>
      <trkpt lat="42.50765" lon="1.75574">
        <ele>2155.2</ele>
        <time>2020-02-14T15:17:05.970Z</time>
      </trkpt>
      <trkpt lat="42.50766" lon="1.75567">
        <ele>2156</ele>
        <time>2020-02-14T15:17:08.579Z</time>
      </trkpt>
      <trkpt lat="42.50764" lon="1.7556">
        <ele>2156.6</ele>
        <time>2020-02-14T15:17:11.158Z</time>
      </trkpt>
      <trkpt lat="42.50764" lon="1.75554">
        <ele>2157.4</ele>
        <time>2020-02-14T15:17:13.591Z</time>
      </trkpt>
      <trkpt lat="42.50765" lon="1.75547">
        <ele>2158.1</ele>
        <time>2020-02-14T15:17:16.155Z</time>
      </trkpt>
      <trkpt lat="42.50766" lon="1.7554">
        <ele>2159</ele>
        <time>2020-02-14T15:17:18.737Z</time>
      </trkpt>
      <trkpt lat="42.50766" lon="1.75534">
        <ele>2159.9</ele>
        <time>2020-02-14T15:17:21.105Z</time>
      </trkpt>
      <trkpt lat="42.50765" lon="1.75527">
        <ele>2160.9</ele>
        <time>2020-02-14T15:17:23.718Z</time>
      </trkpt>
      <trkpt lat="42.50765" lon="1.7552">
        <ele>2161.8</ele>
        <time>2020-02-14T15:17:26.403Z</time>
      </trkpt>
      <trkpt lat="42.50765" lon="1.75513">
        <ele>2162.7</ele>
        <time>2020-02-14T15:17:28.691Z</time>
      </trkpt>
      <trkpt lat="42.50763" lon="1.75507">
        <ele>2163.5</ele>
        <time>2020-02-14T15:17:31.256Z</time>
      </trkpt>
      <trkpt lat="42.5076" lon="1.75501">
        <ele>2164.1</ele>
        <time>2020-02-14T15:17:33.623Z</time>
      </trkpt>
      <trkpt lat="42.50762" lon="1.75494">
        <ele>2165.2</ele>
        <time>2020-02-14T15:17:36.336Z</time>
      </trkpt>
      <trkpt lat="42.50762" lon="1.75487">
        <ele>2166.4</ele>
        <time>2020-02-14T15:17:39.136Z</time>
      </trkpt>
      <trkpt lat="42.50762" lon="1.75479">
        <ele>2167.4</ele>
        <time>2020-02-14T15:17:41.901Z</time>
      </trkpt>
      <trkpt lat="42.50762" lon="1.75473">
        <ele>2168.1</ele>
        <time>2020-02-14T15:17:44.179Z</time>
      </trkpt>
      <trkpt lat="42.5076" lon="1.75467">
        <ele>2168.8</ele>
        <time>2020-02-14T15:17:46.449Z</time>
      </trkpt>
      <trkpt lat="42.50757" lon="1.75463">
        <ele>2169</ele>
        <time>2020-02-14T15:17:48.813Z</time>
      </trkpt>
      <trkpt lat="42.50754" lon="1.75456">
        <ele>2170.1</ele>
        <time>2020-02-14T15:17:51.561Z</time>
      </trkpt>
      <trkpt lat="42.50754" lon="1.7545">
        <ele>2171.9</ele>
        <time>2020-02-14T15:17:54.094Z</time>
      </trkpt>
      <trkpt lat="42.50755" lon="1.75443">
        <ele>2173.6</ele>
        <time>2020-02-14T15:17:56.527Z</time>
      </trkpt>
      <trkpt lat="42.50752" lon="1.75437">
        <ele>2174.9</ele>
        <time>2020-02-14T15:17:59.275Z</time>
      </trkpt>
      <trkpt lat="42.5075" lon="1.75428">
        <ele>2177.3</ele>
        <time>2020-02-14T15:18:03.038Z</time>
      </trkpt>
      <trkpt lat="42.50747" lon="1.75423">
        <ele>2178.4</ele>
        <time>2020-02-14T15:18:05.484Z</time>
      </trkpt>
      <trkpt lat="42.50746" lon="1.75416">
        <ele>2179.9</ele>
        <time>2020-02-14T15:18:07.969Z</time>
      </trkpt>
      <trkpt lat="42.50746" lon="1.7541">
        <ele>2181.5</ele>
        <time>2020-02-14T15:18:10.302Z</time>
      </trkpt>
      <trkpt lat="42.50745" lon="1.75404">
        <ele>2183.2</ele>
        <time>2020-02-14T15:18:12.728Z</time>
      </trkpt>
      <trkpt lat="42.50744" lon="1.75398">
        <ele>2184.8</ele>
        <time>2020-02-14T15:18:15.144Z</time>
      </trkpt>
      <trkpt lat="42.50742" lon="1.75392">
        <ele>2185.8</ele>
        <time>2020-02-14T15:18:17.501Z</time>
      </trkpt>
      <trkpt lat="42.5074" lon="1.75385">
        <ele>2187.5</ele>
        <time>2020-02-14T15:18:20.412Z</time>
      </trkpt>
      <trkpt lat="42.50736" lon="1.75381">
        <ele>2188.1</ele>
        <time>2020-02-14T15:18:22.699Z</time>
      </trkpt>
      <trkpt lat="42.50734" lon="1.75375">
        <ele>2189.5</ele>
        <time>2020-02-14T15:18:25.271Z</time>
      </trkpt>
      <trkpt lat="42.50731" lon="1.75369">
        <ele>2190.7</ele>
        <time>2020-02-14T15:18:27.884Z</time>
      </trkpt>
      <trkpt lat="42.50728" lon="1.75363">
        <ele>2191.7</ele>
        <time>2020-02-14T15:18:30.552Z</time>
      </trkpt>
      <trkpt lat="42.50726" lon="1.75358">
        <ele>2192.7</ele>
        <time>2020-02-14T15:18:32.861Z</time>
      </trkpt>
      <trkpt lat="42.50723" lon="1.75351">
        <ele>2193.6</ele>
        <time>2020-02-14T15:18:35.432Z</time>
      </trkpt>
      <trkpt lat="42.50723" lon="1.75345">
        <ele>2195</ele>
        <time>2020-02-14T15:18:37.758Z</time>
      </trkpt>
      <trkpt lat="42.5072" lon="1.7534">
        <ele>2196</ele>
        <time>2020-02-14T15:18:40.070Z</time>
      </trkpt>
      <trkpt lat="42.50718" lon="1.75334">
        <ele>2196.8</ele>
        <time>2020-02-14T15:18:42.409Z</time>
      </trkpt>
      <trkpt lat="42.50717" lon="1.75327">
        <ele>2198.3</ele>
        <time>2020-02-14T15:18:45.109Z</time>
      </trkpt>
      <trkpt lat="42.50714" lon="1.75322">
        <ele>2198.8</ele>
        <time>2020-02-14T15:18:47.487Z</time>
      </trkpt>
      <trkpt lat="42.50713" lon="1.75316">
        <ele>2199.8</ele>
        <time>2020-02-14T15:18:49.833Z</time>
      </trkpt>
      <trkpt lat="42.50711" lon="1.7531">
        <ele>2200.7</ele>
        <time>2020-02-14T15:18:52.207Z</time>
      </trkpt>
      <trkpt lat="42.5071" lon="1.75304">
        <ele>2201.8</ele>
        <time>2020-02-14T15:18:54.658Z</time>
      </trkpt>
      <trkpt lat="42.50707" lon="1.75299">
        <ele>2202.6</ele>
        <time>2020-02-14T15:18:56.911Z</time>
      </trkpt>
      <trkpt lat="42.50705" lon="1.75293">
        <ele>2203.9</ele>
        <time>2020-02-14T15:18:59.302Z</time>
      </trkpt>
      <trkpt lat="42.50701" lon="1.75288">
        <ele>2204.9</ele>
        <time>2020-02-14T15:19:01.863Z</time>
      </trkpt>
      <trkpt lat="42.50701" lon="1.75282">
        <ele>2206.1</ele>
        <time>2020-02-14T15:19:04.175Z</time>
      </trkpt>
      <trkpt lat="42.50699" lon="1.75276">
        <ele>2207.2</ele>
        <time>2020-02-14T15:19:06.757Z</time>
      </trkpt>
      <trkpt lat="42.50697" lon="1.7527">
        <ele>2208.3</ele>
        <time>2020-02-14T15:19:09.000Z</time>
      </trkpt>
      <trkpt lat="42.50695" lon="1.75264">
        <ele>2209.3</ele>
        <time>2020-02-14T15:19:11.326Z</time>
      </trkpt>
      <trkpt lat="42.50692" lon="1.7526">
        <ele>2209.8</ele>
        <time>2020-02-14T15:19:13.700Z</time>
      </trkpt>
      <trkpt lat="42.50691" lon="1.75253">
        <ele>2210.9</ele>
        <time>2020-02-14T15:19:16.188Z</time>
      </trkpt>
      <trkpt lat="42.5069" lon="1.75247">
        <ele>2211.9</ele>
        <time>2020-02-14T15:19:18.611Z</time>
      </trkpt>
      <trkpt lat="42.50687" lon="1.75242">
        <ele>2212.6</ele>
        <time>2020-02-14T15:19:20.996Z</time>
      </trkpt>
      <trkpt lat="42.50683" lon="1.75238">
        <ele>2212.8</ele>
        <time>2020-02-14T15:19:23.453Z</time>
      </trkpt>
      <trkpt lat="42.50678" lon="1.75235">
        <ele>2212.8</ele>
        <time>2020-02-14T15:19:25.872Z</time>
      </trkpt>
      <trkpt lat="42.50677" lon="1.7523">
        <ele>2213.5</ele>
        <time>2020-02-14T15:19:28.125Z</time>
      </trkpt>
      <trkpt lat="42.50672" lon="1.75227">
        <ele>2213.3</ele>
        <time>2020-02-14T15:19:30.375Z</time>
      </trkpt>
      <trkpt lat="42.50669" lon="1.75223">
        <ele>2213.6</ele>
        <time>2020-02-14T15:19:32.690Z</time>
      </trkpt>
      <trkpt lat="42.50664" lon="1.75221">
        <ele>2213.3</ele>
        <time>2020-02-14T15:19:35.140Z</time>
      </trkpt>
      <trkpt lat="42.5066" lon="1.75216">
        <ele>2213.2</ele>
        <time>2020-02-14T15:19:37.629Z</time>
      </trkpt>
      <trkpt lat="42.50654" lon="1.75214">
        <ele>2212.7</ele>
        <time>2020-02-14T15:19:40.636Z</time>
      </trkpt>
      <trkpt lat="42.5065" lon="1.7521">
        <ele>2212.6</ele>
        <time>2020-02-14T15:19:43.291Z</time>
      </trkpt>
      <trkpt lat="42.50648" lon="1.75204">
        <ele>2212.9</ele>
        <time>2020-02-14T15:19:45.544Z</time>
      </trkpt>
      <trkpt lat="42.50646" lon="1.75198">
        <ele>2213.3</ele>
        <time>2020-02-14T15:19:47.877Z</time>
      </trkpt>
      <trkpt lat="42.50646" lon="1.75191">
        <ele>2214.2</ele>
        <time>2020-02-14T15:19:50.601Z</time>
      </trkpt>
      <trkpt lat="42.50645" lon="1.75184">
        <ele>2214.7</ele>
        <time>2020-02-14T15:19:53.030Z</time>
      </trkpt>
      <trkpt lat="42.50642" lon="1.75178">
        <ele>2215.2</ele>
        <time>2020-02-14T15:19:55.657Z</time>
      </trkpt>
      <trkpt lat="42.50639" lon="1.75173">
        <ele>2215.2</ele>
        <time>2020-02-14T15:19:58.159Z</time>
      </trkpt>
      <trkpt lat="42.50634" lon="1.75168">
        <ele>2215</ele>
        <time>2020-02-14T15:20:00.914Z</time>
      </trkpt>
      <trkpt lat="42.5063" lon="1.75166">
        <ele>2214.6</ele>
        <time>2020-02-14T15:20:03.185Z</time>
      </trkpt>
      <trkpt lat="42.50626" lon="1.75162">
        <ele>2214.3</ele>
        <time>2020-02-14T15:20:05.538Z</time>
      </trkpt>
      <trkpt lat="42.50622" lon="1.75161">
        <ele>2214.5</ele>
        <time>2020-02-14T15:20:07.885Z</time>
      </trkpt>
      <trkpt lat="42.50618" lon="1.75157">
        <ele>2215.2</ele>
        <time>2020-02-14T15:20:10.193Z</time>
      </trkpt>
      <trkpt lat="42.50615" lon="1.75152">
        <ele>2216.1</ele>
        <time>2020-02-14T15:20:12.536Z</time>
      </trkpt>
      <trkpt lat="42.50614" lon="1.75146">
        <ele>2216.8</ele>
        <time>2020-02-14T15:20:14.848Z</time>
      </trkpt>
      <trkpt lat="42.50613" lon="1.75139">
        <ele>2217.6</ele>
        <time>2020-02-14T15:20:17.319Z</time>
      </trkpt>
      <trkpt lat="42.50613" lon="1.75131">
        <ele>2218.5</ele>
        <time>2020-02-14T15:20:20.261Z</time>
      </trkpt>
      <trkpt lat="42.50613" lon="1.75124">
        <ele>2219.3</ele>
        <time>2020-02-14T15:20:22.722Z</time>
      </trkpt>
      <trkpt lat="42.50613" lon="1.75118">
        <ele>2220.1</ele>
        <time>2020-02-14T15:20:25.179Z</time>
      </trkpt>
      <trkpt lat="42.50613" lon="1.7511">
        <ele>2221</ele>
        <time>2020-02-14T15:20:27.789Z</time>
      </trkpt>
      <trkpt lat="42.50613" lon="1.75103">
        <ele>2222</ele>
        <time>2020-02-14T15:20:30.620Z</time>
      </trkpt>
      <trkpt lat="42.50613" lon="1.75095">
        <ele>2222.8</ele>
        <time>2020-02-14T15:20:33.378Z</time>
      </trkpt>
      <trkpt lat="42.50612" lon="1.75089">
        <ele>2223.8</ele>
        <time>2020-02-14T15:20:35.853Z</time>
      </trkpt>
      <trkpt lat="42.5061" lon="1.75083">
        <ele>2224.7</ele>
        <time>2020-02-14T15:20:38.310Z</time>
      </trkpt>
      <trkpt lat="42.50608" lon="1.75077">
        <ele>2225.4</ele>
        <time>2020-02-14T15:20:40.778Z</time>
      </trkpt>
      <trkpt lat="42.50607" lon="1.7507">
        <ele>2226.2</ele>
        <time>2020-02-14T15:20:43.183Z</time>
      </trkpt>
      <trkpt lat="42.50608" lon="1.75064">
        <ele>2226.9</ele>
        <time>2020-02-14T15:20:45.567Z</time>
      </trkpt>
      <trkpt lat="42.50609" lon="1.75058">
        <ele>2227.7</ele>
        <time>2020-02-14T15:20:47.914Z</time>
      </trkpt>
      <trkpt lat="42.50608" lon="1.7505">
        <ele>2228.7</ele>
        <time>2020-02-14T15:20:50.620Z</time>
      </trkpt>
      <trkpt lat="42.50609" lon="1.75044">
        <ele>2229.3</ele>
        <time>2020-02-14T15:20:52.880Z</time>
      </trkpt>
      <trkpt lat="42.50611" lon="1.75039">
        <ele>2229.8</ele>
        <time>2020-02-14T15:20:55.172Z</time>
      </trkpt>
      <trkpt lat="42.50611" lon="1.75032">
        <ele>2230.5</ele>
        <time>2020-02-14T15:20:57.622Z</time>
      </trkpt>
      <trkpt lat="42.5061" lon="1.75026">
        <ele>2231.2</ele>
        <time>2020-02-14T15:20:59.913Z</time>
      </trkpt>
      <trkpt lat="42.50613" lon="1.7502">
        <ele>2231.5</ele>
        <time>2020-02-14T15:21:02.197Z</time>
      </trkpt>
      <trkpt lat="42.50615" lon="1.75014">
        <ele>2232.2</ele>
        <time>2020-02-14T15:21:04.790Z</time>
      </trkpt>
      <trkpt lat="42.50617" lon="1.75007">
        <ele>2232.8</ele>
        <time>2020-02-14T15:21:07.441Z</time>
      </trkpt>
      <trkpt lat="42.50619" lon="1.74998">
        <ele>2233.5</ele>
        <time>2020-02-14T15:21:10.940Z</time>
      </trkpt>
      <trkpt lat="42.50622" lon="1.74992">
        <ele>2233.9</ele>
        <time>2020-02-14T15:21:13.525Z</time>
      </trkpt>
      <trkpt lat="42.50625" lon="1.74987">
        <ele>2234.3</ele>
        <time>2020-02-14T15:21:16.017Z</time>
      </trkpt>
      <trkpt lat="42.50626" lon="1.7498">
        <ele>2235.2</ele>
        <time>2020-02-14T15:21:18.654Z</time>
      </trkpt>
      <trkpt lat="42.50628" lon="1.74972">
        <ele>2236.3</ele>
        <time>2020-02-14T15:21:21.409Z</time>
      </trkpt>
      <trkpt lat="42.5063" lon="1.74967">
        <ele>2237.3</ele>
        <time>2020-02-14T15:21:23.794Z</time>
      </trkpt>
      <trkpt lat="42.50632" lon="1.74961">
        <ele>2238.5</ele>
        <time>2020-02-14T15:21:26.248Z</time>
      </trkpt>
      <trkpt lat="42.50632" lon="1.74954">
        <ele>2239.3</ele>
        <time>2020-02-14T15:21:28.563Z</time>
      </trkpt>
      <trkpt lat="42.50633" lon="1.74945">
        <ele>2240.7</ele>
        <time>2020-02-14T15:21:31.979Z</time>
      </trkpt>
      <trkpt lat="42.50634" lon="1.74939">
        <ele>2241.8</ele>
        <time>2020-02-14T15:21:34.301Z</time>
      </trkpt>
      <trkpt lat="42.50635" lon="1.74932">
        <ele>2242.9</ele>
        <time>2020-02-14T15:21:36.914Z</time>
      </trkpt>
      <trkpt lat="42.50636" lon="1.74926">
        <ele>2244.2</ele>
        <time>2020-02-14T15:21:39.534Z</time>
      </trkpt>
      <trkpt lat="42.50638" lon="1.74918">
        <ele>2245.5</ele>
        <time>2020-02-14T15:21:42.331Z</time>
      </trkpt>
      <trkpt lat="42.5064" lon="1.74913">
        <ele>2246.5</ele>
        <time>2020-02-14T15:21:44.629Z</time>
      </trkpt>
      <trkpt lat="42.50642" lon="1.74906">
        <ele>2247.7</ele>
        <time>2020-02-14T15:21:47.269Z</time>
      </trkpt>
      <trkpt lat="42.50642" lon="1.74899">
        <ele>2248.7</ele>
        <time>2020-02-14T15:21:49.907Z</time>
      </trkpt>
      <trkpt lat="42.50642" lon="1.74893">
        <ele>2249.6</ele>
        <time>2020-02-14T15:21:52.305Z</time>
      </trkpt>
      <trkpt lat="42.50642" lon="1.74886">
        <ele>2250.5</ele>
        <time>2020-02-14T15:21:54.925Z</time>
      </trkpt>
      <trkpt lat="42.50643" lon="1.74879">
        <ele>2251.4</ele>
        <time>2020-02-14T15:21:57.216Z</time>
      </trkpt>
      <trkpt lat="42.50643" lon="1.74873">
        <ele>2252.3</ele>
        <time>2020-02-14T15:21:59.760Z</time>
      </trkpt>
      <trkpt lat="42.50645" lon="1.74866">
        <ele>2253.4</ele>
        <time>2020-02-14T15:22:02.390Z</time>
      </trkpt>
      <trkpt lat="42.50647" lon="1.74861">
        <ele>2254.3</ele>
        <time>2020-02-14T15:22:04.775Z</time>
      </trkpt>
      <trkpt lat="42.5065" lon="1.74855">
        <ele>2255.3</ele>
        <time>2020-02-14T15:22:07.146Z</time>
      </trkpt>
      <trkpt lat="42.50653" lon="1.7485">
        <ele>2256.3</ele>
        <time>2020-02-14T15:22:09.433Z</time>
      </trkpt>
      <trkpt lat="42.50653" lon="1.74843">
        <ele>2257.2</ele>
        <time>2020-02-14T15:22:12.195Z</time>
      </trkpt>
      <trkpt lat="42.50653" lon="1.74836">
        <ele>2258</ele>
        <time>2020-02-14T15:22:14.545Z</time>
      </trkpt>
      <trkpt lat="42.50652" lon="1.74829">
        <ele>2258.8</ele>
        <time>2020-02-14T15:22:17.162Z</time>
      </trkpt>
      <trkpt lat="42.50653" lon="1.74822">
        <ele>2259.7</ele>
        <time>2020-02-14T15:22:19.667Z</time>
      </trkpt>
      <trkpt lat="42.50654" lon="1.74816">
        <ele>2260.7</ele>
        <time>2020-02-14T15:22:22.076Z</time>
      </trkpt>
      <trkpt lat="42.50653" lon="1.74809">
        <ele>2261.4</ele>
        <time>2020-02-14T15:22:24.689Z</time>
      </trkpt>
      <trkpt lat="42.50653" lon="1.74803">
        <ele>2262.4</ele>
        <time>2020-02-14T15:22:27.081Z</time>
      </trkpt>
      <trkpt lat="42.50656" lon="1.74796">
        <ele>2263.3</ele>
        <time>2020-02-14T15:22:29.791Z</time>
      </trkpt>
      <trkpt lat="42.50659" lon="1.74791">
        <ele>2264.1</ele>
        <time>2020-02-14T15:22:32.404Z</time>
      </trkpt>
      <trkpt lat="42.50662" lon="1.74785">
        <ele>2265.1</ele>
        <time>2020-02-14T15:22:35.017Z</time>
      </trkpt>
      <trkpt lat="42.50661" lon="1.74778">
        <ele>2265.9</ele>
        <time>2020-02-14T15:22:37.557Z</time>
      </trkpt>
      <trkpt lat="42.50662" lon="1.7477">
        <ele>2266.8</ele>
        <time>2020-02-14T15:22:40.392Z</time>
      </trkpt>
      <trkpt lat="42.5066" lon="1.74764">
        <ele>2267.5</ele>
        <time>2020-02-14T15:22:42.915Z</time>
      </trkpt>
      <trkpt lat="42.50658" lon="1.74757">
        <ele>2268.1</ele>
        <time>2020-02-14T15:22:45.569Z</time>
      </trkpt>
      <trkpt lat="42.50657" lon="1.7475">
        <ele>2268.7</ele>
        <time>2020-02-14T15:22:48.068Z</time>
      </trkpt>
      <trkpt lat="42.50657" lon="1.74743">
        <ele>2269.7</ele>
        <time>2020-02-14T15:22:50.937Z</time>
      </trkpt>
      <trkpt lat="42.50655" lon="1.74736">
        <ele>2270.3</ele>
        <time>2020-02-14T15:22:53.443Z</time>
      </trkpt>
      <trkpt lat="42.50652" lon="1.7473">
        <ele>2270.7</ele>
        <time>2020-02-14T15:22:56.052Z</time>
      </trkpt>
      <trkpt lat="42.50651" lon="1.74724">
        <ele>2271.5</ele>
        <time>2020-02-14T15:22:58.319Z</time>
      </trkpt>
      <trkpt lat="42.5065" lon="1.74718">
        <ele>2272.2</ele>
        <time>2020-02-14T15:23:00.787Z</time>
      </trkpt>
      <trkpt lat="42.50651" lon="1.74711">
        <ele>2272.9</ele>
        <time>2020-02-14T15:23:03.282Z</time>
      </trkpt>
      <trkpt lat="42.50649" lon="1.74705">
        <ele>2273.5</ele>
        <time>2020-02-14T15:23:05.567Z</time>
      </trkpt>
      <trkpt lat="42.50648" lon="1.74698">
        <ele>2274.4</ele>
        <time>2020-02-14T15:23:08.038Z</time>
      </trkpt>
      <trkpt lat="42.50648" lon="1.74691">
        <ele>2275.6</ele>
        <time>2020-02-14T15:23:10.924Z</time>
      </trkpt>
      <trkpt lat="42.50647" lon="1.74684">
        <ele>2276.4</ele>
        <time>2020-02-14T15:23:13.201Z</time>
      </trkpt>
      <trkpt lat="42.50647" lon="1.74678">
        <ele>2277.5</ele>
        <time>2020-02-14T15:23:15.676Z</time>
      </trkpt>
      <trkpt lat="42.50649" lon="1.74672">
        <ele>2278.3</ele>
        <time>2020-02-14T15:23:18.023Z</time>
      </trkpt>
      <trkpt lat="42.5065" lon="1.74666">
        <ele>2279.3</ele>
        <time>2020-02-14T15:23:20.390Z</time>
      </trkpt>
      <trkpt lat="42.50654" lon="1.74662">
        <ele>2280.2</ele>
        <time>2020-02-14T15:23:22.771Z</time>
      </trkpt>
      <trkpt lat="42.50649" lon="1.74657">
        <ele>2280.6</ele>
        <time>2020-02-14T15:23:25.478Z</time>
      </trkpt>
      <trkpt lat="42.50652" lon="1.74652">
        <ele>2281.5</ele>
        <time>2020-02-14T15:23:27.734Z</time>
      </trkpt>
      <trkpt lat="42.50653" lon="1.74645">
        <ele>2282.4</ele>
        <time>2020-02-14T15:23:30.254Z</time>
      </trkpt>
      <trkpt lat="42.50651" lon="1.74639">
        <ele>2283.2</ele>
        <time>2020-02-14T15:23:32.818Z</time>
      </trkpt>
      <trkpt lat="42.50651" lon="1.74632">
        <ele>2284.4</ele>
        <time>2020-02-14T15:23:35.376Z</time>
      </trkpt>
      <trkpt lat="42.50652" lon="1.74626">
        <ele>2285.2</ele>
        <time>2020-02-14T15:23:37.781Z</time>
      </trkpt>
      <trkpt lat="42.50651" lon="1.74618">
        <ele>2286</ele>
        <time>2020-02-14T15:23:40.422Z</time>
      </trkpt>
      <trkpt lat="42.5065" lon="1.74612">
        <ele>2286.7</ele>
        <time>2020-02-14T15:23:42.817Z</time>
      </trkpt>
      <trkpt lat="42.50648" lon="1.74606">
        <ele>2287.3</ele>
        <time>2020-02-14T15:23:45.354Z</time>
      </trkpt>
      <trkpt lat="42.50649" lon="1.74599">
        <ele>2288</ele>
        <time>2020-02-14T15:23:47.704Z</time>
      </trkpt>
      <trkpt lat="42.5065" lon="1.74593">
        <ele>2288.8</ele>
        <time>2020-02-14T15:23:50.168Z</time>
      </trkpt>
      <trkpt lat="42.5065" lon="1.74586">
        <ele>2289.5</ele>
        <time>2020-02-14T15:23:52.483Z</time>
      </trkpt>
      <trkpt lat="42.50649" lon="1.7458">
        <ele>2290.2</ele>
        <time>2020-02-14T15:23:54.868Z</time>
      </trkpt>
      <trkpt lat="42.5065" lon="1.74574">
        <ele>2291</ele>
        <time>2020-02-14T15:23:57.294Z</time>
      </trkpt>
      <trkpt lat="42.50652" lon="1.74568">
        <ele>2291.8</ele>
        <time>2020-02-14T15:23:59.859Z</time>
      </trkpt>
      <trkpt lat="42.50654" lon="1.74562">
        <ele>2292.5</ele>
        <time>2020-02-14T15:24:02.254Z</time>
      </trkpt>
      <trkpt lat="42.50655" lon="1.74555">
        <ele>2293.4</ele>
        <time>2020-02-14T15:24:04.721Z</time>
      </trkpt>
      <trkpt lat="42.50657" lon="1.74549">
        <ele>2294.1</ele>
        <time>2020-02-14T15:24:07.289Z</time>
      </trkpt>
      <trkpt lat="42.50659" lon="1.74542">
        <ele>2295</ele>
        <time>2020-02-14T15:24:09.809Z</time>
      </trkpt>
      <trkpt lat="42.50658" lon="1.74536">
        <ele>2295.5</ele>
        <time>2020-02-14T15:24:12.124Z</time>
      </trkpt>
      <trkpt lat="42.50655" lon="1.7453">
        <ele>2295.8</ele>
        <time>2020-02-14T15:24:14.630Z</time>
      </trkpt>
      <trkpt lat="42.50654" lon="1.74523">
        <ele>2296.3</ele>
        <time>2020-02-14T15:24:17.073Z</time>
      </trkpt>
      <trkpt lat="42.50654" lon="1.74516">
        <ele>2296.9</ele>
        <time>2020-02-14T15:24:19.628Z</time>
      </trkpt>
      <trkpt lat="42.50654" lon="1.7451">
        <ele>2297.4</ele>
        <time>2020-02-14T15:24:22.123Z</time>
      </trkpt>
      <trkpt lat="42.50654" lon="1.74502">
        <ele>2298.1</ele>
        <time>2020-02-14T15:24:24.774Z</time>
      </trkpt>
      <trkpt lat="42.50655" lon="1.74496">
        <ele>2298.7</ele>
        <time>2020-02-14T15:24:27.020Z</time>
      </trkpt>
      <trkpt lat="42.50657" lon="1.74489">
        <ele>2299.4</ele>
        <time>2020-02-14T15:24:29.792Z</time>
      </trkpt>
      <trkpt lat="42.50657" lon="1.74482">
        <ele>2300</ele>
        <time>2020-02-14T15:24:32.284Z</time>
      </trkpt>
      <trkpt lat="42.50658" lon="1.74476">
        <ele>2300.6</ele>
        <time>2020-02-14T15:24:34.558Z</time>
      </trkpt>
      <trkpt lat="42.50659" lon="1.7447">
        <ele>2301.3</ele>
        <time>2020-02-14T15:24:37.002Z</time>
      </trkpt>
      <trkpt lat="42.5066" lon="1.74463">
        <ele>2302.1</ele>
        <time>2020-02-14T15:24:39.424Z</time>
      </trkpt>
      <trkpt lat="42.50662" lon="1.74457">
        <ele>2302.6</ele>
        <time>2020-02-14T15:24:41.743Z</time>
      </trkpt>
      <trkpt lat="42.50664" lon="1.74452">
        <ele>2303.2</ele>
        <time>2020-02-14T15:24:44.086Z</time>
      </trkpt>
      <trkpt lat="42.50666" lon="1.74446">
        <ele>2303.8</ele>
        <time>2020-02-14T15:24:46.332Z</time>
      </trkpt>
      <trkpt lat="42.50669" lon="1.74441">
        <ele>2304.5</ele>
        <time>2020-02-14T15:24:48.838Z</time>
      </trkpt>
      <trkpt lat="42.50671" lon="1.74435">
        <ele>2305.1</ele>
        <time>2020-02-14T15:24:51.192Z</time>
      </trkpt>
      <trkpt lat="42.50673" lon="1.74428">
        <ele>2305.9</ele>
        <time>2020-02-14T15:24:53.919Z</time>
      </trkpt>
      <trkpt lat="42.50675" lon="1.74422">
        <ele>2306.5</ele>
        <time>2020-02-14T15:24:56.376Z</time>
      </trkpt>
      <trkpt lat="42.50676" lon="1.74415">
        <ele>2307.1</ele>
        <time>2020-02-14T15:24:58.806Z</time>
      </trkpt>
      <trkpt lat="42.50678" lon="1.74409">
        <ele>2307.8</ele>
        <time>2020-02-14T15:25:01.277Z</time>
      </trkpt>
      <trkpt lat="42.5068" lon="1.74403">
        <ele>2308.6</ele>
        <time>2020-02-14T15:25:03.879Z</time>
      </trkpt>
      <trkpt lat="42.5068" lon="1.74396">
        <ele>2309</ele>
        <time>2020-02-14T15:25:06.177Z</time>
      </trkpt>
      <trkpt lat="42.50681" lon="1.74389">
        <ele>2309.7</ele>
        <time>2020-02-14T15:25:08.808Z</time>
      </trkpt>
      <trkpt lat="42.50682" lon="1.74382">
        <ele>2310.4</ele>
        <time>2020-02-14T15:25:11.584Z</time>
      </trkpt>
      <trkpt lat="42.50683" lon="1.74375">
        <ele>2310.9</ele>
        <time>2020-02-14T15:25:14.044Z</time>
      </trkpt>
      <trkpt lat="42.50685" lon="1.7437">
        <ele>2311.2</ele>
        <time>2020-02-14T15:25:16.304Z</time>
      </trkpt>
      <trkpt lat="42.50687" lon="1.74363">
        <ele>2311.4</ele>
        <time>2020-02-14T15:25:18.879Z</time>
      </trkpt>
      <trkpt lat="42.50689" lon="1.74356">
        <ele>2311.7</ele>
        <time>2020-02-14T15:25:21.606Z</time>
      </trkpt>
      <trkpt lat="42.50691" lon="1.74349">
        <ele>2311.9</ele>
        <time>2020-02-14T15:25:24.226Z</time>
      </trkpt>
      <trkpt lat="42.50692" lon="1.74342">
        <ele>2311.9</ele>
        <time>2020-02-14T15:25:27.051Z</time>
      </trkpt>
      <trkpt lat="42.50693" lon="1.74336">
        <ele>2311.9</ele>
        <time>2020-02-14T15:25:29.352Z</time>
      </trkpt>
      <trkpt lat="42.50694" lon="1.74329">
        <ele>2312.1</ele>
        <time>2020-02-14T15:25:31.847Z</time>
      </trkpt>
      <trkpt lat="42.50694" lon="1.74322">
        <ele>2312</ele>
        <time>2020-02-14T15:25:34.249Z</time>
      </trkpt>
      <trkpt lat="42.50696" lon="1.74315">
        <ele>2312.1</ele>
        <time>2020-02-14T15:25:36.983Z</time>
      </trkpt>
      <trkpt lat="42.50696" lon="1.74309">
        <ele>2312.1</ele>
        <time>2020-02-14T15:25:39.344Z</time>
      </trkpt>
      <trkpt lat="42.50694" lon="1.74302">
        <ele>2311.9</ele>
        <time>2020-02-14T15:25:41.805Z</time>
      </trkpt>
      <trkpt lat="42.50694" lon="1.74295">
        <ele>2311.8</ele>
        <time>2020-02-14T15:25:44.331Z</time>
      </trkpt>
      <trkpt lat="42.50692" lon="1.74288">
        <ele>2311.7</ele>
        <time>2020-02-14T15:25:47.027Z</time>
      </trkpt>
      <trkpt lat="42.50693" lon="1.7428">
        <ele>2312</ele>
        <time>2020-02-14T15:25:49.882Z</time>
      </trkpt>
      <trkpt lat="42.50693" lon="1.74273">
        <ele>2312.2</ele>
        <time>2020-02-14T15:25:52.409Z</time>
      </trkpt>
      <trkpt lat="42.50693" lon="1.74266">
        <ele>2312.3</ele>
        <time>2020-02-14T15:25:55.015Z</time>
      </trkpt>
      <trkpt lat="42.50693" lon="1.74259">
        <ele>2312.4</ele>
        <time>2020-02-14T15:25:57.590Z</time>
      </trkpt>
      <trkpt lat="42.50695" lon="1.74253">
        <ele>2312.7</ele>
        <time>2020-02-14T15:25:59.978Z</time>
      </trkpt>
      <trkpt lat="42.50694" lon="1.74248">
        <ele>2312.8</ele>
        <time>2020-02-14T15:26:02.203Z</time>
      </trkpt>
      <trkpt lat="42.5069" lon="1.74244">
        <ele>2312.7</ele>
        <time>2020-02-14T15:26:04.457Z</time>
      </trkpt>
      <trkpt lat="42.50689" lon="1.74237">
        <ele>2312.6</ele>
        <time>2020-02-14T15:26:06.748Z</time>
      </trkpt>
      <trkpt lat="42.50688" lon="1.74231">
        <ele>2312.8</ele>
        <time>2020-02-14T15:26:09.022Z</time>
      </trkpt>
      <trkpt lat="42.5069" lon="1.74224">
        <ele>2313</ele>
        <time>2020-02-14T15:26:11.700Z</time>
      </trkpt>
      <trkpt lat="42.50692" lon="1.74217">
        <ele>2313.3</ele>
        <time>2020-02-14T15:26:14.299Z</time>
      </trkpt>
      <trkpt lat="42.50693" lon="1.7421">
        <ele>2313.4</ele>
        <time>2020-02-14T15:26:16.978Z</time>
      </trkpt>
      <trkpt lat="42.50694" lon="1.74204">
        <ele>2313.6</ele>
        <time>2020-02-14T15:26:19.235Z</time>
      </trkpt>
      <trkpt lat="42.50694" lon="1.74197">
        <ele>2313.9</ele>
        <time>2020-02-14T15:26:21.813Z</time>
      </trkpt>
      <trkpt lat="42.50692" lon="1.7419">
        <ele>2314.2</ele>
        <time>2020-02-14T15:26:24.499Z</time>
      </trkpt>
      <trkpt lat="42.50691" lon="1.74183">
        <ele>2314.5</ele>
        <time>2020-02-14T15:26:27.230Z</time>
      </trkpt>
      <trkpt lat="42.50688" lon="1.74177">
        <ele>2314.6</ele>
        <time>2020-02-14T15:26:29.981Z</time>
      </trkpt>
      <trkpt lat="42.50684" lon="1.74171">
        <ele>2314.7</ele>
        <time>2020-02-14T15:26:32.643Z</time>
      </trkpt>
      <trkpt lat="42.50682" lon="1.74165">
        <ele>2314.9</ele>
        <time>2020-02-14T15:26:34.861Z</time>
      </trkpt>
      <trkpt lat="42.50679" lon="1.7416">
        <ele>2315</ele>
        <time>2020-02-14T15:26:37.349Z</time>
      </trkpt>
      <trkpt lat="42.50676" lon="1.74153">
        <ele>2315.1</ele>
        <time>2020-02-14T15:26:40.046Z</time>
      </trkpt>
      <trkpt lat="42.50675" lon="1.74146">
        <ele>2315.3</ele>
        <time>2020-02-14T15:26:42.783Z</time>
      </trkpt>
      <trkpt lat="42.50674" lon="1.74139">
        <ele>2315.7</ele>
        <time>2020-02-14T15:26:45.282Z</time>
      </trkpt>
      <trkpt lat="42.50674" lon="1.74132">
        <ele>2315.9</ele>
        <time>2020-02-14T15:26:48.016Z</time>
      </trkpt>
      <trkpt lat="42.50671" lon="1.74126">
        <ele>2316.1</ele>
        <time>2020-02-14T15:26:50.685Z</time>
      </trkpt>
      <trkpt lat="42.50669" lon="1.74119">
        <ele>2316.3</ele>
        <time>2020-02-14T15:26:53.107Z</time>
      </trkpt>
      <trkpt lat="42.50667" lon="1.74113">
        <ele>2316.7</ele>
        <time>2020-02-14T15:26:55.744Z</time>
      </trkpt>
      <trkpt lat="42.50665" lon="1.74107">
        <ele>2316.9</ele>
        <time>2020-02-14T15:26:58.171Z</time>
      </trkpt>
      <trkpt lat="42.50664" lon="1.741">
        <ele>2317.1</ele>
        <time>2020-02-14T15:27:00.527Z</time>
      </trkpt>
      <trkpt lat="42.50664" lon="1.74094">
        <ele>2317.5</ele>
        <time>2020-02-14T15:27:02.781Z</time>
      </trkpt>
      <trkpt lat="42.50663" lon="1.74088">
        <ele>2317.7</ele>
        <time>2020-02-14T15:27:05.041Z</time>
      </trkpt>
      <trkpt lat="42.50663" lon="1.74081">
        <ele>2318.2</ele>
        <time>2020-02-14T15:27:07.595Z</time>
      </trkpt>
      <trkpt lat="42.50662" lon="1.74074">
        <ele>2318.4</ele>
        <time>2020-02-14T15:27:10.263Z</time>
      </trkpt>
      <trkpt lat="42.50661" lon="1.74067">
        <ele>2318.8</ele>
        <time>2020-02-14T15:27:12.821Z</time>
      </trkpt>
      <trkpt lat="42.5066" lon="1.74061">
        <ele>2319</ele>
        <time>2020-02-14T15:27:15.147Z</time>
      </trkpt>
      <trkpt lat="42.50659" lon="1.74055">
        <ele>2319.4</ele>
        <time>2020-02-14T15:27:17.403Z</time>
      </trkpt>
      <trkpt lat="42.50658" lon="1.74047">
        <ele>2319.7</ele>
        <time>2020-02-14T15:27:20.047Z</time>
      </trkpt>
      <trkpt lat="42.50657" lon="1.74041">
        <ele>2320.1</ele>
        <time>2020-02-14T15:27:22.394Z</time>
      </trkpt>
      <trkpt lat="42.50656" lon="1.74035">
        <ele>2320.7</ele>
        <time>2020-02-14T15:27:24.820Z</time>
      </trkpt>
      <trkpt lat="42.50654" lon="1.74027">
        <ele>2321.3</ele>
        <time>2020-02-14T15:27:27.661Z</time>
      </trkpt>
      <trkpt lat="42.50654" lon="1.7402">
        <ele>2322</ele>
        <time>2020-02-14T15:27:30.299Z</time>
      </trkpt>
      <trkpt lat="42.50655" lon="1.74013">
        <ele>2322.7</ele>
        <time>2020-02-14T15:27:32.891Z</time>
      </trkpt>
      <trkpt lat="42.50655" lon="1.74007">
        <ele>2323.3</ele>
        <time>2020-02-14T15:27:35.241Z</time>
      </trkpt>
      <trkpt lat="42.50656" lon="1.74">
        <ele>2323.9</ele>
        <time>2020-02-14T15:27:37.670Z</time>
      </trkpt>
      <trkpt lat="42.50656" lon="1.73994">
        <ele>2324.4</ele>
        <time>2020-02-14T15:27:40.059Z</time>
      </trkpt>
      <trkpt lat="42.50656" lon="1.73987">
        <ele>2325.1</ele>
        <time>2020-02-14T15:27:42.692Z</time>
      </trkpt>
      <trkpt lat="42.50657" lon="1.73979">
        <ele>2325.8</ele>
        <time>2020-02-14T15:27:45.364Z</time>
      </trkpt>
      <trkpt lat="42.50657" lon="1.73973">
        <ele>2326.3</ele>
        <time>2020-02-14T15:27:47.738Z</time>
      </trkpt>
      <trkpt lat="42.50657" lon="1.73967">
        <ele>2326.9</ele>
        <time>2020-02-14T15:27:50.019Z</time>
      </trkpt>
      <trkpt lat="42.50657" lon="1.73959">
        <ele>2327.5</ele>
        <time>2020-02-14T15:27:52.753Z</time>
      </trkpt>
      <trkpt lat="42.50658" lon="1.73953">
        <ele>2328.3</ele>
        <time>2020-02-14T15:27:55.224Z</time>
      </trkpt>
      <trkpt lat="42.5066" lon="1.73945">
        <ele>2329</ele>
        <time>2020-02-14T15:27:58.263Z</time>
      </trkpt>
      <trkpt lat="42.50665" lon="1.7394">
        <ele>2329.4</ele>
        <time>2020-02-14T15:28:01.267Z</time>
      </trkpt>
      <trkpt lat="42.50669" lon="1.73935">
        <ele>2329.8</ele>
        <time>2020-02-14T15:28:03.821Z</time>
      </trkpt>
      <trkpt lat="42.50672" lon="1.7393">
        <ele>2330.3</ele>
        <time>2020-02-14T15:28:06.120Z</time>
      </trkpt>
      <trkpt lat="42.50676" lon="1.73927">
        <ele>2330.5</ele>
        <time>2020-02-14T15:28:08.425Z</time>
      </trkpt>
      <trkpt lat="42.5068" lon="1.73925">
        <ele>2330.6</ele>
        <time>2020-02-14T15:28:10.820Z</time>
      </trkpt>
      <trkpt lat="42.50681" lon="1.73919">
        <ele>2331.2</ele>
        <time>2020-02-14T15:28:13.069Z</time>
      </trkpt>
      <trkpt lat="42.50682" lon="1.73912">
        <ele>2331.9</ele>
        <time>2020-02-14T15:28:15.765Z</time>
      </trkpt>
      <trkpt lat="42.50683" lon="1.73905">
        <ele>2332.4</ele>
        <time>2020-02-14T15:28:18.209Z</time>
      </trkpt>
      <trkpt lat="42.50683" lon="1.73899">
        <ele>2333</ele>
        <time>2020-02-14T15:28:20.534Z</time>
      </trkpt>
      <trkpt lat="42.5068" lon="1.73894">
        <ele>2333.6</ele>
        <time>2020-02-14T15:28:22.888Z</time>
      </trkpt>
      <trkpt lat="42.50677" lon="1.73887">
        <ele>2334.3</ele>
        <time>2020-02-14T15:28:25.553Z</time>
      </trkpt>
      <trkpt lat="42.50675" lon="1.73881">
        <ele>2334.9</ele>
        <time>2020-02-14T15:28:28.069Z</time>
      </trkpt>
      <trkpt lat="42.50674" lon="1.73875">
        <ele>2335.5</ele>
        <time>2020-02-14T15:28:30.523Z</time>
      </trkpt>
      <trkpt lat="42.50671" lon="1.7387">
        <ele>2335.7</ele>
        <time>2020-02-14T15:28:32.900Z</time>
      </trkpt>
      <trkpt lat="42.5067" lon="1.73863">
        <ele>2336.1</ele>
        <time>2020-02-14T15:28:35.347Z</time>
      </trkpt>
      <trkpt lat="42.50671" lon="1.73857">
        <ele>2336.4</ele>
        <time>2020-02-14T15:28:37.787Z</time>
      </trkpt>
      <trkpt lat="42.50672" lon="1.73851">
        <ele>2336.7</ele>
        <time>2020-02-14T15:28:40.013Z</time>
      </trkpt>
      <trkpt lat="42.50674" lon="1.73845">
        <ele>2337</ele>
        <time>2020-02-14T15:28:42.466Z</time>
      </trkpt>
      <trkpt lat="42.50676" lon="1.73839">
        <ele>2337.3</ele>
        <time>2020-02-14T15:28:44.806Z</time>
      </trkpt>
      <trkpt lat="42.50679" lon="1.73833">
        <ele>2337.6</ele>
        <time>2020-02-14T15:28:47.481Z</time>
      </trkpt>
      <trkpt lat="42.50681" lon="1.73827">
        <ele>2337.9</ele>
        <time>2020-02-14T15:28:49.800Z</time>
      </trkpt>
      <trkpt lat="42.5068" lon="1.7382">
        <ele>2338.3</ele>
        <time>2020-02-14T15:28:52.327Z</time>
      </trkpt>
      <trkpt lat="42.5068" lon="1.73813">
        <ele>2338.6</ele>
        <time>2020-02-14T15:28:54.621Z</time>
      </trkpt>
      <trkpt lat="42.50681" lon="1.73807">
        <ele>2338.9</ele>
        <time>2020-02-14T15:28:56.857Z</time>
      </trkpt>
      <trkpt lat="42.50681" lon="1.738">
        <ele>2339.2</ele>
        <time>2020-02-14T15:28:59.481Z</time>
      </trkpt>
      <trkpt lat="42.5068" lon="1.73794">
        <ele>2339.6</ele>
        <time>2020-02-14T15:29:01.837Z</time>
      </trkpt>
      <trkpt lat="42.50681" lon="1.73787">
        <ele>2340.3</ele>
        <time>2020-02-14T15:29:04.482Z</time>
      </trkpt>
      <trkpt lat="42.50682" lon="1.7378">
        <ele>2340.9</ele>
        <time>2020-02-14T15:29:07.115Z</time>
      </trkpt>
      <trkpt lat="42.50681" lon="1.73772">
        <ele>2341.6</ele>
        <time>2020-02-14T15:29:09.756Z</time>
      </trkpt>
      <trkpt lat="42.50682" lon="1.73765">
        <ele>2342.3</ele>
        <time>2020-02-14T15:29:12.283Z</time>
      </trkpt>
      <trkpt lat="42.50683" lon="1.73759">
        <ele>2342.7</ele>
        <time>2020-02-14T15:29:14.563Z</time>
      </trkpt>
      <trkpt lat="42.50681" lon="1.73753">
        <ele>2343.3</ele>
        <time>2020-02-14T15:29:16.896Z</time>
      </trkpt>
      <trkpt lat="42.50682" lon="1.73746">
        <ele>2344</ele>
        <time>2020-02-14T15:29:19.464Z</time>
      </trkpt>
      <trkpt lat="42.50684" lon="1.7374">
        <ele>2344.7</ele>
        <time>2020-02-14T15:29:22.039Z</time>
      </trkpt>
      <trkpt lat="42.50684" lon="1.73733">
        <ele>2345.4</ele>
        <time>2020-02-14T15:29:24.566Z</time>
      </trkpt>
      <trkpt lat="42.50683" lon="1.73727">
        <ele>2346</ele>
        <time>2020-02-14T15:29:26.794Z</time>
      </trkpt>
      <trkpt lat="42.50683" lon="1.73721">
        <ele>2346.5</ele>
        <time>2020-02-14T15:29:29.020Z</time>
      </trkpt>
      <trkpt lat="42.50682" lon="1.73714">
        <ele>2347.1</ele>
        <time>2020-02-14T15:29:31.515Z</time>
      </trkpt>
      <trkpt lat="42.50682" lon="1.73706">
        <ele>2348</ele>
        <time>2020-02-14T15:29:34.242Z</time>
      </trkpt>
      <trkpt lat="42.50681" lon="1.737">
        <ele>2348.7</ele>
        <time>2020-02-14T15:29:36.589Z</time>
      </trkpt>
      <trkpt lat="42.50682" lon="1.73693">
        <ele>2349.5</ele>
        <time>2020-02-14T15:29:39.171Z</time>
      </trkpt>
      <trkpt lat="42.50682" lon="1.73685">
        <ele>2350.5</ele>
        <time>2020-02-14T15:29:41.960Z</time>
      </trkpt>
      <trkpt lat="42.50681" lon="1.73678">
        <ele>2351.3</ele>
        <time>2020-02-14T15:29:44.591Z</time>
      </trkpt>
      <trkpt lat="42.5068" lon="1.73671">
        <ele>2352.2</ele>
        <time>2020-02-14T15:29:47.373Z</time>
      </trkpt>
      <trkpt lat="42.50682" lon="1.73664">
        <ele>2352.9</ele>
        <time>2020-02-14T15:29:49.886Z</time>
      </trkpt>
      <trkpt lat="42.50681" lon="1.73657">
        <ele>2353.8</ele>
        <time>2020-02-14T15:29:52.475Z</time>
      </trkpt>
      <trkpt lat="42.50682" lon="1.7365">
        <ele>2354.7</ele>
        <time>2020-02-14T15:29:55.181Z</time>
      </trkpt>
      <trkpt lat="42.50684" lon="1.73644">
        <ele>2355.2</ele>
        <time>2020-02-14T15:29:57.638Z</time>
      </trkpt>
      <trkpt lat="42.50685" lon="1.73638">
        <ele>2355.8</ele>
        <time>2020-02-14T15:29:59.916Z</time>
      </trkpt>
      <trkpt lat="42.50686" lon="1.73632">
        <ele>2356.6</ele>
        <time>2020-02-14T15:30:02.325Z</time>
      </trkpt>
      <trkpt lat="42.50687" lon="1.73624">
        <ele>2357.4</ele>
        <time>2020-02-14T15:30:05.052Z</time>
      </trkpt>
      <trkpt lat="42.50686" lon="1.73618">
        <ele>2358</ele>
        <time>2020-02-14T15:30:07.509Z</time>
      </trkpt>
      <trkpt lat="42.50688" lon="1.73611">
        <ele>2358.5</ele>
        <time>2020-02-14T15:30:10.022Z</time>
      </trkpt>
      <trkpt lat="42.50691" lon="1.73605">
        <ele>2359.1</ele>
        <time>2020-02-14T15:30:12.666Z</time>
      </trkpt>
      <trkpt lat="42.50693" lon="1.73599">
        <ele>2359.6</ele>
        <time>2020-02-14T15:30:15.089Z</time>
      </trkpt>
      <trkpt lat="42.50692" lon="1.73593">
        <ele>2360.1</ele>
        <time>2020-02-14T15:30:17.387Z</time>
      </trkpt>
      <trkpt lat="42.50692" lon="1.73586">
        <ele>2360.9</ele>
        <time>2020-02-14T15:30:20.038Z</time>
      </trkpt>
      <trkpt lat="42.50691" lon="1.73579">
        <ele>2361.6</ele>
        <time>2020-02-14T15:30:22.357Z</time>
      </trkpt>
      <trkpt lat="42.50688" lon="1.73576">
        <ele>2362.1</ele>
        <time>2020-02-14T15:30:24.634Z</time>
      </trkpt>
      <trkpt lat="42.50685" lon="1.7357">
        <ele>2362.6</ele>
        <time>2020-02-14T15:30:27.223Z</time>
      </trkpt>
      <trkpt lat="42.50683" lon="1.73563">
        <ele>2363.4</ele>
        <time>2020-02-14T15:30:29.902Z</time>
      </trkpt>
      <trkpt lat="42.50681" lon="1.73556">
        <ele>2364</ele>
        <time>2020-02-14T15:30:32.580Z</time>
      </trkpt>
      <trkpt lat="42.50678" lon="1.7355">
        <ele>2364.6</ele>
        <time>2020-02-14T15:30:35.252Z</time>
      </trkpt>
      <trkpt lat="42.50675" lon="1.73545">
        <ele>2365.1</ele>
        <time>2020-02-14T15:30:37.772Z</time>
      </trkpt>
      <trkpt lat="42.50671" lon="1.7354">
        <ele>2365.6</ele>
        <time>2020-02-14T15:30:40.243Z</time>
      </trkpt>
      <trkpt lat="42.5067" lon="1.73534">
        <ele>2366.2</ele>
        <time>2020-02-14T15:30:42.541Z</time>
      </trkpt>
      <trkpt lat="42.50665" lon="1.73531">
        <ele>2366.5</ele>
        <time>2020-02-14T15:30:45.060Z</time>
      </trkpt>
      <trkpt lat="42.50661" lon="1.73528">
        <ele>2366.7</ele>
        <time>2020-02-14T15:30:47.462Z</time>
      </trkpt>
      <trkpt lat="42.50659" lon="1.73522">
        <ele>2367.3</ele>
        <time>2020-02-14T15:30:50.024Z</time>
      </trkpt>
      <trkpt lat="42.50656" lon="1.73516">
        <ele>2367.8</ele>
        <time>2020-02-14T15:30:52.377Z</time>
      </trkpt>
      <trkpt lat="42.50656" lon="1.7351">
        <ele>2368.4</ele>
        <time>2020-02-14T15:30:54.696Z</time>
      </trkpt>
      <trkpt lat="42.50655" lon="1.73503">
        <ele>2369</ele>
        <time>2020-02-14T15:30:57.368Z</time>
      </trkpt>
      <trkpt lat="42.50657" lon="1.73497">
        <ele>2369.3</ele>
        <time>2020-02-14T15:30:59.603Z</time>
      </trkpt>
      <trkpt lat="42.50655" lon="1.73491">
        <ele>2370</ele>
        <time>2020-02-14T15:31:02.047Z</time>
      </trkpt>
      <trkpt lat="42.50654" lon="1.73485">
        <ele>2370.5</ele>
        <time>2020-02-14T15:31:04.456Z</time>
      </trkpt>
      <trkpt lat="42.50651" lon="1.7348">
        <ele>2370.9</ele>
        <time>2020-02-14T15:31:06.802Z</time>
      </trkpt>
      <trkpt lat="42.50648" lon="1.73475">
        <ele>2371.5</ele>
        <time>2020-02-14T15:31:09.024Z</time>
      </trkpt>
      <trkpt lat="42.50646" lon="1.73468">
        <ele>2372</ele>
        <time>2020-02-14T15:31:11.696Z</time>
      </trkpt>
      <trkpt lat="42.50643" lon="1.73463">
        <ele>2372.5</ele>
        <time>2020-02-14T15:31:14.022Z</time>
      </trkpt>
      <trkpt lat="42.50641" lon="1.73457">
        <ele>2372.9</ele>
        <time>2020-02-14T15:31:16.417Z</time>
      </trkpt>
      <trkpt lat="42.5064" lon="1.73451">
        <ele>2373.2</ele>
        <time>2020-02-14T15:31:18.701Z</time>
      </trkpt>
      <trkpt lat="42.50639" lon="1.73445">
        <ele>2373.5</ele>
        <time>2020-02-14T15:31:21.068Z</time>
      </trkpt>
      <trkpt lat="42.50637" lon="1.73438">
        <ele>2373.8</ele>
        <time>2020-02-14T15:31:23.546Z</time>
      </trkpt>
      <trkpt lat="42.50636" lon="1.73432">
        <ele>2374.2</ele>
        <time>2020-02-14T15:31:25.810Z</time>
      </trkpt>
      <trkpt lat="42.50635" lon="1.73425">
        <ele>2374.5</ele>
        <time>2020-02-14T15:31:28.385Z</time>
      </trkpt>
      <trkpt lat="42.50635" lon="1.73418">
        <ele>2374.8</ele>
        <time>2020-02-14T15:31:30.932Z</time>
      </trkpt>
      <trkpt lat="42.50634" lon="1.73412">
        <ele>2375</ele>
        <time>2020-02-14T15:31:33.313Z</time>
      </trkpt>
      <trkpt lat="42.50631" lon="1.73406">
        <ele>2375.2</ele>
        <time>2020-02-14T15:31:35.777Z</time>
      </trkpt>
      <trkpt lat="42.50629" lon="1.73399">
        <ele>2375.4</ele>
        <time>2020-02-14T15:31:38.373Z</time>
      </trkpt>
      <trkpt lat="42.50629" lon="1.73393">
        <ele>2375.7</ele>
        <time>2020-02-14T15:31:40.816Z</time>
      </trkpt>
      <trkpt lat="42.50627" lon="1.73386">
        <ele>2375.7</ele>
        <time>2020-02-14T15:31:43.398Z</time>
      </trkpt>
      <trkpt lat="42.50626" lon="1.73379">
        <ele>2375.9</ele>
        <time>2020-02-14T15:31:46.105Z</time>
      </trkpt>
      <trkpt lat="42.50628" lon="1.73372">
        <ele>2376.4</ele>
        <time>2020-02-14T15:31:48.645Z</time>
      </trkpt>
      <trkpt lat="42.50629" lon="1.73366">
        <ele>2377</ele>
        <time>2020-02-14T15:31:50.978Z</time>
      </trkpt>
      <trkpt lat="42.50631" lon="1.73359">
        <ele>2377.9</ele>
        <time>2020-02-14T15:31:53.754Z</time>
      </trkpt>
      <trkpt lat="42.50629" lon="1.73353">
        <ele>2378.2</ele>
        <time>2020-02-14T15:31:56.169Z</time>
      </trkpt>
      <trkpt lat="42.50627" lon="1.73347">
        <ele>2378.6</ele>
        <time>2020-02-14T15:31:58.682Z</time>
      </trkpt>
      <trkpt lat="42.50625" lon="1.7334">
        <ele>2379</ele>
        <time>2020-02-14T15:32:01.312Z</time>
      </trkpt>
      <trkpt lat="42.50623" lon="1.73333">
        <ele>2379.9</ele>
        <time>2020-02-14T15:32:03.998Z</time>
      </trkpt>
      <trkpt lat="42.50623" lon="1.73327">
        <ele>2380.4</ele>
        <time>2020-02-14T15:32:06.338Z</time>
      </trkpt>
      <trkpt lat="42.50624" lon="1.7332">
        <ele>2380.9</ele>
        <time>2020-02-14T15:32:08.816Z</time>
      </trkpt>
      <trkpt lat="42.50625" lon="1.73314">
        <ele>2381.3</ele>
        <time>2020-02-14T15:32:11.162Z</time>
      </trkpt>
      <trkpt lat="42.50626" lon="1.73308">
        <ele>2381.9</ele>
        <time>2020-02-14T15:32:13.529Z</time>
      </trkpt>
      <trkpt lat="42.5063" lon="1.73302">
        <ele>2382.5</ele>
        <time>2020-02-14T15:32:16.236Z</time>
      </trkpt>
      <trkpt lat="42.5063" lon="1.73295">
        <ele>2383.1</ele>
        <time>2020-02-14T15:32:18.693Z</time>
      </trkpt>
      <trkpt lat="42.50628" lon="1.73288">
        <ele>2383.4</ele>
        <time>2020-02-14T15:32:21.164Z</time>
      </trkpt>
      <trkpt lat="42.50628" lon="1.73282">
        <ele>2383.8</ele>
        <time>2020-02-14T15:32:23.428Z</time>
      </trkpt>
      <trkpt lat="42.50628" lon="1.73276">
        <ele>2384.3</ele>
        <time>2020-02-14T15:32:25.650Z</time>
      </trkpt>
      <trkpt lat="42.50628" lon="1.73268">
        <ele>2384.6</ele>
        <time>2020-02-14T15:32:28.488Z</time>
      </trkpt>
      <trkpt lat="42.50628" lon="1.73261">
        <ele>2385.1</ele>
        <time>2020-02-14T15:32:31.042Z</time>
      </trkpt>
      <trkpt lat="42.50632" lon="1.73258">
        <ele>2385.6</ele>
        <time>2020-02-14T15:32:33.402Z</time>
      </trkpt>
      <trkpt lat="42.50628" lon="1.73255">
        <ele>2385.5</ele>
        <time>2020-02-14T15:32:35.673Z</time>
      </trkpt>
      <trkpt lat="42.50623" lon="1.73253">
        <ele>2385.7</ele>
        <time>2020-02-14T15:32:38.109Z</time>
      </trkpt>
      <trkpt lat="42.50618" lon="1.73257">
        <ele>2386.1</ele>
        <time>2020-02-14T15:32:40.698Z</time>
      </trkpt>
      <trkpt lat="42.50616" lon="1.73251">
        <ele>2386.7</ele>
        <time>2020-02-14T15:32:43.141Z</time>
      </trkpt>
      <trkpt lat="42.50614" lon="1.73244">
        <ele>2387.4</ele>
        <time>2020-02-14T15:32:45.834Z</time>
      </trkpt>
      <trkpt lat="42.50612" lon="1.73238">
        <ele>2388.2</ele>
        <time>2020-02-14T15:32:48.478Z</time>
      </trkpt>
      <trkpt lat="42.50609" lon="1.73233">
        <ele>2388.9</ele>
        <time>2020-02-14T15:32:50.776Z</time>
      </trkpt>
      <trkpt lat="42.50606" lon="1.73227">
        <ele>2389.7</ele>
        <time>2020-02-14T15:32:53.324Z</time>
      </trkpt>
      <trkpt lat="42.50605" lon="1.7322">
        <ele>2390.2</ele>
        <time>2020-02-14T15:32:55.788Z</time>
      </trkpt>
      <trkpt lat="42.50605" lon="1.73213">
        <ele>2390.6</ele>
        <time>2020-02-14T15:32:58.342Z</time>
      </trkpt>
      <trkpt lat="42.50604" lon="1.73206">
        <ele>2391.2</ele>
        <time>2020-02-14T15:33:00.903Z</time>
      </trkpt>
      <trkpt lat="42.506" lon="1.73203">
        <ele>2392.1</ele>
        <time>2020-02-14T15:33:03.222Z</time>
      </trkpt>
      <trkpt lat="42.50595" lon="1.73203">
        <ele>2392.7</ele>
        <time>2020-02-14T15:33:05.665Z</time>
      </trkpt>
      <trkpt lat="42.50593" lon="1.73197">
        <ele>2393.5</ele>
        <time>2020-02-14T15:33:08.130Z</time>
      </trkpt>
      <trkpt lat="42.50591" lon="1.73191">
        <ele>2394.3</ele>
        <time>2020-02-14T15:33:10.608Z</time>
      </trkpt>
      <trkpt lat="42.50589" lon="1.73184">
        <ele>2395.1</ele>
        <time>2020-02-14T15:33:13.155Z</time>
      </trkpt>
      <trkpt lat="42.50586" lon="1.73179">
        <ele>2395.9</ele>
        <time>2020-02-14T15:33:15.667Z</time>
      </trkpt>
      <trkpt lat="42.50582" lon="1.73174">
        <ele>2396.9</ele>
        <time>2020-02-14T15:33:18.187Z</time>
      </trkpt>
      <trkpt lat="42.50579" lon="1.73168">
        <ele>2397.9</ele>
        <time>2020-02-14T15:33:20.949Z</time>
      </trkpt>
      <trkpt lat="42.50576" lon="1.73162">
        <ele>2398.8</ele>
        <time>2020-02-14T15:33:23.621Z</time>
      </trkpt>
      <trkpt lat="42.50573" lon="1.73156">
        <ele>2399.6</ele>
        <time>2020-02-14T15:33:26.258Z</time>
      </trkpt>
      <trkpt lat="42.50571" lon="1.7315">
        <ele>2400.5</ele>
        <time>2020-02-14T15:33:28.750Z</time>
      </trkpt>
      <trkpt lat="42.50568" lon="1.73145">
        <ele>2401.3</ele>
        <time>2020-02-14T15:33:31.096Z</time>
      </trkpt>
      <trkpt lat="42.50565" lon="1.73139">
        <ele>2402.3</ele>
        <time>2020-02-14T15:33:33.616Z</time>
      </trkpt>
      <trkpt lat="42.50562" lon="1.73133">
        <ele>2403.1</ele>
        <time>2020-02-14T15:33:36.163Z</time>
      </trkpt>
      <trkpt lat="42.5056" lon="1.73128">
        <ele>2404.1</ele>
        <time>2020-02-14T15:33:38.641Z</time>
      </trkpt>
      <trkpt lat="42.50558" lon="1.73121">
        <ele>2404.8</ele>
        <time>2020-02-14T15:33:41.258Z</time>
      </trkpt>
      <trkpt lat="42.50556" lon="1.73115">
        <ele>2405.5</ele>
        <time>2020-02-14T15:33:43.736Z</time>
      </trkpt>
      <trkpt lat="42.50554" lon="1.73109">
        <ele>2406</ele>
        <time>2020-02-14T15:33:46.062Z</time>
      </trkpt>
      <trkpt lat="42.50552" lon="1.73103">
        <ele>2406.6</ele>
        <time>2020-02-14T15:33:48.540Z</time>
      </trkpt>
      <trkpt lat="42.50549" lon="1.73096">
        <ele>2407.3</ele>
        <time>2020-02-14T15:33:51.232Z</time>
      </trkpt>
      <trkpt lat="42.50548" lon="1.73089">
        <ele>2407.8</ele>
        <time>2020-02-14T15:33:53.932Z</time>
      </trkpt>
      <trkpt lat="42.50549" lon="1.73083">
        <ele>2407.8</ele>
        <time>2020-02-14T15:33:56.230Z</time>
      </trkpt>
      <trkpt lat="42.5055" lon="1.73077">
        <ele>2408.1</ele>
        <time>2020-02-14T15:33:58.507Z</time>
      </trkpt>
      <trkpt lat="42.5055" lon="1.73071">
        <ele>2408.3</ele>
        <time>2020-02-14T15:34:00.771Z</time>
      </trkpt>
      <trkpt lat="42.50548" lon="1.73064">
        <ele>2408.8</ele>
        <time>2020-02-14T15:34:03.539Z</time>
      </trkpt>
      <trkpt lat="42.50548" lon="1.73057">
        <ele>2409.1</ele>
        <time>2020-02-14T15:34:05.907Z</time>
      </trkpt>
      <trkpt lat="42.50547" lon="1.7305">
        <ele>2409.4</ele>
        <time>2020-02-14T15:34:08.592Z</time>
      </trkpt>
      <trkpt lat="42.50546" lon="1.73043">
        <ele>2409.9</ele>
        <time>2020-02-14T15:34:11.057Z</time>
      </trkpt>
      <trkpt lat="42.50542" lon="1.73039">
        <ele>2410.7</ele>
        <time>2020-02-14T15:34:13.521Z</time>
      </trkpt>
      <trkpt lat="42.5054" lon="1.73032">
        <ele>2412.5</ele>
        <time>2020-02-14T15:34:16.269Z</time>
      </trkpt>
      <trkpt lat="42.50544" lon="1.73026">
        <ele>2413.1</ele>
        <time>2020-02-14T15:34:19.238Z</time>
      </trkpt>
      <trkpt lat="42.50545" lon="1.7302">
        <ele>2414.5</ele>
        <time>2020-02-14T15:34:21.682Z</time>
      </trkpt>
      <trkpt lat="42.50543" lon="1.73014">
        <ele>2415.8</ele>
        <time>2020-02-14T15:34:24.160Z</time>
      </trkpt>
      <trkpt lat="42.50547" lon="1.7301">
        <ele>2416.5</ele>
        <time>2020-02-14T15:34:26.548Z</time>
      </trkpt>
      <trkpt lat="42.50543" lon="1.73013">
        <ele>2415.9</ele>
        <time>2020-02-14T15:34:28.763Z</time>
      </trkpt>
      <trkpt lat="42.5054" lon="1.7301">
        <ele>2417</ele>
        <time>2020-02-14T15:34:31.040Z</time>
      </trkpt>
      <trkpt lat="42.50537" lon="1.73004">
        <ele>2418.7</ele>
        <time>2020-02-14T15:34:33.698Z</time>
      </trkpt>
      <trkpt lat="42.50534" lon="1.72999">
        <ele>2420.3</ele>
        <time>2020-02-14T15:34:36.315Z</time>
      </trkpt>
      <trkpt lat="42.5053" lon="1.72994">
        <ele>2422</ele>
        <time>2020-02-14T15:34:38.827Z</time>
      </trkpt>
      <trkpt lat="42.50525" lon="1.72993">
        <ele>2423.2</ele>
        <time>2020-02-14T15:34:41.492Z</time>
      </trkpt>
      <trkpt lat="42.50523" lon="1.72987">
        <ele>2424.4</ele>
        <time>2020-02-14T15:34:43.818Z</time>
      </trkpt>
      <trkpt lat="42.5052" lon="1.72982">
        <ele>2425.8</ele>
        <time>2020-02-14T15:34:46.324Z</time>
      </trkpt>
      <trkpt lat="42.50517" lon="1.72977">
        <ele>2427</ele>
        <time>2020-02-14T15:34:48.719Z</time>
      </trkpt>
      <trkpt lat="42.50515" lon="1.72971">
        <ele>2428.2</ele>
        <time>2020-02-14T15:34:51.017Z</time>
      </trkpt>
      <trkpt lat="42.50512" lon="1.72966">
        <ele>2429.3</ele>
        <time>2020-02-14T15:34:53.287Z</time>
      </trkpt>
      <trkpt lat="42.50509" lon="1.72962">
        <ele>2430.4</ele>
        <time>2020-02-14T15:34:55.620Z</time>
      </trkpt>
      <trkpt lat="42.50506" lon="1.72957">
        <ele>2431.7</ele>
        <time>2020-02-14T15:34:58.077Z</time>
      </trkpt>
      <trkpt lat="42.50504" lon="1.72951">
        <ele>2433</ele>
        <time>2020-02-14T15:35:00.590Z</time>
      </trkpt>
      <trkpt lat="42.50499" lon="1.72947">
        <ele>2434</ele>
        <time>2020-02-14T15:35:03.075Z</time>
      </trkpt>
      <trkpt lat="42.50498" lon="1.72941">
        <ele>2435.3</ele>
        <time>2020-02-14T15:35:05.726Z</time>
      </trkpt>
      <trkpt lat="42.50495" lon="1.72935">
        <ele>2436.7</ele>
        <time>2020-02-14T15:35:08.239Z</time>
      </trkpt>
      <trkpt lat="42.50489" lon="1.72936">
        <ele>2437.1</ele>
        <time>2020-02-14T15:35:10.855Z</time>
      </trkpt>
      <trkpt lat="42.50484" lon="1.72939">
        <ele>2437.1</ele>
        <time>2020-02-14T15:35:13.610Z</time>
      </trkpt>
      <trkpt lat="42.50479" lon="1.7294">
        <ele>2437.5</ele>
        <time>2020-02-14T15:35:16.254Z</time>
      </trkpt>
      <trkpt lat="42.50475" lon="1.72936">
        <ele>2438.5</ele>
        <time>2020-02-14T15:35:18.504Z</time>
      </trkpt>
      <trkpt lat="42.50471" lon="1.72937">
        <ele>2438.9</ele>
        <time>2020-02-14T15:35:20.857Z</time>
      </trkpt>
      <trkpt lat="42.50466" lon="1.72939">
        <ele>2439.1</ele>
        <time>2020-02-14T15:35:23.162Z</time>
      </trkpt>
      <trkpt lat="42.50461" lon="1.72941">
        <ele>2439.3</ele>
        <time>2020-02-14T15:35:25.952Z</time>
      </trkpt>
      <trkpt lat="42.50456" lon="1.72942">
        <ele>2440</ele>
        <time>2020-02-14T15:35:28.374Z</time>
      </trkpt>
      <trkpt lat="42.50452" lon="1.72944">
        <ele>2440.9</ele>
        <time>2020-02-14T15:35:30.756Z</time>
      </trkpt>
      <trkpt lat="42.50447" lon="1.72943">
        <ele>2442.3</ele>
        <time>2020-02-14T15:35:33.074Z</time>
      </trkpt>
      <trkpt lat="42.50442" lon="1.72942">
        <ele>2443.8</ele>
        <time>2020-02-14T15:35:35.809Z</time>
      </trkpt>
      <trkpt lat="42.50439" lon="1.72938">
        <ele>2445.2</ele>
        <time>2020-02-14T15:35:38.100Z</time>
      </trkpt>
      <trkpt lat="42.50434" lon="1.72935">
        <ele>2446.7</ele>
        <time>2020-02-14T15:35:40.723Z</time>
      </trkpt>
      <trkpt lat="42.50429" lon="1.72934">
        <ele>2448</ele>
        <time>2020-02-14T15:35:43.167Z</time>
      </trkpt>
      <trkpt lat="42.50425" lon="1.72932">
        <ele>2449.3</ele>
        <time>2020-02-14T15:35:45.631Z</time>
      </trkpt>
      <trkpt lat="42.5042" lon="1.72934">
        <ele>2450.3</ele>
        <time>2020-02-14T15:35:48.233Z</time>
      </trkpt>
      <trkpt lat="42.50416" lon="1.72938">
        <ele>2450.9</ele>
        <time>2020-02-14T15:35:50.614Z</time>
      </trkpt>
      <trkpt lat="42.50413" lon="1.72942">
        <ele>2451.5</ele>
        <time>2020-02-14T15:35:52.843Z</time>
      </trkpt>
      <trkpt lat="42.50408" lon="1.72945">
        <ele>2452.5</ele>
        <time>2020-02-14T15:35:55.204Z</time>
      </trkpt>
      <trkpt lat="42.50403" lon="1.72945">
        <ele>2453.9</ele>
        <time>2020-02-14T15:35:57.841Z</time>
      </trkpt>
      <trkpt lat="42.50398" lon="1.72946">
        <ele>2455</ele>
        <time>2020-02-14T15:36:00.250Z</time>
      </trkpt>
      <trkpt lat="42.50393" lon="1.72947">
        <ele>2456.4</ele>
        <time>2020-02-14T15:36:02.797Z</time>
      </trkpt>
      <trkpt lat="42.5039" lon="1.72941">
        <ele>2457.6</ele>
        <time>2020-02-14T15:36:05.566Z</time>
      </trkpt>
      <trkpt lat="42.50388" lon="1.72935">
        <ele>2458.3</ele>
        <time>2020-02-14T15:36:07.947Z</time>
      </trkpt>
      <trkpt lat="42.50386" lon="1.72929">
        <ele>2459</ele>
        <time>2020-02-14T15:36:10.287Z</time>
      </trkpt>
      <trkpt lat="42.50384" lon="1.72923">
        <ele>2459.8</ele>
        <time>2020-02-14T15:36:12.675Z</time>
      </trkpt>
      <trkpt lat="42.50383" lon="1.72916">
        <ele>2460.2</ele>
        <time>2020-02-14T15:36:15.222Z</time>
      </trkpt>
      <trkpt lat="42.50383" lon="1.7291">
        <ele>2460.5</ele>
        <time>2020-02-14T15:36:17.561Z</time>
      </trkpt>
      <trkpt lat="42.50384" lon="1.72904">
        <ele>2460.5</ele>
        <time>2020-02-14T15:36:19.818Z</time>
      </trkpt>
      <trkpt lat="42.50382" lon="1.72898">
        <ele>2461.2</ele>
        <time>2020-02-14T15:36:22.075Z</time>
      </trkpt>
      <trkpt lat="42.50379" lon="1.72894">
        <ele>2461.9</ele>
        <time>2020-02-14T15:36:24.386Z</time>
      </trkpt>
      <trkpt lat="42.50376" lon="1.72889">
        <ele>2462.4</ele>
        <time>2020-02-14T15:36:26.602Z</time>
      </trkpt>
      <trkpt lat="42.50372" lon="1.72885">
        <ele>2463.5</ele>
        <time>2020-02-14T15:36:28.893Z</time>
      </trkpt>
      <trkpt lat="42.50368" lon="1.72882">
        <ele>2464.4</ele>
        <time>2020-02-14T15:36:31.253Z</time>
      </trkpt>
      <trkpt lat="42.50364" lon="1.7288">
        <ele>2465.5</ele>
        <time>2020-02-14T15:36:33.766Z</time>
      </trkpt>
      <trkpt lat="42.50361" lon="1.72874">
        <ele>2466.4</ele>
        <time>2020-02-14T15:36:36.223Z</time>
      </trkpt>
      <trkpt lat="42.50357" lon="1.7287">
        <ele>2467.8</ele>
        <time>2020-02-14T15:36:38.618Z</time>
      </trkpt>
      <trkpt lat="42.50356" lon="1.72864">
        <ele>2469.4</ele>
        <time>2020-02-14T15:36:41.283Z</time>
      </trkpt>
      <trkpt lat="42.50354" lon="1.72858">
        <ele>2470.9</ele>
        <time>2020-02-14T15:36:43.636Z</time>
      </trkpt>
      <trkpt lat="42.50349" lon="1.72855">
        <ele>2472.8</ele>
        <time>2020-02-14T15:36:46.308Z</time>
      </trkpt>
      <trkpt lat="42.50344" lon="1.72852">
        <ele>2474.5</ele>
        <time>2020-02-14T15:36:48.883Z</time>
      </trkpt>
      <trkpt lat="42.5034" lon="1.72851">
        <ele>2476</ele>
        <time>2020-02-14T15:36:51.244Z</time>
      </trkpt>
      <trkpt lat="42.50335" lon="1.72849">
        <ele>2477.9</ele>
        <time>2020-02-14T15:36:53.957Z</time>
      </trkpt>
      <trkpt lat="42.5033" lon="1.72847">
        <ele>2479.6</ele>
        <time>2020-02-14T15:36:56.359Z</time>
      </trkpt>
      <trkpt lat="42.50326" lon="1.72844">
        <ele>2481.5</ele>
        <time>2020-02-14T15:36:58.816Z</time>
      </trkpt>
      <trkpt lat="42.50323" lon="1.7284">
        <ele>2483.5</ele>
        <time>2020-02-14T15:37:01.301Z</time>
      </trkpt>
      <trkpt lat="42.50325" lon="1.72845">
        <ele>2481.5</ele>
        <time>2020-02-14T15:37:03.724Z</time>
      </trkpt>
      <trkpt lat="42.50321" lon="1.72846">
        <ele>2482.6</ele>
        <time>2020-02-14T15:37:06.001Z</time>
      </trkpt>
      <trkpt lat="42.50317" lon="1.72851">
        <ele>2482.5</ele>
        <time>2020-02-14T15:37:08.271Z</time>
      </trkpt>
      <trkpt lat="42.50322" lon="1.72848">
        <ele>2481.8</ele>
        <time>2020-02-14T15:37:10.846Z</time>
      </trkpt>
      <trkpt lat="42.50325" lon="1.72843">
        <ele>2482.1</ele>
        <time>2020-02-14T15:37:13.131Z</time>
      </trkpt>
      <trkpt lat="42.50322" lon="1.72847">
        <ele>2482.1</ele>
        <time>2020-02-14T15:37:15.373Z</time>
      </trkpt>
      <trkpt lat="42.50325" lon="1.72843">
        <ele>2482.3</ele>
        <time>2020-02-14T15:37:17.685Z</time>
      </trkpt>
      <trkpt lat="42.50321" lon="1.72845">
        <ele>2483</ele>
        <time>2020-02-14T15:37:19.983Z</time>
      </trkpt>
      <trkpt lat="42.50323" lon="1.7284">
        <ele>2483.5</ele>
        <time>2020-02-14T15:37:22.268Z</time>
      </trkpt>
      <trkpt lat="42.50322" lon="1.72833">
        <ele>2485.4</ele>
        <time>2020-02-14T15:37:24.849Z</time>
      </trkpt>
      <trkpt lat="42.50323" lon="1.72827">
        <ele>2486.6</ele>
        <time>2020-02-14T15:37:27.355Z</time>
      </trkpt>
      <trkpt lat="42.50325" lon="1.7282">
        <ele>2487.9</ele>
        <time>2020-02-14T15:37:29.979Z</time>
      </trkpt>
      <trkpt lat="42.50325" lon="1.72813">
        <ele>2489.3</ele>
        <time>2020-02-14T15:37:32.470Z</time>
      </trkpt>
      <trkpt lat="42.50325" lon="1.72807">
        <ele>2490.8</ele>
        <time>2020-02-14T15:37:34.852Z</time>
      </trkpt>
      <trkpt lat="42.50325" lon="1.728">
        <ele>2492.5</ele>
        <time>2020-02-14T15:37:37.337Z</time>
      </trkpt>
      <trkpt lat="42.50324" lon="1.72793">
        <ele>2494.5</ele>
        <time>2020-02-14T15:37:40.175Z</time>
      </trkpt>
      <trkpt lat="42.50322" lon="1.72787">
        <ele>2496.8</ele>
        <time>2020-02-14T15:37:42.798Z</time>
      </trkpt>
      <trkpt lat="42.5032" lon="1.72781">
        <ele>2499.1</ele>
        <time>2020-02-14T15:37:45.290Z</time>
      </trkpt>
      <trkpt lat="42.5032" lon="1.72774">
        <ele>2501</ele>
        <time>2020-02-14T15:37:48.072Z</time>
      </trkpt>
      <trkpt lat="42.50321" lon="1.72768">
        <ele>2502.1</ele>
        <time>2020-02-14T15:37:50.557Z</time>
      </trkpt>
      <trkpt lat="42.50321" lon="1.72761">
        <ele>2504</ele>
        <time>2020-02-14T15:37:53.167Z</time>
      </trkpt>
      <trkpt lat="42.5032" lon="1.72754">
        <ele>2506</ele>
        <time>2020-02-14T15:37:55.783Z</time>
      </trkpt>
      <trkpt lat="42.5032" lon="1.72747">
        <ele>2507.6</ele>
        <time>2020-02-14T15:37:58.497Z</time>
      </trkpt>
      <trkpt lat="42.5032" lon="1.7274">
        <ele>2509.3</ele>
        <time>2020-02-14T15:38:01.023Z</time>
      </trkpt>
      <trkpt lat="42.50322" lon="1.72734">
        <ele>2510.1</ele>
        <time>2020-02-14T15:38:03.370Z</time>
      </trkpt>
      <trkpt lat="42.50323" lon="1.72728">
        <ele>2511.2</ele>
        <time>2020-02-14T15:38:05.689Z</time>
      </trkpt>
      <trkpt lat="42.50325" lon="1.72722">
        <ele>2512</ele>
        <time>2020-02-14T15:38:08.340Z</time>
      </trkpt>
      <trkpt lat="42.50328" lon="1.72715">
        <ele>2512.6</ele>
        <time>2020-02-14T15:38:10.977Z</time>
      </trkpt>
      <trkpt lat="42.50331" lon="1.72711">
        <ele>2512.4</ele>
        <time>2020-02-14T15:38:13.268Z</time>
      </trkpt>
      <trkpt lat="42.50334" lon="1.72705">
        <ele>2512.4</ele>
        <time>2020-02-14T15:38:15.788Z</time>
      </trkpt>
      <trkpt lat="42.50338" lon="1.727">
        <ele>2511.8</ele>
        <time>2020-02-14T15:38:18.522Z</time>
      </trkpt>
      <trkpt lat="42.50342" lon="1.72697">
        <ele>2510.9</ele>
        <time>2020-02-14T15:38:21.083Z</time>
      </trkpt>
      <trkpt lat="42.50346" lon="1.72693">
        <ele>2510.3</ele>
        <time>2020-02-14T15:38:23.443Z</time>
      </trkpt>
      <trkpt lat="42.5035" lon="1.72688">
        <ele>2510.1</ele>
        <time>2020-02-14T15:38:25.894Z</time>
      </trkpt>
      <trkpt lat="42.50353" lon="1.72684">
        <ele>2509.8</ele>
        <time>2020-02-14T15:38:28.226Z</time>
      </trkpt>
      <trkpt lat="42.50357" lon="1.72678">
        <ele>2509.7</ele>
        <time>2020-02-14T15:38:30.829Z</time>
      </trkpt>
      <trkpt lat="42.5036" lon="1.72674">
        <ele>2509.7</ele>
        <time>2020-02-14T15:38:33.245Z</time>
      </trkpt>
      <trkpt lat="42.50364" lon="1.72669">
        <ele>2509.5</ele>
        <time>2020-02-14T15:38:35.654Z</time>
      </trkpt>
      <trkpt lat="42.50367" lon="1.72664">
        <ele>2509.9</ele>
        <time>2020-02-14T15:38:38.256Z</time>
      </trkpt>
      <trkpt lat="42.50371" lon="1.7266">
        <ele>2509.6</ele>
        <time>2020-02-14T15:38:40.547Z</time>
      </trkpt>
      <trkpt lat="42.50375" lon="1.72655">
        <ele>2509.7</ele>
        <time>2020-02-14T15:38:43.233Z</time>
      </trkpt>
      <trkpt lat="42.50379" lon="1.72651">
        <ele>2510.3</ele>
        <time>2020-02-14T15:38:45.836Z</time>
      </trkpt>
      <trkpt lat="42.50383" lon="1.72648">
        <ele>2510.9</ele>
        <time>2020-02-14T15:38:48.078Z</time>
      </trkpt>
      <trkpt lat="42.50388" lon="1.72645">
        <ele>2511.3</ele>
        <time>2020-02-14T15:38:50.522Z</time>
      </trkpt>
      <trkpt lat="42.50391" lon="1.72641">
        <ele>2511.9</ele>
        <time>2020-02-14T15:38:52.855Z</time>
      </trkpt>
      <trkpt lat="42.50395" lon="1.72637">
        <ele>2512.6</ele>
        <time>2020-02-14T15:38:55.208Z</time>
      </trkpt>
      <trkpt lat="42.50399" lon="1.72633">
        <ele>2513.1</ele>
        <time>2020-02-14T15:38:57.700Z</time>
      </trkpt>
      <trkpt lat="42.50403" lon="1.7263">
        <ele>2513.3</ele>
        <time>2020-02-14T15:39:00.012Z</time>
      </trkpt>
      <trkpt lat="42.50408" lon="1.72626">
        <ele>2513.9</ele>
        <time>2020-02-14T15:39:02.552Z</time>
      </trkpt>
      <trkpt lat="42.50412" lon="1.72623">
        <ele>2513.4</ele>
        <time>2020-02-14T15:39:04.885Z</time>
      </trkpt>
      <trkpt lat="42.50416" lon="1.7262">
        <ele>2512.6</ele>
        <time>2020-02-14T15:39:07.508Z</time>
      </trkpt>
      <trkpt lat="42.50421" lon="1.72617">
        <ele>2511.9</ele>
        <time>2020-02-14T15:39:10.049Z</time>
      </trkpt>
      <trkpt lat="42.50425" lon="1.72613">
        <ele>2511.1</ele>
        <time>2020-02-14T15:39:12.630Z</time>
      </trkpt>
      <trkpt lat="42.5043" lon="1.72609">
        <ele>2510.4</ele>
        <time>2020-02-14T15:39:15.268Z</time>
      </trkpt>
      <trkpt lat="42.50434" lon="1.72605">
        <ele>2510</ele>
        <time>2020-02-14T15:39:17.559Z</time>
      </trkpt>
      <trkpt lat="42.50438" lon="1.726">
        <ele>2509.4</ele>
        <time>2020-02-14T15:39:20.494Z</time>
      </trkpt>
      <trkpt lat="42.50442" lon="1.72597">
        <ele>2509.2</ele>
        <time>2020-02-14T15:39:22.757Z</time>
      </trkpt>
      <trkpt lat="42.50445" lon="1.72592">
        <ele>2508.9</ele>
        <time>2020-02-14T15:39:25.048Z</time>
      </trkpt>
      <trkpt lat="42.50449" lon="1.72588">
        <ele>2508.8</ele>
        <time>2020-02-14T15:39:27.416Z</time>
      </trkpt>
      <trkpt lat="42.50452" lon="1.72583">
        <ele>2508.7</ele>
        <time>2020-02-14T15:39:29.755Z</time>
      </trkpt>
      <trkpt lat="42.50457" lon="1.7258">
        <ele>2508.6</ele>
        <time>2020-02-14T15:39:32.303Z</time>
      </trkpt>
      <trkpt lat="42.5046" lon="1.72576">
        <ele>2508.7</ele>
        <time>2020-02-14T15:39:34.552Z</time>
      </trkpt>
      <trkpt lat="42.50464" lon="1.72572">
        <ele>2508.5</ele>
        <time>2020-02-14T15:39:37.051Z</time>
      </trkpt>
      <trkpt lat="42.50467" lon="1.72566">
        <ele>2508.4</ele>
        <time>2020-02-14T15:39:39.771Z</time>
      </trkpt>
      <trkpt lat="42.50464" lon="1.72561">
        <ele>2510</ele>
        <time>2020-02-14T15:39:42.332Z</time>
      </trkpt>
      <trkpt lat="42.5046" lon="1.72557">
        <ele>2511</ele>
        <time>2020-02-14T15:39:44.928Z</time>
      </trkpt>
      <trkpt lat="42.50457" lon="1.72551">
        <ele>2513</ele>
        <time>2020-02-14T15:39:47.593Z</time>
      </trkpt>
      <trkpt lat="42.50454" lon="1.72557">
        <ele>2514.1</ele>
        <time>2020-02-14T15:39:49.870Z</time>
      </trkpt>
      <trkpt lat="42.50456" lon="1.72551">
        <ele>2515</ele>
        <time>2020-02-14T15:39:52.245Z</time>
      </trkpt>
      <trkpt lat="42.50452" lon="1.72554">
        <ele>2515</ele>
        <time>2020-02-14T15:39:54.473Z</time>
      </trkpt>
      <trkpt lat="42.50456" lon="1.7255">
        <ele>2514</ele>
        <time>2020-02-14T15:39:56.827Z</time>
      </trkpt>
      <trkpt lat="42.5046" lon="1.72555">
        <ele>2512.1</ele>
        <time>2020-02-14T15:39:59.374Z</time>
      </trkpt>
      <trkpt lat="42.50464" lon="1.72559">
        <ele>2511</ele>
        <time>2020-02-14T15:40:01.942Z</time>
      </trkpt>
      <trkpt lat="42.50467" lon="1.72564">
        <ele>2508.5</ele>
        <time>2020-02-14T15:40:04.579Z</time>
      </trkpt>
      <trkpt lat="42.5047" lon="1.7256">
        <ele>2508.2</ele>
        <time>2020-02-14T15:40:06.808Z</time>
      </trkpt>
      <trkpt lat="42.50475" lon="1.72557">
        <ele>2507.9</ele>
        <time>2020-02-14T15:40:09.376Z</time>
      </trkpt>
      <trkpt lat="42.50479" lon="1.72552">
        <ele>2507.4</ele>
        <time>2020-02-14T15:40:12.104Z</time>
      </trkpt>
      <trkpt lat="42.50484" lon="1.72547">
        <ele>2506.9</ele>
        <time>2020-02-14T15:40:14.831Z</time>
      </trkpt>
      <trkpt lat="42.50488" lon="1.72543">
        <ele>2506.2</ele>
        <time>2020-02-14T15:40:17.517Z</time>
      </trkpt>
      <trkpt lat="42.50492" lon="1.72538">
        <ele>2504.7</ele>
        <time>2020-02-14T15:40:20.271Z</time>
      </trkpt>
      <trkpt lat="42.50495" lon="1.72533">
        <ele>2502.6</ele>
        <time>2020-02-14T15:40:22.978Z</time>
      </trkpt>
      <trkpt lat="42.50499" lon="1.72528">
        <ele>2500.7</ele>
        <time>2020-02-14T15:40:25.587Z</time>
      </trkpt>
      <trkpt lat="42.50504" lon="1.72523">
        <ele>2498.9</ele>
        <time>2020-02-14T15:40:28.536Z</time>
      </trkpt>
      <trkpt lat="42.50507" lon="1.72519">
        <ele>2497.1</ele>
        <time>2020-02-14T15:40:31.056Z</time>
      </trkpt>
      <trkpt lat="42.50509" lon="1.72513">
        <ele>2495.2</ele>
        <time>2020-02-14T15:40:33.444Z</time>
      </trkpt>
      <trkpt lat="42.50512" lon="1.72509">
        <ele>2493.5</ele>
        <time>2020-02-14T15:40:35.866Z</time>
      </trkpt>
      <trkpt lat="42.50516" lon="1.72504">
        <ele>2491.6</ele>
        <time>2020-02-14T15:40:38.531Z</time>
      </trkpt>
      <trkpt lat="42.50519" lon="1.72499">
        <ele>2489.7</ele>
        <time>2020-02-14T15:40:41.072Z</time>
      </trkpt>
      <trkpt lat="42.50523" lon="1.72496">
        <ele>2488.5</ele>
        <time>2020-02-14T15:40:43.474Z</time>
      </trkpt>
      <trkpt lat="42.50528" lon="1.72495">
        <ele>2487.5</ele>
        <time>2020-02-14T15:40:45.917Z</time>
      </trkpt>
      <trkpt lat="42.50532" lon="1.72491">
        <ele>2486.1</ele>
        <time>2020-02-14T15:40:48.444Z</time>
      </trkpt>
      <trkpt lat="42.50537" lon="1.7249">
        <ele>2485.3</ele>
        <time>2020-02-14T15:40:50.756Z</time>
      </trkpt>
      <trkpt lat="42.50541" lon="1.72487">
        <ele>2484.1</ele>
        <time>2020-02-14T15:40:53.185Z</time>
      </trkpt>
      <trkpt lat="42.50546" lon="1.72486">
        <ele>2484.2</ele>
        <time>2020-02-14T15:40:55.407Z</time>
      </trkpt>
      <trkpt lat="42.5055" lon="1.72485">
        <ele>2484.5</ele>
        <time>2020-02-14T15:40:57.747Z</time>
      </trkpt>
      <trkpt lat="42.50556" lon="1.72484">
        <ele>2484.9</ele>
        <time>2020-02-14T15:41:00.425Z</time>
      </trkpt>
      <trkpt lat="42.5056" lon="1.7248">
        <ele>2484.3</ele>
        <time>2020-02-14T15:41:02.807Z</time>
      </trkpt>
      <trkpt lat="42.50565" lon="1.72478">
        <ele>2484.2</ele>
        <time>2020-02-14T15:41:05.264Z</time>
      </trkpt>
      <trkpt lat="42.50569" lon="1.72475">
        <ele>2484</ele>
        <time>2020-02-14T15:41:07.735Z</time>
      </trkpt>
      <trkpt lat="42.50573" lon="1.72471">
        <ele>2483.2</ele>
        <time>2020-02-14T15:41:10.088Z</time>
      </trkpt>
      <trkpt lat="42.50578" lon="1.72468">
        <ele>2482.8</ele>
        <time>2020-02-14T15:41:12.830Z</time>
      </trkpt>
      <trkpt lat="42.50583" lon="1.72465">
        <ele>2482.4</ele>
        <time>2020-02-14T15:41:15.446Z</time>
      </trkpt>
      <trkpt lat="42.50587" lon="1.72461">
        <ele>2482</ele>
        <time>2020-02-14T15:41:17.876Z</time>
      </trkpt>
      <trkpt lat="42.50592" lon="1.72459">
        <ele>2481.9</ele>
        <time>2020-02-14T15:41:20.326Z</time>
      </trkpt>
      <trkpt lat="42.50596" lon="1.72458">
        <ele>2482.2</ele>
        <time>2020-02-14T15:41:22.562Z</time>
      </trkpt>
      <trkpt lat="42.50601" lon="1.72456">
        <ele>2482.2</ele>
        <time>2020-02-14T15:41:25.005Z</time>
      </trkpt>
      <trkpt lat="42.50606" lon="1.72455">
        <ele>2482.7</ele>
        <time>2020-02-14T15:41:27.601Z</time>
      </trkpt>
      <trkpt lat="42.50611" lon="1.72454">
        <ele>2483</ele>
        <time>2020-02-14T15:41:30.120Z</time>
      </trkpt>
      <trkpt lat="42.50616" lon="1.72451">
        <ele>2482.6</ele>
        <time>2020-02-14T15:41:32.716Z</time>
      </trkpt>
      <trkpt lat="42.5062" lon="1.72448">
        <ele>2482.5</ele>
        <time>2020-02-14T15:41:34.966Z</time>
      </trkpt>
      <trkpt lat="42.50625" lon="1.72446">
        <ele>2482.4</ele>
        <time>2020-02-14T15:41:37.603Z</time>
      </trkpt>
      <trkpt lat="42.5063" lon="1.72445">
        <ele>2482.7</ele>
        <time>2020-02-14T15:41:40.143Z</time>
      </trkpt>
      <trkpt lat="42.50635" lon="1.72444">
        <ele>2483.1</ele>
        <time>2020-02-14T15:41:42.441Z</time>
      </trkpt>
      <trkpt lat="42.50639" lon="1.72442">
        <ele>2483.1</ele>
        <time>2020-02-14T15:41:44.809Z</time>
      </trkpt>
      <trkpt lat="42.50644" lon="1.72436">
        <ele>2482</ele>
        <time>2020-02-14T15:41:47.896Z</time>
      </trkpt>
      <trkpt lat="42.50647" lon="1.72432">
        <ele>2481.3</ele>
        <time>2020-02-14T15:41:50.291Z</time>
      </trkpt>
      <trkpt lat="42.50652" lon="1.72429">
        <ele>2481.3</ele>
        <time>2020-02-14T15:41:52.631Z</time>
      </trkpt>
      <trkpt lat="42.50656" lon="1.72426">
        <ele>2480.8</ele>
        <time>2020-02-14T15:41:54.942Z</time>
      </trkpt>
      <trkpt lat="42.5066" lon="1.72424">
        <ele>2480.9</ele>
        <time>2020-02-14T15:41:57.330Z</time>
      </trkpt>
      <trkpt lat="42.50664" lon="1.72421">
        <ele>2480.6</ele>
        <time>2020-02-14T15:41:59.601Z</time>
      </trkpt>
      <trkpt lat="42.50669" lon="1.72418">
        <ele>2480.5</ele>
        <time>2020-02-14T15:42:01.982Z</time>
      </trkpt>
      <trkpt lat="42.50673" lon="1.72416">
        <ele>2480.5</ele>
        <time>2020-02-14T15:42:04.232Z</time>
      </trkpt>
      <trkpt lat="42.50677" lon="1.72413">
        <ele>2480.4</ele>
        <time>2020-02-14T15:42:06.613Z</time>
      </trkpt>
      <trkpt lat="42.50682" lon="1.72414">
        <ele>2481.3</ele>
        <time>2020-02-14T15:42:08.973Z</time>
      </trkpt>
      <trkpt lat="42.50686" lon="1.72412">
        <ele>2481.2</ele>
        <time>2020-02-14T15:42:11.278Z</time>
      </trkpt>
      <trkpt lat="42.50689" lon="1.72408">
        <ele>2480.5</ele>
        <time>2020-02-14T15:42:13.528Z</time>
      </trkpt>
      <trkpt lat="42.50692" lon="1.72403">
        <ele>2479.7</ele>
        <time>2020-02-14T15:42:15.867Z</time>
      </trkpt>
      <trkpt lat="42.50697" lon="1.72398">
        <ele>2479.2</ele>
        <time>2020-02-14T15:42:18.906Z</time>
      </trkpt>
      <trkpt lat="42.50701" lon="1.72393">
        <ele>2478.6</ele>
        <time>2020-02-14T15:42:21.488Z</time>
      </trkpt>
      <trkpt lat="42.50705" lon="1.72389">
        <ele>2478.1</ele>
        <time>2020-02-14T15:42:23.966Z</time>
      </trkpt>
      <trkpt lat="42.50707" lon="1.72383">
        <ele>2476.8</ele>
        <time>2020-02-14T15:42:26.264Z</time>
      </trkpt>
      <trkpt lat="42.50708" lon="1.72377">
        <ele>2475.5</ele>
        <time>2020-02-14T15:42:28.666Z</time>
      </trkpt>
      <trkpt lat="42.50706" lon="1.72372">
        <ele>2473.9</ele>
        <time>2020-02-14T15:42:31.033Z</time>
      </trkpt>
      <trkpt lat="42.50702" lon="1.72368">
        <ele>2472.6</ele>
        <time>2020-02-14T15:42:33.491Z</time>
      </trkpt>
      <trkpt lat="42.50698" lon="1.72364">
        <ele>2471</ele>
        <time>2020-02-14T15:42:36.031Z</time>
      </trkpt>
      <trkpt lat="42.50694" lon="1.72359">
        <ele>2469.3</ele>
        <time>2020-02-14T15:42:38.682Z</time>
      </trkpt>
      <trkpt lat="42.50693" lon="1.72353">
        <ele>2467.7</ele>
        <time>2020-02-14T15:42:41.257Z</time>
      </trkpt>
      <trkpt lat="42.50692" lon="1.72347">
        <ele>2466.2</ele>
        <time>2020-02-14T15:42:43.638Z</time>
      </trkpt>
      <trkpt lat="42.5069" lon="1.72341">
        <ele>2464.6</ele>
        <time>2020-02-14T15:42:46.095Z</time>
      </trkpt>
      <trkpt lat="42.50689" lon="1.72334">
        <ele>2462.9</ele>
        <time>2020-02-14T15:42:48.816Z</time>
      </trkpt>
      <trkpt lat="42.50686" lon="1.72329">
        <ele>2461.2</ele>
        <time>2020-02-14T15:42:51.370Z</time>
      </trkpt>
      <trkpt lat="42.50682" lon="1.72324">
        <ele>2459.4</ele>
        <time>2020-02-14T15:42:53.972Z</time>
      </trkpt>
      <trkpt lat="42.5068" lon="1.72318">
        <ele>2457.7</ele>
        <time>2020-02-14T15:42:56.340Z</time>
      </trkpt>
      <trkpt lat="42.5068" lon="1.72312">
        <ele>2456.3</ele>
        <time>2020-02-14T15:42:58.818Z</time>
      </trkpt>
      <trkpt lat="42.50685" lon="1.72309">
        <ele>2456.7</ele>
        <time>2020-02-14T15:43:01.483Z</time>
      </trkpt>
      <trkpt lat="42.5069" lon="1.72306">
        <ele>2457.1</ele>
        <time>2020-02-14T15:43:04.092Z</time>
      </trkpt>
      <trkpt lat="42.5069" lon="1.72299">
        <ele>2455.4</ele>
        <time>2020-02-14T15:43:06.840Z</time>
      </trkpt>
      <trkpt lat="42.50689" lon="1.72293">
        <ele>2453.8</ele>
        <time>2020-02-14T15:43:09.249Z</time>
      </trkpt>
      <trkpt lat="42.5069" lon="1.72286">
        <ele>2452.8</ele>
        <time>2020-02-14T15:43:11.603Z</time>
      </trkpt>
      <trkpt lat="42.50689" lon="1.72279">
        <ele>2451.4</ele>
        <time>2020-02-14T15:43:14.219Z</time>
      </trkpt>
      <trkpt lat="42.50684" lon="1.72276">
        <ele>2449.8</ele>
        <time>2020-02-14T15:43:16.815Z</time>
      </trkpt>
      <trkpt lat="42.5068" lon="1.72273">
        <ele>2448.2</ele>
        <time>2020-02-14T15:43:19.397Z</time>
      </trkpt>
      <trkpt lat="42.50675" lon="1.72271">
        <ele>2446.7</ele>
        <time>2020-02-14T15:43:21.972Z</time>
      </trkpt>
      <trkpt lat="42.5067" lon="1.7227">
        <ele>2445.2</ele>
        <time>2020-02-14T15:43:24.443Z</time>
      </trkpt>
      <trkpt lat="42.50665" lon="1.72272">
        <ele>2444.5</ele>
        <time>2020-02-14T15:43:26.803Z</time>
      </trkpt>
      <trkpt lat="42.50661" lon="1.72274">
        <ele>2443.7</ele>
        <time>2020-02-14T15:43:29.115Z</time>
      </trkpt>
      <trkpt lat="42.50657" lon="1.72277">
        <ele>2443.5</ele>
        <time>2020-02-14T15:43:31.489Z</time>
      </trkpt>
      <trkpt lat="42.50652" lon="1.7228">
        <ele>2443</ele>
        <time>2020-02-14T15:43:33.926Z</time>
      </trkpt>
      <trkpt lat="42.50648" lon="1.72284">
        <ele>2442.7</ele>
        <time>2020-02-14T15:43:36.293Z</time>
      </trkpt>
      <trkpt lat="42.50644" lon="1.72288">
        <ele>2442.7</ele>
        <time>2020-02-14T15:43:38.799Z</time>
      </trkpt>
      <trkpt lat="42.50642" lon="1.72293">
        <ele>2443.1</ele>
        <time>2020-02-14T15:43:41.111Z</time>
      </trkpt>
      <trkpt lat="42.50637" lon="1.72296">
        <ele>2443</ele>
        <time>2020-02-14T15:43:43.506Z</time>
      </trkpt>
      <trkpt lat="42.50634" lon="1.723">
        <ele>2443.3</ele>
        <time>2020-02-14T15:43:45.728Z</time>
      </trkpt>
      <trkpt lat="42.5063" lon="1.72303">
        <ele>2443.3</ele>
        <time>2020-02-14T15:43:48.123Z</time>
      </trkpt>
      <trkpt lat="42.50625" lon="1.72306">
        <ele>2442.9</ele>
        <time>2020-02-14T15:43:50.504Z</time>
      </trkpt>
      <trkpt lat="42.5062" lon="1.72308">
        <ele>2443</ele>
        <time>2020-02-14T15:43:52.982Z</time>
      </trkpt>
      <trkpt lat="42.50616" lon="1.7231">
        <ele>2442.6</ele>
        <time>2020-02-14T15:43:55.363Z</time>
      </trkpt>
      <trkpt lat="42.50611" lon="1.72312">
        <ele>2442.6</ele>
        <time>2020-02-14T15:43:57.889Z</time>
      </trkpt>
      <trkpt lat="42.50606" lon="1.72314">
        <ele>2442.4</ele>
        <time>2020-02-14T15:44:00.167Z</time>
      </trkpt>
      <trkpt lat="42.50602" lon="1.72315">
        <ele>2442</ele>
        <time>2020-02-14T15:44:02.513Z</time>
      </trkpt>
      <trkpt lat="42.50597" lon="1.72316">
        <ele>2441.5</ele>
        <time>2020-02-14T15:44:04.908Z</time>
      </trkpt>
      <trkpt lat="42.50593" lon="1.72318">
        <ele>2441.7</ele>
        <time>2020-02-14T15:44:07.186Z</time>
      </trkpt>
      <trkpt lat="42.50588" lon="1.72319">
        <ele>2441.4</ele>
        <time>2020-02-14T15:44:09.449Z</time>
      </trkpt>
      <trkpt lat="42.50582" lon="1.72319">
        <ele>2440.4</ele>
        <time>2020-02-14T15:44:12.398Z</time>
      </trkpt>
      <trkpt lat="42.50578" lon="1.7232">
        <ele>2440.1</ele>
        <time>2020-02-14T15:44:14.737Z</time>
      </trkpt>
      <trkpt lat="42.50573" lon="1.7232">
        <ele>2439.5</ele>
        <time>2020-02-14T15:44:17.022Z</time>
      </trkpt>
      <trkpt lat="42.50569" lon="1.72318">
        <ele>2438.2</ele>
        <time>2020-02-14T15:44:19.417Z</time>
      </trkpt>
      <trkpt lat="42.50564" lon="1.72318">
        <ele>2437.5</ele>
        <time>2020-02-14T15:44:21.798Z</time>
      </trkpt>
      <trkpt lat="42.50559" lon="1.72318">
        <ele>2436.8</ele>
        <time>2020-02-14T15:44:24.283Z</time>
      </trkpt>
      <trkpt lat="42.50554" lon="1.72318">
        <ele>2436</ele>
        <time>2020-02-14T15:44:26.636Z</time>
      </trkpt>
      <trkpt lat="42.50549" lon="1.72317">
        <ele>2435.1</ele>
        <time>2020-02-14T15:44:29.052Z</time>
      </trkpt>
      <trkpt lat="42.50545" lon="1.72315">
        <ele>2433.9</ele>
        <time>2020-02-14T15:44:31.419Z</time>
      </trkpt>
      <trkpt lat="42.5054" lon="1.72314">
        <ele>2433.1</ele>
        <time>2020-02-14T15:44:33.780Z</time>
      </trkpt>
      <trkpt lat="42.50535" lon="1.72312">
        <ele>2433.1</ele>
        <time>2020-02-14T15:44:36.320Z</time>
      </trkpt>
      <trkpt lat="42.50531" lon="1.72311">
        <ele>2432.7</ele>
        <time>2020-02-14T15:44:38.563Z</time>
      </trkpt>
      <trkpt lat="42.50526" lon="1.7231">
        <ele>2432.7</ele>
        <time>2020-02-14T15:44:40.840Z</time>
      </trkpt>
      <trkpt lat="42.50522" lon="1.7231">
        <ele>2432.7</ele>
        <time>2020-02-14T15:44:43.069Z</time>
      </trkpt>
      <trkpt lat="42.50522" lon="1.72303">
        <ele>2430.7</ele>
        <time>2020-02-14T15:44:45.692Z</time>
      </trkpt>
      <trkpt lat="42.50523" lon="1.72297">
        <ele>2428.9</ele>
        <time>2020-02-14T15:44:48.205Z</time>
      </trkpt>
      <trkpt lat="42.50527" lon="1.72293">
        <ele>2427.8</ele>
        <time>2020-02-14T15:44:50.724Z</time>
      </trkpt>
      <trkpt lat="42.50531" lon="1.7229">
        <ele>2427</ele>
        <time>2020-02-14T15:44:53.036Z</time>
      </trkpt>
      <trkpt lat="42.50535" lon="1.72288">
        <ele>2426.3</ele>
        <time>2020-02-14T15:44:55.307Z</time>
      </trkpt>
      <trkpt lat="42.5054" lon="1.72285">
        <ele>2425.5</ele>
        <time>2020-02-14T15:44:57.909Z</time>
      </trkpt>
      <trkpt lat="42.50545" lon="1.72285">
        <ele>2425.8</ele>
        <time>2020-02-14T15:45:00.339Z</time>
      </trkpt>
      <trkpt lat="42.5055" lon="1.72283">
        <ele>2426</ele>
        <time>2020-02-14T15:45:02.623Z</time>
      </trkpt>
      <trkpt lat="42.50552" lon="1.72277">
        <ele>2424.8</ele>
        <time>2020-02-14T15:45:05.080Z</time>
      </trkpt>
      <trkpt lat="42.50552" lon="1.7227">
        <ele>2423.2</ele>
        <time>2020-02-14T15:45:07.621Z</time>
      </trkpt>
      <trkpt lat="42.50548" lon="1.72267">
        <ele>2421.8</ele>
        <time>2020-02-14T15:45:09.926Z</time>
      </trkpt>
      <trkpt lat="42.50545" lon="1.72262">
        <ele>2420.1</ele>
        <time>2020-02-14T15:45:12.307Z</time>
      </trkpt>
      <trkpt lat="42.50542" lon="1.72257">
        <ele>2418.5</ele>
        <time>2020-02-14T15:45:14.847Z</time>
      </trkpt>
      <trkpt lat="42.50538" lon="1.72254">
        <ele>2417.4</ele>
        <time>2020-02-14T15:45:17.228Z</time>
      </trkpt>
      <trkpt lat="42.50534" lon="1.72252">
        <ele>2416.7</ele>
        <time>2020-02-14T15:45:19.568Z</time>
      </trkpt>
      <trkpt lat="42.50529" lon="1.72249">
        <ele>2415.7</ele>
        <time>2020-02-14T15:45:22.129Z</time>
      </trkpt>
      <trkpt lat="42.50525" lon="1.72245">
        <ele>2414.3</ele>
        <time>2020-02-14T15:45:24.711Z</time>
      </trkpt>
      <trkpt lat="42.5052" lon="1.72244">
        <ele>2413.6</ele>
        <time>2020-02-14T15:45:26.988Z</time>
      </trkpt>
      <trkpt lat="42.50516" lon="1.72243">
        <ele>2413.2</ele>
        <time>2020-02-14T15:45:29.273Z</time>
      </trkpt>
      <trkpt lat="42.50511" lon="1.72245">
        <ele>2413.7</ele>
        <time>2020-02-14T15:45:31.550Z</time>
      </trkpt>
      <trkpt lat="42.50507" lon="1.72241">
        <ele>2412.3</ele>
        <time>2020-02-14T15:45:34.166Z</time>
      </trkpt>
      <trkpt lat="42.50505" lon="1.72236">
        <ele>2410.2</ele>
        <time>2020-02-14T15:45:36.679Z</time>
      </trkpt>
      <trkpt lat="42.50508" lon="1.72231">
        <ele>2408.9</ele>
        <time>2020-02-14T15:45:39.102Z</time>
      </trkpt>
      <trkpt lat="42.50513" lon="1.72229">
        <ele>2409</ele>
        <time>2020-02-14T15:45:41.614Z</time>
      </trkpt>
      <trkpt lat="42.50518" lon="1.72228">
        <ele>2409</ele>
        <time>2020-02-14T15:45:43.912Z</time>
      </trkpt>
      <trkpt lat="42.50523" lon="1.72228">
        <ele>2409.4</ele>
        <time>2020-02-14T15:45:46.480Z</time>
      </trkpt>
      <trkpt lat="42.50526" lon="1.72223">
        <ele>2408.3</ele>
        <time>2020-02-14T15:45:48.785Z</time>
      </trkpt>
      <trkpt lat="42.50522" lon="1.72219">
        <ele>2406.8</ele>
        <time>2020-02-14T15:45:51.243Z</time>
      </trkpt>
      <trkpt lat="42.50518" lon="1.72216">
        <ele>2405.6</ele>
        <time>2020-02-14T15:45:53.541Z</time>
      </trkpt>
      <trkpt lat="42.50514" lon="1.72212">
        <ele>2403.9</ele>
        <time>2020-02-14T15:45:56.254Z</time>
      </trkpt>
      <trkpt lat="42.50509" lon="1.72209">
        <ele>2402.4</ele>
        <time>2020-02-14T15:45:58.739Z</time>
      </trkpt>
      <trkpt lat="42.50504" lon="1.72209">
        <ele>2401.8</ele>
        <time>2020-02-14T15:46:01.120Z</time>
      </trkpt>
      <trkpt lat="42.505" lon="1.72208">
        <ele>2401.1</ele>
        <time>2020-02-14T15:46:03.391Z</time>
      </trkpt>
      <trkpt lat="42.50496" lon="1.7221">
        <ele>2401</ele>
        <time>2020-02-14T15:46:05.654Z</time>
      </trkpt>
      <trkpt lat="42.50491" lon="1.72211">
        <ele>2400.9</ele>
        <time>2020-02-14T15:46:08.070Z</time>
      </trkpt>
      <trkpt lat="42.50486" lon="1.72209">
        <ele>2399.8</ele>
        <time>2020-02-14T15:46:10.506Z</time>
      </trkpt>
      <trkpt lat="42.50481" lon="1.72208">
        <ele>2398.7</ele>
        <time>2020-02-14T15:46:13.005Z</time>
      </trkpt>
      <trkpt lat="42.50477" lon="1.72207">
        <ele>2397.7</ele>
        <time>2020-02-14T15:46:15.303Z</time>
      </trkpt>
      <trkpt lat="42.50474" lon="1.72202">
        <ele>2396</ele>
        <time>2020-02-14T15:46:17.664Z</time>
      </trkpt>
      <trkpt lat="42.50471" lon="1.72196">
        <ele>2393.8</ele>
        <time>2020-02-14T15:46:20.280Z</time>
      </trkpt>
      <trkpt lat="42.50467" lon="1.72194">
        <ele>2392.5</ele>
        <time>2020-02-14T15:46:22.765Z</time>
      </trkpt>
      <trkpt lat="42.50462" lon="1.72191">
        <ele>2391.3</ele>
        <time>2020-02-14T15:46:25.229Z</time>
      </trkpt>
      <trkpt lat="42.50459" lon="1.72187">
        <ele>2389.5</ele>
        <time>2020-02-14T15:46:27.610Z</time>
      </trkpt>
      <trkpt lat="42.50454" lon="1.72185">
        <ele>2388</ele>
        <time>2020-02-14T15:46:30.102Z</time>
      </trkpt>
      <trkpt lat="42.50453" lon="1.72178">
        <ele>2385.8</ele>
        <time>2020-02-14T15:46:32.608Z</time>
      </trkpt>
      <trkpt lat="42.50456" lon="1.72173">
        <ele>2384.5</ele>
        <time>2020-02-14T15:46:35.128Z</time>
      </trkpt>
      <trkpt lat="42.5046" lon="1.72169">
        <ele>2383.8</ele>
        <time>2020-02-14T15:46:37.516Z</time>
      </trkpt>
      <trkpt lat="42.50462" lon="1.72163">
        <ele>2382.4</ele>
        <time>2020-02-14T15:46:39.945Z</time>
      </trkpt>
      <trkpt lat="42.50458" lon="1.72161">
        <ele>2381.3</ele>
        <time>2020-02-14T15:46:42.250Z</time>
      </trkpt>
      <trkpt lat="42.50454" lon="1.7216">
        <ele>2380</ele>
        <time>2020-02-14T15:46:44.562Z</time>
      </trkpt>
      <trkpt lat="42.50449" lon="1.72158">
        <ele>2378.2</ele>
        <time>2020-02-14T15:46:46.971Z</time>
      </trkpt>
      <trkpt lat="42.50446" lon="1.72153">
        <ele>2376.2</ele>
        <time>2020-02-14T15:46:49.401Z</time>
      </trkpt>
      <trkpt lat="42.50442" lon="1.72149">
        <ele>2373.8</ele>
        <time>2020-02-14T15:46:52.079Z</time>
      </trkpt>
      <trkpt lat="42.50438" lon="1.72147">
        <ele>2372.3</ele>
        <time>2020-02-14T15:46:54.454Z</time>
      </trkpt>
      <trkpt lat="42.50433" lon="1.72147">
        <ele>2371.2</ele>
        <time>2020-02-14T15:46:56.779Z</time>
      </trkpt>
      <trkpt lat="42.50428" lon="1.72148">
        <ele>2370.4</ele>
        <time>2020-02-14T15:46:59.334Z</time>
      </trkpt>
      <trkpt lat="42.50424" lon="1.72148">
        <ele>2369.4</ele>
        <time>2020-02-14T15:47:01.639Z</time>
      </trkpt>
      <trkpt lat="42.50419" lon="1.7215">
        <ele>2369</ele>
        <time>2020-02-14T15:47:04.040Z</time>
      </trkpt>
      <trkpt lat="42.50417" lon="1.72144">
        <ele>2366.4</ele>
        <time>2020-02-14T15:47:06.636Z</time>
      </trkpt>
      <trkpt lat="42.50413" lon="1.72141">
        <ele>2364.4</ele>
        <time>2020-02-14T15:47:09.080Z</time>
      </trkpt>
      <trkpt lat="42.50408" lon="1.7214">
        <ele>2363</ele>
        <time>2020-02-14T15:47:11.475Z</time>
      </trkpt>
      <trkpt lat="42.50403" lon="1.72141">
        <ele>2362</ele>
        <time>2020-02-14T15:47:13.987Z</time>
      </trkpt>
      <trkpt lat="42.50398" lon="1.7214">
        <ele>2360.6</ele>
        <time>2020-02-14T15:47:16.348Z</time>
      </trkpt>
      <trkpt lat="42.50398" lon="1.72134">
        <ele>2358.3</ele>
        <time>2020-02-14T15:47:18.833Z</time>
      </trkpt>
      <trkpt lat="42.50402" lon="1.7213">
        <ele>2357.8</ele>
        <time>2020-02-14T15:47:21.200Z</time>
      </trkpt>
      <trkpt lat="42.50406" lon="1.72126">
        <ele>2357.3</ele>
        <time>2020-02-14T15:47:23.498Z</time>
      </trkpt>
      <trkpt lat="42.50409" lon="1.72121">
        <ele>2356.4</ele>
        <time>2020-02-14T15:47:25.838Z</time>
      </trkpt>
      <trkpt lat="42.50411" lon="1.72116">
        <ele>2355.7</ele>
        <time>2020-02-14T15:47:28.059Z</time>
      </trkpt>
      <trkpt lat="42.50413" lon="1.7211">
        <ele>2354.5</ele>
        <time>2020-02-14T15:47:30.448Z</time>
      </trkpt>
      <trkpt lat="42.50416" lon="1.72105">
        <ele>2353.4</ele>
        <time>2020-02-14T15:47:32.711Z</time>
      </trkpt>
      <trkpt lat="42.50418" lon="1.72099">
        <ele>2352</ele>
        <time>2020-02-14T15:47:35.445Z</time>
      </trkpt>
      <trkpt lat="42.5042" lon="1.72093">
        <ele>2350.8</ele>
        <time>2020-02-14T15:47:37.937Z</time>
      </trkpt>
      <trkpt lat="42.50423" lon="1.72087">
        <ele>2349.5</ele>
        <time>2020-02-14T15:47:40.616Z</time>
      </trkpt>
      <trkpt lat="42.50426" lon="1.72082">
        <ele>2348.8</ele>
        <time>2020-02-14T15:47:42.859Z</time>
      </trkpt>
      <trkpt lat="42.50428" lon="1.72076">
        <ele>2347.1</ele>
        <time>2020-02-14T15:47:45.371Z</time>
      </trkpt>
      <trkpt lat="42.50423" lon="1.72075">
        <ele>2346.1</ele>
        <time>2020-02-14T15:47:47.635Z</time>
      </trkpt>
      <trkpt lat="42.50419" lon="1.72076">
        <ele>2345.4</ele>
        <time>2020-02-14T15:47:50.071Z</time>
      </trkpt>
      <trkpt lat="42.50414" lon="1.72079">
        <ele>2345.6</ele>
        <time>2020-02-14T15:47:52.466Z</time>
      </trkpt>
      <trkpt lat="42.5041" lon="1.7208">
        <ele>2345.1</ele>
        <time>2020-02-14T15:47:54.792Z</time>
      </trkpt>
      <trkpt lat="42.50405" lon="1.72082">
        <ele>2344.7</ele>
        <time>2020-02-14T15:47:57.173Z</time>
      </trkpt>
      <trkpt lat="42.50401" lon="1.72081">
        <ele>2343.7</ele>
        <time>2020-02-14T15:47:59.388Z</time>
      </trkpt>
      <trkpt lat="42.50396" lon="1.7208">
        <ele>2342.4</ele>
        <time>2020-02-14T15:48:01.935Z</time>
      </trkpt>
      <trkpt lat="42.50391" lon="1.72078">
        <ele>2341</ele>
        <time>2020-02-14T15:48:04.517Z</time>
      </trkpt>
      <trkpt lat="42.50386" lon="1.72077">
        <ele>2340.2</ele>
        <time>2020-02-14T15:48:07.009Z</time>
      </trkpt>
      <trkpt lat="42.50381" lon="1.72079">
        <ele>2339.8</ele>
        <time>2020-02-14T15:48:09.286Z</time>
      </trkpt>
      <trkpt lat="42.50377" lon="1.72079">
        <ele>2338.9</ele>
        <time>2020-02-14T15:48:11.640Z</time>
      </trkpt>
      <trkpt lat="42.50372" lon="1.72081">
        <ele>2338.2</ele>
        <time>2020-02-14T15:48:13.931Z</time>
      </trkpt>
      <trkpt lat="42.50367" lon="1.72082">
        <ele>2337.3</ele>
        <time>2020-02-14T15:48:16.354Z</time>
      </trkpt>
      <trkpt lat="42.50363" lon="1.72082">
        <ele>2336.2</ele>
        <time>2020-02-14T15:48:18.762Z</time>
      </trkpt>
      <trkpt lat="42.50358" lon="1.7208">
        <ele>2334.8</ele>
        <time>2020-02-14T15:48:21.067Z</time>
      </trkpt>
      <trkpt lat="42.50353" lon="1.72082">
        <ele>2334.1</ele>
        <time>2020-02-14T15:48:23.573Z</time>
      </trkpt>
      <trkpt lat="42.50349" lon="1.72084">
        <ele>2333.5</ele>
        <time>2020-02-14T15:48:25.767Z</time>
      </trkpt>
      <trkpt lat="42.50344" lon="1.72085">
        <ele>2332.5</ele>
        <time>2020-02-14T15:48:28.259Z</time>
      </trkpt>
      <trkpt lat="42.5034" lon="1.72084">
        <ele>2331.1</ele>
        <time>2020-02-14T15:48:30.620Z</time>
      </trkpt>
      <trkpt lat="42.50335" lon="1.72084">
        <ele>2330.1</ele>
        <time>2020-02-14T15:48:32.973Z</time>
      </trkpt>
      <trkpt lat="42.50331" lon="1.72086">
        <ele>2329.4</ele>
        <time>2020-02-14T15:48:35.237Z</time>
      </trkpt>
      <trkpt lat="42.50326" lon="1.72085">
        <ele>2328</ele>
        <time>2020-02-14T15:48:37.680Z</time>
      </trkpt>
      <trkpt lat="42.50321" lon="1.72084">
        <ele>2326.8</ele>
        <time>2020-02-14T15:48:40.013Z</time>
      </trkpt>
      <trkpt lat="42.50317" lon="1.72087">
        <ele>2326.3</ele>
        <time>2020-02-14T15:48:42.546Z</time>
      </trkpt>
      <trkpt lat="42.50312" lon="1.72085">
        <ele>2324.7</ele>
        <time>2020-02-14T15:48:45.066Z</time>
      </trkpt>
      <trkpt lat="42.50307" lon="1.72087">
        <ele>2324.1</ele>
        <time>2020-02-14T15:48:47.302Z</time>
      </trkpt>
      <trkpt lat="42.50303" lon="1.72084">
        <ele>2322.4</ele>
        <time>2020-02-14T15:48:49.939Z</time>
      </trkpt>
      <trkpt lat="42.50302" lon="1.72077">
        <ele>2321</ele>
        <time>2020-02-14T15:48:52.382Z</time>
      </trkpt>
      <trkpt lat="42.50298" lon="1.72078">
        <ele>2319.8</ele>
        <time>2020-02-14T15:48:54.701Z</time>
      </trkpt>
      <trkpt lat="42.50293" lon="1.72079">
        <ele>2319</ele>
        <time>2020-02-14T15:48:56.992Z</time>
      </trkpt>
      <trkpt lat="42.50288" lon="1.72079">
        <ele>2318.3</ele>
        <time>2020-02-14T15:48:59.380Z</time>
      </trkpt>
      <trkpt lat="42.50283" lon="1.72079">
        <ele>2317.7</ele>
        <time>2020-02-14T15:49:01.858Z</time>
      </trkpt>
      <trkpt lat="42.50278" lon="1.72081">
        <ele>2317.5</ele>
        <time>2020-02-14T15:49:04.288Z</time>
      </trkpt>
      <trkpt lat="42.50273" lon="1.7208">
        <ele>2316.6</ele>
        <time>2020-02-14T15:49:06.897Z</time>
      </trkpt>
      <trkpt lat="42.50268" lon="1.7208">
        <ele>2316.1</ele>
        <time>2020-02-14T15:49:09.320Z</time>
      </trkpt>
      <trkpt lat="42.50264" lon="1.72083">
        <ele>2315.9</ele>
        <time>2020-02-14T15:49:11.736Z</time>
      </trkpt>
      <trkpt lat="42.50262" lon="1.72089">
        <ele>2316.9</ele>
        <time>2020-02-14T15:49:14.269Z</time>
      </trkpt>
      <trkpt lat="42.50258" lon="1.72092">
        <ele>2317</ele>
        <time>2020-02-14T15:49:16.623Z</time>
      </trkpt>
      <trkpt lat="42.50253" lon="1.72095">
        <ele>2316.8</ele>
        <time>2020-02-14T15:49:18.900Z</time>
      </trkpt>
      <trkpt lat="42.50248" lon="1.72095">
        <ele>2316.4</ele>
        <time>2020-02-14T15:49:21.323Z</time>
      </trkpt>
      <trkpt lat="42.50243" lon="1.72094">
        <ele>2315.6</ele>
        <time>2020-02-14T15:49:23.835Z</time>
      </trkpt>
      <trkpt lat="42.50238" lon="1.72093">
        <ele>2314.7</ele>
        <time>2020-02-14T15:49:26.362Z</time>
      </trkpt>
      <trkpt lat="42.50234" lon="1.72093">
        <ele>2313.9</ele>
        <time>2020-02-14T15:49:28.812Z</time>
      </trkpt>
      <trkpt lat="42.50228" lon="1.72093">
        <ele>2313.4</ele>
        <time>2020-02-14T15:49:31.443Z</time>
      </trkpt>
      <trkpt lat="42.50224" lon="1.72093">
        <ele>2312.8</ele>
        <time>2020-02-14T15:49:33.782Z</time>
      </trkpt>
      <trkpt lat="42.50219" lon="1.72092">
        <ele>2312.1</ele>
        <time>2020-02-14T15:49:36.066Z</time>
      </trkpt>
      <trkpt lat="42.50214" lon="1.72093">
        <ele>2311.5</ele>
        <time>2020-02-14T15:49:38.344Z</time>
      </trkpt>
      <trkpt lat="42.5021" lon="1.7209">
        <ele>2310.4</ele>
        <time>2020-02-14T15:49:40.877Z</time>
      </trkpt>
      <trkpt lat="42.50205" lon="1.72088">
        <ele>2309.7</ele>
        <time>2020-02-14T15:49:43.141Z</time>
      </trkpt>
      <trkpt lat="42.50201" lon="1.72085">
        <ele>2308.7</ele>
        <time>2020-02-14T15:49:45.536Z</time>
      </trkpt>
      <trkpt lat="42.50196" lon="1.72084">
        <ele>2308.2</ele>
        <time>2020-02-14T15:49:47.854Z</time>
      </trkpt>
      <trkpt lat="42.5019" lon="1.72088">
        <ele>2312.3</ele>
        <time>2020-02-14T15:49:51.924Z</time>
      </trkpt>
      <trkpt lat="42.5019" lon="1.72088">
        <ele>2312.4</ele>
        <time>2020-02-14T15:49:52.035Z</time>
      </trkpt>
      <trkpt lat="42.50182" lon="1.72089">
        <ele>2310.8</ele>
        <time>2020-02-14T15:49:55.849Z</time>
      </trkpt>
      <trkpt lat="42.50177" lon="1.72091">
        <ele>2310.9</ele>
        <time>2020-02-14T15:49:58.466Z</time>
      </trkpt>
      <trkpt lat="42.50173" lon="1.72095">
        <ele>2311.2</ele>
        <time>2020-02-14T15:50:00.951Z</time>
      </trkpt>
      <trkpt lat="42.50168" lon="1.72095">
        <ele>2310.9</ele>
        <time>2020-02-14T15:50:03.567Z</time>
      </trkpt>
      <trkpt lat="42.50163" lon="1.72092">
        <ele>2310</ele>
        <time>2020-02-14T15:50:05.851Z</time>
      </trkpt>
      <trkpt lat="42.50159" lon="1.7209">
        <ele>2309.5</ele>
        <time>2020-02-14T15:50:08.385Z</time>
      </trkpt>
      <trkpt lat="42.50154" lon="1.72087">
        <ele>2308.2</ele>
        <time>2020-02-14T15:50:10.974Z</time>
      </trkpt>
      <trkpt lat="42.50148" lon="1.72086">
        <ele>2308</ele>
        <time>2020-02-14T15:50:13.756Z</time>
      </trkpt>
      <trkpt lat="42.50144" lon="1.72084">
        <ele>2307.7</ele>
        <time>2020-02-14T15:50:16.255Z</time>
      </trkpt>
      <trkpt lat="42.50139" lon="1.72083">
        <ele>2307.6</ele>
        <time>2020-02-14T15:50:18.581Z</time>
      </trkpt>
      <trkpt lat="42.50134" lon="1.72081">
        <ele>2307.2</ele>
        <time>2020-02-14T15:50:21.156Z</time>
      </trkpt>
      <trkpt lat="42.50129" lon="1.7208">
        <ele>2307</ele>
        <time>2020-02-14T15:50:23.696Z</time>
      </trkpt>
      <trkpt lat="42.50124" lon="1.7208">
        <ele>2307</ele>
        <time>2020-02-14T15:50:26.167Z</time>
      </trkpt>
      <trkpt lat="42.50119" lon="1.72079">
        <ele>2306.5</ele>
        <time>2020-02-14T15:50:28.445Z</time>
      </trkpt>
      <trkpt lat="42.50114" lon="1.72076">
        <ele>2305.5</ele>
        <time>2020-02-14T15:50:31.248Z</time>
      </trkpt>
      <trkpt lat="42.50109" lon="1.72075">
        <ele>2305.1</ele>
        <time>2020-02-14T15:50:33.567Z</time>
      </trkpt>
      <trkpt lat="42.50104" lon="1.72073">
        <ele>2304.7</ele>
        <time>2020-02-14T15:50:36.446Z</time>
      </trkpt>
      <trkpt lat="42.50099" lon="1.72071">
        <ele>2303.9</ele>
        <time>2020-02-14T15:50:38.772Z</time>
      </trkpt>
      <trkpt lat="42.50094" lon="1.7207">
        <ele>2303.3</ele>
        <time>2020-02-14T15:50:41.555Z</time>
      </trkpt>
      <trkpt lat="42.50089" lon="1.72068">
        <ele>2302.9</ele>
        <time>2020-02-14T15:50:44.157Z</time>
      </trkpt>
      <trkpt lat="42.50084" lon="1.72066">
        <ele>2303.1</ele>
        <time>2020-02-14T15:50:46.608Z</time>
      </trkpt>
      <trkpt lat="42.50078" lon="1.72066">
        <ele>2303.2</ele>
        <time>2020-02-14T15:50:49.383Z</time>
      </trkpt>
      <trkpt lat="42.50074" lon="1.72065">
        <ele>2302.7</ele>
        <time>2020-02-14T15:50:51.612Z</time>
      </trkpt>
      <trkpt lat="42.50069" lon="1.72062">
        <ele>2301.9</ele>
        <time>2020-02-14T15:50:54.125Z</time>
      </trkpt>
      <trkpt lat="42.50064" lon="1.72061">
        <ele>2301.5</ele>
        <time>2020-02-14T15:50:56.651Z</time>
      </trkpt>
      <trkpt lat="42.50059" lon="1.72059">
        <ele>2301.2</ele>
        <time>2020-02-14T15:50:59.295Z</time>
      </trkpt>
      <trkpt lat="42.50054" lon="1.72057">
        <ele>2300.8</ele>
        <time>2020-02-14T15:51:01.940Z</time>
      </trkpt>
      <trkpt lat="42.50049" lon="1.72055">
        <ele>2300.5</ele>
        <time>2020-02-14T15:51:04.258Z</time>
      </trkpt>
      <trkpt lat="42.50044" lon="1.72053">
        <ele>2300.1</ele>
        <time>2020-02-14T15:51:07.013Z</time>
      </trkpt>
      <trkpt lat="42.50039" lon="1.72051">
        <ele>2299.8</ele>
        <time>2020-02-14T15:51:09.706Z</time>
      </trkpt>
      <trkpt lat="42.50034" lon="1.72049">
        <ele>2299.4</ele>
        <time>2020-02-14T15:51:12.226Z</time>
      </trkpt>
      <trkpt lat="42.50029" lon="1.72046">
        <ele>2299</ele>
        <time>2020-02-14T15:51:14.683Z</time>
      </trkpt>
      <trkpt lat="42.50024" lon="1.72043">
        <ele>2298.5</ele>
        <time>2020-02-14T15:51:17.355Z</time>
      </trkpt>
      <trkpt lat="42.5002" lon="1.7204">
        <ele>2298.1</ele>
        <time>2020-02-14T15:51:19.812Z</time>
      </trkpt>
      <trkpt lat="42.50015" lon="1.72038">
        <ele>2297.7</ele>
        <time>2020-02-14T15:51:22.435Z</time>
      </trkpt>
      <trkpt lat="42.5001" lon="1.72036">
        <ele>2297.3</ele>
        <time>2020-02-14T15:51:24.789Z</time>
      </trkpt>
      <trkpt lat="42.50006" lon="1.72034">
        <ele>2296.3</ele>
        <time>2020-02-14T15:51:27.295Z</time>
      </trkpt>
      <trkpt lat="42.5" lon="1.72032">
        <ele>2295.6</ele>
        <time>2020-02-14T15:51:29.863Z</time>
      </trkpt>
      <trkpt lat="42.49996" lon="1.72032">
        <ele>2295.5</ele>
        <time>2020-02-14T15:51:32.188Z</time>
      </trkpt>
      <trkpt lat="42.49991" lon="1.7203">
        <ele>2295.3</ele>
        <time>2020-02-14T15:51:34.743Z</time>
      </trkpt>
      <trkpt lat="42.49986" lon="1.72028">
        <ele>2294.1</ele>
        <time>2020-02-14T15:51:37.352Z</time>
      </trkpt>
      <trkpt lat="42.49982" lon="1.72024">
        <ele>2293.5</ele>
        <time>2020-02-14T15:51:39.699Z</time>
      </trkpt>
      <trkpt lat="42.49978" lon="1.72019">
        <ele>2291.7</ele>
        <time>2020-02-14T15:51:42.405Z</time>
      </trkpt>
      <trkpt lat="42.49974" lon="1.72015">
        <ele>2291.2</ele>
        <time>2020-02-14T15:51:44.952Z</time>
      </trkpt>
      <trkpt lat="42.49969" lon="1.72013">
        <ele>2290.9</ele>
        <time>2020-02-14T15:51:47.617Z</time>
      </trkpt>
      <trkpt lat="42.49964" lon="1.72012">
        <ele>2290.4</ele>
        <time>2020-02-14T15:51:49.929Z</time>
      </trkpt>
      <trkpt lat="42.49959" lon="1.72012">
        <ele>2290.2</ele>
        <time>2020-02-14T15:51:52.560Z</time>
      </trkpt>
      <trkpt lat="42.49954" lon="1.72013">
        <ele>2290.6</ele>
        <time>2020-02-14T15:51:54.816Z</time>
      </trkpt>
      <trkpt lat="42.4995" lon="1.72012">
        <ele>2290.9</ele>
        <time>2020-02-14T15:51:57.052Z</time>
      </trkpt>
      <trkpt lat="42.49945" lon="1.7201">
        <ele>2289.8</ele>
        <time>2020-02-14T15:51:59.627Z</time>
      </trkpt>
      <trkpt lat="42.49941" lon="1.72008">
        <ele>2289.3</ele>
        <time>2020-02-14T15:52:01.883Z</time>
      </trkpt>
      <trkpt lat="42.49936" lon="1.72005">
        <ele>2289.1</ele>
        <time>2020-02-14T15:52:04.188Z</time>
      </trkpt>
      <trkpt lat="42.49932" lon="1.72004">
        <ele>2288.7</ele>
        <time>2020-02-14T15:52:06.542Z</time>
      </trkpt>
      <trkpt lat="42.49927" lon="1.72001">
        <ele>2288.4</ele>
        <time>2020-02-14T15:52:08.875Z</time>
      </trkpt>
      <trkpt lat="42.49922" lon="1.71998">
        <ele>2287.9</ele>
        <time>2020-02-14T15:52:11.609Z</time>
      </trkpt>
      <trkpt lat="42.49918" lon="1.71995">
        <ele>2287.1</ele>
        <time>2020-02-14T15:52:14.066Z</time>
      </trkpt>
      <trkpt lat="42.49913" lon="1.71992">
        <ele>2286</ele>
        <time>2020-02-14T15:52:16.856Z</time>
      </trkpt>
      <trkpt lat="42.49911" lon="1.71987">
        <ele>2285.4</ele>
        <time>2020-02-14T15:52:19.140Z</time>
      </trkpt>
      <trkpt lat="42.49907" lon="1.71982">
        <ele>2284.1</ele>
        <time>2020-02-14T15:52:21.659Z</time>
      </trkpt>
      <trkpt lat="42.49902" lon="1.7198">
        <ele>2283.6</ele>
        <time>2020-02-14T15:52:23.957Z</time>
      </trkpt>
      <trkpt lat="42.49898" lon="1.71977">
        <ele>2282.8</ele>
        <time>2020-02-14T15:52:26.539Z</time>
      </trkpt>
      <trkpt lat="42.49893" lon="1.71974">
        <ele>2281.9</ele>
        <time>2020-02-14T15:52:29.073Z</time>
      </trkpt>
      <trkpt lat="42.49889" lon="1.71972">
        <ele>2281.3</ele>
        <time>2020-02-14T15:52:31.371Z</time>
      </trkpt>
      <trkpt lat="42.49884" lon="1.71971">
        <ele>2281.1</ele>
        <time>2020-02-14T15:52:33.641Z</time>
      </trkpt>
      <trkpt lat="42.4988" lon="1.71967">
        <ele>2280.6</ele>
        <time>2020-02-14T15:52:36.320Z</time>
      </trkpt>
      <trkpt lat="42.49877" lon="1.71962">
        <ele>2281.1</ele>
        <time>2020-02-14T15:52:38.597Z</time>
      </trkpt>
      <trkpt lat="42.49873" lon="1.71957">
        <ele>2280.8</ele>
        <time>2020-02-14T15:52:41.241Z</time>
      </trkpt>
      <trkpt lat="42.49869" lon="1.71953">
        <ele>2280.6</ele>
        <time>2020-02-14T15:52:43.505Z</time>
      </trkpt>
      <trkpt lat="42.49867" lon="1.71947">
        <ele>2280.2</ele>
        <time>2020-02-14T15:52:45.810Z</time>
      </trkpt>
      <trkpt lat="42.49866" lon="1.71941">
        <ele>2280.1</ele>
        <time>2020-02-14T15:52:48.260Z</time>
      </trkpt>
      <trkpt lat="42.49866" lon="1.71934">
        <ele>2279.4</ele>
        <time>2020-02-14T15:52:50.662Z</time>
      </trkpt>
      <trkpt lat="42.49863" lon="1.71929">
        <ele>2279.2</ele>
        <time>2020-02-14T15:52:53.099Z</time>
      </trkpt>
      <trkpt lat="42.49859" lon="1.71924">
        <ele>2279</ele>
        <time>2020-02-14T15:52:55.667Z</time>
      </trkpt>
      <trkpt lat="42.49857" lon="1.71917">
        <ele>2278.2</ele>
        <time>2020-02-14T15:52:58.152Z</time>
      </trkpt>
      <trkpt lat="42.49854" lon="1.71912">
        <ele>2277.5</ele>
        <time>2020-02-14T15:53:00.540Z</time>
      </trkpt>
      <trkpt lat="42.4985" lon="1.71908">
        <ele>2276.8</ele>
        <time>2020-02-14T15:53:03.052Z</time>
      </trkpt>
      <trkpt lat="42.49846" lon="1.71904">
        <ele>2276</ele>
        <time>2020-02-14T15:53:05.523Z</time>
      </trkpt>
      <trkpt lat="42.49844" lon="1.71899">
        <ele>2275.2</ele>
        <time>2020-02-14T15:53:07.780Z</time>
      </trkpt>
      <trkpt lat="42.49839" lon="1.71898">
        <ele>2274.8</ele>
        <time>2020-02-14T15:53:10.133Z</time>
      </trkpt>
      <trkpt lat="42.49834" lon="1.71894">
        <ele>2274</ele>
        <time>2020-02-14T15:53:12.833Z</time>
      </trkpt>
      <trkpt lat="42.4983" lon="1.71892">
        <ele>2274</ele>
        <time>2020-02-14T15:53:15.235Z</time>
      </trkpt>
      <trkpt lat="42.49824" lon="1.71891">
        <ele>2273.8</ele>
        <time>2020-02-14T15:53:18.087Z</time>
      </trkpt>
      <trkpt lat="42.49819" lon="1.71887">
        <ele>2273.1</ele>
        <time>2020-02-14T15:53:20.731Z</time>
      </trkpt>
      <trkpt lat="42.49816" lon="1.71881">
        <ele>2272.2</ele>
        <time>2020-02-14T15:53:23.334Z</time>
      </trkpt>
      <trkpt lat="42.49812" lon="1.71878">
        <ele>2271.7</ele>
        <time>2020-02-14T15:53:25.922Z</time>
      </trkpt>
      <trkpt lat="42.49807" lon="1.71876">
        <ele>2271.2</ele>
        <time>2020-02-14T15:53:28.477Z</time>
      </trkpt>
      <trkpt lat="42.49802" lon="1.71874">
        <ele>2270.9</ele>
        <time>2020-02-14T15:53:31.141Z</time>
      </trkpt>
      <trkpt lat="42.49797" lon="1.71872">
        <ele>2270.1</ele>
        <time>2020-02-14T15:53:33.626Z</time>
      </trkpt>
      <trkpt lat="42.49793" lon="1.71868">
        <ele>2268.6</ele>
        <time>2020-02-14T15:53:36.091Z</time>
      </trkpt>
      <trkpt lat="42.49788" lon="1.71864">
        <ele>2267</ele>
        <time>2020-02-14T15:53:38.942Z</time>
      </trkpt>
      <trkpt lat="42.49786" lon="1.71858">
        <ele>2265.5</ele>
        <time>2020-02-14T15:53:41.421Z</time>
      </trkpt>
      <trkpt lat="42.49785" lon="1.71852">
        <ele>2264.3</ele>
        <time>2020-02-14T15:53:43.719Z</time>
      </trkpt>
      <trkpt lat="42.49785" lon="1.71845">
        <ele>2264</ele>
        <time>2020-02-14T15:53:46.162Z</time>
      </trkpt>
      <trkpt lat="42.49782" lon="1.71841">
        <ele>2263.7</ele>
        <time>2020-02-14T15:53:48.412Z</time>
      </trkpt>
      <trkpt lat="42.49777" lon="1.71839">
        <ele>2263</ele>
        <time>2020-02-14T15:53:51.000Z</time>
      </trkpt>
      <trkpt lat="42.49772" lon="1.71836">
        <ele>2262.2</ele>
        <time>2020-02-14T15:53:53.485Z</time>
      </trkpt>
      <trkpt lat="42.49767" lon="1.71835">
        <ele>2261.1</ele>
        <time>2020-02-14T15:53:55.825Z</time>
      </trkpt>
      <trkpt lat="42.49763" lon="1.71831">
        <ele>2259.9</ele>
        <time>2020-02-14T15:53:58.421Z</time>
      </trkpt>
      <trkpt lat="42.49759" lon="1.71827">
        <ele>2259</ele>
        <time>2020-02-14T15:54:00.926Z</time>
      </trkpt>
      <trkpt lat="42.49755" lon="1.71824">
        <ele>2258.6</ele>
        <time>2020-02-14T15:54:03.328Z</time>
      </trkpt>
      <trkpt lat="42.49751" lon="1.7182">
        <ele>2257.9</ele>
        <time>2020-02-14T15:54:05.564Z</time>
      </trkpt>
      <trkpt lat="42.49747" lon="1.71816">
        <ele>2257.3</ele>
        <time>2020-02-14T15:54:07.945Z</time>
      </trkpt>
      <trkpt lat="42.49743" lon="1.71814">
        <ele>2256.9</ele>
        <time>2020-02-14T15:54:10.230Z</time>
      </trkpt>
      <trkpt lat="42.4974" lon="1.71809">
        <ele>2257.1</ele>
        <time>2020-02-14T15:54:12.694Z</time>
      </trkpt>
      <trkpt lat="42.49735" lon="1.71806">
        <ele>2256.5</ele>
        <time>2020-02-14T15:54:15.103Z</time>
      </trkpt>
      <trkpt lat="42.49731" lon="1.71802">
        <ele>2255.9</ele>
        <time>2020-02-14T15:54:17.684Z</time>
      </trkpt>
      <trkpt lat="42.49726" lon="1.718">
        <ele>2255.1</ele>
        <time>2020-02-14T15:54:20.100Z</time>
      </trkpt>
      <trkpt lat="42.49721" lon="1.718">
        <ele>2254</ele>
        <time>2020-02-14T15:54:22.467Z</time>
      </trkpt>
      <trkpt lat="42.49717" lon="1.71799">
        <ele>2254</ele>
        <time>2020-02-14T15:54:24.835Z</time>
      </trkpt>
      <trkpt lat="42.49712" lon="1.71797">
        <ele>2252.9</ele>
        <time>2020-02-14T15:54:27.264Z</time>
      </trkpt>
      <trkpt lat="42.49707" lon="1.71795">
        <ele>2251.8</ele>
        <time>2020-02-14T15:54:29.805Z</time>
      </trkpt>
      <trkpt lat="42.49703" lon="1.71791">
        <ele>2251</ele>
        <time>2020-02-14T15:54:32.421Z</time>
      </trkpt>
      <trkpt lat="42.49699" lon="1.71787">
        <ele>2250.8</ele>
        <time>2020-02-14T15:54:34.733Z</time>
      </trkpt>
      <trkpt lat="42.49695" lon="1.71785">
        <ele>2250.1</ele>
        <time>2020-02-14T15:54:37.024Z</time>
      </trkpt>
      <trkpt lat="42.49689" lon="1.71786">
        <ele>2248.8</ele>
        <time>2020-02-14T15:54:39.841Z</time>
      </trkpt>
      <trkpt lat="42.49684" lon="1.71786">
        <ele>2247.4</ele>
        <time>2020-02-14T15:54:42.430Z</time>
      </trkpt>
      <trkpt lat="42.4968" lon="1.71784">
        <ele>2246.1</ele>
        <time>2020-02-14T15:54:44.708Z</time>
      </trkpt>
      <trkpt lat="42.49675" lon="1.71782">
        <ele>2244.8</ele>
        <time>2020-02-14T15:54:47.172Z</time>
      </trkpt>
      <trkpt lat="42.4967" lon="1.7178">
        <ele>2243.3</ele>
        <time>2020-02-14T15:54:49.761Z</time>
      </trkpt>
      <trkpt lat="42.49665" lon="1.71778">
        <ele>2242</ele>
        <time>2020-02-14T15:54:52.342Z</time>
      </trkpt>
      <trkpt lat="42.4966" lon="1.71777">
        <ele>2241.1</ele>
        <time>2020-02-14T15:54:54.793Z</time>
      </trkpt>
      <trkpt lat="42.49655" lon="1.71776">
        <ele>2240.3</ele>
        <time>2020-02-14T15:54:57.437Z</time>
      </trkpt>
      <trkpt lat="42.4965" lon="1.71775">
        <ele>2240.2</ele>
        <time>2020-02-14T15:54:59.957Z</time>
      </trkpt>
      <trkpt lat="42.49645" lon="1.71775">
        <ele>2240.2</ele>
        <time>2020-02-14T15:55:02.518Z</time>
      </trkpt>
      <trkpt lat="42.4964" lon="1.71775">
        <ele>2240.1</ele>
        <time>2020-02-14T15:55:04.795Z</time>
      </trkpt>
      <trkpt lat="42.49636" lon="1.71771">
        <ele>2237.6</ele>
        <time>2020-02-14T15:55:07.508Z</time>
      </trkpt>
      <trkpt lat="42.49635" lon="1.71765">
        <ele>2235.9</ele>
        <time>2020-02-14T15:55:09.959Z</time>
      </trkpt>
      <trkpt lat="42.49632" lon="1.71759">
        <ele>2233.7</ele>
        <time>2020-02-14T15:55:12.672Z</time>
      </trkpt>
      <trkpt lat="42.49627" lon="1.7176">
        <ele>2234.1</ele>
        <time>2020-02-14T15:55:15.143Z</time>
      </trkpt>
      <trkpt lat="42.49622" lon="1.71761">
        <ele>2234.6</ele>
        <time>2020-02-14T15:55:17.462Z</time>
      </trkpt>
      <trkpt lat="42.49618" lon="1.71763">
        <ele>2235.1</ele>
        <time>2020-02-14T15:55:19.795Z</time>
      </trkpt>
      <trkpt lat="42.49613" lon="1.71761">
        <ele>2234.5</ele>
        <time>2020-02-14T15:55:22.307Z</time>
      </trkpt>
      <trkpt lat="42.49608" lon="1.7176">
        <ele>2233.1</ele>
        <time>2020-02-14T15:55:24.799Z</time>
      </trkpt>
      <trkpt lat="42.49603" lon="1.71758">
        <ele>2232.1</ele>
        <time>2020-02-14T15:55:27.360Z</time>
      </trkpt>
      <trkpt lat="42.49599" lon="1.71756">
        <ele>2230.9</ele>
        <time>2020-02-14T15:55:29.686Z</time>
      </trkpt>
      <trkpt lat="42.49594" lon="1.71754">
        <ele>2230.5</ele>
        <time>2020-02-14T15:55:32.185Z</time>
      </trkpt>
      <trkpt lat="42.49591" lon="1.71748">
        <ele>2229.5</ele>
        <time>2020-02-14T15:55:34.878Z</time>
      </trkpt>
      <trkpt lat="42.49588" lon="1.71743">
        <ele>2228.7</ele>
        <time>2020-02-14T15:55:37.162Z</time>
      </trkpt>
      <trkpt lat="42.49584" lon="1.71739">
        <ele>2228.4</ele>
        <time>2020-02-14T15:55:39.709Z</time>
      </trkpt>
      <trkpt lat="42.49577" lon="1.71737">
        <ele>2227.9</ele>
        <time>2020-02-14T15:55:42.859Z</time>
      </trkpt>
      <trkpt lat="42.49574" lon="1.71734">
        <ele>2227.3</ele>
        <time>2020-02-14T15:55:45.143Z</time>
      </trkpt>
      <trkpt lat="42.4957" lon="1.7173">
        <ele>2226.1</ele>
        <time>2020-02-14T15:55:47.524Z</time>
      </trkpt>
      <trkpt lat="42.49566" lon="1.71726">
        <ele>2224.8</ele>
        <time>2020-02-14T15:55:50.154Z</time>
      </trkpt>
      <trkpt lat="42.49561" lon="1.71723">
        <ele>2224.2</ele>
        <time>2020-02-14T15:55:52.715Z</time>
      </trkpt>
      <trkpt lat="42.49556" lon="1.7172">
        <ele>2223.5</ele>
        <time>2020-02-14T15:55:55.415Z</time>
      </trkpt>
      <trkpt lat="42.49553" lon="1.71715">
        <ele>2222.8</ele>
        <time>2020-02-14T15:55:57.886Z</time>
      </trkpt>
      <trkpt lat="42.4955" lon="1.7171">
        <ele>2222.2</ele>
        <time>2020-02-14T15:56:00.295Z</time>
      </trkpt>
      <trkpt lat="42.49547" lon="1.71705">
        <ele>2221.6</ele>
        <time>2020-02-14T15:56:02.821Z</time>
      </trkpt>
      <trkpt lat="42.49543" lon="1.717">
        <ele>2220.9</ele>
        <time>2020-02-14T15:56:05.189Z</time>
      </trkpt>
      <trkpt lat="42.4954" lon="1.71695">
        <ele>2220.1</ele>
        <time>2020-02-14T15:56:07.618Z</time>
      </trkpt>
      <trkpt lat="42.49535" lon="1.71694">
        <ele>2220</ele>
        <time>2020-02-14T15:56:10.103Z</time>
      </trkpt>
      <trkpt lat="42.49531" lon="1.71692">
        <ele>2219.1</ele>
        <time>2020-02-14T15:56:12.560Z</time>
      </trkpt>
      <trkpt lat="42.49525" lon="1.7169">
        <ele>2218.7</ele>
        <time>2020-02-14T15:56:15.260Z</time>
      </trkpt>
      <trkpt lat="42.49522" lon="1.71686">
        <ele>2218</ele>
        <time>2020-02-14T15:56:17.655Z</time>
      </trkpt>
      <trkpt lat="42.49519" lon="1.71681">
        <ele>2217.5</ele>
        <time>2020-02-14T15:56:20.008Z</time>
      </trkpt>
      <trkpt lat="42.49517" lon="1.71674">
        <ele>2217</ele>
        <time>2020-02-14T15:56:22.473Z</time>
      </trkpt>
      <trkpt lat="42.49514" lon="1.7167">
        <ele>2216.8</ele>
        <time>2020-02-14T15:56:24.764Z</time>
      </trkpt>
      <trkpt lat="42.4951" lon="1.71666">
        <ele>2216.3</ele>
        <time>2020-02-14T15:56:27.270Z</time>
      </trkpt>
      <trkpt lat="42.49507" lon="1.71662">
        <ele>2215.6</ele>
        <time>2020-02-14T15:56:29.540Z</time>
      </trkpt>
      <trkpt lat="42.49502" lon="1.7166">
        <ele>2214.4</ele>
        <time>2020-02-14T15:56:32.087Z</time>
      </trkpt>
      <trkpt lat="42.49497" lon="1.7166">
        <ele>2214.5</ele>
        <time>2020-02-14T15:56:34.551Z</time>
      </trkpt>
      <trkpt lat="42.49492" lon="1.7166">
        <ele>2214.9</ele>
        <time>2020-02-14T15:56:36.822Z</time>
      </trkpt>
      <trkpt lat="42.4949" lon="1.71665">
        <ele>2215.6</ele>
        <time>2020-02-14T15:56:39.037Z</time>
      </trkpt>
      <trkpt lat="42.49494" lon="1.71661">
        <ele>2215</ele>
        <time>2020-02-14T15:56:41.466Z</time>
      </trkpt>
      <trkpt lat="42.49489" lon="1.71658">
        <ele>2215.1</ele>
        <time>2020-02-14T15:56:43.709Z</time>
      </trkpt>
      <trkpt lat="42.49485" lon="1.71655">
        <ele>2215</ele>
        <time>2020-02-14T15:56:46.139Z</time>
      </trkpt>
      <trkpt lat="42.49481" lon="1.71652">
        <ele>2214.5</ele>
        <time>2020-02-14T15:56:48.658Z</time>
      </trkpt>
      <trkpt lat="42.49477" lon="1.71647">
        <ele>2214.9</ele>
        <time>2020-02-14T15:56:51.178Z</time>
      </trkpt>
      <trkpt lat="42.49473" lon="1.71645">
        <ele>2215.2</ele>
        <time>2020-02-14T15:56:53.434Z</time>
      </trkpt>
      <trkpt lat="42.49468" lon="1.71643">
        <ele>2215.7</ele>
        <time>2020-02-14T15:56:55.982Z</time>
      </trkpt>
      <trkpt lat="42.49464" lon="1.71638">
        <ele>2214.9</ele>
        <time>2020-02-14T15:56:58.508Z</time>
      </trkpt>
      <trkpt lat="42.4946" lon="1.71635">
        <ele>2214.4</ele>
        <time>2020-02-14T15:57:00.986Z</time>
      </trkpt>
      <trkpt lat="42.49455" lon="1.71632">
        <ele>2214.1</ele>
        <time>2020-02-14T15:57:03.506Z</time>
      </trkpt>
      <trkpt lat="42.49451" lon="1.71629">
        <ele>2214.3</ele>
        <time>2020-02-14T15:57:05.762Z</time>
      </trkpt>
      <trkpt lat="42.49447" lon="1.71625">
        <ele>2213.9</ele>
        <time>2020-02-14T15:57:08.323Z</time>
      </trkpt>
      <trkpt lat="42.49443" lon="1.71621">
        <ele>2214</ele>
        <time>2020-02-14T15:57:10.594Z</time>
      </trkpt>
      <trkpt lat="42.49438" lon="1.71618">
        <ele>2213.7</ele>
        <time>2020-02-14T15:57:13.286Z</time>
      </trkpt>
      <trkpt lat="42.49434" lon="1.71613">
        <ele>2213</ele>
        <time>2020-02-14T15:57:15.861Z</time>
      </trkpt>
      <trkpt lat="42.49431" lon="1.71609">
        <ele>2212.3</ele>
        <time>2020-02-14T15:57:18.132Z</time>
      </trkpt>
      <trkpt lat="42.49426" lon="1.71608">
        <ele>2213</ele>
        <time>2020-02-14T15:57:20.464Z</time>
      </trkpt>
      <trkpt lat="42.49421" lon="1.71604">
        <ele>2212.4</ele>
        <time>2020-02-14T15:57:23.302Z</time>
      </trkpt>
      <trkpt lat="42.49418" lon="1.71599">
        <ele>2212</ele>
        <time>2020-02-14T15:57:25.690Z</time>
      </trkpt>
      <trkpt lat="42.49414" lon="1.71596">
        <ele>2212</ele>
        <time>2020-02-14T15:57:27.954Z</time>
      </trkpt>
      <trkpt lat="42.49417" lon="1.71591">
        <ele>2211.1</ele>
        <time>2020-02-14T15:57:30.273Z</time>
      </trkpt>
      <trkpt lat="42.49414" lon="1.71586">
        <ele>2211</ele>
        <time>2020-02-14T15:57:32.640Z</time>
      </trkpt>
      <trkpt lat="42.49411" lon="1.7158">
        <ele>2210.8</ele>
        <time>2020-02-14T15:57:35.070Z</time>
      </trkpt>
      <trkpt lat="42.49406" lon="1.71581">
        <ele>2211</ele>
        <time>2020-02-14T15:57:37.548Z</time>
      </trkpt>
      <trkpt lat="42.4941" lon="1.71579">
        <ele>2210.7</ele>
        <time>2020-02-14T15:57:39.846Z</time>
      </trkpt>
      <trkpt lat="42.49406" lon="1.71576">
        <ele>2210.7</ele>
        <time>2020-02-14T15:57:42.268Z</time>
      </trkpt>
      <trkpt lat="42.49403" lon="1.71571">
        <ele>2209.8</ele>
        <time>2020-02-14T15:57:44.539Z</time>
      </trkpt>
      <trkpt lat="42.49398" lon="1.71568">
        <ele>2209.3</ele>
        <time>2020-02-14T15:57:47.266Z</time>
      </trkpt>
      <trkpt lat="42.49395" lon="1.71562">
        <ele>2208.9</ele>
        <time>2020-02-14T15:57:49.910Z</time>
      </trkpt>
      <trkpt lat="42.49396" lon="1.71555">
        <ele>2208.1</ele>
        <time>2020-02-14T15:57:52.554Z</time>
      </trkpt>
      <trkpt lat="42.49397" lon="1.71547">
        <ele>2207</ele>
        <time>2020-02-14T15:57:55.268Z</time>
      </trkpt>
      <trkpt lat="42.49393" lon="1.71542">
        <ele>2207</ele>
        <time>2020-02-14T15:57:58.002Z</time>
      </trkpt>
      <trkpt lat="42.4939" lon="1.71536">
        <ele>2206.1</ele>
        <time>2020-02-14T15:58:00.522Z</time>
      </trkpt>
      <trkpt lat="42.49385" lon="1.71534">
        <ele>2206.1</ele>
        <time>2020-02-14T15:58:03.242Z</time>
      </trkpt>
      <trkpt lat="42.49383" lon="1.71528">
        <ele>2206</ele>
        <time>2020-02-14T15:58:05.782Z</time>
      </trkpt>
      <trkpt lat="42.49382" lon="1.71521">
        <ele>2206.2</ele>
        <time>2020-02-14T15:58:08.309Z</time>
      </trkpt>
      <trkpt lat="42.4938" lon="1.71516">
        <ele>2206.3</ele>
        <time>2020-02-14T15:58:10.586Z</time>
      </trkpt>
      <trkpt lat="42.49376" lon="1.71511">
        <ele>2206.1</ele>
        <time>2020-02-14T15:58:13.292Z</time>
      </trkpt>
      <trkpt lat="42.49372" lon="1.71506">
        <ele>2205.2</ele>
        <time>2020-02-14T15:58:15.694Z</time>
      </trkpt>
      <trkpt lat="42.49367" lon="1.71505">
        <ele>2205.1</ele>
        <time>2020-02-14T15:58:18.366Z</time>
      </trkpt>
      <trkpt lat="42.49363" lon="1.71502">
        <ele>2205.1</ele>
        <time>2020-02-14T15:58:20.526Z</time>
      </trkpt>
      <trkpt lat="42.49362" lon="1.71496">
        <ele>2205.1</ele>
        <time>2020-02-14T15:58:22.962Z</time>
      </trkpt>
      <trkpt lat="42.49361" lon="1.71489">
        <ele>2204.2</ele>
        <time>2020-02-14T15:58:25.392Z</time>
      </trkpt>
      <trkpt lat="42.49354" lon="1.71488">
        <ele>2204.1</ele>
        <time>2020-02-14T15:58:28.853Z</time>
      </trkpt>
      <trkpt lat="42.4935" lon="1.71488">
        <ele>2204.1</ele>
        <time>2020-02-14T15:58:31.276Z</time>
      </trkpt>
      <trkpt lat="42.49346" lon="1.71484">
        <ele>2203.4</ele>
        <time>2020-02-14T15:58:33.560Z</time>
      </trkpt>
      <trkpt lat="42.49343" lon="1.71478">
        <ele>2203.1</ele>
        <time>2020-02-14T15:58:36.211Z</time>
      </trkpt>
      <trkpt lat="42.49337" lon="1.71475">
        <ele>2203</ele>
        <time>2020-02-14T15:58:39.402Z</time>
      </trkpt>
      <trkpt lat="42.49339" lon="1.71469">
        <ele>2203.1</ele>
        <time>2020-02-14T15:58:41.686Z</time>
      </trkpt>
      <trkpt lat="42.49337" lon="1.71462">
        <ele>2204.1</ele>
        <time>2020-02-14T15:58:44.261Z</time>
      </trkpt>
      <trkpt lat="42.49334" lon="1.71458">
        <ele>2204.9</ele>
        <time>2020-02-14T15:58:46.642Z</time>
      </trkpt>
      <trkpt lat="42.49329" lon="1.71461">
        <ele>2203.6</ele>
        <time>2020-02-14T15:58:49.176Z</time>
      </trkpt>
      <trkpt lat="42.49334" lon="1.7146">
        <ele>2204.3</ele>
        <time>2020-02-14T15:58:51.654Z</time>
      </trkpt>
      <trkpt lat="42.4933" lon="1.7146">
        <ele>2203.6</ele>
        <time>2020-02-14T15:58:53.945Z</time>
      </trkpt>
      <trkpt lat="42.49332" lon="1.71455">
        <ele>2205.4</ele>
        <time>2020-02-14T15:58:56.381Z</time>
      </trkpt>
      <trkpt lat="42.49327" lon="1.71454">
        <ele>2204.8</ele>
        <time>2020-02-14T15:58:58.610Z</time>
      </trkpt>
      <trkpt lat="42.49322" lon="1.71454">
        <ele>2204.6</ele>
        <time>2020-02-14T15:59:00.929Z</time>
      </trkpt>
      <trkpt lat="42.49318" lon="1.71454">
        <ele>2204</ele>
        <time>2020-02-14T15:59:03.366Z</time>
      </trkpt>
      <trkpt lat="42.49315" lon="1.71449">
        <ele>2203.8</ele>
        <time>2020-02-14T15:59:05.684Z</time>
      </trkpt>
      <trkpt lat="42.49311" lon="1.71443">
        <ele>2203.5</ele>
        <time>2020-02-14T15:59:08.259Z</time>
      </trkpt>
      <trkpt lat="42.49309" lon="1.71437">
        <ele>2204</ele>
        <time>2020-02-14T15:59:10.620Z</time>
      </trkpt>
      <trkpt lat="42.49312" lon="1.71432">
        <ele>2205.4</ele>
        <time>2020-02-14T15:59:12.932Z</time>
      </trkpt>
      <trkpt lat="42.49312" lon="1.71425">
        <ele>2206.5</ele>
        <time>2020-02-14T15:59:15.520Z</time>
      </trkpt>
      <trkpt lat="42.49308" lon="1.71422">
        <ele>2206.2</ele>
        <time>2020-02-14T15:59:17.895Z</time>
      </trkpt>
      <trkpt lat="42.49305" lon="1.71417">
        <ele>2206.4</ele>
        <time>2020-02-14T15:59:20.179Z</time>
      </trkpt>
      <trkpt lat="42.49301" lon="1.71414">
        <ele>2205.5</ele>
        <time>2020-02-14T15:59:22.574Z</time>
      </trkpt>
      <trkpt lat="42.49296" lon="1.71411">
        <ele>2204.9</ele>
        <time>2020-02-14T15:59:25.128Z</time>
      </trkpt>
      <trkpt lat="42.49292" lon="1.71406">
        <ele>2204.9</ele>
        <time>2020-02-14T15:59:27.675Z</time>
      </trkpt>
      <trkpt lat="42.49289" lon="1.71401">
        <ele>2204.9</ele>
        <time>2020-02-14T15:59:30.195Z</time>
      </trkpt>
      <trkpt lat="42.49286" lon="1.71396">
        <ele>2204.8</ele>
        <time>2020-02-14T15:59:32.424Z</time>
      </trkpt>
      <trkpt lat="42.49282" lon="1.71392">
        <ele>2205.1</ele>
        <time>2020-02-14T15:59:34.950Z</time>
      </trkpt>
      <trkpt lat="42.49278" lon="1.71385">
        <ele>2205.9</ele>
        <time>2020-02-14T15:59:38.183Z</time>
      </trkpt>
      <trkpt lat="42.49275" lon="1.7138">
        <ele>2205.9</ele>
        <time>2020-02-14T15:59:40.515Z</time>
      </trkpt>
      <trkpt lat="42.49271" lon="1.71375">
        <ele>2206.1</ele>
        <time>2020-02-14T15:59:42.994Z</time>
      </trkpt>
      <trkpt lat="42.49268" lon="1.7137">
        <ele>2206</ele>
        <time>2020-02-14T15:59:45.596Z</time>
      </trkpt>
      <trkpt lat="42.49263" lon="1.71365">
        <ele>2206.4</ele>
        <time>2020-02-14T15:59:48.462Z</time>
      </trkpt>
      <trkpt lat="42.49259" lon="1.71362">
        <ele>2206.5</ele>
        <time>2020-02-14T15:59:50.829Z</time>
      </trkpt>
      <trkpt lat="42.49255" lon="1.71359">
        <ele>2206.2</ele>
        <time>2020-02-14T15:59:53.079Z</time>
      </trkpt>
      <trkpt lat="42.49251" lon="1.71355">
        <ele>2205.7</ele>
        <time>2020-02-14T15:59:55.681Z</time>
      </trkpt>
      <trkpt lat="42.49251" lon="1.71348">
        <ele>2206.9</ele>
        <time>2020-02-14T15:59:58.153Z</time>
      </trkpt>
      <trkpt lat="42.49246" lon="1.71347">
        <ele>2206.2</ele>
        <time>2020-02-14T16:00:00.610Z</time>
      </trkpt>
      <trkpt lat="42.49239" lon="1.71352">
        <ele>2203.6</ele>
        <time>2020-02-14T16:00:04.978Z</time>
      </trkpt>
      <trkpt lat="42.49243" lon="1.71349">
        <ele>2205.1</ele>
        <time>2020-02-14T16:00:07.400Z</time>
      </trkpt>
      <trkpt lat="42.49244" lon="1.71343">
        <ele>2206.4</ele>
        <time>2020-02-14T16:00:10.010Z</time>
      </trkpt>
      <trkpt lat="42.49241" lon="1.71337">
        <ele>2206.8</ele>
        <time>2020-02-14T16:00:12.502Z</time>
      </trkpt>
      <trkpt lat="42.49236" lon="1.71334">
        <ele>2206.2</ele>
        <time>2020-02-14T16:00:15.056Z</time>
      </trkpt>
      <trkpt lat="42.49233" lon="1.71329">
        <ele>2206.2</ele>
        <time>2020-02-14T16:00:17.361Z</time>
      </trkpt>
      <trkpt lat="42.49229" lon="1.71326">
        <ele>2206</ele>
        <time>2020-02-14T16:00:19.707Z</time>
      </trkpt>
      <trkpt lat="42.49225" lon="1.71321">
        <ele>2205.9</ele>
        <time>2020-02-14T16:00:22.109Z</time>
      </trkpt>
      <trkpt lat="42.49221" lon="1.71318">
        <ele>2205.7</ele>
        <time>2020-02-14T16:00:24.511Z</time>
      </trkpt>
      <trkpt lat="42.49217" lon="1.71314">
        <ele>2205.2</ele>
        <time>2020-02-14T16:00:27.162Z</time>
      </trkpt>
      <trkpt lat="42.49213" lon="1.7131">
        <ele>2205.1</ele>
        <time>2020-02-14T16:00:29.412Z</time>
      </trkpt>
      <trkpt lat="42.49209" lon="1.71306">
        <ele>2205</ele>
        <time>2020-02-14T16:00:31.994Z</time>
      </trkpt>
      <trkpt lat="42.49205" lon="1.71301">
        <ele>2204.8</ele>
        <time>2020-02-14T16:00:34.541Z</time>
      </trkpt>
      <trkpt lat="42.49202" lon="1.71295">
        <ele>2204.3</ele>
        <time>2020-02-14T16:00:37.151Z</time>
      </trkpt>
      <trkpt lat="42.49199" lon="1.7129">
        <ele>2204.5</ele>
        <time>2020-02-14T16:00:39.753Z</time>
      </trkpt>
      <trkpt lat="42.49195" lon="1.71285">
        <ele>2204.3</ele>
        <time>2020-02-14T16:00:42.543Z</time>
      </trkpt>
      <trkpt lat="42.4919" lon="1.71281">
        <ele>2204</ele>
        <time>2020-02-14T16:00:44.952Z</time>
      </trkpt>
      <trkpt lat="42.49186" lon="1.71277">
        <ele>2203.2</ele>
        <time>2020-02-14T16:00:47.700Z</time>
      </trkpt>
      <trkpt lat="42.49183" lon="1.71271">
        <ele>2202.9</ele>
        <time>2020-02-14T16:00:50.261Z</time>
      </trkpt>
      <trkpt lat="42.4918" lon="1.71266">
        <ele>2203.1</ele>
        <time>2020-02-14T16:00:52.690Z</time>
      </trkpt>
      <trkpt lat="42.49176" lon="1.71261">
        <ele>2202.2</ele>
        <time>2020-02-14T16:00:55.238Z</time>
      </trkpt>
      <trkpt lat="42.49173" lon="1.71256">
        <ele>2202.2</ele>
        <time>2020-02-14T16:00:57.612Z</time>
      </trkpt>
      <trkpt lat="42.49168" lon="1.71254">
        <ele>2201.6</ele>
        <time>2020-02-14T16:01:00.069Z</time>
      </trkpt>
      <trkpt lat="42.49164" lon="1.71251">
        <ele>2200.6</ele>
        <time>2020-02-14T16:01:02.305Z</time>
      </trkpt>
      <trkpt lat="42.49161" lon="1.71245">
        <ele>2200.6</ele>
        <time>2020-02-14T16:01:04.907Z</time>
      </trkpt>
      <trkpt lat="42.49157" lon="1.71241">
        <ele>2200.3</ele>
        <time>2020-02-14T16:01:07.219Z</time>
      </trkpt>
      <trkpt lat="42.49155" lon="1.71235">
        <ele>2200.4</ele>
        <time>2020-02-14T16:01:09.635Z</time>
      </trkpt>
      <trkpt lat="42.49153" lon="1.71229">
        <ele>2200.5</ele>
        <time>2020-02-14T16:01:12.189Z</time>
      </trkpt>
      <trkpt lat="42.49151" lon="1.71223">
        <ele>2200.6</ele>
        <time>2020-02-14T16:01:14.446Z</time>
      </trkpt>
      <trkpt lat="42.49149" lon="1.71217">
        <ele>2200.3</ele>
        <time>2020-02-14T16:01:16.952Z</time>
      </trkpt>
      <trkpt lat="42.49146" lon="1.71212">
        <ele>2199.7</ele>
        <time>2020-02-14T16:01:19.347Z</time>
      </trkpt>
      <trkpt lat="42.49145" lon="1.71205">
        <ele>2199.9</ele>
        <time>2020-02-14T16:01:21.672Z</time>
      </trkpt>
      <trkpt lat="42.49142" lon="1.712">
        <ele>2200</ele>
        <time>2020-02-14T16:01:24.053Z</time>
      </trkpt>
      <trkpt lat="42.49141" lon="1.71193">
        <ele>2200.2</ele>
        <time>2020-02-14T16:01:26.698Z</time>
      </trkpt>
      <trkpt lat="42.49138" lon="1.71187">
        <ele>2200.1</ele>
        <time>2020-02-14T16:01:29.328Z</time>
      </trkpt>
      <trkpt lat="42.49134" lon="1.71181">
        <ele>2200.2</ele>
        <time>2020-02-14T16:01:31.965Z</time>
      </trkpt>
      <trkpt lat="42.49131" lon="1.71177">
        <ele>2199.5</ele>
        <time>2020-02-14T16:01:34.243Z</time>
      </trkpt>
      <trkpt lat="42.49129" lon="1.71171">
        <ele>2198.9</ele>
        <time>2020-02-14T16:01:36.790Z</time>
      </trkpt>
      <trkpt lat="42.49127" lon="1.71165">
        <ele>2198.5</ele>
        <time>2020-02-14T16:01:39.026Z</time>
      </trkpt>
      <trkpt lat="42.49125" lon="1.71159">
        <ele>2198.3</ele>
        <time>2020-02-14T16:01:41.414Z</time>
      </trkpt>
      <trkpt lat="42.49123" lon="1.71153">
        <ele>2198.2</ele>
        <time>2020-02-14T16:01:43.816Z</time>
      </trkpt>
      <trkpt lat="42.49121" lon="1.71147">
        <ele>2198.4</ele>
        <time>2020-02-14T16:01:46.238Z</time>
      </trkpt>
      <trkpt lat="42.49118" lon="1.71141">
        <ele>2197.5</ele>
        <time>2020-02-14T16:01:48.848Z</time>
      </trkpt>
      <trkpt lat="42.49114" lon="1.71137">
        <ele>2197.2</ele>
        <time>2020-02-14T16:01:51.291Z</time>
      </trkpt>
      <trkpt lat="42.49113" lon="1.7113">
        <ele>2197.5</ele>
        <time>2020-02-14T16:01:53.589Z</time>
      </trkpt>
      <trkpt lat="42.49111" lon="1.71125">
        <ele>2197.5</ele>
        <time>2020-02-14T16:01:55.867Z</time>
      </trkpt>
      <trkpt lat="42.49108" lon="1.71119">
        <ele>2196.8</ele>
        <time>2020-02-14T16:01:58.442Z</time>
      </trkpt>
      <trkpt lat="42.49105" lon="1.71114">
        <ele>2196</ele>
        <time>2020-02-14T16:02:00.857Z</time>
      </trkpt>
      <trkpt lat="42.49101" lon="1.71109">
        <ele>2195.1</ele>
        <time>2020-02-14T16:02:03.564Z</time>
      </trkpt>
      <trkpt lat="42.49098" lon="1.71104">
        <ele>2194.4</ele>
        <time>2020-02-14T16:02:06.007Z</time>
      </trkpt>
      <trkpt lat="42.49095" lon="1.71098">
        <ele>2195.3</ele>
        <time>2020-02-14T16:02:08.638Z</time>
      </trkpt>
      <trkpt lat="42.49091" lon="1.71093">
        <ele>2194.7</ele>
        <time>2020-02-14T16:02:11.150Z</time>
      </trkpt>
      <trkpt lat="42.49088" lon="1.71088">
        <ele>2194.7</ele>
        <time>2020-02-14T16:02:13.684Z</time>
      </trkpt>
      <trkpt lat="42.49085" lon="1.71083">
        <ele>2194.4</ele>
        <time>2020-02-14T16:02:16.030Z</time>
      </trkpt>
      <trkpt lat="42.49083" lon="1.71076">
        <ele>2194.6</ele>
        <time>2020-02-14T16:02:18.633Z</time>
      </trkpt>
      <trkpt lat="42.4908" lon="1.7107">
        <ele>2194.3</ele>
        <time>2020-02-14T16:02:21.242Z</time>
      </trkpt>
      <trkpt lat="42.49078" lon="1.71064">
        <ele>2194.3</ele>
        <time>2020-02-14T16:02:23.700Z</time>
      </trkpt>
      <trkpt lat="42.49074" lon="1.71059">
        <ele>2194.2</ele>
        <time>2020-02-14T16:02:26.309Z</time>
      </trkpt>
      <trkpt lat="42.49071" lon="1.71053">
        <ele>2194.2</ele>
        <time>2020-02-14T16:02:28.912Z</time>
      </trkpt>
      <trkpt lat="42.49068" lon="1.71048">
        <ele>2193.8</ele>
        <time>2020-02-14T16:02:31.141Z</time>
      </trkpt>
      <trkpt lat="42.49066" lon="1.71042">
        <ele>2192.6</ele>
        <time>2020-02-14T16:02:33.778Z</time>
      </trkpt>
      <trkpt lat="42.49062" lon="1.71038">
        <ele>2191.6</ele>
        <time>2020-02-14T16:02:36.124Z</time>
      </trkpt>
      <trkpt lat="42.49057" lon="1.71037">
        <ele>2190.1</ele>
        <time>2020-02-14T16:02:38.568Z</time>
      </trkpt>
      <trkpt lat="42.49055" lon="1.71031">
        <ele>2189.9</ele>
        <time>2020-02-14T16:02:40.970Z</time>
      </trkpt>
      <trkpt lat="42.49051" lon="1.71028">
        <ele>2189.6</ele>
        <time>2020-02-14T16:02:43.226Z</time>
      </trkpt>
      <trkpt lat="42.49046" lon="1.71025">
        <ele>2189.1</ele>
        <time>2020-02-14T16:02:45.725Z</time>
      </trkpt>
      <trkpt lat="42.49042" lon="1.71021">
        <ele>2188.2</ele>
        <time>2020-02-14T16:02:48.085Z</time>
      </trkpt>
      <trkpt lat="42.49038" lon="1.71018">
        <ele>2187.4</ele>
        <time>2020-02-14T16:02:50.577Z</time>
      </trkpt>
      <trkpt lat="42.49035" lon="1.71014">
        <ele>2187.6</ele>
        <time>2020-02-14T16:02:52.903Z</time>
      </trkpt>
      <trkpt lat="42.49032" lon="1.71007">
        <ele>2188</ele>
        <time>2020-02-14T16:02:55.374Z</time>
      </trkpt>
      <trkpt lat="42.4903" lon="1.71003">
        <ele>2187.3</ele>
        <time>2020-02-14T16:02:57.624Z</time>
      </trkpt>
      <trkpt lat="42.49027" lon="1.70997">
        <ele>2187.5</ele>
        <time>2020-02-14T16:02:59.970Z</time>
      </trkpt>
      <trkpt lat="42.49023" lon="1.70994">
        <ele>2187.1</ele>
        <time>2020-02-14T16:03:02.282Z</time>
      </trkpt>
      <trkpt lat="42.49019" lon="1.7099">
        <ele>2187</ele>
        <time>2020-02-14T16:03:04.636Z</time>
      </trkpt>
      <trkpt lat="42.49015" lon="1.70987">
        <ele>2186.9</ele>
        <time>2020-02-14T16:03:06.906Z</time>
      </trkpt>
      <trkpt lat="42.49011" lon="1.70985">
        <ele>2186.1</ele>
        <time>2020-02-14T16:03:09.211Z</time>
      </trkpt>
      <trkpt lat="42.49006" lon="1.70986">
        <ele>2185</ele>
        <time>2020-02-14T16:03:11.530Z</time>
      </trkpt>
      <trkpt lat="42.49002" lon="1.70984">
        <ele>2184.3</ele>
        <time>2020-02-14T16:03:13.911Z</time>
      </trkpt>
      <trkpt lat="42.48997" lon="1.70983">
        <ele>2183.4</ele>
        <time>2020-02-14T16:03:16.306Z</time>
      </trkpt>
      <trkpt lat="42.48992" lon="1.70981">
        <ele>2183.4</ele>
        <time>2020-02-14T16:03:18.763Z</time>
      </trkpt>
      <trkpt lat="42.48987" lon="1.70981">
        <ele>2182.3</ele>
        <time>2020-02-14T16:03:21.269Z</time>
      </trkpt>
      <trkpt lat="42.48983" lon="1.70981">
        <ele>2181.5</ele>
        <time>2020-02-14T16:03:23.567Z</time>
      </trkpt>
      <trkpt lat="42.48978" lon="1.70981">
        <ele>2180.6</ele>
        <time>2020-02-14T16:03:25.872Z</time>
      </trkpt>
      <trkpt lat="42.48973" lon="1.70982">
        <ele>2179.3</ele>
        <time>2020-02-14T16:03:28.454Z</time>
      </trkpt>
      <trkpt lat="42.48969" lon="1.70978">
        <ele>2179.1</ele>
        <time>2020-02-14T16:03:30.683Z</time>
      </trkpt>
      <trkpt lat="42.48966" lon="1.70973">
        <ele>2179.4</ele>
        <time>2020-02-14T16:03:33.085Z</time>
      </trkpt>
      <trkpt lat="42.48962" lon="1.7097">
        <ele>2178.5</ele>
        <time>2020-02-14T16:03:35.397Z</time>
      </trkpt>
      <trkpt lat="42.48957" lon="1.70969">
        <ele>2176.5</ele>
        <time>2020-02-14T16:03:38.096Z</time>
      </trkpt>
      <trkpt lat="42.48953" lon="1.70968">
        <ele>2174.6</ele>
        <time>2020-02-14T16:03:40.464Z</time>
      </trkpt>
      <trkpt lat="42.48948" lon="1.70964">
        <ele>2173</ele>
        <time>2020-02-14T16:03:43.108Z</time>
      </trkpt>
      <trkpt lat="42.48947" lon="1.70958">
        <ele>2174.5</ele>
        <time>2020-02-14T16:03:45.413Z</time>
      </trkpt>
      <trkpt lat="42.48943" lon="1.70959">
        <ele>2171.4</ele>
        <time>2020-02-14T16:03:48.057Z</time>
      </trkpt>
      <trkpt lat="42.48939" lon="1.70955">
        <ele>2170.8</ele>
        <time>2020-02-14T16:03:50.424Z</time>
      </trkpt>
      <trkpt lat="42.48935" lon="1.70952">
        <ele>2169.1</ele>
        <time>2020-02-14T16:03:52.833Z</time>
      </trkpt>
      <trkpt lat="42.4893" lon="1.7095">
        <ele>2167.1</ele>
        <time>2020-02-14T16:03:55.401Z</time>
      </trkpt>
      <trkpt lat="42.48925" lon="1.70949">
        <ele>2164.4</ele>
        <time>2020-02-14T16:03:58.052Z</time>
      </trkpt>
      <trkpt lat="42.48922" lon="1.70945">
        <ele>2164.3</ele>
        <time>2020-02-14T16:04:00.295Z</time>
      </trkpt>
      <trkpt lat="42.48917" lon="1.70943">
        <ele>2163.2</ele>
        <time>2020-02-14T16:04:02.579Z</time>
      </trkpt>
      <trkpt lat="42.48912" lon="1.70941">
        <ele>2161.7</ele>
        <time>2020-02-14T16:04:05.341Z</time>
      </trkpt>
      <trkpt lat="42.48907" lon="1.70939">
        <ele>2160.7</ele>
        <time>2020-02-14T16:04:08.034Z</time>
      </trkpt>
      <trkpt lat="42.48902" lon="1.70938">
        <ele>2158.5</ele>
        <time>2020-02-14T16:04:10.650Z</time>
      </trkpt>
      <trkpt lat="42.48899" lon="1.70933">
        <ele>2156.2</ele>
        <time>2020-02-14T16:04:13.384Z</time>
      </trkpt>
      <trkpt lat="42.48898" lon="1.70926">
        <ele>2155.9</ele>
        <time>2020-02-14T16:04:15.987Z</time>
      </trkpt>
      <trkpt lat="42.48895" lon="1.70921">
        <ele>2155.1</ele>
        <time>2020-02-14T16:04:18.264Z</time>
      </trkpt>
      <trkpt lat="42.48892" lon="1.70916">
        <ele>2154.5</ele>
        <time>2020-02-14T16:04:20.811Z</time>
      </trkpt>
      <trkpt lat="42.48889" lon="1.7091">
        <ele>2154</ele>
        <time>2020-02-14T16:04:23.248Z</time>
      </trkpt>
      <trkpt lat="42.48886" lon="1.70905">
        <ele>2153.5</ele>
        <time>2020-02-14T16:04:25.581Z</time>
      </trkpt>
      <trkpt lat="42.48881" lon="1.709">
        <ele>2152.7</ele>
        <time>2020-02-14T16:04:28.564Z</time>
      </trkpt>
      <trkpt lat="42.48877" lon="1.70896">
        <ele>2151.7</ele>
        <time>2020-02-14T16:04:31.153Z</time>
      </trkpt>
      <trkpt lat="42.48872" lon="1.70892">
        <ele>2150.8</ele>
        <time>2020-02-14T16:04:33.735Z</time>
      </trkpt>
      <trkpt lat="42.48869" lon="1.70888">
        <ele>2151</ele>
        <time>2020-02-14T16:04:35.970Z</time>
      </trkpt>
      <trkpt lat="42.48866" lon="1.70883">
        <ele>2150.8</ele>
        <time>2020-02-14T16:04:38.428Z</time>
      </trkpt>
      <trkpt lat="42.48861" lon="1.70882">
        <ele>2148.3</ele>
        <time>2020-02-14T16:04:40.906Z</time>
      </trkpt>
      <trkpt lat="42.48857" lon="1.7088">
        <ele>2146.2</ele>
        <time>2020-02-14T16:04:43.363Z</time>
      </trkpt>
      <trkpt lat="42.48854" lon="1.70875">
        <ele>2145.3</ele>
        <time>2020-02-14T16:04:45.737Z</time>
      </trkpt>
      <trkpt lat="42.48852" lon="1.70869">
        <ele>2144.8</ele>
        <time>2020-02-14T16:04:48.278Z</time>
      </trkpt>
      <trkpt lat="42.48849" lon="1.70863">
        <ele>2144.4</ele>
        <time>2020-02-14T16:04:50.721Z</time>
      </trkpt>
      <trkpt lat="42.48847" lon="1.70857">
        <ele>2144.4</ele>
        <time>2020-02-14T16:04:53.095Z</time>
      </trkpt>
      <trkpt lat="42.48844" lon="1.70852">
        <ele>2143.8</ele>
        <time>2020-02-14T16:04:55.469Z</time>
      </trkpt>
      <trkpt lat="42.4884" lon="1.70848">
        <ele>2142.3</ele>
        <time>2020-02-14T16:04:58.148Z</time>
      </trkpt>
      <trkpt lat="42.48836" lon="1.70845">
        <ele>2141.6</ele>
        <time>2020-02-14T16:05:00.481Z</time>
      </trkpt>
      <trkpt lat="42.48832" lon="1.70841">
        <ele>2140.9</ele>
        <time>2020-02-14T16:05:02.786Z</time>
      </trkpt>
      <trkpt lat="42.48828" lon="1.70839">
        <ele>2140</ele>
        <time>2020-02-14T16:05:05.049Z</time>
      </trkpt>
      <trkpt lat="42.48823" lon="1.70835">
        <ele>2139.1</ele>
        <time>2020-02-14T16:05:07.493Z</time>
      </trkpt>
      <trkpt lat="42.4882" lon="1.70832">
        <ele>2137.9</ele>
        <time>2020-02-14T16:05:09.846Z</time>
      </trkpt>
      <trkpt lat="42.48816" lon="1.70828">
        <ele>2136.4</ele>
        <time>2020-02-14T16:05:12.276Z</time>
      </trkpt>
      <trkpt lat="42.48814" lon="1.70822">
        <ele>2136.8</ele>
        <time>2020-02-14T16:05:14.574Z</time>
      </trkpt>
      <trkpt lat="42.48811" lon="1.70816">
        <ele>2136</ele>
        <time>2020-02-14T16:05:17.190Z</time>
      </trkpt>
      <trkpt lat="42.48808" lon="1.70812">
        <ele>2134.5</ele>
        <time>2020-02-14T16:05:19.488Z</time>
      </trkpt>
      <trkpt lat="42.48803" lon="1.7081">
        <ele>2131.3</ele>
        <time>2020-02-14T16:05:22.430Z</time>
      </trkpt>
      <trkpt lat="42.48798" lon="1.70807">
        <ele>2128.5</ele>
        <time>2020-02-14T16:05:25.158Z</time>
      </trkpt>
      <trkpt lat="42.48796" lon="1.70802">
        <ele>2126.9</ele>
        <time>2020-02-14T16:05:27.525Z</time>
      </trkpt>
      <trkpt lat="42.48793" lon="1.70797">
        <ele>2126</ele>
        <time>2020-02-14T16:05:29.844Z</time>
      </trkpt>
      <trkpt lat="42.48791" lon="1.70791">
        <ele>2124.2</ele>
        <time>2020-02-14T16:05:32.273Z</time>
      </trkpt>
      <trkpt lat="42.48788" lon="1.70786">
        <ele>2122.2</ele>
        <time>2020-02-14T16:05:34.710Z</time>
      </trkpt>
      <trkpt lat="42.48786" lon="1.7078">
        <ele>2120.6</ele>
        <time>2020-02-14T16:05:37.250Z</time>
      </trkpt>
      <trkpt lat="42.48782" lon="1.70777">
        <ele>2119</ele>
        <time>2020-02-14T16:05:39.590Z</time>
      </trkpt>
      <trkpt lat="42.4878" lon="1.70772">
        <ele>2118.5</ele>
        <time>2020-02-14T16:05:42.026Z</time>
      </trkpt>
      <trkpt lat="42.48778" lon="1.70766">
        <ele>2118</ele>
        <time>2020-02-14T16:05:44.373Z</time>
      </trkpt>
      <trkpt lat="42.48775" lon="1.7076">
        <ele>2116.4</ele>
        <time>2020-02-14T16:05:46.775Z</time>
      </trkpt>
      <trkpt lat="42.48774" lon="1.70754">
        <ele>2115.5</ele>
        <time>2020-02-14T16:05:49.253Z</time>
      </trkpt>
      <trkpt lat="42.48771" lon="1.70749">
        <ele>2114.6</ele>
        <time>2020-02-14T16:05:51.544Z</time>
      </trkpt>
      <trkpt lat="42.48767" lon="1.70746">
        <ele>2113.6</ele>
        <time>2020-02-14T16:05:54.070Z</time>
      </trkpt>
      <trkpt lat="42.48763" lon="1.70741">
        <ele>2112</ele>
        <time>2020-02-14T16:05:56.756Z</time>
      </trkpt>
      <trkpt lat="42.48759" lon="1.70736">
        <ele>2110.2</ele>
        <time>2020-02-14T16:05:59.511Z</time>
      </trkpt>
      <trkpt lat="42.48757" lon="1.7073">
        <ele>2109.8</ele>
        <time>2020-02-14T16:06:01.913Z</time>
      </trkpt>
      <trkpt lat="42.48753" lon="1.70725">
        <ele>2109.1</ele>
        <time>2020-02-14T16:06:04.536Z</time>
      </trkpt>
      <trkpt lat="42.48751" lon="1.70719">
        <ele>2108.1</ele>
        <time>2020-02-14T16:06:06.910Z</time>
      </trkpt>
      <trkpt lat="42.48749" lon="1.70713">
        <ele>2107.6</ele>
        <time>2020-02-14T16:06:09.465Z</time>
      </trkpt>
      <trkpt lat="42.48751" lon="1.70706">
        <ele>2108.3</ele>
        <time>2020-02-14T16:06:11.825Z</time>
      </trkpt>
      <trkpt lat="42.48751" lon="1.707">
        <ele>2108.5</ele>
        <time>2020-02-14T16:06:14.227Z</time>
      </trkpt>
      <trkpt lat="42.48751" lon="1.70693">
        <ele>2108.5</ele>
        <time>2020-02-14T16:06:16.677Z</time>
      </trkpt>
      <trkpt lat="42.4875" lon="1.70687">
        <ele>2108</ele>
        <time>2020-02-14T16:06:19.003Z</time>
      </trkpt>
      <trkpt lat="42.4875" lon="1.70681">
        <ele>2107.4</ele>
        <time>2020-02-14T16:06:21.322Z</time>
      </trkpt>
      <trkpt lat="42.48749" lon="1.70675">
        <ele>2106.9</ele>
        <time>2020-02-14T16:06:23.544Z</time>
      </trkpt>
      <trkpt lat="42.48747" lon="1.70669">
        <ele>2106.9</ele>
        <time>2020-02-14T16:06:25.793Z</time>
      </trkpt>
      <trkpt lat="42.48748" lon="1.70662">
        <ele>2106.4</ele>
        <time>2020-02-14T16:06:28.382Z</time>
      </trkpt>
      <trkpt lat="42.48743" lon="1.7066">
        <ele>2104.7</ele>
        <time>2020-02-14T16:06:30.826Z</time>
      </trkpt>
      <trkpt lat="42.48742" lon="1.70654">
        <ele>2104.4</ele>
        <time>2020-02-14T16:06:33.075Z</time>
      </trkpt>
      <trkpt lat="42.48738" lon="1.70651">
        <ele>2102.8</ele>
        <time>2020-02-14T16:06:35.463Z</time>
      </trkpt>
      <trkpt lat="42.48733" lon="1.70648">
        <ele>2101.5</ele>
        <time>2020-02-14T16:06:37.948Z</time>
      </trkpt>
      <trkpt lat="42.48733" lon="1.70642">
        <ele>2101.7</ele>
        <time>2020-02-14T16:06:40.163Z</time>
      </trkpt>
      <trkpt lat="42.48734" lon="1.70636">
        <ele>2101.9</ele>
        <time>2020-02-14T16:06:42.427Z</time>
      </trkpt>
      <trkpt lat="42.4873" lon="1.70632">
        <ele>2099.9</ele>
        <time>2020-02-14T16:06:44.933Z</time>
      </trkpt>
      <trkpt lat="42.48726" lon="1.70628">
        <ele>2098.9</ele>
        <time>2020-02-14T16:06:47.362Z</time>
      </trkpt>
      <trkpt lat="42.48723" lon="1.70624">
        <ele>2097.9</ele>
        <time>2020-02-14T16:06:49.674Z</time>
      </trkpt>
      <trkpt lat="42.48718" lon="1.70619">
        <ele>2096.2</ele>
        <time>2020-02-14T16:06:52.394Z</time>
      </trkpt>
      <trkpt lat="42.48716" lon="1.70614">
        <ele>2095.6</ele>
        <time>2020-02-14T16:06:54.748Z</time>
      </trkpt>
      <trkpt lat="42.48713" lon="1.70608">
        <ele>2094.4</ele>
        <time>2020-02-14T16:06:57.150Z</time>
      </trkpt>
      <trkpt lat="42.48712" lon="1.70602">
        <ele>2093.9</ele>
        <time>2020-02-14T16:06:59.496Z</time>
      </trkpt>
      <trkpt lat="42.48708" lon="1.70598">
        <ele>2093.1</ele>
        <time>2020-02-14T16:07:01.905Z</time>
      </trkpt>
      <trkpt lat="42.48706" lon="1.70592">
        <ele>2093</ele>
        <time>2020-02-14T16:07:04.307Z</time>
      </trkpt>
      <trkpt lat="42.48705" lon="1.70585">
        <ele>2092.6</ele>
        <time>2020-02-14T16:07:06.972Z</time>
      </trkpt>
      <trkpt lat="42.48703" lon="1.70579">
        <ele>2091.3</ele>
        <time>2020-02-14T16:07:09.443Z</time>
      </trkpt>
      <trkpt lat="42.487" lon="1.70573">
        <ele>2090.6</ele>
        <time>2020-02-14T16:07:11.762Z</time>
      </trkpt>
      <trkpt lat="42.48699" lon="1.70567">
        <ele>2089.9</ele>
        <time>2020-02-14T16:07:14.254Z</time>
      </trkpt>
      <trkpt lat="42.48697" lon="1.7056">
        <ele>2090.4</ele>
        <time>2020-02-14T16:07:16.877Z</time>
      </trkpt>
      <trkpt lat="42.48695" lon="1.70553">
        <ele>2090.2</ele>
        <time>2020-02-14T16:07:19.535Z</time>
      </trkpt>
      <trkpt lat="42.4869" lon="1.70549">
        <ele>2089</ele>
        <time>2020-02-14T16:07:22.581Z</time>
      </trkpt>
      <trkpt lat="42.48687" lon="1.70544">
        <ele>2087.9</ele>
        <time>2020-02-14T16:07:25.038Z</time>
      </trkpt>
      <trkpt lat="42.48684" lon="1.70539">
        <ele>2087.1</ele>
        <time>2020-02-14T16:07:27.329Z</time>
      </trkpt>
      <trkpt lat="42.4868" lon="1.70535">
        <ele>2087</ele>
        <time>2020-02-14T16:07:29.759Z</time>
      </trkpt>
      <trkpt lat="42.48676" lon="1.7053">
        <ele>2087.1</ele>
        <time>2020-02-14T16:07:32.265Z</time>
      </trkpt>
      <trkpt lat="42.48672" lon="1.70527">
        <ele>2087</ele>
        <time>2020-02-14T16:07:34.611Z</time>
      </trkpt>
      <trkpt lat="42.48667" lon="1.70525">
        <ele>2086.2</ele>
        <time>2020-02-14T16:07:37.179Z</time>
      </trkpt>
      <trkpt lat="42.48663" lon="1.70523">
        <ele>2086.1</ele>
        <time>2020-02-14T16:07:39.526Z</time>
      </trkpt>
      <trkpt lat="42.48659" lon="1.70519">
        <ele>2085.3</ele>
        <time>2020-02-14T16:07:42.045Z</time>
      </trkpt>
      <trkpt lat="42.48654" lon="1.70516">
        <ele>2084.2</ele>
        <time>2020-02-14T16:07:44.786Z</time>
      </trkpt>
      <trkpt lat="42.48649" lon="1.70513">
        <ele>2083.1</ele>
        <time>2020-02-14T16:07:47.306Z</time>
      </trkpt>
      <trkpt lat="42.48644" lon="1.70512">
        <ele>2082.9</ele>
        <time>2020-02-14T16:07:49.805Z</time>
      </trkpt>
      <trkpt lat="42.48639" lon="1.70509">
        <ele>2081.9</ele>
        <time>2020-02-14T16:07:52.587Z</time>
      </trkpt>
      <trkpt lat="42.48635" lon="1.70507">
        <ele>2081.8</ele>
        <time>2020-02-14T16:07:54.878Z</time>
      </trkpt>
      <trkpt lat="42.48629" lon="1.70504">
        <ele>2081.9</ele>
        <time>2020-02-14T16:07:57.723Z</time>
      </trkpt>
      <trkpt lat="42.48624" lon="1.70502">
        <ele>2081.3</ele>
        <time>2020-02-14T16:08:00.215Z</time>
      </trkpt>
      <trkpt lat="42.4862" lon="1.70499">
        <ele>2080.6</ele>
        <time>2020-02-14T16:08:02.617Z</time>
      </trkpt>
      <trkpt lat="42.48615" lon="1.70497">
        <ele>2080.1</ele>
        <time>2020-02-14T16:08:05.137Z</time>
      </trkpt>
      <trkpt lat="42.4861" lon="1.70494">
        <ele>2079.6</ele>
        <time>2020-02-14T16:08:07.816Z</time>
      </trkpt>
      <trkpt lat="42.48605" lon="1.70491">
        <ele>2078.8</ele>
        <time>2020-02-14T16:08:10.487Z</time>
      </trkpt>
      <trkpt lat="42.48601" lon="1.70488">
        <ele>2078</ele>
        <time>2020-02-14T16:08:13.007Z</time>
      </trkpt>
      <trkpt lat="42.48596" lon="1.70484">
        <ele>2077.8</ele>
        <time>2020-02-14T16:08:15.707Z</time>
      </trkpt>
      <trkpt lat="42.48592" lon="1.70481">
        <ele>2078.1</ele>
        <time>2020-02-14T16:08:18.074Z</time>
      </trkpt>
      <trkpt lat="42.48587" lon="1.70481">
        <ele>2078</ele>
        <time>2020-02-14T16:08:20.538Z</time>
      </trkpt>
      <trkpt lat="42.48583" lon="1.70478">
        <ele>2077.4</ele>
        <time>2020-02-14T16:08:22.926Z</time>
      </trkpt>
      <trkpt lat="42.48579" lon="1.70474">
        <ele>2077.1</ele>
        <time>2020-02-14T16:08:25.280Z</time>
      </trkpt>
      <trkpt lat="42.48574" lon="1.7047">
        <ele>2077.1</ele>
        <time>2020-02-14T16:08:28.138Z</time>
      </trkpt>
      <trkpt lat="42.48569" lon="1.70465">
        <ele>2077.3</ele>
        <time>2020-02-14T16:08:31.025Z</time>
      </trkpt>
      <trkpt lat="42.48565" lon="1.7046">
        <ele>2077.3</ele>
        <time>2020-02-14T16:08:33.503Z</time>
      </trkpt>
      <trkpt lat="42.4856" lon="1.70459">
        <ele>2076.8</ele>
        <time>2020-02-14T16:08:36.161Z</time>
      </trkpt>
      <trkpt lat="42.48555" lon="1.70458">
        <ele>2077.3</ele>
        <time>2020-02-14T16:08:38.888Z</time>
      </trkpt>
      <trkpt lat="42.48549" lon="1.70456">
        <ele>2076.9</ele>
        <time>2020-02-14T16:08:41.608Z</time>
      </trkpt>
      <trkpt lat="42.48544" lon="1.70455">
        <ele>2077.3</ele>
        <time>2020-02-14T16:08:44.149Z</time>
      </trkpt>
      <trkpt lat="42.4854" lon="1.70453">
        <ele>2077.7</ele>
        <time>2020-02-14T16:08:46.364Z</time>
      </trkpt>
      <trkpt lat="42.48535" lon="1.70451">
        <ele>2078.4</ele>
        <time>2020-02-14T16:08:48.897Z</time>
      </trkpt>
      <trkpt lat="42.48533" lon="1.70444">
        <ele>2079.4</ele>
        <time>2020-02-14T16:08:51.659Z</time>
      </trkpt>
      <trkpt lat="42.48528" lon="1.70443">
        <ele>2078.4</ele>
        <time>2020-02-14T16:08:53.943Z</time>
      </trkpt>
      <trkpt lat="42.48524" lon="1.70443">
        <ele>2076.8</ele>
        <time>2020-02-14T16:08:56.373Z</time>
      </trkpt>
      <trkpt lat="42.48519" lon="1.70442">
        <ele>2076.2</ele>
        <time>2020-02-14T16:08:58.705Z</time>
      </trkpt>
      <trkpt lat="42.4852" lon="1.70435">
        <ele>2074.9</ele>
        <time>2020-02-14T16:09:01.156Z</time>
      </trkpt>
      <trkpt lat="42.48521" lon="1.70429">
        <ele>2073</ele>
        <time>2020-02-14T16:09:03.662Z</time>
      </trkpt>
      <trkpt lat="42.48523" lon="1.70423">
        <ele>2071.9</ele>
        <time>2020-02-14T16:09:06.112Z</time>
      </trkpt>
      <trkpt lat="42.48525" lon="1.70417">
        <ele>2071</ele>
        <time>2020-02-14T16:09:08.597Z</time>
      </trkpt>
      <trkpt lat="42.48528" lon="1.70411">
        <ele>2069.8</ele>
        <time>2020-02-14T16:09:11.407Z</time>
      </trkpt>
      <trkpt lat="42.48531" lon="1.70404">
        <ele>2069.4</ele>
        <time>2020-02-14T16:09:14.107Z</time>
      </trkpt>
      <trkpt lat="42.48534" lon="1.70398">
        <ele>2068</ele>
        <time>2020-02-14T16:09:16.675Z</time>
      </trkpt>
      <trkpt lat="42.48535" lon="1.70392">
        <ele>2067.1</ele>
        <time>2020-02-14T16:09:19.042Z</time>
      </trkpt>
      <trkpt lat="42.48538" lon="1.70387">
        <ele>2066.2</ele>
        <time>2020-02-14T16:09:21.499Z</time>
      </trkpt>
      <trkpt lat="42.48541" lon="1.70381">
        <ele>2066.4</ele>
        <time>2020-02-14T16:09:24.137Z</time>
      </trkpt>
      <trkpt lat="42.48543" lon="1.70375">
        <ele>2066.3</ele>
        <time>2020-02-14T16:09:26.372Z</time>
      </trkpt>
      <trkpt lat="42.48544" lon="1.70367">
        <ele>2066.1</ele>
        <time>2020-02-14T16:09:29.307Z</time>
      </trkpt>
      <trkpt lat="42.48528" lon="1.70355">
        <ele>2061.1</ele>
        <time>2020-02-14T16:09:38.596Z</time>
      </trkpt>
      <trkpt lat="42.48462" lon="1.70471">
        <ele>2065</ele>
        <time>2020-02-14T16:10:31.964Z</time>
      </trkpt>
      <trkpt lat="42.48405" lon="1.70629">
        <ele>2088</ele>
        <time>2020-02-14T16:11:36.927Z</time>
      </trkpt>
      <trkpt lat="42.4837" lon="1.70865">
        <ele>2148.1</ele>
        <time>2020-02-14T16:13:08.317Z</time>
      </trkpt>
      <trkpt lat="42.48297" lon="1.7108">
        <ele>2251</ele>
        <time>2020-02-14T16:14:45.500Z</time>
      </trkpt>
      <trkpt lat="42.48189" lon="1.71269">
        <ele>2325.1</ele>
        <time>2020-02-14T16:16:18.178Z</time>
      </trkpt>
      <trkpt lat="42.48177" lon="1.71455">
        <ele>2361.1</ele>
        <time>2020-02-14T16:17:28.131Z</time>
      </trkpt>
      <trkpt lat="42.4815" lon="1.71533">
        <ele>2380</ele>
        <time>2020-02-14T16:18:00.269Z</time>
      </trkpt>
      <trkpt lat="42.48158" lon="1.71734">
        <ele>2456</ele>
        <time>2020-02-14T16:19:20.999Z</time>
      </trkpt>
      <trkpt lat="42.48107" lon="1.71964">
        <ele>2523</ele>
        <time>2020-02-14T16:20:52.991Z</time>
      </trkpt>
      <trkpt lat="42.48075" lon="1.72114">
        <ele>2590</ele>
        <time>2020-02-14T16:21:57.033Z</time>
      </trkpt>
      <trkpt lat="42.48069" lon="1.72342">
        <ele>2639</ele>
        <time>2020-02-14T16:23:22.539Z</time>
      </trkpt>
      <trkpt lat="42.48091" lon="1.72483">
        <ele>2663</ele>
        <time>2020-02-14T16:24:16.184Z</time>
      </trkpt>
      <trkpt lat="42.48115" lon="1.72569">
        <ele>2676</ele>
        <time>2020-02-14T16:24:49.963Z</time>
      </trkpt>
      <trkpt lat="42.48115" lon="1.72691">
        <ele>2680</ele>
        <time>2020-02-14T16:25:34.423Z</time>
      </trkpt>
      <trkpt lat="42.48086" lon="1.72706">
        <ele>2691.8</ele>
        <time>2020-02-14T16:25:50.322Z</time>
      </trkpt>
      <trkpt lat="42.48075" lon="1.72714">
        <ele>2693.7</ele>
        <time>2020-02-14T16:25:56.649Z</time>
      </trkpt>
      <trkpt lat="42.48062" lon="1.72726">
        <ele>2696.5</ele>
        <time>2020-02-14T16:26:04.671Z</time>
      </trkpt>
      <trkpt lat="42.48054" lon="1.72737">
        <ele>2698.9</ele>
        <time>2020-02-14T16:26:10.327Z</time>
      </trkpt>
      <trkpt lat="42.48047" lon="1.72746">
        <ele>2700.8</ele>
        <time>2020-02-14T16:26:15.317Z</time>
      </trkpt>
      <trkpt lat="42.48046" lon="1.72747">
        <ele>2701</ele>
        <time>2020-02-14T16:26:15.795Z</time>
      </trkpt>
      <trkpt lat="42.48036" lon="1.72756">
        <ele>2703.8</ele>
        <time>2020-02-14T16:26:21.976Z</time>
      </trkpt>
      <trkpt lat="42.48035" lon="1.72757">
        <ele>2704.2</ele>
        <time>2020-02-14T16:26:22.495Z</time>
      </trkpt>
      <trkpt lat="42.48023" lon="1.72767">
        <ele>2707.8</ele>
        <time>2020-02-14T16:26:29.763Z</time>
      </trkpt>
      <trkpt lat="42.48015" lon="1.72775">
        <ele>2709.9</ele>
        <time>2020-02-14T16:26:34.325Z</time>
      </trkpt>
      <trkpt lat="42.48006" lon="1.72787">
        <ele>2713</ele>
        <time>2020-02-14T16:26:40.935Z</time>
      </trkpt>
      <trkpt lat="42.47997" lon="1.72796">
        <ele>2715.7</ele>
        <time>2020-02-14T16:26:46.646Z</time>
      </trkpt>
      <trkpt lat="42.47984" lon="1.72806">
        <ele>2718.8</ele>
        <time>2020-02-14T16:26:54.149Z</time>
      </trkpt>
      <trkpt lat="42.47972" lon="1.72814">
        <ele>2721.9</ele>
        <time>2020-02-14T16:27:00.600Z</time>
      </trkpt>
      <trkpt lat="42.47962" lon="1.72823">
        <ele>2724.9</ele>
        <time>2020-02-14T16:27:06.844Z</time>
      </trkpt>
      <trkpt lat="42.47952" lon="1.7283">
        <ele>2727.4</ele>
        <time>2020-02-14T16:27:12.354Z</time>
      </trkpt>
      <trkpt lat="42.4794" lon="1.7284">
        <ele>2731.2</ele>
        <time>2020-02-14T16:27:19.386Z</time>
      </trkpt>
      <trkpt lat="42.4793" lon="1.72847">
        <ele>2734.4</ele>
        <time>2020-02-14T16:27:25.568Z</time>
      </trkpt>
      <trkpt lat="42.4792" lon="1.72855">
        <ele>2737.4</ele>
        <time>2020-02-14T16:27:31.458Z</time>
      </trkpt>
      <trkpt lat="42.47916" lon="1.72859">
        <ele>2738.5</ele>
        <time>2020-02-14T16:27:33.493Z</time>
      </trkpt>
      <trkpt lat="42.47914" lon="1.72862">
        <ele>2739.5</ele>
        <time>2020-02-14T16:27:35.245Z</time>
      </trkpt>
      <trkpt lat="42.47911" lon="1.72863">
        <ele>2740.2</ele>
        <time>2020-02-14T16:27:36.712Z</time>
      </trkpt>
      <trkpt lat="42.479" lon="1.72869">
        <ele>2743.1</ele>
        <time>2020-02-14T16:27:42.866Z</time>
      </trkpt>
      <trkpt lat="42.47892" lon="1.72877">
        <ele>2745.9</ele>
        <time>2020-02-14T16:27:47.552Z</time>
      </trkpt>
      <trkpt lat="42.47882" lon="1.72888">
        <ele>2750</ele>
        <time>2020-02-14T16:27:54.377Z</time>
      </trkpt>
      <trkpt lat="42.47875" lon="1.72892">
        <ele>2752.2</ele>
        <time>2020-02-14T16:27:58.295Z</time>
      </trkpt>
      <trkpt lat="42.47865" lon="1.72901">
        <ele>2755.6</ele>
        <time>2020-02-14T16:28:04.240Z</time>
      </trkpt>
      <trkpt lat="42.47856" lon="1.7291">
        <ele>2758.9</ele>
        <time>2020-02-14T16:28:10.131Z</time>
      </trkpt>
      <trkpt lat="42.47848" lon="1.72916">
        <ele>2761.3</ele>
        <time>2020-02-14T16:28:14.616Z</time>
      </trkpt>
      <trkpt lat="42.47838" lon="1.72924">
        <ele>2764.4</ele>
        <time>2020-02-14T16:28:20.334Z</time>
      </trkpt>
      <trkpt lat="42.47829" lon="1.7293">
        <ele>2767.2</ele>
        <time>2020-02-14T16:28:25.352Z</time>
      </trkpt>
      <trkpt lat="42.47822" lon="1.72936">
        <ele>2769.9</ele>
        <time>2020-02-14T16:28:29.651Z</time>
      </trkpt>
      <trkpt lat="42.47812" lon="1.72946">
        <ele>2773.8</ele>
        <time>2020-02-14T16:28:36.067Z</time>
      </trkpt>
      <trkpt lat="42.47804" lon="1.72952">
        <ele>2776.8</ele>
        <time>2020-02-14T16:28:40.975Z</time>
      </trkpt>
      <trkpt lat="42.47794" lon="1.72961">
        <ele>2780.5</ele>
        <time>2020-02-14T16:28:46.949Z</time>
      </trkpt>
      <trkpt lat="42.47787" lon="1.72968">
        <ele>2783.4</ele>
        <time>2020-02-14T16:28:51.628Z</time>
      </trkpt>
      <trkpt lat="42.47779" lon="1.72977">
        <ele>2785.2</ele>
        <time>2020-02-14T16:28:56.805Z</time>
      </trkpt>
      <trkpt lat="42.47771" lon="1.72983">
        <ele>2786.7</ele>
        <time>2020-02-14T16:29:01.173Z</time>
      </trkpt>
      <trkpt lat="42.47763" lon="1.72985">
        <ele>2788.8</ele>
        <time>2020-02-14T16:29:05.223Z</time>
      </trkpt>
      <trkpt lat="42.47755" lon="1.72992">
        <ele>2791.1</ele>
        <time>2020-02-14T16:29:09.881Z</time>
      </trkpt>
      <trkpt lat="42.47752" lon="1.72993">
        <ele>2792.4</ele>
        <time>2020-02-14T16:29:11.646Z</time>
      </trkpt>
      <trkpt lat="42.47743" lon="1.72997">
        <ele>2794.4</ele>
        <time>2020-02-14T16:29:16.235Z</time>
      </trkpt>
      <trkpt lat="42.47739" lon="1.72998">
        <ele>2795.4</ele>
        <time>2020-02-14T16:29:18.699Z</time>
      </trkpt>
      <trkpt lat="42.47738" lon="1.72998">
        <ele>2795.7</ele>
        <time>2020-02-14T16:29:19.115Z</time>
      </trkpt>
      <trkpt lat="42.4773" lon="1.72999">
        <ele>2797.3</ele>
        <time>2020-02-14T16:29:23.046Z</time>
      </trkpt>
      <trkpt lat="42.47728" lon="1.72998">
        <ele>2797.9</ele>
        <time>2020-02-14T16:29:24.189Z</time>
      </trkpt>
      <trkpt lat="42.47725" lon="1.72997">
        <ele>2798.5</ele>
        <time>2020-02-14T16:29:25.829Z</time>
      </trkpt>
      <trkpt lat="42.47712" lon="1.72994">
        <ele>2799.6</ele>
        <time>2020-02-14T16:29:31.927Z</time>
      </trkpt>
      <trkpt lat="42.4771" lon="1.72997">
        <ele>2799.9</ele>
        <time>2020-02-14T16:29:33.893Z</time>
      </trkpt>
      <trkpt lat="42.47708" lon="1.72997">
        <ele>2800</ele>
        <time>2020-02-14T16:29:34.564Z</time>
      </trkpt>
      <trkpt lat="42.47703" lon="1.72993">
        <ele>2800.4</ele>
        <time>2020-02-14T16:29:37.486Z</time>
      </trkpt>
      <trkpt lat="42.47699" lon="1.72993">
        <ele>2800.7</ele>
        <time>2020-02-14T16:29:39.320Z</time>
      </trkpt>
      <trkpt lat="42.47699" lon="1.72993">
        <ele>2800.8</ele>
        <time>2020-02-14T16:29:39.631Z</time>
      </trkpt>
      <trkpt lat="42.47701" lon="1.72995">
        <ele>2800.5</ele>
        <time>2020-02-14T16:29:40.870Z</time>
      </trkpt>
      <trkpt lat="42.47699" lon="1.72995">
        <ele>2800.7</ele>
        <time>2020-02-14T16:29:41.881Z</time>
      </trkpt>
      <trkpt lat="42.47697" lon="1.72995">
        <ele>2800.9</ele>
        <time>2020-02-14T16:29:42.815Z</time>
      </trkpt>
      <trkpt lat="42.47696" lon="1.72995">
        <ele>2800.9</ele>
        <time>2020-02-14T16:29:42.982Z</time>
      </trkpt>
      <trkpt lat="42.47697" lon="1.72995">
        <ele>2800.9</ele>
        <time>2020-02-14T16:29:43.189Z</time>
      </trkpt>
      <trkpt lat="42.47695" lon="1.72993">
        <ele>2801</ele>
        <time>2020-02-14T16:29:44.234Z</time>
      </trkpt>
      <trkpt lat="42.47692" lon="1.72994">
        <ele>2799.4</ele>
        <time>2020-02-14T16:29:46.089Z</time>
      </trkpt>
      <trkpt lat="42.47691" lon="1.72993">
        <ele>2799</ele>
        <time>2020-02-14T16:29:46.609Z</time>
      </trkpt>
      <trkpt lat="42.4769" lon="1.72992">
        <ele>2798.2</ele>
        <time>2020-02-14T16:29:47.398Z</time>
      </trkpt>
      <trkpt lat="42.47686" lon="1.72996">
        <ele>2796.2</ele>
        <time>2020-02-14T16:29:50.097Z</time>
      </trkpt>
      <trkpt lat="42.47686" lon="1.72997">
        <ele>2796.5</ele>
        <time>2020-02-14T16:29:50.346Z</time>
      </trkpt>
      <trkpt lat="42.47685" lon="1.72998">
        <ele>2795.7</ele>
        <time>2020-02-14T16:29:51.177Z</time>
      </trkpt>
      <trkpt lat="42.47682" lon="1.72993">
        <ele>2794.1</ele>
        <time>2020-02-14T16:29:53.427Z</time>
      </trkpt>
      <trkpt lat="42.47682" lon="1.72993">
        <ele>2793.8</ele>
        <time>2020-02-14T16:29:53.759Z</time>
      </trkpt>
      <trkpt lat="42.47678" lon="1.72986">
        <ele>2791.1</ele>
        <time>2020-02-14T16:29:57.130Z</time>
      </trkpt>
      <trkpt lat="42.47676" lon="1.72987">
        <ele>2790.2</ele>
        <time>2020-02-14T16:29:58.009Z</time>
      </trkpt>
      <trkpt lat="42.47673" lon="1.72988">
        <ele>2788.3</ele>
        <time>2020-02-14T16:29:59.982Z</time>
      </trkpt>
      <trkpt lat="42.4767" lon="1.72994">
        <ele>2787.1</ele>
        <time>2020-02-14T16:30:02.612Z</time>
      </trkpt>
      <trkpt lat="42.4767" lon="1.73001">
        <ele>2787.6</ele>
        <time>2020-02-14T16:30:05.166Z</time>
      </trkpt>
      <trkpt lat="42.47668" lon="1.73006">
        <ele>2785.5</ele>
        <time>2020-02-14T16:30:07.347Z</time>
      </trkpt>
      <trkpt lat="42.47666" lon="1.7301">
        <ele>2783.4</ele>
        <time>2020-02-14T16:30:09.589Z</time>
      </trkpt>
      <trkpt lat="42.47665" lon="1.73011">
        <ele>2783</ele>
        <time>2020-02-14T16:30:10.150Z</time>
      </trkpt>
      <trkpt lat="42.47663" lon="1.73012">
        <ele>2781.9</ele>
        <time>2020-02-14T16:30:11.271Z</time>
      </trkpt>
      <trkpt lat="42.47656" lon="1.73016">
        <ele>2778.4</ele>
        <time>2020-02-14T16:30:15.508Z</time>
      </trkpt>
      <trkpt lat="42.47653" lon="1.73019">
        <ele>2777.2</ele>
        <time>2020-02-14T16:30:17.418Z</time>
      </trkpt>
      <trkpt lat="42.47653" lon="1.7302">
        <ele>2777.2</ele>
        <time>2020-02-14T16:30:17.508Z</time>
      </trkpt>
      <trkpt lat="42.47653" lon="1.7302">
        <ele>2777.1</ele>
        <time>2020-02-14T16:30:17.750Z</time>
      </trkpt>
      <trkpt lat="42.47651" lon="1.73023">
        <ele>2776.6</ele>
        <time>2020-02-14T16:30:19.052Z</time>
      </trkpt>
      <trkpt lat="42.47647" lon="1.73026">
        <ele>2775.8</ele>
        <time>2020-02-14T16:30:21.253Z</time>
      </trkpt>
      <trkpt lat="42.47646" lon="1.7303">
        <ele>2775.2</ele>
        <time>2020-02-14T16:30:22.893Z</time>
      </trkpt>
      <trkpt lat="42.47639" lon="1.73034">
        <ele>2773.2</ele>
        <time>2020-02-14T16:30:26.756Z</time>
      </trkpt>
      <trkpt lat="42.47631" lon="1.73043">
        <ele>2768.9</ele>
        <time>2020-02-14T16:30:32.342Z</time>
      </trkpt>
      <trkpt lat="42.47628" lon="1.73047">
        <ele>2768.1</ele>
        <time>2020-02-14T16:30:34.460Z</time>
      </trkpt>
      <trkpt lat="42.47626" lon="1.73052">
        <ele>2767.9</ele>
        <time>2020-02-14T16:30:36.702Z</time>
      </trkpt>
      <trkpt lat="42.47615" lon="1.73078">
        <ele>2770.9</ele>
        <time>2020-02-14T16:30:47.577Z</time>
      </trkpt>
      <trkpt lat="42.4761" lon="1.73097">
        <ele>2772.9</ele>
        <time>2020-02-14T16:30:54.873Z</time>
      </trkpt>
      <trkpt lat="42.47606" lon="1.73111">
        <ele>2774</ele>
        <time>2020-02-14T16:31:00.369Z</time>
      </trkpt>
      <trkpt lat="42.47604" lon="1.73116">
        <ele>2773.8</ele>
        <time>2020-02-14T16:31:02.597Z</time>
      </trkpt>
      <trkpt lat="42.476" lon="1.7312">
        <ele>2774.2</ele>
        <time>2020-02-14T16:31:04.771Z</time>
      </trkpt>
      <trkpt lat="42.47598" lon="1.73127">
        <ele>2774.7</ele>
        <time>2020-02-14T16:31:07.519Z</time>
      </trkpt>
      <trkpt lat="42.47598" lon="1.7313">
        <ele>2774.9</ele>
        <time>2020-02-14T16:31:08.543Z</time>
      </trkpt>
      <trkpt lat="42.47598" lon="1.73134">
        <ele>2775</ele>
        <time>2020-02-14T16:31:10.004Z</time>
      </trkpt>
      <trkpt lat="42.47594" lon="1.73136">
        <ele>2776.6</ele>
        <time>2020-02-14T16:31:12.219Z</time>
      </trkpt>
      <trkpt lat="42.47589" lon="1.73138">
        <ele>2778.7</ele>
        <time>2020-02-14T16:31:14.891Z</time>
      </trkpt>
      <trkpt lat="42.47585" lon="1.73139">
        <ele>2780.3</ele>
        <time>2020-02-14T16:31:16.988Z</time>
      </trkpt>
      <trkpt lat="42.47582" lon="1.73142">
        <ele>2779.9</ele>
        <time>2020-02-14T16:31:19.058Z</time>
      </trkpt>
      <trkpt lat="42.47573" lon="1.7315">
        <ele>2778.2</ele>
        <time>2020-02-14T16:31:24.228Z</time>
      </trkpt>
      <trkpt lat="42.47573" lon="1.73151">
        <ele>2778.3</ele>
        <time>2020-02-14T16:31:24.436Z</time>
      </trkpt>
      <trkpt lat="42.47565" lon="1.73158">
        <ele>2779</ele>
        <time>2020-02-14T16:31:29.219Z</time>
      </trkpt>
      <trkpt lat="42.47553" lon="1.73164">
        <ele>2781.8</ele>
        <time>2020-02-14T16:31:35.836Z</time>
      </trkpt>
      <trkpt lat="42.47547" lon="1.73167">
        <ele>2781.4</ele>
        <time>2020-02-14T16:31:38.917Z</time>
      </trkpt>
      <trkpt lat="42.47543" lon="1.73168">
        <ele>2780.5</ele>
        <time>2020-02-14T16:31:41.222Z</time>
      </trkpt>
      <trkpt lat="42.47533" lon="1.73177">
        <ele>2777.7</ele>
        <time>2020-02-14T16:31:46.981Z</time>
      </trkpt>
      <trkpt lat="42.47527" lon="1.73179">
        <ele>2777.1</ele>
        <time>2020-02-14T16:31:49.874Z</time>
      </trkpt>
      <trkpt lat="42.47525" lon="1.73182">
        <ele>2776.5</ele>
        <time>2020-02-14T16:31:51.293Z</time>
      </trkpt>
      <trkpt lat="42.47515" lon="1.73188">
        <ele>2774.9</ele>
        <time>2020-02-14T16:31:56.921Z</time>
      </trkpt>
      <trkpt lat="42.47507" lon="1.73191">
        <ele>2774.5</ele>
        <time>2020-02-14T16:32:01.129Z</time>
      </trkpt>
      <trkpt lat="42.47496" lon="1.732">
        <ele>2775.4</ele>
        <time>2020-02-14T16:32:07.553Z</time>
      </trkpt>
      <trkpt lat="42.47493" lon="1.73201">
        <ele>2775.6</ele>
        <time>2020-02-14T16:32:08.792Z</time>
      </trkpt>
      <trkpt lat="42.47486" lon="1.73207">
        <ele>2776.5</ele>
        <time>2020-02-14T16:32:13.201Z</time>
      </trkpt>
      <trkpt lat="42.47484" lon="1.73208">
        <ele>2776.9</ele>
        <time>2020-02-14T16:32:14.198Z</time>
      </trkpt>
      <trkpt lat="42.47475" lon="1.73215">
        <ele>2778.8</ele>
        <time>2020-02-14T16:32:19.168Z</time>
      </trkpt>
      <trkpt lat="42.47471" lon="1.73221">
        <ele>2780.7</ele>
        <time>2020-02-14T16:32:22.497Z</time>
      </trkpt>
      <trkpt lat="42.47457" lon="1.73231">
        <ele>2782.8</ele>
        <time>2020-02-14T16:32:30.111Z</time>
      </trkpt>
      <trkpt lat="42.47447" lon="1.73239">
        <ele>2784.8</ele>
        <time>2020-02-14T16:32:36.078Z</time>
      </trkpt>
      <trkpt lat="42.47441" lon="1.73243">
        <ele>2785.8</ele>
        <time>2020-02-14T16:32:39.241Z</time>
      </trkpt>
      <trkpt lat="42.47433" lon="1.73251">
        <ele>2787.9</ele>
        <time>2020-02-14T16:32:44.287Z</time>
      </trkpt>
      <trkpt lat="42.47432" lon="1.73251">
        <ele>2788.1</ele>
        <time>2020-02-14T16:32:44.896Z</time>
      </trkpt>
      <trkpt lat="42.47421" lon="1.73259">
        <ele>2789.9</ele>
        <time>2020-02-14T16:32:50.738Z</time>
      </trkpt>
      <trkpt lat="42.47415" lon="1.73264">
        <ele>2791.4</ele>
        <time>2020-02-14T16:32:54.476Z</time>
      </trkpt>
      <trkpt lat="42.47407" lon="1.7327">
        <ele>2793.9</ele>
        <time>2020-02-14T16:32:59.121Z</time>
      </trkpt>
      <trkpt lat="42.47405" lon="1.73273">
        <ele>2795.2</ele>
        <time>2020-02-14T16:33:00.720Z</time>
      </trkpt>
      <trkpt lat="42.47403" lon="1.73276">
        <ele>2796.3</ele>
        <time>2020-02-14T16:33:02.077Z</time>
      </trkpt>
      <trkpt lat="42.47397" lon="1.73281">
        <ele>2798.6</ele>
        <time>2020-02-14T16:33:05.669Z</time>
      </trkpt>
      <trkpt lat="42.47391" lon="1.73286">
        <ele>2800.7</ele>
        <time>2020-02-14T16:33:09.324Z</time>
      </trkpt>
      <trkpt lat="42.47385" lon="1.73292">
        <ele>2801.9</ele>
        <time>2020-02-14T16:33:13.075Z</time>
      </trkpt>
      <trkpt lat="42.47376" lon="1.73301">
        <ele>2804.1</ele>
        <time>2020-02-14T16:33:18.592Z</time>
      </trkpt>
      <trkpt lat="42.47372" lon="1.73305">
        <ele>2805.7</ele>
        <time>2020-02-14T16:33:21.396Z</time>
      </trkpt>
      <trkpt lat="42.47371" lon="1.73306">
        <ele>2805.8</ele>
        <time>2020-02-14T16:33:21.991Z</time>
      </trkpt>
      <trkpt lat="42.4737" lon="1.73307">
        <ele>2805.9</ele>
        <time>2020-02-14T16:33:22.538Z</time>
      </trkpt>
      <trkpt lat="42.47369" lon="1.73306">
        <ele>2806.1</ele>
        <time>2020-02-14T16:33:22.856Z</time>
      </trkpt>
      <trkpt lat="42.47368" lon="1.73305">
        <ele>2806.6</ele>
        <time>2020-02-14T16:33:23.874Z</time>
      </trkpt>
      <trkpt lat="42.47364" lon="1.73304">
        <ele>2807</ele>
        <time>2020-02-14T16:33:25.466Z</time>
      </trkpt>
      <trkpt lat="42.47365" lon="1.73304">
        <ele>2806.9</ele>
        <time>2020-02-14T16:33:25.916Z</time>
      </trkpt>
      <trkpt lat="42.47365" lon="1.73304">
        <ele>2806.8</ele>
        <time>2020-02-14T16:33:25.943Z</time>
      </trkpt>
      <trkpt lat="42.47365" lon="1.73304">
        <ele>2806.7</ele>
        <time>2020-02-14T16:33:26.075Z</time>
      </trkpt>
      <trkpt lat="42.47366" lon="1.73304">
        <ele>2806.7</ele>
        <time>2020-02-14T16:33:26.289Z</time>
      </trkpt>
      <trkpt lat="42.47366" lon="1.73304">
        <ele>2806.6</ele>
        <time>2020-02-14T16:33:26.386Z</time>
      </trkpt>
      <trkpt lat="42.47365" lon="1.73305">
        <ele>2807</ele>
        <time>2020-02-14T16:33:26.988Z</time>
      </trkpt>
      <trkpt lat="42.47364" lon="1.73305">
        <ele>2807.3</ele>
        <time>2020-02-14T16:33:27.341Z</time>
      </trkpt>
      <trkpt lat="42.47365" lon="1.73304">
        <ele>2807</ele>
        <time>2020-02-14T16:33:27.688Z</time>
      </trkpt>
      <trkpt lat="42.47365" lon="1.73305">
        <ele>2807</ele>
        <time>2020-02-14T16:33:27.916Z</time>
      </trkpt>
      <trkpt lat="42.47365" lon="1.73304">
        <ele>2807</ele>
        <time>2020-02-14T16:33:28.068Z</time>
      </trkpt>
      <trkpt lat="42.47365" lon="1.73305">
        <ele>2806.9</ele>
        <time>2020-02-14T16:33:28.380Z</time>
      </trkpt>
      <trkpt lat="42.47366" lon="1.73306">
        <ele>2806.9</ele>
        <time>2020-02-14T16:33:28.857Z</time>
      </trkpt>
      <trkpt lat="42.47367" lon="1.73306">
        <ele>2806.8</ele>
        <time>2020-02-14T16:33:29.217Z</time>
      </trkpt>
      <trkpt lat="42.47365" lon="1.73306">
        <ele>2807.2</ele>
        <time>2020-02-14T16:33:30.269Z</time>
      </trkpt>
      <trkpt lat="42.4736" lon="1.73303">
        <ele>2807.1</ele>
        <time>2020-02-14T16:33:32.692Z</time>
      </trkpt>
      <trkpt lat="42.47361" lon="1.73303">
        <ele>2807.1</ele>
        <time>2020-02-14T16:33:33.024Z</time>
      </trkpt>
      <trkpt lat="42.47358" lon="1.73302">
        <ele>2806.3</ele>
        <time>2020-02-14T16:33:34.360Z</time>
      </trkpt>
      <trkpt lat="42.47352" lon="1.73301">
        <ele>2804.4</ele>
        <time>2020-02-14T16:33:37.551Z</time>
      </trkpt>
      <trkpt lat="42.47351" lon="1.73301">
        <ele>2804.2</ele>
        <time>2020-02-14T16:33:37.960Z</time>
      </trkpt>
      <trkpt lat="42.47347" lon="1.73299">
        <ele>2803</ele>
        <time>2020-02-14T16:33:39.960Z</time>
      </trkpt>
      <trkpt lat="42.47343" lon="1.73295">
        <ele>2801.6</ele>
        <time>2020-02-14T16:33:42.404Z</time>
      </trkpt>
      <trkpt lat="42.47343" lon="1.73295">
        <ele>2801.4</ele>
        <time>2020-02-14T16:33:42.570Z</time>
      </trkpt>
      <trkpt lat="42.47343" lon="1.73294">
        <ele>2801.4</ele>
        <time>2020-02-14T16:33:42.791Z</time>
      </trkpt>
      <trkpt lat="42.47343" lon="1.73295">
        <ele>2801.4</ele>
        <time>2020-02-14T16:33:42.957Z</time>
      </trkpt>
      <trkpt lat="42.47342" lon="1.73295">
        <ele>2801.2</ele>
        <time>2020-02-14T16:33:43.283Z</time>
      </trkpt>
      <trkpt lat="42.4732" lon="1.73285">
        <ele>2797.8</ele>
        <time>2020-02-14T16:33:55.098Z</time>
      </trkpt>
      <trkpt lat="42.47309" lon="1.73278">
        <ele>2798</ele>
        <time>2020-02-14T16:34:00.809Z</time>
      </trkpt>
      <trkpt lat="42.47303" lon="1.7327">
        <ele>2796.8</ele>
        <time>2020-02-14T16:34:05.080Z</time>
      </trkpt>
      <trkpt lat="42.47298" lon="1.73267">
        <ele>2796.1</ele>
        <time>2020-02-14T16:34:07.689Z</time>
      </trkpt>
      <trkpt lat="42.47297" lon="1.73267">
        <ele>2796.2</ele>
        <time>2020-02-14T16:34:08.084Z</time>
      </trkpt>
      <trkpt lat="42.47296" lon="1.73267">
        <ele>2796.1</ele>
        <time>2020-02-14T16:34:08.534Z</time>
      </trkpt>
      <trkpt lat="42.47286" lon="1.73268">
        <ele>2795.7</ele>
        <time>2020-02-14T16:34:13.483Z</time>
      </trkpt>
      <trkpt lat="42.47286" lon="1.73268">
        <ele>2795.8</ele>
        <time>2020-02-14T16:34:13.732Z</time>
      </trkpt>
      <trkpt lat="42.47284" lon="1.73267">
        <ele>2795.7</ele>
        <time>2020-02-14T16:34:14.805Z</time>
      </trkpt>
      <trkpt lat="42.47281" lon="1.73266">
        <ele>2795.6</ele>
        <time>2020-02-14T16:34:16.549Z</time>
      </trkpt>
      <trkpt lat="42.47272" lon="1.73261">
        <ele>2794.5</ele>
        <time>2020-02-14T16:34:21.069Z</time>
      </trkpt>
      <trkpt lat="42.4727" lon="1.7326">
        <ele>2794.1</ele>
        <time>2020-02-14T16:34:22.288Z</time>
      </trkpt>
      <trkpt lat="42.47267" lon="1.73258">
        <ele>2793.8</ele>
        <time>2020-02-14T16:34:23.873Z</time>
      </trkpt>
      <trkpt lat="42.47267" lon="1.73258">
        <ele>2793.8</ele>
        <time>2020-02-14T16:34:23.997Z</time>
      </trkpt>
      <trkpt lat="42.47265" lon="1.73258">
        <ele>2793.4</ele>
        <time>2020-02-14T16:34:24.994Z</time>
      </trkpt>
      <trkpt lat="42.47261" lon="1.73254">
        <ele>2793.4</ele>
        <time>2020-02-14T16:34:27.541Z</time>
      </trkpt>
      <trkpt lat="42.47253" lon="1.73252">
        <ele>2793</ele>
        <time>2020-02-14T16:34:31.328Z</time>
      </trkpt>
      <trkpt lat="42.47249" lon="1.73247">
        <ele>2791.5</ele>
        <time>2020-02-14T16:34:34.311Z</time>
      </trkpt>
      <trkpt lat="42.47245" lon="1.73245">
        <ele>2789.5</ele>
        <time>2020-02-14T16:34:36.457Z</time>
      </trkpt>
      <trkpt lat="42.47243" lon="1.73245">
        <ele>2788.9</ele>
        <time>2020-02-14T16:34:37.287Z</time>
      </trkpt>
      <trkpt lat="42.4724" lon="1.73244">
        <ele>2787.5</ele>
        <time>2020-02-14T16:34:39.046Z</time>
      </trkpt>
      <trkpt lat="42.47236" lon="1.73241">
        <ele>2785.5</ele>
        <time>2020-02-14T16:34:41.385Z</time>
      </trkpt>
      <trkpt lat="42.47236" lon="1.73241">
        <ele>2785.2</ele>
        <time>2020-02-14T16:34:41.856Z</time>
      </trkpt>
      <trkpt lat="42.47233" lon="1.73241">
        <ele>2784.2</ele>
        <time>2020-02-14T16:34:43.399Z</time>
      </trkpt>
      <trkpt lat="42.47228" lon="1.73236">
        <ele>2782.1</ele>
        <time>2020-02-14T16:34:46.452Z</time>
      </trkpt>
      <trkpt lat="42.47226" lon="1.73234">
        <ele>2781.4</ele>
        <time>2020-02-14T16:34:47.656Z</time>
      </trkpt>
      <trkpt lat="42.47217" lon="1.73226">
        <ele>2778.9</ele>
        <time>2020-02-14T16:34:53.152Z</time>
      </trkpt>
      <trkpt lat="42.47199" lon="1.73213">
        <ele>2775.2</ele>
        <time>2020-02-14T16:35:03.085Z</time>
      </trkpt>
      <trkpt lat="42.472" lon="1.73213">
        <ele>2775.1</ele>
        <time>2020-02-14T16:35:03.286Z</time>
      </trkpt>
      <trkpt lat="42.47199" lon="1.73213">
        <ele>2775.1</ele>
        <time>2020-02-14T16:35:03.632Z</time>
      </trkpt>
      <trkpt lat="42.47194" lon="1.73209">
        <ele>2774.8</ele>
        <time>2020-02-14T16:35:06.629Z</time>
      </trkpt>
      <trkpt lat="42.47191" lon="1.73207">
        <ele>2774.5</ele>
        <time>2020-02-14T16:35:07.882Z</time>
      </trkpt>
      <trkpt lat="42.47185" lon="1.73202">
        <ele>2773.7</ele>
        <time>2020-02-14T16:35:11.482Z</time>
      </trkpt>
      <trkpt lat="42.47182" lon="1.73201">
        <ele>2773.2</ele>
        <time>2020-02-14T16:35:13.268Z</time>
      </trkpt>
      <trkpt lat="42.4718" lon="1.73199">
        <ele>2773.2</ele>
        <time>2020-02-14T16:35:14.195Z</time>
      </trkpt>
      <trkpt lat="42.47178" lon="1.73197">
        <ele>2773.3</ele>
        <time>2020-02-14T16:35:15.420Z</time>
      </trkpt>
      <trkpt lat="42.47177" lon="1.73198">
        <ele>2772.8</ele>
        <time>2020-02-14T16:35:16.202Z</time>
      </trkpt>
      <trkpt lat="42.47175" lon="1.73198">
        <ele>2772.4</ele>
        <time>2020-02-14T16:35:17.116Z</time>
      </trkpt>
      <trkpt lat="42.47161" lon="1.73193">
        <ele>2770.9</ele>
        <time>2020-02-14T16:35:24.384Z</time>
      </trkpt>
      <trkpt lat="42.47159" lon="1.73192">
        <ele>2770.4</ele>
        <time>2020-02-14T16:35:25.443Z</time>
      </trkpt>
      <trkpt lat="42.47155" lon="1.73191">
        <ele>2769.4</ele>
        <time>2020-02-14T16:35:27.672Z</time>
      </trkpt>
      <trkpt lat="42.47146" lon="1.73183">
        <ele>2767.3</ele>
        <time>2020-02-14T16:35:32.815Z</time>
      </trkpt>
      <trkpt lat="42.47142" lon="1.73182">
        <ele>2767.1</ele>
        <time>2020-02-14T16:35:34.622Z</time>
      </trkpt>
      <trkpt lat="42.47139" lon="1.73181">
        <ele>2767</ele>
        <time>2020-02-14T16:35:36.567Z</time>
      </trkpt>
      <trkpt lat="42.47132" lon="1.73178">
        <ele>2766.9</ele>
        <time>2020-02-14T16:35:39.848Z</time>
      </trkpt>
      <trkpt lat="42.47126" lon="1.73177">
        <ele>2766.7</ele>
        <time>2020-02-14T16:35:43.170Z</time>
      </trkpt>
      <trkpt lat="42.47123" lon="1.73177">
        <ele>2766.7</ele>
        <time>2020-02-14T16:35:44.638Z</time>
      </trkpt>
      <trkpt lat="42.47113" lon="1.73174">
        <ele>2767.4</ele>
        <time>2020-02-14T16:35:49.296Z</time>
      </trkpt>
      <trkpt lat="42.47112" lon="1.73173">
        <ele>2767.7</ele>
        <time>2020-02-14T16:35:50.224Z</time>
      </trkpt>
      <trkpt lat="42.47104" lon="1.73168">
        <ele>2769.2</ele>
        <time>2020-02-14T16:35:54.723Z</time>
      </trkpt>
      <trkpt lat="42.47103" lon="1.73168">
        <ele>2769.3</ele>
        <time>2020-02-14T16:35:54.972Z</time>
      </trkpt>
      <trkpt lat="42.47101" lon="1.73167">
        <ele>2769.7</ele>
        <time>2020-02-14T16:35:56.086Z</time>
      </trkpt>
      <trkpt lat="42.47097" lon="1.73165">
        <ele>2769.4</ele>
        <time>2020-02-14T16:35:58.191Z</time>
      </trkpt>
      <trkpt lat="42.47087" lon="1.73159">
        <ele>2769.2</ele>
        <time>2020-02-14T16:36:03.604Z</time>
      </trkpt>
      <trkpt lat="42.47085" lon="1.73158">
        <ele>2769.2</ele>
        <time>2020-02-14T16:36:04.773Z</time>
      </trkpt>
      <trkpt lat="42.4708" lon="1.73158">
        <ele>2769.3</ele>
        <time>2020-02-14T16:36:07.002Z</time>
      </trkpt>
      <trkpt lat="42.47074" lon="1.73158">
        <ele>2769</ele>
        <time>2020-02-14T16:36:10.062Z</time>
      </trkpt>
      <trkpt lat="42.47063" lon="1.73158">
        <ele>2768.4</ele>
        <time>2020-02-14T16:36:15.689Z</time>
      </trkpt>
      <trkpt lat="42.4705" lon="1.73158">
        <ele>2767.7</ele>
        <time>2020-02-14T16:36:21.850Z</time>
      </trkpt>
      <trkpt lat="42.47049" lon="1.73157">
        <ele>2767.6</ele>
        <time>2020-02-14T16:36:22.307Z</time>
      </trkpt>
      <trkpt lat="42.47048" lon="1.73157">
        <ele>2767.5</ele>
        <time>2020-02-14T16:36:23.193Z</time>
      </trkpt>
      <trkpt lat="42.4704" lon="1.73156">
        <ele>2767.1</ele>
        <time>2020-02-14T16:36:27.090Z</time>
      </trkpt>
      <trkpt lat="42.47037" lon="1.73156">
        <ele>2767</ele>
        <time>2020-02-14T16:36:28.419Z</time>
      </trkpt>
      <trkpt lat="42.47033" lon="1.73157">
        <ele>2766.8</ele>
        <time>2020-02-14T16:36:30.468Z</time>
      </trkpt>
      <trkpt lat="42.47022" lon="1.73153">
        <ele>2766.8</ele>
        <time>2020-02-14T16:36:36.171Z</time>
      </trkpt>
      <trkpt lat="42.4701" lon="1.73149">
        <ele>2767.9</ele>
        <time>2020-02-14T16:36:42.110Z</time>
      </trkpt>
      <trkpt lat="42.47006" lon="1.73145">
        <ele>2769</ele>
        <time>2020-02-14T16:36:44.768Z</time>
      </trkpt>
      <trkpt lat="42.47005" lon="1.73144">
        <ele>2769.3</ele>
        <time>2020-02-14T16:36:45.336Z</time>
      </trkpt>
      <trkpt lat="42.46997" lon="1.73142">
        <ele>2770.2</ele>
        <time>2020-02-14T16:36:49.018Z</time>
      </trkpt>
      <trkpt lat="42.46981" lon="1.7313">
        <ele>2770.6</ele>
        <time>2020-02-14T16:36:58.266Z</time>
      </trkpt>
      <trkpt lat="42.4698" lon="1.73129">
        <ele>2770.6</ele>
        <time>2020-02-14T16:36:58.924Z</time>
      </trkpt>
      <trkpt lat="42.46975" lon="1.73123">
        <ele>2771.4</ele>
        <time>2020-02-14T16:37:02.211Z</time>
      </trkpt>
      <trkpt lat="42.46969" lon="1.73119">
        <ele>2772.1</ele>
        <time>2020-02-14T16:37:05.402Z</time>
      </trkpt>
      <trkpt lat="42.46958" lon="1.73108">
        <ele>2772.6</ele>
        <time>2020-02-14T16:37:12.082Z</time>
      </trkpt>
      <trkpt lat="42.46959" lon="1.73107">
        <ele>2772.4</ele>
        <time>2020-02-14T16:37:12.671Z</time>
      </trkpt>
      <trkpt lat="42.46959" lon="1.73106">
        <ele>2772.5</ele>
        <time>2020-02-14T16:37:12.934Z</time>
      </trkpt>
      <trkpt lat="42.46959" lon="1.73108">
        <ele>2772.5</ele>
        <time>2020-02-14T16:37:13.467Z</time>
      </trkpt>
      <trkpt lat="42.46959" lon="1.73108">
        <ele>2772.6</ele>
        <time>2020-02-14T16:37:13.529Z</time>
      </trkpt>
      <trkpt lat="42.46959" lon="1.73106">
        <ele>2772.3</ele>
        <time>2020-02-14T16:37:14.055Z</time>
      </trkpt>
      <trkpt lat="42.46958" lon="1.73105">
        <ele>2772.3</ele>
        <time>2020-02-14T16:37:14.692Z</time>
      </trkpt>
      <trkpt lat="42.46955" lon="1.73098">
        <ele>2772</ele>
        <time>2020-02-14T16:37:17.620Z</time>
      </trkpt>
      <trkpt lat="42.46953" lon="1.73097">
        <ele>2772.2</ele>
        <time>2020-02-14T16:37:18.769Z</time>
      </trkpt>
      <trkpt lat="42.46949" lon="1.73092">
        <ele>2772.9</ele>
        <time>2020-02-14T16:37:21.614Z</time>
      </trkpt>
      <trkpt lat="42.46936" lon="1.73082">
        <ele>2771</ele>
        <time>2020-02-14T16:37:28.805Z</time>
      </trkpt>
      <trkpt lat="42.46931" lon="1.73079">
        <ele>2768.8</ele>
        <time>2020-02-14T16:37:31.664Z</time>
      </trkpt>
      <trkpt lat="42.46924" lon="1.73074">
        <ele>2766</ele>
        <time>2020-02-14T16:37:35.741Z</time>
      </trkpt>
      <trkpt lat="42.46918" lon="1.73072">
        <ele>2764.3</ele>
        <time>2020-02-14T16:37:38.870Z</time>
      </trkpt>
      <trkpt lat="42.46913" lon="1.73069">
        <ele>2762.4</ele>
        <time>2020-02-14T16:37:41.673Z</time>
      </trkpt>
      <trkpt lat="42.46911" lon="1.73069">
        <ele>2761.5</ele>
        <time>2020-02-14T16:37:42.968Z</time>
      </trkpt>
      <trkpt lat="42.46909" lon="1.73067">
        <ele>2760.7</ele>
        <time>2020-02-14T16:37:44.214Z</time>
      </trkpt>
      <trkpt lat="42.46904" lon="1.73065">
        <ele>2758.9</ele>
        <time>2020-02-14T16:37:46.712Z</time>
      </trkpt>
      <trkpt lat="42.46894" lon="1.73054">
        <ele>2755.2</ele>
        <time>2020-02-14T16:37:53.475Z</time>
      </trkpt>
      <trkpt lat="42.46866" lon="1.73037">
        <ele>2752.5</ele>
        <time>2020-02-14T16:38:08.350Z</time>
      </trkpt>
      <trkpt lat="42.46849" lon="1.7303">
        <ele>2753.8</ele>
        <time>2020-02-14T16:38:17.383Z</time>
      </trkpt>
      <trkpt lat="42.46848" lon="1.73029">
        <ele>2753.8</ele>
        <time>2020-02-14T16:38:17.840Z</time>
      </trkpt>
      <trkpt lat="42.46842" lon="1.73024">
        <ele>2754.3</ele>
        <time>2020-02-14T16:38:21.267Z</time>
      </trkpt>
      <trkpt lat="42.46827" lon="1.73017">
        <ele>2754.3</ele>
        <time>2020-02-14T16:38:29.082Z</time>
      </trkpt>
      <trkpt lat="42.46826" lon="1.73016">
        <ele>2754.2</ele>
        <time>2020-02-14T16:38:29.781Z</time>
      </trkpt>
      <trkpt lat="42.46806" lon="1.7301">
        <ele>2753.9</ele>
        <time>2020-02-14T16:38:39.824Z</time>
      </trkpt>
      <trkpt lat="42.46786" lon="1.7301">
        <ele>2755.8</ele>
        <time>2020-02-14T16:38:49.612Z</time>
      </trkpt>
      <trkpt lat="42.46786" lon="1.7301">
        <ele>2755.8</ele>
        <time>2020-02-14T16:38:49.688Z</time>
      </trkpt>
      <trkpt lat="42.46786" lon="1.7301">
        <ele>2755.8</ele>
        <time>2020-02-14T16:38:49.757Z</time>
      </trkpt>
      <trkpt lat="42.46776" lon="1.73008">
        <ele>2757.2</ele>
        <time>2020-02-14T16:38:54.873Z</time>
      </trkpt>
      <trkpt lat="42.46772" lon="1.73006">
        <ele>2758.5</ele>
        <time>2020-02-14T16:38:57.115Z</time>
      </trkpt>
      <trkpt lat="42.46765" lon="1.73005">
        <ele>2760</ele>
        <time>2020-02-14T16:39:00.445Z</time>
      </trkpt>
      <trkpt lat="42.46757" lon="1.73002">
        <ele>2762.7</ele>
        <time>2020-02-14T16:39:04.612Z</time>
      </trkpt>
      <trkpt lat="42.46754" lon="1.73001">
        <ele>2763.8</ele>
        <time>2020-02-14T16:39:06.481Z</time>
      </trkpt>
      <trkpt lat="42.46751" lon="1.73">
        <ele>2764.5</ele>
        <time>2020-02-14T16:39:07.782Z</time>
      </trkpt>
      <trkpt lat="42.46751" lon="1.73">
        <ele>2764.9</ele>
        <time>2020-02-14T16:39:08.253Z</time>
      </trkpt>
      <trkpt lat="42.46741" lon="1.72995">
        <ele>2763.4</ele>
        <time>2020-02-14T16:39:13.070Z</time>
      </trkpt>
      <trkpt lat="42.46735" lon="1.72993">
        <ele>2762.8</ele>
        <time>2020-02-14T16:39:16.538Z</time>
      </trkpt>
      <trkpt lat="42.46731" lon="1.72988">
        <ele>2762.5</ele>
        <time>2020-02-14T16:39:19.321Z</time>
      </trkpt>
      <trkpt lat="42.46728" lon="1.72988">
        <ele>2762.4</ele>
        <time>2020-02-14T16:39:20.671Z</time>
      </trkpt>
      <trkpt lat="42.46723" lon="1.72982">
        <ele>2762.6</ele>
        <time>2020-02-14T16:39:23.896Z</time>
      </trkpt>
      <trkpt lat="42.46715" lon="1.72976">
        <ele>2762</ele>
        <time>2020-02-14T16:39:28.638Z</time>
      </trkpt>
      <trkpt lat="42.46697" lon="1.72959">
        <ele>2760.8</ele>
        <time>2020-02-14T16:39:39.159Z</time>
      </trkpt>
      <trkpt lat="42.46684" lon="1.72943">
        <ele>2760.6</ele>
        <time>2020-02-14T16:39:47.825Z</time>
      </trkpt>
      <trkpt lat="42.46684" lon="1.72942">
        <ele>2760.5</ele>
        <time>2020-02-14T16:39:48.240Z</time>
      </trkpt>
      <trkpt lat="42.46679" lon="1.72939">
        <ele>2760.6</ele>
        <time>2020-02-14T16:39:50.753Z</time>
      </trkpt>
      <trkpt lat="42.46672" lon="1.72927">
        <ele>2761.7</ele>
        <time>2020-02-14T16:39:56.422Z</time>
      </trkpt>
      <trkpt lat="42.46671" lon="1.72925">
        <ele>2762</ele>
        <time>2020-02-14T16:39:57.170Z</time>
      </trkpt>
      <trkpt lat="42.46664" lon="1.72912">
        <ele>2762.5</ele>
        <time>2020-02-14T16:40:03.254Z</time>
      </trkpt>
      <trkpt lat="42.46662" lon="1.72908">
        <ele>2761.6</ele>
        <time>2020-02-14T16:40:04.943Z</time>
      </trkpt>
      <trkpt lat="42.46658" lon="1.72902">
        <ele>2760.1</ele>
        <time>2020-02-14T16:40:08.065Z</time>
      </trkpt>
      <trkpt lat="42.46649" lon="1.72891">
        <ele>2759</ele>
        <time>2020-02-14T16:40:14.115Z</time>
      </trkpt>
      <trkpt lat="42.46644" lon="1.72885">
        <ele>2758.6</ele>
        <time>2020-02-14T16:40:17.029Z</time>
      </trkpt>
      <trkpt lat="42.46638" lon="1.72875">
        <ele>2757.9</ele>
        <time>2020-02-14T16:40:21.839Z</time>
      </trkpt>
      <trkpt lat="42.46633" lon="1.72867">
        <ele>2756.1</ele>
        <time>2020-02-14T16:40:25.930Z</time>
      </trkpt>
      <trkpt lat="42.46631" lon="1.72864">
        <ele>2755.5</ele>
        <time>2020-02-14T16:40:27.619Z</time>
      </trkpt>
      <trkpt lat="42.46619" lon="1.7285">
        <ele>2753.3</ele>
        <time>2020-02-14T16:40:35.199Z</time>
      </trkpt>
      <trkpt lat="42.46609" lon="1.72832">
        <ele>2754.2</ele>
        <time>2020-02-14T16:40:43.457Z</time>
      </trkpt>
      <trkpt lat="42.46607" lon="1.72829">
        <ele>2753.4</ele>
        <time>2020-02-14T16:40:44.889Z</time>
      </trkpt>
      <trkpt lat="42.46608" lon="1.72829">
        <ele>2753.3</ele>
        <time>2020-02-14T16:40:45.056Z</time>
      </trkpt>
      <trkpt lat="42.46606" lon="1.72825">
        <ele>2752.6</ele>
        <time>2020-02-14T16:40:46.613Z</time>
      </trkpt>
      <trkpt lat="42.46595" lon="1.72809">
        <ele>2751.1</ele>
        <time>2020-02-14T16:40:54.656Z</time>
      </trkpt>
      <trkpt lat="42.46589" lon="1.72805">
        <ele>2751.6</ele>
        <time>2020-02-14T16:40:57.889Z</time>
      </trkpt>
      <trkpt lat="42.46581" lon="1.72794">
        <ele>2750.2</ele>
        <time>2020-02-14T16:41:03.406Z</time>
      </trkpt>
      <trkpt lat="42.46577" lon="1.72789">
        <ele>2749</ele>
        <time>2020-02-14T16:41:06.133Z</time>
      </trkpt>
      <trkpt lat="42.46565" lon="1.72773">
        <ele>2747.2</ele>
        <time>2020-02-14T16:41:14.467Z</time>
      </trkpt>
      <trkpt lat="42.46557" lon="1.72767">
        <ele>2746.7</ele>
        <time>2020-02-14T16:41:19.264Z</time>
      </trkpt>
      <trkpt lat="42.46546" lon="1.7276">
        <ele>2744.1</ele>
        <time>2020-02-14T16:41:25.023Z</time>
      </trkpt>
      <trkpt lat="42.4654" lon="1.72756">
        <ele>2742.8</ele>
        <time>2020-02-14T16:41:28.740Z</time>
      </trkpt>
      <trkpt lat="42.46537" lon="1.72755">
        <ele>2742.2</ele>
        <time>2020-02-14T16:41:30.000Z</time>
      </trkpt>
      <trkpt lat="42.46529" lon="1.7275">
        <ele>2741.4</ele>
        <time>2020-02-14T16:41:34.326Z</time>
      </trkpt>
      <trkpt lat="42.46529" lon="1.7275">
        <ele>2741.1</ele>
        <time>2020-02-14T16:41:34.748Z</time>
      </trkpt>
      <trkpt lat="42.46524" lon="1.72746">
        <ele>2739.2</ele>
        <time>2020-02-14T16:41:37.454Z</time>
      </trkpt>
      <trkpt lat="42.46516" lon="1.72741">
        <ele>2736.3</ele>
        <time>2020-02-14T16:41:42.286Z</time>
      </trkpt>
      <trkpt lat="42.46508" lon="1.72732">
        <ele>2734.7</ele>
        <time>2020-02-14T16:41:47.131Z</time>
      </trkpt>
      <trkpt lat="42.46503" lon="1.72723">
        <ele>2734.3</ele>
        <time>2020-02-14T16:41:51.208Z</time>
      </trkpt>
      <trkpt lat="42.46498" lon="1.72721">
        <ele>2733.3</ele>
        <time>2020-02-14T16:41:53.908Z</time>
      </trkpt>
      <trkpt lat="42.4649" lon="1.72719">
        <ele>2730.8</ele>
        <time>2020-02-14T16:41:57.881Z</time>
      </trkpt>
      <trkpt lat="42.46479" lon="1.72721">
        <ele>2728</ele>
        <time>2020-02-14T16:42:03.370Z</time>
      </trkpt>
      <trkpt lat="42.46477" lon="1.7272">
        <ele>2727.1</ele>
        <time>2020-02-14T16:42:04.775Z</time>
      </trkpt>
      <trkpt lat="42.46475" lon="1.7272">
        <ele>2726.6</ele>
        <time>2020-02-14T16:42:05.883Z</time>
      </trkpt>
      <trkpt lat="42.46465" lon="1.72717">
        <ele>2723.2</ele>
        <time>2020-02-14T16:42:10.790Z</time>
      </trkpt>
      <trkpt lat="42.46452" lon="1.72713">
        <ele>2718.4</ele>
        <time>2020-02-14T16:42:17.629Z</time>
      </trkpt>
      <trkpt lat="42.46451" lon="1.7271">
        <ele>2717.7</ele>
        <time>2020-02-14T16:42:19.117Z</time>
      </trkpt>
      <trkpt lat="42.46448" lon="1.72705">
        <ele>2716.5</ele>
        <time>2020-02-14T16:42:21.353Z</time>
      </trkpt>
      <trkpt lat="42.46441" lon="1.72705">
        <ele>2713.9</ele>
        <time>2020-02-14T16:42:25.084Z</time>
      </trkpt>
      <trkpt lat="42.46435" lon="1.72704">
        <ele>2711</ele>
        <time>2020-02-14T16:42:28.462Z</time>
      </trkpt>
      <trkpt lat="42.46434" lon="1.72703">
        <ele>2710.9</ele>
        <time>2020-02-14T16:42:28.822Z</time>
      </trkpt>
      <trkpt lat="42.46431" lon="1.72699">
        <ele>2709.3</ele>
        <time>2020-02-14T16:42:31.245Z</time>
      </trkpt>
      <trkpt lat="42.46428" lon="1.72701">
        <ele>2707.9</ele>
        <time>2020-02-14T16:42:33.114Z</time>
      </trkpt>
      <trkpt lat="42.46426" lon="1.72701">
        <ele>2707.2</ele>
        <time>2020-02-14T16:42:34.062Z</time>
      </trkpt>
      <trkpt lat="42.46424" lon="1.72702">
        <ele>2706.1</ele>
        <time>2020-02-14T16:42:35.377Z</time>
      </trkpt>
      <trkpt lat="42.4642" lon="1.72702">
        <ele>2704.4</ele>
        <time>2020-02-14T16:42:37.398Z</time>
      </trkpt>
      <trkpt lat="42.46416" lon="1.72699">
        <ele>2703</ele>
        <time>2020-02-14T16:42:39.433Z</time>
      </trkpt>
      <trkpt lat="42.46414" lon="1.727">
        <ele>2701.9</ele>
        <time>2020-02-14T16:42:40.942Z</time>
      </trkpt>
      <trkpt lat="42.46402" lon="1.72699">
        <ele>2697.7</ele>
        <time>2020-02-14T16:42:46.964Z</time>
      </trkpt>
      <trkpt lat="42.46396" lon="1.72701">
        <ele>2695.4</ele>
        <time>2020-02-14T16:42:50.045Z</time>
      </trkpt>
      <trkpt lat="42.46385" lon="1.72697">
        <ele>2692.5</ele>
        <time>2020-02-14T16:42:55.783Z</time>
      </trkpt>
      <trkpt lat="42.4638" lon="1.72697">
        <ele>2691.1</ele>
        <time>2020-02-14T16:42:58.282Z</time>
      </trkpt>
      <trkpt lat="42.46371" lon="1.72695">
        <ele>2689.3</ele>
        <time>2020-02-14T16:43:02.947Z</time>
      </trkpt>
      <trkpt lat="42.46359" lon="1.72694">
        <ele>2686.4</ele>
        <time>2020-02-14T16:43:09.011Z</time>
      </trkpt>
      <trkpt lat="42.46357" lon="1.72695">
        <ele>2686</ele>
        <time>2020-02-14T16:43:09.980Z</time>
      </trkpt>
      <trkpt lat="42.46357" lon="1.72694">
        <ele>2686</ele>
        <time>2020-02-14T16:43:10.270Z</time>
      </trkpt>
      <trkpt lat="42.4636" lon="1.7269">
        <ele>2686.3</ele>
        <time>2020-02-14T16:43:12.347Z</time>
      </trkpt>
      <trkpt lat="42.46354" lon="1.72686">
        <ele>2684.6</ele>
        <time>2020-02-14T16:43:15.510Z</time>
      </trkpt>
      <trkpt lat="42.46341" lon="1.72684">
        <ele>2681.8</ele>
        <time>2020-02-14T16:43:22.231Z</time>
      </trkpt>
      <trkpt lat="42.46339" lon="1.72684">
        <ele>2681.1</ele>
        <time>2020-02-14T16:43:23.519Z</time>
      </trkpt>
      <trkpt lat="42.46324" lon="1.72682">
        <ele>2677.8</ele>
        <time>2020-02-14T16:43:31.112Z</time>
      </trkpt>
      <trkpt lat="42.46322" lon="1.72683">
        <ele>2677.4</ele>
        <time>2020-02-14T16:43:31.915Z</time>
      </trkpt>
      <trkpt lat="42.46303" lon="1.72679">
        <ele>2673.5</ele>
        <time>2020-02-14T16:43:41.564Z</time>
      </trkpt>
      <trkpt lat="42.46289" lon="1.72675">
        <ele>2670.7</ele>
        <time>2020-02-14T16:43:48.805Z</time>
      </trkpt>
      <trkpt lat="42.46275" lon="1.72673">
        <ele>2667.8</ele>
        <time>2020-02-14T16:43:55.782Z</time>
      </trkpt>
      <trkpt lat="42.46272" lon="1.72674">
        <ele>2667.1</ele>
        <time>2020-02-14T16:43:57.111Z</time>
      </trkpt>
      <trkpt lat="42.46264" lon="1.72671">
        <ele>2666.5</ele>
        <time>2020-02-14T16:44:01.202Z</time>
      </trkpt>
      <trkpt lat="42.46252" lon="1.72669">
        <ele>2665.7</ele>
        <time>2020-02-14T16:44:07.113Z</time>
      </trkpt>
      <trkpt lat="42.46251" lon="1.72668">
        <ele>2665.4</ele>
        <time>2020-02-14T16:44:07.812Z</time>
      </trkpt>
      <trkpt lat="42.46232" lon="1.72664">
        <ele>2663.3</ele>
        <time>2020-02-14T16:44:17.517Z</time>
      </trkpt>
      <trkpt lat="42.46214" lon="1.72665">
        <ele>2660.5</ele>
        <time>2020-02-14T16:44:26.342Z</time>
      </trkpt>
      <trkpt lat="42.46199" lon="1.72662">
        <ele>2658.2</ele>
        <time>2020-02-14T16:44:33.894Z</time>
      </trkpt>
      <trkpt lat="42.46191" lon="1.72658">
        <ele>2657.3</ele>
        <time>2020-02-14T16:44:38.282Z</time>
      </trkpt>
      <trkpt lat="42.46183" lon="1.72654">
        <ele>2657.1</ele>
        <time>2020-02-14T16:44:42.090Z</time>
      </trkpt>
      <trkpt lat="42.46164" lon="1.72654">
        <ele>2656</ele>
        <time>2020-02-14T16:44:51.856Z</time>
      </trkpt>
      <trkpt lat="42.46162" lon="1.72655">
        <ele>2655.8</ele>
        <time>2020-02-14T16:44:52.950Z</time>
      </trkpt>
      <trkpt lat="42.46162" lon="1.72655">
        <ele>2655.8</ele>
        <time>2020-02-14T16:44:52.950Z</time>
      </trkpt>
      <trkpt lat="42.46162" lon="1.72656">
        <ele>2655.8</ele>
        <time>2020-02-14T16:44:53.172Z</time>
      </trkpt>
      <trkpt lat="42.46162" lon="1.72655">
        <ele>2655.7</ele>
        <time>2020-02-14T16:44:53.421Z</time>
      </trkpt>
      <trkpt lat="42.46161" lon="1.72655">
        <ele>2655.9</ele>
        <time>2020-02-14T16:44:54.099Z</time>
      </trkpt>
      <trkpt lat="42.46161" lon="1.72654">
        <ele>2656</ele>
        <time>2020-02-14T16:44:54.307Z</time>
      </trkpt>
      <trkpt lat="42.46161" lon="1.72654">
        <ele>2656.1</ele>
        <time>2020-02-14T16:44:54.646Z</time>
      </trkpt>
      <trkpt lat="42.46161" lon="1.72654">
        <ele>2656</ele>
        <time>2020-02-14T16:44:54.847Z</time>
      </trkpt>
      <trkpt lat="42.46139" lon="1.72652">
        <ele>2656.7</ele>
        <time>2020-02-14T16:45:05.846Z</time>
      </trkpt>
      <trkpt lat="42.46126" lon="1.72654">
        <ele>2658.8</ele>
        <time>2020-02-14T16:45:12.414Z</time>
      </trkpt>
      <trkpt lat="42.46114" lon="1.72654">
        <ele>2661</ele>
        <time>2020-02-14T16:45:18.312Z</time>
      </trkpt>
      <trkpt lat="42.46106" lon="1.72654">
        <ele>2662.6</ele>
        <time>2020-02-14T16:45:22.410Z</time>
      </trkpt>
      <trkpt lat="42.4609" lon="1.72657">
        <ele>2665.7</ele>
        <time>2020-02-14T16:45:30.508Z</time>
      </trkpt>
      <trkpt lat="42.4608" lon="1.72658">
        <ele>2668</ele>
        <time>2020-02-14T16:45:35.229Z</time>
      </trkpt>
      <trkpt lat="42.46069" lon="1.72657">
        <ele>2671</ele>
        <time>2020-02-14T16:45:41.064Z</time>
      </trkpt>
      <trkpt lat="42.46057" lon="1.72659">
        <ele>2674.2</ele>
        <time>2020-02-14T16:45:46.823Z</time>
      </trkpt>
      <trkpt lat="42.46045" lon="1.72659">
        <ele>2677.9</ele>
        <time>2020-02-14T16:45:53.344Z</time>
      </trkpt>
      <trkpt lat="42.46032" lon="1.7266">
        <ele>2681.5</ele>
        <time>2020-02-14T16:45:59.913Z</time>
      </trkpt>
      <trkpt lat="42.46026" lon="1.72661">
        <ele>2683.2</ele>
        <time>2020-02-14T16:46:03.062Z</time>
      </trkpt>
      <trkpt lat="42.46016" lon="1.72664">
        <ele>2685.8</ele>
        <time>2020-02-14T16:46:07.970Z</time>
      </trkpt>
      <trkpt lat="42.4601" lon="1.72666">
        <ele>2687.4</ele>
        <time>2020-02-14T16:46:11.043Z</time>
      </trkpt>
      <trkpt lat="42.46" lon="1.72667">
        <ele>2690</ele>
        <time>2020-02-14T16:46:16.248Z</time>
      </trkpt>
      <trkpt lat="42.45996" lon="1.72668">
        <ele>2691.4</ele>
        <time>2020-02-14T16:46:18.443Z</time>
      </trkpt>
      <trkpt lat="42.45982" lon="1.72671">
        <ele>2696</ele>
        <time>2020-02-14T16:46:25.697Z</time>
      </trkpt>
      <trkpt lat="42.45974" lon="1.72673">
        <ele>2698.4</ele>
        <time>2020-02-14T16:46:29.559Z</time>
      </trkpt>
      <trkpt lat="42.45965" lon="1.72675">
        <ele>2701.3</ele>
        <time>2020-02-14T16:46:34.266Z</time>
      </trkpt>
      <trkpt lat="42.45964" lon="1.72676">
        <ele>2701.8</ele>
        <time>2020-02-14T16:46:34.875Z</time>
      </trkpt>
      <trkpt lat="42.45956" lon="1.72678">
        <ele>2704.5</ele>
        <time>2020-02-14T16:46:39.222Z</time>
      </trkpt>
      <trkpt lat="42.45956" lon="1.72679">
        <ele>2704.7</ele>
        <time>2020-02-14T16:46:39.416Z</time>
      </trkpt>
      <trkpt lat="42.45956" lon="1.72678">
        <ele>2704.7</ele>
        <time>2020-02-14T16:46:39.603Z</time>
      </trkpt>
      <trkpt lat="42.45952" lon="1.72678">
        <ele>2705.9</ele>
        <time>2020-02-14T16:46:41.555Z</time>
      </trkpt>
      <trkpt lat="42.45941" lon="1.7268">
        <ele>2709.3</ele>
        <time>2020-02-14T16:46:47.023Z</time>
      </trkpt>
      <trkpt lat="42.45938" lon="1.7268">
        <ele>2710</ele>
        <time>2020-02-14T16:46:48.532Z</time>
      </trkpt>
      <trkpt lat="42.4593" lon="1.72679">
        <ele>2712.2</ele>
        <time>2020-02-14T16:46:52.948Z</time>
      </trkpt>
      <trkpt lat="42.45911" lon="1.72678">
        <ele>2716.4</ele>
        <time>2020-02-14T16:47:02.293Z</time>
      </trkpt>
      <trkpt lat="42.45901" lon="1.72681">
        <ele>2718.2</ele>
        <time>2020-02-14T16:47:07.540Z</time>
      </trkpt>
      <trkpt lat="42.45889" lon="1.72684">
        <ele>2720.1</ele>
        <time>2020-02-14T16:47:13.541Z</time>
      </trkpt>
      <trkpt lat="42.45877" lon="1.72686">
        <ele>2722.4</ele>
        <time>2020-02-14T16:47:19.432Z</time>
      </trkpt>
      <trkpt lat="42.45863" lon="1.72686">
        <ele>2725.3</ele>
        <time>2020-02-14T16:47:26.360Z</time>
      </trkpt>
      <trkpt lat="42.45854" lon="1.72689">
        <ele>2727.4</ele>
        <time>2020-02-14T16:47:31.268Z</time>
      </trkpt>
      <trkpt lat="42.45845" lon="1.72691">
        <ele>2729.2</ele>
        <time>2020-02-14T16:47:35.573Z</time>
      </trkpt>
      <trkpt lat="42.45834" lon="1.72696">
        <ele>2731.7</ele>
        <time>2020-02-14T16:47:41.512Z</time>
      </trkpt>
      <trkpt lat="42.4582" lon="1.72706">
        <ele>2733.9</ele>
        <time>2020-02-14T16:47:49.556Z</time>
      </trkpt>
      <trkpt lat="42.45811" lon="1.7271">
        <ele>2735.6</ele>
        <time>2020-02-14T16:47:54.145Z</time>
      </trkpt>
      <trkpt lat="42.45804" lon="1.72715">
        <ele>2736.8</ele>
        <time>2020-02-14T16:47:57.966Z</time>
      </trkpt>
      <trkpt lat="42.45801" lon="1.7272">
        <ele>2737.1</ele>
        <time>2020-02-14T16:48:00.368Z</time>
      </trkpt>
      <trkpt lat="42.458" lon="1.7272">
        <ele>2737.1</ele>
        <time>2020-02-14T16:48:00.520Z</time>
      </trkpt>
      <trkpt lat="42.458" lon="1.7272">
        <ele>2737.2</ele>
        <time>2020-02-14T16:48:00.887Z</time>
      </trkpt>
      <trkpt lat="42.45799" lon="1.72721">
        <ele>2737.2</ele>
        <time>2020-02-14T16:48:01.496Z</time>
      </trkpt>
      <trkpt lat="42.45775" lon="1.72718">
        <ele>2737.5</ele>
        <time>2020-02-14T16:48:12.966Z</time>
      </trkpt>
      <trkpt lat="42.45753" lon="1.72719">
        <ele>2736.2</ele>
        <time>2020-02-14T16:48:23.923Z</time>
      </trkpt>
      <trkpt lat="42.45728" lon="1.72717">
        <ele>2735.1</ele>
        <time>2020-02-14T16:48:36.465Z</time>
      </trkpt>
      <trkpt lat="42.45717" lon="1.72718">
        <ele>2734.1</ele>
        <time>2020-02-14T16:48:41.955Z</time>
      </trkpt>
      <trkpt lat="42.457" lon="1.72716">
        <ele>2731.6</ele>
        <time>2020-02-14T16:48:50.475Z</time>
      </trkpt>
      <trkpt lat="42.4567" lon="1.72713">
        <ele>2728.9</ele>
        <time>2020-02-14T16:49:05.046Z</time>
      </trkpt>
      <trkpt lat="42.45637" lon="1.7271">
        <ele>2725.4</ele>
        <time>2020-02-14T16:49:21.499Z</time>
      </trkpt>
      <trkpt lat="42.45611" lon="1.72706">
        <ele>2723.1</ele>
        <time>2020-02-14T16:49:34.499Z</time>
      </trkpt>
      <trkpt lat="42.45583" lon="1.72706">
        <ele>2721</ele>
        <time>2020-02-14T16:49:48.073Z</time>
      </trkpt>
      <trkpt lat="42.45566" lon="1.72706">
        <ele>2719.8</ele>
        <time>2020-02-14T16:49:56.614Z</time>
      </trkpt>
      <trkpt lat="42.45545" lon="1.72706">
        <ele>2718.8</ele>
        <time>2020-02-14T16:50:07.170Z</time>
      </trkpt>
      <trkpt lat="42.45513" lon="1.72702">
        <ele>2718.4</ele>
        <time>2020-02-14T16:50:23.077Z</time>
      </trkpt>
      <trkpt lat="42.45484" lon="1.72698">
        <ele>2719.3</ele>
        <time>2020-02-14T16:50:37.177Z</time>
      </trkpt>
      <trkpt lat="42.45473" lon="1.72695">
        <ele>2720</ele>
        <time>2020-02-14T16:50:42.624Z</time>
      </trkpt>
      <trkpt lat="42.45467" lon="1.72694">
        <ele>2720.5</ele>
        <time>2020-02-14T16:50:45.621Z</time>
      </trkpt>
      <trkpt lat="42.45445" lon="1.72692">
        <ele>2722.7</ele>
        <time>2020-02-14T16:50:56.613Z</time>
      </trkpt>
      <trkpt lat="42.45419" lon="1.72689">
        <ele>2723.8</ele>
        <time>2020-02-14T16:51:09.274Z</time>
      </trkpt>
      <trkpt lat="42.45394" lon="1.72679">
        <ele>2726.4</ele>
        <time>2020-02-14T16:51:22.571Z</time>
      </trkpt>
      <trkpt lat="42.4539" lon="1.72677">
        <ele>2726.8</ele>
        <time>2020-02-14T16:51:24.260Z</time>
      </trkpt>
      <trkpt lat="42.4538" lon="1.72674">
        <ele>2728.2</ele>
        <time>2020-02-14T16:51:29.749Z</time>
      </trkpt>
      <trkpt lat="42.45362" lon="1.72673">
        <ele>2730.1</ele>
        <time>2020-02-14T16:51:38.373Z</time>
      </trkpt>
      <trkpt lat="42.45343" lon="1.72674">
        <ele>2732.2</ele>
        <time>2020-02-14T16:51:47.697Z</time>
      </trkpt>
      <trkpt lat="42.45325" lon="1.72682">
        <ele>2734.2</ele>
        <time>2020-02-14T16:51:57.339Z</time>
      </trkpt>
      <trkpt lat="42.45317" lon="1.72688">
        <ele>2735</ele>
        <time>2020-02-14T16:52:01.942Z</time>
      </trkpt>
      <trkpt lat="42.45308" lon="1.72694">
        <ele>2735.8</ele>
        <time>2020-02-14T16:52:06.919Z</time>
      </trkpt>
      <trkpt lat="42.45304" lon="1.72696">
        <ele>2735.8</ele>
        <time>2020-02-14T16:52:08.885Z</time>
      </trkpt>
      <trkpt lat="42.45298" lon="1.72699">
        <ele>2735.1</ele>
        <time>2020-02-14T16:52:12.166Z</time>
      </trkpt>
      <trkpt lat="42.45289" lon="1.72704">
        <ele>2734.1</ele>
        <time>2020-02-14T16:52:16.783Z</time>
      </trkpt>
      <trkpt lat="42.45286" lon="1.72703">
        <ele>2734.1</ele>
        <time>2020-02-14T16:52:18.410Z</time>
      </trkpt>
      <trkpt lat="42.45287" lon="1.72702">
        <ele>2734.3</ele>
        <time>2020-02-14T16:52:18.998Z</time>
      </trkpt>
      <trkpt lat="42.45288" lon="1.72704">
        <ele>2734.2</ele>
        <time>2020-02-14T16:52:19.815Z</time>
      </trkpt>
      <trkpt lat="42.45287" lon="1.72704">
        <ele>2733.9</ele>
        <time>2020-02-14T16:52:20.735Z</time>
      </trkpt>
      <trkpt lat="42.45284" lon="1.72703">
        <ele>2733.9</ele>
        <time>2020-02-14T16:52:22.251Z</time>
      </trkpt>
      <trkpt lat="42.45282" lon="1.72704">
        <ele>2733.8</ele>
        <time>2020-02-14T16:52:22.923Z</time>
      </trkpt>
      <trkpt lat="42.45284" lon="1.72703">
        <ele>2734</ele>
        <time>2020-02-14T16:52:23.705Z</time>
      </trkpt>
      <trkpt lat="42.45285" lon="1.72705">
        <ele>2733.9</ele>
        <time>2020-02-14T16:52:24.612Z</time>
      </trkpt>
      <trkpt lat="42.45286" lon="1.72705">
        <ele>2733.7</ele>
        <time>2020-02-14T16:52:24.972Z</time>
      </trkpt>
      <trkpt lat="42.45288" lon="1.72707">
        <ele>2733.5</ele>
        <time>2020-02-14T16:52:26.197Z</time>
      </trkpt>
      <trkpt lat="42.45298" lon="1.72712">
        <ele>2733.1</ele>
        <time>2020-02-14T16:52:31.361Z</time>
      </trkpt>
      <trkpt lat="42.45308" lon="1.72714">
        <ele>2733.2</ele>
        <time>2020-02-14T16:52:36.649Z</time>
      </trkpt>
      <trkpt lat="42.45313" lon="1.72716">
        <ele>2732.9</ele>
        <time>2020-02-14T16:52:39.016Z</time>
      </trkpt>
      <trkpt lat="42.45318" lon="1.72717">
        <ele>2732.6</ele>
        <time>2020-02-14T16:52:41.709Z</time>
      </trkpt>
      <trkpt lat="42.45319" lon="1.72717">
        <ele>2732.6</ele>
        <time>2020-02-14T16:52:41.923Z</time>
      </trkpt>
      <trkpt lat="42.45325" lon="1.72718">
        <ele>2732.4</ele>
        <time>2020-02-14T16:52:45.274Z</time>
      </trkpt>
      <trkpt lat="42.45328" lon="1.7272">
        <ele>2732.2</ele>
        <time>2020-02-14T16:52:46.734Z</time>
      </trkpt>
      <trkpt lat="42.45348" lon="1.72729">
        <ele>2730.3</ele>
        <time>2020-02-14T16:52:57.006Z</time>
      </trkpt>
      <trkpt lat="42.45368" lon="1.72736">
        <ele>2728.7</ele>
        <time>2020-02-14T16:53:07.313Z</time>
      </trkpt>
      <trkpt lat="42.45381" lon="1.72741">
        <ele>2727.2</ele>
        <time>2020-02-14T16:53:13.951Z</time>
      </trkpt>
      <trkpt lat="42.45386" lon="1.72743">
        <ele>2726.9</ele>
        <time>2020-02-14T16:53:16.886Z</time>
      </trkpt>
      <trkpt lat="42.45405" lon="1.7275">
        <ele>2725.5</ele>
        <time>2020-02-14T16:53:26.514Z</time>
      </trkpt>
      <trkpt lat="42.45432" lon="1.72758">
        <ele>2722.2</ele>
        <time>2020-02-14T16:53:39.860Z</time>
      </trkpt>
      <trkpt lat="42.45452" lon="1.72768">
        <ele>2719.8</ele>
        <time>2020-02-14T16:53:50.596Z</time>
      </trkpt>
      <trkpt lat="42.45472" lon="1.7278">
        <ele>2718.6</ele>
        <time>2020-02-14T16:54:01.519Z</time>
      </trkpt>
      <trkpt lat="42.45497" lon="1.72792">
        <ele>2717</ele>
        <time>2020-02-14T16:54:14.622Z</time>
      </trkpt>
      <trkpt lat="42.45523" lon="1.72808">
        <ele>2715.9</ele>
        <time>2020-02-14T16:54:28.535Z</time>
      </trkpt>
      <trkpt lat="42.45548" lon="1.72822">
        <ele>2713.8</ele>
        <time>2020-02-14T16:54:42.081Z</time>
      </trkpt>
      <trkpt lat="42.4557" lon="1.72835">
        <ele>2712.8</ele>
        <time>2020-02-14T16:54:53.620Z</time>
      </trkpt>
      <trkpt lat="42.45594" lon="1.72848">
        <ele>2713</ele>
        <time>2020-02-14T16:55:06.612Z</time>
      </trkpt>
      <trkpt lat="42.45618" lon="1.72859">
        <ele>2713.5</ele>
        <time>2020-02-14T16:55:18.933Z</time>
      </trkpt>
      <trkpt lat="42.45628" lon="1.72863">
        <ele>2713.5</ele>
        <time>2020-02-14T16:55:24.076Z</time>
      </trkpt>
      <trkpt lat="42.4565" lon="1.72871">
        <ele>2714.3</ele>
        <time>2020-02-14T16:55:35.539Z</time>
      </trkpt>
      <trkpt lat="42.45661" lon="1.72874">
        <ele>2714.9</ele>
        <time>2020-02-14T16:55:40.973Z</time>
      </trkpt>
      <trkpt lat="42.45664" lon="1.72875">
        <ele>2715</ele>
        <time>2020-02-14T16:55:42.468Z</time>
      </trkpt>
      <trkpt lat="42.45675" lon="1.72876">
        <ele>2715.1</ele>
        <time>2020-02-14T16:55:47.922Z</time>
      </trkpt>
      <trkpt lat="42.45695" lon="1.72876">
        <ele>2715.5</ele>
        <time>2020-02-14T16:55:57.876Z</time>
      </trkpt>
      <trkpt lat="42.45717" lon="1.72873">
        <ele>2715.8</ele>
        <time>2020-02-14T16:56:08.778Z</time>
      </trkpt>
      <trkpt lat="42.45721" lon="1.72872">
        <ele>2715.9</ele>
        <time>2020-02-14T16:56:10.758Z</time>
      </trkpt>
      <trkpt lat="42.45744" lon="1.72871">
        <ele>2715.6</ele>
        <time>2020-02-14T16:56:21.756Z</time>
      </trkpt>
      <trkpt lat="42.4576" lon="1.72869">
        <ele>2715.7</ele>
        <time>2020-02-14T16:56:29.897Z</time>
      </trkpt>
      <trkpt lat="42.45782" lon="1.72865">
        <ele>2716.2</ele>
        <time>2020-02-14T16:56:40.709Z</time>
      </trkpt>
      <trkpt lat="42.45795" lon="1.72864">
        <ele>2715</ele>
        <time>2020-02-14T16:56:47.139Z</time>
      </trkpt>
      <trkpt lat="42.45796" lon="1.72864">
        <ele>2714.9</ele>
        <time>2020-02-14T16:56:47.686Z</time>
      </trkpt>
      <trkpt lat="42.45799" lon="1.72865">
        <ele>2714.5</ele>
        <time>2020-02-14T16:56:49.354Z</time>
      </trkpt>
      <trkpt lat="42.45806" lon="1.72867">
        <ele>2713.6</ele>
        <time>2020-02-14T16:56:52.870Z</time>
      </trkpt>
      <trkpt lat="42.45815" lon="1.7287">
        <ele>2712.8</ele>
        <time>2020-02-14T16:56:57.162Z</time>
      </trkpt>
      <trkpt lat="42.45834" lon="1.72869">
        <ele>2711.7</ele>
        <time>2020-02-14T16:57:06.694Z</time>
      </trkpt>
      <trkpt lat="42.45847" lon="1.72869">
        <ele>2709.7</ele>
        <time>2020-02-14T16:57:13.345Z</time>
      </trkpt>
      <trkpt lat="42.45859" lon="1.72869">
        <ele>2708.2</ele>
        <time>2020-02-14T16:57:18.911Z</time>
      </trkpt>
      <trkpt lat="42.45859" lon="1.72869">
        <ele>2708.1</ele>
        <time>2020-02-14T16:57:19.174Z</time>
      </trkpt>
      <trkpt lat="42.45864" lon="1.7287">
        <ele>2706.8</ele>
        <time>2020-02-14T16:57:21.783Z</time>
      </trkpt>
      <trkpt lat="42.45878" lon="1.72872">
        <ele>2702.3</ele>
        <time>2020-02-14T16:57:28.747Z</time>
      </trkpt>
      <trkpt lat="42.45889" lon="1.72874">
        <ele>2698.4</ele>
        <time>2020-02-14T16:57:34.734Z</time>
      </trkpt>
      <trkpt lat="42.45892" lon="1.72874">
        <ele>2697.4</ele>
        <time>2020-02-14T16:57:36.243Z</time>
      </trkpt>
      <trkpt lat="42.45897" lon="1.72876">
        <ele>2695.3</ele>
        <time>2020-02-14T16:57:38.873Z</time>
      </trkpt>
      <trkpt lat="42.45902" lon="1.72878">
        <ele>2693.1</ele>
        <time>2020-02-14T16:57:41.808Z</time>
      </trkpt>
      <trkpt lat="42.45907" lon="1.72878">
        <ele>2691.5</ele>
        <time>2020-02-14T16:57:44.051Z</time>
      </trkpt>
      <trkpt lat="42.45913" lon="1.72875">
        <ele>2689.3</ele>
        <time>2020-02-14T16:57:47.381Z</time>
      </trkpt>
      <trkpt lat="42.45918" lon="1.72874">
        <ele>2687.3</ele>
        <time>2020-02-14T16:57:50.032Z</time>
      </trkpt>
      <trkpt lat="42.45924" lon="1.72874">
        <ele>2685</ele>
        <time>2020-02-14T16:57:53.153Z</time>
      </trkpt>
      <trkpt lat="42.45927" lon="1.72873">
        <ele>2683.7</ele>
        <time>2020-02-14T16:57:54.912Z</time>
      </trkpt>
      <trkpt lat="42.45931" lon="1.72873">
        <ele>2682</ele>
        <time>2020-02-14T16:57:57.217Z</time>
      </trkpt>
      <trkpt lat="42.45935" lon="1.72873">
        <ele>2680.5</ele>
        <time>2020-02-14T16:57:59.065Z</time>
      </trkpt>
      <trkpt lat="42.45943" lon="1.72875">
        <ele>2677.3</ele>
        <time>2020-02-14T16:58:03.252Z</time>
      </trkpt>
      <trkpt lat="42.45947" lon="1.72876">
        <ele>2675.7</ele>
        <time>2020-02-14T16:58:05.454Z</time>
      </trkpt>
      <trkpt lat="42.45952" lon="1.72875">
        <ele>2674.1</ele>
        <time>2020-02-14T16:58:08.181Z</time>
      </trkpt>
      <trkpt lat="42.45958" lon="1.72871">
        <ele>2672.4</ele>
        <time>2020-02-14T16:58:11.490Z</time>
      </trkpt>
      <trkpt lat="42.45965" lon="1.72873">
        <ele>2670.1</ele>
        <time>2020-02-14T16:58:15.186Z</time>
      </trkpt>
      <trkpt lat="42.45974" lon="1.72874">
        <ele>2667.3</ele>
        <time>2020-02-14T16:58:19.810Z</time>
      </trkpt>
      <trkpt lat="42.45983" lon="1.72872">
        <ele>2665.5</ele>
        <time>2020-02-14T16:58:24.267Z</time>
      </trkpt>
      <trkpt lat="42.46001" lon="1.72875">
        <ele>2661.3</ele>
        <time>2020-02-14T16:58:33.224Z</time>
      </trkpt>
      <trkpt lat="42.46004" lon="1.72871">
        <ele>2660.2</ele>
        <time>2020-02-14T16:58:35.162Z</time>
      </trkpt>
      <trkpt lat="42.46013" lon="1.72861">
        <ele>2657.7</ele>
        <time>2020-02-14T16:58:41.178Z</time>
      </trkpt>
      <trkpt lat="42.46024" lon="1.72844">
        <ele>2654.2</ele>
        <time>2020-02-14T16:58:49.595Z</time>
      </trkpt>
      <trkpt lat="42.46026" lon="1.7284">
        <ele>2653.5</ele>
        <time>2020-02-14T16:58:51.498Z</time>
      </trkpt>
      <trkpt lat="42.4603" lon="1.72833">
        <ele>2652</ele>
        <time>2020-02-14T16:58:54.599Z</time>
      </trkpt>
      <trkpt lat="42.46032" lon="1.72831">
        <ele>2650.7</ele>
        <time>2020-02-14T16:58:56.060Z</time>
      </trkpt>
      <trkpt lat="42.46038" lon="1.72823">
        <ele>2647.6</ele>
        <time>2020-02-14T16:59:00.337Z</time>
      </trkpt>
      <trkpt lat="42.46041" lon="1.72819">
        <ele>2646</ele>
        <time>2020-02-14T16:59:02.878Z</time>
      </trkpt>
      <trkpt lat="42.46048" lon="1.72815">
        <ele>2643.1</ele>
        <time>2020-02-14T16:59:06.394Z</time>
      </trkpt>
      <trkpt lat="42.46056" lon="1.72814">
        <ele>2639.1</ele>
        <time>2020-02-14T16:59:10.769Z</time>
      </trkpt>
      <trkpt lat="42.46058" lon="1.72814">
        <ele>2638.2</ele>
        <time>2020-02-14T16:59:11.738Z</time>
      </trkpt>
      <trkpt lat="42.4606" lon="1.72815">
        <ele>2637.3</ele>
        <time>2020-02-14T16:59:12.880Z</time>
      </trkpt>
      <trkpt lat="42.46061" lon="1.72816">
        <ele>2636.6</ele>
        <time>2020-02-14T16:59:13.482Z</time>
      </trkpt>
      <trkpt lat="42.46063" lon="1.72815">
        <ele>2635.7</ele>
        <time>2020-02-14T16:59:14.742Z</time>
      </trkpt>
      <trkpt lat="42.46065" lon="1.72814">
        <ele>2635.2</ele>
        <time>2020-02-14T16:59:15.628Z</time>
      </trkpt>
      <trkpt lat="42.4607" lon="1.72816">
        <ele>2632.6</ele>
        <time>2020-02-14T16:59:18.418Z</time>
      </trkpt>
      <trkpt lat="42.46075" lon="1.7282">
        <ele>2629</ele>
        <time>2020-02-14T16:59:22.100Z</time>
      </trkpt>
      <trkpt lat="42.46077" lon="1.72824">
        <ele>2627.2</ele>
        <time>2020-02-14T16:59:24.003Z</time>
      </trkpt>
      <trkpt lat="42.46084" lon="1.72828">
        <ele>2623.3</ele>
        <time>2020-02-14T16:59:27.811Z</time>
      </trkpt>
      <trkpt lat="42.46087" lon="1.72831">
        <ele>2621.1</ele>
        <time>2020-02-14T16:59:30.088Z</time>
      </trkpt>
      <trkpt lat="42.46091" lon="1.72835">
        <ele>2619.1</ele>
        <time>2020-02-14T16:59:32.344Z</time>
      </trkpt>
      <trkpt lat="42.46091" lon="1.72837">
        <ele>2618.5</ele>
        <time>2020-02-14T16:59:33.286Z</time>
      </trkpt>
      <trkpt lat="42.46097" lon="1.72838">
        <ele>2616</ele>
        <time>2020-02-14T16:59:36.304Z</time>
      </trkpt>
      <trkpt lat="42.46106" lon="1.72839">
        <ele>2612</ele>
        <time>2020-02-14T16:59:41.121Z</time>
      </trkpt>
      <trkpt lat="42.46113" lon="1.72842">
        <ele>2609</ele>
        <time>2020-02-14T16:59:44.748Z</time>
      </trkpt>
      <trkpt lat="42.46122" lon="1.72845">
        <ele>2605.4</ele>
        <time>2020-02-14T16:59:49.891Z</time>
      </trkpt>
      <trkpt lat="42.46123" lon="1.72844">
        <ele>2605.2</ele>
        <time>2020-02-14T16:59:50.535Z</time>
      </trkpt>
      <trkpt lat="42.4613" lon="1.72849">
        <ele>2602.1</ele>
        <time>2020-02-14T16:59:54.564Z</time>
      </trkpt>
      <trkpt lat="42.46137" lon="1.72853">
        <ele>2599.2</ele>
        <time>2020-02-14T16:59:58.315Z</time>
      </trkpt>
      <trkpt lat="42.46141" lon="1.72858">
        <ele>2596.8</ele>
        <time>2020-02-14T17:00:01.465Z</time>
      </trkpt>
      <trkpt lat="42.46144" lon="1.72862">
        <ele>2595.2</ele>
        <time>2020-02-14T17:00:03.507Z</time>
      </trkpt>
      <trkpt lat="42.46149" lon="1.72871">
        <ele>2592</ele>
        <time>2020-02-14T17:00:07.951Z</time>
      </trkpt>
      <trkpt lat="42.46149" lon="1.72874">
        <ele>2591.7</ele>
        <time>2020-02-14T17:00:08.913Z</time>
      </trkpt>
      <trkpt lat="42.46151" lon="1.72887">
        <ele>2589.1</ele>
        <time>2020-02-14T17:00:13.807Z</time>
      </trkpt>
      <trkpt lat="42.46151" lon="1.72888">
        <ele>2588.7</ele>
        <time>2020-02-14T17:00:14.250Z</time>
      </trkpt>
      <trkpt lat="42.46153" lon="1.7289">
        <ele>2588</ele>
        <time>2020-02-14T17:00:15.468Z</time>
      </trkpt>
      <trkpt lat="42.46156" lon="1.72901">
        <ele>2585</ele>
        <time>2020-02-14T17:00:20.085Z</time>
      </trkpt>
      <trkpt lat="42.46164" lon="1.72915">
        <ele>2580.2</ele>
        <time>2020-02-14T17:00:26.661Z</time>
      </trkpt>
      <trkpt lat="42.46168" lon="1.72922">
        <ele>2577.7</ele>
        <time>2020-02-14T17:00:30.032Z</time>
      </trkpt>
      <trkpt lat="42.4617" lon="1.72926">
        <ele>2576.1</ele>
        <time>2020-02-14T17:00:32.247Z</time>
      </trkpt>
      <trkpt lat="42.46171" lon="1.72926">
        <ele>2576</ele>
        <time>2020-02-14T17:00:32.385Z</time>
      </trkpt>
      <trkpt lat="42.46177" lon="1.72934">
        <ele>2572.6</ele>
        <time>2020-02-14T17:00:36.947Z</time>
      </trkpt>
      <trkpt lat="42.46178" lon="1.72938">
        <ele>2571.7</ele>
        <time>2020-02-14T17:00:38.442Z</time>
      </trkpt>
      <trkpt lat="42.4618" lon="1.72943">
        <ele>2570.1</ele>
        <time>2020-02-14T17:00:40.546Z</time>
      </trkpt>
      <trkpt lat="42.46187" lon="1.72953">
        <ele>2565.8</ele>
        <time>2020-02-14T17:00:45.945Z</time>
      </trkpt>
      <trkpt lat="42.4619" lon="1.72956">
        <ele>2564.5</ele>
        <time>2020-02-14T17:00:47.745Z</time>
      </trkpt>
      <trkpt lat="42.46191" lon="1.72963">
        <ele>2562.4</ele>
        <time>2020-02-14T17:00:50.500Z</time>
      </trkpt>
      <trkpt lat="42.46195" lon="1.72974">
        <ele>2558.2</ele>
        <time>2020-02-14T17:00:55.546Z</time>
      </trkpt>
      <trkpt lat="42.46195" lon="1.72974">
        <ele>2558.5</ele>
        <time>2020-02-14T17:00:55.767Z</time>
      </trkpt>
      <trkpt lat="42.46191" lon="1.72988">
        <ele>2554.5</ele>
        <time>2020-02-14T17:01:01.478Z</time>
      </trkpt>
      <trkpt lat="42.46189" lon="1.72995">
        <ele>2552.8</ele>
        <time>2020-02-14T17:01:04.454Z</time>
      </trkpt>
      <trkpt lat="42.46185" lon="1.73007">
        <ele>2549.6</ele>
        <time>2020-02-14T17:01:09.300Z</time>
      </trkpt>
      <trkpt lat="42.46181" lon="1.7302">
        <ele>2546.5</ele>
        <time>2020-02-14T17:01:14.546Z</time>
      </trkpt>
      <trkpt lat="42.4618" lon="1.7303">
        <ele>2543.8</ele>
        <time>2020-02-14T17:01:18.471Z</time>
      </trkpt>
      <trkpt lat="42.4618" lon="1.73036">
        <ele>2541</ele>
        <time>2020-02-14T17:01:21.261Z</time>
      </trkpt>
      <trkpt lat="42.46178" lon="1.7304">
        <ele>2540.8</ele>
        <time>2020-02-14T17:01:22.970Z</time>
      </trkpt>
      <trkpt lat="42.46176" lon="1.73049">
        <ele>2538.2</ele>
        <time>2020-02-14T17:01:26.507Z</time>
      </trkpt>
      <trkpt lat="42.46173" lon="1.73057">
        <ele>2536.7</ele>
        <time>2020-02-14T17:01:30.072Z</time>
      </trkpt>
      <trkpt lat="42.4617" lon="1.73071">
        <ele>2534.6</ele>
        <time>2020-02-14T17:01:35.236Z</time>
      </trkpt>
      <trkpt lat="42.46169" lon="1.73086">
        <ele>2531.3</ele>
        <time>2020-02-14T17:01:41.120Z</time>
      </trkpt>
      <trkpt lat="42.46163" lon="1.73111">
        <ele>2528.8</ele>
        <time>2020-02-14T17:01:50.727Z</time>
      </trkpt>
      <trkpt lat="42.46162" lon="1.7313">
        <ele>2525.1</ele>
        <time>2020-02-14T17:01:57.843Z</time>
      </trkpt>
      <trkpt lat="42.46162" lon="1.73132">
        <ele>2524.8</ele>
        <time>2020-02-14T17:01:58.411Z</time>
      </trkpt>
      <trkpt lat="42.4616" lon="1.73136">
        <ele>2524.6</ele>
        <time>2020-02-14T17:02:00.210Z</time>
      </trkpt>
      <trkpt lat="42.4616" lon="1.73138">
        <ele>2524.2</ele>
        <time>2020-02-14T17:02:00.785Z</time>
      </trkpt>
      <trkpt lat="42.4616" lon="1.7314">
        <ele>2523.8</ele>
        <time>2020-02-14T17:02:01.602Z</time>
      </trkpt>
      <trkpt lat="42.46159" lon="1.73154">
        <ele>2521.1</ele>
        <time>2020-02-14T17:02:06.987Z</time>
      </trkpt>
      <trkpt lat="42.46162" lon="1.73169">
        <ele>2517.2</ele>
        <time>2020-02-14T17:02:12.767Z</time>
      </trkpt>
      <trkpt lat="42.46164" lon="1.73174">
        <ele>2516.1</ele>
        <time>2020-02-14T17:02:15.037Z</time>
      </trkpt>
      <trkpt lat="42.46171" lon="1.73183">
        <ele>2512.8</ele>
        <time>2020-02-14T17:02:19.896Z</time>
      </trkpt>
      <trkpt lat="42.46178" lon="1.73187">
        <ele>2509.4</ele>
        <time>2020-02-14T17:02:24.333Z</time>
      </trkpt>
      <trkpt lat="42.46185" lon="1.73191">
        <ele>2506.5</ele>
        <time>2020-02-14T17:02:27.849Z</time>
      </trkpt>
      <trkpt lat="42.46188" lon="1.73197">
        <ele>2504.4</ele>
        <time>2020-02-14T17:02:30.888Z</time>
      </trkpt>
      <trkpt lat="42.46192" lon="1.732">
        <ele>2502.3</ele>
        <time>2020-02-14T17:02:33.172Z</time>
      </trkpt>
      <trkpt lat="42.46196" lon="1.73206">
        <ele>2499.5</ele>
        <time>2020-02-14T17:02:36.530Z</time>
      </trkpt>
      <trkpt lat="42.46198" lon="1.73207">
        <ele>2498.9</ele>
        <time>2020-02-14T17:02:37.429Z</time>
      </trkpt>
      <trkpt lat="42.46203" lon="1.73212">
        <ele>2496.9</ele>
        <time>2020-02-14T17:02:40.669Z</time>
      </trkpt>
      <trkpt lat="42.46205" lon="1.73216">
        <ele>2496</ele>
        <time>2020-02-14T17:02:42.330Z</time>
      </trkpt>
      <trkpt lat="42.4621" lon="1.7322">
        <ele>2494.5</ele>
        <time>2020-02-14T17:02:45.424Z</time>
      </trkpt>
      <trkpt lat="42.46224" lon="1.73229">
        <ele>2491.3</ele>
        <time>2020-02-14T17:02:53.377Z</time>
      </trkpt>
      <trkpt lat="42.46228" lon="1.73231">
        <ele>2490.6</ele>
        <time>2020-02-14T17:02:55.336Z</time>
      </trkpt>
      <trkpt lat="42.46235" lon="1.73241">
        <ele>2488.5</ele>
        <time>2020-02-14T17:03:00.341Z</time>
      </trkpt>
      <trkpt lat="42.46238" lon="1.7325">
        <ele>2486.5</ele>
        <time>2020-02-14T17:03:04.300Z</time>
      </trkpt>
      <trkpt lat="42.46244" lon="1.73261">
        <ele>2484</ele>
        <time>2020-02-14T17:03:09.395Z</time>
      </trkpt>
      <trkpt lat="42.46252" lon="1.73274">
        <ele>2481.2</ele>
        <time>2020-02-14T17:03:15.611Z</time>
      </trkpt>
      <trkpt lat="42.46252" lon="1.73275">
        <ele>2480.9</ele>
        <time>2020-02-14T17:03:16.088Z</time>
      </trkpt>
      <trkpt lat="42.46257" lon="1.73287">
        <ele>2477.9</ele>
        <time>2020-02-14T17:03:21.044Z</time>
      </trkpt>
      <trkpt lat="42.46257" lon="1.73289">
        <ele>2477.5</ele>
        <time>2020-02-14T17:03:21.813Z</time>
      </trkpt>
      <trkpt lat="42.46257" lon="1.73292">
        <ele>2476.8</ele>
        <time>2020-02-14T17:03:22.893Z</time>
      </trkpt>
      <trkpt lat="42.46259" lon="1.73296">
        <ele>2475.5</ele>
        <time>2020-02-14T17:03:25.052Z</time>
      </trkpt>
      <trkpt lat="42.46267" lon="1.73303">
        <ele>2473.4</ele>
        <time>2020-02-14T17:03:29.517Z</time>
      </trkpt>
      <trkpt lat="42.46271" lon="1.73306">
        <ele>2472.2</ele>
        <time>2020-02-14T17:03:32.196Z</time>
      </trkpt>
      <trkpt lat="42.46275" lon="1.7331">
        <ele>2470.8</ele>
        <time>2020-02-14T17:03:34.404Z</time>
      </trkpt>
      <trkpt lat="42.46274" lon="1.73317">
        <ele>2468.3</ele>
        <time>2020-02-14T17:03:37.186Z</time>
      </trkpt>
      <trkpt lat="42.46274" lon="1.73318">
        <ele>2468.1</ele>
        <time>2020-02-14T17:03:37.525Z</time>
      </trkpt>
      <trkpt lat="42.4628" lon="1.73328">
        <ele>2465.2</ele>
        <time>2020-02-14T17:03:42.488Z</time>
      </trkpt>
      <trkpt lat="42.46286" lon="1.7334">
        <ele>2463</ele>
        <time>2020-02-14T17:03:47.708Z</time>
      </trkpt>
      <trkpt lat="42.46295" lon="1.73357">
        <ele>2460.4</ele>
        <time>2020-02-14T17:03:55.336Z</time>
      </trkpt>
      <trkpt lat="42.46297" lon="1.73364">
        <ele>2459.3</ele>
        <time>2020-02-14T17:03:58.402Z</time>
      </trkpt>
      <trkpt lat="42.46298" lon="1.73366">
        <ele>2459.1</ele>
        <time>2020-02-14T17:03:58.928Z</time>
      </trkpt>
      <trkpt lat="42.46301" lon="1.73382">
        <ele>2455.6</ele>
        <time>2020-02-14T17:04:05.442Z</time>
      </trkpt>
      <trkpt lat="42.463" lon="1.73394">
        <ele>2451.6</ele>
        <time>2020-02-14T17:04:10.052Z</time>
      </trkpt>
      <trkpt lat="42.46301" lon="1.73407">
        <ele>2448.4</ele>
        <time>2020-02-14T17:04:14.931Z</time>
      </trkpt>
      <trkpt lat="42.46299" lon="1.73414">
        <ele>2445.8</ele>
        <time>2020-02-14T17:04:17.846Z</time>
      </trkpt>
      <trkpt lat="42.463" lon="1.73418">
        <ele>2444.9</ele>
        <time>2020-02-14T17:04:19.514Z</time>
      </trkpt>
      <trkpt lat="42.46302" lon="1.73436">
        <ele>2441.5</ele>
        <time>2020-02-14T17:04:26.207Z</time>
      </trkpt>
      <trkpt lat="42.46302" lon="1.73453">
        <ele>2436.8</ele>
        <time>2020-02-14T17:04:32.513Z</time>
      </trkpt>
      <trkpt lat="42.46301" lon="1.73457">
        <ele>2435.4</ele>
        <time>2020-02-14T17:04:34.216Z</time>
      </trkpt>
      <trkpt lat="42.46301" lon="1.73469">
        <ele>2431.3</ele>
        <time>2020-02-14T17:04:39.144Z</time>
      </trkpt>
      <trkpt lat="42.46301" lon="1.73484">
        <ele>2426.9</ele>
        <time>2020-02-14T17:04:44.758Z</time>
      </trkpt>
      <trkpt lat="42.46301" lon="1.73485">
        <ele>2426.7</ele>
        <time>2020-02-14T17:04:45.132Z</time>
      </trkpt>
      <trkpt lat="42.46301" lon="1.73486">
        <ele>2426.4</ele>
        <time>2020-02-14T17:04:45.575Z</time>
      </trkpt>
      <trkpt lat="42.46303" lon="1.73502">
        <ele>2421.8</ele>
        <time>2020-02-14T17:04:51.701Z</time>
      </trkpt>
      <trkpt lat="42.463" lon="1.73519">
        <ele>2418.2</ele>
        <time>2020-02-14T17:04:58.270Z</time>
      </trkpt>
      <trkpt lat="42.463" lon="1.73522">
        <ele>2417.6</ele>
        <time>2020-02-14T17:04:59.495Z</time>
      </trkpt>
      <trkpt lat="42.46298" lon="1.73525">
        <ele>2417.2</ele>
        <time>2020-02-14T17:05:00.831Z</time>
      </trkpt>
      <trkpt lat="42.46297" lon="1.73538">
        <ele>2416.2</ele>
        <time>2020-02-14T17:05:05.628Z</time>
      </trkpt>
      <trkpt lat="42.46297" lon="1.73539">
        <ele>2416.2</ele>
        <time>2020-02-14T17:05:06.147Z</time>
      </trkpt>
      <trkpt lat="42.46297" lon="1.7356">
        <ele>2415.3</ele>
        <time>2020-02-14T17:05:13.643Z</time>
      </trkpt>
      <trkpt lat="42.46297" lon="1.7358">
        <ele>2414.5</ele>
        <time>2020-02-14T17:05:20.960Z</time>
      </trkpt>
      <trkpt lat="42.46298" lon="1.73583">
        <ele>2414.3</ele>
        <time>2020-02-14T17:05:22.309Z</time>
      </trkpt>
      <trkpt lat="42.46298" lon="1.73589">
        <ele>2413.3</ele>
        <time>2020-02-14T17:05:24.282Z</time>
      </trkpt>
      <trkpt lat="42.46299" lon="1.73601">
        <ele>2410.8</ele>
        <time>2020-02-14T17:05:29.003Z</time>
      </trkpt>
      <trkpt lat="42.463" lon="1.73604">
        <ele>2410.2</ele>
        <time>2020-02-14T17:05:30.110Z</time>
      </trkpt>
      <trkpt lat="42.463" lon="1.73607">
        <ele>2409.7</ele>
        <time>2020-02-14T17:05:31.156Z</time>
      </trkpt>
      <trkpt lat="42.463" lon="1.73608">
        <ele>2409.4</ele>
        <time>2020-02-14T17:05:31.723Z</time>
      </trkpt>
      <trkpt lat="42.46299" lon="1.7361">
        <ele>2409.4</ele>
        <time>2020-02-14T17:05:32.519Z</time>
      </trkpt>
      <trkpt lat="42.46297" lon="1.73614">
        <ele>2408.4</ele>
        <time>2020-02-14T17:05:34.291Z</time>
      </trkpt>
      <trkpt lat="42.46298" lon="1.73617">
        <ele>2407.5</ele>
        <time>2020-02-14T17:05:35.454Z</time>
      </trkpt>
      <trkpt lat="42.46297" lon="1.7362">
        <ele>2406.8</ele>
        <time>2020-02-14T17:05:36.596Z</time>
      </trkpt>
      <trkpt lat="42.46297" lon="1.73624">
        <ele>2405.7</ele>
        <time>2020-02-14T17:05:38.195Z</time>
      </trkpt>
      <trkpt lat="42.46297" lon="1.73626">
        <ele>2405</ele>
        <time>2020-02-14T17:05:38.977Z</time>
      </trkpt>
      <trkpt lat="42.46298" lon="1.73627">
        <ele>2404.4</ele>
        <time>2020-02-14T17:05:39.732Z</time>
      </trkpt>
      <trkpt lat="42.46297" lon="1.7363">
        <ele>2403.9</ele>
        <time>2020-02-14T17:05:40.611Z</time>
      </trkpt>
      <trkpt lat="42.46298" lon="1.73632">
        <ele>2403</ele>
        <time>2020-02-14T17:05:41.677Z</time>
      </trkpt>
      <trkpt lat="42.46298" lon="1.73634">
        <ele>2402.6</ele>
        <time>2020-02-14T17:05:42.224Z</time>
      </trkpt>
      <trkpt lat="42.46299" lon="1.73637">
        <ele>2401.2</ele>
        <time>2020-02-14T17:05:43.726Z</time>
      </trkpt>
      <trkpt lat="42.46299" lon="1.73639">
        <ele>2400.7</ele>
        <time>2020-02-14T17:05:44.466Z</time>
      </trkpt>
      <trkpt lat="42.46299" lon="1.73641">
        <ele>2400.3</ele>
        <time>2020-02-14T17:05:45.096Z</time>
      </trkpt>
      <trkpt lat="42.463" lon="1.73646">
        <ele>2398.6</ele>
        <time>2020-02-14T17:05:47.111Z</time>
      </trkpt>
      <trkpt lat="42.463" lon="1.73648">
        <ele>2397.9</ele>
        <time>2020-02-14T17:05:48.197Z</time>
      </trkpt>
      <trkpt lat="42.46301" lon="1.73653">
        <ele>2396.5</ele>
        <time>2020-02-14T17:05:49.983Z</time>
      </trkpt>
      <trkpt lat="42.46302" lon="1.73658">
        <ele>2394.9</ele>
        <time>2020-02-14T17:05:52.136Z</time>
      </trkpt>
      <trkpt lat="42.46303" lon="1.73661">
        <ele>2393.9</ele>
        <time>2020-02-14T17:05:53.285Z</time>
      </trkpt>
      <trkpt lat="42.46305" lon="1.73668">
        <ele>2391.8</ele>
        <time>2020-02-14T17:05:56.109Z</time>
      </trkpt>
      <trkpt lat="42.46309" lon="1.73683">
        <ele>2388</ele>
        <time>2020-02-14T17:06:02.145Z</time>
      </trkpt>
      <trkpt lat="42.46312" lon="1.73696">
        <ele>2384.4</ele>
        <time>2020-02-14T17:06:07.226Z</time>
      </trkpt>
      <trkpt lat="42.46313" lon="1.737">
        <ele>2383.3</ele>
        <time>2020-02-14T17:06:08.991Z</time>
      </trkpt>
      <trkpt lat="42.46314" lon="1.73704">
        <ele>2381.7</ele>
        <time>2020-02-14T17:06:10.832Z</time>
      </trkpt>
      <trkpt lat="42.46318" lon="1.73713">
        <ele>2378.9</ele>
        <time>2020-02-14T17:06:14.833Z</time>
      </trkpt>
      <trkpt lat="42.46321" lon="1.73721">
        <ele>2376.5</ele>
        <time>2020-02-14T17:06:18.093Z</time>
      </trkpt>
      <trkpt lat="42.46323" lon="1.73724">
        <ele>2375.3</ele>
        <time>2020-02-14T17:06:19.664Z</time>
      </trkpt>
      <trkpt lat="42.46326" lon="1.73732">
        <ele>2372.2</ele>
        <time>2020-02-14T17:06:23.271Z</time>
      </trkpt>
      <trkpt lat="42.46329" lon="1.73737">
        <ele>2370.3</ele>
        <time>2020-02-14T17:06:25.603Z</time>
      </trkpt>
      <trkpt lat="42.46329" lon="1.73743">
        <ele>2368.3</ele>
        <time>2020-02-14T17:06:28.102Z</time>
      </trkpt>
      <trkpt lat="42.46327" lon="1.73751">
        <ele>2365.2</ele>
        <time>2020-02-14T17:06:31.535Z</time>
      </trkpt>
      <trkpt lat="42.46329" lon="1.73759">
        <ele>2362.4</ele>
        <time>2020-02-14T17:06:34.809Z</time>
      </trkpt>
      <trkpt lat="42.46332" lon="1.73767">
        <ele>2359.9</ele>
        <time>2020-02-14T17:06:38.160Z</time>
      </trkpt>
      <trkpt lat="42.46333" lon="1.73775">
        <ele>2357.1</ele>
        <time>2020-02-14T17:06:41.330Z</time>
      </trkpt>
      <trkpt lat="42.46336" lon="1.73781">
        <ele>2355.6</ele>
        <time>2020-02-14T17:06:44.092Z</time>
      </trkpt>
      <trkpt lat="42.46333" lon="1.73789">
        <ele>2353.2</ele>
        <time>2020-02-14T17:06:47.400Z</time>
      </trkpt>
      <trkpt lat="42.46332" lon="1.73793">
        <ele>2351.9</ele>
        <time>2020-02-14T17:06:49.179Z</time>
      </trkpt>
      <trkpt lat="42.46332" lon="1.73808">
        <ele>2348.2</ele>
        <time>2020-02-14T17:06:54.938Z</time>
      </trkpt>
      <trkpt lat="42.46325" lon="1.73817">
        <ele>2345.4</ele>
        <time>2020-02-14T17:06:59.784Z</time>
      </trkpt>
      <trkpt lat="42.46323" lon="1.73827">
        <ele>2343</ele>
        <time>2020-02-14T17:07:03.681Z</time>
      </trkpt>
      <trkpt lat="42.46323" lon="1.73839">
        <ele>2341.2</ele>
        <time>2020-02-14T17:07:08.111Z</time>
      </trkpt>
      <trkpt lat="42.46321" lon="1.73838">
        <ele>2340.9</ele>
        <time>2020-02-14T17:07:09.149Z</time>
      </trkpt>
      <trkpt lat="42.4632" lon="1.73839">
        <ele>2340.7</ele>
        <time>2020-02-14T17:07:09.710Z</time>
      </trkpt>
      <trkpt lat="42.46322" lon="1.73847">
        <ele>2340.3</ele>
        <time>2020-02-14T17:07:12.811Z</time>
      </trkpt>
      <trkpt lat="42.46318" lon="1.73868">
        <ele>2338.8</ele>
        <time>2020-02-14T17:07:20.584Z</time>
      </trkpt>
      <trkpt lat="42.46316" lon="1.7389">
        <ele>2338.3</ele>
        <time>2020-02-14T17:07:28.669Z</time>
      </trkpt>
      <trkpt lat="42.46319" lon="1.73893">
        <ele>2337.5</ele>
        <time>2020-02-14T17:07:30.503Z</time>
      </trkpt>
      <trkpt lat="42.4632" lon="1.73899">
        <ele>2335.7</ele>
        <time>2020-02-14T17:07:33.016Z</time>
      </trkpt>
      <trkpt lat="42.46321" lon="1.739">
        <ele>2335.4</ele>
        <time>2020-02-14T17:07:33.535Z</time>
      </trkpt>
      <trkpt lat="42.46321" lon="1.73904">
        <ele>2334.5</ele>
        <time>2020-02-14T17:07:34.892Z</time>
      </trkpt>
      <trkpt lat="42.46321" lon="1.73911">
        <ele>2332.4</ele>
        <time>2020-02-14T17:07:37.730Z</time>
      </trkpt>
      <trkpt lat="42.46322" lon="1.73918">
        <ele>2330.6</ele>
        <time>2020-02-14T17:07:40.374Z</time>
      </trkpt>
      <trkpt lat="42.46315" lon="1.73923">
        <ele>2327.3</ele>
        <time>2020-02-14T17:07:44.444Z</time>
      </trkpt>
      <trkpt lat="42.46313" lon="1.73928">
        <ele>2325</ele>
        <time>2020-02-14T17:07:46.707Z</time>
      </trkpt>
      <trkpt lat="42.46309" lon="1.73938">
        <ele>2319.8</ele>
        <time>2020-02-14T17:07:51.539Z</time>
      </trkpt>
      <trkpt lat="42.46307" lon="1.73945">
        <ele>2316.2</ele>
        <time>2020-02-14T17:07:54.654Z</time>
      </trkpt>
      <trkpt lat="42.46305" lon="1.73951">
        <ele>2313.7</ele>
        <time>2020-02-14T17:07:57.367Z</time>
      </trkpt>
      <trkpt lat="42.46303" lon="1.73957">
        <ele>2311.2</ele>
        <time>2020-02-14T17:07:59.997Z</time>
      </trkpt>
      <trkpt lat="42.463" lon="1.73964">
        <ele>2308.4</ele>
        <time>2020-02-14T17:08:03.126Z</time>
      </trkpt>
      <trkpt lat="42.46298" lon="1.73975">
        <ele>2304.3</ele>
        <time>2020-02-14T17:08:07.702Z</time>
      </trkpt>
      <trkpt lat="42.46296" lon="1.73981">
        <ele>2302.2</ele>
        <time>2020-02-14T17:08:10.325Z</time>
      </trkpt>
      <trkpt lat="42.46293" lon="1.7399">
        <ele>2299.7</ele>
        <time>2020-02-14T17:08:13.793Z</time>
      </trkpt>
      <trkpt lat="42.46294" lon="1.73999">
        <ele>2297.6</ele>
        <time>2020-02-14T17:08:17.309Z</time>
      </trkpt>
      <trkpt lat="42.46297" lon="1.74">
        <ele>2297.8</ele>
        <time>2020-02-14T17:08:18.901Z</time>
      </trkpt>
      <trkpt lat="42.46302" lon="1.74008">
        <ele>2296.4</ele>
        <time>2020-02-14T17:08:22.826Z</time>
      </trkpt>
      <trkpt lat="42.46302" lon="1.74007">
        <ele>2296.7</ele>
        <time>2020-02-14T17:08:23.082Z</time>
      </trkpt>
      <trkpt lat="42.46311" lon="1.74023">
        <ele>2293.9</ele>
        <time>2020-02-14T17:08:30.378Z</time>
      </trkpt>
      <trkpt lat="42.46313" lon="1.74033">
        <ele>2291.9</ele>
        <time>2020-02-14T17:08:34.171Z</time>
      </trkpt>
      <trkpt lat="42.46313" lon="1.74039">
        <ele>2289.9</ele>
        <time>2020-02-14T17:08:36.663Z</time>
      </trkpt>
      <trkpt lat="42.46314" lon="1.74045">
        <ele>2288.1</ele>
        <time>2020-02-14T17:08:38.822Z</time>
      </trkpt>
      <trkpt lat="42.46314" lon="1.74049">
        <ele>2286.6</ele>
        <time>2020-02-14T17:08:40.525Z</time>
      </trkpt>
      <trkpt lat="42.46312" lon="1.74058">
        <ele>2283.2</ele>
        <time>2020-02-14T17:08:44.138Z</time>
      </trkpt>
      <trkpt lat="42.46312" lon="1.74068">
        <ele>2279.7</ele>
        <time>2020-02-14T17:08:48.299Z</time>
      </trkpt>
      <trkpt lat="42.46313" lon="1.74077">
        <ele>2277</ele>
        <time>2020-02-14T17:08:51.884Z</time>
      </trkpt>
      <trkpt lat="42.46313" lon="1.74087">
        <ele>2273.9</ele>
        <time>2020-02-14T17:08:55.539Z</time>
      </trkpt>
      <trkpt lat="42.4631" lon="1.74092">
        <ele>2271.1</ele>
        <time>2020-02-14T17:08:58.495Z</time>
      </trkpt>
      <trkpt lat="42.46306" lon="1.74102">
        <ele>2267.2</ele>
        <time>2020-02-14T17:09:02.752Z</time>
      </trkpt>
      <trkpt lat="42.46305" lon="1.74103">
        <ele>2266.7</ele>
        <time>2020-02-14T17:09:03.368Z</time>
      </trkpt>
      <trkpt lat="42.46304" lon="1.74111">
        <ele>2264</ele>
        <time>2020-02-14T17:09:06.649Z</time>
      </trkpt>
      <trkpt lat="42.463" lon="1.74113">
        <ele>2263.6</ele>
        <time>2020-02-14T17:09:08.628Z</time>
      </trkpt>
      <trkpt lat="42.46292" lon="1.7412">
        <ele>2261.6</ele>
        <time>2020-02-14T17:09:13.321Z</time>
      </trkpt>
      <trkpt lat="42.46286" lon="1.74131">
        <ele>2258.5</ele>
        <time>2020-02-14T17:09:18.430Z</time>
      </trkpt>
      <trkpt lat="42.46285" lon="1.74133">
        <ele>2257.9</ele>
        <time>2020-02-14T17:09:19.426Z</time>
      </trkpt>
      <trkpt lat="42.46275" lon="1.74152">
        <ele>2253.4</ele>
        <time>2020-02-14T17:09:28.252Z</time>
      </trkpt>
      <trkpt lat="42.46272" lon="1.74153">
        <ele>2253.6</ele>
        <time>2020-02-14T17:09:30.155Z</time>
      </trkpt>
      <trkpt lat="42.46262" lon="1.74162">
        <ele>2252.5</ele>
        <time>2020-02-14T17:09:35.741Z</time>
      </trkpt>
      <trkpt lat="42.46256" lon="1.7418">
        <ele>2249.3</ele>
        <time>2020-02-14T17:09:43.092Z</time>
      </trkpt>
      <trkpt lat="42.4625" lon="1.74195">
        <ele>2247.1</ele>
        <time>2020-02-14T17:09:49.315Z</time>
      </trkpt>
      <trkpt lat="42.46251" lon="1.742">
        <ele>2245.9</ele>
        <time>2020-02-14T17:09:51.399Z</time>
      </trkpt>
      <trkpt lat="42.46248" lon="1.74213">
        <ele>2244.1</ele>
        <time>2020-02-14T17:09:56.486Z</time>
      </trkpt>
      <trkpt lat="42.46249" lon="1.74224">
        <ele>2241.5</ele>
        <time>2020-02-14T17:10:00.646Z</time>
      </trkpt>
      <trkpt lat="42.46249" lon="1.74227">
        <ele>2240.6</ele>
        <time>2020-02-14T17:10:01.809Z</time>
      </trkpt>
      <trkpt lat="42.46246" lon="1.74241">
        <ele>2236.8</ele>
        <time>2020-02-14T17:10:07.257Z</time>
      </trkpt>
      <trkpt lat="42.4624" lon="1.74249">
        <ele>2235.3</ele>
        <time>2020-02-14T17:10:11.272Z</time>
      </trkpt>
      <trkpt lat="42.46241" lon="1.7425">
        <ele>2234.7</ele>
        <time>2020-02-14T17:10:11.798Z</time>
      </trkpt>
      <trkpt lat="42.4624" lon="1.74253">
        <ele>2233.6</ele>
        <time>2020-02-14T17:10:13.009Z</time>
      </trkpt>
      <trkpt lat="42.46239" lon="1.74261">
        <ele>2230.9</ele>
        <time>2020-02-14T17:10:16.158Z</time>
      </trkpt>
      <trkpt lat="42.46242" lon="1.7427">
        <ele>2227.3</ele>
        <time>2020-02-14T17:10:20.069Z</time>
      </trkpt>
      <trkpt lat="42.46241" lon="1.74272">
        <ele>2226.5</ele>
        <time>2020-02-14T17:10:21.011Z</time>
      </trkpt>
      <trkpt lat="42.4624" lon="1.74276">
        <ele>2225.2</ele>
        <time>2020-02-14T17:10:22.492Z</time>
      </trkpt>
      <trkpt lat="42.46239" lon="1.74279">
        <ele>2223.9</ele>
        <time>2020-02-14T17:10:23.890Z</time>
      </trkpt>
      <trkpt lat="42.46239" lon="1.7428">
        <ele>2223.7</ele>
        <time>2020-02-14T17:10:24.222Z</time>
      </trkpt>
      <trkpt lat="42.46239" lon="1.74291">
        <ele>2219</ele>
        <time>2020-02-14T17:10:28.922Z</time>
      </trkpt>
      <trkpt lat="42.46238" lon="1.743">
        <ele>2215.2</ele>
        <time>2020-02-14T17:10:32.660Z</time>
      </trkpt>
      <trkpt lat="42.46236" lon="1.74304">
        <ele>2213.5</ele>
        <time>2020-02-14T17:10:34.633Z</time>
      </trkpt>
      <trkpt lat="42.46234" lon="1.74312">
        <ele>2210.5</ele>
        <time>2020-02-14T17:10:37.879Z</time>
      </trkpt>
      <trkpt lat="42.4623" lon="1.74319">
        <ele>2207</ele>
        <time>2020-02-14T17:10:41.638Z</time>
      </trkpt>
      <trkpt lat="42.46228" lon="1.74323">
        <ele>2205.2</ele>
        <time>2020-02-14T17:10:43.514Z</time>
      </trkpt>
      <trkpt lat="42.46223" lon="1.74333">
        <ele>2200.6</ele>
        <time>2020-02-14T17:10:48.068Z</time>
      </trkpt>
      <trkpt lat="42.46221" lon="1.74339">
        <ele>2198.5</ele>
        <time>2020-02-14T17:10:50.775Z</time>
      </trkpt>
      <trkpt lat="42.46218" lon="1.74348">
        <ele>2195.7</ele>
        <time>2020-02-14T17:10:54.755Z</time>
      </trkpt>
      <trkpt lat="42.46216" lon="1.74353">
        <ele>2194.2</ele>
        <time>2020-02-14T17:10:56.873Z</time>
      </trkpt>
      <trkpt lat="42.46215" lon="1.74352">
        <ele>2194.7</ele>
        <time>2020-02-14T17:10:57.676Z</time>
      </trkpt>
      <trkpt lat="42.46215" lon="1.74355">
        <ele>2193.8</ele>
        <time>2020-02-14T17:10:58.964Z</time>
      </trkpt>
      <trkpt lat="42.46214" lon="1.74365">
        <ele>2190.7</ele>
        <time>2020-02-14T17:11:02.909Z</time>
      </trkpt>
      <trkpt lat="42.46212" lon="1.74376">
        <ele>2187.5</ele>
        <time>2020-02-14T17:11:07.214Z</time>
      </trkpt>
      <trkpt lat="42.46213" lon="1.74381">
        <ele>2186.3</ele>
        <time>2020-02-14T17:11:08.903Z</time>
      </trkpt>
      <trkpt lat="42.46214" lon="1.74389">
        <ele>2183.7</ele>
        <time>2020-02-14T17:11:12.004Z</time>
      </trkpt>
      <trkpt lat="42.46218" lon="1.74398">
        <ele>2181.2</ele>
        <time>2020-02-14T17:11:16.171Z</time>
      </trkpt>
      <trkpt lat="42.46225" lon="1.74414">
        <ele>2177.3</ele>
        <time>2020-02-14T17:11:23.149Z</time>
      </trkpt>
      <trkpt lat="42.46228" lon="1.7443">
        <ele>2173.8</ele>
        <time>2020-02-14T17:11:29.351Z</time>
      </trkpt>
      <trkpt lat="42.46224" lon="1.74437">
        <ele>2171.4</ele>
        <time>2020-02-14T17:11:32.666Z</time>
      </trkpt>
      <trkpt lat="42.46219" lon="1.74443">
        <ele>2170</ele>
        <time>2020-02-14T17:11:35.947Z</time>
      </trkpt>
      <trkpt lat="42.46217" lon="1.74446">
        <ele>2169.1</ele>
        <time>2020-02-14T17:11:37.602Z</time>
      </trkpt>
      <trkpt lat="42.46215" lon="1.74456">
        <ele>2166.1</ele>
        <time>2020-02-14T17:11:41.651Z</time>
      </trkpt>
      <trkpt lat="42.46215" lon="1.74466">
        <ele>2162.8</ele>
        <time>2020-02-14T17:11:45.631Z</time>
      </trkpt>
      <trkpt lat="42.46216" lon="1.74477">
        <ele>2159.1</ele>
        <time>2020-02-14T17:11:50.006Z</time>
      </trkpt>
      <trkpt lat="42.46221" lon="1.7449">
        <ele>2154.4</ele>
        <time>2020-02-14T17:11:55.737Z</time>
      </trkpt>
      <trkpt lat="42.46227" lon="1.745">
        <ele>2151.9</ele>
        <time>2020-02-14T17:12:00.575Z</time>
      </trkpt>
      <trkpt lat="42.46228" lon="1.74517">
        <ele>2146.9</ele>
        <time>2020-02-14T17:12:07.089Z</time>
      </trkpt>
      <trkpt lat="42.46225" lon="1.74521">
        <ele>2145.5</ele>
        <time>2020-02-14T17:12:09.235Z</time>
      </trkpt>
      <trkpt lat="42.46223" lon="1.74528">
        <ele>2143.1</ele>
        <time>2020-02-14T17:12:12.260Z</time>
      </trkpt>
      <trkpt lat="42.46218" lon="1.74542">
        <ele>2139.9</ele>
        <time>2020-02-14T17:12:18.164Z</time>
      </trkpt>
      <trkpt lat="42.46215" lon="1.74556">
        <ele>2136.4</ele>
        <time>2020-02-14T17:12:23.785Z</time>
      </trkpt>
      <trkpt lat="42.46212" lon="1.74568">
        <ele>2132.8</ele>
        <time>2020-02-14T17:12:28.540Z</time>
      </trkpt>
      <trkpt lat="42.46211" lon="1.74577">
        <ele>2130.1</ele>
        <time>2020-02-14T17:12:32.056Z</time>
      </trkpt>
      <trkpt lat="42.46207" lon="1.74588">
        <ele>2126.6</ele>
        <time>2020-02-14T17:12:36.708Z</time>
      </trkpt>
      <trkpt lat="42.46203" lon="1.74605">
        <ele>2121.1</ele>
        <time>2020-02-14T17:12:43.664Z</time>
      </trkpt>
      <trkpt lat="42.46207" lon="1.74613">
        <ele>2118.6</ele>
        <time>2020-02-14T17:12:47.146Z</time>
      </trkpt>
      <trkpt lat="42.46209" lon="1.74624">
        <ele>2115</ele>
        <time>2020-02-14T17:12:51.846Z</time>
      </trkpt>
      <trkpt lat="42.46214" lon="1.74631">
        <ele>2111.7</ele>
        <time>2020-02-14T17:12:55.861Z</time>
      </trkpt>
      <trkpt lat="42.46221" lon="1.74636">
        <ele>2108.3</ele>
        <time>2020-02-14T17:13:00.090Z</time>
      </trkpt>
      <trkpt lat="42.46233" lon="1.74638">
        <ele>2106.7</ele>
        <time>2020-02-14T17:13:05.932Z</time>
      </trkpt>
      <trkpt lat="42.46232" lon="1.74643">
        <ele>2104.8</ele>
        <time>2020-02-14T17:13:08.002Z</time>
      </trkpt>
      <trkpt lat="42.46232" lon="1.7465">
        <ele>2102.2</ele>
        <time>2020-02-14T17:13:10.826Z</time>
      </trkpt>
      <trkpt lat="42.4623" lon="1.74656">
        <ele>2100.3</ele>
        <time>2020-02-14T17:13:13.532Z</time>
      </trkpt>
      <trkpt lat="42.4623" lon="1.74662">
        <ele>2098.3</ele>
        <time>2020-02-14T17:13:15.644Z</time>
      </trkpt>
      <trkpt lat="42.46232" lon="1.7467">
        <ele>2095.2</ele>
        <time>2020-02-14T17:13:19.174Z</time>
      </trkpt>
      <trkpt lat="42.46233" lon="1.74674">
        <ele>2093.7</ele>
        <time>2020-02-14T17:13:20.738Z</time>
      </trkpt>
      <trkpt lat="42.46233" lon="1.74677">
        <ele>2092.4</ele>
        <time>2020-02-14T17:13:22.150Z</time>
      </trkpt>
      <trkpt lat="42.46233" lon="1.74684">
        <ele>2089.8</ele>
        <time>2020-02-14T17:13:24.940Z</time>
      </trkpt>
      <trkpt lat="42.46235" lon="1.74691">
        <ele>2087</ele>
        <time>2020-02-14T17:13:27.999Z</time>
      </trkpt>
      <trkpt lat="42.46235" lon="1.74697">
        <ele>2085</ele>
        <time>2020-02-14T17:13:30.242Z</time>
      </trkpt>
      <trkpt lat="42.46237" lon="1.74705">
        <ele>2081.6</ele>
        <time>2020-02-14T17:13:33.924Z</time>
      </trkpt>
      <trkpt lat="42.46233" lon="1.74727">
        <ele>2074.4</ele>
        <time>2020-02-14T17:13:42.584Z</time>
      </trkpt>
      <trkpt lat="42.46215" lon="1.74745">
        <ele>2071.7</ele>
        <time>2020-02-14T17:13:53.811Z</time>
      </trkpt>
      <trkpt lat="42.46196" lon="1.74755">
        <ele>2072.5</ele>
        <time>2020-02-14T17:14:03.938Z</time>
      </trkpt>
      <trkpt lat="42.46185" lon="1.74761">
        <ele>2071.3</ele>
        <time>2020-02-14T17:14:09.434Z</time>
      </trkpt>
      <trkpt lat="42.46163" lon="1.74768">
        <ele>2070.9</ele>
        <time>2020-02-14T17:14:20.557Z</time>
      </trkpt>
      <trkpt lat="42.46157" lon="1.7477">
        <ele>2070.9</ele>
        <time>2020-02-14T17:14:23.956Z</time>
      </trkpt>
      <trkpt lat="42.46137" lon="1.74783">
        <ele>2068.7</ele>
        <time>2020-02-14T17:14:34.768Z</time>
      </trkpt>
      <trkpt lat="42.4612" lon="1.74798">
        <ele>2067.6</ele>
        <time>2020-02-14T17:14:44.853Z</time>
      </trkpt>
      <trkpt lat="42.46096" lon="1.74812">
        <ele>2066.6</ele>
        <time>2020-02-14T17:14:57.534Z</time>
      </trkpt>
      <trkpt lat="42.46073" lon="1.74832">
        <ele>2064.1</ele>
        <time>2020-02-14T17:15:11.066Z</time>
      </trkpt>
      <trkpt lat="42.46056" lon="1.74856">
        <ele>2063.9</ele>
        <time>2020-02-14T17:15:23.069Z</time>
      </trkpt>
      <trkpt lat="42.46039" lon="1.7489">
        <ele>2062.9</ele>
        <time>2020-02-14T17:15:38.166Z</time>
      </trkpt>
      <trkpt lat="42.46023" lon="1.74919">
        <ele>2060.3</ele>
        <time>2020-02-14T17:15:51.193Z</time>
      </trkpt>
      <trkpt lat="42.46019" lon="1.74924">
        <ele>2061</ele>
        <time>2020-02-14T17:15:53.809Z</time>
      </trkpt>
      <trkpt lat="42.46008" lon="1.74952">
        <ele>2059.5</ele>
        <time>2020-02-14T17:16:05.639Z</time>
      </trkpt>
      <trkpt lat="42.45998" lon="1.74982">
        <ele>2056.9</ele>
        <time>2020-02-14T17:16:17.448Z</time>
      </trkpt>
      <trkpt lat="42.45995" lon="1.74988">
        <ele>2056.4</ele>
        <time>2020-02-14T17:16:20.258Z</time>
      </trkpt>
      <trkpt lat="42.45976" lon="1.75008">
        <ele>2057.1</ele>
        <time>2020-02-14T17:16:32.150Z</time>
      </trkpt>
      <trkpt lat="42.45966" lon="1.7503">
        <ele>2055.6</ele>
        <time>2020-02-14T17:16:41.391Z</time>
      </trkpt>
      <trkpt lat="42.45946" lon="1.75057">
        <ele>2054.1</ele>
        <time>2020-02-14T17:16:55.207Z</time>
      </trkpt>
      <trkpt lat="42.45929" lon="1.75077">
        <ele>2051.9</ele>
        <time>2020-02-14T17:17:06.503Z</time>
      </trkpt>
      <trkpt lat="42.45909" lon="1.75102">
        <ele>2050.6</ele>
        <time>2020-02-14T17:17:20.049Z</time>
      </trkpt>
      <trkpt lat="42.45894" lon="1.75135">
        <ele>2047.3</ele>
        <time>2020-02-14T17:17:33.838Z</time>
      </trkpt>
      <trkpt lat="42.45882" lon="1.75169">
        <ele>2045.4</ele>
        <time>2020-02-14T17:17:47.606Z</time>
      </trkpt>
      <trkpt lat="42.45869" lon="1.75198">
        <ele>2043.7</ele>
        <time>2020-02-14T17:18:00.148Z</time>
      </trkpt>
      <trkpt lat="42.45851" lon="1.75223">
        <ele>2043</ele>
        <time>2020-02-14T17:18:12.746Z</time>
      </trkpt>
      <trkpt lat="42.45825" lon="1.7524">
        <ele>2041.9</ele>
        <time>2020-02-14T17:18:27.116Z</time>
      </trkpt>
      <trkpt lat="42.45803" lon="1.75242">
        <ele>2041.9</ele>
        <time>2020-02-14T17:18:37.969Z</time>
      </trkpt>
      <trkpt lat="42.45784" lon="1.75242">
        <ele>2042.1</ele>
        <time>2020-02-14T17:18:47.279Z</time>
      </trkpt>
      <trkpt lat="42.45782" lon="1.75242">
        <ele>2042</ele>
        <time>2020-02-14T17:18:48.318Z</time>
      </trkpt>
      <trkpt lat="42.4578" lon="1.75241">
        <ele>2042.4</ele>
        <time>2020-02-14T17:18:49.356Z</time>
      </trkpt>
      <trkpt lat="42.45756" lon="1.75242">
        <ele>2043.1</ele>
        <time>2020-02-14T17:19:01.192Z</time>
      </trkpt>
      <trkpt lat="42.45727" lon="1.75248">
        <ele>2042.6</ele>
        <time>2020-02-14T17:19:15.943Z</time>
      </trkpt>
      <trkpt lat="42.45704" lon="1.75254">
        <ele>2041.4</ele>
        <time>2020-02-14T17:19:27.073Z</time>
      </trkpt>
      <trkpt lat="42.45695" lon="1.75255">
        <ele>2041.2</ele>
        <time>2020-02-14T17:19:31.573Z</time>
      </trkpt>
      <trkpt lat="42.45667" lon="1.75263">
        <ele>2040.3</ele>
        <time>2020-02-14T17:19:45.680Z</time>
      </trkpt>
      <trkpt lat="42.45664" lon="1.75264">
        <ele>2039.3</ele>
        <time>2020-02-14T17:19:47.417Z</time>
      </trkpt>
      <trkpt lat="42.45655" lon="1.75263">
        <ele>2037.6</ele>
        <time>2020-02-14T17:19:52.020Z</time>
      </trkpt>
      <trkpt lat="42.45651" lon="1.75261">
        <ele>2038</ele>
        <time>2020-02-14T17:19:54.055Z</time>
      </trkpt>
      <trkpt lat="42.45645" lon="1.75257">
        <ele>2038.5</ele>
        <time>2020-02-14T17:19:57.253Z</time>
      </trkpt>
      <trkpt lat="42.45643" lon="1.75255">
        <ele>2038.9</ele>
        <time>2020-02-14T17:19:58.464Z</time>
      </trkpt>
      <trkpt lat="42.45624" lon="1.75233">
        <ele>2042</ele>
        <time>2020-02-14T17:20:11.228Z</time>
      </trkpt>
      <trkpt lat="42.45597" lon="1.75226">
        <ele>2039.5</ele>
        <time>2020-02-14T17:20:24.816Z</time>
      </trkpt>
      <trkpt lat="42.45585" lon="1.75224">
        <ele>2039.3</ele>
        <time>2020-02-14T17:20:30.624Z</time>
      </trkpt>
      <trkpt lat="42.45585" lon="1.75224">
        <ele>2039.4</ele>
        <time>2020-02-14T17:20:30.776Z</time>
      </trkpt>
      <trkpt lat="42.4558" lon="1.75223">
        <ele>2039.5</ele>
        <time>2020-02-14T17:20:33.164Z</time>
      </trkpt>
      <trkpt lat="42.45551" lon="1.75221">
        <ele>2037.7</ele>
        <time>2020-02-14T17:20:47.686Z</time>
      </trkpt>
      <trkpt lat="42.45531" lon="1.75208">
        <ele>2038.7</ele>
        <time>2020-02-14T17:20:58.816Z</time>
      </trkpt>
      <trkpt lat="42.45508" lon="1.75192">
        <ele>2039.2</ele>
        <time>2020-02-14T17:21:11.221Z</time>
      </trkpt>
      <trkpt lat="42.45482" lon="1.75176">
        <ele>2038</ele>
        <time>2020-02-14T17:21:25.410Z</time>
      </trkpt>
      <trkpt lat="42.4546" lon="1.75172">
        <ele>2038.4</ele>
        <time>2020-02-14T17:21:36.513Z</time>
      </trkpt>
      <trkpt lat="42.45443" lon="1.75187">
        <ele>2034.1</ele>
        <time>2020-02-14T17:21:46.688Z</time>
      </trkpt>
      <trkpt lat="42.45418" lon="1.75215">
        <ele>2031.9</ele>
        <time>2020-02-14T17:22:02.512Z</time>
      </trkpt>
      <trkpt lat="42.45402" lon="1.75243">
        <ele>2029.2</ele>
        <time>2020-02-14T17:22:15.594Z</time>
      </trkpt>
      <trkpt lat="42.45384" lon="1.75274">
        <ele>2026.8</ele>
        <time>2020-02-14T17:22:29.646Z</time>
      </trkpt>
      <trkpt lat="42.45368" lon="1.75294">
        <ele>2024.8</ele>
        <time>2020-02-14T17:22:40.631Z</time>
      </trkpt>
      <trkpt lat="42.45339" lon="1.75316">
        <ele>2022</ele>
        <time>2020-02-14T17:22:56.953Z</time>
      </trkpt>
      <trkpt lat="42.4531" lon="1.75327">
        <ele>2019</ele>
        <time>2020-02-14T17:23:11.779Z</time>
      </trkpt>
      <trkpt lat="42.45282" lon="1.75325">
        <ele>2017.6</ele>
        <time>2020-02-14T17:23:25.997Z</time>
      </trkpt>
      <trkpt lat="42.4525" lon="1.75318">
        <ele>2015</ele>
        <time>2020-02-14T17:23:41.966Z</time>
      </trkpt>
      <trkpt lat="42.45222" lon="1.75312">
        <ele>2013.2</ele>
        <time>2020-02-14T17:23:55.900Z</time>
      </trkpt>
      <trkpt lat="42.452" lon="1.75308">
        <ele>2012.2</ele>
        <time>2020-02-14T17:24:06.760Z</time>
      </trkpt>
      <trkpt lat="42.45176" lon="1.75309">
        <ele>2010</ele>
        <time>2020-02-14T17:24:18.825Z</time>
      </trkpt>
      <trkpt lat="42.45155" lon="1.75315">
        <ele>2005.7</ele>
        <time>2020-02-14T17:24:29.526Z</time>
      </trkpt>
      <trkpt lat="42.45131" lon="1.75315">
        <ele>2003.1</ele>
        <time>2020-02-14T17:24:41.501Z</time>
      </trkpt>
      <trkpt lat="42.4511" lon="1.75292">
        <ele>2003.8</ele>
        <time>2020-02-14T17:24:54.521Z</time>
      </trkpt>
      <trkpt lat="42.45094" lon="1.75268">
        <ele>2002.2</ele>
        <time>2020-02-14T17:25:06.372Z</time>
      </trkpt>
      <trkpt lat="42.45073" lon="1.75245">
        <ele>2000.9</ele>
        <time>2020-02-14T17:25:19.724Z</time>
      </trkpt>
      <trkpt lat="42.4505" lon="1.75242">
        <ele>1996.8</ele>
        <time>2020-02-14T17:25:30.882Z</time>
      </trkpt>
      <trkpt lat="42.45044" lon="1.75245">
        <ele>1995.5</ele>
        <time>2020-02-14T17:25:34.475Z</time>
      </trkpt>
      <trkpt lat="42.45021" lon="1.75254">
        <ele>1992.4</ele>
        <time>2020-02-14T17:25:46.270Z</time>
      </trkpt>
      <trkpt lat="42.45014" lon="1.75257">
        <ele>1991.5</ele>
        <time>2020-02-14T17:25:49.800Z</time>
      </trkpt>
      <trkpt lat="42.44999" lon="1.75265">
        <ele>1990.4</ele>
        <time>2020-02-14T17:25:57.857Z</time>
      </trkpt>
      <trkpt lat="42.44981" lon="1.75278">
        <ele>1987.2</ele>
        <time>2020-02-14T17:26:08.101Z</time>
      </trkpt>
      <trkpt lat="42.44981" lon="1.75278">
        <ele>1987.3</ele>
        <time>2020-02-14T17:26:08.233Z</time>
      </trkpt>
      <trkpt lat="42.44966" lon="1.75287">
        <ele>1986.7</ele>
        <time>2020-02-14T17:26:16.152Z</time>
      </trkpt>
      <trkpt lat="42.44953" lon="1.75302">
        <ele>1985.9</ele>
        <time>2020-02-14T17:26:24.402Z</time>
      </trkpt>
      <trkpt lat="42.44933" lon="1.75318">
        <ele>1983.6</ele>
        <time>2020-02-14T17:26:36.024Z</time>
      </trkpt>
      <trkpt lat="42.44912" lon="1.7533">
        <ele>1981.3</ele>
        <time>2020-02-14T17:26:47.404Z</time>
      </trkpt>
      <trkpt lat="42.44889" lon="1.75341">
        <ele>1979.4</ele>
        <time>2020-02-14T17:26:59.130Z</time>
      </trkpt>
      <trkpt lat="42.44871" lon="1.75336">
        <ele>1977.3</ele>
        <time>2020-02-14T17:27:08.502Z</time>
      </trkpt>
      <trkpt lat="42.44843" lon="1.7533">
        <ele>1977</ele>
        <time>2020-02-14T17:27:22.249Z</time>
      </trkpt>
      <trkpt lat="42.44833" lon="1.75336">
        <ele>1975.6</ele>
        <time>2020-02-14T17:27:27.869Z</time>
      </trkpt>
      <trkpt lat="42.44821" lon="1.75349">
        <ele>1973.5</ele>
        <time>2020-02-14T17:27:35.352Z</time>
      </trkpt>
      <trkpt lat="42.44819" lon="1.75354">
        <ele>1972.5</ele>
        <time>2020-02-14T17:27:37.539Z</time>
      </trkpt>
      <trkpt lat="42.44814" lon="1.75357">
        <ele>1972.2</ele>
        <time>2020-02-14T17:27:40.177Z</time>
      </trkpt>
      <trkpt lat="42.44791" lon="1.7538">
        <ele>1969.7</ele>
        <time>2020-02-14T17:27:54.540Z</time>
      </trkpt>
      <trkpt lat="42.44772" lon="1.75405">
        <ele>1967.9</ele>
        <time>2020-02-14T17:28:07.338Z</time>
      </trkpt>
      <trkpt lat="42.44757" lon="1.75431">
        <ele>1966.2</ele>
        <time>2020-02-14T17:28:19.369Z</time>
      </trkpt>
      <trkpt lat="42.44749" lon="1.75452">
        <ele>1963.5</ele>
        <time>2020-02-14T17:28:28.187Z</time>
      </trkpt>
      <trkpt lat="42.44735" lon="1.75478">
        <ele>1961.1</ele>
        <time>2020-02-14T17:28:39.733Z</time>
      </trkpt>
      <trkpt lat="42.44722" lon="1.75491">
        <ele>1960.5</ele>
        <time>2020-02-14T17:28:48.004Z</time>
      </trkpt>
      <trkpt lat="42.44696" lon="1.75508">
        <ele>1958.3</ele>
        <time>2020-02-14T17:29:02.091Z</time>
      </trkpt>
      <trkpt lat="42.44673" lon="1.75518">
        <ele>1955.4</ele>
        <time>2020-02-14T17:29:14.197Z</time>
      </trkpt>
      <trkpt lat="42.4465" lon="1.75523">
        <ele>1953.8</ele>
        <time>2020-02-14T17:29:25.826Z</time>
      </trkpt>
      <trkpt lat="42.44621" lon="1.75529">
        <ele>1951.7</ele>
        <time>2020-02-14T17:29:39.919Z</time>
      </trkpt>
      <trkpt lat="42.446" lon="1.75537">
        <ele>1949.5</ele>
        <time>2020-02-14T17:29:50.786Z</time>
      </trkpt>
      <trkpt lat="42.44597" lon="1.75537">
        <ele>1949.2</ele>
        <time>2020-02-14T17:29:52.219Z</time>
      </trkpt>
      <trkpt lat="42.4459" lon="1.75538">
        <ele>1949.2</ele>
        <time>2020-02-14T17:29:56.068Z</time>
      </trkpt>
      <trkpt lat="42.44588" lon="1.75544">
        <ele>1947.9</ele>
        <time>2020-02-14T17:29:58.643Z</time>
      </trkpt>
      <trkpt lat="42.44589" lon="1.75556">
        <ele>1945.5</ele>
        <time>2020-02-14T17:30:03.142Z</time>
      </trkpt>
      <trkpt lat="42.44591" lon="1.75577">
        <ele>1940.5</ele>
        <time>2020-02-14T17:30:11.060Z</time>
      </trkpt>
      <trkpt lat="42.44592" lon="1.75594">
        <ele>1937.4</ele>
        <time>2020-02-14T17:30:17.186Z</time>
      </trkpt>
      <trkpt lat="42.44594" lon="1.75598">
        <ele>1936.6</ele>
        <time>2020-02-14T17:30:19.249Z</time>
      </trkpt>
      <trkpt lat="42.44612" lon="1.75607">
        <ele>1933.3</ele>
        <time>2020-02-14T17:30:29.002Z</time>
      </trkpt>
      <trkpt lat="42.44625" lon="1.75614">
        <ele>1930.1</ele>
        <time>2020-02-14T17:30:36.000Z</time>
      </trkpt>
      <trkpt lat="42.44633" lon="1.7562">
        <ele>1927.1</ele>
        <time>2020-02-14T17:30:40.562Z</time>
      </trkpt>
      <trkpt lat="42.44635" lon="1.75621">
        <ele>1926.6</ele>
        <time>2020-02-14T17:30:41.787Z</time>
      </trkpt>
      <trkpt lat="42.44647" lon="1.7562">
        <ele>1924.8</ele>
        <time>2020-02-14T17:30:47.767Z</time>
      </trkpt>
      <trkpt lat="42.4466" lon="1.75621">
        <ele>1922.1</ele>
        <time>2020-02-14T17:30:54.302Z</time>
      </trkpt>
      <trkpt lat="42.44673" lon="1.75625">
        <ele>1918.6</ele>
        <time>2020-02-14T17:31:01.009Z</time>
      </trkpt>
      <trkpt lat="42.44686" lon="1.75629">
        <ele>1914.9</ele>
        <time>2020-02-14T17:31:07.709Z</time>
      </trkpt>
      <trkpt lat="42.447" lon="1.75631">
        <ele>1911.7</ele>
        <time>2020-02-14T17:31:14.590Z</time>
      </trkpt>
      <trkpt lat="42.44709" lon="1.75634">
        <ele>1909.3</ele>
        <time>2020-02-14T17:31:19.525Z</time>
      </trkpt>
      <trkpt lat="42.44714" lon="1.75636">
        <ele>1908.1</ele>
        <time>2020-02-14T17:31:22.245Z</time>
      </trkpt>
      <trkpt lat="42.44727" lon="1.75647">
        <ele>1903.6</ele>
        <time>2020-02-14T17:31:29.908Z</time>
      </trkpt>
      <trkpt lat="42.44736" lon="1.75661">
        <ele>1899.9</ele>
        <time>2020-02-14T17:31:36.698Z</time>
      </trkpt>
      <trkpt lat="42.44748" lon="1.75669">
        <ele>1897.6</ele>
        <time>2020-02-14T17:31:43.454Z</time>
      </trkpt>
      <trkpt lat="42.44763" lon="1.7567">
        <ele>1893.7</ele>
        <time>2020-02-14T17:31:51.380Z</time>
      </trkpt>
      <trkpt lat="42.44777" lon="1.75666">
        <ele>1890.6</ele>
        <time>2020-02-14T17:31:58.205Z</time>
      </trkpt>
      <trkpt lat="42.44783" lon="1.75662">
        <ele>1890.1</ele>
        <time>2020-02-14T17:32:01.721Z</time>
      </trkpt>
      <trkpt lat="42.44801" lon="1.7566">
        <ele>1888.2</ele>
        <time>2020-02-14T17:32:10.560Z</time>
      </trkpt>
      <trkpt lat="42.44802" lon="1.75661">
        <ele>1888</ele>
        <time>2020-02-14T17:32:10.872Z</time>
      </trkpt>
      <trkpt lat="42.44813" lon="1.75669">
        <ele>1883.6</ele>
        <time>2020-02-14T17:32:17.731Z</time>
      </trkpt>
      <trkpt lat="42.44819" lon="1.75677">
        <ele>1880</ele>
        <time>2020-02-14T17:32:22.162Z</time>
      </trkpt>
      <trkpt lat="42.44829" lon="1.75678">
        <ele>1878.6</ele>
        <time>2020-02-14T17:32:27.090Z</time>
      </trkpt>
      <trkpt lat="42.44839" lon="1.75676">
        <ele>1877.5</ele>
        <time>2020-02-14T17:32:31.707Z</time>
      </trkpt>
      <trkpt lat="42.44858" lon="1.7567">
        <ele>1873.9</ele>
        <time>2020-02-14T17:32:41.716Z</time>
      </trkpt>
      <trkpt lat="42.4487" lon="1.75673">
        <ele>1869.5</ele>
        <time>2020-02-14T17:32:47.959Z</time>
      </trkpt>
      <trkpt lat="42.44873" lon="1.75661">
        <ele>1872.4</ele>
        <time>2020-02-14T17:32:52.549Z</time>
      </trkpt>
      <trkpt lat="42.44877" lon="1.75657">
        <ele>1872.9</ele>
        <time>2020-02-14T17:32:55.214Z</time>
      </trkpt>
      <trkpt lat="42.44889" lon="1.75662">
        <ele>1867.8</ele>
        <time>2020-02-14T17:33:01.526Z</time>
      </trkpt>
      <trkpt lat="42.44885" lon="1.75669">
        <ele>1866.4</ele>
        <time>2020-02-14T17:33:04.496Z</time>
      </trkpt>
      <trkpt lat="42.44885" lon="1.75678">
        <ele>1863.4</ele>
        <time>2020-02-14T17:33:08.206Z</time>
      </trkpt>
      <trkpt lat="42.44885" lon="1.75685">
        <ele>1861.1</ele>
        <time>2020-02-14T17:33:10.816Z</time>
      </trkpt>
      <trkpt lat="42.44884" lon="1.75699">
        <ele>1856.8</ele>
        <time>2020-02-14T17:33:16.166Z</time>
      </trkpt>
      <trkpt lat="42.44883" lon="1.75704">
        <ele>1855.2</ele>
        <time>2020-02-14T17:33:18.264Z</time>
      </trkpt>
      <trkpt lat="42.44881" lon="1.7571">
        <ele>1853.7</ele>
        <time>2020-02-14T17:33:20.582Z</time>
      </trkpt>
      <trkpt lat="42.44883" lon="1.75715">
        <ele>1851.6</ele>
        <time>2020-02-14T17:33:22.860Z</time>
      </trkpt>
      <trkpt lat="42.44891" lon="1.75715">
        <ele>1851.5</ele>
        <time>2020-02-14T17:33:26.757Z</time>
      </trkpt>
      <trkpt lat="42.44899" lon="1.75734">
        <ele>1850.3</ele>
        <time>2020-02-14T17:33:34.412Z</time>
      </trkpt>
      <trkpt lat="42.44906" lon="1.75747">
        <ele>1850.8</ele>
        <time>2020-02-14T17:33:40.407Z</time>
      </trkpt>
      <trkpt lat="42.44912" lon="1.75751">
        <ele>1853.2</ele>
        <time>2020-02-14T17:33:43.902Z</time>
      </trkpt>
      <trkpt lat="42.44926" lon="1.75761">
        <ele>1852.7</ele>
        <time>2020-02-14T17:33:51.641Z</time>
      </trkpt>
      <trkpt lat="42.44939" lon="1.75756">
        <ele>1852.7</ele>
        <time>2020-02-14T17:33:58.065Z</time>
      </trkpt>
      <trkpt lat="42.44948" lon="1.75754">
        <ele>1851.8</ele>
        <time>2020-02-14T17:34:03.000Z</time>
      </trkpt>
      <trkpt lat="42.44952" lon="1.75755">
        <ele>1850.7</ele>
        <time>2020-02-14T17:34:04.647Z</time>
      </trkpt>
      <trkpt lat="42.44972" lon="1.75758">
        <ele>1844.9</ele>
        <time>2020-02-14T17:34:15.210Z</time>
      </trkpt>
      <trkpt lat="42.44979" lon="1.75762">
        <ele>1842.7</ele>
        <time>2020-02-14T17:34:19.080Z</time>
      </trkpt>
      <trkpt lat="42.44987" lon="1.75767">
        <ele>1840.1</ele>
        <time>2020-02-14T17:34:23.593Z</time>
      </trkpt>
      <trkpt lat="42.44987" lon="1.75767">
        <ele>1840</ele>
        <time>2020-02-14T17:34:23.842Z</time>
      </trkpt>
      <trkpt lat="42.44996" lon="1.75771">
        <ele>1837.7</ele>
        <time>2020-02-14T17:34:28.507Z</time>
      </trkpt>
      <trkpt lat="42.45" lon="1.75786">
        <ele>1832.7</ele>
        <time>2020-02-14T17:34:34.654Z</time>
      </trkpt>
      <trkpt lat="42.45" lon="1.75794">
        <ele>1830.3</ele>
        <time>2020-02-14T17:34:37.928Z</time>
      </trkpt>
      <trkpt lat="42.44999" lon="1.75806">
        <ele>1827.2</ele>
        <time>2020-02-14T17:34:42.365Z</time>
      </trkpt>
      <trkpt lat="42.44998" lon="1.75814">
        <ele>1824.8</ele>
        <time>2020-02-14T17:34:45.604Z</time>
      </trkpt>
      <trkpt lat="42.45" lon="1.75821">
        <ele>1822.6</ele>
        <time>2020-02-14T17:34:48.484Z</time>
      </trkpt>
      <trkpt lat="42.45005" lon="1.75833">
        <ele>1818.1</ele>
        <time>2020-02-14T17:34:53.682Z</time>
      </trkpt>
      <trkpt lat="42.45013" lon="1.75834">
        <ele>1816.2</ele>
        <time>2020-02-14T17:34:57.628Z</time>
      </trkpt>
      <trkpt lat="42.45024" lon="1.75834">
        <ele>1813.8</ele>
        <time>2020-02-14T17:35:03.248Z</time>
      </trkpt>
      <trkpt lat="42.45035" lon="1.75833">
        <ele>1811.7</ele>
        <time>2020-02-14T17:35:08.758Z</time>
      </trkpt>
      <trkpt lat="42.45054" lon="1.75829">
        <ele>1808.2</ele>
        <time>2020-02-14T17:35:18.386Z</time>
      </trkpt>
      <trkpt lat="42.45063" lon="1.75828">
        <ele>1806.3</ele>
        <time>2020-02-14T17:35:22.768Z</time>
      </trkpt>
      <trkpt lat="42.45069" lon="1.7583">
        <ele>1804.5</ele>
        <time>2020-02-14T17:35:26.021Z</time>
      </trkpt>
      <trkpt lat="42.45071" lon="1.75834">
        <ele>1803.1</ele>
        <time>2020-02-14T17:35:27.946Z</time>
      </trkpt>
      <trkpt lat="42.4507" lon="1.7584">
        <ele>1802.2</ele>
        <time>2020-02-14T17:35:30.230Z</time>
      </trkpt>
      <trkpt lat="42.45073" lon="1.75849">
        <ele>1799.6</ele>
        <time>2020-02-14T17:35:34.127Z</time>
      </trkpt>
      <trkpt lat="42.45078" lon="1.7586">
        <ele>1796.4</ele>
        <time>2020-02-14T17:35:39.090Z</time>
      </trkpt>
      <trkpt lat="42.45081" lon="1.75867">
        <ele>1794.4</ele>
        <time>2020-02-14T17:35:41.852Z</time>
      </trkpt>
      <trkpt lat="42.45087" lon="1.7588">
        <ele>1790.1</ele>
        <time>2020-02-14T17:35:47.985Z</time>
      </trkpt>
      <trkpt lat="42.45093" lon="1.75887">
        <ele>1787.4</ele>
        <time>2020-02-14T17:35:51.916Z</time>
      </trkpt>
      <trkpt lat="42.45105" lon="1.75893">
        <ele>1783.5</ele>
        <time>2020-02-14T17:35:58.451Z</time>
      </trkpt>
      <trkpt lat="42.45117" lon="1.75899">
        <ele>1779.5</ele>
        <time>2020-02-14T17:36:04.964Z</time>
      </trkpt>
      <trkpt lat="42.45123" lon="1.75899">
        <ele>1777.8</ele>
        <time>2020-02-14T17:36:07.975Z</time>
      </trkpt>
      <trkpt lat="42.45135" lon="1.75898">
        <ele>1774.4</ele>
        <time>2020-02-14T17:36:14.184Z</time>
      </trkpt>
      <trkpt lat="42.45141" lon="1.75898">
        <ele>1772.8</ele>
        <time>2020-02-14T17:36:17.320Z</time>
      </trkpt>
      <trkpt lat="42.4515" lon="1.759">
        <ele>1770.9</ele>
        <time>2020-02-14T17:36:21.791Z</time>
      </trkpt>
      <trkpt lat="42.45161" lon="1.75903">
        <ele>1768.3</ele>
        <time>2020-02-14T17:36:27.744Z</time>
      </trkpt>
      <trkpt lat="42.45172" lon="1.75904">
        <ele>1766.6</ele>
        <time>2020-02-14T17:36:32.956Z</time>
      </trkpt>
      <trkpt lat="42.4518" lon="1.75912">
        <ele>1764.2</ele>
        <time>2020-02-14T17:36:38.072Z</time>
      </trkpt>
      <trkpt lat="42.45181" lon="1.75912">
        <ele>1764</ele>
        <time>2020-02-14T17:36:38.473Z</time>
      </trkpt>
      <trkpt lat="42.4519" lon="1.75919">
        <ele>1761</ele>
        <time>2020-02-14T17:36:43.817Z</time>
      </trkpt>
      <trkpt lat="42.45204" lon="1.75928">
        <ele>1757</ele>
        <time>2020-02-14T17:36:51.500Z</time>
      </trkpt>
      <trkpt lat="42.45206" lon="1.7593">
        <ele>1756.2</ele>
        <time>2020-02-14T17:36:52.933Z</time>
      </trkpt>
      <trkpt lat="42.45217" lon="1.75936">
        <ele>1753</ele>
        <time>2020-02-14T17:36:58.761Z</time>
      </trkpt>
      <trkpt lat="42.45232" lon="1.75938">
        <ele>1749.2</ele>
        <time>2020-02-14T17:37:06.500Z</time>
      </trkpt>
      <trkpt lat="42.45236" lon="1.75939">
        <ele>1748.1</ele>
        <time>2020-02-14T17:37:08.590Z</time>
      </trkpt>
      <trkpt lat="42.4524" lon="1.75939">
        <ele>1747.2</ele>
        <time>2020-02-14T17:37:10.404Z</time>
      </trkpt>
      <trkpt lat="42.45244" lon="1.75942">
        <ele>1745.3</ele>
        <time>2020-02-14T17:37:13.027Z</time>
      </trkpt>
      <trkpt lat="42.45256" lon="1.7595">
        <ele>1741.1</ele>
        <time>2020-02-14T17:37:19.783Z</time>
      </trkpt>
      <trkpt lat="42.45265" lon="1.75962">
        <ele>1736.6</ele>
        <time>2020-02-14T17:37:26.276Z</time>
      </trkpt>
      <trkpt lat="42.45269" lon="1.75971">
        <ele>1733.5</ele>
        <time>2020-02-14T17:37:30.256Z</time>
      </trkpt>
      <trkpt lat="42.45273" lon="1.75976">
        <ele>1732.1</ele>
        <time>2020-02-14T17:37:33.066Z</time>
      </trkpt>
      <trkpt lat="42.4528" lon="1.75979">
        <ele>1731.6</ele>
        <time>2020-02-14T17:37:36.970Z</time>
      </trkpt>
      <trkpt lat="42.45294" lon="1.75982">
        <ele>1731</ele>
        <time>2020-02-14T17:37:43.809Z</time>
      </trkpt>
      <trkpt lat="42.45301" lon="1.75981">
        <ele>1731.1</ele>
        <time>2020-02-14T17:37:47.471Z</time>
      </trkpt>
      <trkpt lat="42.45303" lon="1.75981">
        <ele>1731.1</ele>
        <time>2020-02-14T17:37:48.384Z</time>
      </trkpt>
      <trkpt lat="42.45311" lon="1.75981">
        <ele>1731.3</ele>
        <time>2020-02-14T17:37:52.226Z</time>
      </trkpt>
      <trkpt lat="42.45324" lon="1.75984">
        <ele>1731.3</ele>
        <time>2020-02-14T17:37:58.719Z</time>
      </trkpt>
      <trkpt lat="42.45328" lon="1.75989">
        <ele>1731.3</ele>
        <time>2020-02-14T17:38:01.557Z</time>
      </trkpt>
      <trkpt lat="42.45328" lon="1.76005">
        <ele>1731.4</ele>
        <time>2020-02-14T17:38:07.302Z</time>
      </trkpt>
      <trkpt lat="42.45327" lon="1.7601">
        <ele>1732</ele>
        <time>2020-02-14T17:38:09.268Z</time>
      </trkpt>
      <trkpt lat="42.45323" lon="1.76016">
        <ele>1732.4</ele>
        <time>2020-02-14T17:38:12.057Z</time>
      </trkpt>
      <trkpt lat="42.45317" lon="1.76035">
        <ele>1733.9</ele>
        <time>2020-02-14T17:38:19.685Z</time>
      </trkpt>
      <trkpt lat="42.45304" lon="1.76052">
        <ele>1734.6</ele>
        <time>2020-02-14T17:38:28.525Z</time>
      </trkpt>
      <trkpt lat="42.45301" lon="1.76059">
        <ele>1734.8</ele>
        <time>2020-02-14T17:38:31.515Z</time>
      </trkpt>
      <trkpt lat="42.45298" lon="1.76079">
        <ele>1735.5</ele>
        <time>2020-02-14T17:38:38.963Z</time>
      </trkpt>
      <trkpt lat="42.45296" lon="1.76104">
        <ele>1735.3</ele>
        <time>2020-02-14T17:38:48.224Z</time>
      </trkpt>
      <trkpt lat="42.45297" lon="1.76111">
        <ele>1735</ele>
        <time>2020-02-14T17:38:50.633Z</time>
      </trkpt>
      <trkpt lat="42.45297" lon="1.76118">
        <ele>1734.3</ele>
        <time>2020-02-14T17:38:53.291Z</time>
      </trkpt>
      <trkpt lat="42.45295" lon="1.76126">
        <ele>1733.2</ele>
        <time>2020-02-14T17:38:56.184Z</time>
      </trkpt>
      <trkpt lat="42.4528" lon="1.76161">
        <ele>1728.5</ele>
        <time>2020-02-14T17:39:11.205Z</time>
      </trkpt>
      <trkpt lat="42.45277" lon="1.76169">
        <ele>1728.2</ele>
        <time>2020-02-14T17:39:14.451Z</time>
      </trkpt>
      <trkpt lat="42.45263" lon="1.76197">
        <ele>1728.6</ele>
        <time>2020-02-14T17:39:26.890Z</time>
      </trkpt>
      <trkpt lat="42.45255" lon="1.76209">
        <ele>1728.8</ele>
        <time>2020-02-14T17:39:32.878Z</time>
      </trkpt>
      <trkpt lat="42.45253" lon="1.76223">
        <ele>1729.2</ele>
        <time>2020-02-14T17:39:38.000Z</time>
      </trkpt>
      <trkpt lat="42.45298" lon="1.76065">
        <ele>1755.5</ele>
        <time>2020-02-14T17:40:40.581Z</time>
      </trkpt>
      <trkpt lat="42.45296" lon="1.76072">
        <ele>1757.1</ele>
        <time>2020-02-14T17:40:43.433Z</time>
      </trkpt>
      <trkpt lat="42.45296" lon="1.76101">
        <ele>1756</ele>
        <time>2020-02-14T17:40:53.802Z</time>
      </trkpt>
      <trkpt lat="42.45292" lon="1.76137">
        <ele>1752.6</ele>
        <time>2020-02-14T17:41:07.147Z</time>
      </trkpt>
      <trkpt lat="42.45287" lon="1.76144">
        <ele>1752.2</ele>
        <time>2020-02-14T17:41:10.719Z</time>
      </trkpt>
      <trkpt lat="42.45277" lon="1.76165">
        <ele>1749.8</ele>
        <time>2020-02-14T17:41:19.883Z</time>
      </trkpt>
      <trkpt lat="42.45251" lon="1.76212">
        <ele>1749.7</ele>
        <time>2020-02-14T17:41:40.995Z</time>
      </trkpt>
      <trkpt lat="42.4523" lon="1.76251">
        <ele>1749.8</ele>
        <time>2020-02-14T17:41:58.570Z</time>
      </trkpt>
      <trkpt lat="42.4521" lon="1.76283">
        <ele>1746.4</ele>
        <time>2020-02-14T17:42:14.137Z</time>
      </trkpt>
      <trkpt lat="42.45209" lon="1.76285">
        <ele>1746.4</ele>
        <time>2020-02-14T17:42:15.051Z</time>
      </trkpt>
      <trkpt lat="42.45202" lon="1.76303">
        <ele>1744.6</ele>
        <time>2020-02-14T17:42:22.222Z</time>
      </trkpt>
      <trkpt lat="42.452" lon="1.76308">
        <ele>1744</ele>
        <time>2020-02-14T17:42:24.437Z</time>
      </trkpt>
      <trkpt lat="42.4519" lon="1.76329">
        <ele>1741.7</ele>
        <time>2020-02-14T17:42:33.581Z</time>
      </trkpt>
      <trkpt lat="42.45186" lon="1.7634">
        <ele>1741.1</ele>
        <time>2020-02-14T17:42:38.122Z</time>
      </trkpt>
      <trkpt lat="42.45173" lon="1.76363">
        <ele>1739.3</ele>
        <time>2020-02-14T17:42:48.574Z</time>
      </trkpt>
      <trkpt lat="42.45162" lon="1.76368">
        <ele>1737.2</ele>
        <time>2020-02-14T17:42:54.001Z</time>
      </trkpt>
      <trkpt lat="42.45138" lon="1.76389">
        <ele>1735.3</ele>
        <time>2020-02-14T17:43:08.467Z</time>
      </trkpt>
      <trkpt lat="42.45113" lon="1.76423">
        <ele>1732.5</ele>
        <time>2020-02-14T17:43:25.675Z</time>
      </trkpt>
      <trkpt lat="42.45087" lon="1.76463">
        <ele>1728.7</ele>
        <time>2020-02-14T17:43:45.209Z</time>
      </trkpt>
      <trkpt lat="42.45064" lon="1.76494">
        <ele>1725.7</ele>
        <time>2020-02-14T17:44:01.275Z</time>
      </trkpt>
      <trkpt lat="42.45043" lon="1.7653">
        <ele>1722.8</ele>
        <time>2020-02-14T17:44:17.811Z</time>
      </trkpt>
      <trkpt lat="42.45034" lon="1.76548">
        <ele>1719.6</ele>
        <time>2020-02-14T17:44:26.235Z</time>
      </trkpt>
      <trkpt lat="42.4502" lon="1.76583">
        <ele>1716.7</ele>
        <time>2020-02-14T17:44:40.515Z</time>
      </trkpt>
      <trkpt lat="42.45006" lon="1.76616">
        <ele>1713.3</ele>
        <time>2020-02-14T17:44:54.608Z</time>
      </trkpt>
      <trkpt lat="42.45" lon="1.76633">
        <ele>1712.3</ele>
        <time>2020-02-14T17:45:01.433Z</time>
      </trkpt>
      <trkpt lat="42.44986" lon="1.76668">
        <ele>1709</ele>
        <time>2020-02-14T17:45:15.955Z</time>
      </trkpt>
      <trkpt lat="42.44985" lon="1.76672">
        <ele>1709</ele>
        <time>2020-02-14T17:45:17.277Z</time>
      </trkpt>
      <trkpt lat="42.44977" lon="1.76698">
        <ele>1705</ele>
        <time>2020-02-14T17:45:27.764Z</time>
      </trkpt>
      <trkpt lat="42.44969" lon="1.76738">
        <ele>1702.3</ele>
        <time>2020-02-14T17:45:42.750Z</time>
      </trkpt>
      <trkpt lat="42.44963" lon="1.7675">
        <ele>1698.8</ele>
        <time>2020-02-14T17:45:48.578Z</time>
      </trkpt>
      <trkpt lat="42.44962" lon="1.76753">
        <ele>1698.3</ele>
        <time>2020-02-14T17:45:49.623Z</time>
      </trkpt>
      <trkpt lat="42.44957" lon="1.76761">
        <ele>1696.9</ele>
        <time>2020-02-14T17:45:53.424Z</time>
      </trkpt>
      <trkpt lat="42.44946" lon="1.76767">
        <ele>1693</ele>
        <time>2020-02-14T17:45:59.688Z</time>
      </trkpt>
      <trkpt lat="42.44944" lon="1.76793">
        <ele>1689.2</ele>
        <time>2020-02-14T17:46:09.316Z</time>
      </trkpt>
      <trkpt lat="42.44954" lon="1.76805">
        <ele>1686.3</ele>
        <time>2020-02-14T17:46:15.920Z</time>
      </trkpt>
      <trkpt lat="42.44962" lon="1.7681">
        <ele>1683.9</ele>
        <time>2020-02-14T17:46:20.564Z</time>
      </trkpt>
      <trkpt lat="42.44966" lon="1.76814">
        <ele>1681.5</ele>
        <time>2020-02-14T17:46:23.319Z</time>
      </trkpt>
      <trkpt lat="42.44969" lon="1.76815">
        <ele>1680</ele>
        <time>2020-02-14T17:46:25.015Z</time>
      </trkpt>
      <trkpt lat="42.44984" lon="1.76824">
        <ele>1675.3</ele>
        <time>2020-02-14T17:46:33.252Z</time>
      </trkpt>
      <trkpt lat="42.4499" lon="1.76827">
        <ele>1675.2</ele>
        <time>2020-02-14T17:46:36.464Z</time>
      </trkpt>
      <trkpt lat="42.44996" lon="1.7684">
        <ele>1672.4</ele>
        <time>2020-02-14T17:46:42.036Z</time>
      </trkpt>
      <trkpt lat="42.45" lon="1.76846">
        <ele>1670.4</ele>
        <time>2020-02-14T17:46:45.151Z</time>
      </trkpt>
      <trkpt lat="42.45021" lon="1.76856">
        <ele>1666.6</ele>
        <time>2020-02-14T17:46:56.233Z</time>
      </trkpt>
      <trkpt lat="42.45023" lon="1.76856">
        <ele>1666.6</ele>
        <time>2020-02-14T17:46:57.320Z</time>
      </trkpt>
      <trkpt lat="42.45039" lon="1.76855">
        <ele>1664.3</ele>
        <time>2020-02-14T17:47:04.941Z</time>
      </trkpt>
      <trkpt lat="42.4505" lon="1.76856">
        <ele>1662.7</ele>
        <time>2020-02-14T17:47:10.430Z</time>
      </trkpt>
      <trkpt lat="42.4506" lon="1.76868">
        <ele>1661.9</ele>
        <time>2020-02-14T17:47:17.379Z</time>
      </trkpt>
      <trkpt lat="42.4508" lon="1.76917">
        <ele>1663.3</ele>
        <time>2020-02-14T17:47:37.294Z</time>
      </trkpt>
      <trkpt lat="42.45093" lon="1.76951">
        <ele>1663.7</ele>
        <time>2020-02-14T17:47:51.318Z</time>
      </trkpt>
      <trkpt lat="42.45099" lon="1.76992">
        <ele>1665.7</ele>
        <time>2020-02-14T17:48:06.518Z</time>
      </trkpt>
      <trkpt lat="42.45105" lon="1.77033">
        <ele>1666.1</ele>
        <time>2020-02-14T17:48:21.836Z</time>
      </trkpt>
      <trkpt lat="42.45115" lon="1.7707">
        <ele>1662.8</ele>
        <time>2020-02-14T17:48:36.199Z</time>
      </trkpt>
      <trkpt lat="42.4512" lon="1.77091">
        <ele>1663.2</ele>
        <time>2020-02-14T17:48:44.062Z</time>
      </trkpt>
      <trkpt lat="42.45104" lon="1.77132">
        <ele>1661.3</ele>
        <time>2020-02-14T17:49:01.007Z</time>
      </trkpt>
      <trkpt lat="42.45094" lon="1.77161">
        <ele>1658.9</ele>
        <time>2020-02-14T17:49:12.643Z</time>
      </trkpt>
      <trkpt lat="42.4508" lon="1.77185">
        <ele>1655.6</ele>
        <time>2020-02-14T17:49:24.037Z</time>
      </trkpt>
      <trkpt lat="42.45072" lon="1.77217">
        <ele>1652.3</ele>
        <time>2020-02-14T17:49:36.302Z</time>
      </trkpt>
      <trkpt lat="42.45064" lon="1.77245">
        <ele>1648.9</ele>
        <time>2020-02-14T17:49:47.163Z</time>
      </trkpt>
      <trkpt lat="42.45062" lon="1.77252">
        <ele>1647.5</ele>
        <time>2020-02-14T17:49:50.070Z</time>
      </trkpt>
      <trkpt lat="42.45054" lon="1.77276">
        <ele>1644.1</ele>
        <time>2020-02-14T17:49:59.774Z</time>
      </trkpt>
      <trkpt lat="42.45053" lon="1.77279">
        <ele>1644</ele>
        <time>2020-02-14T17:50:00.910Z</time>
      </trkpt>
      <trkpt lat="42.45044" lon="1.77305">
        <ele>1640.6</ele>
        <time>2020-02-14T17:50:11.583Z</time>
      </trkpt>
      <trkpt lat="42.45033" lon="1.77338">
        <ele>1637.8</ele>
        <time>2020-02-14T17:50:24.804Z</time>
      </trkpt>
      <trkpt lat="42.45023" lon="1.77373">
        <ele>1634.9</ele>
        <time>2020-02-14T17:50:38.572Z</time>
      </trkpt>
      <trkpt lat="42.45022" lon="1.7738">
        <ele>1633.9</ele>
        <time>2020-02-14T17:50:41.001Z</time>
      </trkpt>
      <trkpt lat="42.4502" lon="1.77415">
        <ele>1632</ele>
        <time>2020-02-14T17:50:53.931Z</time>
      </trkpt>
      <trkpt lat="42.4502" lon="1.77425">
        <ele>1630.5</ele>
        <time>2020-02-14T17:50:57.697Z</time>
      </trkpt>
      <trkpt lat="42.45014" lon="1.77436">
        <ele>1629.6</ele>
        <time>2020-02-14T17:51:02.425Z</time>
      </trkpt>
      <trkpt lat="42.45002" lon="1.77464">
        <ele>1625.8</ele>
        <time>2020-02-14T17:51:14.344Z</time>
      </trkpt>
      <trkpt lat="42.45001" lon="1.77467">
        <ele>1625.8</ele>
        <time>2020-02-14T17:51:15.459Z</time>
      </trkpt>
      <trkpt lat="42.45" lon="1.77473">
        <ele>1624.4</ele>
        <time>2020-02-14T17:51:18.020Z</time>
      </trkpt>
      <trkpt lat="42.44996" lon="1.77489">
        <ele>1621.4</ele>
        <time>2020-02-14T17:51:24.360Z</time>
      </trkpt>
      <trkpt lat="42.44994" lon="1.77505">
        <ele>1618.1</ele>
        <time>2020-02-14T17:51:30.389Z</time>
      </trkpt>
      <trkpt lat="42.44992" lon="1.77516">
        <ele>1616.7</ele>
        <time>2020-02-14T17:51:34.466Z</time>
      </trkpt>
      <trkpt lat="42.4499" lon="1.77536">
        <ele>1612.8</ele>
        <time>2020-02-14T17:51:42.032Z</time>
      </trkpt>
      <trkpt lat="42.44989" lon="1.7754">
        <ele>1612.3</ele>
        <time>2020-02-14T17:51:43.430Z</time>
      </trkpt>
      <trkpt lat="42.44987" lon="1.77547">
        <ele>1611.9</ele>
        <time>2020-02-14T17:51:46.130Z</time>
      </trkpt>
      <trkpt lat="42.44986" lon="1.77552">
        <ele>1611.4</ele>
        <time>2020-02-14T17:51:47.978Z</time>
      </trkpt>
      <trkpt lat="42.44981" lon="1.77561">
        <ele>1609.5</ele>
        <time>2020-02-14T17:51:52.297Z</time>
      </trkpt>
      <trkpt lat="42.44975" lon="1.77573">
        <ele>1606.6</ele>
        <time>2020-02-14T17:51:57.675Z</time>
      </trkpt>
      <trkpt lat="42.44975" lon="1.77575">
        <ele>1606.1</ele>
        <time>2020-02-14T17:51:58.444Z</time>
      </trkpt>
      <trkpt lat="42.44971" lon="1.7759">
        <ele>1603.7</ele>
        <time>2020-02-14T17:52:04.341Z</time>
      </trkpt>
      <trkpt lat="42.44967" lon="1.77595">
        <ele>1602.8</ele>
        <time>2020-02-14T17:52:07.124Z</time>
      </trkpt>
      <trkpt lat="42.44965" lon="1.77616">
        <ele>1601.2</ele>
        <time>2020-02-14T17:52:14.731Z</time>
      </trkpt>
      <trkpt lat="42.44962" lon="1.77641">
        <ele>1598.3</ele>
        <time>2020-02-14T17:52:24.089Z</time>
      </trkpt>
      <trkpt lat="42.44965" lon="1.77674">
        <ele>1595</ele>
        <time>2020-02-14T17:52:36.016Z</time>
      </trkpt>
      <trkpt lat="42.44966" lon="1.77708">
        <ele>1592.6</ele>
        <time>2020-02-14T17:52:48.427Z</time>
      </trkpt>
      <trkpt lat="42.4496" lon="1.77723">
        <ele>1592.1</ele>
        <time>2020-02-14T17:52:54.968Z</time>
      </trkpt>
      <trkpt lat="42.44947" lon="1.77728">
        <ele>1589.7</ele>
        <time>2020-02-14T17:53:01.558Z</time>
      </trkpt>
      <trkpt lat="42.44927" lon="1.77746">
        <ele>1586.8</ele>
        <time>2020-02-14T17:53:13.623Z</time>
      </trkpt>
      <trkpt lat="42.44917" lon="1.77765">
        <ele>1585.9</ele>
        <time>2020-02-14T17:53:22.185Z</time>
      </trkpt>
      <trkpt lat="42.44917" lon="1.77767">
        <ele>1585.9</ele>
        <time>2020-02-14T17:53:22.635Z</time>
      </trkpt>
      <trkpt lat="42.44905" lon="1.77806">
        <ele>1583.9</ele>
        <time>2020-02-14T17:53:38.181Z</time>
      </trkpt>
      <trkpt lat="42.44894" lon="1.77841">
        <ele>1582.1</ele>
        <time>2020-02-14T17:53:52.060Z</time>
      </trkpt>
      <trkpt lat="42.44883" lon="1.7789">
        <ele>1580.5</ele>
        <time>2020-02-14T17:54:10.541Z</time>
      </trkpt>
      <trkpt lat="42.44872" lon="1.77931">
        <ele>1578.7</ele>
        <time>2020-02-14T17:54:26.642Z</time>
      </trkpt>
      <trkpt lat="42.44855" lon="1.7796">
        <ele>1576.7</ele>
        <time>2020-02-14T17:54:40.015Z</time>
      </trkpt>
      <trkpt lat="42.44836" lon="1.78013">
        <ele>1574.3</ele>
        <time>2020-02-14T17:55:01.459Z</time>
      </trkpt>
      <trkpt lat="42.44821" lon="1.78066">
        <ele>1572.4</ele>
        <time>2020-02-14T17:55:22.093Z</time>
      </trkpt>
      <trkpt lat="42.44797" lon="1.78116">
        <ele>1570</ele>
        <time>2020-02-14T17:55:43.835Z</time>
      </trkpt>
      <trkpt lat="42.44767" lon="1.7816">
        <ele>1568.6</ele>
        <time>2020-02-14T17:56:05.625Z</time>
      </trkpt>
      <trkpt lat="42.44756" lon="1.78185">
        <ele>1567.6</ele>
        <time>2020-02-14T17:56:16.070Z</time>
      </trkpt>
      <trkpt lat="42.4474" lon="1.78222">
        <ele>1568.2</ele>
        <time>2020-02-14T17:56:31.797Z</time>
      </trkpt>
      <trkpt lat="42.44734" lon="1.78251">
        <ele>1567.1</ele>
        <time>2020-02-14T17:56:42.872Z</time>
      </trkpt>
      <trkpt lat="42.44724" lon="1.78282">
        <ele>1566.1</ele>
        <time>2020-02-14T17:56:55.103Z</time>
      </trkpt>
      <trkpt lat="42.44719" lon="1.78316">
        <ele>1566.6</ele>
        <time>2020-02-14T17:57:07.493Z</time>
      </trkpt>
      <trkpt lat="42.44713" lon="1.7835">
        <ele>1566.2</ele>
        <time>2020-02-14T17:57:20.423Z</time>
      </trkpt>
      <trkpt lat="42.44709" lon="1.78391">
        <ele>1565.6</ele>
        <time>2020-02-14T17:57:35.202Z</time>
      </trkpt>
      <trkpt lat="42.44705" lon="1.78409">
        <ele>1565.6</ele>
        <time>2020-02-14T17:57:42.151Z</time>
      </trkpt>
      <trkpt lat="42.44678" lon="1.78446">
        <ele>1564.8</ele>
        <time>2020-02-14T17:58:01.221Z</time>
      </trkpt>
      <trkpt lat="42.44679" lon="1.78447">
        <ele>1566.2</ele>
        <time>2020-02-14T17:58:02.100Z</time>
      </trkpt>
      <trkpt lat="42.44678" lon="1.78449">
        <ele>1565.6</ele>
        <time>2020-02-14T17:58:02.779Z</time>
      </trkpt>
      <trkpt lat="42.44673" lon="1.78472">
        <ele>1565.6</ele>
        <time>2020-02-14T17:58:11.604Z</time>
      </trkpt>
      <trkpt lat="42.44654" lon="1.78518">
        <ele>1563.3</ele>
        <time>2020-02-14T17:58:30.833Z</time>
      </trkpt>
      <trkpt lat="42.44644" lon="1.78567">
        <ele>1561.9</ele>
        <time>2020-02-14T17:58:49.218Z</time>
      </trkpt>
      <trkpt lat="42.44642" lon="1.78614">
        <ele>1561.3</ele>
        <time>2020-02-14T17:59:06.342Z</time>
      </trkpt>
      <trkpt lat="42.44634" lon="1.78644">
        <ele>1560.8</ele>
        <time>2020-02-14T17:59:18.061Z</time>
      </trkpt>
      <trkpt lat="42.44621" lon="1.78674">
        <ele>1559.5</ele>
        <time>2020-02-14T17:59:30.576Z</time>
      </trkpt>
      <trkpt lat="42.44617" lon="1.78683">
        <ele>1557.5</ele>
        <time>2020-02-14T17:59:34.300Z</time>
      </trkpt>
      <trkpt lat="42.44612" lon="1.78709">
        <ele>1556.5</ele>
        <time>2020-02-14T17:59:44.371Z</time>
      </trkpt>
      <trkpt lat="42.4461" lon="1.78709">
        <ele>1556.1</ele>
        <time>2020-02-14T17:59:45.237Z</time>
      </trkpt>
      <trkpt lat="42.44597" lon="1.78704">
        <ele>1552.7</ele>
        <time>2020-02-14T17:59:52.055Z</time>
      </trkpt>
      <trkpt lat="42.44579" lon="1.78699">
        <ele>1549.9</ele>
        <time>2020-02-14T18:00:00.970Z</time>
      </trkpt>
      <trkpt lat="42.44564" lon="1.787">
        <ele>1546.4</ele>
        <time>2020-02-14T18:00:08.480Z</time>
      </trkpt>
      <trkpt lat="42.44556" lon="1.78705">
        <ele>1545.1</ele>
        <time>2020-02-14T18:00:13.021Z</time>
      </trkpt>
      <trkpt lat="42.44556" lon="1.78707">
        <ele>1543.5</ele>
        <time>2020-02-14T18:00:14.253Z</time>
      </trkpt>
      <trkpt lat="42.44556" lon="1.78707">
        <ele>1547.5</ele>
        <time>2020-02-14T18:00:16.005Z</time>
      </trkpt>
      <trkpt lat="42.44556" lon="1.78707">
        <ele>1545</ele>
        <time>2020-02-14T18:00:17.098Z</time>
      </trkpt>
      <trkpt lat="42.44557" lon="1.78707">
        <ele>1543.2</ele>
        <time>2020-02-14T18:00:18.123Z</time>
      </trkpt>
      <trkpt lat="42.44558" lon="1.78707">
        <ele>1543.1</ele>
        <time>2020-02-14T18:00:18.227Z</time>
      </trkpt>
    </trkseg>
  </trk>
</gpx>